<?xml version="1.0" encoding="UTF-8" standalone="no" ?>
<gpx xmlns="http://www.topografix.com/GPX/1/1" xmlns:xsi="http://www.w3.org/2001/XMLSchema-instance" xsi:schemaLocation="http://www.topografix.com/GPX/1/1 http://www.topografix.com/GPX/1/1/gpx.xsd" version="1.1" creator="VisuGPX - https://www.visugpx.com">
  <metadata>
    <name>CAVANAC LE 18.08.2019 - acfc</name>
    <desc><![CDATA[Sortie classique sans trop de dénivelé + sur la commune de CAVANAC avec un passage sur la commune de PALAJA. Peut se faire en randonnée]]></desc>
  </metadata>
  <trk>
    <name><![CDATA[TrailRunning]]></name>
    <trkseg>
      <trkpt lat="43.16914" lon="2.32484">
        <ele>145.7</ele>
        <time>2019-08-18T05:57:22.000Z</time>
      </trkpt>
      <trkpt lat="43.16914" lon="2.32485">
        <ele>145.8</ele>
        <time>2019-08-18T05:57:23.000Z</time>
      </trkpt>
      <trkpt lat="43.16914" lon="2.32487">
        <ele>145.8</ele>
        <time>2019-08-18T05:57:24.000Z</time>
      </trkpt>
      <trkpt lat="43.16914" lon="2.32489">
        <ele>145.9</ele>
        <time>2019-08-18T05:57:25.000Z</time>
      </trkpt>
      <trkpt lat="43.16913" lon="2.32491">
        <ele>145.9</ele>
        <time>2019-08-18T05:57:26.000Z</time>
      </trkpt>
      <trkpt lat="43.16913" lon="2.32493">
        <ele>146</ele>
        <time>2019-08-18T05:57:27.000Z</time>
      </trkpt>
      <trkpt lat="43.16913" lon="2.32495">
        <ele>146.1</ele>
        <time>2019-08-18T05:57:28.000Z</time>
      </trkpt>
      <trkpt lat="43.16912" lon="2.32497">
        <ele>146.1</ele>
        <time>2019-08-18T05:57:29.000Z</time>
      </trkpt>
      <trkpt lat="43.16912" lon="2.325">
        <ele>146.2</ele>
        <time>2019-08-18T05:57:30.000Z</time>
      </trkpt>
      <trkpt lat="43.16911" lon="2.32502">
        <ele>146.2</ele>
        <time>2019-08-18T05:57:31.000Z</time>
      </trkpt>
      <trkpt lat="43.16911" lon="2.32504">
        <ele>146.2</ele>
        <time>2019-08-18T05:57:32.000Z</time>
      </trkpt>
      <trkpt lat="43.1691" lon="2.32507">
        <ele>146.2</ele>
        <time>2019-08-18T05:57:33.000Z</time>
      </trkpt>
      <trkpt lat="43.1691" lon="2.32509">
        <ele>146.3</ele>
        <time>2019-08-18T05:57:34.000Z</time>
      </trkpt>
      <trkpt lat="43.16909" lon="2.32512">
        <ele>146.3</ele>
        <time>2019-08-18T05:57:35.000Z</time>
      </trkpt>
      <trkpt lat="43.16908" lon="2.32514">
        <ele>146.3</ele>
        <time>2019-08-18T05:57:36.000Z</time>
      </trkpt>
      <trkpt lat="43.16908" lon="2.32517">
        <ele>146.3</ele>
        <time>2019-08-18T05:57:37.000Z</time>
      </trkpt>
      <trkpt lat="43.16907" lon="2.32519">
        <ele>146.3</ele>
        <time>2019-08-18T05:57:38.000Z</time>
      </trkpt>
      <trkpt lat="43.16906" lon="2.32522">
        <ele>146.3</ele>
        <time>2019-08-18T05:57:39.000Z</time>
      </trkpt>
      <trkpt lat="43.16906" lon="2.32524">
        <ele>146.4</ele>
        <time>2019-08-18T05:57:40.000Z</time>
      </trkpt>
      <trkpt lat="43.16905" lon="2.32526">
        <ele>146.4</ele>
        <time>2019-08-18T05:57:41.000Z</time>
      </trkpt>
      <trkpt lat="43.16904" lon="2.32529">
        <ele>146.4</ele>
        <time>2019-08-18T05:57:42.000Z</time>
      </trkpt>
      <trkpt lat="43.16903" lon="2.32531">
        <ele>146.5</ele>
        <time>2019-08-18T05:57:43.000Z</time>
      </trkpt>
      <trkpt lat="43.16902" lon="2.32534">
        <ele>146.5</ele>
        <time>2019-08-18T05:57:44.000Z</time>
      </trkpt>
      <trkpt lat="43.16901" lon="2.32536">
        <ele>146.6</ele>
        <time>2019-08-18T05:57:45.000Z</time>
      </trkpt>
      <trkpt lat="43.169" lon="2.32538">
        <ele>146.6</ele>
        <time>2019-08-18T05:57:46.000Z</time>
      </trkpt>
      <trkpt lat="43.16899" lon="2.32541">
        <ele>146.7</ele>
        <time>2019-08-18T05:57:47.000Z</time>
      </trkpt>
      <trkpt lat="43.16898" lon="2.32543">
        <ele>146.7</ele>
        <time>2019-08-18T05:57:48.000Z</time>
      </trkpt>
      <trkpt lat="43.16897" lon="2.32546">
        <ele>146.8</ele>
        <time>2019-08-18T05:57:49.000Z</time>
      </trkpt>
      <trkpt lat="43.16896" lon="2.32548">
        <ele>146.8</ele>
        <time>2019-08-18T05:57:50.000Z</time>
      </trkpt>
      <trkpt lat="43.16895" lon="2.32551">
        <ele>146.9</ele>
        <time>2019-08-18T05:57:51.000Z</time>
      </trkpt>
      <trkpt lat="43.16894" lon="2.32554">
        <ele>147</ele>
        <time>2019-08-18T05:57:52.000Z</time>
      </trkpt>
      <trkpt lat="43.16893" lon="2.32556">
        <ele>147</ele>
        <time>2019-08-18T05:57:53.000Z</time>
      </trkpt>
      <trkpt lat="43.16892" lon="2.32559">
        <ele>147.1</ele>
        <time>2019-08-18T05:57:54.000Z</time>
      </trkpt>
      <trkpt lat="43.16891" lon="2.32562">
        <ele>147.2</ele>
        <time>2019-08-18T05:57:55.000Z</time>
      </trkpt>
      <trkpt lat="43.1689" lon="2.32564">
        <ele>147.3</ele>
        <time>2019-08-18T05:57:56.000Z</time>
      </trkpt>
      <trkpt lat="43.16889" lon="2.32567">
        <ele>147.3</ele>
        <time>2019-08-18T05:57:57.000Z</time>
      </trkpt>
      <trkpt lat="43.16888" lon="2.32569">
        <ele>147.4</ele>
        <time>2019-08-18T05:57:58.000Z</time>
      </trkpt>
      <trkpt lat="43.16887" lon="2.32571">
        <ele>147.5</ele>
        <time>2019-08-18T05:57:59.000Z</time>
      </trkpt>
      <trkpt lat="43.16887" lon="2.32574">
        <ele>147.5</ele>
        <time>2019-08-18T05:58:00.000Z</time>
      </trkpt>
      <trkpt lat="43.16886" lon="2.32576">
        <ele>147.6</ele>
        <time>2019-08-18T05:58:01.000Z</time>
      </trkpt>
      <trkpt lat="43.16886" lon="2.32578">
        <ele>147.6</ele>
        <time>2019-08-18T05:58:02.000Z</time>
      </trkpt>
      <trkpt lat="43.16885" lon="2.3258">
        <ele>147.6</ele>
        <time>2019-08-18T05:58:03.000Z</time>
      </trkpt>
      <trkpt lat="43.16885" lon="2.32582">
        <ele>147.7</ele>
        <time>2019-08-18T05:58:04.000Z</time>
      </trkpt>
      <trkpt lat="43.16884" lon="2.32584">
        <ele>147.7</ele>
        <time>2019-08-18T05:58:05.000Z</time>
      </trkpt>
      <trkpt lat="43.16884" lon="2.32587">
        <ele>147.6</ele>
        <time>2019-08-18T05:58:06.000Z</time>
      </trkpt>
      <trkpt lat="43.16883" lon="2.32589">
        <ele>147.6</ele>
        <time>2019-08-18T05:58:07.000Z</time>
      </trkpt>
      <trkpt lat="43.16883" lon="2.32591">
        <ele>147.6</ele>
        <time>2019-08-18T05:58:08.000Z</time>
      </trkpt>
      <trkpt lat="43.16882" lon="2.32594">
        <ele>147.6</ele>
        <time>2019-08-18T05:58:09.000Z</time>
      </trkpt>
      <trkpt lat="43.16881" lon="2.32596">
        <ele>147.6</ele>
        <time>2019-08-18T05:58:10.000Z</time>
      </trkpt>
      <trkpt lat="43.1688" lon="2.32599">
        <ele>147.6</ele>
        <time>2019-08-18T05:58:11.000Z</time>
      </trkpt>
      <trkpt lat="43.16878" lon="2.32601">
        <ele>147.7</ele>
        <time>2019-08-18T05:58:12.000Z</time>
      </trkpt>
      <trkpt lat="43.16876" lon="2.32604">
        <ele>147.9</ele>
        <time>2019-08-18T05:58:13.000Z</time>
      </trkpt>
      <trkpt lat="43.16874" lon="2.32607">
        <ele>148.1</ele>
        <time>2019-08-18T05:58:14.000Z</time>
      </trkpt>
      <trkpt lat="43.16872" lon="2.32609">
        <ele>148.3</ele>
        <time>2019-08-18T05:58:15.000Z</time>
      </trkpt>
      <trkpt lat="43.16869" lon="2.32612">
        <ele>148.5</ele>
        <time>2019-08-18T05:58:16.000Z</time>
      </trkpt>
      <trkpt lat="43.16868" lon="2.32614">
        <ele>148.6</ele>
        <time>2019-08-18T05:58:17.000Z</time>
      </trkpt>
      <trkpt lat="43.16866" lon="2.32617">
        <ele>148.8</ele>
        <time>2019-08-18T05:58:18.000Z</time>
      </trkpt>
      <trkpt lat="43.16865" lon="2.32619">
        <ele>148.9</ele>
        <time>2019-08-18T05:58:19.000Z</time>
      </trkpt>
      <trkpt lat="43.16864" lon="2.32622">
        <ele>149</ele>
        <time>2019-08-18T05:58:20.000Z</time>
      </trkpt>
      <trkpt lat="43.16863" lon="2.32625">
        <ele>149.1</ele>
        <time>2019-08-18T05:58:21.000Z</time>
      </trkpt>
      <trkpt lat="43.16862" lon="2.32627">
        <ele>149.1</ele>
        <time>2019-08-18T05:58:22.000Z</time>
      </trkpt>
      <trkpt lat="43.16862" lon="2.3263">
        <ele>149.2</ele>
        <time>2019-08-18T05:58:23.000Z</time>
      </trkpt>
      <trkpt lat="43.16861" lon="2.32633">
        <ele>149.3</ele>
        <time>2019-08-18T05:58:24.000Z</time>
      </trkpt>
      <trkpt lat="43.16861" lon="2.32636">
        <ele>149.3</ele>
        <time>2019-08-18T05:58:25.000Z</time>
      </trkpt>
      <trkpt lat="43.1686" lon="2.32639">
        <ele>149.4</ele>
        <time>2019-08-18T05:58:26.000Z</time>
      </trkpt>
      <trkpt lat="43.1686" lon="2.32642">
        <ele>149.4</ele>
        <time>2019-08-18T05:58:27.000Z</time>
      </trkpt>
      <trkpt lat="43.16859" lon="2.32645">
        <ele>149.5</ele>
        <time>2019-08-18T05:58:28.000Z</time>
      </trkpt>
      <trkpt lat="43.16859" lon="2.32648">
        <ele>149.5</ele>
        <time>2019-08-18T05:58:29.000Z</time>
      </trkpt>
      <trkpt lat="43.16859" lon="2.32651">
        <ele>149.5</ele>
        <time>2019-08-18T05:58:30.000Z</time>
      </trkpt>
      <trkpt lat="43.16858" lon="2.32654">
        <ele>149.6</ele>
        <time>2019-08-18T05:58:31.000Z</time>
      </trkpt>
      <trkpt lat="43.16858" lon="2.32657">
        <ele>149.6</ele>
        <time>2019-08-18T05:58:32.000Z</time>
      </trkpt>
      <trkpt lat="43.16858" lon="2.3266">
        <ele>149.7</ele>
        <time>2019-08-18T05:58:33.000Z</time>
      </trkpt>
      <trkpt lat="43.16857" lon="2.32663">
        <ele>149.7</ele>
        <time>2019-08-18T05:58:34.000Z</time>
      </trkpt>
      <trkpt lat="43.16857" lon="2.32666">
        <ele>149.8</ele>
        <time>2019-08-18T05:58:35.000Z</time>
      </trkpt>
      <trkpt lat="43.16856" lon="2.32669">
        <ele>149.8</ele>
        <time>2019-08-18T05:58:36.000Z</time>
      </trkpt>
      <trkpt lat="43.16856" lon="2.32672">
        <ele>149.9</ele>
        <time>2019-08-18T05:58:37.000Z</time>
      </trkpt>
      <trkpt lat="43.16856" lon="2.32675">
        <ele>149.9</ele>
        <time>2019-08-18T05:58:38.000Z</time>
      </trkpt>
      <trkpt lat="43.16855" lon="2.32678">
        <ele>149.9</ele>
        <time>2019-08-18T05:58:39.000Z</time>
      </trkpt>
      <trkpt lat="43.16855" lon="2.32681">
        <ele>150</ele>
        <time>2019-08-18T05:58:40.000Z</time>
      </trkpt>
      <trkpt lat="43.16854" lon="2.32684">
        <ele>150</ele>
        <time>2019-08-18T05:58:41.000Z</time>
      </trkpt>
      <trkpt lat="43.16854" lon="2.32687">
        <ele>150</ele>
        <time>2019-08-18T05:58:42.000Z</time>
      </trkpt>
      <trkpt lat="43.16854" lon="2.3269">
        <ele>150.1</ele>
        <time>2019-08-18T05:58:43.000Z</time>
      </trkpt>
      <trkpt lat="43.16854" lon="2.32693">
        <ele>150.1</ele>
        <time>2019-08-18T05:58:44.000Z</time>
      </trkpt>
      <trkpt lat="43.16853" lon="2.32696">
        <ele>150.1</ele>
        <time>2019-08-18T05:58:45.000Z</time>
      </trkpt>
      <trkpt lat="43.16853" lon="2.32699">
        <ele>150</ele>
        <time>2019-08-18T05:58:46.000Z</time>
      </trkpt>
      <trkpt lat="43.16853" lon="2.32703">
        <ele>150</ele>
        <time>2019-08-18T05:58:47.000Z</time>
      </trkpt>
      <trkpt lat="43.16853" lon="2.32706">
        <ele>150</ele>
        <time>2019-08-18T05:58:48.000Z</time>
      </trkpt>
      <trkpt lat="43.16853" lon="2.3271">
        <ele>149.9</ele>
        <time>2019-08-18T05:58:49.000Z</time>
      </trkpt>
      <trkpt lat="43.16853" lon="2.32713">
        <ele>149.8</ele>
        <time>2019-08-18T05:58:50.000Z</time>
      </trkpt>
      <trkpt lat="43.16854" lon="2.32716">
        <ele>149.8</ele>
        <time>2019-08-18T05:58:51.000Z</time>
      </trkpt>
      <trkpt lat="43.16854" lon="2.3272">
        <ele>149.7</ele>
        <time>2019-08-18T05:58:52.000Z</time>
      </trkpt>
      <trkpt lat="43.16854" lon="2.32723">
        <ele>149.7</ele>
        <time>2019-08-18T05:58:53.000Z</time>
      </trkpt>
      <trkpt lat="43.16854" lon="2.32727">
        <ele>149.6</ele>
        <time>2019-08-18T05:58:54.000Z</time>
      </trkpt>
      <trkpt lat="43.16853" lon="2.3273">
        <ele>149.6</ele>
        <time>2019-08-18T05:58:55.000Z</time>
      </trkpt>
      <trkpt lat="43.16853" lon="2.32733">
        <ele>149.6</ele>
        <time>2019-08-18T05:58:56.000Z</time>
      </trkpt>
      <trkpt lat="43.16853" lon="2.32736">
        <ele>149.7</ele>
        <time>2019-08-18T05:58:57.000Z</time>
      </trkpt>
      <trkpt lat="43.16852" lon="2.3274">
        <ele>149.7</ele>
        <time>2019-08-18T05:58:58.000Z</time>
      </trkpt>
      <trkpt lat="43.16852" lon="2.32743">
        <ele>149.7</ele>
        <time>2019-08-18T05:58:59.000Z</time>
      </trkpt>
      <trkpt lat="43.16852" lon="2.32746">
        <ele>149.8</ele>
        <time>2019-08-18T05:59:00.000Z</time>
      </trkpt>
      <trkpt lat="43.16851" lon="2.32749">
        <ele>149.8</ele>
        <time>2019-08-18T05:59:01.000Z</time>
      </trkpt>
      <trkpt lat="43.16851" lon="2.32752">
        <ele>149.8</ele>
        <time>2019-08-18T05:59:02.000Z</time>
      </trkpt>
      <trkpt lat="43.16851" lon="2.32756">
        <ele>149.9</ele>
        <time>2019-08-18T05:59:03.000Z</time>
      </trkpt>
      <trkpt lat="43.16851" lon="2.32759">
        <ele>150</ele>
        <time>2019-08-18T05:59:04.000Z</time>
      </trkpt>
      <trkpt lat="43.1685" lon="2.32762">
        <ele>150</ele>
        <time>2019-08-18T05:59:05.000Z</time>
      </trkpt>
      <trkpt lat="43.1685" lon="2.32766">
        <ele>150.1</ele>
        <time>2019-08-18T05:59:06.000Z</time>
      </trkpt>
      <trkpt lat="43.1685" lon="2.32769">
        <ele>150.1</ele>
        <time>2019-08-18T05:59:07.000Z</time>
      </trkpt>
      <trkpt lat="43.1685" lon="2.32772">
        <ele>150.2</ele>
        <time>2019-08-18T05:59:08.000Z</time>
      </trkpt>
      <trkpt lat="43.1685" lon="2.32776">
        <ele>150.2</ele>
        <time>2019-08-18T05:59:09.000Z</time>
      </trkpt>
      <trkpt lat="43.1685" lon="2.32779">
        <ele>150.3</ele>
        <time>2019-08-18T05:59:10.000Z</time>
      </trkpt>
      <trkpt lat="43.1685" lon="2.32783">
        <ele>150.3</ele>
        <time>2019-08-18T05:59:11.000Z</time>
      </trkpt>
      <trkpt lat="43.16849" lon="2.32786">
        <ele>150.4</ele>
        <time>2019-08-18T05:59:12.000Z</time>
      </trkpt>
      <trkpt lat="43.16849" lon="2.32789">
        <ele>150.4</ele>
        <time>2019-08-18T05:59:13.000Z</time>
      </trkpt>
      <trkpt lat="43.16849" lon="2.32793">
        <ele>150.5</ele>
        <time>2019-08-18T05:59:14.000Z</time>
      </trkpt>
      <trkpt lat="43.16849" lon="2.32796">
        <ele>150.5</ele>
        <time>2019-08-18T05:59:15.000Z</time>
      </trkpt>
      <trkpt lat="43.16849" lon="2.328">
        <ele>150.6</ele>
        <time>2019-08-18T05:59:16.000Z</time>
      </trkpt>
      <trkpt lat="43.16849" lon="2.32803">
        <ele>150.7</ele>
        <time>2019-08-18T05:59:17.000Z</time>
      </trkpt>
      <trkpt lat="43.16848" lon="2.32807">
        <ele>150.7</ele>
        <time>2019-08-18T05:59:18.000Z</time>
      </trkpt>
      <trkpt lat="43.16848" lon="2.3281">
        <ele>150.8</ele>
        <time>2019-08-18T05:59:19.000Z</time>
      </trkpt>
      <trkpt lat="43.16848" lon="2.32813">
        <ele>150.9</ele>
        <time>2019-08-18T05:59:20.000Z</time>
      </trkpt>
      <trkpt lat="43.16848" lon="2.32816">
        <ele>150.9</ele>
        <time>2019-08-18T05:59:21.000Z</time>
      </trkpt>
      <trkpt lat="43.16848" lon="2.32819">
        <ele>151</ele>
        <time>2019-08-18T05:59:22.000Z</time>
      </trkpt>
      <trkpt lat="43.16847" lon="2.32822">
        <ele>151.1</ele>
        <time>2019-08-18T05:59:23.000Z</time>
      </trkpt>
      <trkpt lat="43.16847" lon="2.32825">
        <ele>151.1</ele>
        <time>2019-08-18T05:59:24.000Z</time>
      </trkpt>
      <trkpt lat="43.16847" lon="2.32828">
        <ele>151.1</ele>
        <time>2019-08-18T05:59:25.000Z</time>
      </trkpt>
      <trkpt lat="43.16847" lon="2.3283">
        <ele>151.1</ele>
        <time>2019-08-18T05:59:26.000Z</time>
      </trkpt>
      <trkpt lat="43.16847" lon="2.32833">
        <ele>151.2</ele>
        <time>2019-08-18T05:59:27.000Z</time>
      </trkpt>
      <trkpt lat="43.16847" lon="2.32836">
        <ele>151.1</ele>
        <time>2019-08-18T05:59:28.000Z</time>
      </trkpt>
      <trkpt lat="43.16847" lon="2.32838">
        <ele>151</ele>
        <time>2019-08-18T05:59:29.000Z</time>
      </trkpt>
      <trkpt lat="43.16848" lon="2.32841">
        <ele>150.9</ele>
        <time>2019-08-18T05:59:30.000Z</time>
      </trkpt>
      <trkpt lat="43.16848" lon="2.32843">
        <ele>150.8</ele>
        <time>2019-08-18T05:59:31.000Z</time>
      </trkpt>
      <trkpt lat="43.16848" lon="2.32846">
        <ele>150.7</ele>
        <time>2019-08-18T05:59:32.000Z</time>
      </trkpt>
      <trkpt lat="43.16848" lon="2.32849">
        <ele>150.6</ele>
        <time>2019-08-18T05:59:33.000Z</time>
      </trkpt>
      <trkpt lat="43.16849" lon="2.32852">
        <ele>150.4</ele>
        <time>2019-08-18T05:59:34.000Z</time>
      </trkpt>
      <trkpt lat="43.16849" lon="2.32855">
        <ele>150.3</ele>
        <time>2019-08-18T05:59:35.000Z</time>
      </trkpt>
      <trkpt lat="43.16849" lon="2.32858">
        <ele>150.1</ele>
        <time>2019-08-18T05:59:36.000Z</time>
      </trkpt>
      <trkpt lat="43.1685" lon="2.32861">
        <ele>149.9</ele>
        <time>2019-08-18T05:59:37.000Z</time>
      </trkpt>
      <trkpt lat="43.1685" lon="2.32865">
        <ele>149.8</ele>
        <time>2019-08-18T05:59:38.000Z</time>
      </trkpt>
      <trkpt lat="43.16851" lon="2.32868">
        <ele>149.6</ele>
        <time>2019-08-18T05:59:39.000Z</time>
      </trkpt>
      <trkpt lat="43.16852" lon="2.32871">
        <ele>149.4</ele>
        <time>2019-08-18T05:59:40.000Z</time>
      </trkpt>
      <trkpt lat="43.16853" lon="2.32875">
        <ele>149.2</ele>
        <time>2019-08-18T05:59:41.000Z</time>
      </trkpt>
      <trkpt lat="43.16853" lon="2.32878">
        <ele>148.9</ele>
        <time>2019-08-18T05:59:42.000Z</time>
      </trkpt>
      <trkpt lat="43.16854" lon="2.32882">
        <ele>148.7</ele>
        <time>2019-08-18T05:59:43.000Z</time>
      </trkpt>
      <trkpt lat="43.16855" lon="2.32886">
        <ele>148.5</ele>
        <time>2019-08-18T05:59:44.000Z</time>
      </trkpt>
      <trkpt lat="43.16856" lon="2.32889">
        <ele>148.2</ele>
        <time>2019-08-18T05:59:45.000Z</time>
      </trkpt>
      <trkpt lat="43.16858" lon="2.32893">
        <ele>148</ele>
        <time>2019-08-18T05:59:46.000Z</time>
      </trkpt>
      <trkpt lat="43.16859" lon="2.32896">
        <ele>147.7</ele>
        <time>2019-08-18T05:59:47.000Z</time>
      </trkpt>
      <trkpt lat="43.1686" lon="2.329">
        <ele>147.5</ele>
        <time>2019-08-18T05:59:48.000Z</time>
      </trkpt>
      <trkpt lat="43.1686" lon="2.32904">
        <ele>147.3</ele>
        <time>2019-08-18T05:59:49.000Z</time>
      </trkpt>
      <trkpt lat="43.16861" lon="2.32907">
        <ele>147.2</ele>
        <time>2019-08-18T05:59:50.000Z</time>
      </trkpt>
      <trkpt lat="43.16861" lon="2.32911">
        <ele>147.1</ele>
        <time>2019-08-18T05:59:51.000Z</time>
      </trkpt>
      <trkpt lat="43.16861" lon="2.32914">
        <ele>147</ele>
        <time>2019-08-18T05:59:52.000Z</time>
      </trkpt>
      <trkpt lat="43.16861" lon="2.32918">
        <ele>147</ele>
        <time>2019-08-18T05:59:53.000Z</time>
      </trkpt>
      <trkpt lat="43.16861" lon="2.32921">
        <ele>147.1</ele>
        <time>2019-08-18T05:59:54.000Z</time>
      </trkpt>
      <trkpt lat="43.1686" lon="2.32925">
        <ele>147.2</ele>
        <time>2019-08-18T05:59:55.000Z</time>
      </trkpt>
      <trkpt lat="43.16859" lon="2.32928">
        <ele>147.2</ele>
        <time>2019-08-18T05:59:56.000Z</time>
      </trkpt>
      <trkpt lat="43.16858" lon="2.32932">
        <ele>147.4</ele>
        <time>2019-08-18T05:59:57.000Z</time>
      </trkpt>
      <trkpt lat="43.16857" lon="2.32935">
        <ele>147.5</ele>
        <time>2019-08-18T05:59:58.000Z</time>
      </trkpt>
      <trkpt lat="43.16857" lon="2.32939">
        <ele>147.6</ele>
        <time>2019-08-18T05:59:59.000Z</time>
      </trkpt>
      <trkpt lat="43.16856" lon="2.32942">
        <ele>147.6</ele>
        <time>2019-08-18T06:00:00.000Z</time>
      </trkpt>
      <trkpt lat="43.16856" lon="2.32946">
        <ele>147.7</ele>
        <time>2019-08-18T06:00:01.000Z</time>
      </trkpt>
      <trkpt lat="43.16855" lon="2.3295">
        <ele>147.8</ele>
        <time>2019-08-18T06:00:02.000Z</time>
      </trkpt>
      <trkpt lat="43.16855" lon="2.32953">
        <ele>147.8</ele>
        <time>2019-08-18T06:00:03.000Z</time>
      </trkpt>
      <trkpt lat="43.16855" lon="2.32957">
        <ele>147.8</ele>
        <time>2019-08-18T06:00:04.000Z</time>
      </trkpt>
      <trkpt lat="43.16855" lon="2.3296">
        <ele>147.8</ele>
        <time>2019-08-18T06:00:05.000Z</time>
      </trkpt>
      <trkpt lat="43.16855" lon="2.32964">
        <ele>147.7</ele>
        <time>2019-08-18T06:00:06.000Z</time>
      </trkpt>
      <trkpt lat="43.16856" lon="2.32968">
        <ele>147.6</ele>
        <time>2019-08-18T06:00:07.000Z</time>
      </trkpt>
      <trkpt lat="43.16856" lon="2.32971">
        <ele>147.5</ele>
        <time>2019-08-18T06:00:08.000Z</time>
      </trkpt>
      <trkpt lat="43.16857" lon="2.32975">
        <ele>147.4</ele>
        <time>2019-08-18T06:00:09.000Z</time>
      </trkpt>
      <trkpt lat="43.16858" lon="2.32978">
        <ele>147.3</ele>
        <time>2019-08-18T06:00:10.000Z</time>
      </trkpt>
      <trkpt lat="43.16858" lon="2.32982">
        <ele>147.2</ele>
        <time>2019-08-18T06:00:11.000Z</time>
      </trkpt>
      <trkpt lat="43.16859" lon="2.32985">
        <ele>147.1</ele>
        <time>2019-08-18T06:00:12.000Z</time>
      </trkpt>
      <trkpt lat="43.16859" lon="2.32989">
        <ele>147.1</ele>
        <time>2019-08-18T06:00:13.000Z</time>
      </trkpt>
      <trkpt lat="43.16859" lon="2.32992">
        <ele>147</ele>
        <time>2019-08-18T06:00:14.000Z</time>
      </trkpt>
      <trkpt lat="43.16859" lon="2.32996">
        <ele>147</ele>
        <time>2019-08-18T06:00:15.000Z</time>
      </trkpt>
      <trkpt lat="43.16859" lon="2.32999">
        <ele>147.1</ele>
        <time>2019-08-18T06:00:16.000Z</time>
      </trkpt>
      <trkpt lat="43.16858" lon="2.33003">
        <ele>147</ele>
        <time>2019-08-18T06:00:17.000Z</time>
      </trkpt>
      <trkpt lat="43.16858" lon="2.33006">
        <ele>146.9</ele>
        <time>2019-08-18T06:00:18.000Z</time>
      </trkpt>
      <trkpt lat="43.16857" lon="2.3301">
        <ele>146.9</ele>
        <time>2019-08-18T06:00:19.000Z</time>
      </trkpt>
      <trkpt lat="43.16857" lon="2.33013">
        <ele>146.8</ele>
        <time>2019-08-18T06:00:20.000Z</time>
      </trkpt>
      <trkpt lat="43.16857" lon="2.33017">
        <ele>146.7</ele>
        <time>2019-08-18T06:00:21.000Z</time>
      </trkpt>
      <trkpt lat="43.16856" lon="2.33021">
        <ele>146.7</ele>
        <time>2019-08-18T06:00:22.000Z</time>
      </trkpt>
      <trkpt lat="43.16856" lon="2.33024">
        <ele>146.6</ele>
        <time>2019-08-18T06:00:23.000Z</time>
      </trkpt>
      <trkpt lat="43.16855" lon="2.33028">
        <ele>146.5</ele>
        <time>2019-08-18T06:00:24.000Z</time>
      </trkpt>
      <trkpt lat="43.16855" lon="2.33031">
        <ele>146.4</ele>
        <time>2019-08-18T06:00:25.000Z</time>
      </trkpt>
      <trkpt lat="43.16855" lon="2.33035">
        <ele>146.2</ele>
        <time>2019-08-18T06:00:26.000Z</time>
      </trkpt>
      <trkpt lat="43.16855" lon="2.33039">
        <ele>146.1</ele>
        <time>2019-08-18T06:00:27.000Z</time>
      </trkpt>
      <trkpt lat="43.16856" lon="2.33042">
        <ele>145.9</ele>
        <time>2019-08-18T06:00:28.000Z</time>
      </trkpt>
      <trkpt lat="43.16856" lon="2.33046">
        <ele>145.7</ele>
        <time>2019-08-18T06:00:29.000Z</time>
      </trkpt>
      <trkpt lat="43.16857" lon="2.3305">
        <ele>145.5</ele>
        <time>2019-08-18T06:00:30.000Z</time>
      </trkpt>
      <trkpt lat="43.16857" lon="2.33054">
        <ele>145.3</ele>
        <time>2019-08-18T06:00:31.000Z</time>
      </trkpt>
      <trkpt lat="43.16858" lon="2.33058">
        <ele>145.1</ele>
        <time>2019-08-18T06:00:32.000Z</time>
      </trkpt>
      <trkpt lat="43.16858" lon="2.33061">
        <ele>144.8</ele>
        <time>2019-08-18T06:00:33.000Z</time>
      </trkpt>
      <trkpt lat="43.16859" lon="2.33065">
        <ele>144.6</ele>
        <time>2019-08-18T06:00:34.000Z</time>
      </trkpt>
      <trkpt lat="43.16859" lon="2.33069">
        <ele>144.4</ele>
        <time>2019-08-18T06:00:35.000Z</time>
      </trkpt>
      <trkpt lat="43.1686" lon="2.33073">
        <ele>144.2</ele>
        <time>2019-08-18T06:00:36.000Z</time>
      </trkpt>
      <trkpt lat="43.1686" lon="2.33076">
        <ele>144</ele>
        <time>2019-08-18T06:00:37.000Z</time>
      </trkpt>
      <trkpt lat="43.1686" lon="2.3308">
        <ele>143.9</ele>
        <time>2019-08-18T06:00:38.000Z</time>
      </trkpt>
      <trkpt lat="43.16861" lon="2.33083">
        <ele>143.7</ele>
        <time>2019-08-18T06:00:39.000Z</time>
      </trkpt>
      <trkpt lat="43.1686" lon="2.33087">
        <ele>143.8</ele>
        <time>2019-08-18T06:00:40.000Z</time>
      </trkpt>
      <trkpt lat="43.1686" lon="2.3309">
        <ele>143.8</ele>
        <time>2019-08-18T06:00:41.000Z</time>
      </trkpt>
      <trkpt lat="43.1686" lon="2.33094">
        <ele>143.8</ele>
        <time>2019-08-18T06:00:42.000Z</time>
      </trkpt>
      <trkpt lat="43.16859" lon="2.33097">
        <ele>143.9</ele>
        <time>2019-08-18T06:00:43.000Z</time>
      </trkpt>
      <trkpt lat="43.16859" lon="2.331">
        <ele>143.9</ele>
        <time>2019-08-18T06:00:44.000Z</time>
      </trkpt>
      <trkpt lat="43.16858" lon="2.33104">
        <ele>144</ele>
        <time>2019-08-18T06:00:45.000Z</time>
      </trkpt>
      <trkpt lat="43.16858" lon="2.33107">
        <ele>144</ele>
        <time>2019-08-18T06:00:46.000Z</time>
      </trkpt>
      <trkpt lat="43.16858" lon="2.3311">
        <ele>144</ele>
        <time>2019-08-18T06:00:47.000Z</time>
      </trkpt>
      <trkpt lat="43.16858" lon="2.33113">
        <ele>144</ele>
        <time>2019-08-18T06:00:48.000Z</time>
      </trkpt>
      <trkpt lat="43.16859" lon="2.33117">
        <ele>143.9</ele>
        <time>2019-08-18T06:00:49.000Z</time>
      </trkpt>
      <trkpt lat="43.1686" lon="2.3312">
        <ele>143.8</ele>
        <time>2019-08-18T06:00:50.000Z</time>
      </trkpt>
      <trkpt lat="43.16861" lon="2.33123">
        <ele>143.7</ele>
        <time>2019-08-18T06:00:51.000Z</time>
      </trkpt>
      <trkpt lat="43.16862" lon="2.33126">
        <ele>143.6</ele>
        <time>2019-08-18T06:00:52.000Z</time>
      </trkpt>
      <trkpt lat="43.16863" lon="2.33129">
        <ele>143.5</ele>
        <time>2019-08-18T06:00:53.000Z</time>
      </trkpt>
      <trkpt lat="43.16864" lon="2.33132">
        <ele>143.4</ele>
        <time>2019-08-18T06:00:54.000Z</time>
      </trkpt>
      <trkpt lat="43.16866" lon="2.33135">
        <ele>143.2</ele>
        <time>2019-08-18T06:00:55.000Z</time>
      </trkpt>
      <trkpt lat="43.16867" lon="2.33138">
        <ele>143.1</ele>
        <time>2019-08-18T06:00:56.000Z</time>
      </trkpt>
      <trkpt lat="43.16869" lon="2.33141">
        <ele>142.9</ele>
        <time>2019-08-18T06:00:57.000Z</time>
      </trkpt>
      <trkpt lat="43.16871" lon="2.33144">
        <ele>142.8</ele>
        <time>2019-08-18T06:00:58.000Z</time>
      </trkpt>
      <trkpt lat="43.16873" lon="2.33146">
        <ele>142.6</ele>
        <time>2019-08-18T06:00:59.000Z</time>
      </trkpt>
      <trkpt lat="43.16874" lon="2.33149">
        <ele>142.5</ele>
        <time>2019-08-18T06:01:00.000Z</time>
      </trkpt>
      <trkpt lat="43.16876" lon="2.33152">
        <ele>142.3</ele>
        <time>2019-08-18T06:01:01.000Z</time>
      </trkpt>
      <trkpt lat="43.16878" lon="2.33155">
        <ele>142.2</ele>
        <time>2019-08-18T06:01:02.000Z</time>
      </trkpt>
      <trkpt lat="43.1688" lon="2.33158">
        <ele>142</ele>
        <time>2019-08-18T06:01:03.000Z</time>
      </trkpt>
      <trkpt lat="43.16882" lon="2.33161">
        <ele>141.9</ele>
        <time>2019-08-18T06:01:04.000Z</time>
      </trkpt>
      <trkpt lat="43.16884" lon="2.33164">
        <ele>141.8</ele>
        <time>2019-08-18T06:01:05.000Z</time>
      </trkpt>
      <trkpt lat="43.16885" lon="2.33167">
        <ele>141.6</ele>
        <time>2019-08-18T06:01:06.000Z</time>
      </trkpt>
      <trkpt lat="43.16887" lon="2.33169">
        <ele>141.5</ele>
        <time>2019-08-18T06:01:07.000Z</time>
      </trkpt>
      <trkpt lat="43.16888" lon="2.33172">
        <ele>141.4</ele>
        <time>2019-08-18T06:01:08.000Z</time>
      </trkpt>
      <trkpt lat="43.1689" lon="2.33175">
        <ele>141.3</ele>
        <time>2019-08-18T06:01:09.000Z</time>
      </trkpt>
      <trkpt lat="43.16891" lon="2.33178">
        <ele>141.2</ele>
        <time>2019-08-18T06:01:10.000Z</time>
      </trkpt>
      <trkpt lat="43.16893" lon="2.33181">
        <ele>141.2</ele>
        <time>2019-08-18T06:01:11.000Z</time>
      </trkpt>
      <trkpt lat="43.16894" lon="2.33184">
        <ele>141.1</ele>
        <time>2019-08-18T06:01:12.000Z</time>
      </trkpt>
      <trkpt lat="43.16895" lon="2.33188">
        <ele>141</ele>
        <time>2019-08-18T06:01:13.000Z</time>
      </trkpt>
      <trkpt lat="43.16896" lon="2.33191">
        <ele>141</ele>
        <time>2019-08-18T06:01:14.000Z</time>
      </trkpt>
      <trkpt lat="43.16897" lon="2.33194">
        <ele>140.9</ele>
        <time>2019-08-18T06:01:15.000Z</time>
      </trkpt>
      <trkpt lat="43.16898" lon="2.33197">
        <ele>140.8</ele>
        <time>2019-08-18T06:01:16.000Z</time>
      </trkpt>
      <trkpt lat="43.16899" lon="2.332">
        <ele>140.8</ele>
        <time>2019-08-18T06:01:17.000Z</time>
      </trkpt>
      <trkpt lat="43.169" lon="2.33203">
        <ele>140.7</ele>
        <time>2019-08-18T06:01:18.000Z</time>
      </trkpt>
      <trkpt lat="43.16901" lon="2.33207">
        <ele>140.7</ele>
        <time>2019-08-18T06:01:19.000Z</time>
      </trkpt>
      <trkpt lat="43.16902" lon="2.3321">
        <ele>140.6</ele>
        <time>2019-08-18T06:01:20.000Z</time>
      </trkpt>
      <trkpt lat="43.16903" lon="2.33213">
        <ele>140.6</ele>
        <time>2019-08-18T06:01:21.000Z</time>
      </trkpt>
      <trkpt lat="43.16904" lon="2.33216">
        <ele>140.6</ele>
        <time>2019-08-18T06:01:22.000Z</time>
      </trkpt>
      <trkpt lat="43.16905" lon="2.3322">
        <ele>140.5</ele>
        <time>2019-08-18T06:01:23.000Z</time>
      </trkpt>
      <trkpt lat="43.16906" lon="2.33223">
        <ele>140.5</ele>
        <time>2019-08-18T06:01:24.000Z</time>
      </trkpt>
      <trkpt lat="43.16907" lon="2.33226">
        <ele>140.4</ele>
        <time>2019-08-18T06:01:25.000Z</time>
      </trkpt>
      <trkpt lat="43.16909" lon="2.3323">
        <ele>140.4</ele>
        <time>2019-08-18T06:01:26.000Z</time>
      </trkpt>
      <trkpt lat="43.1691" lon="2.33233">
        <ele>140.3</ele>
        <time>2019-08-18T06:01:27.000Z</time>
      </trkpt>
      <trkpt lat="43.16911" lon="2.33236">
        <ele>140.3</ele>
        <time>2019-08-18T06:01:28.000Z</time>
      </trkpt>
      <trkpt lat="43.16912" lon="2.3324">
        <ele>140.2</ele>
        <time>2019-08-18T06:01:29.000Z</time>
      </trkpt>
      <trkpt lat="43.16914" lon="2.33243">
        <ele>140.1</ele>
        <time>2019-08-18T06:01:30.000Z</time>
      </trkpt>
      <trkpt lat="43.16915" lon="2.33246">
        <ele>140.1</ele>
        <time>2019-08-18T06:01:31.000Z</time>
      </trkpt>
      <trkpt lat="43.16916" lon="2.33249">
        <ele>140</ele>
        <time>2019-08-18T06:01:32.000Z</time>
      </trkpt>
      <trkpt lat="43.16918" lon="2.33253">
        <ele>140.1</ele>
        <time>2019-08-18T06:01:33.000Z</time>
      </trkpt>
      <trkpt lat="43.16919" lon="2.33256">
        <ele>140.3</ele>
        <time>2019-08-18T06:01:34.000Z</time>
      </trkpt>
      <trkpt lat="43.1692" lon="2.33259">
        <ele>140.4</ele>
        <time>2019-08-18T06:01:35.000Z</time>
      </trkpt>
      <trkpt lat="43.16922" lon="2.33262">
        <ele>140.6</ele>
        <time>2019-08-18T06:01:36.000Z</time>
      </trkpt>
      <trkpt lat="43.16924" lon="2.33265">
        <ele>140.8</ele>
        <time>2019-08-18T06:01:37.000Z</time>
      </trkpt>
      <trkpt lat="43.16925" lon="2.33268">
        <ele>140.9</ele>
        <time>2019-08-18T06:01:38.000Z</time>
      </trkpt>
      <trkpt lat="43.16927" lon="2.33271">
        <ele>141.1</ele>
        <time>2019-08-18T06:01:39.000Z</time>
      </trkpt>
      <trkpt lat="43.16928" lon="2.33274">
        <ele>141.2</ele>
        <time>2019-08-18T06:01:40.000Z</time>
      </trkpt>
      <trkpt lat="43.1693" lon="2.33277">
        <ele>141.3</ele>
        <time>2019-08-18T06:01:41.000Z</time>
      </trkpt>
      <trkpt lat="43.16931" lon="2.3328">
        <ele>141.5</ele>
        <time>2019-08-18T06:01:42.000Z</time>
      </trkpt>
      <trkpt lat="43.16932" lon="2.33283">
        <ele>141.6</ele>
        <time>2019-08-18T06:01:43.000Z</time>
      </trkpt>
      <trkpt lat="43.16934" lon="2.33286">
        <ele>141.7</ele>
        <time>2019-08-18T06:01:44.000Z</time>
      </trkpt>
      <trkpt lat="43.16935" lon="2.33289">
        <ele>141.9</ele>
        <time>2019-08-18T06:01:45.000Z</time>
      </trkpt>
      <trkpt lat="43.16936" lon="2.33293">
        <ele>142</ele>
        <time>2019-08-18T06:01:46.000Z</time>
      </trkpt>
      <trkpt lat="43.16936" lon="2.33296">
        <ele>142.1</ele>
        <time>2019-08-18T06:01:47.000Z</time>
      </trkpt>
      <trkpt lat="43.16937" lon="2.333">
        <ele>142.2</ele>
        <time>2019-08-18T06:01:48.000Z</time>
      </trkpt>
      <trkpt lat="43.16938" lon="2.33303">
        <ele>142.4</ele>
        <time>2019-08-18T06:01:49.000Z</time>
      </trkpt>
      <trkpt lat="43.16939" lon="2.33307">
        <ele>142.5</ele>
        <time>2019-08-18T06:01:50.000Z</time>
      </trkpt>
      <trkpt lat="43.1694" lon="2.3331">
        <ele>142.6</ele>
        <time>2019-08-18T06:01:51.000Z</time>
      </trkpt>
      <trkpt lat="43.1694" lon="2.33314">
        <ele>142.7</ele>
        <time>2019-08-18T06:01:52.000Z</time>
      </trkpt>
      <trkpt lat="43.16941" lon="2.33317">
        <ele>142.8</ele>
        <time>2019-08-18T06:01:53.000Z</time>
      </trkpt>
      <trkpt lat="43.16942" lon="2.33321">
        <ele>142.9</ele>
        <time>2019-08-18T06:01:54.000Z</time>
      </trkpt>
      <trkpt lat="43.16943" lon="2.33324">
        <ele>143.1</ele>
        <time>2019-08-18T06:01:55.000Z</time>
      </trkpt>
      <trkpt lat="43.16944" lon="2.33327">
        <ele>143.2</ele>
        <time>2019-08-18T06:01:56.000Z</time>
      </trkpt>
      <trkpt lat="43.16945" lon="2.33331">
        <ele>143.3</ele>
        <time>2019-08-18T06:01:57.000Z</time>
      </trkpt>
      <trkpt lat="43.16946" lon="2.33334">
        <ele>143.4</ele>
        <time>2019-08-18T06:01:58.000Z</time>
      </trkpt>
      <trkpt lat="43.16948" lon="2.33337">
        <ele>143.4</ele>
        <time>2019-08-18T06:01:59.000Z</time>
      </trkpt>
      <trkpt lat="43.16949" lon="2.3334">
        <ele>143.4</ele>
        <time>2019-08-18T06:02:00.000Z</time>
      </trkpt>
      <trkpt lat="43.1695" lon="2.33343">
        <ele>143.5</ele>
        <time>2019-08-18T06:02:01.000Z</time>
      </trkpt>
      <trkpt lat="43.16951" lon="2.33346">
        <ele>143.5</ele>
        <time>2019-08-18T06:02:02.000Z</time>
      </trkpt>
      <trkpt lat="43.16952" lon="2.33349">
        <ele>143.5</ele>
        <time>2019-08-18T06:02:03.000Z</time>
      </trkpt>
      <trkpt lat="43.16953" lon="2.33352">
        <ele>143.6</ele>
        <time>2019-08-18T06:02:04.000Z</time>
      </trkpt>
      <trkpt lat="43.16954" lon="2.33356">
        <ele>143.6</ele>
        <time>2019-08-18T06:02:05.000Z</time>
      </trkpt>
      <trkpt lat="43.16955" lon="2.33359">
        <ele>143.6</ele>
        <time>2019-08-18T06:02:06.000Z</time>
      </trkpt>
      <trkpt lat="43.16955" lon="2.33362">
        <ele>143.6</ele>
        <time>2019-08-18T06:02:07.000Z</time>
      </trkpt>
      <trkpt lat="43.16956" lon="2.33365">
        <ele>143.7</ele>
        <time>2019-08-18T06:02:08.000Z</time>
      </trkpt>
      <trkpt lat="43.16957" lon="2.33368">
        <ele>143.7</ele>
        <time>2019-08-18T06:02:09.000Z</time>
      </trkpt>
      <trkpt lat="43.16958" lon="2.33371">
        <ele>143.7</ele>
        <time>2019-08-18T06:02:10.000Z</time>
      </trkpt>
      <trkpt lat="43.16958" lon="2.33374">
        <ele>143.7</ele>
        <time>2019-08-18T06:02:11.000Z</time>
      </trkpt>
      <trkpt lat="43.16959" lon="2.33378">
        <ele>143.8</ele>
        <time>2019-08-18T06:02:12.000Z</time>
      </trkpt>
      <trkpt lat="43.16959" lon="2.33381">
        <ele>143.8</ele>
        <time>2019-08-18T06:02:13.000Z</time>
      </trkpt>
      <trkpt lat="43.1696" lon="2.33384">
        <ele>143.8</ele>
        <time>2019-08-18T06:02:14.000Z</time>
      </trkpt>
      <trkpt lat="43.1696" lon="2.33387">
        <ele>143.8</ele>
        <time>2019-08-18T06:02:15.000Z</time>
      </trkpt>
      <trkpt lat="43.16961" lon="2.3339">
        <ele>143.9</ele>
        <time>2019-08-18T06:02:16.000Z</time>
      </trkpt>
      <trkpt lat="43.16961" lon="2.33394">
        <ele>143.9</ele>
        <time>2019-08-18T06:02:17.000Z</time>
      </trkpt>
      <trkpt lat="43.16962" lon="2.33397">
        <ele>143.9</ele>
        <time>2019-08-18T06:02:18.000Z</time>
      </trkpt>
      <trkpt lat="43.16962" lon="2.334">
        <ele>143.9</ele>
        <time>2019-08-18T06:02:19.000Z</time>
      </trkpt>
      <trkpt lat="43.16963" lon="2.33404">
        <ele>143.9</ele>
        <time>2019-08-18T06:02:20.000Z</time>
      </trkpt>
      <trkpt lat="43.16963" lon="2.33407">
        <ele>143.9</ele>
        <time>2019-08-18T06:02:21.000Z</time>
      </trkpt>
      <trkpt lat="43.16964" lon="2.3341">
        <ele>144</ele>
        <time>2019-08-18T06:02:22.000Z</time>
      </trkpt>
      <trkpt lat="43.16964" lon="2.33414">
        <ele>144</ele>
        <time>2019-08-18T06:02:23.000Z</time>
      </trkpt>
      <trkpt lat="43.16965" lon="2.33417">
        <ele>144</ele>
        <time>2019-08-18T06:02:24.000Z</time>
      </trkpt>
      <trkpt lat="43.16966" lon="2.3342">
        <ele>144</ele>
        <time>2019-08-18T06:02:25.000Z</time>
      </trkpt>
      <trkpt lat="43.16966" lon="2.33423">
        <ele>144</ele>
        <time>2019-08-18T06:02:26.000Z</time>
      </trkpt>
      <trkpt lat="43.16967" lon="2.33427">
        <ele>144</ele>
        <time>2019-08-18T06:02:27.000Z</time>
      </trkpt>
      <trkpt lat="43.16968" lon="2.3343">
        <ele>144</ele>
        <time>2019-08-18T06:02:28.000Z</time>
      </trkpt>
      <trkpt lat="43.16969" lon="2.33433">
        <ele>143.9</ele>
        <time>2019-08-18T06:02:29.000Z</time>
      </trkpt>
      <trkpt lat="43.16971" lon="2.33436">
        <ele>143.9</ele>
        <time>2019-08-18T06:02:30.000Z</time>
      </trkpt>
      <trkpt lat="43.16972" lon="2.33439">
        <ele>143.9</ele>
        <time>2019-08-18T06:02:31.000Z</time>
      </trkpt>
      <trkpt lat="43.16973" lon="2.33443">
        <ele>143.9</ele>
        <time>2019-08-18T06:02:32.000Z</time>
      </trkpt>
      <trkpt lat="43.16975" lon="2.33446">
        <ele>143.9</ele>
        <time>2019-08-18T06:02:33.000Z</time>
      </trkpt>
      <trkpt lat="43.16976" lon="2.33449">
        <ele>143.8</ele>
        <time>2019-08-18T06:02:34.000Z</time>
      </trkpt>
      <trkpt lat="43.16978" lon="2.33452">
        <ele>143.8</ele>
        <time>2019-08-18T06:02:35.000Z</time>
      </trkpt>
      <trkpt lat="43.16979" lon="2.33456">
        <ele>143.8</ele>
        <time>2019-08-18T06:02:36.000Z</time>
      </trkpt>
      <trkpt lat="43.16981" lon="2.33459">
        <ele>143.7</ele>
        <time>2019-08-18T06:02:37.000Z</time>
      </trkpt>
      <trkpt lat="43.16982" lon="2.33462">
        <ele>143.7</ele>
        <time>2019-08-18T06:02:38.000Z</time>
      </trkpt>
      <trkpt lat="43.16984" lon="2.33466">
        <ele>143.6</ele>
        <time>2019-08-18T06:02:39.000Z</time>
      </trkpt>
      <trkpt lat="43.16985" lon="2.33469">
        <ele>143.6</ele>
        <time>2019-08-18T06:02:40.000Z</time>
      </trkpt>
      <trkpt lat="43.16986" lon="2.33472">
        <ele>143.6</ele>
        <time>2019-08-18T06:02:41.000Z</time>
      </trkpt>
      <trkpt lat="43.16987" lon="2.33476">
        <ele>143.5</ele>
        <time>2019-08-18T06:02:42.000Z</time>
      </trkpt>
      <trkpt lat="43.16987" lon="2.33479">
        <ele>143.5</ele>
        <time>2019-08-18T06:02:43.000Z</time>
      </trkpt>
      <trkpt lat="43.16988" lon="2.33483">
        <ele>143.4</ele>
        <time>2019-08-18T06:02:44.000Z</time>
      </trkpt>
      <trkpt lat="43.16989" lon="2.33486">
        <ele>143.4</ele>
        <time>2019-08-18T06:02:45.000Z</time>
      </trkpt>
      <trkpt lat="43.16989" lon="2.3349">
        <ele>143.3</ele>
        <time>2019-08-18T06:02:46.000Z</time>
      </trkpt>
      <trkpt lat="43.1699" lon="2.33493">
        <ele>143.3</ele>
        <time>2019-08-18T06:02:47.000Z</time>
      </trkpt>
      <trkpt lat="43.16991" lon="2.33496">
        <ele>143.3</ele>
        <time>2019-08-18T06:02:48.000Z</time>
      </trkpt>
      <trkpt lat="43.16992" lon="2.335">
        <ele>143.2</ele>
        <time>2019-08-18T06:02:49.000Z</time>
      </trkpt>
      <trkpt lat="43.16992" lon="2.33503">
        <ele>143.2</ele>
        <time>2019-08-18T06:02:50.000Z</time>
      </trkpt>
      <trkpt lat="43.16993" lon="2.33507">
        <ele>143.2</ele>
        <time>2019-08-18T06:02:51.000Z</time>
      </trkpt>
      <trkpt lat="43.16994" lon="2.3351">
        <ele>143.2</ele>
        <time>2019-08-18T06:02:52.000Z</time>
      </trkpt>
      <trkpt lat="43.16995" lon="2.33513">
        <ele>143.2</ele>
        <time>2019-08-18T06:02:53.000Z</time>
      </trkpt>
      <trkpt lat="43.16996" lon="2.33517">
        <ele>143.1</ele>
        <time>2019-08-18T06:02:54.000Z</time>
      </trkpt>
      <trkpt lat="43.16997" lon="2.3352">
        <ele>143.1</ele>
        <time>2019-08-18T06:02:55.000Z</time>
      </trkpt>
      <trkpt lat="43.16998" lon="2.33524">
        <ele>143.1</ele>
        <time>2019-08-18T06:02:56.000Z</time>
      </trkpt>
      <trkpt lat="43.16999" lon="2.33527">
        <ele>143</ele>
        <time>2019-08-18T06:02:57.000Z</time>
      </trkpt>
      <trkpt lat="43.17" lon="2.3353">
        <ele>143</ele>
        <time>2019-08-18T06:02:58.000Z</time>
      </trkpt>
      <trkpt lat="43.17001" lon="2.33534">
        <ele>143.1</ele>
        <time>2019-08-18T06:02:59.000Z</time>
      </trkpt>
      <trkpt lat="43.17002" lon="2.33537">
        <ele>143.2</ele>
        <time>2019-08-18T06:03:00.000Z</time>
      </trkpt>
      <trkpt lat="43.17003" lon="2.33541">
        <ele>143.3</ele>
        <time>2019-08-18T06:03:01.000Z</time>
      </trkpt>
      <trkpt lat="43.17004" lon="2.33544">
        <ele>143.3</ele>
        <time>2019-08-18T06:03:02.000Z</time>
      </trkpt>
      <trkpt lat="43.17006" lon="2.33547">
        <ele>143.4</ele>
        <time>2019-08-18T06:03:03.000Z</time>
      </trkpt>
      <trkpt lat="43.17007" lon="2.33551">
        <ele>143.5</ele>
        <time>2019-08-18T06:03:04.000Z</time>
      </trkpt>
      <trkpt lat="43.17008" lon="2.33554">
        <ele>143.6</ele>
        <time>2019-08-18T06:03:05.000Z</time>
      </trkpt>
      <trkpt lat="43.17009" lon="2.33557">
        <ele>143.6</ele>
        <time>2019-08-18T06:03:06.000Z</time>
      </trkpt>
      <trkpt lat="43.1701" lon="2.33561">
        <ele>143.7</ele>
        <time>2019-08-18T06:03:07.000Z</time>
      </trkpt>
      <trkpt lat="43.17011" lon="2.33564">
        <ele>143.8</ele>
        <time>2019-08-18T06:03:08.000Z</time>
      </trkpt>
      <trkpt lat="43.17013" lon="2.33567">
        <ele>143.8</ele>
        <time>2019-08-18T06:03:09.000Z</time>
      </trkpt>
      <trkpt lat="43.17014" lon="2.33571">
        <ele>143.9</ele>
        <time>2019-08-18T06:03:10.000Z</time>
      </trkpt>
      <trkpt lat="43.17015" lon="2.33574">
        <ele>143.9</ele>
        <time>2019-08-18T06:03:11.000Z</time>
      </trkpt>
      <trkpt lat="43.17016" lon="2.33577">
        <ele>144</ele>
        <time>2019-08-18T06:03:12.000Z</time>
      </trkpt>
      <trkpt lat="43.17017" lon="2.33581">
        <ele>144</ele>
        <time>2019-08-18T06:03:13.000Z</time>
      </trkpt>
      <trkpt lat="43.17018" lon="2.33584">
        <ele>144.1</ele>
        <time>2019-08-18T06:03:14.000Z</time>
      </trkpt>
      <trkpt lat="43.1702" lon="2.33587">
        <ele>144.2</ele>
        <time>2019-08-18T06:03:15.000Z</time>
      </trkpt>
      <trkpt lat="43.17021" lon="2.33591">
        <ele>144.3</ele>
        <time>2019-08-18T06:03:16.000Z</time>
      </trkpt>
      <trkpt lat="43.17022" lon="2.33594">
        <ele>144.5</ele>
        <time>2019-08-18T06:03:17.000Z</time>
      </trkpt>
      <trkpt lat="43.17023" lon="2.33597">
        <ele>144.6</ele>
        <time>2019-08-18T06:03:18.000Z</time>
      </trkpt>
      <trkpt lat="43.17024" lon="2.336">
        <ele>144.7</ele>
        <time>2019-08-18T06:03:19.000Z</time>
      </trkpt>
      <trkpt lat="43.17025" lon="2.33604">
        <ele>144.8</ele>
        <time>2019-08-18T06:03:20.000Z</time>
      </trkpt>
      <trkpt lat="43.17026" lon="2.33607">
        <ele>144.9</ele>
        <time>2019-08-18T06:03:21.000Z</time>
      </trkpt>
      <trkpt lat="43.17027" lon="2.3361">
        <ele>145.1</ele>
        <time>2019-08-18T06:03:22.000Z</time>
      </trkpt>
      <trkpt lat="43.17028" lon="2.33614">
        <ele>145.2</ele>
        <time>2019-08-18T06:03:23.000Z</time>
      </trkpt>
      <trkpt lat="43.17029" lon="2.33617">
        <ele>145.3</ele>
        <time>2019-08-18T06:03:24.000Z</time>
      </trkpt>
      <trkpt lat="43.1703" lon="2.3362">
        <ele>145.4</ele>
        <time>2019-08-18T06:03:25.000Z</time>
      </trkpt>
      <trkpt lat="43.17031" lon="2.33623">
        <ele>145.5</ele>
        <time>2019-08-18T06:03:26.000Z</time>
      </trkpt>
      <trkpt lat="43.17032" lon="2.33627">
        <ele>145.7</ele>
        <time>2019-08-18T06:03:27.000Z</time>
      </trkpt>
      <trkpt lat="43.17033" lon="2.3363">
        <ele>145.8</ele>
        <time>2019-08-18T06:03:28.000Z</time>
      </trkpt>
      <trkpt lat="43.17034" lon="2.33633">
        <ele>145.9</ele>
        <time>2019-08-18T06:03:29.000Z</time>
      </trkpt>
      <trkpt lat="43.17035" lon="2.33637">
        <ele>146</ele>
        <time>2019-08-18T06:03:30.000Z</time>
      </trkpt>
      <trkpt lat="43.17036" lon="2.3364">
        <ele>146.1</ele>
        <time>2019-08-18T06:03:31.000Z</time>
      </trkpt>
      <trkpt lat="43.17037" lon="2.33643">
        <ele>146.2</ele>
        <time>2019-08-18T06:03:32.000Z</time>
      </trkpt>
      <trkpt lat="43.17038" lon="2.33646">
        <ele>146.4</ele>
        <time>2019-08-18T06:03:33.000Z</time>
      </trkpt>
      <trkpt lat="43.17039" lon="2.3365">
        <ele>146.5</ele>
        <time>2019-08-18T06:03:34.000Z</time>
      </trkpt>
      <trkpt lat="43.17039" lon="2.33653">
        <ele>146.6</ele>
        <time>2019-08-18T06:03:35.000Z</time>
      </trkpt>
      <trkpt lat="43.1704" lon="2.33656">
        <ele>146.7</ele>
        <time>2019-08-18T06:03:36.000Z</time>
      </trkpt>
      <trkpt lat="43.17041" lon="2.33659">
        <ele>146.8</ele>
        <time>2019-08-18T06:03:37.000Z</time>
      </trkpt>
      <trkpt lat="43.17042" lon="2.33663">
        <ele>147</ele>
        <time>2019-08-18T06:03:38.000Z</time>
      </trkpt>
      <trkpt lat="43.17043" lon="2.33666">
        <ele>147.1</ele>
        <time>2019-08-18T06:03:39.000Z</time>
      </trkpt>
      <trkpt lat="43.17044" lon="2.33669">
        <ele>147.2</ele>
        <time>2019-08-18T06:03:40.000Z</time>
      </trkpt>
      <trkpt lat="43.17045" lon="2.33673">
        <ele>147.3</ele>
        <time>2019-08-18T06:03:41.000Z</time>
      </trkpt>
      <trkpt lat="43.17046" lon="2.33676">
        <ele>147.4</ele>
        <time>2019-08-18T06:03:42.000Z</time>
      </trkpt>
      <trkpt lat="43.17046" lon="2.33679">
        <ele>147.5</ele>
        <time>2019-08-18T06:03:43.000Z</time>
      </trkpt>
      <trkpt lat="43.17047" lon="2.33682">
        <ele>147.5</ele>
        <time>2019-08-18T06:03:44.000Z</time>
      </trkpt>
      <trkpt lat="43.17047" lon="2.33685">
        <ele>147.6</ele>
        <time>2019-08-18T06:03:45.000Z</time>
      </trkpt>
      <trkpt lat="43.17046" lon="2.33689">
        <ele>147.6</ele>
        <time>2019-08-18T06:03:46.000Z</time>
      </trkpt>
      <trkpt lat="43.17046" lon="2.33692">
        <ele>147.6</ele>
        <time>2019-08-18T06:03:47.000Z</time>
      </trkpt>
      <trkpt lat="43.17045" lon="2.33695">
        <ele>147.6</ele>
        <time>2019-08-18T06:03:48.000Z</time>
      </trkpt>
      <trkpt lat="43.17044" lon="2.33698">
        <ele>147.5</ele>
        <time>2019-08-18T06:03:49.000Z</time>
      </trkpt>
      <trkpt lat="43.17043" lon="2.33701">
        <ele>147.5</ele>
        <time>2019-08-18T06:03:50.000Z</time>
      </trkpt>
      <trkpt lat="43.17042" lon="2.33704">
        <ele>147.4</ele>
        <time>2019-08-18T06:03:51.000Z</time>
      </trkpt>
      <trkpt lat="43.1704" lon="2.33707">
        <ele>147.4</ele>
        <time>2019-08-18T06:03:52.000Z</time>
      </trkpt>
      <trkpt lat="43.17038" lon="2.3371">
        <ele>147.3</ele>
        <time>2019-08-18T06:03:53.000Z</time>
      </trkpt>
      <trkpt lat="43.17037" lon="2.33712">
        <ele>147.2</ele>
        <time>2019-08-18T06:03:54.000Z</time>
      </trkpt>
      <trkpt lat="43.17035" lon="2.33715">
        <ele>147.1</ele>
        <time>2019-08-18T06:03:55.000Z</time>
      </trkpt>
      <trkpt lat="43.17033" lon="2.33718">
        <ele>147</ele>
        <time>2019-08-18T06:03:56.000Z</time>
      </trkpt>
      <trkpt lat="43.17032" lon="2.33721">
        <ele>146.9</ele>
        <time>2019-08-18T06:03:57.000Z</time>
      </trkpt>
      <trkpt lat="43.17031" lon="2.33724">
        <ele>146.9</ele>
        <time>2019-08-18T06:03:58.000Z</time>
      </trkpt>
      <trkpt lat="43.1703" lon="2.33727">
        <ele>146.8</ele>
        <time>2019-08-18T06:03:59.000Z</time>
      </trkpt>
      <trkpt lat="43.17029" lon="2.3373">
        <ele>146.8</ele>
        <time>2019-08-18T06:04:00.000Z</time>
      </trkpt>
      <trkpt lat="43.17028" lon="2.33733">
        <ele>146.8</ele>
        <time>2019-08-18T06:04:01.000Z</time>
      </trkpt>
      <trkpt lat="43.17027" lon="2.33736">
        <ele>146.8</ele>
        <time>2019-08-18T06:04:02.000Z</time>
      </trkpt>
      <trkpt lat="43.17026" lon="2.3374">
        <ele>146.8</ele>
        <time>2019-08-18T06:04:03.000Z</time>
      </trkpt>
      <trkpt lat="43.17025" lon="2.33743">
        <ele>146.7</ele>
        <time>2019-08-18T06:04:04.000Z</time>
      </trkpt>
      <trkpt lat="43.17024" lon="2.33746">
        <ele>146.7</ele>
        <time>2019-08-18T06:04:05.000Z</time>
      </trkpt>
      <trkpt lat="43.17023" lon="2.33749">
        <ele>146.6</ele>
        <time>2019-08-18T06:04:06.000Z</time>
      </trkpt>
      <trkpt lat="43.17021" lon="2.33751">
        <ele>146.6</ele>
        <time>2019-08-18T06:04:07.000Z</time>
      </trkpt>
      <trkpt lat="43.17019" lon="2.33754">
        <ele>146.5</ele>
        <time>2019-08-18T06:04:08.000Z</time>
      </trkpt>
      <trkpt lat="43.17017" lon="2.33755">
        <ele>146.4</ele>
        <time>2019-08-18T06:04:09.000Z</time>
      </trkpt>
      <trkpt lat="43.17015" lon="2.33757">
        <ele>146.2</ele>
        <time>2019-08-18T06:04:10.000Z</time>
      </trkpt>
      <trkpt lat="43.17013" lon="2.33757">
        <ele>146.1</ele>
        <time>2019-08-18T06:04:11.000Z</time>
      </trkpt>
      <trkpt lat="43.1701" lon="2.33757">
        <ele>145.9</ele>
        <time>2019-08-18T06:04:12.000Z</time>
      </trkpt>
      <trkpt lat="43.17008" lon="2.33757">
        <ele>145.7</ele>
        <time>2019-08-18T06:04:13.000Z</time>
      </trkpt>
      <trkpt lat="43.17005" lon="2.33756">
        <ele>145.5</ele>
        <time>2019-08-18T06:04:14.000Z</time>
      </trkpt>
      <trkpt lat="43.17002" lon="2.33755">
        <ele>145.3</ele>
        <time>2019-08-18T06:04:15.000Z</time>
      </trkpt>
      <trkpt lat="43.17" lon="2.33754">
        <ele>145.1</ele>
        <time>2019-08-18T06:04:16.000Z</time>
      </trkpt>
      <trkpt lat="43.16997" lon="2.33752">
        <ele>145.2</ele>
        <time>2019-08-18T06:04:17.000Z</time>
      </trkpt>
      <trkpt lat="43.16994" lon="2.33751">
        <ele>145.4</ele>
        <time>2019-08-18T06:04:18.000Z</time>
      </trkpt>
      <trkpt lat="43.16991" lon="2.3375">
        <ele>145.5</ele>
        <time>2019-08-18T06:04:19.000Z</time>
      </trkpt>
      <trkpt lat="43.16988" lon="2.33749">
        <ele>145.7</ele>
        <time>2019-08-18T06:04:20.000Z</time>
      </trkpt>
      <trkpt lat="43.16985" lon="2.33749">
        <ele>145.9</ele>
        <time>2019-08-18T06:04:21.000Z</time>
      </trkpt>
      <trkpt lat="43.16982" lon="2.33748">
        <ele>146.1</ele>
        <time>2019-08-18T06:04:22.000Z</time>
      </trkpt>
      <trkpt lat="43.16979" lon="2.33748">
        <ele>146.2</ele>
        <time>2019-08-18T06:04:23.000Z</time>
      </trkpt>
      <trkpt lat="43.16976" lon="2.33748">
        <ele>146.4</ele>
        <time>2019-08-18T06:04:24.000Z</time>
      </trkpt>
      <trkpt lat="43.16974" lon="2.33747">
        <ele>146.6</ele>
        <time>2019-08-18T06:04:25.000Z</time>
      </trkpt>
      <trkpt lat="43.16971" lon="2.33747">
        <ele>146.8</ele>
        <time>2019-08-18T06:04:26.000Z</time>
      </trkpt>
      <trkpt lat="43.16968" lon="2.33746">
        <ele>146.9</ele>
        <time>2019-08-18T06:04:27.000Z</time>
      </trkpt>
      <trkpt lat="43.16966" lon="2.33746">
        <ele>147.1</ele>
        <time>2019-08-18T06:04:28.000Z</time>
      </trkpt>
      <trkpt lat="43.16964" lon="2.33746">
        <ele>147.2</ele>
        <time>2019-08-18T06:04:29.000Z</time>
      </trkpt>
      <trkpt lat="43.16961" lon="2.33745">
        <ele>147.4</ele>
        <time>2019-08-18T06:04:30.000Z</time>
      </trkpt>
      <trkpt lat="43.16959" lon="2.33745">
        <ele>147.5</ele>
        <time>2019-08-18T06:04:31.000Z</time>
      </trkpt>
      <trkpt lat="43.16957" lon="2.33744">
        <ele>147.7</ele>
        <time>2019-08-18T06:04:32.000Z</time>
      </trkpt>
      <trkpt lat="43.16955" lon="2.33744">
        <ele>147.8</ele>
        <time>2019-08-18T06:04:33.000Z</time>
      </trkpt>
      <trkpt lat="43.16953" lon="2.33744">
        <ele>147.9</ele>
        <time>2019-08-18T06:04:34.000Z</time>
      </trkpt>
      <trkpt lat="43.1695" lon="2.33744">
        <ele>148.1</ele>
        <time>2019-08-18T06:04:35.000Z</time>
      </trkpt>
      <trkpt lat="43.16948" lon="2.33744">
        <ele>148.2</ele>
        <time>2019-08-18T06:04:36.000Z</time>
      </trkpt>
      <trkpt lat="43.16946" lon="2.33745">
        <ele>148.3</ele>
        <time>2019-08-18T06:04:37.000Z</time>
      </trkpt>
      <trkpt lat="43.16944" lon="2.33746">
        <ele>148.5</ele>
        <time>2019-08-18T06:04:38.000Z</time>
      </trkpt>
      <trkpt lat="43.16942" lon="2.33747">
        <ele>148.6</ele>
        <time>2019-08-18T06:04:39.000Z</time>
      </trkpt>
      <trkpt lat="43.1694" lon="2.33749">
        <ele>148.6</ele>
        <time>2019-08-18T06:04:40.000Z</time>
      </trkpt>
      <trkpt lat="43.16938" lon="2.33751">
        <ele>148.7</ele>
        <time>2019-08-18T06:04:41.000Z</time>
      </trkpt>
      <trkpt lat="43.16937" lon="2.33753">
        <ele>148.7</ele>
        <time>2019-08-18T06:04:42.000Z</time>
      </trkpt>
      <trkpt lat="43.16935" lon="2.33756">
        <ele>148.7</ele>
        <time>2019-08-18T06:04:43.000Z</time>
      </trkpt>
      <trkpt lat="43.16934" lon="2.33758">
        <ele>148.7</ele>
        <time>2019-08-18T06:04:44.000Z</time>
      </trkpt>
      <trkpt lat="43.16934" lon="2.33761">
        <ele>148.6</ele>
        <time>2019-08-18T06:04:45.000Z</time>
      </trkpt>
      <trkpt lat="43.16934" lon="2.33763">
        <ele>148.5</ele>
        <time>2019-08-18T06:04:46.000Z</time>
      </trkpt>
      <trkpt lat="43.16934" lon="2.33766">
        <ele>148.4</ele>
        <time>2019-08-18T06:04:47.000Z</time>
      </trkpt>
      <trkpt lat="43.16934" lon="2.33769">
        <ele>148.3</ele>
        <time>2019-08-18T06:04:48.000Z</time>
      </trkpt>
      <trkpt lat="43.16934" lon="2.33773">
        <ele>148.2</ele>
        <time>2019-08-18T06:04:49.000Z</time>
      </trkpt>
      <trkpt lat="43.16933" lon="2.33776">
        <ele>148.1</ele>
        <time>2019-08-18T06:04:50.000Z</time>
      </trkpt>
      <trkpt lat="43.16933" lon="2.33779">
        <ele>148</ele>
        <time>2019-08-18T06:04:51.000Z</time>
      </trkpt>
      <trkpt lat="43.16933" lon="2.33783">
        <ele>147.9</ele>
        <time>2019-08-18T06:04:52.000Z</time>
      </trkpt>
      <trkpt lat="43.16932" lon="2.33786">
        <ele>147.8</ele>
        <time>2019-08-18T06:04:53.000Z</time>
      </trkpt>
      <trkpt lat="43.16931" lon="2.33789">
        <ele>147.7</ele>
        <time>2019-08-18T06:04:54.000Z</time>
      </trkpt>
      <trkpt lat="43.1693" lon="2.33793">
        <ele>147.6</ele>
        <time>2019-08-18T06:04:55.000Z</time>
      </trkpt>
      <trkpt lat="43.16929" lon="2.33796">
        <ele>147.5</ele>
        <time>2019-08-18T06:04:56.000Z</time>
      </trkpt>
      <trkpt lat="43.16928" lon="2.33799">
        <ele>147.5</ele>
        <time>2019-08-18T06:04:57.000Z</time>
      </trkpt>
      <trkpt lat="43.16927" lon="2.33802">
        <ele>147.4</ele>
        <time>2019-08-18T06:04:58.000Z</time>
      </trkpt>
      <trkpt lat="43.16927" lon="2.33805">
        <ele>147.2</ele>
        <time>2019-08-18T06:04:59.000Z</time>
      </trkpt>
      <trkpt lat="43.16927" lon="2.33808">
        <ele>147.1</ele>
        <time>2019-08-18T06:05:00.000Z</time>
      </trkpt>
      <trkpt lat="43.16927" lon="2.33811">
        <ele>147</ele>
        <time>2019-08-18T06:05:01.000Z</time>
      </trkpt>
      <trkpt lat="43.16927" lon="2.33815">
        <ele>146.9</ele>
        <time>2019-08-18T06:05:02.000Z</time>
      </trkpt>
      <trkpt lat="43.16927" lon="2.33818">
        <ele>146.7</ele>
        <time>2019-08-18T06:05:03.000Z</time>
      </trkpt>
      <trkpt lat="43.16927" lon="2.33821">
        <ele>146.6</ele>
        <time>2019-08-18T06:05:04.000Z</time>
      </trkpt>
      <trkpt lat="43.16927" lon="2.33825">
        <ele>146.5</ele>
        <time>2019-08-18T06:05:05.000Z</time>
      </trkpt>
      <trkpt lat="43.16927" lon="2.33828">
        <ele>146.3</ele>
        <time>2019-08-18T06:05:06.000Z</time>
      </trkpt>
      <trkpt lat="43.16927" lon="2.33832">
        <ele>146.2</ele>
        <time>2019-08-18T06:05:07.000Z</time>
      </trkpt>
      <trkpt lat="43.16927" lon="2.33835">
        <ele>146.1</ele>
        <time>2019-08-18T06:05:08.000Z</time>
      </trkpt>
      <trkpt lat="43.16926" lon="2.33838">
        <ele>146.2</ele>
        <time>2019-08-18T06:05:09.000Z</time>
      </trkpt>
      <trkpt lat="43.16925" lon="2.33842">
        <ele>146.2</ele>
        <time>2019-08-18T06:05:10.000Z</time>
      </trkpt>
      <trkpt lat="43.16924" lon="2.33844">
        <ele>146.3</ele>
        <time>2019-08-18T06:05:11.000Z</time>
      </trkpt>
      <trkpt lat="43.16922" lon="2.33847">
        <ele>146.3</ele>
        <time>2019-08-18T06:05:12.000Z</time>
      </trkpt>
      <trkpt lat="43.16921" lon="2.3385">
        <ele>146.3</ele>
        <time>2019-08-18T06:05:13.000Z</time>
      </trkpt>
      <trkpt lat="43.16919" lon="2.33852">
        <ele>146.3</ele>
        <time>2019-08-18T06:05:14.000Z</time>
      </trkpt>
      <trkpt lat="43.16917" lon="2.33855">
        <ele>146.3</ele>
        <time>2019-08-18T06:05:15.000Z</time>
      </trkpt>
      <trkpt lat="43.16916" lon="2.33857">
        <ele>146.3</ele>
        <time>2019-08-18T06:05:16.000Z</time>
      </trkpt>
      <trkpt lat="43.16915" lon="2.33859">
        <ele>146.4</ele>
        <time>2019-08-18T06:05:17.000Z</time>
      </trkpt>
      <trkpt lat="43.16913" lon="2.3386">
        <ele>146.5</ele>
        <time>2019-08-18T06:05:18.000Z</time>
      </trkpt>
      <trkpt lat="43.16912" lon="2.33862">
        <ele>146.5</ele>
        <time>2019-08-18T06:05:19.000Z</time>
      </trkpt>
      <trkpt lat="43.16912" lon="2.33863">
        <ele>146.6</ele>
        <time>2019-08-18T06:05:20.000Z</time>
      </trkpt>
      <trkpt lat="43.16911" lon="2.33864">
        <ele>146.6</ele>
        <time>2019-08-18T06:05:21.000Z</time>
      </trkpt>
      <trkpt lat="43.1691" lon="2.33864">
        <ele>146.7</ele>
        <time>2019-08-18T06:05:22.000Z</time>
      </trkpt>
      <trkpt lat="43.1691" lon="2.33864">
        <ele>146.7</ele>
        <time>2019-08-18T06:05:23.000Z</time>
      </trkpt>
      <trkpt lat="43.1691" lon="2.33864">
        <ele>146.7</ele>
        <time>2019-08-18T06:05:24.000Z</time>
      </trkpt>
      <trkpt lat="43.1691" lon="2.33864">
        <ele>146.7</ele>
        <time>2019-08-18T06:05:25.000Z</time>
      </trkpt>
      <trkpt lat="43.1691" lon="2.33864">
        <ele>146.7</ele>
        <time>2019-08-18T06:05:26.000Z</time>
      </trkpt>
      <trkpt lat="43.1691" lon="2.33865">
        <ele>146.7</ele>
        <time>2019-08-18T06:05:27.000Z</time>
      </trkpt>
      <trkpt lat="43.1691" lon="2.33866">
        <ele>146.7</ele>
        <time>2019-08-18T06:05:28.000Z</time>
      </trkpt>
      <trkpt lat="43.16909" lon="2.33868">
        <ele>146.7</ele>
        <time>2019-08-18T06:05:29.000Z</time>
      </trkpt>
      <trkpt lat="43.16909" lon="2.33871">
        <ele>146.8</ele>
        <time>2019-08-18T06:05:30.000Z</time>
      </trkpt>
      <trkpt lat="43.16908" lon="2.33873">
        <ele>146.8</ele>
        <time>2019-08-18T06:05:31.000Z</time>
      </trkpt>
      <trkpt lat="43.16907" lon="2.33875">
        <ele>146.8</ele>
        <time>2019-08-18T06:05:32.000Z</time>
      </trkpt>
      <trkpt lat="43.16906" lon="2.33878">
        <ele>146.9</ele>
        <time>2019-08-18T06:05:33.000Z</time>
      </trkpt>
      <trkpt lat="43.16905" lon="2.3388">
        <ele>146.9</ele>
        <time>2019-08-18T06:05:34.000Z</time>
      </trkpt>
      <trkpt lat="43.16904" lon="2.33882">
        <ele>147</ele>
        <time>2019-08-18T06:05:35.000Z</time>
      </trkpt>
      <trkpt lat="43.16903" lon="2.33885">
        <ele>147</ele>
        <time>2019-08-18T06:05:36.000Z</time>
      </trkpt>
      <trkpt lat="43.16902" lon="2.33887">
        <ele>147</ele>
        <time>2019-08-18T06:05:37.000Z</time>
      </trkpt>
      <trkpt lat="43.16901" lon="2.3389">
        <ele>147</ele>
        <time>2019-08-18T06:05:38.000Z</time>
      </trkpt>
      <trkpt lat="43.16901" lon="2.33893">
        <ele>147</ele>
        <time>2019-08-18T06:05:39.000Z</time>
      </trkpt>
      <trkpt lat="43.16901" lon="2.33896">
        <ele>147</ele>
        <time>2019-08-18T06:05:40.000Z</time>
      </trkpt>
      <trkpt lat="43.169" lon="2.33899">
        <ele>147</ele>
        <time>2019-08-18T06:05:41.000Z</time>
      </trkpt>
      <trkpt lat="43.169" lon="2.33902">
        <ele>147</ele>
        <time>2019-08-18T06:05:42.000Z</time>
      </trkpt>
      <trkpt lat="43.169" lon="2.33904">
        <ele>147</ele>
        <time>2019-08-18T06:05:43.000Z</time>
      </trkpt>
      <trkpt lat="43.169" lon="2.33907">
        <ele>147</ele>
        <time>2019-08-18T06:05:44.000Z</time>
      </trkpt>
      <trkpt lat="43.169" lon="2.33909">
        <ele>147</ele>
        <time>2019-08-18T06:05:45.000Z</time>
      </trkpt>
      <trkpt lat="43.16899" lon="2.3391">
        <ele>147</ele>
        <time>2019-08-18T06:05:46.000Z</time>
      </trkpt>
      <trkpt lat="43.16898" lon="2.33912">
        <ele>147</ele>
        <time>2019-08-18T06:05:47.000Z</time>
      </trkpt>
      <trkpt lat="43.16897" lon="2.33913">
        <ele>147</ele>
        <time>2019-08-18T06:05:48.000Z</time>
      </trkpt>
      <trkpt lat="43.16897" lon="2.33913">
        <ele>147</ele>
        <time>2019-08-18T06:05:49.000Z</time>
      </trkpt>
      <trkpt lat="43.16896" lon="2.33913">
        <ele>147</ele>
        <time>2019-08-18T06:05:50.000Z</time>
      </trkpt>
      <trkpt lat="43.16896" lon="2.33913">
        <ele>147</ele>
        <time>2019-08-18T06:05:51.000Z</time>
      </trkpt>
      <trkpt lat="43.16896" lon="2.33912">
        <ele>147</ele>
        <time>2019-08-18T06:05:52.000Z</time>
      </trkpt>
      <trkpt lat="43.16896" lon="2.33911">
        <ele>147</ele>
        <time>2019-08-18T06:05:53.000Z</time>
      </trkpt>
      <trkpt lat="43.16896" lon="2.3391">
        <ele>147</ele>
        <time>2019-08-18T06:05:54.000Z</time>
      </trkpt>
      <trkpt lat="43.16896" lon="2.33908">
        <ele>147.1</ele>
        <time>2019-08-18T06:05:55.000Z</time>
      </trkpt>
      <trkpt lat="43.16897" lon="2.33906">
        <ele>147.1</ele>
        <time>2019-08-18T06:05:56.000Z</time>
      </trkpt>
      <trkpt lat="43.16897" lon="2.33903">
        <ele>147.1</ele>
        <time>2019-08-18T06:05:57.000Z</time>
      </trkpt>
      <trkpt lat="43.16898" lon="2.33901">
        <ele>147.1</ele>
        <time>2019-08-18T06:05:58.000Z</time>
      </trkpt>
      <trkpt lat="43.16899" lon="2.33898">
        <ele>147.1</ele>
        <time>2019-08-18T06:05:59.000Z</time>
      </trkpt>
      <trkpt lat="43.169" lon="2.33895">
        <ele>147.1</ele>
        <time>2019-08-18T06:06:00.000Z</time>
      </trkpt>
      <trkpt lat="43.16901" lon="2.33893">
        <ele>147</ele>
        <time>2019-08-18T06:06:01.000Z</time>
      </trkpt>
      <trkpt lat="43.16902" lon="2.3389">
        <ele>147</ele>
        <time>2019-08-18T06:06:02.000Z</time>
      </trkpt>
      <trkpt lat="43.16903" lon="2.33887">
        <ele>147</ele>
        <time>2019-08-18T06:06:03.000Z</time>
      </trkpt>
      <trkpt lat="43.16904" lon="2.33885">
        <ele>147</ele>
        <time>2019-08-18T06:06:04.000Z</time>
      </trkpt>
      <trkpt lat="43.16905" lon="2.33882">
        <ele>146.9</ele>
        <time>2019-08-18T06:06:05.000Z</time>
      </trkpt>
      <trkpt lat="43.16906" lon="2.3388">
        <ele>146.9</ele>
        <time>2019-08-18T06:06:06.000Z</time>
      </trkpt>
      <trkpt lat="43.16907" lon="2.33878">
        <ele>146.9</ele>
        <time>2019-08-18T06:06:07.000Z</time>
      </trkpt>
      <trkpt lat="43.16907" lon="2.33875">
        <ele>146.8</ele>
        <time>2019-08-18T06:06:08.000Z</time>
      </trkpt>
      <trkpt lat="43.16907" lon="2.33873">
        <ele>146.8</ele>
        <time>2019-08-18T06:06:09.000Z</time>
      </trkpt>
      <trkpt lat="43.16907" lon="2.3387">
        <ele>146.8</ele>
        <time>2019-08-18T06:06:10.000Z</time>
      </trkpt>
      <trkpt lat="43.16907" lon="2.33867">
        <ele>146.8</ele>
        <time>2019-08-18T06:06:11.000Z</time>
      </trkpt>
      <trkpt lat="43.16907" lon="2.33864">
        <ele>146.8</ele>
        <time>2019-08-18T06:06:12.000Z</time>
      </trkpt>
      <trkpt lat="43.16906" lon="2.33862">
        <ele>146.8</ele>
        <time>2019-08-18T06:06:13.000Z</time>
      </trkpt>
      <trkpt lat="43.16906" lon="2.3386">
        <ele>146.9</ele>
        <time>2019-08-18T06:06:14.000Z</time>
      </trkpt>
      <trkpt lat="43.16905" lon="2.33859">
        <ele>146.9</ele>
        <time>2019-08-18T06:06:15.000Z</time>
      </trkpt>
      <trkpt lat="43.16905" lon="2.33857">
        <ele>146.9</ele>
        <time>2019-08-18T06:06:16.000Z</time>
      </trkpt>
      <trkpt lat="43.16905" lon="2.33856">
        <ele>146.9</ele>
        <time>2019-08-18T06:06:17.000Z</time>
      </trkpt>
      <trkpt lat="43.16904" lon="2.33855">
        <ele>146.9</ele>
        <time>2019-08-18T06:06:18.000Z</time>
      </trkpt>
      <trkpt lat="43.16904" lon="2.33855">
        <ele>146.9</ele>
        <time>2019-08-18T06:06:19.000Z</time>
      </trkpt>
      <trkpt lat="43.16904" lon="2.33854">
        <ele>146.9</ele>
        <time>2019-08-18T06:06:20.000Z</time>
      </trkpt>
      <trkpt lat="43.16904" lon="2.33854">
        <ele>146.9</ele>
        <time>2019-08-18T06:06:21.000Z</time>
      </trkpt>
      <trkpt lat="43.16904" lon="2.33853">
        <ele>146.9</ele>
        <time>2019-08-18T06:06:22.000Z</time>
      </trkpt>
      <trkpt lat="43.16904" lon="2.33853">
        <ele>146.9</ele>
        <time>2019-08-18T06:06:23.000Z</time>
      </trkpt>
      <trkpt lat="43.16904" lon="2.33852">
        <ele>146.9</ele>
        <time>2019-08-18T06:06:24.000Z</time>
      </trkpt>
      <trkpt lat="43.16904" lon="2.33851">
        <ele>146.9</ele>
        <time>2019-08-18T06:06:25.000Z</time>
      </trkpt>
      <trkpt lat="43.16904" lon="2.3385">
        <ele>146.9</ele>
        <time>2019-08-18T06:06:26.000Z</time>
      </trkpt>
      <trkpt lat="43.16904" lon="2.33849">
        <ele>146.9</ele>
        <time>2019-08-18T06:06:27.000Z</time>
      </trkpt>
      <trkpt lat="43.16904" lon="2.33848">
        <ele>146.9</ele>
        <time>2019-08-18T06:06:28.000Z</time>
      </trkpt>
      <trkpt lat="43.16904" lon="2.33847">
        <ele>146.9</ele>
        <time>2019-08-18T06:06:29.000Z</time>
      </trkpt>
      <trkpt lat="43.16904" lon="2.33846">
        <ele>146.9</ele>
        <time>2019-08-18T06:06:30.000Z</time>
      </trkpt>
      <trkpt lat="43.16904" lon="2.33845">
        <ele>146.9</ele>
        <time>2019-08-18T06:06:31.000Z</time>
      </trkpt>
      <trkpt lat="43.16904" lon="2.33844">
        <ele>146.9</ele>
        <time>2019-08-18T06:06:32.000Z</time>
      </trkpt>
      <trkpt lat="43.16903" lon="2.33843">
        <ele>147</ele>
        <time>2019-08-18T06:06:33.000Z</time>
      </trkpt>
      <trkpt lat="43.16903" lon="2.33842">
        <ele>147</ele>
        <time>2019-08-18T06:06:34.000Z</time>
      </trkpt>
      <trkpt lat="43.16902" lon="2.33842">
        <ele>147.1</ele>
        <time>2019-08-18T06:06:35.000Z</time>
      </trkpt>
      <trkpt lat="43.16901" lon="2.33841">
        <ele>147.1</ele>
        <time>2019-08-18T06:06:36.000Z</time>
      </trkpt>
      <trkpt lat="43.169" lon="2.33841">
        <ele>147.2</ele>
        <time>2019-08-18T06:06:37.000Z</time>
      </trkpt>
      <trkpt lat="43.16899" lon="2.33841">
        <ele>147.3</ele>
        <time>2019-08-18T06:06:38.000Z</time>
      </trkpt>
      <trkpt lat="43.16898" lon="2.33841">
        <ele>147.3</ele>
        <time>2019-08-18T06:06:39.000Z</time>
      </trkpt>
      <trkpt lat="43.16897" lon="2.33841">
        <ele>147.4</ele>
        <time>2019-08-18T06:06:40.000Z</time>
      </trkpt>
      <trkpt lat="43.16897" lon="2.33841">
        <ele>147.4</ele>
        <time>2019-08-18T06:06:41.000Z</time>
      </trkpt>
      <trkpt lat="43.16896" lon="2.33842">
        <ele>147.4</ele>
        <time>2019-08-18T06:06:42.000Z</time>
      </trkpt>
      <trkpt lat="43.16896" lon="2.33842">
        <ele>147.4</ele>
        <time>2019-08-18T06:06:43.000Z</time>
      </trkpt>
      <trkpt lat="43.16896" lon="2.33843">
        <ele>147.4</ele>
        <time>2019-08-18T06:06:44.000Z</time>
      </trkpt>
      <trkpt lat="43.16896" lon="2.33843">
        <ele>147.5</ele>
        <time>2019-08-18T06:06:45.000Z</time>
      </trkpt>
      <trkpt lat="43.16895" lon="2.33844">
        <ele>147.5</ele>
        <time>2019-08-18T06:06:46.000Z</time>
      </trkpt>
      <trkpt lat="43.16895" lon="2.33845">
        <ele>147.5</ele>
        <time>2019-08-18T06:06:47.000Z</time>
      </trkpt>
      <trkpt lat="43.16895" lon="2.33846">
        <ele>147.5</ele>
        <time>2019-08-18T06:06:48.000Z</time>
      </trkpt>
      <trkpt lat="43.16894" lon="2.33847">
        <ele>147.5</ele>
        <time>2019-08-18T06:06:49.000Z</time>
      </trkpt>
      <trkpt lat="43.16894" lon="2.33848">
        <ele>147.5</ele>
        <time>2019-08-18T06:06:50.000Z</time>
      </trkpt>
      <trkpt lat="43.16893" lon="2.3385">
        <ele>147.6</ele>
        <time>2019-08-18T06:06:51.000Z</time>
      </trkpt>
      <trkpt lat="43.16892" lon="2.33851">
        <ele>147.6</ele>
        <time>2019-08-18T06:06:52.000Z</time>
      </trkpt>
      <trkpt lat="43.16892" lon="2.33853">
        <ele>147.6</ele>
        <time>2019-08-18T06:06:53.000Z</time>
      </trkpt>
      <trkpt lat="43.16891" lon="2.33855">
        <ele>147.6</ele>
        <time>2019-08-18T06:06:54.000Z</time>
      </trkpt>
      <trkpt lat="43.1689" lon="2.33857">
        <ele>147.6</ele>
        <time>2019-08-18T06:06:55.000Z</time>
      </trkpt>
      <trkpt lat="43.1689" lon="2.33859">
        <ele>147.6</ele>
        <time>2019-08-18T06:06:56.000Z</time>
      </trkpt>
      <trkpt lat="43.1689" lon="2.33861">
        <ele>147.6</ele>
        <time>2019-08-18T06:06:57.000Z</time>
      </trkpt>
      <trkpt lat="43.16889" lon="2.33864">
        <ele>147.6</ele>
        <time>2019-08-18T06:06:58.000Z</time>
      </trkpt>
      <trkpt lat="43.16889" lon="2.33867">
        <ele>147.6</ele>
        <time>2019-08-18T06:06:59.000Z</time>
      </trkpt>
      <trkpt lat="43.16888" lon="2.33869">
        <ele>147.6</ele>
        <time>2019-08-18T06:07:00.000Z</time>
      </trkpt>
      <trkpt lat="43.16888" lon="2.33872">
        <ele>147.6</ele>
        <time>2019-08-18T06:07:01.000Z</time>
      </trkpt>
      <trkpt lat="43.16887" lon="2.33875">
        <ele>147.6</ele>
        <time>2019-08-18T06:07:02.000Z</time>
      </trkpt>
      <trkpt lat="43.16886" lon="2.33878">
        <ele>147.6</ele>
        <time>2019-08-18T06:07:03.000Z</time>
      </trkpt>
      <trkpt lat="43.16885" lon="2.33881">
        <ele>147.6</ele>
        <time>2019-08-18T06:07:04.000Z</time>
      </trkpt>
      <trkpt lat="43.16884" lon="2.33884">
        <ele>147.5</ele>
        <time>2019-08-18T06:07:05.000Z</time>
      </trkpt>
      <trkpt lat="43.16884" lon="2.33887">
        <ele>147.5</ele>
        <time>2019-08-18T06:07:06.000Z</time>
      </trkpt>
      <trkpt lat="43.16883" lon="2.33891">
        <ele>147.4</ele>
        <time>2019-08-18T06:07:07.000Z</time>
      </trkpt>
      <trkpt lat="43.16883" lon="2.33895">
        <ele>147.4</ele>
        <time>2019-08-18T06:07:08.000Z</time>
      </trkpt>
      <trkpt lat="43.16883" lon="2.33898">
        <ele>147.3</ele>
        <time>2019-08-18T06:07:09.000Z</time>
      </trkpt>
      <trkpt lat="43.16883" lon="2.33902">
        <ele>147.2</ele>
        <time>2019-08-18T06:07:10.000Z</time>
      </trkpt>
      <trkpt lat="43.16883" lon="2.33906">
        <ele>147.2</ele>
        <time>2019-08-18T06:07:11.000Z</time>
      </trkpt>
      <trkpt lat="43.16883" lon="2.3391">
        <ele>147.1</ele>
        <time>2019-08-18T06:07:12.000Z</time>
      </trkpt>
      <trkpt lat="43.16884" lon="2.33914">
        <ele>147</ele>
        <time>2019-08-18T06:07:13.000Z</time>
      </trkpt>
      <trkpt lat="43.16884" lon="2.33918">
        <ele>147</ele>
        <time>2019-08-18T06:07:14.000Z</time>
      </trkpt>
      <trkpt lat="43.16884" lon="2.33922">
        <ele>147.1</ele>
        <time>2019-08-18T06:07:15.000Z</time>
      </trkpt>
      <trkpt lat="43.16884" lon="2.33926">
        <ele>147.2</ele>
        <time>2019-08-18T06:07:16.000Z</time>
      </trkpt>
      <trkpt lat="43.16884" lon="2.3393">
        <ele>147.3</ele>
        <time>2019-08-18T06:07:17.000Z</time>
      </trkpt>
      <trkpt lat="43.16884" lon="2.33933">
        <ele>147.4</ele>
        <time>2019-08-18T06:07:18.000Z</time>
      </trkpt>
      <trkpt lat="43.16884" lon="2.33937">
        <ele>147.4</ele>
        <time>2019-08-18T06:07:19.000Z</time>
      </trkpt>
      <trkpt lat="43.16884" lon="2.33941">
        <ele>147.5</ele>
        <time>2019-08-18T06:07:20.000Z</time>
      </trkpt>
      <trkpt lat="43.16884" lon="2.33944">
        <ele>147.6</ele>
        <time>2019-08-18T06:07:21.000Z</time>
      </trkpt>
      <trkpt lat="43.16884" lon="2.33948">
        <ele>147.7</ele>
        <time>2019-08-18T06:07:22.000Z</time>
      </trkpt>
      <trkpt lat="43.16884" lon="2.33952">
        <ele>147.8</ele>
        <time>2019-08-18T06:07:23.000Z</time>
      </trkpt>
      <trkpt lat="43.16883" lon="2.33955">
        <ele>147.8</ele>
        <time>2019-08-18T06:07:24.000Z</time>
      </trkpt>
      <trkpt lat="43.16883" lon="2.33959">
        <ele>147.9</ele>
        <time>2019-08-18T06:07:25.000Z</time>
      </trkpt>
      <trkpt lat="43.16883" lon="2.33962">
        <ele>148</ele>
        <time>2019-08-18T06:07:26.000Z</time>
      </trkpt>
      <trkpt lat="43.16883" lon="2.33966">
        <ele>148</ele>
        <time>2019-08-18T06:07:27.000Z</time>
      </trkpt>
      <trkpt lat="43.16882" lon="2.3397">
        <ele>148.1</ele>
        <time>2019-08-18T06:07:28.000Z</time>
      </trkpt>
      <trkpt lat="43.16882" lon="2.33973">
        <ele>148.2</ele>
        <time>2019-08-18T06:07:29.000Z</time>
      </trkpt>
      <trkpt lat="43.16882" lon="2.33977">
        <ele>148.3</ele>
        <time>2019-08-18T06:07:30.000Z</time>
      </trkpt>
      <trkpt lat="43.16881" lon="2.33981">
        <ele>148.3</ele>
        <time>2019-08-18T06:07:31.000Z</time>
      </trkpt>
      <trkpt lat="43.16881" lon="2.33984">
        <ele>148.4</ele>
        <time>2019-08-18T06:07:32.000Z</time>
      </trkpt>
      <trkpt lat="43.16881" lon="2.33988">
        <ele>148.5</ele>
        <time>2019-08-18T06:07:33.000Z</time>
      </trkpt>
      <trkpt lat="43.1688" lon="2.33992">
        <ele>148.5</ele>
        <time>2019-08-18T06:07:34.000Z</time>
      </trkpt>
      <trkpt lat="43.1688" lon="2.33996">
        <ele>148.6</ele>
        <time>2019-08-18T06:07:35.000Z</time>
      </trkpt>
      <trkpt lat="43.1688" lon="2.33999">
        <ele>148.7</ele>
        <time>2019-08-18T06:07:36.000Z</time>
      </trkpt>
      <trkpt lat="43.1688" lon="2.34003">
        <ele>148.7</ele>
        <time>2019-08-18T06:07:37.000Z</time>
      </trkpt>
      <trkpt lat="43.16879" lon="2.34006">
        <ele>148.9</ele>
        <time>2019-08-18T06:07:38.000Z</time>
      </trkpt>
      <trkpt lat="43.16879" lon="2.3401">
        <ele>148.9</ele>
        <time>2019-08-18T06:07:39.000Z</time>
      </trkpt>
      <trkpt lat="43.16878" lon="2.34013">
        <ele>149</ele>
        <time>2019-08-18T06:07:40.000Z</time>
      </trkpt>
      <trkpt lat="43.16878" lon="2.34016">
        <ele>149.1</ele>
        <time>2019-08-18T06:07:41.000Z</time>
      </trkpt>
      <trkpt lat="43.16877" lon="2.34019">
        <ele>149.1</ele>
        <time>2019-08-18T06:07:42.000Z</time>
      </trkpt>
      <trkpt lat="43.16875" lon="2.34022">
        <ele>149.2</ele>
        <time>2019-08-18T06:07:43.000Z</time>
      </trkpt>
      <trkpt lat="43.16873" lon="2.34025">
        <ele>149.2</ele>
        <time>2019-08-18T06:07:44.000Z</time>
      </trkpt>
      <trkpt lat="43.16871" lon="2.34027">
        <ele>149.1</ele>
        <time>2019-08-18T06:07:45.000Z</time>
      </trkpt>
      <trkpt lat="43.16869" lon="2.34029">
        <ele>149.1</ele>
        <time>2019-08-18T06:07:46.000Z</time>
      </trkpt>
      <trkpt lat="43.16866" lon="2.34031">
        <ele>149</ele>
        <time>2019-08-18T06:07:47.000Z</time>
      </trkpt>
      <trkpt lat="43.16863" lon="2.34032">
        <ele>148.9</ele>
        <time>2019-08-18T06:07:48.000Z</time>
      </trkpt>
      <trkpt lat="43.1686" lon="2.34033">
        <ele>148.8</ele>
        <time>2019-08-18T06:07:49.000Z</time>
      </trkpt>
      <trkpt lat="43.16858" lon="2.34034">
        <ele>148.6</ele>
        <time>2019-08-18T06:07:50.000Z</time>
      </trkpt>
      <trkpt lat="43.16855" lon="2.34035">
        <ele>148.5</ele>
        <time>2019-08-18T06:07:51.000Z</time>
      </trkpt>
      <trkpt lat="43.16852" lon="2.34035">
        <ele>148.4</ele>
        <time>2019-08-18T06:07:52.000Z</time>
      </trkpt>
      <trkpt lat="43.16849" lon="2.34036">
        <ele>148.2</ele>
        <time>2019-08-18T06:07:53.000Z</time>
      </trkpt>
      <trkpt lat="43.16846" lon="2.34036">
        <ele>148.1</ele>
        <time>2019-08-18T06:07:54.000Z</time>
      </trkpt>
      <trkpt lat="43.16844" lon="2.34036">
        <ele>148</ele>
        <time>2019-08-18T06:07:55.000Z</time>
      </trkpt>
      <trkpt lat="43.16841" lon="2.34036">
        <ele>147.8</ele>
        <time>2019-08-18T06:07:56.000Z</time>
      </trkpt>
      <trkpt lat="43.16839" lon="2.34036">
        <ele>147.7</ele>
        <time>2019-08-18T06:07:57.000Z</time>
      </trkpt>
      <trkpt lat="43.16836" lon="2.34037">
        <ele>147.6</ele>
        <time>2019-08-18T06:07:58.000Z</time>
      </trkpt>
      <trkpt lat="43.16833" lon="2.34037">
        <ele>147.4</ele>
        <time>2019-08-18T06:07:59.000Z</time>
      </trkpt>
      <trkpt lat="43.16831" lon="2.34037">
        <ele>147.5</ele>
        <time>2019-08-18T06:08:00.000Z</time>
      </trkpt>
      <trkpt lat="43.16828" lon="2.34038">
        <ele>147.5</ele>
        <time>2019-08-18T06:08:01.000Z</time>
      </trkpt>
      <trkpt lat="43.16825" lon="2.34038">
        <ele>147.5</ele>
        <time>2019-08-18T06:08:02.000Z</time>
      </trkpt>
      <trkpt lat="43.16823" lon="2.34039">
        <ele>147.6</ele>
        <time>2019-08-18T06:08:03.000Z</time>
      </trkpt>
      <trkpt lat="43.1682" lon="2.3404">
        <ele>147.6</ele>
        <time>2019-08-18T06:08:04.000Z</time>
      </trkpt>
      <trkpt lat="43.16817" lon="2.3404">
        <ele>147.6</ele>
        <time>2019-08-18T06:08:05.000Z</time>
      </trkpt>
      <trkpt lat="43.16815" lon="2.34041">
        <ele>147.6</ele>
        <time>2019-08-18T06:08:06.000Z</time>
      </trkpt>
      <trkpt lat="43.16812" lon="2.34042">
        <ele>147.6</ele>
        <time>2019-08-18T06:08:07.000Z</time>
      </trkpt>
      <trkpt lat="43.1681" lon="2.34042">
        <ele>147.6</ele>
        <time>2019-08-18T06:08:08.000Z</time>
      </trkpt>
      <trkpt lat="43.16807" lon="2.34043">
        <ele>147.6</ele>
        <time>2019-08-18T06:08:09.000Z</time>
      </trkpt>
      <trkpt lat="43.16804" lon="2.34044">
        <ele>147.7</ele>
        <time>2019-08-18T06:08:10.000Z</time>
      </trkpt>
      <trkpt lat="43.16802" lon="2.34045">
        <ele>147.7</ele>
        <time>2019-08-18T06:08:11.000Z</time>
      </trkpt>
      <trkpt lat="43.16799" lon="2.34045">
        <ele>147.7</ele>
        <time>2019-08-18T06:08:12.000Z</time>
      </trkpt>
      <trkpt lat="43.16797" lon="2.34046">
        <ele>147.7</ele>
        <time>2019-08-18T06:08:13.000Z</time>
      </trkpt>
      <trkpt lat="43.16795" lon="2.34047">
        <ele>147.7</ele>
        <time>2019-08-18T06:08:14.000Z</time>
      </trkpt>
      <trkpt lat="43.16792" lon="2.34047">
        <ele>147.7</ele>
        <time>2019-08-18T06:08:15.000Z</time>
      </trkpt>
      <trkpt lat="43.1679" lon="2.34048">
        <ele>147.6</ele>
        <time>2019-08-18T06:08:16.000Z</time>
      </trkpt>
      <trkpt lat="43.16788" lon="2.34048">
        <ele>147.6</ele>
        <time>2019-08-18T06:08:17.000Z</time>
      </trkpt>
      <trkpt lat="43.16785" lon="2.34049">
        <ele>147.6</ele>
        <time>2019-08-18T06:08:18.000Z</time>
      </trkpt>
      <trkpt lat="43.16783" lon="2.34049">
        <ele>147.6</ele>
        <time>2019-08-18T06:08:19.000Z</time>
      </trkpt>
      <trkpt lat="43.1678" lon="2.3405">
        <ele>147.6</ele>
        <time>2019-08-18T06:08:20.000Z</time>
      </trkpt>
      <trkpt lat="43.16778" lon="2.34051">
        <ele>147.6</ele>
        <time>2019-08-18T06:08:21.000Z</time>
      </trkpt>
      <trkpt lat="43.16776" lon="2.34051">
        <ele>147.6</ele>
        <time>2019-08-18T06:08:22.000Z</time>
      </trkpt>
      <trkpt lat="43.16773" lon="2.34052">
        <ele>147.5</ele>
        <time>2019-08-18T06:08:23.000Z</time>
      </trkpt>
      <trkpt lat="43.16771" lon="2.34052">
        <ele>147.5</ele>
        <time>2019-08-18T06:08:24.000Z</time>
      </trkpt>
      <trkpt lat="43.16769" lon="2.34052">
        <ele>147.5</ele>
        <time>2019-08-18T06:08:25.000Z</time>
      </trkpt>
      <trkpt lat="43.16766" lon="2.34052">
        <ele>147.5</ele>
        <time>2019-08-18T06:08:26.000Z</time>
      </trkpt>
      <trkpt lat="43.16764" lon="2.34052">
        <ele>147.5</ele>
        <time>2019-08-18T06:08:27.000Z</time>
      </trkpt>
      <trkpt lat="43.16762" lon="2.34051">
        <ele>147.5</ele>
        <time>2019-08-18T06:08:28.000Z</time>
      </trkpt>
      <trkpt lat="43.16761" lon="2.34051">
        <ele>147.6</ele>
        <time>2019-08-18T06:08:29.000Z</time>
      </trkpt>
      <trkpt lat="43.16759" lon="2.34051">
        <ele>147.6</ele>
        <time>2019-08-18T06:08:30.000Z</time>
      </trkpt>
      <trkpt lat="43.16757" lon="2.34051">
        <ele>147.6</ele>
        <time>2019-08-18T06:08:31.000Z</time>
      </trkpt>
      <trkpt lat="43.16756" lon="2.34051">
        <ele>147.6</ele>
        <time>2019-08-18T06:08:32.000Z</time>
      </trkpt>
      <trkpt lat="43.16755" lon="2.34052">
        <ele>147.5</ele>
        <time>2019-08-18T06:08:33.000Z</time>
      </trkpt>
      <trkpt lat="43.16753" lon="2.34053">
        <ele>147.4</ele>
        <time>2019-08-18T06:08:34.000Z</time>
      </trkpt>
      <trkpt lat="43.16752" lon="2.34055">
        <ele>147.4</ele>
        <time>2019-08-18T06:08:35.000Z</time>
      </trkpt>
      <trkpt lat="43.16751" lon="2.34058">
        <ele>147.2</ele>
        <time>2019-08-18T06:08:36.000Z</time>
      </trkpt>
      <trkpt lat="43.16749" lon="2.3406">
        <ele>147.2</ele>
        <time>2019-08-18T06:08:37.000Z</time>
      </trkpt>
      <trkpt lat="43.16748" lon="2.34062">
        <ele>147.2</ele>
        <time>2019-08-18T06:08:38.000Z</time>
      </trkpt>
      <trkpt lat="43.16746" lon="2.34064">
        <ele>147.3</ele>
        <time>2019-08-18T06:08:39.000Z</time>
      </trkpt>
      <trkpt lat="43.16745" lon="2.34066">
        <ele>147.3</ele>
        <time>2019-08-18T06:08:40.000Z</time>
      </trkpt>
      <trkpt lat="43.16743" lon="2.34068">
        <ele>147.4</ele>
        <time>2019-08-18T06:08:41.000Z</time>
      </trkpt>
      <trkpt lat="43.16741" lon="2.3407">
        <ele>147.4</ele>
        <time>2019-08-18T06:08:42.000Z</time>
      </trkpt>
      <trkpt lat="43.16739" lon="2.34072">
        <ele>147.5</ele>
        <time>2019-08-18T06:08:43.000Z</time>
      </trkpt>
      <trkpt lat="43.16737" lon="2.34074">
        <ele>147.5</ele>
        <time>2019-08-18T06:08:44.000Z</time>
      </trkpt>
      <trkpt lat="43.16735" lon="2.34075">
        <ele>147.6</ele>
        <time>2019-08-18T06:08:45.000Z</time>
      </trkpt>
      <trkpt lat="43.16733" lon="2.34077">
        <ele>147.6</ele>
        <time>2019-08-18T06:08:46.000Z</time>
      </trkpt>
      <trkpt lat="43.16731" lon="2.34079">
        <ele>147.7</ele>
        <time>2019-08-18T06:08:47.000Z</time>
      </trkpt>
      <trkpt lat="43.16728" lon="2.34081">
        <ele>147.7</ele>
        <time>2019-08-18T06:08:48.000Z</time>
      </trkpt>
      <trkpt lat="43.16726" lon="2.34082">
        <ele>147.8</ele>
        <time>2019-08-18T06:08:49.000Z</time>
      </trkpt>
      <trkpt lat="43.16724" lon="2.34084">
        <ele>147.9</ele>
        <time>2019-08-18T06:08:50.000Z</time>
      </trkpt>
      <trkpt lat="43.16722" lon="2.34086">
        <ele>148.1</ele>
        <time>2019-08-18T06:08:51.000Z</time>
      </trkpt>
      <trkpt lat="43.1672" lon="2.34088">
        <ele>148.3</ele>
        <time>2019-08-18T06:08:52.000Z</time>
      </trkpt>
      <trkpt lat="43.16717" lon="2.3409">
        <ele>148.5</ele>
        <time>2019-08-18T06:08:53.000Z</time>
      </trkpt>
      <trkpt lat="43.16715" lon="2.34091">
        <ele>148.7</ele>
        <time>2019-08-18T06:08:54.000Z</time>
      </trkpt>
      <trkpt lat="43.16713" lon="2.34093">
        <ele>148.8</ele>
        <time>2019-08-18T06:08:55.000Z</time>
      </trkpt>
      <trkpt lat="43.16711" lon="2.34095">
        <ele>149</ele>
        <time>2019-08-18T06:08:56.000Z</time>
      </trkpt>
      <trkpt lat="43.16709" lon="2.34097">
        <ele>149.1</ele>
        <time>2019-08-18T06:08:57.000Z</time>
      </trkpt>
      <trkpt lat="43.16707" lon="2.34099">
        <ele>149.3</ele>
        <time>2019-08-18T06:08:58.000Z</time>
      </trkpt>
      <trkpt lat="43.16705" lon="2.34101">
        <ele>149.4</ele>
        <time>2019-08-18T06:08:59.000Z</time>
      </trkpt>
      <trkpt lat="43.16703" lon="2.34103">
        <ele>149.5</ele>
        <time>2019-08-18T06:09:00.000Z</time>
      </trkpt>
      <trkpt lat="43.16701" lon="2.34105">
        <ele>149.6</ele>
        <time>2019-08-18T06:09:01.000Z</time>
      </trkpt>
      <trkpt lat="43.167" lon="2.34107">
        <ele>149.7</ele>
        <time>2019-08-18T06:09:02.000Z</time>
      </trkpt>
      <trkpt lat="43.16698" lon="2.34108">
        <ele>149.8</ele>
        <time>2019-08-18T06:09:03.000Z</time>
      </trkpt>
      <trkpt lat="43.16696" lon="2.3411">
        <ele>149.9</ele>
        <time>2019-08-18T06:09:04.000Z</time>
      </trkpt>
      <trkpt lat="43.16694" lon="2.34112">
        <ele>150</ele>
        <time>2019-08-18T06:09:05.000Z</time>
      </trkpt>
      <trkpt lat="43.16692" lon="2.34114">
        <ele>150.1</ele>
        <time>2019-08-18T06:09:06.000Z</time>
      </trkpt>
      <trkpt lat="43.1669" lon="2.34116">
        <ele>150.2</ele>
        <time>2019-08-18T06:09:07.000Z</time>
      </trkpt>
      <trkpt lat="43.16688" lon="2.34118">
        <ele>150.3</ele>
        <time>2019-08-18T06:09:08.000Z</time>
      </trkpt>
      <trkpt lat="43.16685" lon="2.34119">
        <ele>150.4</ele>
        <time>2019-08-18T06:09:09.000Z</time>
      </trkpt>
      <trkpt lat="43.16683" lon="2.34121">
        <ele>150.4</ele>
        <time>2019-08-18T06:09:10.000Z</time>
      </trkpt>
      <trkpt lat="43.16681" lon="2.34123">
        <ele>150.5</ele>
        <time>2019-08-18T06:09:11.000Z</time>
      </trkpt>
      <trkpt lat="43.16678" lon="2.34124">
        <ele>150.6</ele>
        <time>2019-08-18T06:09:12.000Z</time>
      </trkpt>
      <trkpt lat="43.16676" lon="2.34125">
        <ele>150.7</ele>
        <time>2019-08-18T06:09:13.000Z</time>
      </trkpt>
      <trkpt lat="43.16674" lon="2.34127">
        <ele>150.7</ele>
        <time>2019-08-18T06:09:14.000Z</time>
      </trkpt>
      <trkpt lat="43.16671" lon="2.34128">
        <ele>150.8</ele>
        <time>2019-08-18T06:09:15.000Z</time>
      </trkpt>
      <trkpt lat="43.16669" lon="2.34129">
        <ele>150.8</ele>
        <time>2019-08-18T06:09:16.000Z</time>
      </trkpt>
      <trkpt lat="43.16666" lon="2.34129">
        <ele>150.9</ele>
        <time>2019-08-18T06:09:17.000Z</time>
      </trkpt>
      <trkpt lat="43.16664" lon="2.3413">
        <ele>151</ele>
        <time>2019-08-18T06:09:18.000Z</time>
      </trkpt>
      <trkpt lat="43.16662" lon="2.3413">
        <ele>151.2</ele>
        <time>2019-08-18T06:09:19.000Z</time>
      </trkpt>
      <trkpt lat="43.1666" lon="2.3413">
        <ele>151.3</ele>
        <time>2019-08-18T06:09:20.000Z</time>
      </trkpt>
      <trkpt lat="43.16658" lon="2.3413">
        <ele>151.5</ele>
        <time>2019-08-18T06:09:21.000Z</time>
      </trkpt>
      <trkpt lat="43.16656" lon="2.34129">
        <ele>151.6</ele>
        <time>2019-08-18T06:09:22.000Z</time>
      </trkpt>
      <trkpt lat="43.16654" lon="2.34128">
        <ele>151.7</ele>
        <time>2019-08-18T06:09:23.000Z</time>
      </trkpt>
      <trkpt lat="43.16652" lon="2.34127">
        <ele>151.9</ele>
        <time>2019-08-18T06:09:24.000Z</time>
      </trkpt>
      <trkpt lat="43.16651" lon="2.34126">
        <ele>152</ele>
        <time>2019-08-18T06:09:25.000Z</time>
      </trkpt>
      <trkpt lat="43.16649" lon="2.34124">
        <ele>152.2</ele>
        <time>2019-08-18T06:09:26.000Z</time>
      </trkpt>
      <trkpt lat="43.16647" lon="2.34123">
        <ele>152.4</ele>
        <time>2019-08-18T06:09:27.000Z</time>
      </trkpt>
      <trkpt lat="43.16645" lon="2.34122">
        <ele>152.5</ele>
        <time>2019-08-18T06:09:28.000Z</time>
      </trkpt>
      <trkpt lat="43.16644" lon="2.34121">
        <ele>152.7</ele>
        <time>2019-08-18T06:09:29.000Z</time>
      </trkpt>
      <trkpt lat="43.16642" lon="2.3412">
        <ele>152.8</ele>
        <time>2019-08-18T06:09:30.000Z</time>
      </trkpt>
      <trkpt lat="43.1664" lon="2.3412">
        <ele>153</ele>
        <time>2019-08-18T06:09:31.000Z</time>
      </trkpt>
      <trkpt lat="43.16638" lon="2.34119">
        <ele>153.2</ele>
        <time>2019-08-18T06:09:32.000Z</time>
      </trkpt>
      <trkpt lat="43.16636" lon="2.34118">
        <ele>153.3</ele>
        <time>2019-08-18T06:09:33.000Z</time>
      </trkpt>
      <trkpt lat="43.16635" lon="2.34117">
        <ele>153.5</ele>
        <time>2019-08-18T06:09:34.000Z</time>
      </trkpt>
      <trkpt lat="43.16633" lon="2.34115">
        <ele>153.7</ele>
        <time>2019-08-18T06:09:35.000Z</time>
      </trkpt>
      <trkpt lat="43.16632" lon="2.34114">
        <ele>153.9</ele>
        <time>2019-08-18T06:09:36.000Z</time>
      </trkpt>
      <trkpt lat="43.1663" lon="2.34113">
        <ele>154</ele>
        <time>2019-08-18T06:09:37.000Z</time>
      </trkpt>
      <trkpt lat="43.16629" lon="2.34111">
        <ele>154.2</ele>
        <time>2019-08-18T06:09:38.000Z</time>
      </trkpt>
      <trkpt lat="43.16627" lon="2.34109">
        <ele>154.4</ele>
        <time>2019-08-18T06:09:39.000Z</time>
      </trkpt>
      <trkpt lat="43.16626" lon="2.34108">
        <ele>154.6</ele>
        <time>2019-08-18T06:09:40.000Z</time>
      </trkpt>
      <trkpt lat="43.16625" lon="2.34106">
        <ele>154.8</ele>
        <time>2019-08-18T06:09:41.000Z</time>
      </trkpt>
      <trkpt lat="43.16623" lon="2.34106">
        <ele>154.9</ele>
        <time>2019-08-18T06:09:42.000Z</time>
      </trkpt>
      <trkpt lat="43.16622" lon="2.34106">
        <ele>155.1</ele>
        <time>2019-08-18T06:09:43.000Z</time>
      </trkpt>
      <trkpt lat="43.1662" lon="2.34106">
        <ele>155.2</ele>
        <time>2019-08-18T06:09:44.000Z</time>
      </trkpt>
      <trkpt lat="43.16618" lon="2.34106">
        <ele>155.3</ele>
        <time>2019-08-18T06:09:45.000Z</time>
      </trkpt>
      <trkpt lat="43.16616" lon="2.34107">
        <ele>155.5</ele>
        <time>2019-08-18T06:09:46.000Z</time>
      </trkpt>
      <trkpt lat="43.16614" lon="2.34108">
        <ele>155.6</ele>
        <time>2019-08-18T06:09:47.000Z</time>
      </trkpt>
      <trkpt lat="43.16611" lon="2.34109">
        <ele>155.7</ele>
        <time>2019-08-18T06:09:48.000Z</time>
      </trkpt>
      <trkpt lat="43.16609" lon="2.3411">
        <ele>155.8</ele>
        <time>2019-08-18T06:09:49.000Z</time>
      </trkpt>
      <trkpt lat="43.16606" lon="2.34111">
        <ele>155.9</ele>
        <time>2019-08-18T06:09:50.000Z</time>
      </trkpt>
      <trkpt lat="43.16604" lon="2.34112">
        <ele>156</ele>
        <time>2019-08-18T06:09:51.000Z</time>
      </trkpt>
      <trkpt lat="43.16602" lon="2.34113">
        <ele>156.1</ele>
        <time>2019-08-18T06:09:52.000Z</time>
      </trkpt>
      <trkpt lat="43.16599" lon="2.34115">
        <ele>156.2</ele>
        <time>2019-08-18T06:09:53.000Z</time>
      </trkpt>
      <trkpt lat="43.16597" lon="2.34116">
        <ele>156.3</ele>
        <time>2019-08-18T06:09:54.000Z</time>
      </trkpt>
      <trkpt lat="43.16595" lon="2.34117">
        <ele>156.4</ele>
        <time>2019-08-18T06:09:55.000Z</time>
      </trkpt>
      <trkpt lat="43.16592" lon="2.34118">
        <ele>156.5</ele>
        <time>2019-08-18T06:09:56.000Z</time>
      </trkpt>
      <trkpt lat="43.1659" lon="2.34119">
        <ele>156.6</ele>
        <time>2019-08-18T06:09:57.000Z</time>
      </trkpt>
      <trkpt lat="43.16587" lon="2.3412">
        <ele>156.6</ele>
        <time>2019-08-18T06:09:58.000Z</time>
      </trkpt>
      <trkpt lat="43.16585" lon="2.34121">
        <ele>156.7</ele>
        <time>2019-08-18T06:09:59.000Z</time>
      </trkpt>
      <trkpt lat="43.16582" lon="2.34122">
        <ele>156.8</ele>
        <time>2019-08-18T06:10:00.000Z</time>
      </trkpt>
      <trkpt lat="43.1658" lon="2.34122">
        <ele>156.7</ele>
        <time>2019-08-18T06:10:01.000Z</time>
      </trkpt>
      <trkpt lat="43.16577" lon="2.34123">
        <ele>156.7</ele>
        <time>2019-08-18T06:10:02.000Z</time>
      </trkpt>
      <trkpt lat="43.16575" lon="2.34124">
        <ele>156.7</ele>
        <time>2019-08-18T06:10:03.000Z</time>
      </trkpt>
      <trkpt lat="43.16572" lon="2.34124">
        <ele>156.6</ele>
        <time>2019-08-18T06:10:04.000Z</time>
      </trkpt>
      <trkpt lat="43.1657" lon="2.34125">
        <ele>156.6</ele>
        <time>2019-08-18T06:10:05.000Z</time>
      </trkpt>
      <trkpt lat="43.16568" lon="2.34126">
        <ele>156.6</ele>
        <time>2019-08-18T06:10:06.000Z</time>
      </trkpt>
      <trkpt lat="43.16565" lon="2.34126">
        <ele>156.5</ele>
        <time>2019-08-18T06:10:07.000Z</time>
      </trkpt>
      <trkpt lat="43.16563" lon="2.34127">
        <ele>156.5</ele>
        <time>2019-08-18T06:10:08.000Z</time>
      </trkpt>
      <trkpt lat="43.16561" lon="2.34128">
        <ele>156.4</ele>
        <time>2019-08-18T06:10:09.000Z</time>
      </trkpt>
      <trkpt lat="43.16559" lon="2.34128">
        <ele>156.4</ele>
        <time>2019-08-18T06:10:10.000Z</time>
      </trkpt>
      <trkpt lat="43.16556" lon="2.34129">
        <ele>156.3</ele>
        <time>2019-08-18T06:10:11.000Z</time>
      </trkpt>
      <trkpt lat="43.16554" lon="2.3413">
        <ele>156.3</ele>
        <time>2019-08-18T06:10:12.000Z</time>
      </trkpt>
      <trkpt lat="43.16552" lon="2.3413">
        <ele>156.2</ele>
        <time>2019-08-18T06:10:13.000Z</time>
      </trkpt>
      <trkpt lat="43.1655" lon="2.34131">
        <ele>156.1</ele>
        <time>2019-08-18T06:10:14.000Z</time>
      </trkpt>
      <trkpt lat="43.16548" lon="2.34132">
        <ele>156.1</ele>
        <time>2019-08-18T06:10:15.000Z</time>
      </trkpt>
      <trkpt lat="43.16546" lon="2.34133">
        <ele>156</ele>
        <time>2019-08-18T06:10:16.000Z</time>
      </trkpt>
      <trkpt lat="43.16543" lon="2.34134">
        <ele>156</ele>
        <time>2019-08-18T06:10:17.000Z</time>
      </trkpt>
      <trkpt lat="43.16541" lon="2.34135">
        <ele>155.9</ele>
        <time>2019-08-18T06:10:18.000Z</time>
      </trkpt>
      <trkpt lat="43.16539" lon="2.34135">
        <ele>155.8</ele>
        <time>2019-08-18T06:10:19.000Z</time>
      </trkpt>
      <trkpt lat="43.16537" lon="2.34136">
        <ele>155.8</ele>
        <time>2019-08-18T06:10:20.000Z</time>
      </trkpt>
      <trkpt lat="43.16534" lon="2.34137">
        <ele>155.7</ele>
        <time>2019-08-18T06:10:21.000Z</time>
      </trkpt>
      <trkpt lat="43.16532" lon="2.34138">
        <ele>155.6</ele>
        <time>2019-08-18T06:10:22.000Z</time>
      </trkpt>
      <trkpt lat="43.16529" lon="2.34139">
        <ele>155.5</ele>
        <time>2019-08-18T06:10:23.000Z</time>
      </trkpt>
      <trkpt lat="43.16527" lon="2.3414">
        <ele>155.5</ele>
        <time>2019-08-18T06:10:24.000Z</time>
      </trkpt>
      <trkpt lat="43.16525" lon="2.34141">
        <ele>155.4</ele>
        <time>2019-08-18T06:10:25.000Z</time>
      </trkpt>
      <trkpt lat="43.16522" lon="2.34142">
        <ele>155.3</ele>
        <time>2019-08-18T06:10:26.000Z</time>
      </trkpt>
      <trkpt lat="43.1652" lon="2.34143">
        <ele>155.2</ele>
        <time>2019-08-18T06:10:27.000Z</time>
      </trkpt>
      <trkpt lat="43.16517" lon="2.34144">
        <ele>155.2</ele>
        <time>2019-08-18T06:10:28.000Z</time>
      </trkpt>
      <trkpt lat="43.16515" lon="2.34144">
        <ele>155.1</ele>
        <time>2019-08-18T06:10:29.000Z</time>
      </trkpt>
      <trkpt lat="43.16512" lon="2.34145">
        <ele>155.1</ele>
        <time>2019-08-18T06:10:30.000Z</time>
      </trkpt>
      <trkpt lat="43.1651" lon="2.34146">
        <ele>155</ele>
        <time>2019-08-18T06:10:31.000Z</time>
      </trkpt>
      <trkpt lat="43.16508" lon="2.34146">
        <ele>155</ele>
        <time>2019-08-18T06:10:32.000Z</time>
      </trkpt>
      <trkpt lat="43.16505" lon="2.34147">
        <ele>154.9</ele>
        <time>2019-08-18T06:10:33.000Z</time>
      </trkpt>
      <trkpt lat="43.16503" lon="2.34147">
        <ele>154.9</ele>
        <time>2019-08-18T06:10:34.000Z</time>
      </trkpt>
      <trkpt lat="43.16501" lon="2.34147">
        <ele>154.9</ele>
        <time>2019-08-18T06:10:35.000Z</time>
      </trkpt>
      <trkpt lat="43.16499" lon="2.34147">
        <ele>154.9</ele>
        <time>2019-08-18T06:10:36.000Z</time>
      </trkpt>
      <trkpt lat="43.16496" lon="2.34147">
        <ele>155</ele>
        <time>2019-08-18T06:10:37.000Z</time>
      </trkpt>
      <trkpt lat="43.16494" lon="2.34147">
        <ele>155.2</ele>
        <time>2019-08-18T06:10:38.000Z</time>
      </trkpt>
      <trkpt lat="43.16492" lon="2.34147">
        <ele>155.3</ele>
        <time>2019-08-18T06:10:39.000Z</time>
      </trkpt>
      <trkpt lat="43.1649" lon="2.34147">
        <ele>155.4</ele>
        <time>2019-08-18T06:10:40.000Z</time>
      </trkpt>
      <trkpt lat="43.16488" lon="2.34146">
        <ele>155.6</ele>
        <time>2019-08-18T06:10:41.000Z</time>
      </trkpt>
      <trkpt lat="43.16486" lon="2.34146">
        <ele>155.7</ele>
        <time>2019-08-18T06:10:42.000Z</time>
      </trkpt>
      <trkpt lat="43.16484" lon="2.34146">
        <ele>155.8</ele>
        <time>2019-08-18T06:10:43.000Z</time>
      </trkpt>
      <trkpt lat="43.16481" lon="2.34147">
        <ele>155.8</ele>
        <time>2019-08-18T06:10:44.000Z</time>
      </trkpt>
      <trkpt lat="43.16479" lon="2.34148">
        <ele>155.7</ele>
        <time>2019-08-18T06:10:45.000Z</time>
      </trkpt>
      <trkpt lat="43.16477" lon="2.34151">
        <ele>155.6</ele>
        <time>2019-08-18T06:10:46.000Z</time>
      </trkpt>
      <trkpt lat="43.16476" lon="2.34154">
        <ele>155.4</ele>
        <time>2019-08-18T06:10:47.000Z</time>
      </trkpt>
      <trkpt lat="43.16475" lon="2.34157">
        <ele>155.2</ele>
        <time>2019-08-18T06:10:48.000Z</time>
      </trkpt>
      <trkpt lat="43.16474" lon="2.3416">
        <ele>154.9</ele>
        <time>2019-08-18T06:10:49.000Z</time>
      </trkpt>
      <trkpt lat="43.16474" lon="2.34163">
        <ele>154.6</ele>
        <time>2019-08-18T06:10:50.000Z</time>
      </trkpt>
      <trkpt lat="43.16475" lon="2.34167">
        <ele>154.2</ele>
        <time>2019-08-18T06:10:51.000Z</time>
      </trkpt>
      <trkpt lat="43.16475" lon="2.34171">
        <ele>154.2</ele>
        <time>2019-08-18T06:10:52.000Z</time>
      </trkpt>
      <trkpt lat="43.16475" lon="2.34175">
        <ele>154.1</ele>
        <time>2019-08-18T06:10:53.000Z</time>
      </trkpt>
      <trkpt lat="43.16476" lon="2.34179">
        <ele>154</ele>
        <time>2019-08-18T06:10:54.000Z</time>
      </trkpt>
      <trkpt lat="43.16476" lon="2.34183">
        <ele>154</ele>
        <time>2019-08-18T06:10:55.000Z</time>
      </trkpt>
      <trkpt lat="43.16476" lon="2.34187">
        <ele>153.9</ele>
        <time>2019-08-18T06:10:56.000Z</time>
      </trkpt>
      <trkpt lat="43.16476" lon="2.34191">
        <ele>153.9</ele>
        <time>2019-08-18T06:10:57.000Z</time>
      </trkpt>
      <trkpt lat="43.16476" lon="2.34195">
        <ele>153.9</ele>
        <time>2019-08-18T06:10:58.000Z</time>
      </trkpt>
      <trkpt lat="43.16475" lon="2.34199">
        <ele>153.8</ele>
        <time>2019-08-18T06:10:59.000Z</time>
      </trkpt>
      <trkpt lat="43.16474" lon="2.34202">
        <ele>153.9</ele>
        <time>2019-08-18T06:11:00.000Z</time>
      </trkpt>
      <trkpt lat="43.16473" lon="2.34205">
        <ele>153.9</ele>
        <time>2019-08-18T06:11:01.000Z</time>
      </trkpt>
      <trkpt lat="43.16471" lon="2.34207">
        <ele>153.9</ele>
        <time>2019-08-18T06:11:02.000Z</time>
      </trkpt>
      <trkpt lat="43.16469" lon="2.34208">
        <ele>153.9</ele>
        <time>2019-08-18T06:11:03.000Z</time>
      </trkpt>
      <trkpt lat="43.16466" lon="2.3421">
        <ele>154</ele>
        <time>2019-08-18T06:11:04.000Z</time>
      </trkpt>
      <trkpt lat="43.16463" lon="2.3421">
        <ele>154.1</ele>
        <time>2019-08-18T06:11:05.000Z</time>
      </trkpt>
      <trkpt lat="43.1646" lon="2.34211">
        <ele>154.2</ele>
        <time>2019-08-18T06:11:06.000Z</time>
      </trkpt>
      <trkpt lat="43.16457" lon="2.34211">
        <ele>154.2</ele>
        <time>2019-08-18T06:11:07.000Z</time>
      </trkpt>
      <trkpt lat="43.16454" lon="2.34211">
        <ele>154.3</ele>
        <time>2019-08-18T06:11:08.000Z</time>
      </trkpt>
      <trkpt lat="43.16451" lon="2.34211">
        <ele>154.4</ele>
        <time>2019-08-18T06:11:09.000Z</time>
      </trkpt>
      <trkpt lat="43.16449" lon="2.34211">
        <ele>154.5</ele>
        <time>2019-08-18T06:11:10.000Z</time>
      </trkpt>
      <trkpt lat="43.16446" lon="2.34211">
        <ele>154.6</ele>
        <time>2019-08-18T06:11:11.000Z</time>
      </trkpt>
      <trkpt lat="43.16443" lon="2.3421">
        <ele>154.6</ele>
        <time>2019-08-18T06:11:12.000Z</time>
      </trkpt>
      <trkpt lat="43.16441" lon="2.3421">
        <ele>154.7</ele>
        <time>2019-08-18T06:11:13.000Z</time>
      </trkpt>
      <trkpt lat="43.16438" lon="2.3421">
        <ele>154.8</ele>
        <time>2019-08-18T06:11:14.000Z</time>
      </trkpt>
      <trkpt lat="43.16436" lon="2.3421">
        <ele>154.9</ele>
        <time>2019-08-18T06:11:15.000Z</time>
      </trkpt>
      <trkpt lat="43.16433" lon="2.34209">
        <ele>155</ele>
        <time>2019-08-18T06:11:16.000Z</time>
      </trkpt>
      <trkpt lat="43.16431" lon="2.34209">
        <ele>155.1</ele>
        <time>2019-08-18T06:11:17.000Z</time>
      </trkpt>
      <trkpt lat="43.16428" lon="2.34209">
        <ele>155.1</ele>
        <time>2019-08-18T06:11:18.000Z</time>
      </trkpt>
      <trkpt lat="43.16426" lon="2.34208">
        <ele>155.2</ele>
        <time>2019-08-18T06:11:19.000Z</time>
      </trkpt>
      <trkpt lat="43.16423" lon="2.34208">
        <ele>155.3</ele>
        <time>2019-08-18T06:11:20.000Z</time>
      </trkpt>
      <trkpt lat="43.1642" lon="2.34208">
        <ele>155.4</ele>
        <time>2019-08-18T06:11:21.000Z</time>
      </trkpt>
      <trkpt lat="43.16418" lon="2.34208">
        <ele>155.5</ele>
        <time>2019-08-18T06:11:22.000Z</time>
      </trkpt>
      <trkpt lat="43.16415" lon="2.34208">
        <ele>155.5</ele>
        <time>2019-08-18T06:11:23.000Z</time>
      </trkpt>
      <trkpt lat="43.16412" lon="2.34208">
        <ele>155.6</ele>
        <time>2019-08-18T06:11:24.000Z</time>
      </trkpt>
      <trkpt lat="43.1641" lon="2.34208">
        <ele>155.6</ele>
        <time>2019-08-18T06:11:25.000Z</time>
      </trkpt>
      <trkpt lat="43.16407" lon="2.34208">
        <ele>155.7</ele>
        <time>2019-08-18T06:11:26.000Z</time>
      </trkpt>
      <trkpt lat="43.16405" lon="2.34209">
        <ele>155.7</ele>
        <time>2019-08-18T06:11:27.000Z</time>
      </trkpt>
      <trkpt lat="43.16402" lon="2.34209">
        <ele>155.7</ele>
        <time>2019-08-18T06:11:28.000Z</time>
      </trkpt>
      <trkpt lat="43.16399" lon="2.3421">
        <ele>155.8</ele>
        <time>2019-08-18T06:11:29.000Z</time>
      </trkpt>
      <trkpt lat="43.16397" lon="2.34211">
        <ele>155.8</ele>
        <time>2019-08-18T06:11:30.000Z</time>
      </trkpt>
      <trkpt lat="43.16394" lon="2.34212">
        <ele>155.8</ele>
        <time>2019-08-18T06:11:31.000Z</time>
      </trkpt>
      <trkpt lat="43.16392" lon="2.34213">
        <ele>155.8</ele>
        <time>2019-08-18T06:11:32.000Z</time>
      </trkpt>
      <trkpt lat="43.16389" lon="2.34214">
        <ele>155.8</ele>
        <time>2019-08-18T06:11:33.000Z</time>
      </trkpt>
      <trkpt lat="43.16387" lon="2.34215">
        <ele>155.8</ele>
        <time>2019-08-18T06:11:34.000Z</time>
      </trkpt>
      <trkpt lat="43.16384" lon="2.34217">
        <ele>155.8</ele>
        <time>2019-08-18T06:11:35.000Z</time>
      </trkpt>
      <trkpt lat="43.16381" lon="2.34218">
        <ele>155.8</ele>
        <time>2019-08-18T06:11:36.000Z</time>
      </trkpt>
      <trkpt lat="43.16379" lon="2.34219">
        <ele>155.9</ele>
        <time>2019-08-18T06:11:37.000Z</time>
      </trkpt>
      <trkpt lat="43.16376" lon="2.3422">
        <ele>155.9</ele>
        <time>2019-08-18T06:11:38.000Z</time>
      </trkpt>
      <trkpt lat="43.16373" lon="2.34221">
        <ele>155.9</ele>
        <time>2019-08-18T06:11:39.000Z</time>
      </trkpt>
      <trkpt lat="43.1637" lon="2.34222">
        <ele>155.9</ele>
        <time>2019-08-18T06:11:40.000Z</time>
      </trkpt>
      <trkpt lat="43.16368" lon="2.34223">
        <ele>156</ele>
        <time>2019-08-18T06:11:41.000Z</time>
      </trkpt>
      <trkpt lat="43.16365" lon="2.34223">
        <ele>156</ele>
        <time>2019-08-18T06:11:42.000Z</time>
      </trkpt>
      <trkpt lat="43.16362" lon="2.34224">
        <ele>156</ele>
        <time>2019-08-18T06:11:43.000Z</time>
      </trkpt>
      <trkpt lat="43.16359" lon="2.34225">
        <ele>156.1</ele>
        <time>2019-08-18T06:11:44.000Z</time>
      </trkpt>
      <trkpt lat="43.16357" lon="2.34225">
        <ele>156.1</ele>
        <time>2019-08-18T06:11:45.000Z</time>
      </trkpt>
      <trkpt lat="43.16354" lon="2.34225">
        <ele>156.2</ele>
        <time>2019-08-18T06:11:46.000Z</time>
      </trkpt>
      <trkpt lat="43.16351" lon="2.34226">
        <ele>156.2</ele>
        <time>2019-08-18T06:11:47.000Z</time>
      </trkpt>
      <trkpt lat="43.16349" lon="2.34226">
        <ele>156.3</ele>
        <time>2019-08-18T06:11:48.000Z</time>
      </trkpt>
      <trkpt lat="43.16346" lon="2.34226">
        <ele>156.3</ele>
        <time>2019-08-18T06:11:49.000Z</time>
      </trkpt>
      <trkpt lat="43.16343" lon="2.34227">
        <ele>156.4</ele>
        <time>2019-08-18T06:11:50.000Z</time>
      </trkpt>
      <trkpt lat="43.16341" lon="2.34227">
        <ele>156.4</ele>
        <time>2019-08-18T06:11:51.000Z</time>
      </trkpt>
      <trkpt lat="43.16338" lon="2.34227">
        <ele>156.5</ele>
        <time>2019-08-18T06:11:52.000Z</time>
      </trkpt>
      <trkpt lat="43.16335" lon="2.34227">
        <ele>156.5</ele>
        <time>2019-08-18T06:11:53.000Z</time>
      </trkpt>
      <trkpt lat="43.16333" lon="2.34228">
        <ele>156.6</ele>
        <time>2019-08-18T06:11:54.000Z</time>
      </trkpt>
      <trkpt lat="43.1633" lon="2.34228">
        <ele>156.6</ele>
        <time>2019-08-18T06:11:55.000Z</time>
      </trkpt>
      <trkpt lat="43.16327" lon="2.34228">
        <ele>156.6</ele>
        <time>2019-08-18T06:11:56.000Z</time>
      </trkpt>
      <trkpt lat="43.16325" lon="2.34229">
        <ele>156.7</ele>
        <time>2019-08-18T06:11:57.000Z</time>
      </trkpt>
      <trkpt lat="43.16322" lon="2.34229">
        <ele>156.7</ele>
        <time>2019-08-18T06:11:58.000Z</time>
      </trkpt>
      <trkpt lat="43.16319" lon="2.3423">
        <ele>156.8</ele>
        <time>2019-08-18T06:11:59.000Z</time>
      </trkpt>
      <trkpt lat="43.16317" lon="2.3423">
        <ele>156.8</ele>
        <time>2019-08-18T06:12:00.000Z</time>
      </trkpt>
      <trkpt lat="43.16314" lon="2.34231">
        <ele>156.9</ele>
        <time>2019-08-18T06:12:01.000Z</time>
      </trkpt>
      <trkpt lat="43.16312" lon="2.34231">
        <ele>156.9</ele>
        <time>2019-08-18T06:12:02.000Z</time>
      </trkpt>
      <trkpt lat="43.16309" lon="2.34232">
        <ele>156.9</ele>
        <time>2019-08-18T06:12:03.000Z</time>
      </trkpt>
      <trkpt lat="43.16306" lon="2.34233">
        <ele>157</ele>
        <time>2019-08-18T06:12:04.000Z</time>
      </trkpt>
      <trkpt lat="43.16304" lon="2.34233">
        <ele>157</ele>
        <time>2019-08-18T06:12:05.000Z</time>
      </trkpt>
      <trkpt lat="43.16301" lon="2.34234">
        <ele>157</ele>
        <time>2019-08-18T06:12:06.000Z</time>
      </trkpt>
      <trkpt lat="43.16298" lon="2.34234">
        <ele>157</ele>
        <time>2019-08-18T06:12:07.000Z</time>
      </trkpt>
      <trkpt lat="43.16296" lon="2.34235">
        <ele>157.1</ele>
        <time>2019-08-18T06:12:08.000Z</time>
      </trkpt>
      <trkpt lat="43.16293" lon="2.34235">
        <ele>157.1</ele>
        <time>2019-08-18T06:12:09.000Z</time>
      </trkpt>
      <trkpt lat="43.1629" lon="2.34236">
        <ele>157.1</ele>
        <time>2019-08-18T06:12:10.000Z</time>
      </trkpt>
      <trkpt lat="43.16288" lon="2.34236">
        <ele>157.2</ele>
        <time>2019-08-18T06:12:11.000Z</time>
      </trkpt>
      <trkpt lat="43.16285" lon="2.34236">
        <ele>157.2</ele>
        <time>2019-08-18T06:12:12.000Z</time>
      </trkpt>
      <trkpt lat="43.16282" lon="2.34237">
        <ele>157.2</ele>
        <time>2019-08-18T06:12:13.000Z</time>
      </trkpt>
      <trkpt lat="43.1628" lon="2.34237">
        <ele>157.3</ele>
        <time>2019-08-18T06:12:14.000Z</time>
      </trkpt>
      <trkpt lat="43.16277" lon="2.34237">
        <ele>157.3</ele>
        <time>2019-08-18T06:12:15.000Z</time>
      </trkpt>
      <trkpt lat="43.16275" lon="2.34237">
        <ele>157.3</ele>
        <time>2019-08-18T06:12:16.000Z</time>
      </trkpt>
      <trkpt lat="43.16272" lon="2.34238">
        <ele>157.4</ele>
        <time>2019-08-18T06:12:17.000Z</time>
      </trkpt>
      <trkpt lat="43.16269" lon="2.34238">
        <ele>157.4</ele>
        <time>2019-08-18T06:12:18.000Z</time>
      </trkpt>
      <trkpt lat="43.16267" lon="2.34238">
        <ele>157.4</ele>
        <time>2019-08-18T06:12:19.000Z</time>
      </trkpt>
      <trkpt lat="43.16264" lon="2.34239">
        <ele>157.4</ele>
        <time>2019-08-18T06:12:20.000Z</time>
      </trkpt>
      <trkpt lat="43.16261" lon="2.34239">
        <ele>157.5</ele>
        <time>2019-08-18T06:12:21.000Z</time>
      </trkpt>
      <trkpt lat="43.16259" lon="2.34239">
        <ele>157.5</ele>
        <time>2019-08-18T06:12:22.000Z</time>
      </trkpt>
      <trkpt lat="43.16256" lon="2.3424">
        <ele>157.5</ele>
        <time>2019-08-18T06:12:23.000Z</time>
      </trkpt>
      <trkpt lat="43.16253" lon="2.3424">
        <ele>157.5</ele>
        <time>2019-08-18T06:12:24.000Z</time>
      </trkpt>
      <trkpt lat="43.16251" lon="2.34241">
        <ele>157.5</ele>
        <time>2019-08-18T06:12:25.000Z</time>
      </trkpt>
      <trkpt lat="43.16248" lon="2.34242">
        <ele>157.6</ele>
        <time>2019-08-18T06:12:26.000Z</time>
      </trkpt>
      <trkpt lat="43.16246" lon="2.34242">
        <ele>157.7</ele>
        <time>2019-08-18T06:12:27.000Z</time>
      </trkpt>
      <trkpt lat="43.16243" lon="2.34243">
        <ele>157.8</ele>
        <time>2019-08-18T06:12:28.000Z</time>
      </trkpt>
      <trkpt lat="43.16241" lon="2.34243">
        <ele>157.9</ele>
        <time>2019-08-18T06:12:29.000Z</time>
      </trkpt>
      <trkpt lat="43.16238" lon="2.34244">
        <ele>157.9</ele>
        <time>2019-08-18T06:12:30.000Z</time>
      </trkpt>
      <trkpt lat="43.16236" lon="2.34245">
        <ele>158</ele>
        <time>2019-08-18T06:12:31.000Z</time>
      </trkpt>
      <trkpt lat="43.16233" lon="2.34246">
        <ele>158.1</ele>
        <time>2019-08-18T06:12:32.000Z</time>
      </trkpt>
      <trkpt lat="43.16231" lon="2.34247">
        <ele>158.1</ele>
        <time>2019-08-18T06:12:33.000Z</time>
      </trkpt>
      <trkpt lat="43.16229" lon="2.34248">
        <ele>158.1</ele>
        <time>2019-08-18T06:12:34.000Z</time>
      </trkpt>
      <trkpt lat="43.16227" lon="2.3425">
        <ele>158.2</ele>
        <time>2019-08-18T06:12:35.000Z</time>
      </trkpt>
      <trkpt lat="43.16224" lon="2.34251">
        <ele>158.3</ele>
        <time>2019-08-18T06:12:36.000Z</time>
      </trkpt>
      <trkpt lat="43.16222" lon="2.34253">
        <ele>158.5</ele>
        <time>2019-08-18T06:12:37.000Z</time>
      </trkpt>
      <trkpt lat="43.16221" lon="2.34255">
        <ele>158.6</ele>
        <time>2019-08-18T06:12:38.000Z</time>
      </trkpt>
      <trkpt lat="43.16219" lon="2.34257">
        <ele>158.8</ele>
        <time>2019-08-18T06:12:39.000Z</time>
      </trkpt>
      <trkpt lat="43.16217" lon="2.34259">
        <ele>159</ele>
        <time>2019-08-18T06:12:40.000Z</time>
      </trkpt>
      <trkpt lat="43.16215" lon="2.34261">
        <ele>159.2</ele>
        <time>2019-08-18T06:12:41.000Z</time>
      </trkpt>
      <trkpt lat="43.16214" lon="2.34264">
        <ele>159.3</ele>
        <time>2019-08-18T06:12:42.000Z</time>
      </trkpt>
      <trkpt lat="43.16212" lon="2.34267">
        <ele>159.5</ele>
        <time>2019-08-18T06:12:43.000Z</time>
      </trkpt>
      <trkpt lat="43.16211" lon="2.34269">
        <ele>159.6</ele>
        <time>2019-08-18T06:12:44.000Z</time>
      </trkpt>
      <trkpt lat="43.16209" lon="2.34272">
        <ele>159.8</ele>
        <time>2019-08-18T06:12:45.000Z</time>
      </trkpt>
      <trkpt lat="43.16208" lon="2.34275">
        <ele>159.9</ele>
        <time>2019-08-18T06:12:46.000Z</time>
      </trkpt>
      <trkpt lat="43.16207" lon="2.34278">
        <ele>160</ele>
        <time>2019-08-18T06:12:47.000Z</time>
      </trkpt>
      <trkpt lat="43.16206" lon="2.3428">
        <ele>160.1</ele>
        <time>2019-08-18T06:12:48.000Z</time>
      </trkpt>
      <trkpt lat="43.16205" lon="2.34282">
        <ele>160.2</ele>
        <time>2019-08-18T06:12:49.000Z</time>
      </trkpt>
      <trkpt lat="43.16203" lon="2.34285">
        <ele>160.3</ele>
        <time>2019-08-18T06:12:50.000Z</time>
      </trkpt>
      <trkpt lat="43.16202" lon="2.34287">
        <ele>160.4</ele>
        <time>2019-08-18T06:12:51.000Z</time>
      </trkpt>
      <trkpt lat="43.16201" lon="2.34288">
        <ele>160.4</ele>
        <time>2019-08-18T06:12:52.000Z</time>
      </trkpt>
      <trkpt lat="43.16201" lon="2.3429">
        <ele>160.5</ele>
        <time>2019-08-18T06:12:53.000Z</time>
      </trkpt>
      <trkpt lat="43.162" lon="2.34291">
        <ele>160.5</ele>
        <time>2019-08-18T06:12:54.000Z</time>
      </trkpt>
      <trkpt lat="43.16199" lon="2.34293">
        <ele>160.5</ele>
        <time>2019-08-18T06:12:55.000Z</time>
      </trkpt>
      <trkpt lat="43.16199" lon="2.34294">
        <ele>160.5</ele>
        <time>2019-08-18T06:12:56.000Z</time>
      </trkpt>
      <trkpt lat="43.16198" lon="2.34294">
        <ele>160.6</ele>
        <time>2019-08-18T06:12:57.000Z</time>
      </trkpt>
      <trkpt lat="43.16198" lon="2.34295">
        <ele>160.6</ele>
        <time>2019-08-18T06:12:58.000Z</time>
      </trkpt>
      <trkpt lat="43.16197" lon="2.34296">
        <ele>160.6</ele>
        <time>2019-08-18T06:12:59.000Z</time>
      </trkpt>
      <trkpt lat="43.16197" lon="2.34297">
        <ele>160.6</ele>
        <time>2019-08-18T06:13:00.000Z</time>
      </trkpt>
      <trkpt lat="43.16197" lon="2.34298">
        <ele>160.6</ele>
        <time>2019-08-18T06:13:01.000Z</time>
      </trkpt>
      <trkpt lat="43.16196" lon="2.343">
        <ele>160.7</ele>
        <time>2019-08-18T06:13:02.000Z</time>
      </trkpt>
      <trkpt lat="43.16196" lon="2.34301">
        <ele>160.7</ele>
        <time>2019-08-18T06:13:03.000Z</time>
      </trkpt>
      <trkpt lat="43.16196" lon="2.34303">
        <ele>160.7</ele>
        <time>2019-08-18T06:13:04.000Z</time>
      </trkpt>
      <trkpt lat="43.16196" lon="2.34304">
        <ele>160.8</ele>
        <time>2019-08-18T06:13:05.000Z</time>
      </trkpt>
      <trkpt lat="43.16196" lon="2.34306">
        <ele>160.8</ele>
        <time>2019-08-18T06:13:06.000Z</time>
      </trkpt>
      <trkpt lat="43.16196" lon="2.34308">
        <ele>160.8</ele>
        <time>2019-08-18T06:13:07.000Z</time>
      </trkpt>
      <trkpt lat="43.16196" lon="2.34309">
        <ele>160.9</ele>
        <time>2019-08-18T06:13:08.000Z</time>
      </trkpt>
      <trkpt lat="43.16196" lon="2.3431">
        <ele>160.9</ele>
        <time>2019-08-18T06:13:09.000Z</time>
      </trkpt>
      <trkpt lat="43.16196" lon="2.34311">
        <ele>160.9</ele>
        <time>2019-08-18T06:13:10.000Z</time>
      </trkpt>
      <trkpt lat="43.16196" lon="2.34312">
        <ele>161</ele>
        <time>2019-08-18T06:13:11.000Z</time>
      </trkpt>
      <trkpt lat="43.16197" lon="2.34313">
        <ele>161</ele>
        <time>2019-08-18T06:13:12.000Z</time>
      </trkpt>
      <trkpt lat="43.16197" lon="2.34314">
        <ele>161</ele>
        <time>2019-08-18T06:13:13.000Z</time>
      </trkpt>
      <trkpt lat="43.16197" lon="2.34314">
        <ele>161</ele>
        <time>2019-08-18T06:13:14.000Z</time>
      </trkpt>
      <trkpt lat="43.16198" lon="2.34315">
        <ele>161.1</ele>
        <time>2019-08-18T06:13:15.000Z</time>
      </trkpt>
      <trkpt lat="43.16199" lon="2.34315">
        <ele>161.1</ele>
        <time>2019-08-18T06:13:16.000Z</time>
      </trkpt>
      <trkpt lat="43.16199" lon="2.34316">
        <ele>161.1</ele>
        <time>2019-08-18T06:13:17.000Z</time>
      </trkpt>
      <trkpt lat="43.162" lon="2.34316">
        <ele>161.2</ele>
        <time>2019-08-18T06:13:18.000Z</time>
      </trkpt>
      <trkpt lat="43.16201" lon="2.34317">
        <ele>161.2</ele>
        <time>2019-08-18T06:13:19.000Z</time>
      </trkpt>
      <trkpt lat="43.16202" lon="2.34317">
        <ele>161.2</ele>
        <time>2019-08-18T06:13:20.000Z</time>
      </trkpt>
      <trkpt lat="43.16203" lon="2.34318">
        <ele>161.3</ele>
        <time>2019-08-18T06:13:21.000Z</time>
      </trkpt>
      <trkpt lat="43.16205" lon="2.34318">
        <ele>161.3</ele>
        <time>2019-08-18T06:13:22.000Z</time>
      </trkpt>
      <trkpt lat="43.16206" lon="2.34319">
        <ele>161.4</ele>
        <time>2019-08-18T06:13:23.000Z</time>
      </trkpt>
      <trkpt lat="43.16208" lon="2.34319">
        <ele>161.5</ele>
        <time>2019-08-18T06:13:24.000Z</time>
      </trkpt>
      <trkpt lat="43.16209" lon="2.3432">
        <ele>161.5</ele>
        <time>2019-08-18T06:13:25.000Z</time>
      </trkpt>
      <trkpt lat="43.1621" lon="2.34321">
        <ele>161.6</ele>
        <time>2019-08-18T06:13:26.000Z</time>
      </trkpt>
      <trkpt lat="43.16211" lon="2.34322">
        <ele>161.7</ele>
        <time>2019-08-18T06:13:27.000Z</time>
      </trkpt>
      <trkpt lat="43.16212" lon="2.34324">
        <ele>161.8</ele>
        <time>2019-08-18T06:13:28.000Z</time>
      </trkpt>
      <trkpt lat="43.16212" lon="2.34325">
        <ele>161.9</ele>
        <time>2019-08-18T06:13:29.000Z</time>
      </trkpt>
      <trkpt lat="43.16212" lon="2.34327">
        <ele>161.9</ele>
        <time>2019-08-18T06:13:30.000Z</time>
      </trkpt>
      <trkpt lat="43.16212" lon="2.34328">
        <ele>162</ele>
        <time>2019-08-18T06:13:31.000Z</time>
      </trkpt>
      <trkpt lat="43.16212" lon="2.3433">
        <ele>162</ele>
        <time>2019-08-18T06:13:32.000Z</time>
      </trkpt>
      <trkpt lat="43.16212" lon="2.34331">
        <ele>162.1</ele>
        <time>2019-08-18T06:13:33.000Z</time>
      </trkpt>
      <trkpt lat="43.16213" lon="2.34331">
        <ele>162.1</ele>
        <time>2019-08-18T06:13:34.000Z</time>
      </trkpt>
      <trkpt lat="43.16214" lon="2.34331">
        <ele>162.2</ele>
        <time>2019-08-18T06:13:35.000Z</time>
      </trkpt>
      <trkpt lat="43.16215" lon="2.34331">
        <ele>162.2</ele>
        <time>2019-08-18T06:13:36.000Z</time>
      </trkpt>
      <trkpt lat="43.16216" lon="2.3433">
        <ele>162.2</ele>
        <time>2019-08-18T06:13:37.000Z</time>
      </trkpt>
      <trkpt lat="43.16217" lon="2.34329">
        <ele>162.2</ele>
        <time>2019-08-18T06:13:38.000Z</time>
      </trkpt>
      <trkpt lat="43.16218" lon="2.34328">
        <ele>162.2</ele>
        <time>2019-08-18T06:13:39.000Z</time>
      </trkpt>
      <trkpt lat="43.16219" lon="2.34327">
        <ele>162.2</ele>
        <time>2019-08-18T06:13:40.000Z</time>
      </trkpt>
      <trkpt lat="43.16221" lon="2.34325">
        <ele>162.2</ele>
        <time>2019-08-18T06:13:41.000Z</time>
      </trkpt>
      <trkpt lat="43.16222" lon="2.34324">
        <ele>162.2</ele>
        <time>2019-08-18T06:13:42.000Z</time>
      </trkpt>
      <trkpt lat="43.16223" lon="2.34323">
        <ele>162.1</ele>
        <time>2019-08-18T06:13:43.000Z</time>
      </trkpt>
      <trkpt lat="43.16225" lon="2.34321">
        <ele>162.1</ele>
        <time>2019-08-18T06:13:44.000Z</time>
      </trkpt>
      <trkpt lat="43.16226" lon="2.3432">
        <ele>162.1</ele>
        <time>2019-08-18T06:13:45.000Z</time>
      </trkpt>
      <trkpt lat="43.16228" lon="2.34319">
        <ele>162.1</ele>
        <time>2019-08-18T06:13:46.000Z</time>
      </trkpt>
      <trkpt lat="43.1623" lon="2.34318">
        <ele>162.1</ele>
        <time>2019-08-18T06:13:47.000Z</time>
      </trkpt>
      <trkpt lat="43.16232" lon="2.34317">
        <ele>162.1</ele>
        <time>2019-08-18T06:13:48.000Z</time>
      </trkpt>
      <trkpt lat="43.16233" lon="2.34316">
        <ele>162.1</ele>
        <time>2019-08-18T06:13:49.000Z</time>
      </trkpt>
      <trkpt lat="43.16235" lon="2.34316">
        <ele>162.1</ele>
        <time>2019-08-18T06:13:50.000Z</time>
      </trkpt>
      <trkpt lat="43.16237" lon="2.34316">
        <ele>162.2</ele>
        <time>2019-08-18T06:13:51.000Z</time>
      </trkpt>
      <trkpt lat="43.16238" lon="2.34316">
        <ele>162.2</ele>
        <time>2019-08-18T06:13:52.000Z</time>
      </trkpt>
      <trkpt lat="43.1624" lon="2.34317">
        <ele>162.3</ele>
        <time>2019-08-18T06:13:53.000Z</time>
      </trkpt>
      <trkpt lat="43.16241" lon="2.34317">
        <ele>162.4</ele>
        <time>2019-08-18T06:13:54.000Z</time>
      </trkpt>
      <trkpt lat="43.16242" lon="2.34318">
        <ele>162.5</ele>
        <time>2019-08-18T06:13:55.000Z</time>
      </trkpt>
      <trkpt lat="43.16243" lon="2.34319">
        <ele>162.6</ele>
        <time>2019-08-18T06:13:56.000Z</time>
      </trkpt>
      <trkpt lat="43.16244" lon="2.3432">
        <ele>162.7</ele>
        <time>2019-08-18T06:13:57.000Z</time>
      </trkpt>
      <trkpt lat="43.16244" lon="2.34321">
        <ele>162.7</ele>
        <time>2019-08-18T06:13:58.000Z</time>
      </trkpt>
      <trkpt lat="43.16245" lon="2.34322">
        <ele>162.8</ele>
        <time>2019-08-18T06:13:59.000Z</time>
      </trkpt>
      <trkpt lat="43.16245" lon="2.34323">
        <ele>162.9</ele>
        <time>2019-08-18T06:14:00.000Z</time>
      </trkpt>
      <trkpt lat="43.16244" lon="2.34324">
        <ele>163</ele>
        <time>2019-08-18T06:14:01.000Z</time>
      </trkpt>
      <trkpt lat="43.16244" lon="2.34325">
        <ele>163.1</ele>
        <time>2019-08-18T06:14:02.000Z</time>
      </trkpt>
      <trkpt lat="43.16244" lon="2.34326">
        <ele>163.1</ele>
        <time>2019-08-18T06:14:03.000Z</time>
      </trkpt>
      <trkpt lat="43.16244" lon="2.34327">
        <ele>163.2</ele>
        <time>2019-08-18T06:14:04.000Z</time>
      </trkpt>
      <trkpt lat="43.16243" lon="2.34329">
        <ele>163.3</ele>
        <time>2019-08-18T06:14:05.000Z</time>
      </trkpt>
      <trkpt lat="43.16243" lon="2.3433">
        <ele>163.4</ele>
        <time>2019-08-18T06:14:06.000Z</time>
      </trkpt>
      <trkpt lat="43.16242" lon="2.34331">
        <ele>163.5</ele>
        <time>2019-08-18T06:14:07.000Z</time>
      </trkpt>
      <trkpt lat="43.16242" lon="2.34333">
        <ele>163.5</ele>
        <time>2019-08-18T06:14:08.000Z</time>
      </trkpt>
      <trkpt lat="43.16241" lon="2.34334">
        <ele>163.6</ele>
        <time>2019-08-18T06:14:09.000Z</time>
      </trkpt>
      <trkpt lat="43.16241" lon="2.34335">
        <ele>163.8</ele>
        <time>2019-08-18T06:14:10.000Z</time>
      </trkpt>
      <trkpt lat="43.16241" lon="2.34337">
        <ele>163.9</ele>
        <time>2019-08-18T06:14:11.000Z</time>
      </trkpt>
      <trkpt lat="43.1624" lon="2.34338">
        <ele>164</ele>
        <time>2019-08-18T06:14:12.000Z</time>
      </trkpt>
      <trkpt lat="43.1624" lon="2.3434">
        <ele>164.1</ele>
        <time>2019-08-18T06:14:13.000Z</time>
      </trkpt>
      <trkpt lat="43.16239" lon="2.34341">
        <ele>164.2</ele>
        <time>2019-08-18T06:14:14.000Z</time>
      </trkpt>
      <trkpt lat="43.16239" lon="2.34342">
        <ele>164.3</ele>
        <time>2019-08-18T06:14:15.000Z</time>
      </trkpt>
      <trkpt lat="43.16238" lon="2.34344">
        <ele>164.4</ele>
        <time>2019-08-18T06:14:16.000Z</time>
      </trkpt>
      <trkpt lat="43.16238" lon="2.34345">
        <ele>164.5</ele>
        <time>2019-08-18T06:14:17.000Z</time>
      </trkpt>
      <trkpt lat="43.16237" lon="2.34346">
        <ele>164.6</ele>
        <time>2019-08-18T06:14:18.000Z</time>
      </trkpt>
      <trkpt lat="43.16237" lon="2.34348">
        <ele>164.7</ele>
        <time>2019-08-18T06:14:19.000Z</time>
      </trkpt>
      <trkpt lat="43.16236" lon="2.34349">
        <ele>164.8</ele>
        <time>2019-08-18T06:14:20.000Z</time>
      </trkpt>
      <trkpt lat="43.16236" lon="2.3435">
        <ele>164.8</ele>
        <time>2019-08-18T06:14:21.000Z</time>
      </trkpt>
      <trkpt lat="43.16235" lon="2.34351">
        <ele>164.9</ele>
        <time>2019-08-18T06:14:22.000Z</time>
      </trkpt>
      <trkpt lat="43.16235" lon="2.34352">
        <ele>165</ele>
        <time>2019-08-18T06:14:23.000Z</time>
      </trkpt>
      <trkpt lat="43.16235" lon="2.34353">
        <ele>165.1</ele>
        <time>2019-08-18T06:14:24.000Z</time>
      </trkpt>
      <trkpt lat="43.16234" lon="2.34355">
        <ele>165.2</ele>
        <time>2019-08-18T06:14:25.000Z</time>
      </trkpt>
      <trkpt lat="43.16234" lon="2.34356">
        <ele>165.3</ele>
        <time>2019-08-18T06:14:26.000Z</time>
      </trkpt>
      <trkpt lat="43.16234" lon="2.34357">
        <ele>165.4</ele>
        <time>2019-08-18T06:14:27.000Z</time>
      </trkpt>
      <trkpt lat="43.16234" lon="2.34358">
        <ele>165.5</ele>
        <time>2019-08-18T06:14:28.000Z</time>
      </trkpt>
      <trkpt lat="43.16235" lon="2.34359">
        <ele>165.6</ele>
        <time>2019-08-18T06:14:29.000Z</time>
      </trkpt>
      <trkpt lat="43.16235" lon="2.34361">
        <ele>165.7</ele>
        <time>2019-08-18T06:14:30.000Z</time>
      </trkpt>
      <trkpt lat="43.16235" lon="2.34362">
        <ele>165.9</ele>
        <time>2019-08-18T06:14:31.000Z</time>
      </trkpt>
      <trkpt lat="43.16236" lon="2.34363">
        <ele>166.1</ele>
        <time>2019-08-18T06:14:32.000Z</time>
      </trkpt>
      <trkpt lat="43.16236" lon="2.34365">
        <ele>166.2</ele>
        <time>2019-08-18T06:14:33.000Z</time>
      </trkpt>
      <trkpt lat="43.16237" lon="2.34366">
        <ele>166.4</ele>
        <time>2019-08-18T06:14:34.000Z</time>
      </trkpt>
      <trkpt lat="43.16237" lon="2.34368">
        <ele>166.6</ele>
        <time>2019-08-18T06:14:35.000Z</time>
      </trkpt>
      <trkpt lat="43.16238" lon="2.34369">
        <ele>166.8</ele>
        <time>2019-08-18T06:14:36.000Z</time>
      </trkpt>
      <trkpt lat="43.16238" lon="2.34371">
        <ele>167</ele>
        <time>2019-08-18T06:14:37.000Z</time>
      </trkpt>
      <trkpt lat="43.16239" lon="2.34372">
        <ele>167.1</ele>
        <time>2019-08-18T06:14:38.000Z</time>
      </trkpt>
      <trkpt lat="43.16239" lon="2.34373">
        <ele>167.3</ele>
        <time>2019-08-18T06:14:39.000Z</time>
      </trkpt>
      <trkpt lat="43.1624" lon="2.34373">
        <ele>167.4</ele>
        <time>2019-08-18T06:14:40.000Z</time>
      </trkpt>
      <trkpt lat="43.1624" lon="2.34374">
        <ele>167.4</ele>
        <time>2019-08-18T06:14:41.000Z</time>
      </trkpt>
      <trkpt lat="43.16241" lon="2.34374">
        <ele>167.5</ele>
        <time>2019-08-18T06:14:42.000Z</time>
      </trkpt>
      <trkpt lat="43.16241" lon="2.34374">
        <ele>167.5</ele>
        <time>2019-08-18T06:14:43.000Z</time>
      </trkpt>
      <trkpt lat="43.16242" lon="2.34374">
        <ele>167.6</ele>
        <time>2019-08-18T06:14:44.000Z</time>
      </trkpt>
      <trkpt lat="43.16242" lon="2.34374">
        <ele>167.6</ele>
        <time>2019-08-18T06:14:45.000Z</time>
      </trkpt>
      <trkpt lat="43.16243" lon="2.34374">
        <ele>167.7</ele>
        <time>2019-08-18T06:14:46.000Z</time>
      </trkpt>
      <trkpt lat="43.16244" lon="2.34375">
        <ele>167.8</ele>
        <time>2019-08-18T06:14:47.000Z</time>
      </trkpt>
      <trkpt lat="43.16244" lon="2.34375">
        <ele>167.9</ele>
        <time>2019-08-18T06:14:48.000Z</time>
      </trkpt>
      <trkpt lat="43.16245" lon="2.34376">
        <ele>168.1</ele>
        <time>2019-08-18T06:14:49.000Z</time>
      </trkpt>
      <trkpt lat="43.16245" lon="2.34377">
        <ele>168.2</ele>
        <time>2019-08-18T06:14:50.000Z</time>
      </trkpt>
      <trkpt lat="43.16245" lon="2.34378">
        <ele>168.4</ele>
        <time>2019-08-18T06:14:51.000Z</time>
      </trkpt>
      <trkpt lat="43.16245" lon="2.34379">
        <ele>168.5</ele>
        <time>2019-08-18T06:14:52.000Z</time>
      </trkpt>
      <trkpt lat="43.16246" lon="2.34381">
        <ele>168.6</ele>
        <time>2019-08-18T06:14:53.000Z</time>
      </trkpt>
      <trkpt lat="43.16246" lon="2.34382">
        <ele>168.8</ele>
        <time>2019-08-18T06:14:54.000Z</time>
      </trkpt>
      <trkpt lat="43.16246" lon="2.34383">
        <ele>168.9</ele>
        <time>2019-08-18T06:14:55.000Z</time>
      </trkpt>
      <trkpt lat="43.16246" lon="2.34383">
        <ele>169</ele>
        <time>2019-08-18T06:14:56.000Z</time>
      </trkpt>
      <trkpt lat="43.16246" lon="2.34384">
        <ele>169.1</ele>
        <time>2019-08-18T06:14:57.000Z</time>
      </trkpt>
      <trkpt lat="43.16246" lon="2.34385">
        <ele>169.2</ele>
        <time>2019-08-18T06:14:58.000Z</time>
      </trkpt>
      <trkpt lat="43.16247" lon="2.34386">
        <ele>169.3</ele>
        <time>2019-08-18T06:14:59.000Z</time>
      </trkpt>
      <trkpt lat="43.16247" lon="2.34387">
        <ele>169.4</ele>
        <time>2019-08-18T06:15:00.000Z</time>
      </trkpt>
      <trkpt lat="43.16247" lon="2.34387">
        <ele>169.5</ele>
        <time>2019-08-18T06:15:01.000Z</time>
      </trkpt>
      <trkpt lat="43.16247" lon="2.34388">
        <ele>169.6</ele>
        <time>2019-08-18T06:15:02.000Z</time>
      </trkpt>
      <trkpt lat="43.16247" lon="2.34389">
        <ele>169.7</ele>
        <time>2019-08-18T06:15:03.000Z</time>
      </trkpt>
      <trkpt lat="43.16247" lon="2.34391">
        <ele>169.9</ele>
        <time>2019-08-18T06:15:04.000Z</time>
      </trkpt>
      <trkpt lat="43.16247" lon="2.34392">
        <ele>170</ele>
        <time>2019-08-18T06:15:05.000Z</time>
      </trkpt>
      <trkpt lat="43.16248" lon="2.34393">
        <ele>170.2</ele>
        <time>2019-08-18T06:15:06.000Z</time>
      </trkpt>
      <trkpt lat="43.16248" lon="2.34395">
        <ele>170.3</ele>
        <time>2019-08-18T06:15:07.000Z</time>
      </trkpt>
      <trkpt lat="43.16248" lon="2.34396">
        <ele>170.5</ele>
        <time>2019-08-18T06:15:08.000Z</time>
      </trkpt>
      <trkpt lat="43.16248" lon="2.34398">
        <ele>170.7</ele>
        <time>2019-08-18T06:15:09.000Z</time>
      </trkpt>
      <trkpt lat="43.16248" lon="2.34399">
        <ele>170.9</ele>
        <time>2019-08-18T06:15:10.000Z</time>
      </trkpt>
      <trkpt lat="43.16248" lon="2.34401">
        <ele>171.1</ele>
        <time>2019-08-18T06:15:11.000Z</time>
      </trkpt>
      <trkpt lat="43.16248" lon="2.34403">
        <ele>171.3</ele>
        <time>2019-08-18T06:15:12.000Z</time>
      </trkpt>
      <trkpt lat="43.16249" lon="2.34405">
        <ele>171.6</ele>
        <time>2019-08-18T06:15:13.000Z</time>
      </trkpt>
      <trkpt lat="43.16249" lon="2.34407">
        <ele>171.9</ele>
        <time>2019-08-18T06:15:14.000Z</time>
      </trkpt>
      <trkpt lat="43.1625" lon="2.3441">
        <ele>172.2</ele>
        <time>2019-08-18T06:15:15.000Z</time>
      </trkpt>
      <trkpt lat="43.16251" lon="2.34412">
        <ele>172.5</ele>
        <time>2019-08-18T06:15:16.000Z</time>
      </trkpt>
      <trkpt lat="43.16251" lon="2.34414">
        <ele>172.7</ele>
        <time>2019-08-18T06:15:17.000Z</time>
      </trkpt>
      <trkpt lat="43.16252" lon="2.34417">
        <ele>172.9</ele>
        <time>2019-08-18T06:15:18.000Z</time>
      </trkpt>
      <trkpt lat="43.16253" lon="2.3442">
        <ele>173</ele>
        <time>2019-08-18T06:15:19.000Z</time>
      </trkpt>
      <trkpt lat="43.16253" lon="2.34423">
        <ele>173.1</ele>
        <time>2019-08-18T06:15:20.000Z</time>
      </trkpt>
      <trkpt lat="43.16252" lon="2.34426">
        <ele>173.2</ele>
        <time>2019-08-18T06:15:21.000Z</time>
      </trkpt>
      <trkpt lat="43.16252" lon="2.34429">
        <ele>173.3</ele>
        <time>2019-08-18T06:15:22.000Z</time>
      </trkpt>
      <trkpt lat="43.16251" lon="2.34432">
        <ele>173.5</ele>
        <time>2019-08-18T06:15:23.000Z</time>
      </trkpt>
      <trkpt lat="43.1625" lon="2.34435">
        <ele>173.6</ele>
        <time>2019-08-18T06:15:24.000Z</time>
      </trkpt>
      <trkpt lat="43.16249" lon="2.34438">
        <ele>173.6</ele>
        <time>2019-08-18T06:15:25.000Z</time>
      </trkpt>
      <trkpt lat="43.16247" lon="2.34441">
        <ele>173.5</ele>
        <time>2019-08-18T06:15:26.000Z</time>
      </trkpt>
      <trkpt lat="43.16246" lon="2.34444">
        <ele>173.4</ele>
        <time>2019-08-18T06:15:27.000Z</time>
      </trkpt>
      <trkpt lat="43.16245" lon="2.34447">
        <ele>173.4</ele>
        <time>2019-08-18T06:15:28.000Z</time>
      </trkpt>
      <trkpt lat="43.16244" lon="2.3445">
        <ele>173.3</ele>
        <time>2019-08-18T06:15:29.000Z</time>
      </trkpt>
      <trkpt lat="43.16243" lon="2.34453">
        <ele>173.3</ele>
        <time>2019-08-18T06:15:30.000Z</time>
      </trkpt>
      <trkpt lat="43.16242" lon="2.34456">
        <ele>173.3</ele>
        <time>2019-08-18T06:15:31.000Z</time>
      </trkpt>
      <trkpt lat="43.16242" lon="2.34458">
        <ele>173.3</ele>
        <time>2019-08-18T06:15:32.000Z</time>
      </trkpt>
      <trkpt lat="43.16241" lon="2.34461">
        <ele>173.3</ele>
        <time>2019-08-18T06:15:33.000Z</time>
      </trkpt>
      <trkpt lat="43.16241" lon="2.34464">
        <ele>173.3</ele>
        <time>2019-08-18T06:15:34.000Z</time>
      </trkpt>
      <trkpt lat="43.1624" lon="2.34467">
        <ele>173.3</ele>
        <time>2019-08-18T06:15:35.000Z</time>
      </trkpt>
      <trkpt lat="43.16239" lon="2.34469">
        <ele>173.3</ele>
        <time>2019-08-18T06:15:36.000Z</time>
      </trkpt>
      <trkpt lat="43.16238" lon="2.34472">
        <ele>173.3</ele>
        <time>2019-08-18T06:15:37.000Z</time>
      </trkpt>
      <trkpt lat="43.16237" lon="2.34474">
        <ele>173.2</ele>
        <time>2019-08-18T06:15:38.000Z</time>
      </trkpt>
      <trkpt lat="43.16236" lon="2.34477">
        <ele>173.1</ele>
        <time>2019-08-18T06:15:39.000Z</time>
      </trkpt>
      <trkpt lat="43.16235" lon="2.3448">
        <ele>173.1</ele>
        <time>2019-08-18T06:15:40.000Z</time>
      </trkpt>
      <trkpt lat="43.16234" lon="2.34482">
        <ele>173</ele>
        <time>2019-08-18T06:15:41.000Z</time>
      </trkpt>
      <trkpt lat="43.16233" lon="2.34485">
        <ele>172.9</ele>
        <time>2019-08-18T06:15:42.000Z</time>
      </trkpt>
      <trkpt lat="43.16232" lon="2.34488">
        <ele>172.9</ele>
        <time>2019-08-18T06:15:43.000Z</time>
      </trkpt>
      <trkpt lat="43.16231" lon="2.34491">
        <ele>172.9</ele>
        <time>2019-08-18T06:15:44.000Z</time>
      </trkpt>
      <trkpt lat="43.1623" lon="2.34493">
        <ele>172.9</ele>
        <time>2019-08-18T06:15:45.000Z</time>
      </trkpt>
      <trkpt lat="43.1623" lon="2.34496">
        <ele>173</ele>
        <time>2019-08-18T06:15:46.000Z</time>
      </trkpt>
      <trkpt lat="43.1623" lon="2.34499">
        <ele>173</ele>
        <time>2019-08-18T06:15:47.000Z</time>
      </trkpt>
      <trkpt lat="43.1623" lon="2.34502">
        <ele>173.1</ele>
        <time>2019-08-18T06:15:48.000Z</time>
      </trkpt>
      <trkpt lat="43.1623" lon="2.34505">
        <ele>173.1</ele>
        <time>2019-08-18T06:15:49.000Z</time>
      </trkpt>
      <trkpt lat="43.1623" lon="2.34508">
        <ele>173.2</ele>
        <time>2019-08-18T06:15:50.000Z</time>
      </trkpt>
      <trkpt lat="43.1623" lon="2.34511">
        <ele>173.3</ele>
        <time>2019-08-18T06:15:51.000Z</time>
      </trkpt>
      <trkpt lat="43.16231" lon="2.34514">
        <ele>173.4</ele>
        <time>2019-08-18T06:15:52.000Z</time>
      </trkpt>
      <trkpt lat="43.16231" lon="2.34517">
        <ele>173.5</ele>
        <time>2019-08-18T06:15:53.000Z</time>
      </trkpt>
      <trkpt lat="43.16232" lon="2.3452">
        <ele>173.6</ele>
        <time>2019-08-18T06:15:54.000Z</time>
      </trkpt>
      <trkpt lat="43.16232" lon="2.34523">
        <ele>173.8</ele>
        <time>2019-08-18T06:15:55.000Z</time>
      </trkpt>
      <trkpt lat="43.16233" lon="2.34526">
        <ele>173.9</ele>
        <time>2019-08-18T06:15:56.000Z</time>
      </trkpt>
      <trkpt lat="43.16234" lon="2.34529">
        <ele>174.1</ele>
        <time>2019-08-18T06:15:57.000Z</time>
      </trkpt>
      <trkpt lat="43.16235" lon="2.34532">
        <ele>174.2</ele>
        <time>2019-08-18T06:15:58.000Z</time>
      </trkpt>
      <trkpt lat="43.16235" lon="2.34534">
        <ele>174.4</ele>
        <time>2019-08-18T06:15:59.000Z</time>
      </trkpt>
      <trkpt lat="43.16236" lon="2.34537">
        <ele>174.5</ele>
        <time>2019-08-18T06:16:00.000Z</time>
      </trkpt>
      <trkpt lat="43.16237" lon="2.34539">
        <ele>174.7</ele>
        <time>2019-08-18T06:16:01.000Z</time>
      </trkpt>
      <trkpt lat="43.16238" lon="2.34542">
        <ele>174.8</ele>
        <time>2019-08-18T06:16:02.000Z</time>
      </trkpt>
      <trkpt lat="43.16239" lon="2.34544">
        <ele>175</ele>
        <time>2019-08-18T06:16:03.000Z</time>
      </trkpt>
      <trkpt lat="43.1624" lon="2.34547">
        <ele>175.1</ele>
        <time>2019-08-18T06:16:04.000Z</time>
      </trkpt>
      <trkpt lat="43.1624" lon="2.34549">
        <ele>175.3</ele>
        <time>2019-08-18T06:16:05.000Z</time>
      </trkpt>
      <trkpt lat="43.16241" lon="2.34551">
        <ele>175.4</ele>
        <time>2019-08-18T06:16:06.000Z</time>
      </trkpt>
      <trkpt lat="43.16242" lon="2.34554">
        <ele>175.5</ele>
        <time>2019-08-18T06:16:07.000Z</time>
      </trkpt>
      <trkpt lat="43.16243" lon="2.34556">
        <ele>175.7</ele>
        <time>2019-08-18T06:16:08.000Z</time>
      </trkpt>
      <trkpt lat="43.16243" lon="2.34558">
        <ele>175.8</ele>
        <time>2019-08-18T06:16:09.000Z</time>
      </trkpt>
      <trkpt lat="43.16244" lon="2.3456">
        <ele>175.9</ele>
        <time>2019-08-18T06:16:10.000Z</time>
      </trkpt>
      <trkpt lat="43.16244" lon="2.34562">
        <ele>176</ele>
        <time>2019-08-18T06:16:11.000Z</time>
      </trkpt>
      <trkpt lat="43.16245" lon="2.34565">
        <ele>176</ele>
        <time>2019-08-18T06:16:12.000Z</time>
      </trkpt>
      <trkpt lat="43.16245" lon="2.34567">
        <ele>176.1</ele>
        <time>2019-08-18T06:16:13.000Z</time>
      </trkpt>
      <trkpt lat="43.16245" lon="2.34569">
        <ele>176.2</ele>
        <time>2019-08-18T06:16:14.000Z</time>
      </trkpt>
      <trkpt lat="43.16245" lon="2.34571">
        <ele>176.2</ele>
        <time>2019-08-18T06:16:15.000Z</time>
      </trkpt>
      <trkpt lat="43.16246" lon="2.34574">
        <ele>176.3</ele>
        <time>2019-08-18T06:16:16.000Z</time>
      </trkpt>
      <trkpt lat="43.16246" lon="2.34576">
        <ele>176.4</ele>
        <time>2019-08-18T06:16:17.000Z</time>
      </trkpt>
      <trkpt lat="43.16247" lon="2.34579">
        <ele>176.5</ele>
        <time>2019-08-18T06:16:18.000Z</time>
      </trkpt>
      <trkpt lat="43.16247" lon="2.34581">
        <ele>176.6</ele>
        <time>2019-08-18T06:16:19.000Z</time>
      </trkpt>
      <trkpt lat="43.16248" lon="2.34584">
        <ele>176.8</ele>
        <time>2019-08-18T06:16:20.000Z</time>
      </trkpt>
      <trkpt lat="43.16249" lon="2.34587">
        <ele>177</ele>
        <time>2019-08-18T06:16:21.000Z</time>
      </trkpt>
      <trkpt lat="43.1625" lon="2.3459">
        <ele>177.3</ele>
        <time>2019-08-18T06:16:22.000Z</time>
      </trkpt>
      <trkpt lat="43.1625" lon="2.34594">
        <ele>177.5</ele>
        <time>2019-08-18T06:16:23.000Z</time>
      </trkpt>
      <trkpt lat="43.16251" lon="2.34597">
        <ele>177.6</ele>
        <time>2019-08-18T06:16:24.000Z</time>
      </trkpt>
      <trkpt lat="43.16251" lon="2.346">
        <ele>177.8</ele>
        <time>2019-08-18T06:16:25.000Z</time>
      </trkpt>
      <trkpt lat="43.16251" lon="2.34603">
        <ele>178</ele>
        <time>2019-08-18T06:16:26.000Z</time>
      </trkpt>
      <trkpt lat="43.16251" lon="2.34606">
        <ele>178.1</ele>
        <time>2019-08-18T06:16:27.000Z</time>
      </trkpt>
      <trkpt lat="43.16251" lon="2.34609">
        <ele>178.3</ele>
        <time>2019-08-18T06:16:28.000Z</time>
      </trkpt>
      <trkpt lat="43.16252" lon="2.34613">
        <ele>178.4</ele>
        <time>2019-08-18T06:16:29.000Z</time>
      </trkpt>
      <trkpt lat="43.16252" lon="2.34616">
        <ele>178.6</ele>
        <time>2019-08-18T06:16:30.000Z</time>
      </trkpt>
      <trkpt lat="43.16252" lon="2.34619">
        <ele>178.7</ele>
        <time>2019-08-18T06:16:31.000Z</time>
      </trkpt>
      <trkpt lat="43.16252" lon="2.34622">
        <ele>178.9</ele>
        <time>2019-08-18T06:16:32.000Z</time>
      </trkpt>
      <trkpt lat="43.16252" lon="2.34626">
        <ele>179.1</ele>
        <time>2019-08-18T06:16:33.000Z</time>
      </trkpt>
      <trkpt lat="43.16252" lon="2.34629">
        <ele>179.2</ele>
        <time>2019-08-18T06:16:34.000Z</time>
      </trkpt>
      <trkpt lat="43.16253" lon="2.34632">
        <ele>179.4</ele>
        <time>2019-08-18T06:16:35.000Z</time>
      </trkpt>
      <trkpt lat="43.16253" lon="2.34635">
        <ele>179.5</ele>
        <time>2019-08-18T06:16:36.000Z</time>
      </trkpt>
      <trkpt lat="43.16253" lon="2.34638">
        <ele>179.7</ele>
        <time>2019-08-18T06:16:37.000Z</time>
      </trkpt>
      <trkpt lat="43.16253" lon="2.34642">
        <ele>179.9</ele>
        <time>2019-08-18T06:16:38.000Z</time>
      </trkpt>
      <trkpt lat="43.16254" lon="2.34645">
        <ele>180</ele>
        <time>2019-08-18T06:16:39.000Z</time>
      </trkpt>
      <trkpt lat="43.16254" lon="2.34648">
        <ele>180.2</ele>
        <time>2019-08-18T06:16:40.000Z</time>
      </trkpt>
      <trkpt lat="43.16255" lon="2.34651">
        <ele>180.4</ele>
        <time>2019-08-18T06:16:41.000Z</time>
      </trkpt>
      <trkpt lat="43.16255" lon="2.34654">
        <ele>180.5</ele>
        <time>2019-08-18T06:16:42.000Z</time>
      </trkpt>
      <trkpt lat="43.16255" lon="2.34658">
        <ele>180.7</ele>
        <time>2019-08-18T06:16:43.000Z</time>
      </trkpt>
      <trkpt lat="43.16256" lon="2.34661">
        <ele>180.9</ele>
        <time>2019-08-18T06:16:44.000Z</time>
      </trkpt>
      <trkpt lat="43.16256" lon="2.34664">
        <ele>181</ele>
        <time>2019-08-18T06:16:45.000Z</time>
      </trkpt>
      <trkpt lat="43.16257" lon="2.34667">
        <ele>181.2</ele>
        <time>2019-08-18T06:16:46.000Z</time>
      </trkpt>
      <trkpt lat="43.16258" lon="2.3467">
        <ele>181.2</ele>
        <time>2019-08-18T06:16:47.000Z</time>
      </trkpt>
      <trkpt lat="43.16258" lon="2.34674">
        <ele>181.3</ele>
        <time>2019-08-18T06:16:48.000Z</time>
      </trkpt>
      <trkpt lat="43.16259" lon="2.34677">
        <ele>181.4</ele>
        <time>2019-08-18T06:16:49.000Z</time>
      </trkpt>
      <trkpt lat="43.16259" lon="2.3468">
        <ele>181.4</ele>
        <time>2019-08-18T06:16:50.000Z</time>
      </trkpt>
      <trkpt lat="43.1626" lon="2.34683">
        <ele>181.5</ele>
        <time>2019-08-18T06:16:51.000Z</time>
      </trkpt>
      <trkpt lat="43.16261" lon="2.34686">
        <ele>181.6</ele>
        <time>2019-08-18T06:16:52.000Z</time>
      </trkpt>
      <trkpt lat="43.16261" lon="2.34689">
        <ele>181.6</ele>
        <time>2019-08-18T06:16:53.000Z</time>
      </trkpt>
      <trkpt lat="43.16262" lon="2.34692">
        <ele>181.7</ele>
        <time>2019-08-18T06:16:54.000Z</time>
      </trkpt>
      <trkpt lat="43.16262" lon="2.34695">
        <ele>181.8</ele>
        <time>2019-08-18T06:16:55.000Z</time>
      </trkpt>
      <trkpt lat="43.16263" lon="2.34698">
        <ele>181.9</ele>
        <time>2019-08-18T06:16:56.000Z</time>
      </trkpt>
      <trkpt lat="43.16264" lon="2.34701">
        <ele>181.9</ele>
        <time>2019-08-18T06:16:57.000Z</time>
      </trkpt>
      <trkpt lat="43.16264" lon="2.34704">
        <ele>182</ele>
        <time>2019-08-18T06:16:58.000Z</time>
      </trkpt>
      <trkpt lat="43.16265" lon="2.34707">
        <ele>182.1</ele>
        <time>2019-08-18T06:16:59.000Z</time>
      </trkpt>
      <trkpt lat="43.16265" lon="2.3471">
        <ele>182.2</ele>
        <time>2019-08-18T06:17:00.000Z</time>
      </trkpt>
      <trkpt lat="43.16266" lon="2.34713">
        <ele>182.3</ele>
        <time>2019-08-18T06:17:01.000Z</time>
      </trkpt>
      <trkpt lat="43.16266" lon="2.34716">
        <ele>182.3</ele>
        <time>2019-08-18T06:17:02.000Z</time>
      </trkpt>
      <trkpt lat="43.16267" lon="2.34719">
        <ele>182.4</ele>
        <time>2019-08-18T06:17:03.000Z</time>
      </trkpt>
      <trkpt lat="43.16267" lon="2.34722">
        <ele>182.5</ele>
        <time>2019-08-18T06:17:04.000Z</time>
      </trkpt>
      <trkpt lat="43.16268" lon="2.34725">
        <ele>182.6</ele>
        <time>2019-08-18T06:17:05.000Z</time>
      </trkpt>
      <trkpt lat="43.16269" lon="2.34728">
        <ele>182.7</ele>
        <time>2019-08-18T06:17:06.000Z</time>
      </trkpt>
      <trkpt lat="43.16269" lon="2.34731">
        <ele>182.7</ele>
        <time>2019-08-18T06:17:07.000Z</time>
      </trkpt>
      <trkpt lat="43.1627" lon="2.34734">
        <ele>182.8</ele>
        <time>2019-08-18T06:17:08.000Z</time>
      </trkpt>
      <trkpt lat="43.1627" lon="2.34736">
        <ele>182.9</ele>
        <time>2019-08-18T06:17:09.000Z</time>
      </trkpt>
      <trkpt lat="43.16271" lon="2.34739">
        <ele>183</ele>
        <time>2019-08-18T06:17:10.000Z</time>
      </trkpt>
      <trkpt lat="43.16271" lon="2.34742">
        <ele>183.1</ele>
        <time>2019-08-18T06:17:11.000Z</time>
      </trkpt>
      <trkpt lat="43.16272" lon="2.34745">
        <ele>183.2</ele>
        <time>2019-08-18T06:17:12.000Z</time>
      </trkpt>
      <trkpt lat="43.16272" lon="2.34747">
        <ele>183.3</ele>
        <time>2019-08-18T06:17:13.000Z</time>
      </trkpt>
      <trkpt lat="43.16273" lon="2.3475">
        <ele>183.4</ele>
        <time>2019-08-18T06:17:14.000Z</time>
      </trkpt>
      <trkpt lat="43.16273" lon="2.34753">
        <ele>183.6</ele>
        <time>2019-08-18T06:17:15.000Z</time>
      </trkpt>
      <trkpt lat="43.16274" lon="2.34755">
        <ele>183.8</ele>
        <time>2019-08-18T06:17:16.000Z</time>
      </trkpt>
      <trkpt lat="43.16274" lon="2.34758">
        <ele>184</ele>
        <time>2019-08-18T06:17:17.000Z</time>
      </trkpt>
      <trkpt lat="43.16275" lon="2.3476">
        <ele>184.2</ele>
        <time>2019-08-18T06:17:18.000Z</time>
      </trkpt>
      <trkpt lat="43.16275" lon="2.34763">
        <ele>184.4</ele>
        <time>2019-08-18T06:17:19.000Z</time>
      </trkpt>
      <trkpt lat="43.16275" lon="2.34765">
        <ele>184.6</ele>
        <time>2019-08-18T06:17:20.000Z</time>
      </trkpt>
      <trkpt lat="43.16276" lon="2.34768">
        <ele>184.8</ele>
        <time>2019-08-18T06:17:21.000Z</time>
      </trkpt>
      <trkpt lat="43.16276" lon="2.3477">
        <ele>185</ele>
        <time>2019-08-18T06:17:22.000Z</time>
      </trkpt>
      <trkpt lat="43.16277" lon="2.34772">
        <ele>185.2</ele>
        <time>2019-08-18T06:17:23.000Z</time>
      </trkpt>
      <trkpt lat="43.16277" lon="2.34774">
        <ele>185.4</ele>
        <time>2019-08-18T06:17:24.000Z</time>
      </trkpt>
      <trkpt lat="43.16277" lon="2.34777">
        <ele>185.5</ele>
        <time>2019-08-18T06:17:25.000Z</time>
      </trkpt>
      <trkpt lat="43.16277" lon="2.34779">
        <ele>185.7</ele>
        <time>2019-08-18T06:17:26.000Z</time>
      </trkpt>
      <trkpt lat="43.16277" lon="2.34782">
        <ele>185.9</ele>
        <time>2019-08-18T06:17:27.000Z</time>
      </trkpt>
      <trkpt lat="43.16276" lon="2.34784">
        <ele>186</ele>
        <time>2019-08-18T06:17:28.000Z</time>
      </trkpt>
      <trkpt lat="43.16276" lon="2.34786">
        <ele>186.1</ele>
        <time>2019-08-18T06:17:29.000Z</time>
      </trkpt>
      <trkpt lat="43.16275" lon="2.34788">
        <ele>186.2</ele>
        <time>2019-08-18T06:17:30.000Z</time>
      </trkpt>
      <trkpt lat="43.16274" lon="2.34789">
        <ele>186.2</ele>
        <time>2019-08-18T06:17:31.000Z</time>
      </trkpt>
      <trkpt lat="43.16273" lon="2.34789">
        <ele>186.2</ele>
        <time>2019-08-18T06:17:32.000Z</time>
      </trkpt>
      <trkpt lat="43.16271" lon="2.3479">
        <ele>186.1</ele>
        <time>2019-08-18T06:17:33.000Z</time>
      </trkpt>
      <trkpt lat="43.1627" lon="2.3479">
        <ele>186</ele>
        <time>2019-08-18T06:17:34.000Z</time>
      </trkpt>
      <trkpt lat="43.16268" lon="2.3479">
        <ele>186</ele>
        <time>2019-08-18T06:17:35.000Z</time>
      </trkpt>
      <trkpt lat="43.16266" lon="2.34791">
        <ele>185.9</ele>
        <time>2019-08-18T06:17:36.000Z</time>
      </trkpt>
      <trkpt lat="43.16264" lon="2.34792">
        <ele>185.9</ele>
        <time>2019-08-18T06:17:37.000Z</time>
      </trkpt>
      <trkpt lat="43.16262" lon="2.34793">
        <ele>185.8</ele>
        <time>2019-08-18T06:17:38.000Z</time>
      </trkpt>
      <trkpt lat="43.1626" lon="2.34794">
        <ele>185.8</ele>
        <time>2019-08-18T06:17:39.000Z</time>
      </trkpt>
      <trkpt lat="43.16258" lon="2.34795">
        <ele>185.8</ele>
        <time>2019-08-18T06:17:40.000Z</time>
      </trkpt>
      <trkpt lat="43.16257" lon="2.34796">
        <ele>185.7</ele>
        <time>2019-08-18T06:17:41.000Z</time>
      </trkpt>
      <trkpt lat="43.16256" lon="2.34797">
        <ele>185.7</ele>
        <time>2019-08-18T06:17:42.000Z</time>
      </trkpt>
      <trkpt lat="43.16255" lon="2.34798">
        <ele>185.7</ele>
        <time>2019-08-18T06:17:43.000Z</time>
      </trkpt>
      <trkpt lat="43.16254" lon="2.34799">
        <ele>185.8</ele>
        <time>2019-08-18T06:17:44.000Z</time>
      </trkpt>
      <trkpt lat="43.16253" lon="2.34802">
        <ele>185.9</ele>
        <time>2019-08-18T06:17:45.000Z</time>
      </trkpt>
      <trkpt lat="43.16253" lon="2.34804">
        <ele>186.1</ele>
        <time>2019-08-18T06:17:46.000Z</time>
      </trkpt>
      <trkpt lat="43.16253" lon="2.34806">
        <ele>186.2</ele>
        <time>2019-08-18T06:17:47.000Z</time>
      </trkpt>
      <trkpt lat="43.16253" lon="2.34808">
        <ele>186.4</ele>
        <time>2019-08-18T06:17:48.000Z</time>
      </trkpt>
      <trkpt lat="43.16253" lon="2.34809">
        <ele>186.5</ele>
        <time>2019-08-18T06:17:49.000Z</time>
      </trkpt>
      <trkpt lat="43.16253" lon="2.34811">
        <ele>186.6</ele>
        <time>2019-08-18T06:17:50.000Z</time>
      </trkpt>
      <trkpt lat="43.16253" lon="2.34812">
        <ele>186.6</ele>
        <time>2019-08-18T06:17:51.000Z</time>
      </trkpt>
      <trkpt lat="43.16253" lon="2.34813">
        <ele>186.7</ele>
        <time>2019-08-18T06:17:52.000Z</time>
      </trkpt>
      <trkpt lat="43.16253" lon="2.34814">
        <ele>186.7</ele>
        <time>2019-08-18T06:17:53.000Z</time>
      </trkpt>
      <trkpt lat="43.16252" lon="2.34815">
        <ele>186.8</ele>
        <time>2019-08-18T06:17:54.000Z</time>
      </trkpt>
      <trkpt lat="43.16252" lon="2.34815">
        <ele>186.8</ele>
        <time>2019-08-18T06:17:55.000Z</time>
      </trkpt>
      <trkpt lat="43.16252" lon="2.34816">
        <ele>186.9</ele>
        <time>2019-08-18T06:17:56.000Z</time>
      </trkpt>
      <trkpt lat="43.16251" lon="2.34817">
        <ele>186.9</ele>
        <time>2019-08-18T06:17:57.000Z</time>
      </trkpt>
      <trkpt lat="43.16251" lon="2.34819">
        <ele>187</ele>
        <time>2019-08-18T06:17:58.000Z</time>
      </trkpt>
      <trkpt lat="43.1625" lon="2.3482">
        <ele>187</ele>
        <time>2019-08-18T06:17:59.000Z</time>
      </trkpt>
      <trkpt lat="43.1625" lon="2.34821">
        <ele>187.1</ele>
        <time>2019-08-18T06:18:00.000Z</time>
      </trkpt>
      <trkpt lat="43.1625" lon="2.34822">
        <ele>187.2</ele>
        <time>2019-08-18T06:18:01.000Z</time>
      </trkpt>
      <trkpt lat="43.1625" lon="2.34823">
        <ele>187.2</ele>
        <time>2019-08-18T06:18:02.000Z</time>
      </trkpt>
      <trkpt lat="43.1625" lon="2.34825">
        <ele>187.3</ele>
        <time>2019-08-18T06:18:03.000Z</time>
      </trkpt>
      <trkpt lat="43.16249" lon="2.34826">
        <ele>187.3</ele>
        <time>2019-08-18T06:18:04.000Z</time>
      </trkpt>
      <trkpt lat="43.16249" lon="2.34827">
        <ele>187.4</ele>
        <time>2019-08-18T06:18:05.000Z</time>
      </trkpt>
      <trkpt lat="43.16249" lon="2.34829">
        <ele>187.5</ele>
        <time>2019-08-18T06:18:06.000Z</time>
      </trkpt>
      <trkpt lat="43.16249" lon="2.3483">
        <ele>187.6</ele>
        <time>2019-08-18T06:18:07.000Z</time>
      </trkpt>
      <trkpt lat="43.16249" lon="2.34831">
        <ele>187.7</ele>
        <time>2019-08-18T06:18:08.000Z</time>
      </trkpt>
      <trkpt lat="43.16249" lon="2.34833">
        <ele>187.8</ele>
        <time>2019-08-18T06:18:09.000Z</time>
      </trkpt>
      <trkpt lat="43.16249" lon="2.34835">
        <ele>187.9</ele>
        <time>2019-08-18T06:18:10.000Z</time>
      </trkpt>
      <trkpt lat="43.1625" lon="2.34836">
        <ele>187.9</ele>
        <time>2019-08-18T06:18:11.000Z</time>
      </trkpt>
      <trkpt lat="43.1625" lon="2.34838">
        <ele>188</ele>
        <time>2019-08-18T06:18:12.000Z</time>
      </trkpt>
      <trkpt lat="43.1625" lon="2.3484">
        <ele>188</ele>
        <time>2019-08-18T06:18:13.000Z</time>
      </trkpt>
      <trkpt lat="43.1625" lon="2.34842">
        <ele>188.1</ele>
        <time>2019-08-18T06:18:14.000Z</time>
      </trkpt>
      <trkpt lat="43.1625" lon="2.34844">
        <ele>188.1</ele>
        <time>2019-08-18T06:18:15.000Z</time>
      </trkpt>
      <trkpt lat="43.16251" lon="2.34846">
        <ele>188.2</ele>
        <time>2019-08-18T06:18:16.000Z</time>
      </trkpt>
      <trkpt lat="43.16251" lon="2.34848">
        <ele>188.2</ele>
        <time>2019-08-18T06:18:17.000Z</time>
      </trkpt>
      <trkpt lat="43.16252" lon="2.34851">
        <ele>188.3</ele>
        <time>2019-08-18T06:18:18.000Z</time>
      </trkpt>
      <trkpt lat="43.16253" lon="2.34853">
        <ele>188.4</ele>
        <time>2019-08-18T06:18:19.000Z</time>
      </trkpt>
      <trkpt lat="43.16254" lon="2.34855">
        <ele>188.5</ele>
        <time>2019-08-18T06:18:20.000Z</time>
      </trkpt>
      <trkpt lat="43.16255" lon="2.34857">
        <ele>188.6</ele>
        <time>2019-08-18T06:18:21.000Z</time>
      </trkpt>
      <trkpt lat="43.16256" lon="2.3486">
        <ele>188.7</ele>
        <time>2019-08-18T06:18:22.000Z</time>
      </trkpt>
      <trkpt lat="43.16257" lon="2.34862">
        <ele>188.8</ele>
        <time>2019-08-18T06:18:23.000Z</time>
      </trkpt>
      <trkpt lat="43.16259" lon="2.34864">
        <ele>188.9</ele>
        <time>2019-08-18T06:18:24.000Z</time>
      </trkpt>
      <trkpt lat="43.1626" lon="2.34867">
        <ele>189.1</ele>
        <time>2019-08-18T06:18:25.000Z</time>
      </trkpt>
      <trkpt lat="43.16262" lon="2.34869">
        <ele>189.2</ele>
        <time>2019-08-18T06:18:26.000Z</time>
      </trkpt>
      <trkpt lat="43.16263" lon="2.34872">
        <ele>189.3</ele>
        <time>2019-08-18T06:18:27.000Z</time>
      </trkpt>
      <trkpt lat="43.16265" lon="2.34874">
        <ele>189.5</ele>
        <time>2019-08-18T06:18:28.000Z</time>
      </trkpt>
      <trkpt lat="43.16266" lon="2.34877">
        <ele>189.6</ele>
        <time>2019-08-18T06:18:29.000Z</time>
      </trkpt>
      <trkpt lat="43.16268" lon="2.34879">
        <ele>189.7</ele>
        <time>2019-08-18T06:18:30.000Z</time>
      </trkpt>
      <trkpt lat="43.16269" lon="2.34882">
        <ele>189.9</ele>
        <time>2019-08-18T06:18:31.000Z</time>
      </trkpt>
      <trkpt lat="43.1627" lon="2.34884">
        <ele>190</ele>
        <time>2019-08-18T06:18:32.000Z</time>
      </trkpt>
      <trkpt lat="43.16272" lon="2.34887">
        <ele>190.1</ele>
        <time>2019-08-18T06:18:33.000Z</time>
      </trkpt>
      <trkpt lat="43.16273" lon="2.3489">
        <ele>190.2</ele>
        <time>2019-08-18T06:18:34.000Z</time>
      </trkpt>
      <trkpt lat="43.16274" lon="2.34893">
        <ele>190.3</ele>
        <time>2019-08-18T06:18:35.000Z</time>
      </trkpt>
      <trkpt lat="43.16275" lon="2.34895">
        <ele>190.4</ele>
        <time>2019-08-18T06:18:36.000Z</time>
      </trkpt>
      <trkpt lat="43.16275" lon="2.34898">
        <ele>190.5</ele>
        <time>2019-08-18T06:18:37.000Z</time>
      </trkpt>
      <trkpt lat="43.16276" lon="2.34902">
        <ele>190.6</ele>
        <time>2019-08-18T06:18:38.000Z</time>
      </trkpt>
      <trkpt lat="43.16277" lon="2.34905">
        <ele>190.7</ele>
        <time>2019-08-18T06:18:39.000Z</time>
      </trkpt>
      <trkpt lat="43.16277" lon="2.34908">
        <ele>190.8</ele>
        <time>2019-08-18T06:18:40.000Z</time>
      </trkpt>
      <trkpt lat="43.16278" lon="2.34912">
        <ele>190.9</ele>
        <time>2019-08-18T06:18:41.000Z</time>
      </trkpt>
      <trkpt lat="43.16278" lon="2.34916">
        <ele>191</ele>
        <time>2019-08-18T06:18:42.000Z</time>
      </trkpt>
      <trkpt lat="43.16279" lon="2.34919">
        <ele>191</ele>
        <time>2019-08-18T06:18:43.000Z</time>
      </trkpt>
      <trkpt lat="43.16279" lon="2.34923">
        <ele>190.9</ele>
        <time>2019-08-18T06:18:44.000Z</time>
      </trkpt>
      <trkpt lat="43.1628" lon="2.34927">
        <ele>190.8</ele>
        <time>2019-08-18T06:18:45.000Z</time>
      </trkpt>
      <trkpt lat="43.1628" lon="2.3493">
        <ele>190.7</ele>
        <time>2019-08-18T06:18:46.000Z</time>
      </trkpt>
      <trkpt lat="43.1628" lon="2.34934">
        <ele>190.5</ele>
        <time>2019-08-18T06:18:47.000Z</time>
      </trkpt>
      <trkpt lat="43.1628" lon="2.34937">
        <ele>190.4</ele>
        <time>2019-08-18T06:18:48.000Z</time>
      </trkpt>
      <trkpt lat="43.1628" lon="2.3494">
        <ele>190.3</ele>
        <time>2019-08-18T06:18:49.000Z</time>
      </trkpt>
      <trkpt lat="43.1628" lon="2.34944">
        <ele>190.2</ele>
        <time>2019-08-18T06:18:50.000Z</time>
      </trkpt>
      <trkpt lat="43.1628" lon="2.34947">
        <ele>190.1</ele>
        <time>2019-08-18T06:18:51.000Z</time>
      </trkpt>
      <trkpt lat="43.16279" lon="2.3495">
        <ele>189.9</ele>
        <time>2019-08-18T06:18:52.000Z</time>
      </trkpt>
      <trkpt lat="43.16279" lon="2.34953">
        <ele>189.8</ele>
        <time>2019-08-18T06:18:53.000Z</time>
      </trkpt>
      <trkpt lat="43.16279" lon="2.34956">
        <ele>189.7</ele>
        <time>2019-08-18T06:18:54.000Z</time>
      </trkpt>
      <trkpt lat="43.16279" lon="2.34959">
        <ele>189.5</ele>
        <time>2019-08-18T06:18:55.000Z</time>
      </trkpt>
      <trkpt lat="43.16278" lon="2.34963">
        <ele>189.4</ele>
        <time>2019-08-18T06:18:56.000Z</time>
      </trkpt>
      <trkpt lat="43.16278" lon="2.34966">
        <ele>189.3</ele>
        <time>2019-08-18T06:18:57.000Z</time>
      </trkpt>
      <trkpt lat="43.16278" lon="2.34969">
        <ele>189.1</ele>
        <time>2019-08-18T06:18:58.000Z</time>
      </trkpt>
      <trkpt lat="43.16278" lon="2.34973">
        <ele>189</ele>
        <time>2019-08-18T06:18:59.000Z</time>
      </trkpt>
      <trkpt lat="43.16278" lon="2.34976">
        <ele>188.9</ele>
        <time>2019-08-18T06:19:00.000Z</time>
      </trkpt>
      <trkpt lat="43.16278" lon="2.3498">
        <ele>188.8</ele>
        <time>2019-08-18T06:19:01.000Z</time>
      </trkpt>
      <trkpt lat="43.16278" lon="2.34983">
        <ele>188.6</ele>
        <time>2019-08-18T06:19:02.000Z</time>
      </trkpt>
      <trkpt lat="43.16278" lon="2.34987">
        <ele>188.5</ele>
        <time>2019-08-18T06:19:03.000Z</time>
      </trkpt>
      <trkpt lat="43.16279" lon="2.3499">
        <ele>188.4</ele>
        <time>2019-08-18T06:19:04.000Z</time>
      </trkpt>
      <trkpt lat="43.16279" lon="2.34994">
        <ele>188.3</ele>
        <time>2019-08-18T06:19:05.000Z</time>
      </trkpt>
      <trkpt lat="43.16279" lon="2.34997">
        <ele>188.3</ele>
        <time>2019-08-18T06:19:06.000Z</time>
      </trkpt>
      <trkpt lat="43.16279" lon="2.35">
        <ele>188.2</ele>
        <time>2019-08-18T06:19:07.000Z</time>
      </trkpt>
      <trkpt lat="43.1628" lon="2.35003">
        <ele>188.2</ele>
        <time>2019-08-18T06:19:08.000Z</time>
      </trkpt>
      <trkpt lat="43.1628" lon="2.35005">
        <ele>188.2</ele>
        <time>2019-08-18T06:19:09.000Z</time>
      </trkpt>
      <trkpt lat="43.1628" lon="2.35007">
        <ele>188.2</ele>
        <time>2019-08-18T06:19:10.000Z</time>
      </trkpt>
      <trkpt lat="43.1628" lon="2.35009">
        <ele>188.2</ele>
        <time>2019-08-18T06:19:11.000Z</time>
      </trkpt>
      <trkpt lat="43.16281" lon="2.35011">
        <ele>188.2</ele>
        <time>2019-08-18T06:19:12.000Z</time>
      </trkpt>
      <trkpt lat="43.16281" lon="2.35013">
        <ele>188.2</ele>
        <time>2019-08-18T06:19:13.000Z</time>
      </trkpt>
      <trkpt lat="43.16281" lon="2.35015">
        <ele>188.2</ele>
        <time>2019-08-18T06:19:14.000Z</time>
      </trkpt>
      <trkpt lat="43.16281" lon="2.35017">
        <ele>188.2</ele>
        <time>2019-08-18T06:19:15.000Z</time>
      </trkpt>
      <trkpt lat="43.16281" lon="2.35019">
        <ele>188.1</ele>
        <time>2019-08-18T06:19:16.000Z</time>
      </trkpt>
      <trkpt lat="43.16281" lon="2.35021">
        <ele>188.1</ele>
        <time>2019-08-18T06:19:17.000Z</time>
      </trkpt>
      <trkpt lat="43.16281" lon="2.35023">
        <ele>188.1</ele>
        <time>2019-08-18T06:19:18.000Z</time>
      </trkpt>
      <trkpt lat="43.16281" lon="2.35025">
        <ele>188.1</ele>
        <time>2019-08-18T06:19:19.000Z</time>
      </trkpt>
      <trkpt lat="43.16281" lon="2.35027">
        <ele>188.1</ele>
        <time>2019-08-18T06:19:20.000Z</time>
      </trkpt>
      <trkpt lat="43.16281" lon="2.3503">
        <ele>188.1</ele>
        <time>2019-08-18T06:19:21.000Z</time>
      </trkpt>
      <trkpt lat="43.16282" lon="2.35032">
        <ele>188.1</ele>
        <time>2019-08-18T06:19:22.000Z</time>
      </trkpt>
      <trkpt lat="43.16282" lon="2.35035">
        <ele>188.1</ele>
        <time>2019-08-18T06:19:23.000Z</time>
      </trkpt>
      <trkpt lat="43.16282" lon="2.35037">
        <ele>188.1</ele>
        <time>2019-08-18T06:19:24.000Z</time>
      </trkpt>
      <trkpt lat="43.16282" lon="2.3504">
        <ele>188.1</ele>
        <time>2019-08-18T06:19:25.000Z</time>
      </trkpt>
      <trkpt lat="43.16282" lon="2.35043">
        <ele>188.1</ele>
        <time>2019-08-18T06:19:26.000Z</time>
      </trkpt>
      <trkpt lat="43.16283" lon="2.35045">
        <ele>188.1</ele>
        <time>2019-08-18T06:19:27.000Z</time>
      </trkpt>
      <trkpt lat="43.16283" lon="2.35048">
        <ele>188.1</ele>
        <time>2019-08-18T06:19:28.000Z</time>
      </trkpt>
      <trkpt lat="43.16283" lon="2.3505">
        <ele>188.1</ele>
        <time>2019-08-18T06:19:29.000Z</time>
      </trkpt>
      <trkpt lat="43.16283" lon="2.35053">
        <ele>188.1</ele>
        <time>2019-08-18T06:19:30.000Z</time>
      </trkpt>
      <trkpt lat="43.16284" lon="2.35055">
        <ele>188.1</ele>
        <time>2019-08-18T06:19:31.000Z</time>
      </trkpt>
      <trkpt lat="43.16284" lon="2.35058">
        <ele>188.1</ele>
        <time>2019-08-18T06:19:32.000Z</time>
      </trkpt>
      <trkpt lat="43.16284" lon="2.3506">
        <ele>188.1</ele>
        <time>2019-08-18T06:19:33.000Z</time>
      </trkpt>
      <trkpt lat="43.16285" lon="2.35063">
        <ele>188.2</ele>
        <time>2019-08-18T06:19:34.000Z</time>
      </trkpt>
      <trkpt lat="43.16285" lon="2.35065">
        <ele>188.2</ele>
        <time>2019-08-18T06:19:35.000Z</time>
      </trkpt>
      <trkpt lat="43.16286" lon="2.35067">
        <ele>188.3</ele>
        <time>2019-08-18T06:19:36.000Z</time>
      </trkpt>
      <trkpt lat="43.16287" lon="2.3507">
        <ele>188.4</ele>
        <time>2019-08-18T06:19:37.000Z</time>
      </trkpt>
      <trkpt lat="43.16288" lon="2.35073">
        <ele>188.5</ele>
        <time>2019-08-18T06:19:38.000Z</time>
      </trkpt>
      <trkpt lat="43.16289" lon="2.35075">
        <ele>188.7</ele>
        <time>2019-08-18T06:19:39.000Z</time>
      </trkpt>
      <trkpt lat="43.1629" lon="2.35078">
        <ele>188.8</ele>
        <time>2019-08-18T06:19:40.000Z</time>
      </trkpt>
      <trkpt lat="43.16291" lon="2.3508">
        <ele>189</ele>
        <time>2019-08-18T06:19:41.000Z</time>
      </trkpt>
      <trkpt lat="43.16292" lon="2.35083">
        <ele>189.1</ele>
        <time>2019-08-18T06:19:42.000Z</time>
      </trkpt>
      <trkpt lat="43.16293" lon="2.35085">
        <ele>189.3</ele>
        <time>2019-08-18T06:19:43.000Z</time>
      </trkpt>
      <trkpt lat="43.16294" lon="2.35088">
        <ele>189.5</ele>
        <time>2019-08-18T06:19:44.000Z</time>
      </trkpt>
      <trkpt lat="43.16295" lon="2.3509">
        <ele>189.6</ele>
        <time>2019-08-18T06:19:45.000Z</time>
      </trkpt>
      <trkpt lat="43.16296" lon="2.35092">
        <ele>189.8</ele>
        <time>2019-08-18T06:19:46.000Z</time>
      </trkpt>
      <trkpt lat="43.16297" lon="2.35094">
        <ele>190</ele>
        <time>2019-08-18T06:19:47.000Z</time>
      </trkpt>
      <trkpt lat="43.16298" lon="2.35097">
        <ele>190.2</ele>
        <time>2019-08-18T06:19:48.000Z</time>
      </trkpt>
      <trkpt lat="43.16299" lon="2.35099">
        <ele>190.3</ele>
        <time>2019-08-18T06:19:49.000Z</time>
      </trkpt>
      <trkpt lat="43.163" lon="2.35101">
        <ele>190.5</ele>
        <time>2019-08-18T06:19:50.000Z</time>
      </trkpt>
      <trkpt lat="43.16301" lon="2.35103">
        <ele>190.7</ele>
        <time>2019-08-18T06:19:51.000Z</time>
      </trkpt>
      <trkpt lat="43.16301" lon="2.35105">
        <ele>190.8</ele>
        <time>2019-08-18T06:19:52.000Z</time>
      </trkpt>
      <trkpt lat="43.16302" lon="2.35107">
        <ele>190.9</ele>
        <time>2019-08-18T06:19:53.000Z</time>
      </trkpt>
      <trkpt lat="43.16303" lon="2.35108">
        <ele>191.1</ele>
        <time>2019-08-18T06:19:54.000Z</time>
      </trkpt>
      <trkpt lat="43.16303" lon="2.3511">
        <ele>191.2</ele>
        <time>2019-08-18T06:19:55.000Z</time>
      </trkpt>
      <trkpt lat="43.16304" lon="2.35111">
        <ele>191.3</ele>
        <time>2019-08-18T06:19:56.000Z</time>
      </trkpt>
      <trkpt lat="43.16305" lon="2.35113">
        <ele>191.4</ele>
        <time>2019-08-18T06:19:57.000Z</time>
      </trkpt>
      <trkpt lat="43.16305" lon="2.35114">
        <ele>191.6</ele>
        <time>2019-08-18T06:19:58.000Z</time>
      </trkpt>
      <trkpt lat="43.16306" lon="2.35116">
        <ele>191.7</ele>
        <time>2019-08-18T06:19:59.000Z</time>
      </trkpt>
      <trkpt lat="43.16306" lon="2.35118">
        <ele>191.8</ele>
        <time>2019-08-18T06:20:00.000Z</time>
      </trkpt>
      <trkpt lat="43.16306" lon="2.35121">
        <ele>191.9</ele>
        <time>2019-08-18T06:20:01.000Z</time>
      </trkpt>
      <trkpt lat="43.16307" lon="2.35123">
        <ele>192</ele>
        <time>2019-08-18T06:20:02.000Z</time>
      </trkpt>
      <trkpt lat="43.16307" lon="2.35126">
        <ele>192.1</ele>
        <time>2019-08-18T06:20:03.000Z</time>
      </trkpt>
      <trkpt lat="43.16307" lon="2.35129">
        <ele>192.1</ele>
        <time>2019-08-18T06:20:04.000Z</time>
      </trkpt>
      <trkpt lat="43.16307" lon="2.35132">
        <ele>192.2</ele>
        <time>2019-08-18T06:20:05.000Z</time>
      </trkpt>
      <trkpt lat="43.16307" lon="2.35135">
        <ele>192.3</ele>
        <time>2019-08-18T06:20:06.000Z</time>
      </trkpt>
      <trkpt lat="43.16307" lon="2.35137">
        <ele>192.3</ele>
        <time>2019-08-18T06:20:07.000Z</time>
      </trkpt>
      <trkpt lat="43.16307" lon="2.3514">
        <ele>192.4</ele>
        <time>2019-08-18T06:20:08.000Z</time>
      </trkpt>
      <trkpt lat="43.16307" lon="2.35143">
        <ele>192.4</ele>
        <time>2019-08-18T06:20:09.000Z</time>
      </trkpt>
      <trkpt lat="43.16307" lon="2.35145">
        <ele>192.5</ele>
        <time>2019-08-18T06:20:10.000Z</time>
      </trkpt>
      <trkpt lat="43.16307" lon="2.35148">
        <ele>192.6</ele>
        <time>2019-08-18T06:20:11.000Z</time>
      </trkpt>
      <trkpt lat="43.16308" lon="2.35151">
        <ele>192.7</ele>
        <time>2019-08-18T06:20:12.000Z</time>
      </trkpt>
      <trkpt lat="43.16308" lon="2.35154">
        <ele>192.8</ele>
        <time>2019-08-18T06:20:13.000Z</time>
      </trkpt>
      <trkpt lat="43.16308" lon="2.35157">
        <ele>192.9</ele>
        <time>2019-08-18T06:20:14.000Z</time>
      </trkpt>
      <trkpt lat="43.16309" lon="2.3516">
        <ele>193</ele>
        <time>2019-08-18T06:20:15.000Z</time>
      </trkpt>
      <trkpt lat="43.1631" lon="2.35163">
        <ele>193.2</ele>
        <time>2019-08-18T06:20:16.000Z</time>
      </trkpt>
      <trkpt lat="43.1631" lon="2.35166">
        <ele>193.4</ele>
        <time>2019-08-18T06:20:17.000Z</time>
      </trkpt>
      <trkpt lat="43.16311" lon="2.35169">
        <ele>193.5</ele>
        <time>2019-08-18T06:20:18.000Z</time>
      </trkpt>
      <trkpt lat="43.16312" lon="2.35172">
        <ele>193.7</ele>
        <time>2019-08-18T06:20:19.000Z</time>
      </trkpt>
      <trkpt lat="43.16313" lon="2.35175">
        <ele>193.8</ele>
        <time>2019-08-18T06:20:20.000Z</time>
      </trkpt>
      <trkpt lat="43.16314" lon="2.35177">
        <ele>194</ele>
        <time>2019-08-18T06:20:21.000Z</time>
      </trkpt>
      <trkpt lat="43.16315" lon="2.3518">
        <ele>194.2</ele>
        <time>2019-08-18T06:20:22.000Z</time>
      </trkpt>
      <trkpt lat="43.16316" lon="2.35183">
        <ele>194.3</ele>
        <time>2019-08-18T06:20:23.000Z</time>
      </trkpt>
      <trkpt lat="43.16317" lon="2.35185">
        <ele>194.5</ele>
        <time>2019-08-18T06:20:24.000Z</time>
      </trkpt>
      <trkpt lat="43.16318" lon="2.35187">
        <ele>194.7</ele>
        <time>2019-08-18T06:20:25.000Z</time>
      </trkpt>
      <trkpt lat="43.16319" lon="2.35188">
        <ele>194.9</ele>
        <time>2019-08-18T06:20:26.000Z</time>
      </trkpt>
      <trkpt lat="43.1632" lon="2.3519">
        <ele>195.1</ele>
        <time>2019-08-18T06:20:27.000Z</time>
      </trkpt>
      <trkpt lat="43.16321" lon="2.35191">
        <ele>195.2</ele>
        <time>2019-08-18T06:20:28.000Z</time>
      </trkpt>
      <trkpt lat="43.16323" lon="2.35192">
        <ele>195.4</ele>
        <time>2019-08-18T06:20:29.000Z</time>
      </trkpt>
      <trkpt lat="43.16324" lon="2.35192">
        <ele>195.5</ele>
        <time>2019-08-18T06:20:30.000Z</time>
      </trkpt>
      <trkpt lat="43.16325" lon="2.35193">
        <ele>195.7</ele>
        <time>2019-08-18T06:20:31.000Z</time>
      </trkpt>
      <trkpt lat="43.16325" lon="2.35193">
        <ele>195.8</ele>
        <time>2019-08-18T06:20:32.000Z</time>
      </trkpt>
      <trkpt lat="43.16326" lon="2.35193">
        <ele>196</ele>
        <time>2019-08-18T06:20:33.000Z</time>
      </trkpt>
      <trkpt lat="43.16327" lon="2.35194">
        <ele>196.1</ele>
        <time>2019-08-18T06:20:34.000Z</time>
      </trkpt>
      <trkpt lat="43.16328" lon="2.35194">
        <ele>196.2</ele>
        <time>2019-08-18T06:20:35.000Z</time>
      </trkpt>
      <trkpt lat="43.16329" lon="2.35194">
        <ele>196.3</ele>
        <time>2019-08-18T06:20:36.000Z</time>
      </trkpt>
      <trkpt lat="43.16329" lon="2.35194">
        <ele>196.4</ele>
        <time>2019-08-18T06:20:37.000Z</time>
      </trkpt>
      <trkpt lat="43.1633" lon="2.35195">
        <ele>196.5</ele>
        <time>2019-08-18T06:20:38.000Z</time>
      </trkpt>
      <trkpt lat="43.16331" lon="2.35195">
        <ele>196.6</ele>
        <time>2019-08-18T06:20:39.000Z</time>
      </trkpt>
      <trkpt lat="43.16331" lon="2.35196">
        <ele>196.7</ele>
        <time>2019-08-18T06:20:40.000Z</time>
      </trkpt>
      <trkpt lat="43.16332" lon="2.35197">
        <ele>196.8</ele>
        <time>2019-08-18T06:20:41.000Z</time>
      </trkpt>
      <trkpt lat="43.16333" lon="2.35198">
        <ele>196.9</ele>
        <time>2019-08-18T06:20:42.000Z</time>
      </trkpt>
      <trkpt lat="43.16333" lon="2.352">
        <ele>197</ele>
        <time>2019-08-18T06:20:43.000Z</time>
      </trkpt>
      <trkpt lat="43.16334" lon="2.35202">
        <ele>197</ele>
        <time>2019-08-18T06:20:44.000Z</time>
      </trkpt>
      <trkpt lat="43.16335" lon="2.35203">
        <ele>196.9</ele>
        <time>2019-08-18T06:20:45.000Z</time>
      </trkpt>
      <trkpt lat="43.16335" lon="2.35205">
        <ele>196.9</ele>
        <time>2019-08-18T06:20:46.000Z</time>
      </trkpt>
      <trkpt lat="43.16335" lon="2.35207">
        <ele>196.9</ele>
        <time>2019-08-18T06:20:47.000Z</time>
      </trkpt>
      <trkpt lat="43.16336" lon="2.3521">
        <ele>196.9</ele>
        <time>2019-08-18T06:20:48.000Z</time>
      </trkpt>
      <trkpt lat="43.16336" lon="2.35212">
        <ele>196.8</ele>
        <time>2019-08-18T06:20:49.000Z</time>
      </trkpt>
      <trkpt lat="43.16336" lon="2.35214">
        <ele>196.8</ele>
        <time>2019-08-18T06:20:50.000Z</time>
      </trkpt>
      <trkpt lat="43.16336" lon="2.35217">
        <ele>196.8</ele>
        <time>2019-08-18T06:20:51.000Z</time>
      </trkpt>
      <trkpt lat="43.16337" lon="2.35219">
        <ele>196.8</ele>
        <time>2019-08-18T06:20:52.000Z</time>
      </trkpt>
      <trkpt lat="43.16337" lon="2.35221">
        <ele>196.8</ele>
        <time>2019-08-18T06:20:53.000Z</time>
      </trkpt>
      <trkpt lat="43.16337" lon="2.35224">
        <ele>196.7</ele>
        <time>2019-08-18T06:20:54.000Z</time>
      </trkpt>
      <trkpt lat="43.16338" lon="2.35226">
        <ele>196.7</ele>
        <time>2019-08-18T06:20:55.000Z</time>
      </trkpt>
      <trkpt lat="43.16338" lon="2.35229">
        <ele>196.7</ele>
        <time>2019-08-18T06:20:56.000Z</time>
      </trkpt>
      <trkpt lat="43.16339" lon="2.35231">
        <ele>196.6</ele>
        <time>2019-08-18T06:20:57.000Z</time>
      </trkpt>
      <trkpt lat="43.16339" lon="2.35234">
        <ele>196.6</ele>
        <time>2019-08-18T06:20:58.000Z</time>
      </trkpt>
      <trkpt lat="43.1634" lon="2.35236">
        <ele>196.5</ele>
        <time>2019-08-18T06:20:59.000Z</time>
      </trkpt>
      <trkpt lat="43.1634" lon="2.35239">
        <ele>196.5</ele>
        <time>2019-08-18T06:21:00.000Z</time>
      </trkpt>
      <trkpt lat="43.16341" lon="2.35241">
        <ele>196.4</ele>
        <time>2019-08-18T06:21:01.000Z</time>
      </trkpt>
      <trkpt lat="43.16342" lon="2.35244">
        <ele>196.3</ele>
        <time>2019-08-18T06:21:02.000Z</time>
      </trkpt>
      <trkpt lat="43.16342" lon="2.35246">
        <ele>196.3</ele>
        <time>2019-08-18T06:21:03.000Z</time>
      </trkpt>
      <trkpt lat="43.16343" lon="2.35249">
        <ele>196.2</ele>
        <time>2019-08-18T06:21:04.000Z</time>
      </trkpt>
      <trkpt lat="43.16344" lon="2.35252">
        <ele>196.1</ele>
        <time>2019-08-18T06:21:05.000Z</time>
      </trkpt>
      <trkpt lat="43.16345" lon="2.35254">
        <ele>196.1</ele>
        <time>2019-08-18T06:21:06.000Z</time>
      </trkpt>
      <trkpt lat="43.16346" lon="2.35257">
        <ele>196</ele>
        <time>2019-08-18T06:21:07.000Z</time>
      </trkpt>
      <trkpt lat="43.16347" lon="2.3526">
        <ele>195.9</ele>
        <time>2019-08-18T06:21:08.000Z</time>
      </trkpt>
      <trkpt lat="43.16348" lon="2.35263">
        <ele>195.8</ele>
        <time>2019-08-18T06:21:09.000Z</time>
      </trkpt>
      <trkpt lat="43.1635" lon="2.35265">
        <ele>195.7</ele>
        <time>2019-08-18T06:21:10.000Z</time>
      </trkpt>
      <trkpt lat="43.16351" lon="2.35268">
        <ele>195.5</ele>
        <time>2019-08-18T06:21:11.000Z</time>
      </trkpt>
      <trkpt lat="43.16352" lon="2.35271">
        <ele>195.4</ele>
        <time>2019-08-18T06:21:12.000Z</time>
      </trkpt>
      <trkpt lat="43.16354" lon="2.35274">
        <ele>195.3</ele>
        <time>2019-08-18T06:21:13.000Z</time>
      </trkpt>
      <trkpt lat="43.16355" lon="2.35277">
        <ele>195.2</ele>
        <time>2019-08-18T06:21:14.000Z</time>
      </trkpt>
      <trkpt lat="43.16355" lon="2.3528">
        <ele>195.1</ele>
        <time>2019-08-18T06:21:15.000Z</time>
      </trkpt>
      <trkpt lat="43.16356" lon="2.35283">
        <ele>195.1</ele>
        <time>2019-08-18T06:21:16.000Z</time>
      </trkpt>
      <trkpt lat="43.16356" lon="2.35286">
        <ele>195.1</ele>
        <time>2019-08-18T06:21:17.000Z</time>
      </trkpt>
      <trkpt lat="43.16356" lon="2.3529">
        <ele>195</ele>
        <time>2019-08-18T06:21:18.000Z</time>
      </trkpt>
      <trkpt lat="43.16356" lon="2.35293">
        <ele>195</ele>
        <time>2019-08-18T06:21:19.000Z</time>
      </trkpt>
      <trkpt lat="43.16356" lon="2.35297">
        <ele>195</ele>
        <time>2019-08-18T06:21:20.000Z</time>
      </trkpt>
      <trkpt lat="43.16356" lon="2.353">
        <ele>195</ele>
        <time>2019-08-18T06:21:21.000Z</time>
      </trkpt>
      <trkpt lat="43.16356" lon="2.35303">
        <ele>195</ele>
        <time>2019-08-18T06:21:22.000Z</time>
      </trkpt>
      <trkpt lat="43.16356" lon="2.35307">
        <ele>195</ele>
        <time>2019-08-18T06:21:23.000Z</time>
      </trkpt>
      <trkpt lat="43.16356" lon="2.3531">
        <ele>195</ele>
        <time>2019-08-18T06:21:24.000Z</time>
      </trkpt>
      <trkpt lat="43.16356" lon="2.35313">
        <ele>195</ele>
        <time>2019-08-18T06:21:25.000Z</time>
      </trkpt>
      <trkpt lat="43.16356" lon="2.35317">
        <ele>195</ele>
        <time>2019-08-18T06:21:26.000Z</time>
      </trkpt>
      <trkpt lat="43.16357" lon="2.3532">
        <ele>195</ele>
        <time>2019-08-18T06:21:27.000Z</time>
      </trkpt>
      <trkpt lat="43.16357" lon="2.35323">
        <ele>194.9</ele>
        <time>2019-08-18T06:21:28.000Z</time>
      </trkpt>
      <trkpt lat="43.16357" lon="2.35327">
        <ele>194.9</ele>
        <time>2019-08-18T06:21:29.000Z</time>
      </trkpt>
      <trkpt lat="43.16357" lon="2.3533">
        <ele>194.9</ele>
        <time>2019-08-18T06:21:30.000Z</time>
      </trkpt>
      <trkpt lat="43.16357" lon="2.35333">
        <ele>194.9</ele>
        <time>2019-08-18T06:21:31.000Z</time>
      </trkpt>
      <trkpt lat="43.16357" lon="2.35337">
        <ele>194.9</ele>
        <time>2019-08-18T06:21:32.000Z</time>
      </trkpt>
      <trkpt lat="43.16357" lon="2.3534">
        <ele>194.8</ele>
        <time>2019-08-18T06:21:33.000Z</time>
      </trkpt>
      <trkpt lat="43.16356" lon="2.35344">
        <ele>194.7</ele>
        <time>2019-08-18T06:21:34.000Z</time>
      </trkpt>
      <trkpt lat="43.16356" lon="2.35347">
        <ele>194.7</ele>
        <time>2019-08-18T06:21:35.000Z</time>
      </trkpt>
      <trkpt lat="43.16356" lon="2.3535">
        <ele>194.7</ele>
        <time>2019-08-18T06:21:36.000Z</time>
      </trkpt>
      <trkpt lat="43.16356" lon="2.35354">
        <ele>194.6</ele>
        <time>2019-08-18T06:21:37.000Z</time>
      </trkpt>
      <trkpt lat="43.16355" lon="2.35357">
        <ele>194.6</ele>
        <time>2019-08-18T06:21:38.000Z</time>
      </trkpt>
      <trkpt lat="43.16355" lon="2.35361">
        <ele>194.6</ele>
        <time>2019-08-18T06:21:39.000Z</time>
      </trkpt>
      <trkpt lat="43.16354" lon="2.35364">
        <ele>194.6</ele>
        <time>2019-08-18T06:21:40.000Z</time>
      </trkpt>
      <trkpt lat="43.16354" lon="2.35368">
        <ele>194.6</ele>
        <time>2019-08-18T06:21:41.000Z</time>
      </trkpt>
      <trkpt lat="43.16353" lon="2.35371">
        <ele>194.6</ele>
        <time>2019-08-18T06:21:42.000Z</time>
      </trkpt>
      <trkpt lat="43.16353" lon="2.35375">
        <ele>194.6</ele>
        <time>2019-08-18T06:21:43.000Z</time>
      </trkpt>
      <trkpt lat="43.16352" lon="2.35378">
        <ele>194.6</ele>
        <time>2019-08-18T06:21:44.000Z</time>
      </trkpt>
      <trkpt lat="43.16351" lon="2.35382">
        <ele>194.6</ele>
        <time>2019-08-18T06:21:45.000Z</time>
      </trkpt>
      <trkpt lat="43.16351" lon="2.35385">
        <ele>194.6</ele>
        <time>2019-08-18T06:21:46.000Z</time>
      </trkpt>
      <trkpt lat="43.1635" lon="2.35388">
        <ele>194.6</ele>
        <time>2019-08-18T06:21:47.000Z</time>
      </trkpt>
      <trkpt lat="43.16349" lon="2.35392">
        <ele>194.7</ele>
        <time>2019-08-18T06:21:48.000Z</time>
      </trkpt>
      <trkpt lat="43.16348" lon="2.35395">
        <ele>194.7</ele>
        <time>2019-08-18T06:21:49.000Z</time>
      </trkpt>
      <trkpt lat="43.16347" lon="2.35398">
        <ele>194.8</ele>
        <time>2019-08-18T06:21:50.000Z</time>
      </trkpt>
      <trkpt lat="43.16346" lon="2.35401">
        <ele>194.8</ele>
        <time>2019-08-18T06:21:51.000Z</time>
      </trkpt>
      <trkpt lat="43.16345" lon="2.35404">
        <ele>194.9</ele>
        <time>2019-08-18T06:21:52.000Z</time>
      </trkpt>
      <trkpt lat="43.16344" lon="2.35407">
        <ele>194.9</ele>
        <time>2019-08-18T06:21:53.000Z</time>
      </trkpt>
      <trkpt lat="43.16343" lon="2.3541">
        <ele>194.9</ele>
        <time>2019-08-18T06:21:54.000Z</time>
      </trkpt>
      <trkpt lat="43.16342" lon="2.35413">
        <ele>195</ele>
        <time>2019-08-18T06:21:55.000Z</time>
      </trkpt>
      <trkpt lat="43.16341" lon="2.35416">
        <ele>195</ele>
        <time>2019-08-18T06:21:56.000Z</time>
      </trkpt>
      <trkpt lat="43.16341" lon="2.35419">
        <ele>195</ele>
        <time>2019-08-18T06:21:57.000Z</time>
      </trkpt>
      <trkpt lat="43.1634" lon="2.35422">
        <ele>195</ele>
        <time>2019-08-18T06:21:58.000Z</time>
      </trkpt>
      <trkpt lat="43.16339" lon="2.35424">
        <ele>195</ele>
        <time>2019-08-18T06:21:59.000Z</time>
      </trkpt>
      <trkpt lat="43.16338" lon="2.35427">
        <ele>195</ele>
        <time>2019-08-18T06:22:00.000Z</time>
      </trkpt>
      <trkpt lat="43.16337" lon="2.3543">
        <ele>195</ele>
        <time>2019-08-18T06:22:01.000Z</time>
      </trkpt>
      <trkpt lat="43.16336" lon="2.35432">
        <ele>195</ele>
        <time>2019-08-18T06:22:02.000Z</time>
      </trkpt>
      <trkpt lat="43.16334" lon="2.35434">
        <ele>195.1</ele>
        <time>2019-08-18T06:22:03.000Z</time>
      </trkpt>
      <trkpt lat="43.16333" lon="2.35436">
        <ele>195.1</ele>
        <time>2019-08-18T06:22:04.000Z</time>
      </trkpt>
      <trkpt lat="43.16331" lon="2.35438">
        <ele>195.1</ele>
        <time>2019-08-18T06:22:05.000Z</time>
      </trkpt>
      <trkpt lat="43.16328" lon="2.35439">
        <ele>195</ele>
        <time>2019-08-18T06:22:06.000Z</time>
      </trkpt>
      <trkpt lat="43.16326" lon="2.35441">
        <ele>195.1</ele>
        <time>2019-08-18T06:22:07.000Z</time>
      </trkpt>
      <trkpt lat="43.16323" lon="2.35442">
        <ele>195.1</ele>
        <time>2019-08-18T06:22:08.000Z</time>
      </trkpt>
      <trkpt lat="43.1632" lon="2.35443">
        <ele>195.1</ele>
        <time>2019-08-18T06:22:09.000Z</time>
      </trkpt>
      <trkpt lat="43.16318" lon="2.35444">
        <ele>195.2</ele>
        <time>2019-08-18T06:22:10.000Z</time>
      </trkpt>
      <trkpt lat="43.16315" lon="2.35445">
        <ele>195.2</ele>
        <time>2019-08-18T06:22:11.000Z</time>
      </trkpt>
      <trkpt lat="43.16312" lon="2.35446">
        <ele>195.3</ele>
        <time>2019-08-18T06:22:12.000Z</time>
      </trkpt>
      <trkpt lat="43.1631" lon="2.35447">
        <ele>195.4</ele>
        <time>2019-08-18T06:22:13.000Z</time>
      </trkpt>
      <trkpt lat="43.16307" lon="2.35448">
        <ele>195.4</ele>
        <time>2019-08-18T06:22:14.000Z</time>
      </trkpt>
      <trkpt lat="43.16305" lon="2.3545">
        <ele>195.5</ele>
        <time>2019-08-18T06:22:15.000Z</time>
      </trkpt>
      <trkpt lat="43.16303" lon="2.35451">
        <ele>195.6</ele>
        <time>2019-08-18T06:22:16.000Z</time>
      </trkpt>
      <trkpt lat="43.16301" lon="2.35452">
        <ele>195.6</ele>
        <time>2019-08-18T06:22:17.000Z</time>
      </trkpt>
      <trkpt lat="43.16299" lon="2.35454">
        <ele>195.7</ele>
        <time>2019-08-18T06:22:18.000Z</time>
      </trkpt>
      <trkpt lat="43.16297" lon="2.35456">
        <ele>195.8</ele>
        <time>2019-08-18T06:22:19.000Z</time>
      </trkpt>
      <trkpt lat="43.16295" lon="2.35458">
        <ele>195.8</ele>
        <time>2019-08-18T06:22:20.000Z</time>
      </trkpt>
      <trkpt lat="43.16293" lon="2.3546">
        <ele>195.9</ele>
        <time>2019-08-18T06:22:21.000Z</time>
      </trkpt>
      <trkpt lat="43.16292" lon="2.35463">
        <ele>196</ele>
        <time>2019-08-18T06:22:22.000Z</time>
      </trkpt>
      <trkpt lat="43.16291" lon="2.35466">
        <ele>196.1</ele>
        <time>2019-08-18T06:22:23.000Z</time>
      </trkpt>
      <trkpt lat="43.1629" lon="2.35468">
        <ele>196.1</ele>
        <time>2019-08-18T06:22:24.000Z</time>
      </trkpt>
      <trkpt lat="43.16289" lon="2.35471">
        <ele>196.2</ele>
        <time>2019-08-18T06:22:25.000Z</time>
      </trkpt>
      <trkpt lat="43.16288" lon="2.35474">
        <ele>196.2</ele>
        <time>2019-08-18T06:22:26.000Z</time>
      </trkpt>
      <trkpt lat="43.16288" lon="2.35477">
        <ele>196.3</ele>
        <time>2019-08-18T06:22:27.000Z</time>
      </trkpt>
      <trkpt lat="43.16287" lon="2.3548">
        <ele>196.3</ele>
        <time>2019-08-18T06:22:28.000Z</time>
      </trkpt>
      <trkpt lat="43.16287" lon="2.35484">
        <ele>196.4</ele>
        <time>2019-08-18T06:22:29.000Z</time>
      </trkpt>
      <trkpt lat="43.16287" lon="2.35487">
        <ele>196.4</ele>
        <time>2019-08-18T06:22:30.000Z</time>
      </trkpt>
      <trkpt lat="43.16286" lon="2.3549">
        <ele>196.4</ele>
        <time>2019-08-18T06:22:31.000Z</time>
      </trkpt>
      <trkpt lat="43.16286" lon="2.35493">
        <ele>196.5</ele>
        <time>2019-08-18T06:22:32.000Z</time>
      </trkpt>
      <trkpt lat="43.16286" lon="2.35496">
        <ele>196.5</ele>
        <time>2019-08-18T06:22:33.000Z</time>
      </trkpt>
      <trkpt lat="43.16285" lon="2.35499">
        <ele>196.6</ele>
        <time>2019-08-18T06:22:34.000Z</time>
      </trkpt>
      <trkpt lat="43.16285" lon="2.35502">
        <ele>196.7</ele>
        <time>2019-08-18T06:22:35.000Z</time>
      </trkpt>
      <trkpt lat="43.16284" lon="2.35505">
        <ele>196.7</ele>
        <time>2019-08-18T06:22:36.000Z</time>
      </trkpt>
      <trkpt lat="43.16283" lon="2.35508">
        <ele>196.8</ele>
        <time>2019-08-18T06:22:37.000Z</time>
      </trkpt>
      <trkpt lat="43.16283" lon="2.35511">
        <ele>196.8</ele>
        <time>2019-08-18T06:22:38.000Z</time>
      </trkpt>
      <trkpt lat="43.16282" lon="2.35514">
        <ele>196.9</ele>
        <time>2019-08-18T06:22:39.000Z</time>
      </trkpt>
      <trkpt lat="43.16282" lon="2.35517">
        <ele>196.9</ele>
        <time>2019-08-18T06:22:40.000Z</time>
      </trkpt>
      <trkpt lat="43.16281" lon="2.3552">
        <ele>197</ele>
        <time>2019-08-18T06:22:41.000Z</time>
      </trkpt>
      <trkpt lat="43.16281" lon="2.35524">
        <ele>197</ele>
        <time>2019-08-18T06:22:42.000Z</time>
      </trkpt>
      <trkpt lat="43.16281" lon="2.35527">
        <ele>197</ele>
        <time>2019-08-18T06:22:43.000Z</time>
      </trkpt>
      <trkpt lat="43.16281" lon="2.35531">
        <ele>197</ele>
        <time>2019-08-18T06:22:44.000Z</time>
      </trkpt>
      <trkpt lat="43.16281" lon="2.35535">
        <ele>197</ele>
        <time>2019-08-18T06:22:45.000Z</time>
      </trkpt>
      <trkpt lat="43.16282" lon="2.35538">
        <ele>196.9</ele>
        <time>2019-08-18T06:22:46.000Z</time>
      </trkpt>
      <trkpt lat="43.16283" lon="2.35541">
        <ele>196.8</ele>
        <time>2019-08-18T06:22:47.000Z</time>
      </trkpt>
      <trkpt lat="43.16284" lon="2.35545">
        <ele>196.7</ele>
        <time>2019-08-18T06:22:48.000Z</time>
      </trkpt>
      <trkpt lat="43.16285" lon="2.35548">
        <ele>196.5</ele>
        <time>2019-08-18T06:22:49.000Z</time>
      </trkpt>
      <trkpt lat="43.16287" lon="2.35551">
        <ele>196.3</ele>
        <time>2019-08-18T06:22:50.000Z</time>
      </trkpt>
      <trkpt lat="43.16288" lon="2.35554">
        <ele>196.1</ele>
        <time>2019-08-18T06:22:51.000Z</time>
      </trkpt>
      <trkpt lat="43.1629" lon="2.35557">
        <ele>195.9</ele>
        <time>2019-08-18T06:22:52.000Z</time>
      </trkpt>
      <trkpt lat="43.16291" lon="2.3556">
        <ele>195.7</ele>
        <time>2019-08-18T06:22:53.000Z</time>
      </trkpt>
      <trkpt lat="43.16293" lon="2.35563">
        <ele>195.5</ele>
        <time>2019-08-18T06:22:54.000Z</time>
      </trkpt>
      <trkpt lat="43.16294" lon="2.35567">
        <ele>195.3</ele>
        <time>2019-08-18T06:22:55.000Z</time>
      </trkpt>
      <trkpt lat="43.16296" lon="2.3557">
        <ele>195.1</ele>
        <time>2019-08-18T06:22:56.000Z</time>
      </trkpt>
      <trkpt lat="43.16297" lon="2.35573">
        <ele>194.9</ele>
        <time>2019-08-18T06:22:57.000Z</time>
      </trkpt>
      <trkpt lat="43.16298" lon="2.35577">
        <ele>194.7</ele>
        <time>2019-08-18T06:22:58.000Z</time>
      </trkpt>
      <trkpt lat="43.16299" lon="2.3558">
        <ele>194.5</ele>
        <time>2019-08-18T06:22:59.000Z</time>
      </trkpt>
      <trkpt lat="43.16301" lon="2.35583">
        <ele>194.3</ele>
        <time>2019-08-18T06:23:00.000Z</time>
      </trkpt>
      <trkpt lat="43.16302" lon="2.35586">
        <ele>194.1</ele>
        <time>2019-08-18T06:23:01.000Z</time>
      </trkpt>
      <trkpt lat="43.16303" lon="2.35589">
        <ele>194</ele>
        <time>2019-08-18T06:23:02.000Z</time>
      </trkpt>
      <trkpt lat="43.16305" lon="2.35592">
        <ele>193.8</ele>
        <time>2019-08-18T06:23:03.000Z</time>
      </trkpt>
      <trkpt lat="43.16306" lon="2.35595">
        <ele>193.6</ele>
        <time>2019-08-18T06:23:04.000Z</time>
      </trkpt>
      <trkpt lat="43.16307" lon="2.35598">
        <ele>193.4</ele>
        <time>2019-08-18T06:23:05.000Z</time>
      </trkpt>
      <trkpt lat="43.16309" lon="2.35601">
        <ele>193.2</ele>
        <time>2019-08-18T06:23:06.000Z</time>
      </trkpt>
      <trkpt lat="43.1631" lon="2.35604">
        <ele>193</ele>
        <time>2019-08-18T06:23:07.000Z</time>
      </trkpt>
      <trkpt lat="43.16311" lon="2.35607">
        <ele>192.8</ele>
        <time>2019-08-18T06:23:08.000Z</time>
      </trkpt>
      <trkpt lat="43.16313" lon="2.35611">
        <ele>192.6</ele>
        <time>2019-08-18T06:23:09.000Z</time>
      </trkpt>
      <trkpt lat="43.16314" lon="2.35614">
        <ele>192.4</ele>
        <time>2019-08-18T06:23:10.000Z</time>
      </trkpt>
      <trkpt lat="43.16316" lon="2.35617">
        <ele>192.3</ele>
        <time>2019-08-18T06:23:11.000Z</time>
      </trkpt>
      <trkpt lat="43.16317" lon="2.35621">
        <ele>192.1</ele>
        <time>2019-08-18T06:23:12.000Z</time>
      </trkpt>
      <trkpt lat="43.16319" lon="2.35624">
        <ele>191.9</ele>
        <time>2019-08-18T06:23:13.000Z</time>
      </trkpt>
      <trkpt lat="43.1632" lon="2.35628">
        <ele>191.7</ele>
        <time>2019-08-18T06:23:14.000Z</time>
      </trkpt>
      <trkpt lat="43.16321" lon="2.35631">
        <ele>191.5</ele>
        <time>2019-08-18T06:23:15.000Z</time>
      </trkpt>
      <trkpt lat="43.16323" lon="2.35635">
        <ele>191.3</ele>
        <time>2019-08-18T06:23:16.000Z</time>
      </trkpt>
      <trkpt lat="43.16324" lon="2.35638">
        <ele>191.2</ele>
        <time>2019-08-18T06:23:17.000Z</time>
      </trkpt>
      <trkpt lat="43.16325" lon="2.35642">
        <ele>191</ele>
        <time>2019-08-18T06:23:18.000Z</time>
      </trkpt>
      <trkpt lat="43.16326" lon="2.35645">
        <ele>190.9</ele>
        <time>2019-08-18T06:23:19.000Z</time>
      </trkpt>
      <trkpt lat="43.16327" lon="2.35649">
        <ele>190.7</ele>
        <time>2019-08-18T06:23:20.000Z</time>
      </trkpt>
      <trkpt lat="43.16328" lon="2.35652">
        <ele>190.6</ele>
        <time>2019-08-18T06:23:21.000Z</time>
      </trkpt>
      <trkpt lat="43.1633" lon="2.35656">
        <ele>190.5</ele>
        <time>2019-08-18T06:23:22.000Z</time>
      </trkpt>
      <trkpt lat="43.16331" lon="2.35659">
        <ele>190.3</ele>
        <time>2019-08-18T06:23:23.000Z</time>
      </trkpt>
      <trkpt lat="43.16332" lon="2.35663">
        <ele>190.2</ele>
        <time>2019-08-18T06:23:24.000Z</time>
      </trkpt>
      <trkpt lat="43.16333" lon="2.35667">
        <ele>190.1</ele>
        <time>2019-08-18T06:23:25.000Z</time>
      </trkpt>
      <trkpt lat="43.16334" lon="2.3567">
        <ele>189.9</ele>
        <time>2019-08-18T06:23:26.000Z</time>
      </trkpt>
      <trkpt lat="43.16335" lon="2.35673">
        <ele>189.8</ele>
        <time>2019-08-18T06:23:27.000Z</time>
      </trkpt>
      <trkpt lat="43.16336" lon="2.35677">
        <ele>189.7</ele>
        <time>2019-08-18T06:23:28.000Z</time>
      </trkpt>
      <trkpt lat="43.16337" lon="2.3568">
        <ele>189.6</ele>
        <time>2019-08-18T06:23:29.000Z</time>
      </trkpt>
      <trkpt lat="43.16338" lon="2.35684">
        <ele>189.5</ele>
        <time>2019-08-18T06:23:30.000Z</time>
      </trkpt>
      <trkpt lat="43.16339" lon="2.35687">
        <ele>189.4</ele>
        <time>2019-08-18T06:23:31.000Z</time>
      </trkpt>
      <trkpt lat="43.1634" lon="2.35691">
        <ele>189.4</ele>
        <time>2019-08-18T06:23:32.000Z</time>
      </trkpt>
      <trkpt lat="43.16341" lon="2.35694">
        <ele>189.3</ele>
        <time>2019-08-18T06:23:33.000Z</time>
      </trkpt>
      <trkpt lat="43.16342" lon="2.35697">
        <ele>189.2</ele>
        <time>2019-08-18T06:23:34.000Z</time>
      </trkpt>
      <trkpt lat="43.16343" lon="2.357">
        <ele>189.2</ele>
        <time>2019-08-18T06:23:35.000Z</time>
      </trkpt>
      <trkpt lat="43.16344" lon="2.35703">
        <ele>189.1</ele>
        <time>2019-08-18T06:23:36.000Z</time>
      </trkpt>
      <trkpt lat="43.16345" lon="2.35706">
        <ele>189</ele>
        <time>2019-08-18T06:23:37.000Z</time>
      </trkpt>
      <trkpt lat="43.16346" lon="2.35708">
        <ele>189</ele>
        <time>2019-08-18T06:23:38.000Z</time>
      </trkpt>
      <trkpt lat="43.16346" lon="2.3571">
        <ele>189</ele>
        <time>2019-08-18T06:23:39.000Z</time>
      </trkpt>
      <trkpt lat="43.16347" lon="2.35711">
        <ele>189</ele>
        <time>2019-08-18T06:23:40.000Z</time>
      </trkpt>
      <trkpt lat="43.16347" lon="2.35712">
        <ele>188.9</ele>
        <time>2019-08-18T06:23:41.000Z</time>
      </trkpt>
      <trkpt lat="43.16347" lon="2.35712">
        <ele>188.9</ele>
        <time>2019-08-18T06:23:42.000Z</time>
      </trkpt>
      <trkpt lat="43.16347" lon="2.35713">
        <ele>188.9</ele>
        <time>2019-08-18T06:23:43.000Z</time>
      </trkpt>
      <trkpt lat="43.16347" lon="2.35713">
        <ele>188.9</ele>
        <time>2019-08-18T06:23:44.000Z</time>
      </trkpt>
      <trkpt lat="43.16347" lon="2.35713">
        <ele>188.9</ele>
        <time>2019-08-18T06:23:45.000Z</time>
      </trkpt>
      <trkpt lat="43.16346" lon="2.35713">
        <ele>188.9</ele>
        <time>2019-08-18T06:23:46.000Z</time>
      </trkpt>
      <trkpt lat="43.16346" lon="2.35713">
        <ele>188.9</ele>
        <time>2019-08-18T06:23:47.000Z</time>
      </trkpt>
      <trkpt lat="43.16346" lon="2.35713">
        <ele>188.9</ele>
        <time>2019-08-18T06:23:48.000Z</time>
      </trkpt>
      <trkpt lat="43.16346" lon="2.35714">
        <ele>188.9</ele>
        <time>2019-08-18T06:23:49.000Z</time>
      </trkpt>
      <trkpt lat="43.16346" lon="2.35715">
        <ele>188.9</ele>
        <time>2019-08-18T06:23:50.000Z</time>
      </trkpt>
      <trkpt lat="43.16347" lon="2.35717">
        <ele>188.9</ele>
        <time>2019-08-18T06:23:51.000Z</time>
      </trkpt>
      <trkpt lat="43.16348" lon="2.35719">
        <ele>188.8</ele>
        <time>2019-08-18T06:23:52.000Z</time>
      </trkpt>
      <trkpt lat="43.16348" lon="2.35722">
        <ele>188.8</ele>
        <time>2019-08-18T06:23:53.000Z</time>
      </trkpt>
      <trkpt lat="43.16349" lon="2.35724">
        <ele>188.8</ele>
        <time>2019-08-18T06:23:54.000Z</time>
      </trkpt>
      <trkpt lat="43.1635" lon="2.35727">
        <ele>188.7</ele>
        <time>2019-08-18T06:23:55.000Z</time>
      </trkpt>
      <trkpt lat="43.16351" lon="2.3573">
        <ele>188.7</ele>
        <time>2019-08-18T06:23:56.000Z</time>
      </trkpt>
      <trkpt lat="43.16352" lon="2.35733">
        <ele>188.7</ele>
        <time>2019-08-18T06:23:57.000Z</time>
      </trkpt>
      <trkpt lat="43.16353" lon="2.35736">
        <ele>188.7</ele>
        <time>2019-08-18T06:23:58.000Z</time>
      </trkpt>
      <trkpt lat="43.16355" lon="2.35739">
        <ele>188.6</ele>
        <time>2019-08-18T06:23:59.000Z</time>
      </trkpt>
      <trkpt lat="43.16356" lon="2.35742">
        <ele>188.6</ele>
        <time>2019-08-18T06:24:00.000Z</time>
      </trkpt>
      <trkpt lat="43.16357" lon="2.35745">
        <ele>188.6</ele>
        <time>2019-08-18T06:24:01.000Z</time>
      </trkpt>
      <trkpt lat="43.16358" lon="2.35748">
        <ele>188.6</ele>
        <time>2019-08-18T06:24:02.000Z</time>
      </trkpt>
      <trkpt lat="43.16359" lon="2.35751">
        <ele>188.6</ele>
        <time>2019-08-18T06:24:03.000Z</time>
      </trkpt>
      <trkpt lat="43.1636" lon="2.35754">
        <ele>188.7</ele>
        <time>2019-08-18T06:24:04.000Z</time>
      </trkpt>
      <trkpt lat="43.16361" lon="2.35757">
        <ele>188.8</ele>
        <time>2019-08-18T06:24:05.000Z</time>
      </trkpt>
      <trkpt lat="43.16362" lon="2.3576">
        <ele>188.9</ele>
        <time>2019-08-18T06:24:06.000Z</time>
      </trkpt>
      <trkpt lat="43.16364" lon="2.35763">
        <ele>189</ele>
        <time>2019-08-18T06:24:07.000Z</time>
      </trkpt>
      <trkpt lat="43.16365" lon="2.35766">
        <ele>189.1</ele>
        <time>2019-08-18T06:24:08.000Z</time>
      </trkpt>
      <trkpt lat="43.16366" lon="2.35769">
        <ele>189.2</ele>
        <time>2019-08-18T06:24:09.000Z</time>
      </trkpt>
      <trkpt lat="43.16367" lon="2.35772">
        <ele>189.3</ele>
        <time>2019-08-18T06:24:10.000Z</time>
      </trkpt>
      <trkpt lat="43.16368" lon="2.35775">
        <ele>189.4</ele>
        <time>2019-08-18T06:24:11.000Z</time>
      </trkpt>
      <trkpt lat="43.16369" lon="2.35778">
        <ele>189.5</ele>
        <time>2019-08-18T06:24:12.000Z</time>
      </trkpt>
      <trkpt lat="43.1637" lon="2.3578">
        <ele>189.6</ele>
        <time>2019-08-18T06:24:13.000Z</time>
      </trkpt>
      <trkpt lat="43.16371" lon="2.35783">
        <ele>189.7</ele>
        <time>2019-08-18T06:24:14.000Z</time>
      </trkpt>
      <trkpt lat="43.16372" lon="2.35786">
        <ele>189.8</ele>
        <time>2019-08-18T06:24:15.000Z</time>
      </trkpt>
      <trkpt lat="43.16373" lon="2.35788">
        <ele>189.9</ele>
        <time>2019-08-18T06:24:16.000Z</time>
      </trkpt>
      <trkpt lat="43.16374" lon="2.35791">
        <ele>189.9</ele>
        <time>2019-08-18T06:24:17.000Z</time>
      </trkpt>
      <trkpt lat="43.16374" lon="2.35793">
        <ele>190</ele>
        <time>2019-08-18T06:24:18.000Z</time>
      </trkpt>
      <trkpt lat="43.16375" lon="2.35795">
        <ele>190.1</ele>
        <time>2019-08-18T06:24:19.000Z</time>
      </trkpt>
      <trkpt lat="43.16375" lon="2.35797">
        <ele>190.1</ele>
        <time>2019-08-18T06:24:20.000Z</time>
      </trkpt>
      <trkpt lat="43.16376" lon="2.35799">
        <ele>190.2</ele>
        <time>2019-08-18T06:24:21.000Z</time>
      </trkpt>
      <trkpt lat="43.16376" lon="2.358">
        <ele>190.2</ele>
        <time>2019-08-18T06:24:22.000Z</time>
      </trkpt>
      <trkpt lat="43.16377" lon="2.35802">
        <ele>190.3</ele>
        <time>2019-08-18T06:24:23.000Z</time>
      </trkpt>
      <trkpt lat="43.16378" lon="2.35803">
        <ele>190.3</ele>
        <time>2019-08-18T06:24:24.000Z</time>
      </trkpt>
      <trkpt lat="43.16379" lon="2.35803">
        <ele>190.4</ele>
        <time>2019-08-18T06:24:25.000Z</time>
      </trkpt>
      <trkpt lat="43.16381" lon="2.35804">
        <ele>190.4</ele>
        <time>2019-08-18T06:24:26.000Z</time>
      </trkpt>
      <trkpt lat="43.16383" lon="2.35804">
        <ele>190.5</ele>
        <time>2019-08-18T06:24:27.000Z</time>
      </trkpt>
      <trkpt lat="43.16385" lon="2.35804">
        <ele>190.5</ele>
        <time>2019-08-18T06:24:28.000Z</time>
      </trkpt>
      <trkpt lat="43.16388" lon="2.35803">
        <ele>190.6</ele>
        <time>2019-08-18T06:24:29.000Z</time>
      </trkpt>
      <trkpt lat="43.1639" lon="2.35803">
        <ele>190.6</ele>
        <time>2019-08-18T06:24:30.000Z</time>
      </trkpt>
      <trkpt lat="43.16392" lon="2.35803">
        <ele>190.7</ele>
        <time>2019-08-18T06:24:31.000Z</time>
      </trkpt>
      <trkpt lat="43.16395" lon="2.35803">
        <ele>190.7</ele>
        <time>2019-08-18T06:24:32.000Z</time>
      </trkpt>
      <trkpt lat="43.16397" lon="2.35803">
        <ele>190.8</ele>
        <time>2019-08-18T06:24:33.000Z</time>
      </trkpt>
      <trkpt lat="43.16399" lon="2.35803">
        <ele>190.9</ele>
        <time>2019-08-18T06:24:34.000Z</time>
      </trkpt>
      <trkpt lat="43.16401" lon="2.35803">
        <ele>190.9</ele>
        <time>2019-08-18T06:24:35.000Z</time>
      </trkpt>
      <trkpt lat="43.16403" lon="2.35803">
        <ele>191</ele>
        <time>2019-08-18T06:24:36.000Z</time>
      </trkpt>
      <trkpt lat="43.16405" lon="2.35804">
        <ele>191</ele>
        <time>2019-08-18T06:24:37.000Z</time>
      </trkpt>
      <trkpt lat="43.16408" lon="2.35804">
        <ele>191.1</ele>
        <time>2019-08-18T06:24:38.000Z</time>
      </trkpt>
      <trkpt lat="43.1641" lon="2.35805">
        <ele>191.1</ele>
        <time>2019-08-18T06:24:39.000Z</time>
      </trkpt>
      <trkpt lat="43.16412" lon="2.35805">
        <ele>191.2</ele>
        <time>2019-08-18T06:24:40.000Z</time>
      </trkpt>
      <trkpt lat="43.16414" lon="2.35805">
        <ele>191.3</ele>
        <time>2019-08-18T06:24:41.000Z</time>
      </trkpt>
      <trkpt lat="43.16417" lon="2.35805">
        <ele>191.3</ele>
        <time>2019-08-18T06:24:42.000Z</time>
      </trkpt>
      <trkpt lat="43.16419" lon="2.35805">
        <ele>191.6</ele>
        <time>2019-08-18T06:24:43.000Z</time>
      </trkpt>
      <trkpt lat="43.16422" lon="2.35805">
        <ele>191.8</ele>
        <time>2019-08-18T06:24:44.000Z</time>
      </trkpt>
      <trkpt lat="43.16424" lon="2.35806">
        <ele>192</ele>
        <time>2019-08-18T06:24:45.000Z</time>
      </trkpt>
      <trkpt lat="43.16426" lon="2.35806">
        <ele>192.2</ele>
        <time>2019-08-18T06:24:46.000Z</time>
      </trkpt>
      <trkpt lat="43.16429" lon="2.35806">
        <ele>192.4</ele>
        <time>2019-08-18T06:24:47.000Z</time>
      </trkpt>
      <trkpt lat="43.16431" lon="2.35806">
        <ele>192.6</ele>
        <time>2019-08-18T06:24:48.000Z</time>
      </trkpt>
      <trkpt lat="43.16432" lon="2.35807">
        <ele>192.8</ele>
        <time>2019-08-18T06:24:49.000Z</time>
      </trkpt>
      <trkpt lat="43.16434" lon="2.35807">
        <ele>192.9</ele>
        <time>2019-08-18T06:24:50.000Z</time>
      </trkpt>
      <trkpt lat="43.16436" lon="2.35807">
        <ele>193.1</ele>
        <time>2019-08-18T06:24:51.000Z</time>
      </trkpt>
      <trkpt lat="43.16438" lon="2.35808">
        <ele>193.3</ele>
        <time>2019-08-18T06:24:52.000Z</time>
      </trkpt>
      <trkpt lat="43.1644" lon="2.35808">
        <ele>193.5</ele>
        <time>2019-08-18T06:24:53.000Z</time>
      </trkpt>
      <trkpt lat="43.16442" lon="2.35808">
        <ele>193.6</ele>
        <time>2019-08-18T06:24:54.000Z</time>
      </trkpt>
      <trkpt lat="43.16444" lon="2.35809">
        <ele>193.8</ele>
        <time>2019-08-18T06:24:55.000Z</time>
      </trkpt>
      <trkpt lat="43.16446" lon="2.35809">
        <ele>194</ele>
        <time>2019-08-18T06:24:56.000Z</time>
      </trkpt>
      <trkpt lat="43.16448" lon="2.35809">
        <ele>194.2</ele>
        <time>2019-08-18T06:24:57.000Z</time>
      </trkpt>
      <trkpt lat="43.1645" lon="2.35809">
        <ele>194.3</ele>
        <time>2019-08-18T06:24:58.000Z</time>
      </trkpt>
      <trkpt lat="43.16451" lon="2.3581">
        <ele>194.5</ele>
        <time>2019-08-18T06:24:59.000Z</time>
      </trkpt>
      <trkpt lat="43.16453" lon="2.3581">
        <ele>194.7</ele>
        <time>2019-08-18T06:25:00.000Z</time>
      </trkpt>
      <trkpt lat="43.16454" lon="2.3581">
        <ele>194.8</ele>
        <time>2019-08-18T06:25:01.000Z</time>
      </trkpt>
      <trkpt lat="43.16456" lon="2.3581">
        <ele>194.9</ele>
        <time>2019-08-18T06:25:02.000Z</time>
      </trkpt>
      <trkpt lat="43.16457" lon="2.35809">
        <ele>195</ele>
        <time>2019-08-18T06:25:03.000Z</time>
      </trkpt>
      <trkpt lat="43.16458" lon="2.35809">
        <ele>195.1</ele>
        <time>2019-08-18T06:25:04.000Z</time>
      </trkpt>
      <trkpt lat="43.16459" lon="2.35809">
        <ele>195.2</ele>
        <time>2019-08-18T06:25:05.000Z</time>
      </trkpt>
      <trkpt lat="43.1646" lon="2.35809">
        <ele>195.3</ele>
        <time>2019-08-18T06:25:06.000Z</time>
      </trkpt>
      <trkpt lat="43.16462" lon="2.35808">
        <ele>195.4</ele>
        <time>2019-08-18T06:25:07.000Z</time>
      </trkpt>
      <trkpt lat="43.16463" lon="2.35807">
        <ele>195.5</ele>
        <time>2019-08-18T06:25:08.000Z</time>
      </trkpt>
      <trkpt lat="43.16464" lon="2.35806">
        <ele>195.5</ele>
        <time>2019-08-18T06:25:09.000Z</time>
      </trkpt>
      <trkpt lat="43.16466" lon="2.35805">
        <ele>195.6</ele>
        <time>2019-08-18T06:25:10.000Z</time>
      </trkpt>
      <trkpt lat="43.16467" lon="2.35804">
        <ele>195.7</ele>
        <time>2019-08-18T06:25:11.000Z</time>
      </trkpt>
      <trkpt lat="43.16468" lon="2.35803">
        <ele>195.7</ele>
        <time>2019-08-18T06:25:12.000Z</time>
      </trkpt>
      <trkpt lat="43.16469" lon="2.35801">
        <ele>195.7</ele>
        <time>2019-08-18T06:25:13.000Z</time>
      </trkpt>
      <trkpt lat="43.16469" lon="2.35799">
        <ele>195.7</ele>
        <time>2019-08-18T06:25:14.000Z</time>
      </trkpt>
      <trkpt lat="43.1647" lon="2.35797">
        <ele>195.7</ele>
        <time>2019-08-18T06:25:15.000Z</time>
      </trkpt>
      <trkpt lat="43.1647" lon="2.35795">
        <ele>195.6</ele>
        <time>2019-08-18T06:25:16.000Z</time>
      </trkpt>
      <trkpt lat="43.1647" lon="2.35793">
        <ele>195.5</ele>
        <time>2019-08-18T06:25:17.000Z</time>
      </trkpt>
      <trkpt lat="43.1647" lon="2.3579">
        <ele>195.4</ele>
        <time>2019-08-18T06:25:18.000Z</time>
      </trkpt>
      <trkpt lat="43.1647" lon="2.35788">
        <ele>195.3</ele>
        <time>2019-08-18T06:25:19.000Z</time>
      </trkpt>
      <trkpt lat="43.1647" lon="2.35785">
        <ele>195.2</ele>
        <time>2019-08-18T06:25:20.000Z</time>
      </trkpt>
      <trkpt lat="43.1647" lon="2.35782">
        <ele>195.1</ele>
        <time>2019-08-18T06:25:21.000Z</time>
      </trkpt>
      <trkpt lat="43.1647" lon="2.3578">
        <ele>195</ele>
        <time>2019-08-18T06:25:22.000Z</time>
      </trkpt>
      <trkpt lat="43.16471" lon="2.35777">
        <ele>195</ele>
        <time>2019-08-18T06:25:23.000Z</time>
      </trkpt>
      <trkpt lat="43.16472" lon="2.35774">
        <ele>194.9</ele>
        <time>2019-08-18T06:25:24.000Z</time>
      </trkpt>
      <trkpt lat="43.16473" lon="2.35771">
        <ele>194.9</ele>
        <time>2019-08-18T06:25:25.000Z</time>
      </trkpt>
      <trkpt lat="43.16474" lon="2.35768">
        <ele>194.8</ele>
        <time>2019-08-18T06:25:26.000Z</time>
      </trkpt>
      <trkpt lat="43.16475" lon="2.35766">
        <ele>194.8</ele>
        <time>2019-08-18T06:25:27.000Z</time>
      </trkpt>
      <trkpt lat="43.16476" lon="2.35763">
        <ele>194.8</ele>
        <time>2019-08-18T06:25:28.000Z</time>
      </trkpt>
      <trkpt lat="43.16478" lon="2.3576">
        <ele>194.8</ele>
        <time>2019-08-18T06:25:29.000Z</time>
      </trkpt>
      <trkpt lat="43.16479" lon="2.35757">
        <ele>194.8</ele>
        <time>2019-08-18T06:25:30.000Z</time>
      </trkpt>
      <trkpt lat="43.1648" lon="2.35754">
        <ele>194.7</ele>
        <time>2019-08-18T06:25:31.000Z</time>
      </trkpt>
      <trkpt lat="43.16482" lon="2.35751">
        <ele>194.7</ele>
        <time>2019-08-18T06:25:32.000Z</time>
      </trkpt>
      <trkpt lat="43.16483" lon="2.35748">
        <ele>194.6</ele>
        <time>2019-08-18T06:25:33.000Z</time>
      </trkpt>
      <trkpt lat="43.16483" lon="2.35744">
        <ele>194.5</ele>
        <time>2019-08-18T06:25:34.000Z</time>
      </trkpt>
      <trkpt lat="43.16484" lon="2.35741">
        <ele>194.3</ele>
        <time>2019-08-18T06:25:35.000Z</time>
      </trkpt>
      <trkpt lat="43.16483" lon="2.35737">
        <ele>194.1</ele>
        <time>2019-08-18T06:25:36.000Z</time>
      </trkpt>
      <trkpt lat="43.16483" lon="2.35733">
        <ele>193.9</ele>
        <time>2019-08-18T06:25:37.000Z</time>
      </trkpt>
      <trkpt lat="43.16482" lon="2.35729">
        <ele>193.6</ele>
        <time>2019-08-18T06:25:38.000Z</time>
      </trkpt>
      <trkpt lat="43.16481" lon="2.35725">
        <ele>193.4</ele>
        <time>2019-08-18T06:25:39.000Z</time>
      </trkpt>
      <trkpt lat="43.16481" lon="2.35722">
        <ele>193.2</ele>
        <time>2019-08-18T06:25:40.000Z</time>
      </trkpt>
      <trkpt lat="43.16481" lon="2.35718">
        <ele>193</ele>
        <time>2019-08-18T06:25:41.000Z</time>
      </trkpt>
      <trkpt lat="43.16481" lon="2.35715">
        <ele>192.8</ele>
        <time>2019-08-18T06:25:42.000Z</time>
      </trkpt>
      <trkpt lat="43.16482" lon="2.35712">
        <ele>192.7</ele>
        <time>2019-08-18T06:25:43.000Z</time>
      </trkpt>
      <trkpt lat="43.16484" lon="2.3571">
        <ele>192.7</ele>
        <time>2019-08-18T06:25:44.000Z</time>
      </trkpt>
      <trkpt lat="43.16486" lon="2.35708">
        <ele>192.7</ele>
        <time>2019-08-18T06:25:45.000Z</time>
      </trkpt>
      <trkpt lat="43.16488" lon="2.35706">
        <ele>192.8</ele>
        <time>2019-08-18T06:25:46.000Z</time>
      </trkpt>
      <trkpt lat="43.16491" lon="2.35705">
        <ele>192.8</ele>
        <time>2019-08-18T06:25:47.000Z</time>
      </trkpt>
      <trkpt lat="43.16494" lon="2.35704">
        <ele>192.9</ele>
        <time>2019-08-18T06:25:48.000Z</time>
      </trkpt>
      <trkpt lat="43.16497" lon="2.35703">
        <ele>193</ele>
        <time>2019-08-18T06:25:49.000Z</time>
      </trkpt>
      <trkpt lat="43.16499" lon="2.35703">
        <ele>193.1</ele>
        <time>2019-08-18T06:25:50.000Z</time>
      </trkpt>
      <trkpt lat="43.16502" lon="2.35703">
        <ele>193.3</ele>
        <time>2019-08-18T06:25:51.000Z</time>
      </trkpt>
      <trkpt lat="43.16505" lon="2.35703">
        <ele>193.5</ele>
        <time>2019-08-18T06:25:52.000Z</time>
      </trkpt>
      <trkpt lat="43.16507" lon="2.35702">
        <ele>193.7</ele>
        <time>2019-08-18T06:25:53.000Z</time>
      </trkpt>
      <trkpt lat="43.1651" lon="2.35702">
        <ele>193.9</ele>
        <time>2019-08-18T06:25:54.000Z</time>
      </trkpt>
      <trkpt lat="43.16512" lon="2.35701">
        <ele>194</ele>
        <time>2019-08-18T06:25:55.000Z</time>
      </trkpt>
      <trkpt lat="43.16515" lon="2.357">
        <ele>194.2</ele>
        <time>2019-08-18T06:25:56.000Z</time>
      </trkpt>
      <trkpt lat="43.16518" lon="2.357">
        <ele>194.4</ele>
        <time>2019-08-18T06:25:57.000Z</time>
      </trkpt>
      <trkpt lat="43.1652" lon="2.35699">
        <ele>194.6</ele>
        <time>2019-08-18T06:25:58.000Z</time>
      </trkpt>
      <trkpt lat="43.16523" lon="2.35699">
        <ele>194.7</ele>
        <time>2019-08-18T06:25:59.000Z</time>
      </trkpt>
      <trkpt lat="43.16525" lon="2.35699">
        <ele>194.9</ele>
        <time>2019-08-18T06:26:00.000Z</time>
      </trkpt>
      <trkpt lat="43.16528" lon="2.35699">
        <ele>195.1</ele>
        <time>2019-08-18T06:26:01.000Z</time>
      </trkpt>
      <trkpt lat="43.1653" lon="2.35699">
        <ele>195.3</ele>
        <time>2019-08-18T06:26:02.000Z</time>
      </trkpt>
      <trkpt lat="43.16533" lon="2.35698">
        <ele>195.5</ele>
        <time>2019-08-18T06:26:03.000Z</time>
      </trkpt>
      <trkpt lat="43.16535" lon="2.35698">
        <ele>195.7</ele>
        <time>2019-08-18T06:26:04.000Z</time>
      </trkpt>
      <trkpt lat="43.16537" lon="2.35697">
        <ele>195.8</ele>
        <time>2019-08-18T06:26:05.000Z</time>
      </trkpt>
      <trkpt lat="43.16539" lon="2.35696">
        <ele>195.9</ele>
        <time>2019-08-18T06:26:06.000Z</time>
      </trkpt>
      <trkpt lat="43.1654" lon="2.35694">
        <ele>195.8</ele>
        <time>2019-08-18T06:26:07.000Z</time>
      </trkpt>
      <trkpt lat="43.16541" lon="2.35691">
        <ele>195.7</ele>
        <time>2019-08-18T06:26:08.000Z</time>
      </trkpt>
      <trkpt lat="43.16541" lon="2.35687">
        <ele>195.5</ele>
        <time>2019-08-18T06:26:09.000Z</time>
      </trkpt>
      <trkpt lat="43.1654" lon="2.35683">
        <ele>195.3</ele>
        <time>2019-08-18T06:26:10.000Z</time>
      </trkpt>
      <trkpt lat="43.1654" lon="2.35679">
        <ele>195</ele>
        <time>2019-08-18T06:26:11.000Z</time>
      </trkpt>
      <trkpt lat="43.16539" lon="2.35676">
        <ele>194.8</ele>
        <time>2019-08-18T06:26:12.000Z</time>
      </trkpt>
      <trkpt lat="43.16539" lon="2.35672">
        <ele>194.6</ele>
        <time>2019-08-18T06:26:13.000Z</time>
      </trkpt>
      <trkpt lat="43.1654" lon="2.3567">
        <ele>194.5</ele>
        <time>2019-08-18T06:26:14.000Z</time>
      </trkpt>
      <trkpt lat="43.16541" lon="2.35668">
        <ele>194.5</ele>
        <time>2019-08-18T06:26:15.000Z</time>
      </trkpt>
      <trkpt lat="43.16543" lon="2.35667">
        <ele>194.6</ele>
        <time>2019-08-18T06:26:16.000Z</time>
      </trkpt>
      <trkpt lat="43.16546" lon="2.35666">
        <ele>194.8</ele>
        <time>2019-08-18T06:26:17.000Z</time>
      </trkpt>
      <trkpt lat="43.16548" lon="2.35666">
        <ele>195</ele>
        <time>2019-08-18T06:26:18.000Z</time>
      </trkpt>
      <trkpt lat="43.1655" lon="2.35667">
        <ele>195.2</ele>
        <time>2019-08-18T06:26:19.000Z</time>
      </trkpt>
      <trkpt lat="43.16552" lon="2.35668">
        <ele>195.4</ele>
        <time>2019-08-18T06:26:20.000Z</time>
      </trkpt>
      <trkpt lat="43.16554" lon="2.35669">
        <ele>195.7</ele>
        <time>2019-08-18T06:26:21.000Z</time>
      </trkpt>
      <trkpt lat="43.16556" lon="2.35671">
        <ele>195.9</ele>
        <time>2019-08-18T06:26:22.000Z</time>
      </trkpt>
      <trkpt lat="43.16558" lon="2.35672">
        <ele>196.1</ele>
        <time>2019-08-18T06:26:23.000Z</time>
      </trkpt>
      <trkpt lat="43.1656" lon="2.35674">
        <ele>196.4</ele>
        <time>2019-08-18T06:26:24.000Z</time>
      </trkpt>
      <trkpt lat="43.16562" lon="2.35675">
        <ele>196.6</ele>
        <time>2019-08-18T06:26:25.000Z</time>
      </trkpt>
      <trkpt lat="43.16564" lon="2.35675">
        <ele>196.8</ele>
        <time>2019-08-18T06:26:26.000Z</time>
      </trkpt>
      <trkpt lat="43.16566" lon="2.35676">
        <ele>197</ele>
        <time>2019-08-18T06:26:27.000Z</time>
      </trkpt>
      <trkpt lat="43.16568" lon="2.35676">
        <ele>197.2</ele>
        <time>2019-08-18T06:26:28.000Z</time>
      </trkpt>
      <trkpt lat="43.1657" lon="2.35677">
        <ele>197.4</ele>
        <time>2019-08-18T06:26:29.000Z</time>
      </trkpt>
      <trkpt lat="43.16572" lon="2.35678">
        <ele>197.6</ele>
        <time>2019-08-18T06:26:30.000Z</time>
      </trkpt>
      <trkpt lat="43.16574" lon="2.35679">
        <ele>197.8</ele>
        <time>2019-08-18T06:26:31.000Z</time>
      </trkpt>
      <trkpt lat="43.16576" lon="2.3568">
        <ele>198</ele>
        <time>2019-08-18T06:26:32.000Z</time>
      </trkpt>
      <trkpt lat="43.16578" lon="2.35681">
        <ele>198.2</ele>
        <time>2019-08-18T06:26:33.000Z</time>
      </trkpt>
      <trkpt lat="43.1658" lon="2.35682">
        <ele>198.4</ele>
        <time>2019-08-18T06:26:34.000Z</time>
      </trkpt>
      <trkpt lat="43.16582" lon="2.35682">
        <ele>198.6</ele>
        <time>2019-08-18T06:26:35.000Z</time>
      </trkpt>
      <trkpt lat="43.16583" lon="2.35681">
        <ele>198.7</ele>
        <time>2019-08-18T06:26:36.000Z</time>
      </trkpt>
      <trkpt lat="43.16585" lon="2.3568">
        <ele>198.9</ele>
        <time>2019-08-18T06:26:37.000Z</time>
      </trkpt>
      <trkpt lat="43.16586" lon="2.35679">
        <ele>199.1</ele>
        <time>2019-08-18T06:26:38.000Z</time>
      </trkpt>
      <trkpt lat="43.16587" lon="2.35678">
        <ele>199.2</ele>
        <time>2019-08-18T06:26:39.000Z</time>
      </trkpt>
      <trkpt lat="43.16588" lon="2.35677">
        <ele>199.2</ele>
        <time>2019-08-18T06:26:40.000Z</time>
      </trkpt>
      <trkpt lat="43.16588" lon="2.35677">
        <ele>199.3</ele>
        <time>2019-08-18T06:26:41.000Z</time>
      </trkpt>
      <trkpt lat="43.16588" lon="2.35676">
        <ele>199.3</ele>
        <time>2019-08-18T06:26:42.000Z</time>
      </trkpt>
      <trkpt lat="43.16588" lon="2.35675">
        <ele>199.2</ele>
        <time>2019-08-18T06:26:43.000Z</time>
      </trkpt>
      <trkpt lat="43.16588" lon="2.35675">
        <ele>199.2</ele>
        <time>2019-08-18T06:26:44.000Z</time>
      </trkpt>
      <trkpt lat="43.16588" lon="2.35674">
        <ele>199.2</ele>
        <time>2019-08-18T06:26:45.000Z</time>
      </trkpt>
      <trkpt lat="43.16589" lon="2.35674">
        <ele>199.2</ele>
        <time>2019-08-18T06:26:46.000Z</time>
      </trkpt>
      <trkpt lat="43.16589" lon="2.35674">
        <ele>199.3</ele>
        <time>2019-08-18T06:26:47.000Z</time>
      </trkpt>
      <trkpt lat="43.16589" lon="2.35673">
        <ele>199.3</ele>
        <time>2019-08-18T06:26:48.000Z</time>
      </trkpt>
      <trkpt lat="43.1659" lon="2.35673">
        <ele>199.3</ele>
        <time>2019-08-18T06:26:49.000Z</time>
      </trkpt>
      <trkpt lat="43.1659" lon="2.35672">
        <ele>199.4</ele>
        <time>2019-08-18T06:26:50.000Z</time>
      </trkpt>
      <trkpt lat="43.1659" lon="2.35672">
        <ele>199.5</ele>
        <time>2019-08-18T06:26:51.000Z</time>
      </trkpt>
      <trkpt lat="43.16591" lon="2.35672">
        <ele>199.5</ele>
        <time>2019-08-18T06:26:52.000Z</time>
      </trkpt>
      <trkpt lat="43.16591" lon="2.35672">
        <ele>199.5</ele>
        <time>2019-08-18T06:26:53.000Z</time>
      </trkpt>
      <trkpt lat="43.16591" lon="2.35672">
        <ele>199.6</ele>
        <time>2019-08-18T06:26:54.000Z</time>
      </trkpt>
      <trkpt lat="43.16591" lon="2.35672">
        <ele>199.6</ele>
        <time>2019-08-18T06:26:55.000Z</time>
      </trkpt>
      <trkpt lat="43.16592" lon="2.35672">
        <ele>199.6</ele>
        <time>2019-08-18T06:26:56.000Z</time>
      </trkpt>
      <trkpt lat="43.16592" lon="2.35672">
        <ele>199.7</ele>
        <time>2019-08-18T06:26:57.000Z</time>
      </trkpt>
      <trkpt lat="43.16592" lon="2.35672">
        <ele>199.8</ele>
        <time>2019-08-18T06:26:58.000Z</time>
      </trkpt>
      <trkpt lat="43.16593" lon="2.35673">
        <ele>199.8</ele>
        <time>2019-08-18T06:26:59.000Z</time>
      </trkpt>
      <trkpt lat="43.16593" lon="2.35673">
        <ele>200</ele>
        <time>2019-08-18T06:27:00.000Z</time>
      </trkpt>
      <trkpt lat="43.16594" lon="2.35673">
        <ele>200.1</ele>
        <time>2019-08-18T06:27:01.000Z</time>
      </trkpt>
      <trkpt lat="43.16595" lon="2.35673">
        <ele>200.3</ele>
        <time>2019-08-18T06:27:02.000Z</time>
      </trkpt>
      <trkpt lat="43.16596" lon="2.35674">
        <ele>200.4</ele>
        <time>2019-08-18T06:27:03.000Z</time>
      </trkpt>
      <trkpt lat="43.16597" lon="2.35674">
        <ele>200.6</ele>
        <time>2019-08-18T06:27:04.000Z</time>
      </trkpt>
      <trkpt lat="43.16598" lon="2.35675">
        <ele>200.8</ele>
        <time>2019-08-18T06:27:05.000Z</time>
      </trkpt>
      <trkpt lat="43.16599" lon="2.35676">
        <ele>201.1</ele>
        <time>2019-08-18T06:27:06.000Z</time>
      </trkpt>
      <trkpt lat="43.166" lon="2.35677">
        <ele>201.3</ele>
        <time>2019-08-18T06:27:07.000Z</time>
      </trkpt>
      <trkpt lat="43.16601" lon="2.35678">
        <ele>201.5</ele>
        <time>2019-08-18T06:27:08.000Z</time>
      </trkpt>
      <trkpt lat="43.16602" lon="2.3568">
        <ele>201.8</ele>
        <time>2019-08-18T06:27:09.000Z</time>
      </trkpt>
      <trkpt lat="43.16603" lon="2.35682">
        <ele>202</ele>
        <time>2019-08-18T06:27:10.000Z</time>
      </trkpt>
      <trkpt lat="43.16604" lon="2.35684">
        <ele>202.3</ele>
        <time>2019-08-18T06:27:11.000Z</time>
      </trkpt>
      <trkpt lat="43.16605" lon="2.35686">
        <ele>202.6</ele>
        <time>2019-08-18T06:27:12.000Z</time>
      </trkpt>
      <trkpt lat="43.16606" lon="2.35688">
        <ele>202.9</ele>
        <time>2019-08-18T06:27:13.000Z</time>
      </trkpt>
      <trkpt lat="43.16608" lon="2.3569">
        <ele>203.2</ele>
        <time>2019-08-18T06:27:14.000Z</time>
      </trkpt>
      <trkpt lat="43.16609" lon="2.35692">
        <ele>203.5</ele>
        <time>2019-08-18T06:27:15.000Z</time>
      </trkpt>
      <trkpt lat="43.1661" lon="2.35694">
        <ele>203.8</ele>
        <time>2019-08-18T06:27:16.000Z</time>
      </trkpt>
      <trkpt lat="43.16611" lon="2.35695">
        <ele>204.1</ele>
        <time>2019-08-18T06:27:17.000Z</time>
      </trkpt>
      <trkpt lat="43.16613" lon="2.35696">
        <ele>204.3</ele>
        <time>2019-08-18T06:27:18.000Z</time>
      </trkpt>
      <trkpt lat="43.16614" lon="2.35697">
        <ele>204.5</ele>
        <time>2019-08-18T06:27:19.000Z</time>
      </trkpt>
      <trkpt lat="43.16615" lon="2.35697">
        <ele>204.8</ele>
        <time>2019-08-18T06:27:20.000Z</time>
      </trkpt>
      <trkpt lat="43.16616" lon="2.35698">
        <ele>205</ele>
        <time>2019-08-18T06:27:21.000Z</time>
      </trkpt>
      <trkpt lat="43.16618" lon="2.35698">
        <ele>205.3</ele>
        <time>2019-08-18T06:27:22.000Z</time>
      </trkpt>
      <trkpt lat="43.16619" lon="2.35699">
        <ele>205.5</ele>
        <time>2019-08-18T06:27:23.000Z</time>
      </trkpt>
      <trkpt lat="43.1662" lon="2.35701">
        <ele>205.7</ele>
        <time>2019-08-18T06:27:24.000Z</time>
      </trkpt>
      <trkpt lat="43.1662" lon="2.35703">
        <ele>205.9</ele>
        <time>2019-08-18T06:27:25.000Z</time>
      </trkpt>
      <trkpt lat="43.1662" lon="2.35705">
        <ele>206.1</ele>
        <time>2019-08-18T06:27:26.000Z</time>
      </trkpt>
      <trkpt lat="43.16621" lon="2.35707">
        <ele>206.2</ele>
        <time>2019-08-18T06:27:27.000Z</time>
      </trkpt>
      <trkpt lat="43.16621" lon="2.3571">
        <ele>206.3</ele>
        <time>2019-08-18T06:27:28.000Z</time>
      </trkpt>
      <trkpt lat="43.16621" lon="2.35712">
        <ele>206.4</ele>
        <time>2019-08-18T06:27:29.000Z</time>
      </trkpt>
      <trkpt lat="43.1662" lon="2.35714">
        <ele>206.5</ele>
        <time>2019-08-18T06:27:30.000Z</time>
      </trkpt>
      <trkpt lat="43.1662" lon="2.35716">
        <ele>206.5</ele>
        <time>2019-08-18T06:27:31.000Z</time>
      </trkpt>
      <trkpt lat="43.1662" lon="2.35718">
        <ele>206.6</ele>
        <time>2019-08-18T06:27:32.000Z</time>
      </trkpt>
      <trkpt lat="43.16619" lon="2.3572">
        <ele>206.6</ele>
        <time>2019-08-18T06:27:33.000Z</time>
      </trkpt>
      <trkpt lat="43.16619" lon="2.35723">
        <ele>206.7</ele>
        <time>2019-08-18T06:27:34.000Z</time>
      </trkpt>
      <trkpt lat="43.16618" lon="2.35725">
        <ele>206.7</ele>
        <time>2019-08-18T06:27:35.000Z</time>
      </trkpt>
      <trkpt lat="43.16618" lon="2.35726">
        <ele>206.7</ele>
        <time>2019-08-18T06:27:36.000Z</time>
      </trkpt>
      <trkpt lat="43.16617" lon="2.35728">
        <ele>206.6</ele>
        <time>2019-08-18T06:27:37.000Z</time>
      </trkpt>
      <trkpt lat="43.16617" lon="2.3573">
        <ele>206.6</ele>
        <time>2019-08-18T06:27:38.000Z</time>
      </trkpt>
      <trkpt lat="43.16616" lon="2.35732">
        <ele>206.6</ele>
        <time>2019-08-18T06:27:39.000Z</time>
      </trkpt>
      <trkpt lat="43.16615" lon="2.35734">
        <ele>206.6</ele>
        <time>2019-08-18T06:27:40.000Z</time>
      </trkpt>
      <trkpt lat="43.16614" lon="2.35736">
        <ele>206.5</ele>
        <time>2019-08-18T06:27:41.000Z</time>
      </trkpt>
      <trkpt lat="43.16614" lon="2.35738">
        <ele>206.5</ele>
        <time>2019-08-18T06:27:42.000Z</time>
      </trkpt>
      <trkpt lat="43.16613" lon="2.3574">
        <ele>206.5</ele>
        <time>2019-08-18T06:27:43.000Z</time>
      </trkpt>
      <trkpt lat="43.16612" lon="2.35741">
        <ele>206.4</ele>
        <time>2019-08-18T06:27:44.000Z</time>
      </trkpt>
      <trkpt lat="43.16612" lon="2.35743">
        <ele>206.4</ele>
        <time>2019-08-18T06:27:45.000Z</time>
      </trkpt>
      <trkpt lat="43.16611" lon="2.35745">
        <ele>206.4</ele>
        <time>2019-08-18T06:27:46.000Z</time>
      </trkpt>
      <trkpt lat="43.16611" lon="2.35747">
        <ele>206.5</ele>
        <time>2019-08-18T06:27:47.000Z</time>
      </trkpt>
      <trkpt lat="43.16611" lon="2.35749">
        <ele>206.5</ele>
        <time>2019-08-18T06:27:48.000Z</time>
      </trkpt>
      <trkpt lat="43.1661" lon="2.35751">
        <ele>206.6</ele>
        <time>2019-08-18T06:27:49.000Z</time>
      </trkpt>
      <trkpt lat="43.16611" lon="2.35754">
        <ele>206.8</ele>
        <time>2019-08-18T06:27:50.000Z</time>
      </trkpt>
      <trkpt lat="43.16611" lon="2.35756">
        <ele>207</ele>
        <time>2019-08-18T06:27:51.000Z</time>
      </trkpt>
      <trkpt lat="43.16612" lon="2.35758">
        <ele>207.2</ele>
        <time>2019-08-18T06:27:52.000Z</time>
      </trkpt>
      <trkpt lat="43.16613" lon="2.3576">
        <ele>207.5</ele>
        <time>2019-08-18T06:27:53.000Z</time>
      </trkpt>
      <trkpt lat="43.16614" lon="2.35763">
        <ele>207.7</ele>
        <time>2019-08-18T06:27:54.000Z</time>
      </trkpt>
      <trkpt lat="43.16615" lon="2.35765">
        <ele>208</ele>
        <time>2019-08-18T06:27:55.000Z</time>
      </trkpt>
      <trkpt lat="43.16616" lon="2.35766">
        <ele>208.3</ele>
        <time>2019-08-18T06:27:56.000Z</time>
      </trkpt>
      <trkpt lat="43.16618" lon="2.35768">
        <ele>208.6</ele>
        <time>2019-08-18T06:27:57.000Z</time>
      </trkpt>
      <trkpt lat="43.16619" lon="2.35769">
        <ele>208.9</ele>
        <time>2019-08-18T06:27:58.000Z</time>
      </trkpt>
      <trkpt lat="43.1662" lon="2.3577">
        <ele>209.2</ele>
        <time>2019-08-18T06:27:59.000Z</time>
      </trkpt>
      <trkpt lat="43.16622" lon="2.35771">
        <ele>209.5</ele>
        <time>2019-08-18T06:28:00.000Z</time>
      </trkpt>
      <trkpt lat="43.16624" lon="2.35772">
        <ele>209.8</ele>
        <time>2019-08-18T06:28:01.000Z</time>
      </trkpt>
      <trkpt lat="43.16625" lon="2.35773">
        <ele>210.1</ele>
        <time>2019-08-18T06:28:02.000Z</time>
      </trkpt>
      <trkpt lat="43.16627" lon="2.35773">
        <ele>210.4</ele>
        <time>2019-08-18T06:28:03.000Z</time>
      </trkpt>
      <trkpt lat="43.16628" lon="2.35774">
        <ele>210.6</ele>
        <time>2019-08-18T06:28:04.000Z</time>
      </trkpt>
      <trkpt lat="43.16629" lon="2.35774">
        <ele>210.9</ele>
        <time>2019-08-18T06:28:05.000Z</time>
      </trkpt>
      <trkpt lat="43.16631" lon="2.35775">
        <ele>211.1</ele>
        <time>2019-08-18T06:28:06.000Z</time>
      </trkpt>
      <trkpt lat="43.16632" lon="2.35775">
        <ele>211.3</ele>
        <time>2019-08-18T06:28:07.000Z</time>
      </trkpt>
      <trkpt lat="43.16633" lon="2.35776">
        <ele>211.5</ele>
        <time>2019-08-18T06:28:08.000Z</time>
      </trkpt>
      <trkpt lat="43.16634" lon="2.35777">
        <ele>211.7</ele>
        <time>2019-08-18T06:28:09.000Z</time>
      </trkpt>
      <trkpt lat="43.16635" lon="2.35778">
        <ele>211.9</ele>
        <time>2019-08-18T06:28:10.000Z</time>
      </trkpt>
      <trkpt lat="43.16635" lon="2.35779">
        <ele>212</ele>
        <time>2019-08-18T06:28:11.000Z</time>
      </trkpt>
      <trkpt lat="43.16636" lon="2.35781">
        <ele>212.1</ele>
        <time>2019-08-18T06:28:12.000Z</time>
      </trkpt>
      <trkpt lat="43.16636" lon="2.35782">
        <ele>212.2</ele>
        <time>2019-08-18T06:28:13.000Z</time>
      </trkpt>
      <trkpt lat="43.16636" lon="2.35783">
        <ele>212.3</ele>
        <time>2019-08-18T06:28:14.000Z</time>
      </trkpt>
      <trkpt lat="43.16636" lon="2.35785">
        <ele>212.4</ele>
        <time>2019-08-18T06:28:15.000Z</time>
      </trkpt>
      <trkpt lat="43.16636" lon="2.35786">
        <ele>212.5</ele>
        <time>2019-08-18T06:28:16.000Z</time>
      </trkpt>
      <trkpt lat="43.16637" lon="2.35788">
        <ele>212.7</ele>
        <time>2019-08-18T06:28:17.000Z</time>
      </trkpt>
      <trkpt lat="43.16637" lon="2.3579">
        <ele>212.8</ele>
        <time>2019-08-18T06:28:18.000Z</time>
      </trkpt>
      <trkpt lat="43.16638" lon="2.35792">
        <ele>213</ele>
        <time>2019-08-18T06:28:19.000Z</time>
      </trkpt>
      <trkpt lat="43.16638" lon="2.35794">
        <ele>213.1</ele>
        <time>2019-08-18T06:28:20.000Z</time>
      </trkpt>
      <trkpt lat="43.16638" lon="2.35796">
        <ele>213.3</ele>
        <time>2019-08-18T06:28:21.000Z</time>
      </trkpt>
      <trkpt lat="43.16638" lon="2.35798">
        <ele>213.3</ele>
        <time>2019-08-18T06:28:22.000Z</time>
      </trkpt>
      <trkpt lat="43.16638" lon="2.35799">
        <ele>213.4</ele>
        <time>2019-08-18T06:28:23.000Z</time>
      </trkpt>
      <trkpt lat="43.16638" lon="2.35801">
        <ele>213.4</ele>
        <time>2019-08-18T06:28:24.000Z</time>
      </trkpt>
      <trkpt lat="43.16638" lon="2.35802">
        <ele>213.4</ele>
        <time>2019-08-18T06:28:25.000Z</time>
      </trkpt>
      <trkpt lat="43.16637" lon="2.35804">
        <ele>213.4</ele>
        <time>2019-08-18T06:28:26.000Z</time>
      </trkpt>
      <trkpt lat="43.16637" lon="2.35806">
        <ele>213.5</ele>
        <time>2019-08-18T06:28:27.000Z</time>
      </trkpt>
      <trkpt lat="43.16636" lon="2.35808">
        <ele>213.5</ele>
        <time>2019-08-18T06:28:28.000Z</time>
      </trkpt>
      <trkpt lat="43.16636" lon="2.3581">
        <ele>213.5</ele>
        <time>2019-08-18T06:28:29.000Z</time>
      </trkpt>
      <trkpt lat="43.16635" lon="2.35812">
        <ele>213.5</ele>
        <time>2019-08-18T06:28:30.000Z</time>
      </trkpt>
      <trkpt lat="43.16635" lon="2.35814">
        <ele>213.6</ele>
        <time>2019-08-18T06:28:31.000Z</time>
      </trkpt>
      <trkpt lat="43.16635" lon="2.35816">
        <ele>213.6</ele>
        <time>2019-08-18T06:28:32.000Z</time>
      </trkpt>
      <trkpt lat="43.16634" lon="2.35818">
        <ele>213.7</ele>
        <time>2019-08-18T06:28:33.000Z</time>
      </trkpt>
      <trkpt lat="43.16634" lon="2.3582">
        <ele>213.8</ele>
        <time>2019-08-18T06:28:34.000Z</time>
      </trkpt>
      <trkpt lat="43.16634" lon="2.35822">
        <ele>213.9</ele>
        <time>2019-08-18T06:28:35.000Z</time>
      </trkpt>
      <trkpt lat="43.16635" lon="2.35824">
        <ele>214</ele>
        <time>2019-08-18T06:28:36.000Z</time>
      </trkpt>
      <trkpt lat="43.16635" lon="2.35826">
        <ele>214.1</ele>
        <time>2019-08-18T06:28:37.000Z</time>
      </trkpt>
      <trkpt lat="43.16636" lon="2.35828">
        <ele>214.3</ele>
        <time>2019-08-18T06:28:38.000Z</time>
      </trkpt>
      <trkpt lat="43.16637" lon="2.3583">
        <ele>214.5</ele>
        <time>2019-08-18T06:28:39.000Z</time>
      </trkpt>
      <trkpt lat="43.16638" lon="2.35831">
        <ele>214.7</ele>
        <time>2019-08-18T06:28:40.000Z</time>
      </trkpt>
      <trkpt lat="43.16639" lon="2.35833">
        <ele>215</ele>
        <time>2019-08-18T06:28:41.000Z</time>
      </trkpt>
      <trkpt lat="43.1664" lon="2.35834">
        <ele>215.2</ele>
        <time>2019-08-18T06:28:42.000Z</time>
      </trkpt>
      <trkpt lat="43.16641" lon="2.35836">
        <ele>215.3</ele>
        <time>2019-08-18T06:28:43.000Z</time>
      </trkpt>
      <trkpt lat="43.16642" lon="2.35837">
        <ele>215.5</ele>
        <time>2019-08-18T06:28:44.000Z</time>
      </trkpt>
      <trkpt lat="43.16643" lon="2.35839">
        <ele>215.6</ele>
        <time>2019-08-18T06:28:45.000Z</time>
      </trkpt>
      <trkpt lat="43.16643" lon="2.35841">
        <ele>215.7</ele>
        <time>2019-08-18T06:28:46.000Z</time>
      </trkpt>
      <trkpt lat="43.16644" lon="2.35842">
        <ele>215.8</ele>
        <time>2019-08-18T06:28:47.000Z</time>
      </trkpt>
      <trkpt lat="43.16645" lon="2.35844">
        <ele>215.9</ele>
        <time>2019-08-18T06:28:48.000Z</time>
      </trkpt>
      <trkpt lat="43.16646" lon="2.35845">
        <ele>216.1</ele>
        <time>2019-08-18T06:28:49.000Z</time>
      </trkpt>
      <trkpt lat="43.16647" lon="2.35847">
        <ele>216.4</ele>
        <time>2019-08-18T06:28:50.000Z</time>
      </trkpt>
      <trkpt lat="43.1665" lon="2.35848">
        <ele>216.7</ele>
        <time>2019-08-18T06:28:51.000Z</time>
      </trkpt>
      <trkpt lat="43.16652" lon="2.3585">
        <ele>217</ele>
        <time>2019-08-18T06:28:52.000Z</time>
      </trkpt>
      <trkpt lat="43.16653" lon="2.35851">
        <ele>217.2</ele>
        <time>2019-08-18T06:28:53.000Z</time>
      </trkpt>
      <trkpt lat="43.16654" lon="2.35853">
        <ele>217.3</ele>
        <time>2019-08-18T06:28:54.000Z</time>
      </trkpt>
      <trkpt lat="43.16655" lon="2.35856">
        <ele>217.4</ele>
        <time>2019-08-18T06:28:55.000Z</time>
      </trkpt>
      <trkpt lat="43.16655" lon="2.35858">
        <ele>217.5</ele>
        <time>2019-08-18T06:28:56.000Z</time>
      </trkpt>
      <trkpt lat="43.16655" lon="2.35861">
        <ele>217.5</ele>
        <time>2019-08-18T06:28:57.000Z</time>
      </trkpt>
      <trkpt lat="43.16655" lon="2.35864">
        <ele>217.6</ele>
        <time>2019-08-18T06:28:58.000Z</time>
      </trkpt>
      <trkpt lat="43.16656" lon="2.35866">
        <ele>217.6</ele>
        <time>2019-08-18T06:28:59.000Z</time>
      </trkpt>
      <trkpt lat="43.16656" lon="2.35869">
        <ele>217.7</ele>
        <time>2019-08-18T06:29:00.000Z</time>
      </trkpt>
      <trkpt lat="43.16656" lon="2.35872">
        <ele>217.7</ele>
        <time>2019-08-18T06:29:01.000Z</time>
      </trkpt>
      <trkpt lat="43.16657" lon="2.35875">
        <ele>217.8</ele>
        <time>2019-08-18T06:29:02.000Z</time>
      </trkpt>
      <trkpt lat="43.16657" lon="2.35877">
        <ele>217.8</ele>
        <time>2019-08-18T06:29:03.000Z</time>
      </trkpt>
      <trkpt lat="43.16657" lon="2.3588">
        <ele>217.9</ele>
        <time>2019-08-18T06:29:04.000Z</time>
      </trkpt>
      <trkpt lat="43.16657" lon="2.35883">
        <ele>217.9</ele>
        <time>2019-08-18T06:29:05.000Z</time>
      </trkpt>
      <trkpt lat="43.16657" lon="2.35885">
        <ele>217.9</ele>
        <time>2019-08-18T06:29:06.000Z</time>
      </trkpt>
      <trkpt lat="43.16657" lon="2.35888">
        <ele>217.9</ele>
        <time>2019-08-18T06:29:07.000Z</time>
      </trkpt>
      <trkpt lat="43.16656" lon="2.3589">
        <ele>217.8</ele>
        <time>2019-08-18T06:29:08.000Z</time>
      </trkpt>
      <trkpt lat="43.16656" lon="2.35892">
        <ele>217.8</ele>
        <time>2019-08-18T06:29:09.000Z</time>
      </trkpt>
      <trkpt lat="43.16655" lon="2.35895">
        <ele>217.7</ele>
        <time>2019-08-18T06:29:10.000Z</time>
      </trkpt>
      <trkpt lat="43.16654" lon="2.35897">
        <ele>217.6</ele>
        <time>2019-08-18T06:29:11.000Z</time>
      </trkpt>
      <trkpt lat="43.16653" lon="2.35899">
        <ele>217.6</ele>
        <time>2019-08-18T06:29:12.000Z</time>
      </trkpt>
      <trkpt lat="43.16653" lon="2.359">
        <ele>217.5</ele>
        <time>2019-08-18T06:29:13.000Z</time>
      </trkpt>
      <trkpt lat="43.16652" lon="2.35902">
        <ele>217.5</ele>
        <time>2019-08-18T06:29:14.000Z</time>
      </trkpt>
      <trkpt lat="43.16651" lon="2.35903">
        <ele>217.4</ele>
        <time>2019-08-18T06:29:15.000Z</time>
      </trkpt>
      <trkpt lat="43.16651" lon="2.35904">
        <ele>217.4</ele>
        <time>2019-08-18T06:29:16.000Z</time>
      </trkpt>
      <trkpt lat="43.16651" lon="2.35905">
        <ele>217.3</ele>
        <time>2019-08-18T06:29:17.000Z</time>
      </trkpt>
      <trkpt lat="43.1665" lon="2.35906">
        <ele>217.3</ele>
        <time>2019-08-18T06:29:18.000Z</time>
      </trkpt>
      <trkpt lat="43.1665" lon="2.35906">
        <ele>217.3</ele>
        <time>2019-08-18T06:29:19.000Z</time>
      </trkpt>
      <trkpt lat="43.1665" lon="2.35907">
        <ele>217.3</ele>
        <time>2019-08-18T06:29:20.000Z</time>
      </trkpt>
      <trkpt lat="43.1665" lon="2.35907">
        <ele>217.3</ele>
        <time>2019-08-18T06:29:21.000Z</time>
      </trkpt>
      <trkpt lat="43.1665" lon="2.35908">
        <ele>217.3</ele>
        <time>2019-08-18T06:29:22.000Z</time>
      </trkpt>
      <trkpt lat="43.1665" lon="2.35908">
        <ele>217.3</ele>
        <time>2019-08-18T06:29:23.000Z</time>
      </trkpt>
      <trkpt lat="43.1665" lon="2.35908">
        <ele>217.3</ele>
        <time>2019-08-18T06:29:24.000Z</time>
      </trkpt>
      <trkpt lat="43.1665" lon="2.35908">
        <ele>217.3</ele>
        <time>2019-08-18T06:29:25.000Z</time>
      </trkpt>
      <trkpt lat="43.1665" lon="2.35908">
        <ele>217.3</ele>
        <time>2019-08-18T06:29:26.000Z</time>
      </trkpt>
      <trkpt lat="43.1665" lon="2.35908">
        <ele>217.3</ele>
        <time>2019-08-18T06:29:27.000Z</time>
      </trkpt>
      <trkpt lat="43.1665" lon="2.35908">
        <ele>217.3</ele>
        <time>2019-08-18T06:29:28.000Z</time>
      </trkpt>
      <trkpt lat="43.1665" lon="2.35908">
        <ele>217.3</ele>
        <time>2019-08-18T06:29:29.000Z</time>
      </trkpt>
      <trkpt lat="43.1665" lon="2.35908">
        <ele>217.3</ele>
        <time>2019-08-18T06:29:30.000Z</time>
      </trkpt>
      <trkpt lat="43.1665" lon="2.35908">
        <ele>217.3</ele>
        <time>2019-08-18T06:29:31.000Z</time>
      </trkpt>
      <trkpt lat="43.1665" lon="2.35908">
        <ele>217.3</ele>
        <time>2019-08-18T06:29:32.000Z</time>
      </trkpt>
      <trkpt lat="43.1665" lon="2.35908">
        <ele>217.3</ele>
        <time>2019-08-18T06:29:33.000Z</time>
      </trkpt>
      <trkpt lat="43.1665" lon="2.35908">
        <ele>217.3</ele>
        <time>2019-08-18T06:29:34.000Z</time>
      </trkpt>
      <trkpt lat="43.1665" lon="2.35908">
        <ele>217.3</ele>
        <time>2019-08-18T06:29:35.000Z</time>
      </trkpt>
      <trkpt lat="43.1665" lon="2.35908">
        <ele>217.3</ele>
        <time>2019-08-18T06:29:36.000Z</time>
      </trkpt>
      <trkpt lat="43.1665" lon="2.35908">
        <ele>217.3</ele>
        <time>2019-08-18T06:29:37.000Z</time>
      </trkpt>
      <trkpt lat="43.1665" lon="2.35908">
        <ele>217.3</ele>
        <time>2019-08-18T06:29:38.000Z</time>
      </trkpt>
      <trkpt lat="43.1665" lon="2.35908">
        <ele>217.3</ele>
        <time>2019-08-18T06:29:39.000Z</time>
      </trkpt>
      <trkpt lat="43.1665" lon="2.35908">
        <ele>217.3</ele>
        <time>2019-08-18T06:29:40.000Z</time>
      </trkpt>
      <trkpt lat="43.1665" lon="2.35908">
        <ele>217.3</ele>
        <time>2019-08-18T06:29:41.000Z</time>
      </trkpt>
      <trkpt lat="43.1665" lon="2.35908">
        <ele>217.3</ele>
        <time>2019-08-18T06:29:42.000Z</time>
      </trkpt>
      <trkpt lat="43.1665" lon="2.35908">
        <ele>217.3</ele>
        <time>2019-08-18T06:29:43.000Z</time>
      </trkpt>
      <trkpt lat="43.1665" lon="2.35908">
        <ele>217.3</ele>
        <time>2019-08-18T06:29:44.000Z</time>
      </trkpt>
      <trkpt lat="43.1665" lon="2.35908">
        <ele>217.3</ele>
        <time>2019-08-18T06:29:45.000Z</time>
      </trkpt>
      <trkpt lat="43.1665" lon="2.35908">
        <ele>217.3</ele>
        <time>2019-08-18T06:29:46.000Z</time>
      </trkpt>
      <trkpt lat="43.1665" lon="2.35908">
        <ele>217.3</ele>
        <time>2019-08-18T06:29:47.000Z</time>
      </trkpt>
      <trkpt lat="43.1665" lon="2.35908">
        <ele>217.3</ele>
        <time>2019-08-18T06:29:48.000Z</time>
      </trkpt>
      <trkpt lat="43.1665" lon="2.35908">
        <ele>217.3</ele>
        <time>2019-08-18T06:29:49.000Z</time>
      </trkpt>
      <trkpt lat="43.1665" lon="2.35908">
        <ele>217.3</ele>
        <time>2019-08-18T06:29:50.000Z</time>
      </trkpt>
      <trkpt lat="43.1665" lon="2.35909">
        <ele>217.3</ele>
        <time>2019-08-18T06:29:51.000Z</time>
      </trkpt>
      <trkpt lat="43.1665" lon="2.3591">
        <ele>217.3</ele>
        <time>2019-08-18T06:29:52.000Z</time>
      </trkpt>
      <trkpt lat="43.1665" lon="2.35913">
        <ele>217.4</ele>
        <time>2019-08-18T06:29:53.000Z</time>
      </trkpt>
      <trkpt lat="43.1665" lon="2.35915">
        <ele>217.4</ele>
        <time>2019-08-18T06:29:54.000Z</time>
      </trkpt>
      <trkpt lat="43.1665" lon="2.35917">
        <ele>217.4</ele>
        <time>2019-08-18T06:29:55.000Z</time>
      </trkpt>
      <trkpt lat="43.1665" lon="2.35918">
        <ele>217.3</ele>
        <time>2019-08-18T06:29:56.000Z</time>
      </trkpt>
      <trkpt lat="43.16649" lon="2.3592">
        <ele>217.2</ele>
        <time>2019-08-18T06:29:57.000Z</time>
      </trkpt>
      <trkpt lat="43.16648" lon="2.35921">
        <ele>217</ele>
        <time>2019-08-18T06:29:58.000Z</time>
      </trkpt>
      <trkpt lat="43.16647" lon="2.35923">
        <ele>216.8</ele>
        <time>2019-08-18T06:29:59.000Z</time>
      </trkpt>
      <trkpt lat="43.16646" lon="2.35925">
        <ele>216.7</ele>
        <time>2019-08-18T06:30:00.000Z</time>
      </trkpt>
      <trkpt lat="43.16645" lon="2.35927">
        <ele>216.5</ele>
        <time>2019-08-18T06:30:01.000Z</time>
      </trkpt>
      <trkpt lat="43.16644" lon="2.35929">
        <ele>216.3</ele>
        <time>2019-08-18T06:30:02.000Z</time>
      </trkpt>
      <trkpt lat="43.16643" lon="2.35931">
        <ele>216.2</ele>
        <time>2019-08-18T06:30:03.000Z</time>
      </trkpt>
      <trkpt lat="43.16642" lon="2.35934">
        <ele>216.1</ele>
        <time>2019-08-18T06:30:04.000Z</time>
      </trkpt>
      <trkpt lat="43.16642" lon="2.35936">
        <ele>216</ele>
        <time>2019-08-18T06:30:05.000Z</time>
      </trkpt>
      <trkpt lat="43.16641" lon="2.35939">
        <ele>215.9</ele>
        <time>2019-08-18T06:30:06.000Z</time>
      </trkpt>
      <trkpt lat="43.16641" lon="2.35941">
        <ele>215.8</ele>
        <time>2019-08-18T06:30:07.000Z</time>
      </trkpt>
      <trkpt lat="43.1664" lon="2.35944">
        <ele>215.7</ele>
        <time>2019-08-18T06:30:08.000Z</time>
      </trkpt>
      <trkpt lat="43.1664" lon="2.35946">
        <ele>215.6</ele>
        <time>2019-08-18T06:30:09.000Z</time>
      </trkpt>
      <trkpt lat="43.16639" lon="2.35948">
        <ele>215.4</ele>
        <time>2019-08-18T06:30:10.000Z</time>
      </trkpt>
      <trkpt lat="43.16638" lon="2.35951">
        <ele>215.3</ele>
        <time>2019-08-18T06:30:11.000Z</time>
      </trkpt>
      <trkpt lat="43.16636" lon="2.35953">
        <ele>215.2</ele>
        <time>2019-08-18T06:30:12.000Z</time>
      </trkpt>
      <trkpt lat="43.16635" lon="2.35955">
        <ele>215.1</ele>
        <time>2019-08-18T06:30:13.000Z</time>
      </trkpt>
      <trkpt lat="43.16633" lon="2.35958">
        <ele>215</ele>
        <time>2019-08-18T06:30:14.000Z</time>
      </trkpt>
      <trkpt lat="43.16631" lon="2.3596">
        <ele>214.9</ele>
        <time>2019-08-18T06:30:15.000Z</time>
      </trkpt>
      <trkpt lat="43.16629" lon="2.35962">
        <ele>214.8</ele>
        <time>2019-08-18T06:30:16.000Z</time>
      </trkpt>
      <trkpt lat="43.16627" lon="2.35965">
        <ele>214.7</ele>
        <time>2019-08-18T06:30:17.000Z</time>
      </trkpt>
      <trkpt lat="43.16624" lon="2.35967">
        <ele>214.7</ele>
        <time>2019-08-18T06:30:18.000Z</time>
      </trkpt>
      <trkpt lat="43.16622" lon="2.35969">
        <ele>214.7</ele>
        <time>2019-08-18T06:30:19.000Z</time>
      </trkpt>
      <trkpt lat="43.1662" lon="2.35972">
        <ele>214.6</ele>
        <time>2019-08-18T06:30:20.000Z</time>
      </trkpt>
      <trkpt lat="43.16618" lon="2.35974">
        <ele>214.6</ele>
        <time>2019-08-18T06:30:21.000Z</time>
      </trkpt>
      <trkpt lat="43.16616" lon="2.35976">
        <ele>214.6</ele>
        <time>2019-08-18T06:30:22.000Z</time>
      </trkpt>
      <trkpt lat="43.16614" lon="2.35978">
        <ele>214.6</ele>
        <time>2019-08-18T06:30:23.000Z</time>
      </trkpt>
      <trkpt lat="43.16612" lon="2.35981">
        <ele>214.7</ele>
        <time>2019-08-18T06:30:24.000Z</time>
      </trkpt>
      <trkpt lat="43.1661" lon="2.35983">
        <ele>214.7</ele>
        <time>2019-08-18T06:30:25.000Z</time>
      </trkpt>
      <trkpt lat="43.16608" lon="2.35985">
        <ele>214.8</ele>
        <time>2019-08-18T06:30:26.000Z</time>
      </trkpt>
      <trkpt lat="43.16607" lon="2.35987">
        <ele>214.9</ele>
        <time>2019-08-18T06:30:27.000Z</time>
      </trkpt>
      <trkpt lat="43.16605" lon="2.35989">
        <ele>214.9</ele>
        <time>2019-08-18T06:30:28.000Z</time>
      </trkpt>
      <trkpt lat="43.16603" lon="2.35991">
        <ele>215</ele>
        <time>2019-08-18T06:30:29.000Z</time>
      </trkpt>
      <trkpt lat="43.16601" lon="2.35993">
        <ele>215.1</ele>
        <time>2019-08-18T06:30:30.000Z</time>
      </trkpt>
      <trkpt lat="43.166" lon="2.35995">
        <ele>215.2</ele>
        <time>2019-08-18T06:30:31.000Z</time>
      </trkpt>
      <trkpt lat="43.16598" lon="2.35997">
        <ele>215.3</ele>
        <time>2019-08-18T06:30:32.000Z</time>
      </trkpt>
      <trkpt lat="43.16597" lon="2.35998">
        <ele>215.5</ele>
        <time>2019-08-18T06:30:33.000Z</time>
      </trkpt>
      <trkpt lat="43.16595" lon="2.36">
        <ele>215.6</ele>
        <time>2019-08-18T06:30:34.000Z</time>
      </trkpt>
      <trkpt lat="43.16594" lon="2.36002">
        <ele>215.7</ele>
        <time>2019-08-18T06:30:35.000Z</time>
      </trkpt>
      <trkpt lat="43.16593" lon="2.36003">
        <ele>215.9</ele>
        <time>2019-08-18T06:30:36.000Z</time>
      </trkpt>
      <trkpt lat="43.16591" lon="2.36005">
        <ele>216</ele>
        <time>2019-08-18T06:30:37.000Z</time>
      </trkpt>
      <trkpt lat="43.1659" lon="2.36006">
        <ele>216.2</ele>
        <time>2019-08-18T06:30:38.000Z</time>
      </trkpt>
      <trkpt lat="43.16589" lon="2.36008">
        <ele>216.4</ele>
        <time>2019-08-18T06:30:39.000Z</time>
      </trkpt>
      <trkpt lat="43.16588" lon="2.36009">
        <ele>216.6</ele>
        <time>2019-08-18T06:30:40.000Z</time>
      </trkpt>
      <trkpt lat="43.16587" lon="2.36011">
        <ele>216.7</ele>
        <time>2019-08-18T06:30:41.000Z</time>
      </trkpt>
      <trkpt lat="43.16586" lon="2.36013">
        <ele>216.9</ele>
        <time>2019-08-18T06:30:42.000Z</time>
      </trkpt>
      <trkpt lat="43.16585" lon="2.36014">
        <ele>217.1</ele>
        <time>2019-08-18T06:30:43.000Z</time>
      </trkpt>
      <trkpt lat="43.16584" lon="2.36016">
        <ele>217.3</ele>
        <time>2019-08-18T06:30:44.000Z</time>
      </trkpt>
      <trkpt lat="43.16583" lon="2.36017">
        <ele>217.4</ele>
        <time>2019-08-18T06:30:45.000Z</time>
      </trkpt>
      <trkpt lat="43.16582" lon="2.36019">
        <ele>217.5</ele>
        <time>2019-08-18T06:30:46.000Z</time>
      </trkpt>
      <trkpt lat="43.16581" lon="2.36021">
        <ele>217.6</ele>
        <time>2019-08-18T06:30:47.000Z</time>
      </trkpt>
      <trkpt lat="43.16581" lon="2.36022">
        <ele>217.6</ele>
        <time>2019-08-18T06:30:48.000Z</time>
      </trkpt>
      <trkpt lat="43.1658" lon="2.36024">
        <ele>217.7</ele>
        <time>2019-08-18T06:30:49.000Z</time>
      </trkpt>
      <trkpt lat="43.16579" lon="2.36026">
        <ele>217.8</ele>
        <time>2019-08-18T06:30:50.000Z</time>
      </trkpt>
      <trkpt lat="43.16578" lon="2.36027">
        <ele>217.9</ele>
        <time>2019-08-18T06:30:51.000Z</time>
      </trkpt>
      <trkpt lat="43.16578" lon="2.36029">
        <ele>218</ele>
        <time>2019-08-18T06:30:52.000Z</time>
      </trkpt>
      <trkpt lat="43.16577" lon="2.36031">
        <ele>218.1</ele>
        <time>2019-08-18T06:30:53.000Z</time>
      </trkpt>
      <trkpt lat="43.16576" lon="2.36032">
        <ele>218.1</ele>
        <time>2019-08-18T06:30:54.000Z</time>
      </trkpt>
      <trkpt lat="43.16576" lon="2.36034">
        <ele>218.2</ele>
        <time>2019-08-18T06:30:55.000Z</time>
      </trkpt>
      <trkpt lat="43.16575" lon="2.36035">
        <ele>218.3</ele>
        <time>2019-08-18T06:30:56.000Z</time>
      </trkpt>
      <trkpt lat="43.16574" lon="2.36036">
        <ele>218.3</ele>
        <time>2019-08-18T06:30:57.000Z</time>
      </trkpt>
      <trkpt lat="43.16573" lon="2.36038">
        <ele>218.3</ele>
        <time>2019-08-18T06:30:58.000Z</time>
      </trkpt>
      <trkpt lat="43.16573" lon="2.36039">
        <ele>218.4</ele>
        <time>2019-08-18T06:30:59.000Z</time>
      </trkpt>
      <trkpt lat="43.16572" lon="2.3604">
        <ele>218.4</ele>
        <time>2019-08-18T06:31:00.000Z</time>
      </trkpt>
      <trkpt lat="43.16571" lon="2.36041">
        <ele>218.4</ele>
        <time>2019-08-18T06:31:01.000Z</time>
      </trkpt>
      <trkpt lat="43.1657" lon="2.36042">
        <ele>218.4</ele>
        <time>2019-08-18T06:31:02.000Z</time>
      </trkpt>
      <trkpt lat="43.16569" lon="2.36043">
        <ele>218.4</ele>
        <time>2019-08-18T06:31:03.000Z</time>
      </trkpt>
      <trkpt lat="43.16568" lon="2.36044">
        <ele>218.4</ele>
        <time>2019-08-18T06:31:04.000Z</time>
      </trkpt>
      <trkpt lat="43.16567" lon="2.36045">
        <ele>218.4</ele>
        <time>2019-08-18T06:31:05.000Z</time>
      </trkpt>
      <trkpt lat="43.16566" lon="2.36046">
        <ele>218.4</ele>
        <time>2019-08-18T06:31:06.000Z</time>
      </trkpt>
      <trkpt lat="43.16565" lon="2.36048">
        <ele>218.4</ele>
        <time>2019-08-18T06:31:07.000Z</time>
      </trkpt>
      <trkpt lat="43.16563" lon="2.3605">
        <ele>218.5</ele>
        <time>2019-08-18T06:31:08.000Z</time>
      </trkpt>
      <trkpt lat="43.16562" lon="2.36052">
        <ele>218.5</ele>
        <time>2019-08-18T06:31:09.000Z</time>
      </trkpt>
      <trkpt lat="43.16561" lon="2.36054">
        <ele>218.6</ele>
        <time>2019-08-18T06:31:10.000Z</time>
      </trkpt>
      <trkpt lat="43.16561" lon="2.36055">
        <ele>218.7</ele>
        <time>2019-08-18T06:31:11.000Z</time>
      </trkpt>
      <trkpt lat="43.1656" lon="2.36057">
        <ele>218.8</ele>
        <time>2019-08-18T06:31:12.000Z</time>
      </trkpt>
      <trkpt lat="43.1656" lon="2.36059">
        <ele>218.9</ele>
        <time>2019-08-18T06:31:13.000Z</time>
      </trkpt>
      <trkpt lat="43.1656" lon="2.36061">
        <ele>219</ele>
        <time>2019-08-18T06:31:14.000Z</time>
      </trkpt>
      <trkpt lat="43.16561" lon="2.36063">
        <ele>219.2</ele>
        <time>2019-08-18T06:31:15.000Z</time>
      </trkpt>
      <trkpt lat="43.16561" lon="2.36065">
        <ele>219.4</ele>
        <time>2019-08-18T06:31:16.000Z</time>
      </trkpt>
      <trkpt lat="43.16561" lon="2.36067">
        <ele>219.6</ele>
        <time>2019-08-18T06:31:17.000Z</time>
      </trkpt>
      <trkpt lat="43.16562" lon="2.36069">
        <ele>219.8</ele>
        <time>2019-08-18T06:31:18.000Z</time>
      </trkpt>
      <trkpt lat="43.16562" lon="2.36071">
        <ele>220</ele>
        <time>2019-08-18T06:31:19.000Z</time>
      </trkpt>
      <trkpt lat="43.16562" lon="2.36073">
        <ele>220.2</ele>
        <time>2019-08-18T06:31:20.000Z</time>
      </trkpt>
      <trkpt lat="43.16562" lon="2.36076">
        <ele>220.3</ele>
        <time>2019-08-18T06:31:21.000Z</time>
      </trkpt>
      <trkpt lat="43.16562" lon="2.36078">
        <ele>220.5</ele>
        <time>2019-08-18T06:31:22.000Z</time>
      </trkpt>
      <trkpt lat="43.16561" lon="2.3608">
        <ele>220.6</ele>
        <time>2019-08-18T06:31:23.000Z</time>
      </trkpt>
      <trkpt lat="43.1656" lon="2.36082">
        <ele>220.7</ele>
        <time>2019-08-18T06:31:24.000Z</time>
      </trkpt>
      <trkpt lat="43.1656" lon="2.36084">
        <ele>220.7</ele>
        <time>2019-08-18T06:31:25.000Z</time>
      </trkpt>
      <trkpt lat="43.16559" lon="2.36087">
        <ele>220.7</ele>
        <time>2019-08-18T06:31:26.000Z</time>
      </trkpt>
      <trkpt lat="43.16559" lon="2.36089">
        <ele>220.7</ele>
        <time>2019-08-18T06:31:27.000Z</time>
      </trkpt>
      <trkpt lat="43.16558" lon="2.36092">
        <ele>220.7</ele>
        <time>2019-08-18T06:31:28.000Z</time>
      </trkpt>
      <trkpt lat="43.16558" lon="2.36094">
        <ele>220.7</ele>
        <time>2019-08-18T06:31:29.000Z</time>
      </trkpt>
      <trkpt lat="43.16557" lon="2.36097">
        <ele>220.7</ele>
        <time>2019-08-18T06:31:30.000Z</time>
      </trkpt>
      <trkpt lat="43.16557" lon="2.361">
        <ele>220.7</ele>
        <time>2019-08-18T06:31:31.000Z</time>
      </trkpt>
      <trkpt lat="43.16557" lon="2.36102">
        <ele>220.7</ele>
        <time>2019-08-18T06:31:32.000Z</time>
      </trkpt>
      <trkpt lat="43.16557" lon="2.36105">
        <ele>220.7</ele>
        <time>2019-08-18T06:31:33.000Z</time>
      </trkpt>
      <trkpt lat="43.16557" lon="2.36108">
        <ele>220.8</ele>
        <time>2019-08-18T06:31:34.000Z</time>
      </trkpt>
      <trkpt lat="43.16557" lon="2.36111">
        <ele>220.8</ele>
        <time>2019-08-18T06:31:35.000Z</time>
      </trkpt>
      <trkpt lat="43.16557" lon="2.36113">
        <ele>220.8</ele>
        <time>2019-08-18T06:31:36.000Z</time>
      </trkpt>
      <trkpt lat="43.16557" lon="2.36115">
        <ele>220.8</ele>
        <time>2019-08-18T06:31:37.000Z</time>
      </trkpt>
      <trkpt lat="43.16557" lon="2.36118">
        <ele>220.8</ele>
        <time>2019-08-18T06:31:38.000Z</time>
      </trkpt>
      <trkpt lat="43.16556" lon="2.3612">
        <ele>220.8</ele>
        <time>2019-08-18T06:31:39.000Z</time>
      </trkpt>
      <trkpt lat="43.16556" lon="2.36122">
        <ele>220.8</ele>
        <time>2019-08-18T06:31:40.000Z</time>
      </trkpt>
      <trkpt lat="43.16556" lon="2.36125">
        <ele>220.8</ele>
        <time>2019-08-18T06:31:41.000Z</time>
      </trkpt>
      <trkpt lat="43.16555" lon="2.36127">
        <ele>220.8</ele>
        <time>2019-08-18T06:31:42.000Z</time>
      </trkpt>
      <trkpt lat="43.16555" lon="2.36129">
        <ele>220.8</ele>
        <time>2019-08-18T06:31:43.000Z</time>
      </trkpt>
      <trkpt lat="43.16555" lon="2.36132">
        <ele>220.8</ele>
        <time>2019-08-18T06:31:44.000Z</time>
      </trkpt>
      <trkpt lat="43.16554" lon="2.36135">
        <ele>220.8</ele>
        <time>2019-08-18T06:31:45.000Z</time>
      </trkpt>
      <trkpt lat="43.16554" lon="2.36137">
        <ele>220.9</ele>
        <time>2019-08-18T06:31:46.000Z</time>
      </trkpt>
      <trkpt lat="43.16554" lon="2.3614">
        <ele>220.9</ele>
        <time>2019-08-18T06:31:47.000Z</time>
      </trkpt>
      <trkpt lat="43.16554" lon="2.36143">
        <ele>220.9</ele>
        <time>2019-08-18T06:31:48.000Z</time>
      </trkpt>
      <trkpt lat="43.16553" lon="2.36146">
        <ele>220.9</ele>
        <time>2019-08-18T06:31:49.000Z</time>
      </trkpt>
      <trkpt lat="43.16553" lon="2.36149">
        <ele>221</ele>
        <time>2019-08-18T06:31:50.000Z</time>
      </trkpt>
      <trkpt lat="43.16554" lon="2.36152">
        <ele>221</ele>
        <time>2019-08-18T06:31:51.000Z</time>
      </trkpt>
      <trkpt lat="43.16554" lon="2.36154">
        <ele>221.1</ele>
        <time>2019-08-18T06:31:52.000Z</time>
      </trkpt>
      <trkpt lat="43.16554" lon="2.36157">
        <ele>221.1</ele>
        <time>2019-08-18T06:31:53.000Z</time>
      </trkpt>
      <trkpt lat="43.16554" lon="2.3616">
        <ele>221.2</ele>
        <time>2019-08-18T06:31:54.000Z</time>
      </trkpt>
      <trkpt lat="43.16555" lon="2.36163">
        <ele>221.3</ele>
        <time>2019-08-18T06:31:55.000Z</time>
      </trkpt>
      <trkpt lat="43.16556" lon="2.36166">
        <ele>221.3</ele>
        <time>2019-08-18T06:31:56.000Z</time>
      </trkpt>
      <trkpt lat="43.16556" lon="2.36169">
        <ele>221.4</ele>
        <time>2019-08-18T06:31:57.000Z</time>
      </trkpt>
      <trkpt lat="43.16557" lon="2.36171">
        <ele>221.4</ele>
        <time>2019-08-18T06:31:58.000Z</time>
      </trkpt>
      <trkpt lat="43.16558" lon="2.36174">
        <ele>221.4</ele>
        <time>2019-08-18T06:31:59.000Z</time>
      </trkpt>
      <trkpt lat="43.16559" lon="2.36176">
        <ele>221.4</ele>
        <time>2019-08-18T06:32:00.000Z</time>
      </trkpt>
      <trkpt lat="43.16559" lon="2.36178">
        <ele>221.5</ele>
        <time>2019-08-18T06:32:01.000Z</time>
      </trkpt>
      <trkpt lat="43.1656" lon="2.3618">
        <ele>221.5</ele>
        <time>2019-08-18T06:32:02.000Z</time>
      </trkpt>
      <trkpt lat="43.16561" lon="2.36181">
        <ele>221.5</ele>
        <time>2019-08-18T06:32:03.000Z</time>
      </trkpt>
      <trkpt lat="43.16561" lon="2.36182">
        <ele>221.5</ele>
        <time>2019-08-18T06:32:04.000Z</time>
      </trkpt>
      <trkpt lat="43.16561" lon="2.36183">
        <ele>221.5</ele>
        <time>2019-08-18T06:32:05.000Z</time>
      </trkpt>
      <trkpt lat="43.16561" lon="2.36184">
        <ele>221.5</ele>
        <time>2019-08-18T06:32:06.000Z</time>
      </trkpt>
      <trkpt lat="43.16561" lon="2.36184">
        <ele>221.5</ele>
        <time>2019-08-18T06:32:07.000Z</time>
      </trkpt>
      <trkpt lat="43.16561" lon="2.36184">
        <ele>221.5</ele>
        <time>2019-08-18T06:32:08.000Z</time>
      </trkpt>
      <trkpt lat="43.16561" lon="2.36184">
        <ele>221.5</ele>
        <time>2019-08-18T06:32:09.000Z</time>
      </trkpt>
      <trkpt lat="43.16561" lon="2.36184">
        <ele>221.5</ele>
        <time>2019-08-18T06:32:10.000Z</time>
      </trkpt>
      <trkpt lat="43.16562" lon="2.36185">
        <ele>221.5</ele>
        <time>2019-08-18T06:32:11.000Z</time>
      </trkpt>
      <trkpt lat="43.16562" lon="2.36185">
        <ele>221.5</ele>
        <time>2019-08-18T06:32:12.000Z</time>
      </trkpt>
      <trkpt lat="43.16562" lon="2.36186">
        <ele>221.5</ele>
        <time>2019-08-18T06:32:13.000Z</time>
      </trkpt>
      <trkpt lat="43.16562" lon="2.36187">
        <ele>221.5</ele>
        <time>2019-08-18T06:32:14.000Z</time>
      </trkpt>
      <trkpt lat="43.16563" lon="2.36188">
        <ele>221.5</ele>
        <time>2019-08-18T06:32:15.000Z</time>
      </trkpt>
      <trkpt lat="43.16563" lon="2.3619">
        <ele>221.5</ele>
        <time>2019-08-18T06:32:16.000Z</time>
      </trkpt>
      <trkpt lat="43.16562" lon="2.36191">
        <ele>221.5</ele>
        <time>2019-08-18T06:32:17.000Z</time>
      </trkpt>
      <trkpt lat="43.16562" lon="2.36193">
        <ele>221.4</ele>
        <time>2019-08-18T06:32:18.000Z</time>
      </trkpt>
      <trkpt lat="43.16562" lon="2.36195">
        <ele>221.4</ele>
        <time>2019-08-18T06:32:19.000Z</time>
      </trkpt>
      <trkpt lat="43.16562" lon="2.36196">
        <ele>221.4</ele>
        <time>2019-08-18T06:32:20.000Z</time>
      </trkpt>
      <trkpt lat="43.16561" lon="2.36198">
        <ele>221.3</ele>
        <time>2019-08-18T06:32:21.000Z</time>
      </trkpt>
      <trkpt lat="43.16561" lon="2.36199">
        <ele>221.3</ele>
        <time>2019-08-18T06:32:22.000Z</time>
      </trkpt>
      <trkpt lat="43.1656" lon="2.36201">
        <ele>221.3</ele>
        <time>2019-08-18T06:32:23.000Z</time>
      </trkpt>
      <trkpt lat="43.1656" lon="2.36202">
        <ele>221.3</ele>
        <time>2019-08-18T06:32:24.000Z</time>
      </trkpt>
      <trkpt lat="43.16559" lon="2.36204">
        <ele>221.2</ele>
        <time>2019-08-18T06:32:25.000Z</time>
      </trkpt>
      <trkpt lat="43.16559" lon="2.36206">
        <ele>221.2</ele>
        <time>2019-08-18T06:32:26.000Z</time>
      </trkpt>
      <trkpt lat="43.16558" lon="2.36207">
        <ele>221.2</ele>
        <time>2019-08-18T06:32:27.000Z</time>
      </trkpt>
      <trkpt lat="43.16558" lon="2.36209">
        <ele>221.2</ele>
        <time>2019-08-18T06:32:28.000Z</time>
      </trkpt>
      <trkpt lat="43.16557" lon="2.3621">
        <ele>221.2</ele>
        <time>2019-08-18T06:32:29.000Z</time>
      </trkpt>
      <trkpt lat="43.16557" lon="2.36212">
        <ele>221.2</ele>
        <time>2019-08-18T06:32:30.000Z</time>
      </trkpt>
      <trkpt lat="43.16556" lon="2.36213">
        <ele>221.2</ele>
        <time>2019-08-18T06:32:31.000Z</time>
      </trkpt>
      <trkpt lat="43.16556" lon="2.36215">
        <ele>221.1</ele>
        <time>2019-08-18T06:32:32.000Z</time>
      </trkpt>
      <trkpt lat="43.16555" lon="2.36216">
        <ele>221.1</ele>
        <time>2019-08-18T06:32:33.000Z</time>
      </trkpt>
      <trkpt lat="43.16555" lon="2.36218">
        <ele>221.1</ele>
        <time>2019-08-18T06:32:34.000Z</time>
      </trkpt>
      <trkpt lat="43.16554" lon="2.3622">
        <ele>221.1</ele>
        <time>2019-08-18T06:32:35.000Z</time>
      </trkpt>
      <trkpt lat="43.16554" lon="2.36221">
        <ele>221.1</ele>
        <time>2019-08-18T06:32:36.000Z</time>
      </trkpt>
      <trkpt lat="43.16553" lon="2.36223">
        <ele>221.1</ele>
        <time>2019-08-18T06:32:37.000Z</time>
      </trkpt>
      <trkpt lat="43.16553" lon="2.36224">
        <ele>221.1</ele>
        <time>2019-08-18T06:32:38.000Z</time>
      </trkpt>
      <trkpt lat="43.16552" lon="2.36226">
        <ele>221.1</ele>
        <time>2019-08-18T06:32:39.000Z</time>
      </trkpt>
      <trkpt lat="43.16552" lon="2.36227">
        <ele>221.1</ele>
        <time>2019-08-18T06:32:40.000Z</time>
      </trkpt>
      <trkpt lat="43.16551" lon="2.36229">
        <ele>221.1</ele>
        <time>2019-08-18T06:32:41.000Z</time>
      </trkpt>
      <trkpt lat="43.1655" lon="2.36231">
        <ele>221.1</ele>
        <time>2019-08-18T06:32:42.000Z</time>
      </trkpt>
      <trkpt lat="43.1655" lon="2.36232">
        <ele>221.2</ele>
        <time>2019-08-18T06:32:43.000Z</time>
      </trkpt>
      <trkpt lat="43.16549" lon="2.36234">
        <ele>221.2</ele>
        <time>2019-08-18T06:32:44.000Z</time>
      </trkpt>
      <trkpt lat="43.16549" lon="2.36235">
        <ele>221.2</ele>
        <time>2019-08-18T06:32:45.000Z</time>
      </trkpt>
      <trkpt lat="43.16549" lon="2.36237">
        <ele>221.2</ele>
        <time>2019-08-18T06:32:46.000Z</time>
      </trkpt>
      <trkpt lat="43.16548" lon="2.36239">
        <ele>221.2</ele>
        <time>2019-08-18T06:32:47.000Z</time>
      </trkpt>
      <trkpt lat="43.16548" lon="2.3624">
        <ele>221.2</ele>
        <time>2019-08-18T06:32:48.000Z</time>
      </trkpt>
      <trkpt lat="43.16547" lon="2.36242">
        <ele>221.3</ele>
        <time>2019-08-18T06:32:49.000Z</time>
      </trkpt>
      <trkpt lat="43.16546" lon="2.36243">
        <ele>221.3</ele>
        <time>2019-08-18T06:32:50.000Z</time>
      </trkpt>
      <trkpt lat="43.16546" lon="2.36245">
        <ele>221.3</ele>
        <time>2019-08-18T06:32:51.000Z</time>
      </trkpt>
      <trkpt lat="43.16545" lon="2.36247">
        <ele>221.3</ele>
        <time>2019-08-18T06:32:52.000Z</time>
      </trkpt>
      <trkpt lat="43.16545" lon="2.36248">
        <ele>221.4</ele>
        <time>2019-08-18T06:32:53.000Z</time>
      </trkpt>
      <trkpt lat="43.16544" lon="2.3625">
        <ele>221.4</ele>
        <time>2019-08-18T06:32:54.000Z</time>
      </trkpt>
      <trkpt lat="43.16544" lon="2.36252">
        <ele>221.4</ele>
        <time>2019-08-18T06:32:55.000Z</time>
      </trkpt>
      <trkpt lat="43.16543" lon="2.36254">
        <ele>221.4</ele>
        <time>2019-08-18T06:32:56.000Z</time>
      </trkpt>
      <trkpt lat="43.16543" lon="2.36255">
        <ele>221.3</ele>
        <time>2019-08-18T06:32:57.000Z</time>
      </trkpt>
      <trkpt lat="43.16542" lon="2.36257">
        <ele>221.3</ele>
        <time>2019-08-18T06:32:58.000Z</time>
      </trkpt>
      <trkpt lat="43.16541" lon="2.36259">
        <ele>221.3</ele>
        <time>2019-08-18T06:32:59.000Z</time>
      </trkpt>
      <trkpt lat="43.16541" lon="2.36261">
        <ele>221.3</ele>
        <time>2019-08-18T06:33:00.000Z</time>
      </trkpt>
      <trkpt lat="43.1654" lon="2.36262">
        <ele>221.3</ele>
        <time>2019-08-18T06:33:01.000Z</time>
      </trkpt>
      <trkpt lat="43.16539" lon="2.36264">
        <ele>221.3</ele>
        <time>2019-08-18T06:33:02.000Z</time>
      </trkpt>
      <trkpt lat="43.16539" lon="2.36266">
        <ele>221.3</ele>
        <time>2019-08-18T06:33:03.000Z</time>
      </trkpt>
      <trkpt lat="43.16538" lon="2.36268">
        <ele>221.3</ele>
        <time>2019-08-18T06:33:04.000Z</time>
      </trkpt>
      <trkpt lat="43.16537" lon="2.3627">
        <ele>221.3</ele>
        <time>2019-08-18T06:33:05.000Z</time>
      </trkpt>
      <trkpt lat="43.16537" lon="2.36272">
        <ele>221.3</ele>
        <time>2019-08-18T06:33:06.000Z</time>
      </trkpt>
      <trkpt lat="43.16536" lon="2.36274">
        <ele>221.3</ele>
        <time>2019-08-18T06:33:07.000Z</time>
      </trkpt>
      <trkpt lat="43.16535" lon="2.36276">
        <ele>221.3</ele>
        <time>2019-08-18T06:33:08.000Z</time>
      </trkpt>
      <trkpt lat="43.16534" lon="2.36278">
        <ele>221.3</ele>
        <time>2019-08-18T06:33:09.000Z</time>
      </trkpt>
      <trkpt lat="43.16533" lon="2.3628">
        <ele>221.3</ele>
        <time>2019-08-18T06:33:10.000Z</time>
      </trkpt>
      <trkpt lat="43.16532" lon="2.36282">
        <ele>221.3</ele>
        <time>2019-08-18T06:33:11.000Z</time>
      </trkpt>
      <trkpt lat="43.16531" lon="2.36284">
        <ele>221.4</ele>
        <time>2019-08-18T06:33:12.000Z</time>
      </trkpt>
      <trkpt lat="43.1653" lon="2.36286">
        <ele>221.4</ele>
        <time>2019-08-18T06:33:13.000Z</time>
      </trkpt>
      <trkpt lat="43.1653" lon="2.36288">
        <ele>221.4</ele>
        <time>2019-08-18T06:33:14.000Z</time>
      </trkpt>
      <trkpt lat="43.16529" lon="2.3629">
        <ele>221.5</ele>
        <time>2019-08-18T06:33:15.000Z</time>
      </trkpt>
      <trkpt lat="43.16528" lon="2.36292">
        <ele>221.5</ele>
        <time>2019-08-18T06:33:16.000Z</time>
      </trkpt>
      <trkpt lat="43.16526" lon="2.36294">
        <ele>221.6</ele>
        <time>2019-08-18T06:33:17.000Z</time>
      </trkpt>
      <trkpt lat="43.16525" lon="2.36296">
        <ele>221.6</ele>
        <time>2019-08-18T06:33:18.000Z</time>
      </trkpt>
      <trkpt lat="43.16524" lon="2.36298">
        <ele>221.7</ele>
        <time>2019-08-18T06:33:19.000Z</time>
      </trkpt>
      <trkpt lat="43.16523" lon="2.363">
        <ele>221.8</ele>
        <time>2019-08-18T06:33:20.000Z</time>
      </trkpt>
      <trkpt lat="43.16522" lon="2.36302">
        <ele>221.8</ele>
        <time>2019-08-18T06:33:21.000Z</time>
      </trkpt>
      <trkpt lat="43.16521" lon="2.36304">
        <ele>221.9</ele>
        <time>2019-08-18T06:33:22.000Z</time>
      </trkpt>
      <trkpt lat="43.1652" lon="2.36306">
        <ele>222</ele>
        <time>2019-08-18T06:33:23.000Z</time>
      </trkpt>
      <trkpt lat="43.16519" lon="2.36309">
        <ele>222.1</ele>
        <time>2019-08-18T06:33:24.000Z</time>
      </trkpt>
      <trkpt lat="43.16518" lon="2.36311">
        <ele>222.2</ele>
        <time>2019-08-18T06:33:25.000Z</time>
      </trkpt>
      <trkpt lat="43.16516" lon="2.36313">
        <ele>222.3</ele>
        <time>2019-08-18T06:33:26.000Z</time>
      </trkpt>
      <trkpt lat="43.16515" lon="2.36315">
        <ele>222.4</ele>
        <time>2019-08-18T06:33:27.000Z</time>
      </trkpt>
      <trkpt lat="43.16514" lon="2.36317">
        <ele>222.5</ele>
        <time>2019-08-18T06:33:28.000Z</time>
      </trkpt>
      <trkpt lat="43.16513" lon="2.36319">
        <ele>222.6</ele>
        <time>2019-08-18T06:33:29.000Z</time>
      </trkpt>
      <trkpt lat="43.16512" lon="2.36322">
        <ele>222.7</ele>
        <time>2019-08-18T06:33:30.000Z</time>
      </trkpt>
      <trkpt lat="43.16511" lon="2.36324">
        <ele>222.8</ele>
        <time>2019-08-18T06:33:31.000Z</time>
      </trkpt>
      <trkpt lat="43.1651" lon="2.36326">
        <ele>222.9</ele>
        <time>2019-08-18T06:33:32.000Z</time>
      </trkpt>
      <trkpt lat="43.16509" lon="2.36329">
        <ele>223</ele>
        <time>2019-08-18T06:33:33.000Z</time>
      </trkpt>
      <trkpt lat="43.16508" lon="2.36331">
        <ele>223.2</ele>
        <time>2019-08-18T06:33:34.000Z</time>
      </trkpt>
      <trkpt lat="43.16507" lon="2.36333">
        <ele>223.3</ele>
        <time>2019-08-18T06:33:35.000Z</time>
      </trkpt>
      <trkpt lat="43.16506" lon="2.36336">
        <ele>223.5</ele>
        <time>2019-08-18T06:33:36.000Z</time>
      </trkpt>
      <trkpt lat="43.16505" lon="2.36339">
        <ele>223.6</ele>
        <time>2019-08-18T06:33:37.000Z</time>
      </trkpt>
      <trkpt lat="43.16504" lon="2.36341">
        <ele>223.8</ele>
        <time>2019-08-18T06:33:38.000Z</time>
      </trkpt>
      <trkpt lat="43.16503" lon="2.36344">
        <ele>224</ele>
        <time>2019-08-18T06:33:39.000Z</time>
      </trkpt>
      <trkpt lat="43.16502" lon="2.36347">
        <ele>224.2</ele>
        <time>2019-08-18T06:33:40.000Z</time>
      </trkpt>
      <trkpt lat="43.16502" lon="2.36349">
        <ele>224.4</ele>
        <time>2019-08-18T06:33:41.000Z</time>
      </trkpt>
      <trkpt lat="43.16501" lon="2.36352">
        <ele>224.6</ele>
        <time>2019-08-18T06:33:42.000Z</time>
      </trkpt>
      <trkpt lat="43.165" lon="2.36355">
        <ele>224.7</ele>
        <time>2019-08-18T06:33:43.000Z</time>
      </trkpt>
      <trkpt lat="43.165" lon="2.36358">
        <ele>224.8</ele>
        <time>2019-08-18T06:33:44.000Z</time>
      </trkpt>
      <trkpt lat="43.16499" lon="2.36361">
        <ele>224.9</ele>
        <time>2019-08-18T06:33:45.000Z</time>
      </trkpt>
      <trkpt lat="43.16498" lon="2.36363">
        <ele>224.9</ele>
        <time>2019-08-18T06:33:46.000Z</time>
      </trkpt>
      <trkpt lat="43.16498" lon="2.36366">
        <ele>224.9</ele>
        <time>2019-08-18T06:33:47.000Z</time>
      </trkpt>
      <trkpt lat="43.16497" lon="2.36369">
        <ele>224.9</ele>
        <time>2019-08-18T06:33:48.000Z</time>
      </trkpt>
      <trkpt lat="43.16497" lon="2.36372">
        <ele>225</ele>
        <time>2019-08-18T06:33:49.000Z</time>
      </trkpt>
      <trkpt lat="43.16496" lon="2.36375">
        <ele>225</ele>
        <time>2019-08-18T06:33:50.000Z</time>
      </trkpt>
      <trkpt lat="43.16496" lon="2.36378">
        <ele>225</ele>
        <time>2019-08-18T06:33:51.000Z</time>
      </trkpt>
      <trkpt lat="43.16495" lon="2.36381">
        <ele>225.1</ele>
        <time>2019-08-18T06:33:52.000Z</time>
      </trkpt>
      <trkpt lat="43.16495" lon="2.36384">
        <ele>225.1</ele>
        <time>2019-08-18T06:33:53.000Z</time>
      </trkpt>
      <trkpt lat="43.16495" lon="2.36387">
        <ele>225.2</ele>
        <time>2019-08-18T06:33:54.000Z</time>
      </trkpt>
      <trkpt lat="43.16494" lon="2.3639">
        <ele>225.2</ele>
        <time>2019-08-18T06:33:55.000Z</time>
      </trkpt>
      <trkpt lat="43.16494" lon="2.36392">
        <ele>225.3</ele>
        <time>2019-08-18T06:33:56.000Z</time>
      </trkpt>
      <trkpt lat="43.16494" lon="2.36395">
        <ele>225.3</ele>
        <time>2019-08-18T06:33:57.000Z</time>
      </trkpt>
      <trkpt lat="43.16493" lon="2.36398">
        <ele>225.4</ele>
        <time>2019-08-18T06:33:58.000Z</time>
      </trkpt>
      <trkpt lat="43.16493" lon="2.36401">
        <ele>225.5</ele>
        <time>2019-08-18T06:33:59.000Z</time>
      </trkpt>
      <trkpt lat="43.16493" lon="2.36403">
        <ele>225.5</ele>
        <time>2019-08-18T06:34:00.000Z</time>
      </trkpt>
      <trkpt lat="43.16493" lon="2.36406">
        <ele>225.6</ele>
        <time>2019-08-18T06:34:01.000Z</time>
      </trkpt>
      <trkpt lat="43.16492" lon="2.36408">
        <ele>225.6</ele>
        <time>2019-08-18T06:34:02.000Z</time>
      </trkpt>
      <trkpt lat="43.16492" lon="2.3641">
        <ele>225.7</ele>
        <time>2019-08-18T06:34:03.000Z</time>
      </trkpt>
      <trkpt lat="43.16492" lon="2.36413">
        <ele>225.7</ele>
        <time>2019-08-18T06:34:04.000Z</time>
      </trkpt>
      <trkpt lat="43.16492" lon="2.36415">
        <ele>225.8</ele>
        <time>2019-08-18T06:34:05.000Z</time>
      </trkpt>
      <trkpt lat="43.16492" lon="2.36417">
        <ele>225.8</ele>
        <time>2019-08-18T06:34:06.000Z</time>
      </trkpt>
      <trkpt lat="43.16492" lon="2.36419">
        <ele>225.8</ele>
        <time>2019-08-18T06:34:07.000Z</time>
      </trkpt>
      <trkpt lat="43.16492" lon="2.36422">
        <ele>225.8</ele>
        <time>2019-08-18T06:34:08.000Z</time>
      </trkpt>
      <trkpt lat="43.16492" lon="2.36424">
        <ele>225.8</ele>
        <time>2019-08-18T06:34:09.000Z</time>
      </trkpt>
      <trkpt lat="43.16492" lon="2.36426">
        <ele>225.7</ele>
        <time>2019-08-18T06:34:10.000Z</time>
      </trkpt>
      <trkpt lat="43.16491" lon="2.36429">
        <ele>225.7</ele>
        <time>2019-08-18T06:34:11.000Z</time>
      </trkpt>
      <trkpt lat="43.16491" lon="2.36431">
        <ele>225.7</ele>
        <time>2019-08-18T06:34:12.000Z</time>
      </trkpt>
      <trkpt lat="43.16491" lon="2.36434">
        <ele>225.7</ele>
        <time>2019-08-18T06:34:13.000Z</time>
      </trkpt>
      <trkpt lat="43.16491" lon="2.36437">
        <ele>225.6</ele>
        <time>2019-08-18T06:34:14.000Z</time>
      </trkpt>
      <trkpt lat="43.16491" lon="2.3644">
        <ele>225.6</ele>
        <time>2019-08-18T06:34:15.000Z</time>
      </trkpt>
      <trkpt lat="43.16491" lon="2.36443">
        <ele>225.6</ele>
        <time>2019-08-18T06:34:16.000Z</time>
      </trkpt>
      <trkpt lat="43.16491" lon="2.36447">
        <ele>225.5</ele>
        <time>2019-08-18T06:34:17.000Z</time>
      </trkpt>
      <trkpt lat="43.1649" lon="2.3645">
        <ele>225.5</ele>
        <time>2019-08-18T06:34:18.000Z</time>
      </trkpt>
      <trkpt lat="43.16491" lon="2.36454">
        <ele>225.5</ele>
        <time>2019-08-18T06:34:19.000Z</time>
      </trkpt>
      <trkpt lat="43.16491" lon="2.36458">
        <ele>225.5</ele>
        <time>2019-08-18T06:34:20.000Z</time>
      </trkpt>
      <trkpt lat="43.16492" lon="2.36463">
        <ele>225.6</ele>
        <time>2019-08-18T06:34:21.000Z</time>
      </trkpt>
      <trkpt lat="43.16493" lon="2.36467">
        <ele>225.7</ele>
        <time>2019-08-18T06:34:22.000Z</time>
      </trkpt>
      <trkpt lat="43.16494" lon="2.36471">
        <ele>225.7</ele>
        <time>2019-08-18T06:34:23.000Z</time>
      </trkpt>
      <trkpt lat="43.16495" lon="2.36474">
        <ele>225.8</ele>
        <time>2019-08-18T06:34:24.000Z</time>
      </trkpt>
      <trkpt lat="43.16496" lon="2.36478">
        <ele>225.9</ele>
        <time>2019-08-18T06:34:25.000Z</time>
      </trkpt>
      <trkpt lat="43.16497" lon="2.36481">
        <ele>225.9</ele>
        <time>2019-08-18T06:34:26.000Z</time>
      </trkpt>
      <trkpt lat="43.16498" lon="2.36484">
        <ele>226</ele>
        <time>2019-08-18T06:34:27.000Z</time>
      </trkpt>
      <trkpt lat="43.16499" lon="2.36487">
        <ele>226</ele>
        <time>2019-08-18T06:34:28.000Z</time>
      </trkpt>
      <trkpt lat="43.16499" lon="2.3649">
        <ele>226.1</ele>
        <time>2019-08-18T06:34:29.000Z</time>
      </trkpt>
      <trkpt lat="43.165" lon="2.36493">
        <ele>226.1</ele>
        <time>2019-08-18T06:34:30.000Z</time>
      </trkpt>
      <trkpt lat="43.165" lon="2.36496">
        <ele>226</ele>
        <time>2019-08-18T06:34:31.000Z</time>
      </trkpt>
      <trkpt lat="43.16501" lon="2.36499">
        <ele>226</ele>
        <time>2019-08-18T06:34:32.000Z</time>
      </trkpt>
      <trkpt lat="43.16501" lon="2.36503">
        <ele>225.9</ele>
        <time>2019-08-18T06:34:33.000Z</time>
      </trkpt>
      <trkpt lat="43.16501" lon="2.36507">
        <ele>225.7</ele>
        <time>2019-08-18T06:34:34.000Z</time>
      </trkpt>
      <trkpt lat="43.165" lon="2.3651">
        <ele>225.6</ele>
        <time>2019-08-18T06:34:35.000Z</time>
      </trkpt>
      <trkpt lat="43.165" lon="2.36514">
        <ele>225.5</ele>
        <time>2019-08-18T06:34:36.000Z</time>
      </trkpt>
      <trkpt lat="43.16499" lon="2.36518">
        <ele>225.3</ele>
        <time>2019-08-18T06:34:37.000Z</time>
      </trkpt>
      <trkpt lat="43.16499" lon="2.36522">
        <ele>225.2</ele>
        <time>2019-08-18T06:34:38.000Z</time>
      </trkpt>
      <trkpt lat="43.16498" lon="2.36526">
        <ele>225</ele>
        <time>2019-08-18T06:34:39.000Z</time>
      </trkpt>
      <trkpt lat="43.16497" lon="2.36529">
        <ele>224.8</ele>
        <time>2019-08-18T06:34:40.000Z</time>
      </trkpt>
      <trkpt lat="43.16496" lon="2.36533">
        <ele>224.7</ele>
        <time>2019-08-18T06:34:41.000Z</time>
      </trkpt>
      <trkpt lat="43.16496" lon="2.36537">
        <ele>224.5</ele>
        <time>2019-08-18T06:34:42.000Z</time>
      </trkpt>
      <trkpt lat="43.16495" lon="2.3654">
        <ele>224.4</ele>
        <time>2019-08-18T06:34:43.000Z</time>
      </trkpt>
      <trkpt lat="43.16494" lon="2.36544">
        <ele>224.3</ele>
        <time>2019-08-18T06:34:44.000Z</time>
      </trkpt>
      <trkpt lat="43.16494" lon="2.36547">
        <ele>224.2</ele>
        <time>2019-08-18T06:34:45.000Z</time>
      </trkpt>
      <trkpt lat="43.16494" lon="2.36551">
        <ele>224</ele>
        <time>2019-08-18T06:34:46.000Z</time>
      </trkpt>
      <trkpt lat="43.16494" lon="2.36554">
        <ele>223.9</ele>
        <time>2019-08-18T06:34:47.000Z</time>
      </trkpt>
      <trkpt lat="43.16494" lon="2.36557">
        <ele>223.8</ele>
        <time>2019-08-18T06:34:48.000Z</time>
      </trkpt>
      <trkpt lat="43.16494" lon="2.36561">
        <ele>223.8</ele>
        <time>2019-08-18T06:34:49.000Z</time>
      </trkpt>
      <trkpt lat="43.16494" lon="2.36564">
        <ele>223.7</ele>
        <time>2019-08-18T06:34:50.000Z</time>
      </trkpt>
      <trkpt lat="43.16494" lon="2.36567">
        <ele>223.6</ele>
        <time>2019-08-18T06:34:51.000Z</time>
      </trkpt>
      <trkpt lat="43.16494" lon="2.3657">
        <ele>223.5</ele>
        <time>2019-08-18T06:34:52.000Z</time>
      </trkpt>
      <trkpt lat="43.16494" lon="2.36573">
        <ele>223.4</ele>
        <time>2019-08-18T06:34:53.000Z</time>
      </trkpt>
      <trkpt lat="43.16494" lon="2.36576">
        <ele>223.3</ele>
        <time>2019-08-18T06:34:54.000Z</time>
      </trkpt>
      <trkpt lat="43.16494" lon="2.36579">
        <ele>223.2</ele>
        <time>2019-08-18T06:34:55.000Z</time>
      </trkpt>
      <trkpt lat="43.16494" lon="2.36582">
        <ele>223.1</ele>
        <time>2019-08-18T06:34:56.000Z</time>
      </trkpt>
      <trkpt lat="43.16494" lon="2.36585">
        <ele>223</ele>
        <time>2019-08-18T06:34:57.000Z</time>
      </trkpt>
      <trkpt lat="43.16494" lon="2.36588">
        <ele>222.8</ele>
        <time>2019-08-18T06:34:58.000Z</time>
      </trkpt>
      <trkpt lat="43.16494" lon="2.36591">
        <ele>222.7</ele>
        <time>2019-08-18T06:34:59.000Z</time>
      </trkpt>
      <trkpt lat="43.16494" lon="2.36594">
        <ele>222.5</ele>
        <time>2019-08-18T06:35:00.000Z</time>
      </trkpt>
      <trkpt lat="43.16494" lon="2.36597">
        <ele>222.3</ele>
        <time>2019-08-18T06:35:01.000Z</time>
      </trkpt>
      <trkpt lat="43.16495" lon="2.36601">
        <ele>222.1</ele>
        <time>2019-08-18T06:35:02.000Z</time>
      </trkpt>
      <trkpt lat="43.16495" lon="2.36604">
        <ele>221.9</ele>
        <time>2019-08-18T06:35:03.000Z</time>
      </trkpt>
      <trkpt lat="43.16495" lon="2.36607">
        <ele>221.7</ele>
        <time>2019-08-18T06:35:04.000Z</time>
      </trkpt>
      <trkpt lat="43.16495" lon="2.3661">
        <ele>221.6</ele>
        <time>2019-08-18T06:35:05.000Z</time>
      </trkpt>
      <trkpt lat="43.16495" lon="2.36613">
        <ele>221.4</ele>
        <time>2019-08-18T06:35:06.000Z</time>
      </trkpt>
      <trkpt lat="43.16495" lon="2.36616">
        <ele>221.2</ele>
        <time>2019-08-18T06:35:07.000Z</time>
      </trkpt>
      <trkpt lat="43.16495" lon="2.36619">
        <ele>221.1</ele>
        <time>2019-08-18T06:35:08.000Z</time>
      </trkpt>
      <trkpt lat="43.16495" lon="2.36622">
        <ele>220.9</ele>
        <time>2019-08-18T06:35:09.000Z</time>
      </trkpt>
      <trkpt lat="43.16495" lon="2.36624">
        <ele>220.8</ele>
        <time>2019-08-18T06:35:10.000Z</time>
      </trkpt>
      <trkpt lat="43.16495" lon="2.36627">
        <ele>220.6</ele>
        <time>2019-08-18T06:35:11.000Z</time>
      </trkpt>
      <trkpt lat="43.16495" lon="2.36629">
        <ele>220.5</ele>
        <time>2019-08-18T06:35:12.000Z</time>
      </trkpt>
      <trkpt lat="43.16495" lon="2.36632">
        <ele>220.4</ele>
        <time>2019-08-18T06:35:13.000Z</time>
      </trkpt>
      <trkpt lat="43.16494" lon="2.36635">
        <ele>220.2</ele>
        <time>2019-08-18T06:35:14.000Z</time>
      </trkpt>
      <trkpt lat="43.16494" lon="2.36638">
        <ele>220.1</ele>
        <time>2019-08-18T06:35:15.000Z</time>
      </trkpt>
      <trkpt lat="43.16493" lon="2.3664">
        <ele>220</ele>
        <time>2019-08-18T06:35:16.000Z</time>
      </trkpt>
      <trkpt lat="43.16491" lon="2.36642">
        <ele>220.1</ele>
        <time>2019-08-18T06:35:17.000Z</time>
      </trkpt>
      <trkpt lat="43.16489" lon="2.36642">
        <ele>220.2</ele>
        <time>2019-08-18T06:35:18.000Z</time>
      </trkpt>
      <trkpt lat="43.16487" lon="2.36641">
        <ele>220.3</ele>
        <time>2019-08-18T06:35:19.000Z</time>
      </trkpt>
      <trkpt lat="43.16485" lon="2.36639">
        <ele>220.5</ele>
        <time>2019-08-18T06:35:20.000Z</time>
      </trkpt>
      <trkpt lat="43.16484" lon="2.36637">
        <ele>220.7</ele>
        <time>2019-08-18T06:35:21.000Z</time>
      </trkpt>
      <trkpt lat="43.16482" lon="2.36635">
        <ele>220.9</ele>
        <time>2019-08-18T06:35:22.000Z</time>
      </trkpt>
      <trkpt lat="43.16481" lon="2.36632">
        <ele>221.1</ele>
        <time>2019-08-18T06:35:23.000Z</time>
      </trkpt>
      <trkpt lat="43.16479" lon="2.36629">
        <ele>221.3</ele>
        <time>2019-08-18T06:35:24.000Z</time>
      </trkpt>
      <trkpt lat="43.16477" lon="2.36627">
        <ele>221.5</ele>
        <time>2019-08-18T06:35:25.000Z</time>
      </trkpt>
      <trkpt lat="43.16476" lon="2.36624">
        <ele>221.7</ele>
        <time>2019-08-18T06:35:26.000Z</time>
      </trkpt>
      <trkpt lat="43.16474" lon="2.36622">
        <ele>221.9</ele>
        <time>2019-08-18T06:35:27.000Z</time>
      </trkpt>
      <trkpt lat="43.16472" lon="2.3662">
        <ele>222</ele>
        <time>2019-08-18T06:35:28.000Z</time>
      </trkpt>
      <trkpt lat="43.16471" lon="2.36617">
        <ele>222.2</ele>
        <time>2019-08-18T06:35:29.000Z</time>
      </trkpt>
      <trkpt lat="43.16469" lon="2.36614">
        <ele>222.3</ele>
        <time>2019-08-18T06:35:30.000Z</time>
      </trkpt>
      <trkpt lat="43.16468" lon="2.36612">
        <ele>222.5</ele>
        <time>2019-08-18T06:35:31.000Z</time>
      </trkpt>
      <trkpt lat="43.16466" lon="2.36609">
        <ele>222.6</ele>
        <time>2019-08-18T06:35:32.000Z</time>
      </trkpt>
      <trkpt lat="43.16465" lon="2.36606">
        <ele>222.8</ele>
        <time>2019-08-18T06:35:33.000Z</time>
      </trkpt>
      <trkpt lat="43.16463" lon="2.36603">
        <ele>222.9</ele>
        <time>2019-08-18T06:35:34.000Z</time>
      </trkpt>
      <trkpt lat="43.16462" lon="2.36601">
        <ele>223</ele>
        <time>2019-08-18T06:35:35.000Z</time>
      </trkpt>
      <trkpt lat="43.1646" lon="2.36598">
        <ele>223.1</ele>
        <time>2019-08-18T06:35:36.000Z</time>
      </trkpt>
      <trkpt lat="43.16459" lon="2.36596">
        <ele>223.2</ele>
        <time>2019-08-18T06:35:37.000Z</time>
      </trkpt>
      <trkpt lat="43.16457" lon="2.36593">
        <ele>223.3</ele>
        <time>2019-08-18T06:35:38.000Z</time>
      </trkpt>
      <trkpt lat="43.16456" lon="2.36591">
        <ele>223.4</ele>
        <time>2019-08-18T06:35:39.000Z</time>
      </trkpt>
      <trkpt lat="43.16454" lon="2.36589">
        <ele>223.4</ele>
        <time>2019-08-18T06:35:40.000Z</time>
      </trkpt>
      <trkpt lat="43.16452" lon="2.36588">
        <ele>223.5</ele>
        <time>2019-08-18T06:35:41.000Z</time>
      </trkpt>
      <trkpt lat="43.1645" lon="2.36586">
        <ele>223.6</ele>
        <time>2019-08-18T06:35:42.000Z</time>
      </trkpt>
      <trkpt lat="43.16448" lon="2.36585">
        <ele>223.6</ele>
        <time>2019-08-18T06:35:43.000Z</time>
      </trkpt>
      <trkpt lat="43.16446" lon="2.36584">
        <ele>223.6</ele>
        <time>2019-08-18T06:35:44.000Z</time>
      </trkpt>
      <trkpt lat="43.16443" lon="2.36584">
        <ele>223.7</ele>
        <time>2019-08-18T06:35:45.000Z</time>
      </trkpt>
      <trkpt lat="43.16441" lon="2.36584">
        <ele>223.7</ele>
        <time>2019-08-18T06:35:46.000Z</time>
      </trkpt>
      <trkpt lat="43.16439" lon="2.36583">
        <ele>223.7</ele>
        <time>2019-08-18T06:35:47.000Z</time>
      </trkpt>
      <trkpt lat="43.16436" lon="2.36584">
        <ele>223.8</ele>
        <time>2019-08-18T06:35:48.000Z</time>
      </trkpt>
      <trkpt lat="43.16434" lon="2.36584">
        <ele>223.8</ele>
        <time>2019-08-18T06:35:49.000Z</time>
      </trkpt>
      <trkpt lat="43.16431" lon="2.36584">
        <ele>223.8</ele>
        <time>2019-08-18T06:35:50.000Z</time>
      </trkpt>
      <trkpt lat="43.16429" lon="2.36585">
        <ele>223.9</ele>
        <time>2019-08-18T06:35:51.000Z</time>
      </trkpt>
      <trkpt lat="43.16427" lon="2.36586">
        <ele>223.9</ele>
        <time>2019-08-18T06:35:52.000Z</time>
      </trkpt>
      <trkpt lat="43.16424" lon="2.36587">
        <ele>223.9</ele>
        <time>2019-08-18T06:35:53.000Z</time>
      </trkpt>
      <trkpt lat="43.16422" lon="2.36588">
        <ele>224</ele>
        <time>2019-08-18T06:35:54.000Z</time>
      </trkpt>
      <trkpt lat="43.1642" lon="2.36589">
        <ele>224</ele>
        <time>2019-08-18T06:35:55.000Z</time>
      </trkpt>
      <trkpt lat="43.16417" lon="2.3659">
        <ele>224.1</ele>
        <time>2019-08-18T06:35:56.000Z</time>
      </trkpt>
      <trkpt lat="43.16415" lon="2.36591">
        <ele>224.3</ele>
        <time>2019-08-18T06:35:57.000Z</time>
      </trkpt>
      <trkpt lat="43.16413" lon="2.36593">
        <ele>224.6</ele>
        <time>2019-08-18T06:35:58.000Z</time>
      </trkpt>
      <trkpt lat="43.16412" lon="2.36594">
        <ele>224.9</ele>
        <time>2019-08-18T06:35:59.000Z</time>
      </trkpt>
      <trkpt lat="43.1641" lon="2.36596">
        <ele>225.3</ele>
        <time>2019-08-18T06:36:00.000Z</time>
      </trkpt>
      <trkpt lat="43.16408" lon="2.36598">
        <ele>225.6</ele>
        <time>2019-08-18T06:36:01.000Z</time>
      </trkpt>
      <trkpt lat="43.16406" lon="2.366">
        <ele>225.8</ele>
        <time>2019-08-18T06:36:02.000Z</time>
      </trkpt>
      <trkpt lat="43.16405" lon="2.36602">
        <ele>226.1</ele>
        <time>2019-08-18T06:36:03.000Z</time>
      </trkpt>
      <trkpt lat="43.16403" lon="2.36604">
        <ele>226.4</ele>
        <time>2019-08-18T06:36:04.000Z</time>
      </trkpt>
      <trkpt lat="43.16402" lon="2.36607">
        <ele>226.6</ele>
        <time>2019-08-18T06:36:05.000Z</time>
      </trkpt>
      <trkpt lat="43.16401" lon="2.36609">
        <ele>226.8</ele>
        <time>2019-08-18T06:36:06.000Z</time>
      </trkpt>
      <trkpt lat="43.164" lon="2.36612">
        <ele>227</ele>
        <time>2019-08-18T06:36:07.000Z</time>
      </trkpt>
      <trkpt lat="43.164" lon="2.36615">
        <ele>227.1</ele>
        <time>2019-08-18T06:36:08.000Z</time>
      </trkpt>
      <trkpt lat="43.16399" lon="2.36618">
        <ele>227.2</ele>
        <time>2019-08-18T06:36:09.000Z</time>
      </trkpt>
      <trkpt lat="43.16399" lon="2.36622">
        <ele>227.3</ele>
        <time>2019-08-18T06:36:10.000Z</time>
      </trkpt>
      <trkpt lat="43.16399" lon="2.36626">
        <ele>227.3</ele>
        <time>2019-08-18T06:36:11.000Z</time>
      </trkpt>
      <trkpt lat="43.164" lon="2.36629">
        <ele>227.3</ele>
        <time>2019-08-18T06:36:12.000Z</time>
      </trkpt>
      <trkpt lat="43.164" lon="2.36633">
        <ele>227.3</ele>
        <time>2019-08-18T06:36:13.000Z</time>
      </trkpt>
      <trkpt lat="43.164" lon="2.36637">
        <ele>227.3</ele>
        <time>2019-08-18T06:36:14.000Z</time>
      </trkpt>
      <trkpt lat="43.16401" lon="2.3664">
        <ele>227.3</ele>
        <time>2019-08-18T06:36:15.000Z</time>
      </trkpt>
      <trkpt lat="43.16401" lon="2.36644">
        <ele>227.4</ele>
        <time>2019-08-18T06:36:16.000Z</time>
      </trkpt>
      <trkpt lat="43.16401" lon="2.36647">
        <ele>227.4</ele>
        <time>2019-08-18T06:36:17.000Z</time>
      </trkpt>
      <trkpt lat="43.164" lon="2.3665">
        <ele>227.6</ele>
        <time>2019-08-18T06:36:18.000Z</time>
      </trkpt>
      <trkpt lat="43.16399" lon="2.36653">
        <ele>227.7</ele>
        <time>2019-08-18T06:36:19.000Z</time>
      </trkpt>
      <trkpt lat="43.16399" lon="2.36656">
        <ele>227.9</ele>
        <time>2019-08-18T06:36:20.000Z</time>
      </trkpt>
      <trkpt lat="43.16398" lon="2.36659">
        <ele>228.1</ele>
        <time>2019-08-18T06:36:21.000Z</time>
      </trkpt>
      <trkpt lat="43.16397" lon="2.36662">
        <ele>228.3</ele>
        <time>2019-08-18T06:36:22.000Z</time>
      </trkpt>
      <trkpt lat="43.16396" lon="2.36665">
        <ele>228.5</ele>
        <time>2019-08-18T06:36:23.000Z</time>
      </trkpt>
      <trkpt lat="43.16395" lon="2.36668">
        <ele>228.6</ele>
        <time>2019-08-18T06:36:24.000Z</time>
      </trkpt>
      <trkpt lat="43.16394" lon="2.36671">
        <ele>228.6</ele>
        <time>2019-08-18T06:36:25.000Z</time>
      </trkpt>
      <trkpt lat="43.16393" lon="2.36675">
        <ele>228.6</ele>
        <time>2019-08-18T06:36:26.000Z</time>
      </trkpt>
      <trkpt lat="43.16392" lon="2.36678">
        <ele>228.6</ele>
        <time>2019-08-18T06:36:27.000Z</time>
      </trkpt>
      <trkpt lat="43.16392" lon="2.36681">
        <ele>228.6</ele>
        <time>2019-08-18T06:36:28.000Z</time>
      </trkpt>
      <trkpt lat="43.16391" lon="2.36685">
        <ele>228.5</ele>
        <time>2019-08-18T06:36:29.000Z</time>
      </trkpt>
      <trkpt lat="43.1639" lon="2.36688">
        <ele>228.5</ele>
        <time>2019-08-18T06:36:30.000Z</time>
      </trkpt>
      <trkpt lat="43.1639" lon="2.36692">
        <ele>228.4</ele>
        <time>2019-08-18T06:36:31.000Z</time>
      </trkpt>
      <trkpt lat="43.16389" lon="2.36695">
        <ele>228.3</ele>
        <time>2019-08-18T06:36:32.000Z</time>
      </trkpt>
      <trkpt lat="43.16389" lon="2.36698">
        <ele>228.3</ele>
        <time>2019-08-18T06:36:33.000Z</time>
      </trkpt>
      <trkpt lat="43.16389" lon="2.36702">
        <ele>228.2</ele>
        <time>2019-08-18T06:36:34.000Z</time>
      </trkpt>
      <trkpt lat="43.16388" lon="2.36705">
        <ele>228.1</ele>
        <time>2019-08-18T06:36:35.000Z</time>
      </trkpt>
      <trkpt lat="43.16388" lon="2.36709">
        <ele>228</ele>
        <time>2019-08-18T06:36:36.000Z</time>
      </trkpt>
      <trkpt lat="43.16388" lon="2.36712">
        <ele>227.9</ele>
        <time>2019-08-18T06:36:37.000Z</time>
      </trkpt>
      <trkpt lat="43.16387" lon="2.36716">
        <ele>227.8</ele>
        <time>2019-08-18T06:36:38.000Z</time>
      </trkpt>
      <trkpt lat="43.16387" lon="2.36719">
        <ele>227.7</ele>
        <time>2019-08-18T06:36:39.000Z</time>
      </trkpt>
      <trkpt lat="43.16386" lon="2.36723">
        <ele>227.6</ele>
        <time>2019-08-18T06:36:40.000Z</time>
      </trkpt>
      <trkpt lat="43.16386" lon="2.36727">
        <ele>227.5</ele>
        <time>2019-08-18T06:36:41.000Z</time>
      </trkpt>
      <trkpt lat="43.16385" lon="2.3673">
        <ele>227.5</ele>
        <time>2019-08-18T06:36:42.000Z</time>
      </trkpt>
      <trkpt lat="43.16384" lon="2.36734">
        <ele>227.4</ele>
        <time>2019-08-18T06:36:43.000Z</time>
      </trkpt>
      <trkpt lat="43.16384" lon="2.36737">
        <ele>227.3</ele>
        <time>2019-08-18T06:36:44.000Z</time>
      </trkpt>
      <trkpt lat="43.16383" lon="2.36741">
        <ele>227.3</ele>
        <time>2019-08-18T06:36:45.000Z</time>
      </trkpt>
      <trkpt lat="43.16382" lon="2.36744">
        <ele>227.2</ele>
        <time>2019-08-18T06:36:46.000Z</time>
      </trkpt>
      <trkpt lat="43.16382" lon="2.36748">
        <ele>227.2</ele>
        <time>2019-08-18T06:36:47.000Z</time>
      </trkpt>
      <trkpt lat="43.16381" lon="2.36751">
        <ele>227</ele>
        <time>2019-08-18T06:36:48.000Z</time>
      </trkpt>
      <trkpt lat="43.16381" lon="2.36755">
        <ele>226.7</ele>
        <time>2019-08-18T06:36:49.000Z</time>
      </trkpt>
      <trkpt lat="43.16381" lon="2.36758">
        <ele>226.4</ele>
        <time>2019-08-18T06:36:50.000Z</time>
      </trkpt>
      <trkpt lat="43.16381" lon="2.36762">
        <ele>226</ele>
        <time>2019-08-18T06:36:51.000Z</time>
      </trkpt>
      <trkpt lat="43.16382" lon="2.36766">
        <ele>225.5</ele>
        <time>2019-08-18T06:36:52.000Z</time>
      </trkpt>
      <trkpt lat="43.16382" lon="2.3677">
        <ele>225</ele>
        <time>2019-08-18T06:36:53.000Z</time>
      </trkpt>
      <trkpt lat="43.16384" lon="2.36774">
        <ele>224.5</ele>
        <time>2019-08-18T06:36:54.000Z</time>
      </trkpt>
      <trkpt lat="43.16385" lon="2.36778">
        <ele>224</ele>
        <time>2019-08-18T06:36:55.000Z</time>
      </trkpt>
      <trkpt lat="43.16386" lon="2.36782">
        <ele>223.5</ele>
        <time>2019-08-18T06:36:56.000Z</time>
      </trkpt>
      <trkpt lat="43.16387" lon="2.36785">
        <ele>223.1</ele>
        <time>2019-08-18T06:36:57.000Z</time>
      </trkpt>
      <trkpt lat="43.16388" lon="2.36788">
        <ele>222.7</ele>
        <time>2019-08-18T06:36:58.000Z</time>
      </trkpt>
      <trkpt lat="43.16388" lon="2.36791">
        <ele>222.4</ele>
        <time>2019-08-18T06:36:59.000Z</time>
      </trkpt>
      <trkpt lat="43.16388" lon="2.36793">
        <ele>222.2</ele>
        <time>2019-08-18T06:37:00.000Z</time>
      </trkpt>
      <trkpt lat="43.16388" lon="2.36795">
        <ele>222.1</ele>
        <time>2019-08-18T06:37:01.000Z</time>
      </trkpt>
      <trkpt lat="43.16387" lon="2.36796">
        <ele>222</ele>
        <time>2019-08-18T06:37:02.000Z</time>
      </trkpt>
      <trkpt lat="43.16386" lon="2.36797">
        <ele>222.1</ele>
        <time>2019-08-18T06:37:03.000Z</time>
      </trkpt>
      <trkpt lat="43.16385" lon="2.36798">
        <ele>222.1</ele>
        <time>2019-08-18T06:37:04.000Z</time>
      </trkpt>
      <trkpt lat="43.16384" lon="2.36798">
        <ele>222.3</ele>
        <time>2019-08-18T06:37:05.000Z</time>
      </trkpt>
      <trkpt lat="43.16382" lon="2.36798">
        <ele>222.5</ele>
        <time>2019-08-18T06:37:06.000Z</time>
      </trkpt>
      <trkpt lat="43.1638" lon="2.36799">
        <ele>222.6</ele>
        <time>2019-08-18T06:37:07.000Z</time>
      </trkpt>
      <trkpt lat="43.16379" lon="2.36799">
        <ele>222.8</ele>
        <time>2019-08-18T06:37:08.000Z</time>
      </trkpt>
      <trkpt lat="43.16377" lon="2.36799">
        <ele>223.1</ele>
        <time>2019-08-18T06:37:09.000Z</time>
      </trkpt>
      <trkpt lat="43.16375" lon="2.36799">
        <ele>223.3</ele>
        <time>2019-08-18T06:37:10.000Z</time>
      </trkpt>
      <trkpt lat="43.16374" lon="2.36799">
        <ele>223.5</ele>
        <time>2019-08-18T06:37:11.000Z</time>
      </trkpt>
      <trkpt lat="43.16372" lon="2.36799">
        <ele>223.7</ele>
        <time>2019-08-18T06:37:12.000Z</time>
      </trkpt>
      <trkpt lat="43.1637" lon="2.36799">
        <ele>223.9</ele>
        <time>2019-08-18T06:37:13.000Z</time>
      </trkpt>
      <trkpt lat="43.16369" lon="2.36799">
        <ele>224.1</ele>
        <time>2019-08-18T06:37:14.000Z</time>
      </trkpt>
      <trkpt lat="43.16367" lon="2.368">
        <ele>224.3</ele>
        <time>2019-08-18T06:37:15.000Z</time>
      </trkpt>
      <trkpt lat="43.16365" lon="2.368">
        <ele>224.5</ele>
        <time>2019-08-18T06:37:16.000Z</time>
      </trkpt>
      <trkpt lat="43.16364" lon="2.368">
        <ele>224.7</ele>
        <time>2019-08-18T06:37:17.000Z</time>
      </trkpt>
      <trkpt lat="43.16362" lon="2.368">
        <ele>224.9</ele>
        <time>2019-08-18T06:37:18.000Z</time>
      </trkpt>
      <trkpt lat="43.1636" lon="2.368">
        <ele>225.1</ele>
        <time>2019-08-18T06:37:19.000Z</time>
      </trkpt>
      <trkpt lat="43.16359" lon="2.36801">
        <ele>225.2</ele>
        <time>2019-08-18T06:37:20.000Z</time>
      </trkpt>
      <trkpt lat="43.16357" lon="2.36801">
        <ele>225.5</ele>
        <time>2019-08-18T06:37:21.000Z</time>
      </trkpt>
      <trkpt lat="43.16355" lon="2.36802">
        <ele>225.7</ele>
        <time>2019-08-18T06:37:22.000Z</time>
      </trkpt>
      <trkpt lat="43.16353" lon="2.36802">
        <ele>225.9</ele>
        <time>2019-08-18T06:37:23.000Z</time>
      </trkpt>
      <trkpt lat="43.16351" lon="2.36802">
        <ele>226.1</ele>
        <time>2019-08-18T06:37:24.000Z</time>
      </trkpt>
      <trkpt lat="43.16349" lon="2.36802">
        <ele>226.3</ele>
        <time>2019-08-18T06:37:25.000Z</time>
      </trkpt>
      <trkpt lat="43.16347" lon="2.36802">
        <ele>226.6</ele>
        <time>2019-08-18T06:37:26.000Z</time>
      </trkpt>
      <trkpt lat="43.16345" lon="2.36802">
        <ele>226.9</ele>
        <time>2019-08-18T06:37:27.000Z</time>
      </trkpt>
      <trkpt lat="43.16343" lon="2.36802">
        <ele>227.2</ele>
        <time>2019-08-18T06:37:28.000Z</time>
      </trkpt>
      <trkpt lat="43.16341" lon="2.36801">
        <ele>227.5</ele>
        <time>2019-08-18T06:37:29.000Z</time>
      </trkpt>
      <trkpt lat="43.16339" lon="2.36801">
        <ele>227.8</ele>
        <time>2019-08-18T06:37:30.000Z</time>
      </trkpt>
      <trkpt lat="43.16337" lon="2.368">
        <ele>228.1</ele>
        <time>2019-08-18T06:37:31.000Z</time>
      </trkpt>
      <trkpt lat="43.16335" lon="2.36799">
        <ele>228.5</ele>
        <time>2019-08-18T06:37:32.000Z</time>
      </trkpt>
      <trkpt lat="43.16334" lon="2.36798">
        <ele>228.8</ele>
        <time>2019-08-18T06:37:33.000Z</time>
      </trkpt>
      <trkpt lat="43.16332" lon="2.36797">
        <ele>228.9</ele>
        <time>2019-08-18T06:37:34.000Z</time>
      </trkpt>
      <trkpt lat="43.1633" lon="2.36795">
        <ele>229</ele>
        <time>2019-08-18T06:37:35.000Z</time>
      </trkpt>
      <trkpt lat="43.16329" lon="2.36794">
        <ele>229</ele>
        <time>2019-08-18T06:37:36.000Z</time>
      </trkpt>
      <trkpt lat="43.16327" lon="2.36792">
        <ele>229.1</ele>
        <time>2019-08-18T06:37:37.000Z</time>
      </trkpt>
      <trkpt lat="43.16325" lon="2.36791">
        <ele>229.2</ele>
        <time>2019-08-18T06:37:38.000Z</time>
      </trkpt>
      <trkpt lat="43.16324" lon="2.36789">
        <ele>229.3</ele>
        <time>2019-08-18T06:37:39.000Z</time>
      </trkpt>
      <trkpt lat="43.16322" lon="2.36788">
        <ele>229.4</ele>
        <time>2019-08-18T06:37:40.000Z</time>
      </trkpt>
      <trkpt lat="43.1632" lon="2.36786">
        <ele>229.4</ele>
        <time>2019-08-18T06:37:41.000Z</time>
      </trkpt>
      <trkpt lat="43.16319" lon="2.36784">
        <ele>229.5</ele>
        <time>2019-08-18T06:37:42.000Z</time>
      </trkpt>
      <trkpt lat="43.16317" lon="2.36782">
        <ele>229.6</ele>
        <time>2019-08-18T06:37:43.000Z</time>
      </trkpt>
      <trkpt lat="43.16315" lon="2.3678">
        <ele>229.7</ele>
        <time>2019-08-18T06:37:44.000Z</time>
      </trkpt>
      <trkpt lat="43.16313" lon="2.36778">
        <ele>229.8</ele>
        <time>2019-08-18T06:37:45.000Z</time>
      </trkpt>
      <trkpt lat="43.16311" lon="2.36776">
        <ele>229.8</ele>
        <time>2019-08-18T06:37:46.000Z</time>
      </trkpt>
      <trkpt lat="43.16309" lon="2.36774">
        <ele>229.9</ele>
        <time>2019-08-18T06:37:47.000Z</time>
      </trkpt>
      <trkpt lat="43.16307" lon="2.36772">
        <ele>229.9</ele>
        <time>2019-08-18T06:37:48.000Z</time>
      </trkpt>
      <trkpt lat="43.16305" lon="2.3677">
        <ele>230</ele>
        <time>2019-08-18T06:37:49.000Z</time>
      </trkpt>
      <trkpt lat="43.16303" lon="2.36768">
        <ele>230</ele>
        <time>2019-08-18T06:37:50.000Z</time>
      </trkpt>
      <trkpt lat="43.16301" lon="2.36765">
        <ele>230</ele>
        <time>2019-08-18T06:37:51.000Z</time>
      </trkpt>
      <trkpt lat="43.16299" lon="2.36763">
        <ele>230.1</ele>
        <time>2019-08-18T06:37:52.000Z</time>
      </trkpt>
      <trkpt lat="43.16297" lon="2.36761">
        <ele>230.1</ele>
        <time>2019-08-18T06:37:53.000Z</time>
      </trkpt>
      <trkpt lat="43.16295" lon="2.36758">
        <ele>230.2</ele>
        <time>2019-08-18T06:37:54.000Z</time>
      </trkpt>
      <trkpt lat="43.16293" lon="2.36756">
        <ele>230.2</ele>
        <time>2019-08-18T06:37:55.000Z</time>
      </trkpt>
      <trkpt lat="43.16292" lon="2.36753">
        <ele>230.3</ele>
        <time>2019-08-18T06:37:56.000Z</time>
      </trkpt>
      <trkpt lat="43.1629" lon="2.3675">
        <ele>230.3</ele>
        <time>2019-08-18T06:37:57.000Z</time>
      </trkpt>
      <trkpt lat="43.16289" lon="2.36747">
        <ele>230.3</ele>
        <time>2019-08-18T06:37:58.000Z</time>
      </trkpt>
      <trkpt lat="43.16287" lon="2.36744">
        <ele>230.3</ele>
        <time>2019-08-18T06:37:59.000Z</time>
      </trkpt>
      <trkpt lat="43.16286" lon="2.36741">
        <ele>230.3</ele>
        <time>2019-08-18T06:38:00.000Z</time>
      </trkpt>
      <trkpt lat="43.16285" lon="2.36738">
        <ele>230.2</ele>
        <time>2019-08-18T06:38:01.000Z</time>
      </trkpt>
      <trkpt lat="43.16284" lon="2.36734">
        <ele>230.2</ele>
        <time>2019-08-18T06:38:02.000Z</time>
      </trkpt>
      <trkpt lat="43.16283" lon="2.36731">
        <ele>230.2</ele>
        <time>2019-08-18T06:38:03.000Z</time>
      </trkpt>
      <trkpt lat="43.16282" lon="2.36728">
        <ele>230.2</ele>
        <time>2019-08-18T06:38:04.000Z</time>
      </trkpt>
      <trkpt lat="43.16281" lon="2.36725">
        <ele>230.1</ele>
        <time>2019-08-18T06:38:05.000Z</time>
      </trkpt>
      <trkpt lat="43.1628" lon="2.36722">
        <ele>230.1</ele>
        <time>2019-08-18T06:38:06.000Z</time>
      </trkpt>
      <trkpt lat="43.16279" lon="2.36719">
        <ele>230.1</ele>
        <time>2019-08-18T06:38:07.000Z</time>
      </trkpt>
      <trkpt lat="43.16278" lon="2.36716">
        <ele>230.1</ele>
        <time>2019-08-18T06:38:08.000Z</time>
      </trkpt>
      <trkpt lat="43.16277" lon="2.36713">
        <ele>230</ele>
        <time>2019-08-18T06:38:09.000Z</time>
      </trkpt>
      <trkpt lat="43.16277" lon="2.3671">
        <ele>230</ele>
        <time>2019-08-18T06:38:10.000Z</time>
      </trkpt>
      <trkpt lat="43.16276" lon="2.36707">
        <ele>230</ele>
        <time>2019-08-18T06:38:11.000Z</time>
      </trkpt>
      <trkpt lat="43.16275" lon="2.36704">
        <ele>229.9</ele>
        <time>2019-08-18T06:38:12.000Z</time>
      </trkpt>
      <trkpt lat="43.16274" lon="2.36702">
        <ele>229.9</ele>
        <time>2019-08-18T06:38:13.000Z</time>
      </trkpt>
      <trkpt lat="43.16274" lon="2.36699">
        <ele>229.8</ele>
        <time>2019-08-18T06:38:14.000Z</time>
      </trkpt>
      <trkpt lat="43.16273" lon="2.36696">
        <ele>229.8</ele>
        <time>2019-08-18T06:38:15.000Z</time>
      </trkpt>
      <trkpt lat="43.16272" lon="2.36693">
        <ele>229.8</ele>
        <time>2019-08-18T06:38:16.000Z</time>
      </trkpt>
      <trkpt lat="43.16271" lon="2.36691">
        <ele>229.7</ele>
        <time>2019-08-18T06:38:17.000Z</time>
      </trkpt>
      <trkpt lat="43.16271" lon="2.36688">
        <ele>229.7</ele>
        <time>2019-08-18T06:38:18.000Z</time>
      </trkpt>
      <trkpt lat="43.1627" lon="2.36685">
        <ele>229.6</ele>
        <time>2019-08-18T06:38:19.000Z</time>
      </trkpt>
      <trkpt lat="43.16269" lon="2.36682">
        <ele>229.6</ele>
        <time>2019-08-18T06:38:20.000Z</time>
      </trkpt>
      <trkpt lat="43.16269" lon="2.36679">
        <ele>229.5</ele>
        <time>2019-08-18T06:38:21.000Z</time>
      </trkpt>
      <trkpt lat="43.16268" lon="2.36676">
        <ele>229.5</ele>
        <time>2019-08-18T06:38:22.000Z</time>
      </trkpt>
      <trkpt lat="43.16267" lon="2.36673">
        <ele>229.4</ele>
        <time>2019-08-18T06:38:23.000Z</time>
      </trkpt>
      <trkpt lat="43.16266" lon="2.3667">
        <ele>229.3</ele>
        <time>2019-08-18T06:38:24.000Z</time>
      </trkpt>
      <trkpt lat="43.16266" lon="2.36667">
        <ele>229.3</ele>
        <time>2019-08-18T06:38:25.000Z</time>
      </trkpt>
      <trkpt lat="43.16265" lon="2.36664">
        <ele>229.1</ele>
        <time>2019-08-18T06:38:26.000Z</time>
      </trkpt>
      <trkpt lat="43.16264" lon="2.36661">
        <ele>228.9</ele>
        <time>2019-08-18T06:38:27.000Z</time>
      </trkpt>
      <trkpt lat="43.16264" lon="2.36658">
        <ele>228.7</ele>
        <time>2019-08-18T06:38:28.000Z</time>
      </trkpt>
      <trkpt lat="43.16263" lon="2.36655">
        <ele>228.5</ele>
        <time>2019-08-18T06:38:29.000Z</time>
      </trkpt>
      <trkpt lat="43.16262" lon="2.36652">
        <ele>228.4</ele>
        <time>2019-08-18T06:38:30.000Z</time>
      </trkpt>
      <trkpt lat="43.16261" lon="2.36649">
        <ele>228.2</ele>
        <time>2019-08-18T06:38:31.000Z</time>
      </trkpt>
      <trkpt lat="43.1626" lon="2.36645">
        <ele>228</ele>
        <time>2019-08-18T06:38:32.000Z</time>
      </trkpt>
      <trkpt lat="43.1626" lon="2.36642">
        <ele>227.8</ele>
        <time>2019-08-18T06:38:33.000Z</time>
      </trkpt>
      <trkpt lat="43.16259" lon="2.36638">
        <ele>227.6</ele>
        <time>2019-08-18T06:38:34.000Z</time>
      </trkpt>
      <trkpt lat="43.16258" lon="2.36635">
        <ele>227.4</ele>
        <time>2019-08-18T06:38:35.000Z</time>
      </trkpt>
      <trkpt lat="43.16257" lon="2.36631">
        <ele>227.2</ele>
        <time>2019-08-18T06:38:36.000Z</time>
      </trkpt>
      <trkpt lat="43.16256" lon="2.36628">
        <ele>227</ele>
        <time>2019-08-18T06:38:37.000Z</time>
      </trkpt>
      <trkpt lat="43.16256" lon="2.36624">
        <ele>226.8</ele>
        <time>2019-08-18T06:38:38.000Z</time>
      </trkpt>
      <trkpt lat="43.16255" lon="2.36621">
        <ele>226.6</ele>
        <time>2019-08-18T06:38:39.000Z</time>
      </trkpt>
      <trkpt lat="43.16254" lon="2.36617">
        <ele>226.4</ele>
        <time>2019-08-18T06:38:40.000Z</time>
      </trkpt>
      <trkpt lat="43.16254" lon="2.36614">
        <ele>226.3</ele>
        <time>2019-08-18T06:38:41.000Z</time>
      </trkpt>
      <trkpt lat="43.16253" lon="2.3661">
        <ele>226.1</ele>
        <time>2019-08-18T06:38:42.000Z</time>
      </trkpt>
      <trkpt lat="43.16253" lon="2.36607">
        <ele>226</ele>
        <time>2019-08-18T06:38:43.000Z</time>
      </trkpt>
      <trkpt lat="43.16253" lon="2.36603">
        <ele>225.8</ele>
        <time>2019-08-18T06:38:44.000Z</time>
      </trkpt>
      <trkpt lat="43.16252" lon="2.366">
        <ele>225.7</ele>
        <time>2019-08-18T06:38:45.000Z</time>
      </trkpt>
      <trkpt lat="43.16252" lon="2.36596">
        <ele>225.6</ele>
        <time>2019-08-18T06:38:46.000Z</time>
      </trkpt>
      <trkpt lat="43.16252" lon="2.36593">
        <ele>225.5</ele>
        <time>2019-08-18T06:38:47.000Z</time>
      </trkpt>
      <trkpt lat="43.16252" lon="2.36589">
        <ele>225.4</ele>
        <time>2019-08-18T06:38:48.000Z</time>
      </trkpt>
      <trkpt lat="43.16252" lon="2.36586">
        <ele>225.3</ele>
        <time>2019-08-18T06:38:49.000Z</time>
      </trkpt>
      <trkpt lat="43.16252" lon="2.36582">
        <ele>225.2</ele>
        <time>2019-08-18T06:38:50.000Z</time>
      </trkpt>
      <trkpt lat="43.16252" lon="2.36579">
        <ele>225.1</ele>
        <time>2019-08-18T06:38:51.000Z</time>
      </trkpt>
      <trkpt lat="43.16252" lon="2.36576">
        <ele>224.9</ele>
        <time>2019-08-18T06:38:52.000Z</time>
      </trkpt>
      <trkpt lat="43.16252" lon="2.36572">
        <ele>224.8</ele>
        <time>2019-08-18T06:38:53.000Z</time>
      </trkpt>
      <trkpt lat="43.16253" lon="2.36569">
        <ele>224.6</ele>
        <time>2019-08-18T06:38:54.000Z</time>
      </trkpt>
      <trkpt lat="43.16253" lon="2.36565">
        <ele>224.5</ele>
        <time>2019-08-18T06:38:55.000Z</time>
      </trkpt>
      <trkpt lat="43.16253" lon="2.36562">
        <ele>224.3</ele>
        <time>2019-08-18T06:38:56.000Z</time>
      </trkpt>
      <trkpt lat="43.16253" lon="2.36558">
        <ele>224.2</ele>
        <time>2019-08-18T06:38:57.000Z</time>
      </trkpt>
      <trkpt lat="43.16253" lon="2.36555">
        <ele>224</ele>
        <time>2019-08-18T06:38:58.000Z</time>
      </trkpt>
      <trkpt lat="43.16253" lon="2.36551">
        <ele>223.9</ele>
        <time>2019-08-18T06:38:59.000Z</time>
      </trkpt>
      <trkpt lat="43.16253" lon="2.36547">
        <ele>223.7</ele>
        <time>2019-08-18T06:39:00.000Z</time>
      </trkpt>
      <trkpt lat="43.16253" lon="2.36544">
        <ele>223.5</ele>
        <time>2019-08-18T06:39:01.000Z</time>
      </trkpt>
      <trkpt lat="43.16253" lon="2.3654">
        <ele>223.4</ele>
        <time>2019-08-18T06:39:02.000Z</time>
      </trkpt>
      <trkpt lat="43.16254" lon="2.36536">
        <ele>223.2</ele>
        <time>2019-08-18T06:39:03.000Z</time>
      </trkpt>
      <trkpt lat="43.16254" lon="2.36532">
        <ele>223</ele>
        <time>2019-08-18T06:39:04.000Z</time>
      </trkpt>
      <trkpt lat="43.16254" lon="2.36528">
        <ele>222.8</ele>
        <time>2019-08-18T06:39:05.000Z</time>
      </trkpt>
      <trkpt lat="43.16254" lon="2.36525">
        <ele>222.6</ele>
        <time>2019-08-18T06:39:06.000Z</time>
      </trkpt>
      <trkpt lat="43.16254" lon="2.36521">
        <ele>222.5</ele>
        <time>2019-08-18T06:39:07.000Z</time>
      </trkpt>
      <trkpt lat="43.16254" lon="2.36517">
        <ele>222.3</ele>
        <time>2019-08-18T06:39:08.000Z</time>
      </trkpt>
      <trkpt lat="43.16254" lon="2.36513">
        <ele>222.1</ele>
        <time>2019-08-18T06:39:09.000Z</time>
      </trkpt>
      <trkpt lat="43.16254" lon="2.36509">
        <ele>221.9</ele>
        <time>2019-08-18T06:39:10.000Z</time>
      </trkpt>
      <trkpt lat="43.16254" lon="2.36505">
        <ele>221.8</ele>
        <time>2019-08-18T06:39:11.000Z</time>
      </trkpt>
      <trkpt lat="43.16254" lon="2.36502">
        <ele>221.6</ele>
        <time>2019-08-18T06:39:12.000Z</time>
      </trkpt>
      <trkpt lat="43.16255" lon="2.36498">
        <ele>221.5</ele>
        <time>2019-08-18T06:39:13.000Z</time>
      </trkpt>
      <trkpt lat="43.16255" lon="2.36494">
        <ele>221.4</ele>
        <time>2019-08-18T06:39:14.000Z</time>
      </trkpt>
      <trkpt lat="43.16255" lon="2.36491">
        <ele>221.4</ele>
        <time>2019-08-18T06:39:15.000Z</time>
      </trkpt>
      <trkpt lat="43.16255" lon="2.36487">
        <ele>221.3</ele>
        <time>2019-08-18T06:39:16.000Z</time>
      </trkpt>
      <trkpt lat="43.16256" lon="2.36483">
        <ele>221.2</ele>
        <time>2019-08-18T06:39:17.000Z</time>
      </trkpt>
      <trkpt lat="43.16256" lon="2.3648">
        <ele>221.2</ele>
        <time>2019-08-18T06:39:18.000Z</time>
      </trkpt>
      <trkpt lat="43.16257" lon="2.36476">
        <ele>221.1</ele>
        <time>2019-08-18T06:39:19.000Z</time>
      </trkpt>
      <trkpt lat="43.16257" lon="2.36472">
        <ele>221.1</ele>
        <time>2019-08-18T06:39:20.000Z</time>
      </trkpt>
      <trkpt lat="43.16258" lon="2.36469">
        <ele>221</ele>
        <time>2019-08-18T06:39:21.000Z</time>
      </trkpt>
      <trkpt lat="43.16258" lon="2.36465">
        <ele>221</ele>
        <time>2019-08-18T06:39:22.000Z</time>
      </trkpt>
      <trkpt lat="43.16259" lon="2.36462">
        <ele>220.9</ele>
        <time>2019-08-18T06:39:23.000Z</time>
      </trkpt>
      <trkpt lat="43.16259" lon="2.36458">
        <ele>220.8</ele>
        <time>2019-08-18T06:39:24.000Z</time>
      </trkpt>
      <trkpt lat="43.16259" lon="2.36455">
        <ele>220.8</ele>
        <time>2019-08-18T06:39:25.000Z</time>
      </trkpt>
      <trkpt lat="43.1626" lon="2.36451">
        <ele>220.7</ele>
        <time>2019-08-18T06:39:26.000Z</time>
      </trkpt>
      <trkpt lat="43.1626" lon="2.36447">
        <ele>220.7</ele>
        <time>2019-08-18T06:39:27.000Z</time>
      </trkpt>
      <trkpt lat="43.16261" lon="2.36444">
        <ele>220.6</ele>
        <time>2019-08-18T06:39:28.000Z</time>
      </trkpt>
      <trkpt lat="43.16261" lon="2.3644">
        <ele>220.5</ele>
        <time>2019-08-18T06:39:29.000Z</time>
      </trkpt>
      <trkpt lat="43.16261" lon="2.36437">
        <ele>220.4</ele>
        <time>2019-08-18T06:39:30.000Z</time>
      </trkpt>
      <trkpt lat="43.16261" lon="2.36433">
        <ele>220.3</ele>
        <time>2019-08-18T06:39:31.000Z</time>
      </trkpt>
      <trkpt lat="43.16262" lon="2.36429">
        <ele>220.2</ele>
        <time>2019-08-18T06:39:32.000Z</time>
      </trkpt>
      <trkpt lat="43.16262" lon="2.36426">
        <ele>220.1</ele>
        <time>2019-08-18T06:39:33.000Z</time>
      </trkpt>
      <trkpt lat="43.16262" lon="2.36422">
        <ele>220</ele>
        <time>2019-08-18T06:39:34.000Z</time>
      </trkpt>
      <trkpt lat="43.16262" lon="2.36419">
        <ele>219.9</ele>
        <time>2019-08-18T06:39:35.000Z</time>
      </trkpt>
      <trkpt lat="43.16262" lon="2.36415">
        <ele>219.8</ele>
        <time>2019-08-18T06:39:36.000Z</time>
      </trkpt>
      <trkpt lat="43.16263" lon="2.36412">
        <ele>219.7</ele>
        <time>2019-08-18T06:39:37.000Z</time>
      </trkpt>
      <trkpt lat="43.16263" lon="2.36408">
        <ele>219.6</ele>
        <time>2019-08-18T06:39:38.000Z</time>
      </trkpt>
      <trkpt lat="43.16263" lon="2.36405">
        <ele>219.4</ele>
        <time>2019-08-18T06:39:39.000Z</time>
      </trkpt>
      <trkpt lat="43.16263" lon="2.36401">
        <ele>219.3</ele>
        <time>2019-08-18T06:39:40.000Z</time>
      </trkpt>
      <trkpt lat="43.16263" lon="2.36398">
        <ele>219.2</ele>
        <time>2019-08-18T06:39:41.000Z</time>
      </trkpt>
      <trkpt lat="43.16263" lon="2.36394">
        <ele>219</ele>
        <time>2019-08-18T06:39:42.000Z</time>
      </trkpt>
      <trkpt lat="43.16263" lon="2.36391">
        <ele>218.9</ele>
        <time>2019-08-18T06:39:43.000Z</time>
      </trkpt>
      <trkpt lat="43.16263" lon="2.36387">
        <ele>218.7</ele>
        <time>2019-08-18T06:39:44.000Z</time>
      </trkpt>
      <trkpt lat="43.16262" lon="2.36384">
        <ele>218.6</ele>
        <time>2019-08-18T06:39:45.000Z</time>
      </trkpt>
      <trkpt lat="43.16262" lon="2.36381">
        <ele>218.5</ele>
        <time>2019-08-18T06:39:46.000Z</time>
      </trkpt>
      <trkpt lat="43.16262" lon="2.36377">
        <ele>218.3</ele>
        <time>2019-08-18T06:39:47.000Z</time>
      </trkpt>
      <trkpt lat="43.16262" lon="2.36374">
        <ele>218.2</ele>
        <time>2019-08-18T06:39:48.000Z</time>
      </trkpt>
      <trkpt lat="43.16262" lon="2.36371">
        <ele>218.1</ele>
        <time>2019-08-18T06:39:49.000Z</time>
      </trkpt>
      <trkpt lat="43.16262" lon="2.36367">
        <ele>217.9</ele>
        <time>2019-08-18T06:39:50.000Z</time>
      </trkpt>
      <trkpt lat="43.16262" lon="2.36364">
        <ele>217.8</ele>
        <time>2019-08-18T06:39:51.000Z</time>
      </trkpt>
      <trkpt lat="43.16262" lon="2.36361">
        <ele>217.7</ele>
        <time>2019-08-18T06:39:52.000Z</time>
      </trkpt>
      <trkpt lat="43.16262" lon="2.36357">
        <ele>217.5</ele>
        <time>2019-08-18T06:39:53.000Z</time>
      </trkpt>
      <trkpt lat="43.16262" lon="2.36354">
        <ele>217.4</ele>
        <time>2019-08-18T06:39:54.000Z</time>
      </trkpt>
      <trkpt lat="43.16262" lon="2.3635">
        <ele>217.2</ele>
        <time>2019-08-18T06:39:55.000Z</time>
      </trkpt>
      <trkpt lat="43.16263" lon="2.36346">
        <ele>217.1</ele>
        <time>2019-08-18T06:39:56.000Z</time>
      </trkpt>
      <trkpt lat="43.16263" lon="2.36343">
        <ele>217</ele>
        <time>2019-08-18T06:39:57.000Z</time>
      </trkpt>
      <trkpt lat="43.16263" lon="2.36339">
        <ele>216.8</ele>
        <time>2019-08-18T06:39:58.000Z</time>
      </trkpt>
      <trkpt lat="43.16263" lon="2.36335">
        <ele>216.7</ele>
        <time>2019-08-18T06:39:59.000Z</time>
      </trkpt>
      <trkpt lat="43.16264" lon="2.36331">
        <ele>216.6</ele>
        <time>2019-08-18T06:40:00.000Z</time>
      </trkpt>
      <trkpt lat="43.16264" lon="2.36327">
        <ele>216.4</ele>
        <time>2019-08-18T06:40:01.000Z</time>
      </trkpt>
      <trkpt lat="43.16264" lon="2.36323">
        <ele>216.3</ele>
        <time>2019-08-18T06:40:02.000Z</time>
      </trkpt>
      <trkpt lat="43.16264" lon="2.3632">
        <ele>216.1</ele>
        <time>2019-08-18T06:40:03.000Z</time>
      </trkpt>
      <trkpt lat="43.16264" lon="2.36316">
        <ele>216</ele>
        <time>2019-08-18T06:40:04.000Z</time>
      </trkpt>
      <trkpt lat="43.16264" lon="2.36312">
        <ele>215.8</ele>
        <time>2019-08-18T06:40:05.000Z</time>
      </trkpt>
      <trkpt lat="43.16264" lon="2.36308">
        <ele>215.7</ele>
        <time>2019-08-18T06:40:06.000Z</time>
      </trkpt>
      <trkpt lat="43.16264" lon="2.36305">
        <ele>215.5</ele>
        <time>2019-08-18T06:40:07.000Z</time>
      </trkpt>
      <trkpt lat="43.16264" lon="2.36301">
        <ele>215.4</ele>
        <time>2019-08-18T06:40:08.000Z</time>
      </trkpt>
      <trkpt lat="43.16264" lon="2.36298">
        <ele>215.2</ele>
        <time>2019-08-18T06:40:09.000Z</time>
      </trkpt>
      <trkpt lat="43.16263" lon="2.36294">
        <ele>215.1</ele>
        <time>2019-08-18T06:40:10.000Z</time>
      </trkpt>
      <trkpt lat="43.16263" lon="2.36291">
        <ele>214.9</ele>
        <time>2019-08-18T06:40:11.000Z</time>
      </trkpt>
      <trkpt lat="43.16262" lon="2.36288">
        <ele>214.8</ele>
        <time>2019-08-18T06:40:12.000Z</time>
      </trkpt>
      <trkpt lat="43.16262" lon="2.36284">
        <ele>214.6</ele>
        <time>2019-08-18T06:40:13.000Z</time>
      </trkpt>
      <trkpt lat="43.16261" lon="2.36281">
        <ele>214.5</ele>
        <time>2019-08-18T06:40:14.000Z</time>
      </trkpt>
      <trkpt lat="43.1626" lon="2.36278">
        <ele>214.3</ele>
        <time>2019-08-18T06:40:15.000Z</time>
      </trkpt>
      <trkpt lat="43.1626" lon="2.36274">
        <ele>214.2</ele>
        <time>2019-08-18T06:40:16.000Z</time>
      </trkpt>
      <trkpt lat="43.1626" lon="2.36271">
        <ele>214</ele>
        <time>2019-08-18T06:40:17.000Z</time>
      </trkpt>
      <trkpt lat="43.1626" lon="2.36267">
        <ele>213.9</ele>
        <time>2019-08-18T06:40:18.000Z</time>
      </trkpt>
      <trkpt lat="43.1626" lon="2.36264">
        <ele>213.8</ele>
        <time>2019-08-18T06:40:19.000Z</time>
      </trkpt>
      <trkpt lat="43.1626" lon="2.3626">
        <ele>213.6</ele>
        <time>2019-08-18T06:40:20.000Z</time>
      </trkpt>
      <trkpt lat="43.1626" lon="2.36257">
        <ele>213.5</ele>
        <time>2019-08-18T06:40:21.000Z</time>
      </trkpt>
      <trkpt lat="43.1626" lon="2.36253">
        <ele>213.4</ele>
        <time>2019-08-18T06:40:22.000Z</time>
      </trkpt>
      <trkpt lat="43.1626" lon="2.3625">
        <ele>213.2</ele>
        <time>2019-08-18T06:40:23.000Z</time>
      </trkpt>
      <trkpt lat="43.1626" lon="2.36246">
        <ele>213.1</ele>
        <time>2019-08-18T06:40:24.000Z</time>
      </trkpt>
      <trkpt lat="43.1626" lon="2.36243">
        <ele>212.9</ele>
        <time>2019-08-18T06:40:25.000Z</time>
      </trkpt>
      <trkpt lat="43.1626" lon="2.36239">
        <ele>212.8</ele>
        <time>2019-08-18T06:40:26.000Z</time>
      </trkpt>
      <trkpt lat="43.1626" lon="2.36236">
        <ele>212.6</ele>
        <time>2019-08-18T06:40:27.000Z</time>
      </trkpt>
      <trkpt lat="43.1626" lon="2.36233">
        <ele>212.5</ele>
        <time>2019-08-18T06:40:28.000Z</time>
      </trkpt>
      <trkpt lat="43.1626" lon="2.36229">
        <ele>212.3</ele>
        <time>2019-08-18T06:40:29.000Z</time>
      </trkpt>
      <trkpt lat="43.16259" lon="2.36226">
        <ele>212.2</ele>
        <time>2019-08-18T06:40:30.000Z</time>
      </trkpt>
      <trkpt lat="43.16259" lon="2.36223">
        <ele>212.1</ele>
        <time>2019-08-18T06:40:31.000Z</time>
      </trkpt>
      <trkpt lat="43.16259" lon="2.36219">
        <ele>211.9</ele>
        <time>2019-08-18T06:40:32.000Z</time>
      </trkpt>
      <trkpt lat="43.16258" lon="2.36216">
        <ele>211.8</ele>
        <time>2019-08-18T06:40:33.000Z</time>
      </trkpt>
      <trkpt lat="43.16258" lon="2.36212">
        <ele>211.6</ele>
        <time>2019-08-18T06:40:34.000Z</time>
      </trkpt>
      <trkpt lat="43.16258" lon="2.36209">
        <ele>211.5</ele>
        <time>2019-08-18T06:40:35.000Z</time>
      </trkpt>
      <trkpt lat="43.16258" lon="2.36205">
        <ele>211.3</ele>
        <time>2019-08-18T06:40:36.000Z</time>
      </trkpt>
      <trkpt lat="43.16257" lon="2.36202">
        <ele>211.2</ele>
        <time>2019-08-18T06:40:37.000Z</time>
      </trkpt>
      <trkpt lat="43.16257" lon="2.36199">
        <ele>211</ele>
        <time>2019-08-18T06:40:38.000Z</time>
      </trkpt>
      <trkpt lat="43.16258" lon="2.36195">
        <ele>210.9</ele>
        <time>2019-08-18T06:40:39.000Z</time>
      </trkpt>
      <trkpt lat="43.16258" lon="2.36192">
        <ele>210.8</ele>
        <time>2019-08-18T06:40:40.000Z</time>
      </trkpt>
      <trkpt lat="43.16258" lon="2.36188">
        <ele>210.6</ele>
        <time>2019-08-18T06:40:41.000Z</time>
      </trkpt>
      <trkpt lat="43.16258" lon="2.36185">
        <ele>210.5</ele>
        <time>2019-08-18T06:40:42.000Z</time>
      </trkpt>
      <trkpt lat="43.16258" lon="2.36182">
        <ele>210.3</ele>
        <time>2019-08-18T06:40:43.000Z</time>
      </trkpt>
      <trkpt lat="43.16258" lon="2.36179">
        <ele>210.2</ele>
        <time>2019-08-18T06:40:44.000Z</time>
      </trkpt>
      <trkpt lat="43.16258" lon="2.36175">
        <ele>210.1</ele>
        <time>2019-08-18T06:40:45.000Z</time>
      </trkpt>
      <trkpt lat="43.16258" lon="2.36172">
        <ele>210</ele>
        <time>2019-08-18T06:40:46.000Z</time>
      </trkpt>
      <trkpt lat="43.16257" lon="2.36169">
        <ele>209.8</ele>
        <time>2019-08-18T06:40:47.000Z</time>
      </trkpt>
      <trkpt lat="43.16256" lon="2.36166">
        <ele>209.7</ele>
        <time>2019-08-18T06:40:48.000Z</time>
      </trkpt>
      <trkpt lat="43.16256" lon="2.36163">
        <ele>209.5</ele>
        <time>2019-08-18T06:40:49.000Z</time>
      </trkpt>
      <trkpt lat="43.16255" lon="2.36159">
        <ele>209.4</ele>
        <time>2019-08-18T06:40:50.000Z</time>
      </trkpt>
      <trkpt lat="43.16254" lon="2.36156">
        <ele>209.2</ele>
        <time>2019-08-18T06:40:51.000Z</time>
      </trkpt>
      <trkpt lat="43.16253" lon="2.36153">
        <ele>209</ele>
        <time>2019-08-18T06:40:52.000Z</time>
      </trkpt>
      <trkpt lat="43.16252" lon="2.36149">
        <ele>208.9</ele>
        <time>2019-08-18T06:40:53.000Z</time>
      </trkpt>
      <trkpt lat="43.16252" lon="2.36146">
        <ele>208.7</ele>
        <time>2019-08-18T06:40:54.000Z</time>
      </trkpt>
      <trkpt lat="43.16251" lon="2.36143">
        <ele>208.5</ele>
        <time>2019-08-18T06:40:55.000Z</time>
      </trkpt>
      <trkpt lat="43.16249" lon="2.36139">
        <ele>208.4</ele>
        <time>2019-08-18T06:40:56.000Z</time>
      </trkpt>
      <trkpt lat="43.16248" lon="2.36136">
        <ele>208.3</ele>
        <time>2019-08-18T06:40:57.000Z</time>
      </trkpt>
      <trkpt lat="43.16247" lon="2.36134">
        <ele>208.2</ele>
        <time>2019-08-18T06:40:58.000Z</time>
      </trkpt>
      <trkpt lat="43.16246" lon="2.36131">
        <ele>208.1</ele>
        <time>2019-08-18T06:40:59.000Z</time>
      </trkpt>
      <trkpt lat="43.16244" lon="2.36129">
        <ele>208</ele>
        <time>2019-08-18T06:41:00.000Z</time>
      </trkpt>
      <trkpt lat="43.16243" lon="2.36127">
        <ele>208</ele>
        <time>2019-08-18T06:41:01.000Z</time>
      </trkpt>
      <trkpt lat="43.16241" lon="2.36125">
        <ele>207.9</ele>
        <time>2019-08-18T06:41:02.000Z</time>
      </trkpt>
      <trkpt lat="43.16239" lon="2.36123">
        <ele>207.9</ele>
        <time>2019-08-18T06:41:03.000Z</time>
      </trkpt>
      <trkpt lat="43.16237" lon="2.36121">
        <ele>207.9</ele>
        <time>2019-08-18T06:41:04.000Z</time>
      </trkpt>
      <trkpt lat="43.16235" lon="2.3612">
        <ele>207.9</ele>
        <time>2019-08-18T06:41:05.000Z</time>
      </trkpt>
      <trkpt lat="43.16233" lon="2.36118">
        <ele>207.9</ele>
        <time>2019-08-18T06:41:06.000Z</time>
      </trkpt>
      <trkpt lat="43.16231" lon="2.36117">
        <ele>207.9</ele>
        <time>2019-08-18T06:41:07.000Z</time>
      </trkpt>
      <trkpt lat="43.16228" lon="2.36116">
        <ele>208</ele>
        <time>2019-08-18T06:41:08.000Z</time>
      </trkpt>
      <trkpt lat="43.16226" lon="2.36115">
        <ele>208</ele>
        <time>2019-08-18T06:41:09.000Z</time>
      </trkpt>
      <trkpt lat="43.16224" lon="2.36114">
        <ele>208.1</ele>
        <time>2019-08-18T06:41:10.000Z</time>
      </trkpt>
      <trkpt lat="43.16222" lon="2.36114">
        <ele>208.2</ele>
        <time>2019-08-18T06:41:11.000Z</time>
      </trkpt>
      <trkpt lat="43.1622" lon="2.36114">
        <ele>208.3</ele>
        <time>2019-08-18T06:41:12.000Z</time>
      </trkpt>
      <trkpt lat="43.16218" lon="2.36114">
        <ele>208.4</ele>
        <time>2019-08-18T06:41:13.000Z</time>
      </trkpt>
      <trkpt lat="43.16216" lon="2.36115">
        <ele>208.5</ele>
        <time>2019-08-18T06:41:14.000Z</time>
      </trkpt>
      <trkpt lat="43.16214" lon="2.36116">
        <ele>208.7</ele>
        <time>2019-08-18T06:41:15.000Z</time>
      </trkpt>
      <trkpt lat="43.16212" lon="2.36116">
        <ele>208.8</ele>
        <time>2019-08-18T06:41:16.000Z</time>
      </trkpt>
      <trkpt lat="43.1621" lon="2.36115">
        <ele>208.8</ele>
        <time>2019-08-18T06:41:17.000Z</time>
      </trkpt>
      <trkpt lat="43.16208" lon="2.36115">
        <ele>208.9</ele>
        <time>2019-08-18T06:41:18.000Z</time>
      </trkpt>
      <trkpt lat="43.16207" lon="2.36114">
        <ele>208.9</ele>
        <time>2019-08-18T06:41:19.000Z</time>
      </trkpt>
      <trkpt lat="43.16205" lon="2.36113">
        <ele>208.9</ele>
        <time>2019-08-18T06:41:20.000Z</time>
      </trkpt>
      <trkpt lat="43.16203" lon="2.36112">
        <ele>209</ele>
        <time>2019-08-18T06:41:21.000Z</time>
      </trkpt>
      <trkpt lat="43.16201" lon="2.36111">
        <ele>209</ele>
        <time>2019-08-18T06:41:22.000Z</time>
      </trkpt>
      <trkpt lat="43.16199" lon="2.3611">
        <ele>209</ele>
        <time>2019-08-18T06:41:23.000Z</time>
      </trkpt>
      <trkpt lat="43.16197" lon="2.36109">
        <ele>209.1</ele>
        <time>2019-08-18T06:41:24.000Z</time>
      </trkpt>
      <trkpt lat="43.16195" lon="2.36108">
        <ele>209.1</ele>
        <time>2019-08-18T06:41:25.000Z</time>
      </trkpt>
      <trkpt lat="43.16193" lon="2.36107">
        <ele>209.2</ele>
        <time>2019-08-18T06:41:26.000Z</time>
      </trkpt>
      <trkpt lat="43.16191" lon="2.36106">
        <ele>209.2</ele>
        <time>2019-08-18T06:41:27.000Z</time>
      </trkpt>
      <trkpt lat="43.16189" lon="2.36106">
        <ele>209.3</ele>
        <time>2019-08-18T06:41:28.000Z</time>
      </trkpt>
      <trkpt lat="43.16187" lon="2.36105">
        <ele>209.4</ele>
        <time>2019-08-18T06:41:29.000Z</time>
      </trkpt>
      <trkpt lat="43.16185" lon="2.36104">
        <ele>209.4</ele>
        <time>2019-08-18T06:41:30.000Z</time>
      </trkpt>
      <trkpt lat="43.16184" lon="2.36103">
        <ele>209.4</ele>
        <time>2019-08-18T06:41:31.000Z</time>
      </trkpt>
      <trkpt lat="43.16183" lon="2.36102">
        <ele>209.3</ele>
        <time>2019-08-18T06:41:32.000Z</time>
      </trkpt>
      <trkpt lat="43.16183" lon="2.36101">
        <ele>209.3</ele>
        <time>2019-08-18T06:41:33.000Z</time>
      </trkpt>
      <trkpt lat="43.16182" lon="2.361">
        <ele>209.2</ele>
        <time>2019-08-18T06:41:34.000Z</time>
      </trkpt>
      <trkpt lat="43.16182" lon="2.36098">
        <ele>209.2</ele>
        <time>2019-08-18T06:41:35.000Z</time>
      </trkpt>
      <trkpt lat="43.16181" lon="2.36097">
        <ele>209.1</ele>
        <time>2019-08-18T06:41:36.000Z</time>
      </trkpt>
      <trkpt lat="43.1618" lon="2.36096">
        <ele>209.1</ele>
        <time>2019-08-18T06:41:37.000Z</time>
      </trkpt>
      <trkpt lat="43.16179" lon="2.36094">
        <ele>209</ele>
        <time>2019-08-18T06:41:38.000Z</time>
      </trkpt>
      <trkpt lat="43.16178" lon="2.36092">
        <ele>209</ele>
        <time>2019-08-18T06:41:39.000Z</time>
      </trkpt>
      <trkpt lat="43.16177" lon="2.36091">
        <ele>209</ele>
        <time>2019-08-18T06:41:40.000Z</time>
      </trkpt>
      <trkpt lat="43.16175" lon="2.36089">
        <ele>208.9</ele>
        <time>2019-08-18T06:41:41.000Z</time>
      </trkpt>
      <trkpt lat="43.16174" lon="2.36088">
        <ele>208.9</ele>
        <time>2019-08-18T06:41:42.000Z</time>
      </trkpt>
      <trkpt lat="43.16172" lon="2.36086">
        <ele>208.9</ele>
        <time>2019-08-18T06:41:43.000Z</time>
      </trkpt>
      <trkpt lat="43.1617" lon="2.36085">
        <ele>208.9</ele>
        <time>2019-08-18T06:41:44.000Z</time>
      </trkpt>
      <trkpt lat="43.16169" lon="2.36084">
        <ele>209</ele>
        <time>2019-08-18T06:41:45.000Z</time>
      </trkpt>
      <trkpt lat="43.16167" lon="2.36084">
        <ele>209</ele>
        <time>2019-08-18T06:41:46.000Z</time>
      </trkpt>
      <trkpt lat="43.16165" lon="2.36083">
        <ele>209.2</ele>
        <time>2019-08-18T06:41:47.000Z</time>
      </trkpt>
      <trkpt lat="43.16163" lon="2.36084">
        <ele>209.4</ele>
        <time>2019-08-18T06:41:48.000Z</time>
      </trkpt>
      <trkpt lat="43.16162" lon="2.36084">
        <ele>209.6</ele>
        <time>2019-08-18T06:41:49.000Z</time>
      </trkpt>
      <trkpt lat="43.1616" lon="2.36085">
        <ele>209.8</ele>
        <time>2019-08-18T06:41:50.000Z</time>
      </trkpt>
      <trkpt lat="43.16158" lon="2.36086">
        <ele>210</ele>
        <time>2019-08-18T06:41:51.000Z</time>
      </trkpt>
      <trkpt lat="43.16157" lon="2.36087">
        <ele>210.3</ele>
        <time>2019-08-18T06:41:52.000Z</time>
      </trkpt>
      <trkpt lat="43.16155" lon="2.36088">
        <ele>210.5</ele>
        <time>2019-08-18T06:41:53.000Z</time>
      </trkpt>
      <trkpt lat="43.16153" lon="2.36089">
        <ele>210.8</ele>
        <time>2019-08-18T06:41:54.000Z</time>
      </trkpt>
      <trkpt lat="43.16152" lon="2.3609">
        <ele>211</ele>
        <time>2019-08-18T06:41:55.000Z</time>
      </trkpt>
      <trkpt lat="43.1615" lon="2.36091">
        <ele>211.2</ele>
        <time>2019-08-18T06:41:56.000Z</time>
      </trkpt>
      <trkpt lat="43.16148" lon="2.36092">
        <ele>211.4</ele>
        <time>2019-08-18T06:41:57.000Z</time>
      </trkpt>
      <trkpt lat="43.16147" lon="2.36093">
        <ele>211.7</ele>
        <time>2019-08-18T06:41:58.000Z</time>
      </trkpt>
      <trkpt lat="43.16145" lon="2.36094">
        <ele>211.9</ele>
        <time>2019-08-18T06:41:59.000Z</time>
      </trkpt>
      <trkpt lat="43.16143" lon="2.36095">
        <ele>212.1</ele>
        <time>2019-08-18T06:42:00.000Z</time>
      </trkpt>
      <trkpt lat="43.16141" lon="2.36096">
        <ele>212.4</ele>
        <time>2019-08-18T06:42:01.000Z</time>
      </trkpt>
      <trkpt lat="43.16139" lon="2.36098">
        <ele>212.7</ele>
        <time>2019-08-18T06:42:02.000Z</time>
      </trkpt>
      <trkpt lat="43.16137" lon="2.36099">
        <ele>213</ele>
        <time>2019-08-18T06:42:03.000Z</time>
      </trkpt>
      <trkpt lat="43.16135" lon="2.361">
        <ele>213.3</ele>
        <time>2019-08-18T06:42:04.000Z</time>
      </trkpt>
      <trkpt lat="43.16133" lon="2.36101">
        <ele>213.5</ele>
        <time>2019-08-18T06:42:05.000Z</time>
      </trkpt>
      <trkpt lat="43.1613" lon="2.36101">
        <ele>213.7</ele>
        <time>2019-08-18T06:42:06.000Z</time>
      </trkpt>
      <trkpt lat="43.16128" lon="2.36101">
        <ele>213.9</ele>
        <time>2019-08-18T06:42:07.000Z</time>
      </trkpt>
      <trkpt lat="43.16126" lon="2.361">
        <ele>214.1</ele>
        <time>2019-08-18T06:42:08.000Z</time>
      </trkpt>
      <trkpt lat="43.16124" lon="2.36099">
        <ele>214.2</ele>
        <time>2019-08-18T06:42:09.000Z</time>
      </trkpt>
      <trkpt lat="43.16122" lon="2.36097">
        <ele>214.4</ele>
        <time>2019-08-18T06:42:10.000Z</time>
      </trkpt>
      <trkpt lat="43.16121" lon="2.36096">
        <ele>214.5</ele>
        <time>2019-08-18T06:42:11.000Z</time>
      </trkpt>
      <trkpt lat="43.16119" lon="2.36095">
        <ele>214.6</ele>
        <time>2019-08-18T06:42:12.000Z</time>
      </trkpt>
      <trkpt lat="43.16118" lon="2.36095">
        <ele>214.8</ele>
        <time>2019-08-18T06:42:13.000Z</time>
      </trkpt>
      <trkpt lat="43.16116" lon="2.36094">
        <ele>214.9</ele>
        <time>2019-08-18T06:42:14.000Z</time>
      </trkpt>
      <trkpt lat="43.16115" lon="2.36094">
        <ele>215</ele>
        <time>2019-08-18T06:42:15.000Z</time>
      </trkpt>
      <trkpt lat="43.16113" lon="2.36094">
        <ele>215.2</ele>
        <time>2019-08-18T06:42:16.000Z</time>
      </trkpt>
      <trkpt lat="43.16111" lon="2.36093">
        <ele>215.3</ele>
        <time>2019-08-18T06:42:17.000Z</time>
      </trkpt>
      <trkpt lat="43.16109" lon="2.36093">
        <ele>215.5</ele>
        <time>2019-08-18T06:42:18.000Z</time>
      </trkpt>
      <trkpt lat="43.16108" lon="2.36092">
        <ele>215.7</ele>
        <time>2019-08-18T06:42:19.000Z</time>
      </trkpt>
      <trkpt lat="43.16106" lon="2.3609">
        <ele>215.8</ele>
        <time>2019-08-18T06:42:20.000Z</time>
      </trkpt>
      <trkpt lat="43.16104" lon="2.36088">
        <ele>215.9</ele>
        <time>2019-08-18T06:42:21.000Z</time>
      </trkpt>
      <trkpt lat="43.16102" lon="2.36086">
        <ele>216</ele>
        <time>2019-08-18T06:42:22.000Z</time>
      </trkpt>
      <trkpt lat="43.16101" lon="2.36084">
        <ele>216.1</ele>
        <time>2019-08-18T06:42:23.000Z</time>
      </trkpt>
      <trkpt lat="43.161" lon="2.36082">
        <ele>216.2</ele>
        <time>2019-08-18T06:42:24.000Z</time>
      </trkpt>
      <trkpt lat="43.16099" lon="2.36081">
        <ele>216.3</ele>
        <time>2019-08-18T06:42:25.000Z</time>
      </trkpt>
      <trkpt lat="43.16098" lon="2.36079">
        <ele>216.3</ele>
        <time>2019-08-18T06:42:26.000Z</time>
      </trkpt>
      <trkpt lat="43.16098" lon="2.36077">
        <ele>216.4</ele>
        <time>2019-08-18T06:42:27.000Z</time>
      </trkpt>
      <trkpt lat="43.16098" lon="2.36076">
        <ele>216.4</ele>
        <time>2019-08-18T06:42:28.000Z</time>
      </trkpt>
      <trkpt lat="43.16097" lon="2.36074">
        <ele>216.4</ele>
        <time>2019-08-18T06:42:29.000Z</time>
      </trkpt>
      <trkpt lat="43.16097" lon="2.36073">
        <ele>216.4</ele>
        <time>2019-08-18T06:42:30.000Z</time>
      </trkpt>
      <trkpt lat="43.16097" lon="2.36071">
        <ele>216.4</ele>
        <time>2019-08-18T06:42:31.000Z</time>
      </trkpt>
      <trkpt lat="43.16097" lon="2.36069">
        <ele>216.5</ele>
        <time>2019-08-18T06:42:32.000Z</time>
      </trkpt>
      <trkpt lat="43.16096" lon="2.36067">
        <ele>216.5</ele>
        <time>2019-08-18T06:42:33.000Z</time>
      </trkpt>
      <trkpt lat="43.16096" lon="2.36065">
        <ele>216.5</ele>
        <time>2019-08-18T06:42:34.000Z</time>
      </trkpt>
      <trkpt lat="43.16096" lon="2.36063">
        <ele>216.5</ele>
        <time>2019-08-18T06:42:35.000Z</time>
      </trkpt>
      <trkpt lat="43.16095" lon="2.3606">
        <ele>216.6</ele>
        <time>2019-08-18T06:42:36.000Z</time>
      </trkpt>
      <trkpt lat="43.16095" lon="2.36058">
        <ele>216.6</ele>
        <time>2019-08-18T06:42:37.000Z</time>
      </trkpt>
      <trkpt lat="43.16094" lon="2.36055">
        <ele>216.6</ele>
        <time>2019-08-18T06:42:38.000Z</time>
      </trkpt>
      <trkpt lat="43.16094" lon="2.36053">
        <ele>216.7</ele>
        <time>2019-08-18T06:42:39.000Z</time>
      </trkpt>
      <trkpt lat="43.16094" lon="2.3605">
        <ele>216.7</ele>
        <time>2019-08-18T06:42:40.000Z</time>
      </trkpt>
      <trkpt lat="43.16093" lon="2.36047">
        <ele>216.8</ele>
        <time>2019-08-18T06:42:41.000Z</time>
      </trkpt>
      <trkpt lat="43.16092" lon="2.36045">
        <ele>216.8</ele>
        <time>2019-08-18T06:42:42.000Z</time>
      </trkpt>
      <trkpt lat="43.16092" lon="2.36042">
        <ele>216.9</ele>
        <time>2019-08-18T06:42:43.000Z</time>
      </trkpt>
      <trkpt lat="43.16091" lon="2.36039">
        <ele>217</ele>
        <time>2019-08-18T06:42:44.000Z</time>
      </trkpt>
      <trkpt lat="43.1609" lon="2.36036">
        <ele>217</ele>
        <time>2019-08-18T06:42:45.000Z</time>
      </trkpt>
      <trkpt lat="43.1609" lon="2.36033">
        <ele>217.1</ele>
        <time>2019-08-18T06:42:46.000Z</time>
      </trkpt>
      <trkpt lat="43.16089" lon="2.3603">
        <ele>217.2</ele>
        <time>2019-08-18T06:42:47.000Z</time>
      </trkpt>
      <trkpt lat="43.16088" lon="2.36027">
        <ele>217.4</ele>
        <time>2019-08-18T06:42:48.000Z</time>
      </trkpt>
      <trkpt lat="43.16087" lon="2.36024">
        <ele>217.5</ele>
        <time>2019-08-18T06:42:49.000Z</time>
      </trkpt>
      <trkpt lat="43.16086" lon="2.36021">
        <ele>217.6</ele>
        <time>2019-08-18T06:42:50.000Z</time>
      </trkpt>
      <trkpt lat="43.16085" lon="2.36018">
        <ele>217.7</ele>
        <time>2019-08-18T06:42:51.000Z</time>
      </trkpt>
      <trkpt lat="43.16084" lon="2.36015">
        <ele>217.8</ele>
        <time>2019-08-18T06:42:52.000Z</time>
      </trkpt>
      <trkpt lat="43.16084" lon="2.36012">
        <ele>218</ele>
        <time>2019-08-18T06:42:53.000Z</time>
      </trkpt>
      <trkpt lat="43.16083" lon="2.3601">
        <ele>218.1</ele>
        <time>2019-08-18T06:42:54.000Z</time>
      </trkpt>
      <trkpt lat="43.16082" lon="2.36007">
        <ele>218.2</ele>
        <time>2019-08-18T06:42:55.000Z</time>
      </trkpt>
      <trkpt lat="43.16081" lon="2.36004">
        <ele>218.2</ele>
        <time>2019-08-18T06:42:56.000Z</time>
      </trkpt>
      <trkpt lat="43.1608" lon="2.36002">
        <ele>218.3</ele>
        <time>2019-08-18T06:42:57.000Z</time>
      </trkpt>
      <trkpt lat="43.1608" lon="2.35999">
        <ele>218.4</ele>
        <time>2019-08-18T06:42:58.000Z</time>
      </trkpt>
      <trkpt lat="43.16079" lon="2.35997">
        <ele>218.3</ele>
        <time>2019-08-18T06:42:59.000Z</time>
      </trkpt>
      <trkpt lat="43.16079" lon="2.35995">
        <ele>218.2</ele>
        <time>2019-08-18T06:43:00.000Z</time>
      </trkpt>
      <trkpt lat="43.16078" lon="2.35993">
        <ele>218.1</ele>
        <time>2019-08-18T06:43:01.000Z</time>
      </trkpt>
      <trkpt lat="43.16078" lon="2.35991">
        <ele>218</ele>
        <time>2019-08-18T06:43:02.000Z</time>
      </trkpt>
      <trkpt lat="43.16077" lon="2.35989">
        <ele>217.9</ele>
        <time>2019-08-18T06:43:03.000Z</time>
      </trkpt>
      <trkpt lat="43.16077" lon="2.35987">
        <ele>217.9</ele>
        <time>2019-08-18T06:43:04.000Z</time>
      </trkpt>
      <trkpt lat="43.16076" lon="2.35985">
        <ele>217.8</ele>
        <time>2019-08-18T06:43:05.000Z</time>
      </trkpt>
      <trkpt lat="43.16076" lon="2.35983">
        <ele>217.7</ele>
        <time>2019-08-18T06:43:06.000Z</time>
      </trkpt>
      <trkpt lat="43.16075" lon="2.3598">
        <ele>217.6</ele>
        <time>2019-08-18T06:43:07.000Z</time>
      </trkpt>
      <trkpt lat="43.16075" lon="2.35978">
        <ele>217.6</ele>
        <time>2019-08-18T06:43:08.000Z</time>
      </trkpt>
      <trkpt lat="43.16074" lon="2.35976">
        <ele>217.5</ele>
        <time>2019-08-18T06:43:09.000Z</time>
      </trkpt>
      <trkpt lat="43.16074" lon="2.35974">
        <ele>217.4</ele>
        <time>2019-08-18T06:43:10.000Z</time>
      </trkpt>
      <trkpt lat="43.16073" lon="2.35972">
        <ele>217.3</ele>
        <time>2019-08-18T06:43:11.000Z</time>
      </trkpt>
      <trkpt lat="43.16073" lon="2.3597">
        <ele>217.2</ele>
        <time>2019-08-18T06:43:12.000Z</time>
      </trkpt>
      <trkpt lat="43.16072" lon="2.35968">
        <ele>217.1</ele>
        <time>2019-08-18T06:43:13.000Z</time>
      </trkpt>
      <trkpt lat="43.16072" lon="2.35965">
        <ele>217</ele>
        <time>2019-08-18T06:43:14.000Z</time>
      </trkpt>
      <trkpt lat="43.16072" lon="2.35964">
        <ele>216.9</ele>
        <time>2019-08-18T06:43:15.000Z</time>
      </trkpt>
      <trkpt lat="43.16071" lon="2.35962">
        <ele>216.8</ele>
        <time>2019-08-18T06:43:16.000Z</time>
      </trkpt>
      <trkpt lat="43.16071" lon="2.3596">
        <ele>216.8</ele>
        <time>2019-08-18T06:43:17.000Z</time>
      </trkpt>
      <trkpt lat="43.1607" lon="2.35959">
        <ele>216.7</ele>
        <time>2019-08-18T06:43:18.000Z</time>
      </trkpt>
      <trkpt lat="43.1607" lon="2.35958">
        <ele>216.7</ele>
        <time>2019-08-18T06:43:19.000Z</time>
      </trkpt>
      <trkpt lat="43.16069" lon="2.35957">
        <ele>216.7</ele>
        <time>2019-08-18T06:43:20.000Z</time>
      </trkpt>
      <trkpt lat="43.16068" lon="2.35957">
        <ele>216.8</ele>
        <time>2019-08-18T06:43:21.000Z</time>
      </trkpt>
      <trkpt lat="43.16067" lon="2.35956">
        <ele>216.9</ele>
        <time>2019-08-18T06:43:22.000Z</time>
      </trkpt>
      <trkpt lat="43.16066" lon="2.35956">
        <ele>217</ele>
        <time>2019-08-18T06:43:23.000Z</time>
      </trkpt>
      <trkpt lat="43.16064" lon="2.35956">
        <ele>217.1</ele>
        <time>2019-08-18T06:43:24.000Z</time>
      </trkpt>
      <trkpt lat="43.16062" lon="2.35957">
        <ele>217.3</ele>
        <time>2019-08-18T06:43:25.000Z</time>
      </trkpt>
      <trkpt lat="43.16061" lon="2.35957">
        <ele>217.4</ele>
        <time>2019-08-18T06:43:26.000Z</time>
      </trkpt>
      <trkpt lat="43.16058" lon="2.35957">
        <ele>217.6</ele>
        <time>2019-08-18T06:43:27.000Z</time>
      </trkpt>
      <trkpt lat="43.16056" lon="2.35957">
        <ele>217.8</ele>
        <time>2019-08-18T06:43:28.000Z</time>
      </trkpt>
      <trkpt lat="43.16054" lon="2.35957">
        <ele>218.1</ele>
        <time>2019-08-18T06:43:29.000Z</time>
      </trkpt>
      <trkpt lat="43.16052" lon="2.35958">
        <ele>218.3</ele>
        <time>2019-08-18T06:43:30.000Z</time>
      </trkpt>
      <trkpt lat="43.1605" lon="2.35958">
        <ele>218.5</ele>
        <time>2019-08-18T06:43:31.000Z</time>
      </trkpt>
      <trkpt lat="43.16048" lon="2.35958">
        <ele>218.7</ele>
        <time>2019-08-18T06:43:32.000Z</time>
      </trkpt>
      <trkpt lat="43.16046" lon="2.35958">
        <ele>218.8</ele>
        <time>2019-08-18T06:43:33.000Z</time>
      </trkpt>
      <trkpt lat="43.16044" lon="2.35958">
        <ele>219</ele>
        <time>2019-08-18T06:43:34.000Z</time>
      </trkpt>
      <trkpt lat="43.16043" lon="2.35958">
        <ele>219.1</ele>
        <time>2019-08-18T06:43:35.000Z</time>
      </trkpt>
      <trkpt lat="43.16042" lon="2.35959">
        <ele>219.3</ele>
        <time>2019-08-18T06:43:36.000Z</time>
      </trkpt>
      <trkpt lat="43.1604" lon="2.35959">
        <ele>219.4</ele>
        <time>2019-08-18T06:43:37.000Z</time>
      </trkpt>
      <trkpt lat="43.16039" lon="2.35959">
        <ele>219.6</ele>
        <time>2019-08-18T06:43:38.000Z</time>
      </trkpt>
      <trkpt lat="43.16038" lon="2.3596">
        <ele>219.7</ele>
        <time>2019-08-18T06:43:39.000Z</time>
      </trkpt>
      <trkpt lat="43.16036" lon="2.3596">
        <ele>219.9</ele>
        <time>2019-08-18T06:43:40.000Z</time>
      </trkpt>
      <trkpt lat="43.16035" lon="2.35961">
        <ele>220.1</ele>
        <time>2019-08-18T06:43:41.000Z</time>
      </trkpt>
      <trkpt lat="43.16033" lon="2.35961">
        <ele>220.3</ele>
        <time>2019-08-18T06:43:42.000Z</time>
      </trkpt>
      <trkpt lat="43.16031" lon="2.35962">
        <ele>220.5</ele>
        <time>2019-08-18T06:43:43.000Z</time>
      </trkpt>
      <trkpt lat="43.1603" lon="2.35963">
        <ele>220.7</ele>
        <time>2019-08-18T06:43:44.000Z</time>
      </trkpt>
      <trkpt lat="43.16028" lon="2.35963">
        <ele>220.9</ele>
        <time>2019-08-18T06:43:45.000Z</time>
      </trkpt>
      <trkpt lat="43.16026" lon="2.35964">
        <ele>221.1</ele>
        <time>2019-08-18T06:43:46.000Z</time>
      </trkpt>
      <trkpt lat="43.16025" lon="2.35964">
        <ele>221.2</ele>
        <time>2019-08-18T06:43:47.000Z</time>
      </trkpt>
      <trkpt lat="43.16023" lon="2.35964">
        <ele>221.4</ele>
        <time>2019-08-18T06:43:48.000Z</time>
      </trkpt>
      <trkpt lat="43.16022" lon="2.35964">
        <ele>221.5</ele>
        <time>2019-08-18T06:43:49.000Z</time>
      </trkpt>
      <trkpt lat="43.16021" lon="2.35964">
        <ele>221.6</ele>
        <time>2019-08-18T06:43:50.000Z</time>
      </trkpt>
      <trkpt lat="43.1602" lon="2.35964">
        <ele>221.7</ele>
        <time>2019-08-18T06:43:51.000Z</time>
      </trkpt>
      <trkpt lat="43.16018" lon="2.35964">
        <ele>221.8</ele>
        <time>2019-08-18T06:43:52.000Z</time>
      </trkpt>
      <trkpt lat="43.16017" lon="2.35964">
        <ele>222</ele>
        <time>2019-08-18T06:43:53.000Z</time>
      </trkpt>
      <trkpt lat="43.16015" lon="2.35965">
        <ele>222.2</ele>
        <time>2019-08-18T06:43:54.000Z</time>
      </trkpt>
      <trkpt lat="43.16014" lon="2.35966">
        <ele>222.4</ele>
        <time>2019-08-18T06:43:55.000Z</time>
      </trkpt>
      <trkpt lat="43.16012" lon="2.35967">
        <ele>222.7</ele>
        <time>2019-08-18T06:43:56.000Z</time>
      </trkpt>
      <trkpt lat="43.16011" lon="2.35968">
        <ele>222.9</ele>
        <time>2019-08-18T06:43:57.000Z</time>
      </trkpt>
      <trkpt lat="43.16009" lon="2.35968">
        <ele>223.1</ele>
        <time>2019-08-18T06:43:58.000Z</time>
      </trkpt>
      <trkpt lat="43.16008" lon="2.35969">
        <ele>223.3</ele>
        <time>2019-08-18T06:43:59.000Z</time>
      </trkpt>
      <trkpt lat="43.16007" lon="2.35969">
        <ele>223.4</ele>
        <time>2019-08-18T06:44:00.000Z</time>
      </trkpt>
      <trkpt lat="43.16005" lon="2.35969">
        <ele>223.6</ele>
        <time>2019-08-18T06:44:01.000Z</time>
      </trkpt>
      <trkpt lat="43.16004" lon="2.3597">
        <ele>223.7</ele>
        <time>2019-08-18T06:44:02.000Z</time>
      </trkpt>
      <trkpt lat="43.16003" lon="2.3597">
        <ele>223.9</ele>
        <time>2019-08-18T06:44:03.000Z</time>
      </trkpt>
      <trkpt lat="43.16002" lon="2.35971">
        <ele>224</ele>
        <time>2019-08-18T06:44:04.000Z</time>
      </trkpt>
      <trkpt lat="43.16" lon="2.35971">
        <ele>224.2</ele>
        <time>2019-08-18T06:44:05.000Z</time>
      </trkpt>
      <trkpt lat="43.15999" lon="2.35972">
        <ele>224.2</ele>
        <time>2019-08-18T06:44:06.000Z</time>
      </trkpt>
      <trkpt lat="43.15998" lon="2.35972">
        <ele>224.1</ele>
        <time>2019-08-18T06:44:07.000Z</time>
      </trkpt>
      <trkpt lat="43.15997" lon="2.35973">
        <ele>224.1</ele>
        <time>2019-08-18T06:44:08.000Z</time>
      </trkpt>
      <trkpt lat="43.15996" lon="2.35974">
        <ele>224.1</ele>
        <time>2019-08-18T06:44:09.000Z</time>
      </trkpt>
      <trkpt lat="43.15995" lon="2.35975">
        <ele>224.1</ele>
        <time>2019-08-18T06:44:10.000Z</time>
      </trkpt>
      <trkpt lat="43.15994" lon="2.35975">
        <ele>224</ele>
        <time>2019-08-18T06:44:11.000Z</time>
      </trkpt>
      <trkpt lat="43.15993" lon="2.35976">
        <ele>224</ele>
        <time>2019-08-18T06:44:12.000Z</time>
      </trkpt>
      <trkpt lat="43.15992" lon="2.35977">
        <ele>224</ele>
        <time>2019-08-18T06:44:13.000Z</time>
      </trkpt>
      <trkpt lat="43.15991" lon="2.35978">
        <ele>224</ele>
        <time>2019-08-18T06:44:14.000Z</time>
      </trkpt>
      <trkpt lat="43.1599" lon="2.35978">
        <ele>224</ele>
        <time>2019-08-18T06:44:15.000Z</time>
      </trkpt>
      <trkpt lat="43.15989" lon="2.35979">
        <ele>223.9</ele>
        <time>2019-08-18T06:44:16.000Z</time>
      </trkpt>
      <trkpt lat="43.15989" lon="2.35979">
        <ele>223.9</ele>
        <time>2019-08-18T06:44:17.000Z</time>
      </trkpt>
      <trkpt lat="43.15988" lon="2.3598">
        <ele>223.9</ele>
        <time>2019-08-18T06:44:18.000Z</time>
      </trkpt>
      <trkpt lat="43.15987" lon="2.3598">
        <ele>223.9</ele>
        <time>2019-08-18T06:44:19.000Z</time>
      </trkpt>
      <trkpt lat="43.15986" lon="2.35981">
        <ele>223.8</ele>
        <time>2019-08-18T06:44:20.000Z</time>
      </trkpt>
      <trkpt lat="43.15985" lon="2.35982">
        <ele>223.8</ele>
        <time>2019-08-18T06:44:21.000Z</time>
      </trkpt>
      <trkpt lat="43.15984" lon="2.35983">
        <ele>223.8</ele>
        <time>2019-08-18T06:44:22.000Z</time>
      </trkpt>
      <trkpt lat="43.15984" lon="2.35984">
        <ele>223.8</ele>
        <time>2019-08-18T06:44:23.000Z</time>
      </trkpt>
      <trkpt lat="43.15983" lon="2.35985">
        <ele>223.9</ele>
        <time>2019-08-18T06:44:24.000Z</time>
      </trkpt>
      <trkpt lat="43.15982" lon="2.35986">
        <ele>223.9</ele>
        <time>2019-08-18T06:44:25.000Z</time>
      </trkpt>
      <trkpt lat="43.15981" lon="2.35987">
        <ele>223.9</ele>
        <time>2019-08-18T06:44:26.000Z</time>
      </trkpt>
      <trkpt lat="43.1598" lon="2.35989">
        <ele>223.9</ele>
        <time>2019-08-18T06:44:27.000Z</time>
      </trkpt>
      <trkpt lat="43.15979" lon="2.3599">
        <ele>224</ele>
        <time>2019-08-18T06:44:28.000Z</time>
      </trkpt>
      <trkpt lat="43.15978" lon="2.35991">
        <ele>224</ele>
        <time>2019-08-18T06:44:29.000Z</time>
      </trkpt>
      <trkpt lat="43.15977" lon="2.35993">
        <ele>224</ele>
        <time>2019-08-18T06:44:30.000Z</time>
      </trkpt>
      <trkpt lat="43.15976" lon="2.35994">
        <ele>224</ele>
        <time>2019-08-18T06:44:31.000Z</time>
      </trkpt>
      <trkpt lat="43.15975" lon="2.35995">
        <ele>224.1</ele>
        <time>2019-08-18T06:44:32.000Z</time>
      </trkpt>
      <trkpt lat="43.15974" lon="2.35996">
        <ele>224.1</ele>
        <time>2019-08-18T06:44:33.000Z</time>
      </trkpt>
      <trkpt lat="43.15972" lon="2.35997">
        <ele>224.1</ele>
        <time>2019-08-18T06:44:34.000Z</time>
      </trkpt>
      <trkpt lat="43.15971" lon="2.35999">
        <ele>224.1</ele>
        <time>2019-08-18T06:44:35.000Z</time>
      </trkpt>
      <trkpt lat="43.1597" lon="2.36001">
        <ele>224.1</ele>
        <time>2019-08-18T06:44:36.000Z</time>
      </trkpt>
      <trkpt lat="43.15968" lon="2.36003">
        <ele>224.1</ele>
        <time>2019-08-18T06:44:37.000Z</time>
      </trkpt>
      <trkpt lat="43.15968" lon="2.36005">
        <ele>224.2</ele>
        <time>2019-08-18T06:44:38.000Z</time>
      </trkpt>
      <trkpt lat="43.15967" lon="2.36007">
        <ele>224.3</ele>
        <time>2019-08-18T06:44:39.000Z</time>
      </trkpt>
      <trkpt lat="43.15967" lon="2.36009">
        <ele>224.4</ele>
        <time>2019-08-18T06:44:40.000Z</time>
      </trkpt>
      <trkpt lat="43.15967" lon="2.36012">
        <ele>224.5</ele>
        <time>2019-08-18T06:44:41.000Z</time>
      </trkpt>
      <trkpt lat="43.15967" lon="2.36014">
        <ele>224.7</ele>
        <time>2019-08-18T06:44:42.000Z</time>
      </trkpt>
      <trkpt lat="43.15968" lon="2.36016">
        <ele>224.8</ele>
        <time>2019-08-18T06:44:43.000Z</time>
      </trkpt>
      <trkpt lat="43.15968" lon="2.36018">
        <ele>225</ele>
        <time>2019-08-18T06:44:44.000Z</time>
      </trkpt>
      <trkpt lat="43.15969" lon="2.3602">
        <ele>225.2</ele>
        <time>2019-08-18T06:44:45.000Z</time>
      </trkpt>
      <trkpt lat="43.15969" lon="2.36023">
        <ele>225.3</ele>
        <time>2019-08-18T06:44:46.000Z</time>
      </trkpt>
      <trkpt lat="43.15969" lon="2.36025">
        <ele>225.5</ele>
        <time>2019-08-18T06:44:47.000Z</time>
      </trkpt>
      <trkpt lat="43.1597" lon="2.36027">
        <ele>225.6</ele>
        <time>2019-08-18T06:44:48.000Z</time>
      </trkpt>
      <trkpt lat="43.1597" lon="2.36029">
        <ele>225.8</ele>
        <time>2019-08-18T06:44:49.000Z</time>
      </trkpt>
      <trkpt lat="43.1597" lon="2.36031">
        <ele>225.9</ele>
        <time>2019-08-18T06:44:50.000Z</time>
      </trkpt>
      <trkpt lat="43.1597" lon="2.36033">
        <ele>226.1</ele>
        <time>2019-08-18T06:44:51.000Z</time>
      </trkpt>
      <trkpt lat="43.15971" lon="2.36036">
        <ele>226.2</ele>
        <time>2019-08-18T06:44:52.000Z</time>
      </trkpt>
      <trkpt lat="43.15971" lon="2.36038">
        <ele>226.3</ele>
        <time>2019-08-18T06:44:53.000Z</time>
      </trkpt>
      <trkpt lat="43.15971" lon="2.3604">
        <ele>226.5</ele>
        <time>2019-08-18T06:44:54.000Z</time>
      </trkpt>
      <trkpt lat="43.15971" lon="2.36043">
        <ele>226.6</ele>
        <time>2019-08-18T06:44:55.000Z</time>
      </trkpt>
      <trkpt lat="43.15971" lon="2.36045">
        <ele>226.8</ele>
        <time>2019-08-18T06:44:56.000Z</time>
      </trkpt>
      <trkpt lat="43.15971" lon="2.36048">
        <ele>226.9</ele>
        <time>2019-08-18T06:44:57.000Z</time>
      </trkpt>
      <trkpt lat="43.15971" lon="2.3605">
        <ele>227.1</ele>
        <time>2019-08-18T06:44:58.000Z</time>
      </trkpt>
      <trkpt lat="43.15972" lon="2.36053">
        <ele>227.3</ele>
        <time>2019-08-18T06:44:59.000Z</time>
      </trkpt>
      <trkpt lat="43.15972" lon="2.36055">
        <ele>227.4</ele>
        <time>2019-08-18T06:45:00.000Z</time>
      </trkpt>
      <trkpt lat="43.15972" lon="2.36058">
        <ele>227.6</ele>
        <time>2019-08-18T06:45:01.000Z</time>
      </trkpt>
      <trkpt lat="43.15973" lon="2.3606">
        <ele>227.7</ele>
        <time>2019-08-18T06:45:02.000Z</time>
      </trkpt>
      <trkpt lat="43.15973" lon="2.36063">
        <ele>227.9</ele>
        <time>2019-08-18T06:45:03.000Z</time>
      </trkpt>
      <trkpt lat="43.15973" lon="2.36065">
        <ele>228</ele>
        <time>2019-08-18T06:45:04.000Z</time>
      </trkpt>
      <trkpt lat="43.15972" lon="2.36067">
        <ele>228.1</ele>
        <time>2019-08-18T06:45:05.000Z</time>
      </trkpt>
      <trkpt lat="43.15971" lon="2.3607">
        <ele>228.2</ele>
        <time>2019-08-18T06:45:06.000Z</time>
      </trkpt>
      <trkpt lat="43.1597" lon="2.36072">
        <ele>228.3</ele>
        <time>2019-08-18T06:45:07.000Z</time>
      </trkpt>
      <trkpt lat="43.15969" lon="2.36074">
        <ele>228.3</ele>
        <time>2019-08-18T06:45:08.000Z</time>
      </trkpt>
      <trkpt lat="43.15967" lon="2.36077">
        <ele>228.4</ele>
        <time>2019-08-18T06:45:09.000Z</time>
      </trkpt>
      <trkpt lat="43.15966" lon="2.36079">
        <ele>228.5</ele>
        <time>2019-08-18T06:45:10.000Z</time>
      </trkpt>
      <trkpt lat="43.15964" lon="2.36082">
        <ele>228.6</ele>
        <time>2019-08-18T06:45:11.000Z</time>
      </trkpt>
      <trkpt lat="43.15963" lon="2.36084">
        <ele>228.7</ele>
        <time>2019-08-18T06:45:12.000Z</time>
      </trkpt>
      <trkpt lat="43.15962" lon="2.36087">
        <ele>228.8</ele>
        <time>2019-08-18T06:45:13.000Z</time>
      </trkpt>
      <trkpt lat="43.15961" lon="2.3609">
        <ele>228.9</ele>
        <time>2019-08-18T06:45:14.000Z</time>
      </trkpt>
      <trkpt lat="43.1596" lon="2.36093">
        <ele>229</ele>
        <time>2019-08-18T06:45:15.000Z</time>
      </trkpt>
      <trkpt lat="43.1596" lon="2.36095">
        <ele>229.1</ele>
        <time>2019-08-18T06:45:16.000Z</time>
      </trkpt>
      <trkpt lat="43.15959" lon="2.36098">
        <ele>229.2</ele>
        <time>2019-08-18T06:45:17.000Z</time>
      </trkpt>
      <trkpt lat="43.15958" lon="2.36101">
        <ele>229.4</ele>
        <time>2019-08-18T06:45:18.000Z</time>
      </trkpt>
      <trkpt lat="43.15958" lon="2.36104">
        <ele>229.5</ele>
        <time>2019-08-18T06:45:19.000Z</time>
      </trkpt>
      <trkpt lat="43.15958" lon="2.36107">
        <ele>229.6</ele>
        <time>2019-08-18T06:45:20.000Z</time>
      </trkpt>
      <trkpt lat="43.15957" lon="2.3611">
        <ele>229.8</ele>
        <time>2019-08-18T06:45:21.000Z</time>
      </trkpt>
      <trkpt lat="43.15956" lon="2.36113">
        <ele>229.9</ele>
        <time>2019-08-18T06:45:22.000Z</time>
      </trkpt>
      <trkpt lat="43.15956" lon="2.36116">
        <ele>230.1</ele>
        <time>2019-08-18T06:45:23.000Z</time>
      </trkpt>
      <trkpt lat="43.15955" lon="2.36118">
        <ele>230.2</ele>
        <time>2019-08-18T06:45:24.000Z</time>
      </trkpt>
      <trkpt lat="43.15954" lon="2.3612">
        <ele>230.3</ele>
        <time>2019-08-18T06:45:25.000Z</time>
      </trkpt>
      <trkpt lat="43.15952" lon="2.36122">
        <ele>230.4</ele>
        <time>2019-08-18T06:45:26.000Z</time>
      </trkpt>
      <trkpt lat="43.15951" lon="2.36124">
        <ele>230.5</ele>
        <time>2019-08-18T06:45:27.000Z</time>
      </trkpt>
      <trkpt lat="43.15949" lon="2.36125">
        <ele>230.6</ele>
        <time>2019-08-18T06:45:28.000Z</time>
      </trkpt>
      <trkpt lat="43.15947" lon="2.36127">
        <ele>230.7</ele>
        <time>2019-08-18T06:45:29.000Z</time>
      </trkpt>
      <trkpt lat="43.15946" lon="2.36128">
        <ele>230.9</ele>
        <time>2019-08-18T06:45:30.000Z</time>
      </trkpt>
      <trkpt lat="43.15944" lon="2.36131">
        <ele>231</ele>
        <time>2019-08-18T06:45:31.000Z</time>
      </trkpt>
      <trkpt lat="43.15942" lon="2.36133">
        <ele>231.2</ele>
        <time>2019-08-18T06:45:32.000Z</time>
      </trkpt>
      <trkpt lat="43.15941" lon="2.36136">
        <ele>231.4</ele>
        <time>2019-08-18T06:45:33.000Z</time>
      </trkpt>
      <trkpt lat="43.15939" lon="2.36138">
        <ele>231.6</ele>
        <time>2019-08-18T06:45:34.000Z</time>
      </trkpt>
      <trkpt lat="43.15938" lon="2.3614">
        <ele>231.8</ele>
        <time>2019-08-18T06:45:35.000Z</time>
      </trkpt>
      <trkpt lat="43.15938" lon="2.36142">
        <ele>232</ele>
        <time>2019-08-18T06:45:36.000Z</time>
      </trkpt>
      <trkpt lat="43.15937" lon="2.36144">
        <ele>232.1</ele>
        <time>2019-08-18T06:45:37.000Z</time>
      </trkpt>
      <trkpt lat="43.15937" lon="2.36146">
        <ele>232.3</ele>
        <time>2019-08-18T06:45:38.000Z</time>
      </trkpt>
      <trkpt lat="43.15936" lon="2.36148">
        <ele>232.4</ele>
        <time>2019-08-18T06:45:39.000Z</time>
      </trkpt>
      <trkpt lat="43.15936" lon="2.3615">
        <ele>232.6</ele>
        <time>2019-08-18T06:45:40.000Z</time>
      </trkpt>
      <trkpt lat="43.15935" lon="2.36151">
        <ele>232.7</ele>
        <time>2019-08-18T06:45:41.000Z</time>
      </trkpt>
      <trkpt lat="43.15934" lon="2.36153">
        <ele>232.9</ele>
        <time>2019-08-18T06:45:42.000Z</time>
      </trkpt>
      <trkpt lat="43.15934" lon="2.36155">
        <ele>233.1</ele>
        <time>2019-08-18T06:45:43.000Z</time>
      </trkpt>
      <trkpt lat="43.15933" lon="2.36156">
        <ele>233.2</ele>
        <time>2019-08-18T06:45:44.000Z</time>
      </trkpt>
      <trkpt lat="43.15932" lon="2.36158">
        <ele>233.4</ele>
        <time>2019-08-18T06:45:45.000Z</time>
      </trkpt>
      <trkpt lat="43.15932" lon="2.3616">
        <ele>233.6</ele>
        <time>2019-08-18T06:45:46.000Z</time>
      </trkpt>
      <trkpt lat="43.15931" lon="2.36162">
        <ele>233.7</ele>
        <time>2019-08-18T06:45:47.000Z</time>
      </trkpt>
      <trkpt lat="43.15931" lon="2.36163">
        <ele>233.9</ele>
        <time>2019-08-18T06:45:48.000Z</time>
      </trkpt>
      <trkpt lat="43.1593" lon="2.36165">
        <ele>234</ele>
        <time>2019-08-18T06:45:49.000Z</time>
      </trkpt>
      <trkpt lat="43.1593" lon="2.36166">
        <ele>234.2</ele>
        <time>2019-08-18T06:45:50.000Z</time>
      </trkpt>
      <trkpt lat="43.1593" lon="2.36168">
        <ele>234.4</ele>
        <time>2019-08-18T06:45:51.000Z</time>
      </trkpt>
      <trkpt lat="43.1593" lon="2.3617">
        <ele>234.6</ele>
        <time>2019-08-18T06:45:52.000Z</time>
      </trkpt>
      <trkpt lat="43.1593" lon="2.36171">
        <ele>234.8</ele>
        <time>2019-08-18T06:45:53.000Z</time>
      </trkpt>
      <trkpt lat="43.1593" lon="2.36173">
        <ele>235</ele>
        <time>2019-08-18T06:45:54.000Z</time>
      </trkpt>
      <trkpt lat="43.1593" lon="2.36175">
        <ele>235.3</ele>
        <time>2019-08-18T06:45:55.000Z</time>
      </trkpt>
      <trkpt lat="43.1593" lon="2.36177">
        <ele>235.5</ele>
        <time>2019-08-18T06:45:56.000Z</time>
      </trkpt>
      <trkpt lat="43.1593" lon="2.36178">
        <ele>235.8</ele>
        <time>2019-08-18T06:45:57.000Z</time>
      </trkpt>
      <trkpt lat="43.1593" lon="2.3618">
        <ele>236</ele>
        <time>2019-08-18T06:45:58.000Z</time>
      </trkpt>
      <trkpt lat="43.1593" lon="2.36181">
        <ele>236.2</ele>
        <time>2019-08-18T06:45:59.000Z</time>
      </trkpt>
      <trkpt lat="43.1593" lon="2.36183">
        <ele>236.4</ele>
        <time>2019-08-18T06:46:00.000Z</time>
      </trkpt>
      <trkpt lat="43.1593" lon="2.36184">
        <ele>236.5</ele>
        <time>2019-08-18T06:46:01.000Z</time>
      </trkpt>
      <trkpt lat="43.15929" lon="2.36185">
        <ele>236.7</ele>
        <time>2019-08-18T06:46:02.000Z</time>
      </trkpt>
      <trkpt lat="43.15929" lon="2.36185">
        <ele>236.8</ele>
        <time>2019-08-18T06:46:03.000Z</time>
      </trkpt>
      <trkpt lat="43.15929" lon="2.36186">
        <ele>236.9</ele>
        <time>2019-08-18T06:46:04.000Z</time>
      </trkpt>
      <trkpt lat="43.15929" lon="2.36186">
        <ele>236.9</ele>
        <time>2019-08-18T06:46:05.000Z</time>
      </trkpt>
      <trkpt lat="43.15929" lon="2.36186">
        <ele>237</ele>
        <time>2019-08-18T06:46:06.000Z</time>
      </trkpt>
      <trkpt lat="43.15929" lon="2.36186">
        <ele>237</ele>
        <time>2019-08-18T06:46:07.000Z</time>
      </trkpt>
      <trkpt lat="43.15928" lon="2.36186">
        <ele>237</ele>
        <time>2019-08-18T06:46:08.000Z</time>
      </trkpt>
      <trkpt lat="43.15928" lon="2.36186">
        <ele>237</ele>
        <time>2019-08-18T06:46:09.000Z</time>
      </trkpt>
      <trkpt lat="43.15928" lon="2.36186">
        <ele>237</ele>
        <time>2019-08-18T06:46:10.000Z</time>
      </trkpt>
      <trkpt lat="43.15928" lon="2.36186">
        <ele>237</ele>
        <time>2019-08-18T06:46:11.000Z</time>
      </trkpt>
      <trkpt lat="43.15928" lon="2.36186">
        <ele>237</ele>
        <time>2019-08-18T06:46:12.000Z</time>
      </trkpt>
      <trkpt lat="43.15928" lon="2.36187">
        <ele>237</ele>
        <time>2019-08-18T06:46:13.000Z</time>
      </trkpt>
      <trkpt lat="43.15928" lon="2.36187">
        <ele>237.1</ele>
        <time>2019-08-18T06:46:14.000Z</time>
      </trkpt>
      <trkpt lat="43.15928" lon="2.36187">
        <ele>237.1</ele>
        <time>2019-08-18T06:46:15.000Z</time>
      </trkpt>
      <trkpt lat="43.15928" lon="2.36187">
        <ele>237.1</ele>
        <time>2019-08-18T06:46:16.000Z</time>
      </trkpt>
      <trkpt lat="43.15928" lon="2.36187">
        <ele>237.2</ele>
        <time>2019-08-18T06:46:17.000Z</time>
      </trkpt>
      <trkpt lat="43.15927" lon="2.36188">
        <ele>237.3</ele>
        <time>2019-08-18T06:46:18.000Z</time>
      </trkpt>
      <trkpt lat="43.15927" lon="2.36188">
        <ele>237.4</ele>
        <time>2019-08-18T06:46:19.000Z</time>
      </trkpt>
      <trkpt lat="43.15926" lon="2.36189">
        <ele>237.5</ele>
        <time>2019-08-18T06:46:20.000Z</time>
      </trkpt>
      <trkpt lat="43.15926" lon="2.36189">
        <ele>237.6</ele>
        <time>2019-08-18T06:46:21.000Z</time>
      </trkpt>
      <trkpt lat="43.15925" lon="2.3619">
        <ele>237.8</ele>
        <time>2019-08-18T06:46:22.000Z</time>
      </trkpt>
      <trkpt lat="43.15924" lon="2.3619">
        <ele>237.9</ele>
        <time>2019-08-18T06:46:23.000Z</time>
      </trkpt>
      <trkpt lat="43.15923" lon="2.3619">
        <ele>238</ele>
        <time>2019-08-18T06:46:24.000Z</time>
      </trkpt>
      <trkpt lat="43.15922" lon="2.36191">
        <ele>238.2</ele>
        <time>2019-08-18T06:46:25.000Z</time>
      </trkpt>
      <trkpt lat="43.15921" lon="2.36191">
        <ele>238.4</ele>
        <time>2019-08-18T06:46:26.000Z</time>
      </trkpt>
      <trkpt lat="43.1592" lon="2.36192">
        <ele>238.6</ele>
        <time>2019-08-18T06:46:27.000Z</time>
      </trkpt>
      <trkpt lat="43.15918" lon="2.36193">
        <ele>238.9</ele>
        <time>2019-08-18T06:46:28.000Z</time>
      </trkpt>
      <trkpt lat="43.15916" lon="2.36194">
        <ele>239.3</ele>
        <time>2019-08-18T06:46:29.000Z</time>
      </trkpt>
      <trkpt lat="43.15915" lon="2.36195">
        <ele>239.7</ele>
        <time>2019-08-18T06:46:30.000Z</time>
      </trkpt>
      <trkpt lat="43.15913" lon="2.36196">
        <ele>240</ele>
        <time>2019-08-18T06:46:31.000Z</time>
      </trkpt>
      <trkpt lat="43.15911" lon="2.36197">
        <ele>240.3</ele>
        <time>2019-08-18T06:46:32.000Z</time>
      </trkpt>
      <trkpt lat="43.15909" lon="2.36198">
        <ele>240.7</ele>
        <time>2019-08-18T06:46:33.000Z</time>
      </trkpt>
      <trkpt lat="43.15908" lon="2.36198">
        <ele>240.9</ele>
        <time>2019-08-18T06:46:34.000Z</time>
      </trkpt>
      <trkpt lat="43.15906" lon="2.36199">
        <ele>241.2</ele>
        <time>2019-08-18T06:46:35.000Z</time>
      </trkpt>
      <trkpt lat="43.15904" lon="2.36199">
        <ele>241.4</ele>
        <time>2019-08-18T06:46:36.000Z</time>
      </trkpt>
      <trkpt lat="43.15902" lon="2.36199">
        <ele>241.7</ele>
        <time>2019-08-18T06:46:37.000Z</time>
      </trkpt>
      <trkpt lat="43.159" lon="2.36199">
        <ele>241.9</ele>
        <time>2019-08-18T06:46:38.000Z</time>
      </trkpt>
      <trkpt lat="43.15898" lon="2.36199">
        <ele>242.1</ele>
        <time>2019-08-18T06:46:39.000Z</time>
      </trkpt>
      <trkpt lat="43.15896" lon="2.36199">
        <ele>242.3</ele>
        <time>2019-08-18T06:46:40.000Z</time>
      </trkpt>
      <trkpt lat="43.15894" lon="2.36199">
        <ele>242.5</ele>
        <time>2019-08-18T06:46:41.000Z</time>
      </trkpt>
      <trkpt lat="43.15892" lon="2.36199">
        <ele>242.7</ele>
        <time>2019-08-18T06:46:42.000Z</time>
      </trkpt>
      <trkpt lat="43.1589" lon="2.36198">
        <ele>242.9</ele>
        <time>2019-08-18T06:46:43.000Z</time>
      </trkpt>
      <trkpt lat="43.15888" lon="2.36198">
        <ele>243</ele>
        <time>2019-08-18T06:46:44.000Z</time>
      </trkpt>
      <trkpt lat="43.15886" lon="2.36198">
        <ele>243.2</ele>
        <time>2019-08-18T06:46:45.000Z</time>
      </trkpt>
      <trkpt lat="43.15884" lon="2.36197">
        <ele>243.4</ele>
        <time>2019-08-18T06:46:46.000Z</time>
      </trkpt>
      <trkpt lat="43.15882" lon="2.36197">
        <ele>243.5</ele>
        <time>2019-08-18T06:46:47.000Z</time>
      </trkpt>
      <trkpt lat="43.15879" lon="2.36196">
        <ele>243.7</ele>
        <time>2019-08-18T06:46:48.000Z</time>
      </trkpt>
      <trkpt lat="43.15877" lon="2.36196">
        <ele>243.9</ele>
        <time>2019-08-18T06:46:49.000Z</time>
      </trkpt>
      <trkpt lat="43.15875" lon="2.36195">
        <ele>244</ele>
        <time>2019-08-18T06:46:50.000Z</time>
      </trkpt>
      <trkpt lat="43.15873" lon="2.36194">
        <ele>244.2</ele>
        <time>2019-08-18T06:46:51.000Z</time>
      </trkpt>
      <trkpt lat="43.15871" lon="2.36194">
        <ele>244.4</ele>
        <time>2019-08-18T06:46:52.000Z</time>
      </trkpt>
      <trkpt lat="43.15869" lon="2.36193">
        <ele>244.6</ele>
        <time>2019-08-18T06:46:53.000Z</time>
      </trkpt>
      <trkpt lat="43.15867" lon="2.36193">
        <ele>244.7</ele>
        <time>2019-08-18T06:46:54.000Z</time>
      </trkpt>
      <trkpt lat="43.15865" lon="2.36192">
        <ele>244.9</ele>
        <time>2019-08-18T06:46:55.000Z</time>
      </trkpt>
      <trkpt lat="43.15863" lon="2.36192">
        <ele>245.1</ele>
        <time>2019-08-18T06:46:56.000Z</time>
      </trkpt>
      <trkpt lat="43.15861" lon="2.36192">
        <ele>245.3</ele>
        <time>2019-08-18T06:46:57.000Z</time>
      </trkpt>
      <trkpt lat="43.15859" lon="2.36191">
        <ele>245.5</ele>
        <time>2019-08-18T06:46:58.000Z</time>
      </trkpt>
      <trkpt lat="43.15857" lon="2.36191">
        <ele>245.7</ele>
        <time>2019-08-18T06:46:59.000Z</time>
      </trkpt>
      <trkpt lat="43.15855" lon="2.36191">
        <ele>245.9</ele>
        <time>2019-08-18T06:47:00.000Z</time>
      </trkpt>
      <trkpt lat="43.15853" lon="2.36191">
        <ele>246.1</ele>
        <time>2019-08-18T06:47:01.000Z</time>
      </trkpt>
      <trkpt lat="43.15851" lon="2.36191">
        <ele>246.3</ele>
        <time>2019-08-18T06:47:02.000Z</time>
      </trkpt>
      <trkpt lat="43.15849" lon="2.36191">
        <ele>246.5</ele>
        <time>2019-08-18T06:47:03.000Z</time>
      </trkpt>
      <trkpt lat="43.15847" lon="2.36191">
        <ele>246.7</ele>
        <time>2019-08-18T06:47:04.000Z</time>
      </trkpt>
      <trkpt lat="43.15846" lon="2.36191">
        <ele>246.9</ele>
        <time>2019-08-18T06:47:05.000Z</time>
      </trkpt>
      <trkpt lat="43.15844" lon="2.36191">
        <ele>247.2</ele>
        <time>2019-08-18T06:47:06.000Z</time>
      </trkpt>
      <trkpt lat="43.15842" lon="2.36192">
        <ele>247.4</ele>
        <time>2019-08-18T06:47:07.000Z</time>
      </trkpt>
      <trkpt lat="43.1584" lon="2.36192">
        <ele>247.6</ele>
        <time>2019-08-18T06:47:08.000Z</time>
      </trkpt>
      <trkpt lat="43.15839" lon="2.36192">
        <ele>247.9</ele>
        <time>2019-08-18T06:47:09.000Z</time>
      </trkpt>
      <trkpt lat="43.15837" lon="2.36193">
        <ele>248.1</ele>
        <time>2019-08-18T06:47:10.000Z</time>
      </trkpt>
      <trkpt lat="43.15835" lon="2.36193">
        <ele>248.4</ele>
        <time>2019-08-18T06:47:11.000Z</time>
      </trkpt>
      <trkpt lat="43.15834" lon="2.36194">
        <ele>248.6</ele>
        <time>2019-08-18T06:47:12.000Z</time>
      </trkpt>
      <trkpt lat="43.15832" lon="2.36195">
        <ele>248.7</ele>
        <time>2019-08-18T06:47:13.000Z</time>
      </trkpt>
      <trkpt lat="43.1583" lon="2.36195">
        <ele>248.7</ele>
        <time>2019-08-18T06:47:14.000Z</time>
      </trkpt>
      <trkpt lat="43.15828" lon="2.36196">
        <ele>248.7</ele>
        <time>2019-08-18T06:47:15.000Z</time>
      </trkpt>
      <trkpt lat="43.15826" lon="2.36197">
        <ele>248.8</ele>
        <time>2019-08-18T06:47:16.000Z</time>
      </trkpt>
      <trkpt lat="43.15825" lon="2.36198">
        <ele>248.8</ele>
        <time>2019-08-18T06:47:17.000Z</time>
      </trkpt>
      <trkpt lat="43.15823" lon="2.36199">
        <ele>248.9</ele>
        <time>2019-08-18T06:47:18.000Z</time>
      </trkpt>
      <trkpt lat="43.15821" lon="2.362">
        <ele>248.9</ele>
        <time>2019-08-18T06:47:19.000Z</time>
      </trkpt>
      <trkpt lat="43.1582" lon="2.36201">
        <ele>249</ele>
        <time>2019-08-18T06:47:20.000Z</time>
      </trkpt>
      <trkpt lat="43.15819" lon="2.36201">
        <ele>249</ele>
        <time>2019-08-18T06:47:21.000Z</time>
      </trkpt>
      <trkpt lat="43.15817" lon="2.36202">
        <ele>249</ele>
        <time>2019-08-18T06:47:22.000Z</time>
      </trkpt>
      <trkpt lat="43.15816" lon="2.36203">
        <ele>249</ele>
        <time>2019-08-18T06:47:23.000Z</time>
      </trkpt>
      <trkpt lat="43.15814" lon="2.36203">
        <ele>249</ele>
        <time>2019-08-18T06:47:24.000Z</time>
      </trkpt>
      <trkpt lat="43.15813" lon="2.36203">
        <ele>249</ele>
        <time>2019-08-18T06:47:25.000Z</time>
      </trkpt>
      <trkpt lat="43.15812" lon="2.36204">
        <ele>249</ele>
        <time>2019-08-18T06:47:26.000Z</time>
      </trkpt>
      <trkpt lat="43.1581" lon="2.36204">
        <ele>249</ele>
        <time>2019-08-18T06:47:27.000Z</time>
      </trkpt>
      <trkpt lat="43.15809" lon="2.36204">
        <ele>248.9</ele>
        <time>2019-08-18T06:47:28.000Z</time>
      </trkpt>
      <trkpt lat="43.15808" lon="2.36204">
        <ele>248.9</ele>
        <time>2019-08-18T06:47:29.000Z</time>
      </trkpt>
      <trkpt lat="43.15807" lon="2.36204">
        <ele>248.9</ele>
        <time>2019-08-18T06:47:30.000Z</time>
      </trkpt>
      <trkpt lat="43.15806" lon="2.36204">
        <ele>248.9</ele>
        <time>2019-08-18T06:47:31.000Z</time>
      </trkpt>
      <trkpt lat="43.15805" lon="2.36204">
        <ele>248.9</ele>
        <time>2019-08-18T06:47:32.000Z</time>
      </trkpt>
      <trkpt lat="43.15805" lon="2.36204">
        <ele>248.8</ele>
        <time>2019-08-18T06:47:33.000Z</time>
      </trkpt>
      <trkpt lat="43.15804" lon="2.36204">
        <ele>248.8</ele>
        <time>2019-08-18T06:47:34.000Z</time>
      </trkpt>
      <trkpt lat="43.15803" lon="2.36204">
        <ele>248.8</ele>
        <time>2019-08-18T06:47:35.000Z</time>
      </trkpt>
      <trkpt lat="43.15803" lon="2.36204">
        <ele>248.8</ele>
        <time>2019-08-18T06:47:36.000Z</time>
      </trkpt>
      <trkpt lat="43.15803" lon="2.36204">
        <ele>248.8</ele>
        <time>2019-08-18T06:47:37.000Z</time>
      </trkpt>
      <trkpt lat="43.15802" lon="2.36204">
        <ele>248.8</ele>
        <time>2019-08-18T06:47:38.000Z</time>
      </trkpt>
      <trkpt lat="43.15802" lon="2.36204">
        <ele>248.8</ele>
        <time>2019-08-18T06:47:39.000Z</time>
      </trkpt>
      <trkpt lat="43.15802" lon="2.36204">
        <ele>248.8</ele>
        <time>2019-08-18T06:47:40.000Z</time>
      </trkpt>
      <trkpt lat="43.15802" lon="2.36204">
        <ele>248.8</ele>
        <time>2019-08-18T06:47:41.000Z</time>
      </trkpt>
      <trkpt lat="43.15802" lon="2.36204">
        <ele>248.8</ele>
        <time>2019-08-18T06:47:42.000Z</time>
      </trkpt>
      <trkpt lat="43.15802" lon="2.36204">
        <ele>248.7</ele>
        <time>2019-08-18T06:47:43.000Z</time>
      </trkpt>
      <trkpt lat="43.15801" lon="2.36203">
        <ele>248.7</ele>
        <time>2019-08-18T06:47:44.000Z</time>
      </trkpt>
      <trkpt lat="43.15801" lon="2.36203">
        <ele>248.7</ele>
        <time>2019-08-18T06:47:45.000Z</time>
      </trkpt>
      <trkpt lat="43.15801" lon="2.36203">
        <ele>248.7</ele>
        <time>2019-08-18T06:47:46.000Z</time>
      </trkpt>
      <trkpt lat="43.15801" lon="2.36203">
        <ele>248.7</ele>
        <time>2019-08-18T06:47:47.000Z</time>
      </trkpt>
      <trkpt lat="43.15801" lon="2.36203">
        <ele>248.7</ele>
        <time>2019-08-18T06:47:48.000Z</time>
      </trkpt>
      <trkpt lat="43.15801" lon="2.36203">
        <ele>248.7</ele>
        <time>2019-08-18T06:47:49.000Z</time>
      </trkpt>
      <trkpt lat="43.15801" lon="2.36203">
        <ele>248.7</ele>
        <time>2019-08-18T06:47:50.000Z</time>
      </trkpt>
      <trkpt lat="43.15801" lon="2.36203">
        <ele>248.7</ele>
        <time>2019-08-18T06:47:51.000Z</time>
      </trkpt>
      <trkpt lat="43.15801" lon="2.36203">
        <ele>248.7</ele>
        <time>2019-08-18T06:47:52.000Z</time>
      </trkpt>
      <trkpt lat="43.15801" lon="2.36203">
        <ele>248.7</ele>
        <time>2019-08-18T06:47:53.000Z</time>
      </trkpt>
      <trkpt lat="43.15801" lon="2.36203">
        <ele>248.7</ele>
        <time>2019-08-18T06:47:54.000Z</time>
      </trkpt>
      <trkpt lat="43.15801" lon="2.36203">
        <ele>248.7</ele>
        <time>2019-08-18T06:47:55.000Z</time>
      </trkpt>
      <trkpt lat="43.15801" lon="2.36203">
        <ele>248.7</ele>
        <time>2019-08-18T06:47:56.000Z</time>
      </trkpt>
      <trkpt lat="43.15801" lon="2.36203">
        <ele>248.7</ele>
        <time>2019-08-18T06:47:57.000Z</time>
      </trkpt>
      <trkpt lat="43.15801" lon="2.36203">
        <ele>248.7</ele>
        <time>2019-08-18T06:47:58.000Z</time>
      </trkpt>
      <trkpt lat="43.15802" lon="2.36203">
        <ele>248.7</ele>
        <time>2019-08-18T06:47:59.000Z</time>
      </trkpt>
      <trkpt lat="43.15802" lon="2.36202">
        <ele>248.7</ele>
        <time>2019-08-18T06:48:00.000Z</time>
      </trkpt>
      <trkpt lat="43.15804" lon="2.36202">
        <ele>248.7</ele>
        <time>2019-08-18T06:48:01.000Z</time>
      </trkpt>
      <trkpt lat="43.15805" lon="2.36202">
        <ele>248.7</ele>
        <time>2019-08-18T06:48:02.000Z</time>
      </trkpt>
      <trkpt lat="43.15807" lon="2.36201">
        <ele>248.7</ele>
        <time>2019-08-18T06:48:03.000Z</time>
      </trkpt>
      <trkpt lat="43.15808" lon="2.362">
        <ele>248.7</ele>
        <time>2019-08-18T06:48:04.000Z</time>
      </trkpt>
      <trkpt lat="43.15811" lon="2.36199">
        <ele>248.7</ele>
        <time>2019-08-18T06:48:05.000Z</time>
      </trkpt>
      <trkpt lat="43.15813" lon="2.36199">
        <ele>248.6</ele>
        <time>2019-08-18T06:48:06.000Z</time>
      </trkpt>
      <trkpt lat="43.15815" lon="2.36198">
        <ele>248.6</ele>
        <time>2019-08-18T06:48:07.000Z</time>
      </trkpt>
      <trkpt lat="43.15818" lon="2.36197">
        <ele>248.6</ele>
        <time>2019-08-18T06:48:08.000Z</time>
      </trkpt>
      <trkpt lat="43.1582" lon="2.36196">
        <ele>248.6</ele>
        <time>2019-08-18T06:48:09.000Z</time>
      </trkpt>
      <trkpt lat="43.15823" lon="2.36195">
        <ele>248.5</ele>
        <time>2019-08-18T06:48:10.000Z</time>
      </trkpt>
      <trkpt lat="43.15825" lon="2.36194">
        <ele>248.5</ele>
        <time>2019-08-18T06:48:11.000Z</time>
      </trkpt>
      <trkpt lat="43.15828" lon="2.36193">
        <ele>248.4</ele>
        <time>2019-08-18T06:48:12.000Z</time>
      </trkpt>
      <trkpt lat="43.1583" lon="2.36192">
        <ele>248.4</ele>
        <time>2019-08-18T06:48:13.000Z</time>
      </trkpt>
      <trkpt lat="43.15833" lon="2.36191">
        <ele>248.3</ele>
        <time>2019-08-18T06:48:14.000Z</time>
      </trkpt>
      <trkpt lat="43.15835" lon="2.3619">
        <ele>248</ele>
        <time>2019-08-18T06:48:15.000Z</time>
      </trkpt>
      <trkpt lat="43.15838" lon="2.36189">
        <ele>247.6</ele>
        <time>2019-08-18T06:48:16.000Z</time>
      </trkpt>
      <trkpt lat="43.1584" lon="2.36188">
        <ele>247.3</ele>
        <time>2019-08-18T06:48:17.000Z</time>
      </trkpt>
      <trkpt lat="43.15843" lon="2.36188">
        <ele>246.9</ele>
        <time>2019-08-18T06:48:18.000Z</time>
      </trkpt>
      <trkpt lat="43.15845" lon="2.36187">
        <ele>246.6</ele>
        <time>2019-08-18T06:48:19.000Z</time>
      </trkpt>
      <trkpt lat="43.15848" lon="2.36187">
        <ele>246.2</ele>
        <time>2019-08-18T06:48:20.000Z</time>
      </trkpt>
      <trkpt lat="43.1585" lon="2.36186">
        <ele>245.9</ele>
        <time>2019-08-18T06:48:21.000Z</time>
      </trkpt>
      <trkpt lat="43.15853" lon="2.36186">
        <ele>245.6</ele>
        <time>2019-08-18T06:48:22.000Z</time>
      </trkpt>
      <trkpt lat="43.15855" lon="2.36186">
        <ele>245.3</ele>
        <time>2019-08-18T06:48:23.000Z</time>
      </trkpt>
      <trkpt lat="43.15857" lon="2.36186">
        <ele>245</ele>
        <time>2019-08-18T06:48:24.000Z</time>
      </trkpt>
      <trkpt lat="43.1586" lon="2.36186">
        <ele>244.7</ele>
        <time>2019-08-18T06:48:25.000Z</time>
      </trkpt>
      <trkpt lat="43.15862" lon="2.36186">
        <ele>244.5</ele>
        <time>2019-08-18T06:48:26.000Z</time>
      </trkpt>
      <trkpt lat="43.15864" lon="2.36187">
        <ele>244.3</ele>
        <time>2019-08-18T06:48:27.000Z</time>
      </trkpt>
      <trkpt lat="43.15867" lon="2.36187">
        <ele>244</ele>
        <time>2019-08-18T06:48:28.000Z</time>
      </trkpt>
      <trkpt lat="43.15869" lon="2.36188">
        <ele>243.8</ele>
        <time>2019-08-18T06:48:29.000Z</time>
      </trkpt>
      <trkpt lat="43.15872" lon="2.36188">
        <ele>243.6</ele>
        <time>2019-08-18T06:48:30.000Z</time>
      </trkpt>
      <trkpt lat="43.15874" lon="2.36189">
        <ele>243.4</ele>
        <time>2019-08-18T06:48:31.000Z</time>
      </trkpt>
      <trkpt lat="43.15876" lon="2.3619">
        <ele>243.2</ele>
        <time>2019-08-18T06:48:32.000Z</time>
      </trkpt>
      <trkpt lat="43.15879" lon="2.3619">
        <ele>243.1</ele>
        <time>2019-08-18T06:48:33.000Z</time>
      </trkpt>
      <trkpt lat="43.15881" lon="2.36191">
        <ele>242.9</ele>
        <time>2019-08-18T06:48:34.000Z</time>
      </trkpt>
      <trkpt lat="43.15884" lon="2.36192">
        <ele>242.7</ele>
        <time>2019-08-18T06:48:35.000Z</time>
      </trkpt>
      <trkpt lat="43.15886" lon="2.36193">
        <ele>242.5</ele>
        <time>2019-08-18T06:48:36.000Z</time>
      </trkpt>
      <trkpt lat="43.15889" lon="2.36194">
        <ele>242.3</ele>
        <time>2019-08-18T06:48:37.000Z</time>
      </trkpt>
      <trkpt lat="43.15891" lon="2.36194">
        <ele>242.2</ele>
        <time>2019-08-18T06:48:38.000Z</time>
      </trkpt>
      <trkpt lat="43.15894" lon="2.36195">
        <ele>242</ele>
        <time>2019-08-18T06:48:39.000Z</time>
      </trkpt>
      <trkpt lat="43.15897" lon="2.36196">
        <ele>241.7</ele>
        <time>2019-08-18T06:48:40.000Z</time>
      </trkpt>
      <trkpt lat="43.15899" lon="2.36196">
        <ele>241.5</ele>
        <time>2019-08-18T06:48:41.000Z</time>
      </trkpt>
      <trkpt lat="43.15901" lon="2.36196">
        <ele>241.3</ele>
        <time>2019-08-18T06:48:42.000Z</time>
      </trkpt>
      <trkpt lat="43.15904" lon="2.36196">
        <ele>241</ele>
        <time>2019-08-18T06:48:43.000Z</time>
      </trkpt>
      <trkpt lat="43.15906" lon="2.36196">
        <ele>240.8</ele>
        <time>2019-08-18T06:48:44.000Z</time>
      </trkpt>
      <trkpt lat="43.15908" lon="2.36195">
        <ele>240.5</ele>
        <time>2019-08-18T06:48:45.000Z</time>
      </trkpt>
      <trkpt lat="43.15909" lon="2.36195">
        <ele>240.2</ele>
        <time>2019-08-18T06:48:46.000Z</time>
      </trkpt>
      <trkpt lat="43.15911" lon="2.36194">
        <ele>240</ele>
        <time>2019-08-18T06:48:47.000Z</time>
      </trkpt>
      <trkpt lat="43.15912" lon="2.36193">
        <ele>239.7</ele>
        <time>2019-08-18T06:48:48.000Z</time>
      </trkpt>
      <trkpt lat="43.15912" lon="2.36193">
        <ele>239.6</ele>
        <time>2019-08-18T06:48:49.000Z</time>
      </trkpt>
      <trkpt lat="43.15913" lon="2.36193">
        <ele>239.4</ele>
        <time>2019-08-18T06:48:50.000Z</time>
      </trkpt>
      <trkpt lat="43.15914" lon="2.36192">
        <ele>239.3</ele>
        <time>2019-08-18T06:48:51.000Z</time>
      </trkpt>
      <trkpt lat="43.15914" lon="2.36192">
        <ele>239.2</ele>
        <time>2019-08-18T06:48:52.000Z</time>
      </trkpt>
      <trkpt lat="43.15915" lon="2.36192">
        <ele>239.2</ele>
        <time>2019-08-18T06:48:53.000Z</time>
      </trkpt>
      <trkpt lat="43.15915" lon="2.36192">
        <ele>239.1</ele>
        <time>2019-08-18T06:48:54.000Z</time>
      </trkpt>
      <trkpt lat="43.15915" lon="2.36192">
        <ele>239.1</ele>
        <time>2019-08-18T06:48:55.000Z</time>
      </trkpt>
      <trkpt lat="43.15915" lon="2.36192">
        <ele>239.1</ele>
        <time>2019-08-18T06:48:56.000Z</time>
      </trkpt>
      <trkpt lat="43.15915" lon="2.36192">
        <ele>239.1</ele>
        <time>2019-08-18T06:48:57.000Z</time>
      </trkpt>
      <trkpt lat="43.15915" lon="2.36192">
        <ele>239.1</ele>
        <time>2019-08-18T06:48:58.000Z</time>
      </trkpt>
      <trkpt lat="43.15915" lon="2.36192">
        <ele>239.1</ele>
        <time>2019-08-18T06:48:59.000Z</time>
      </trkpt>
      <trkpt lat="43.15915" lon="2.36192">
        <ele>239.1</ele>
        <time>2019-08-18T06:49:00.000Z</time>
      </trkpt>
      <trkpt lat="43.15915" lon="2.36192">
        <ele>239.1</ele>
        <time>2019-08-18T06:49:01.000Z</time>
      </trkpt>
      <trkpt lat="43.15915" lon="2.36192">
        <ele>239.1</ele>
        <time>2019-08-18T06:49:02.000Z</time>
      </trkpt>
      <trkpt lat="43.15915" lon="2.36191">
        <ele>239</ele>
        <time>2019-08-18T06:49:03.000Z</time>
      </trkpt>
      <trkpt lat="43.15915" lon="2.36191">
        <ele>239</ele>
        <time>2019-08-18T06:49:04.000Z</time>
      </trkpt>
      <trkpt lat="43.15915" lon="2.36191">
        <ele>239</ele>
        <time>2019-08-18T06:49:05.000Z</time>
      </trkpt>
      <trkpt lat="43.15916" lon="2.36191">
        <ele>238.9</ele>
        <time>2019-08-18T06:49:06.000Z</time>
      </trkpt>
      <trkpt lat="43.15916" lon="2.36191">
        <ele>238.8</ele>
        <time>2019-08-18T06:49:07.000Z</time>
      </trkpt>
      <trkpt lat="43.15917" lon="2.3619">
        <ele>238.6</ele>
        <time>2019-08-18T06:49:08.000Z</time>
      </trkpt>
      <trkpt lat="43.15918" lon="2.3619">
        <ele>238.4</ele>
        <time>2019-08-18T06:49:09.000Z</time>
      </trkpt>
      <trkpt lat="43.1592" lon="2.36189">
        <ele>238.2</ele>
        <time>2019-08-18T06:49:10.000Z</time>
      </trkpt>
      <trkpt lat="43.15922" lon="2.36188">
        <ele>237.9</ele>
        <time>2019-08-18T06:49:11.000Z</time>
      </trkpt>
      <trkpt lat="43.15923" lon="2.36188">
        <ele>237.7</ele>
        <time>2019-08-18T06:49:12.000Z</time>
      </trkpt>
      <trkpt lat="43.15925" lon="2.36188">
        <ele>237.4</ele>
        <time>2019-08-18T06:49:13.000Z</time>
      </trkpt>
      <trkpt lat="43.15927" lon="2.36188">
        <ele>237.3</ele>
        <time>2019-08-18T06:49:14.000Z</time>
      </trkpt>
      <trkpt lat="43.15929" lon="2.36188">
        <ele>237.2</ele>
        <time>2019-08-18T06:49:15.000Z</time>
      </trkpt>
      <trkpt lat="43.15931" lon="2.36189">
        <ele>237.2</ele>
        <time>2019-08-18T06:49:16.000Z</time>
      </trkpt>
      <trkpt lat="43.15932" lon="2.36191">
        <ele>237.2</ele>
        <time>2019-08-18T06:49:17.000Z</time>
      </trkpt>
      <trkpt lat="43.15933" lon="2.36192">
        <ele>237.3</ele>
        <time>2019-08-18T06:49:18.000Z</time>
      </trkpt>
      <trkpt lat="43.15933" lon="2.36192">
        <ele>237.4</ele>
        <time>2019-08-18T06:49:19.000Z</time>
      </trkpt>
      <trkpt lat="43.15933" lon="2.36192">
        <ele>237.4</ele>
        <time>2019-08-18T06:49:20.000Z</time>
      </trkpt>
      <trkpt lat="43.15933" lon="2.36193">
        <ele>237.4</ele>
        <time>2019-08-18T06:49:21.000Z</time>
      </trkpt>
      <trkpt lat="43.15933" lon="2.36193">
        <ele>237.4</ele>
        <time>2019-08-18T06:49:22.000Z</time>
      </trkpt>
      <trkpt lat="43.15933" lon="2.36193">
        <ele>237.4</ele>
        <time>2019-08-18T06:49:23.000Z</time>
      </trkpt>
      <trkpt lat="43.15934" lon="2.36193">
        <ele>237.4</ele>
        <time>2019-08-18T06:49:24.000Z</time>
      </trkpt>
      <trkpt lat="43.15934" lon="2.36193">
        <ele>237.3</ele>
        <time>2019-08-18T06:49:25.000Z</time>
      </trkpt>
      <trkpt lat="43.15935" lon="2.36191">
        <ele>237.1</ele>
        <time>2019-08-18T06:49:26.000Z</time>
      </trkpt>
      <trkpt lat="43.15935" lon="2.3619">
        <ele>236.8</ele>
        <time>2019-08-18T06:49:27.000Z</time>
      </trkpt>
      <trkpt lat="43.15936" lon="2.36188">
        <ele>236.5</ele>
        <time>2019-08-18T06:49:28.000Z</time>
      </trkpt>
      <trkpt lat="43.15937" lon="2.36187">
        <ele>236.3</ele>
        <time>2019-08-18T06:49:29.000Z</time>
      </trkpt>
      <trkpt lat="43.15938" lon="2.36186">
        <ele>236</ele>
        <time>2019-08-18T06:49:30.000Z</time>
      </trkpt>
      <trkpt lat="43.1594" lon="2.36186">
        <ele>235.9</ele>
        <time>2019-08-18T06:49:31.000Z</time>
      </trkpt>
      <trkpt lat="43.15941" lon="2.36186">
        <ele>235.8</ele>
        <time>2019-08-18T06:49:32.000Z</time>
      </trkpt>
      <trkpt lat="43.15943" lon="2.36187">
        <ele>235.8</ele>
        <time>2019-08-18T06:49:33.000Z</time>
      </trkpt>
      <trkpt lat="43.15944" lon="2.36189">
        <ele>235.9</ele>
        <time>2019-08-18T06:49:34.000Z</time>
      </trkpt>
      <trkpt lat="43.15945" lon="2.3619">
        <ele>236</ele>
        <time>2019-08-18T06:49:35.000Z</time>
      </trkpt>
      <trkpt lat="43.15945" lon="2.36192">
        <ele>236.1</ele>
        <time>2019-08-18T06:49:36.000Z</time>
      </trkpt>
      <trkpt lat="43.15946" lon="2.36195">
        <ele>236.3</ele>
        <time>2019-08-18T06:49:37.000Z</time>
      </trkpt>
      <trkpt lat="43.15946" lon="2.36197">
        <ele>236.6</ele>
        <time>2019-08-18T06:49:38.000Z</time>
      </trkpt>
      <trkpt lat="43.15946" lon="2.362">
        <ele>236.9</ele>
        <time>2019-08-18T06:49:39.000Z</time>
      </trkpt>
      <trkpt lat="43.15947" lon="2.36203">
        <ele>237.2</ele>
        <time>2019-08-18T06:49:40.000Z</time>
      </trkpt>
      <trkpt lat="43.15947" lon="2.36206">
        <ele>237.5</ele>
        <time>2019-08-18T06:49:41.000Z</time>
      </trkpt>
      <trkpt lat="43.15947" lon="2.3621">
        <ele>237.8</ele>
        <time>2019-08-18T06:49:42.000Z</time>
      </trkpt>
      <trkpt lat="43.15947" lon="2.36213">
        <ele>238.2</ele>
        <time>2019-08-18T06:49:43.000Z</time>
      </trkpt>
      <trkpt lat="43.15947" lon="2.36216">
        <ele>238.5</ele>
        <time>2019-08-18T06:49:44.000Z</time>
      </trkpt>
      <trkpt lat="43.15947" lon="2.3622">
        <ele>238.9</ele>
        <time>2019-08-18T06:49:45.000Z</time>
      </trkpt>
      <trkpt lat="43.15947" lon="2.36223">
        <ele>239.3</ele>
        <time>2019-08-18T06:49:46.000Z</time>
      </trkpt>
      <trkpt lat="43.15947" lon="2.36227">
        <ele>239.6</ele>
        <time>2019-08-18T06:49:47.000Z</time>
      </trkpt>
      <trkpt lat="43.15948" lon="2.3623">
        <ele>239.9</ele>
        <time>2019-08-18T06:49:48.000Z</time>
      </trkpt>
      <trkpt lat="43.15948" lon="2.36233">
        <ele>240.2</ele>
        <time>2019-08-18T06:49:49.000Z</time>
      </trkpt>
      <trkpt lat="43.15948" lon="2.36237">
        <ele>240.5</ele>
        <time>2019-08-18T06:49:50.000Z</time>
      </trkpt>
      <trkpt lat="43.15948" lon="2.3624">
        <ele>240.8</ele>
        <time>2019-08-18T06:49:51.000Z</time>
      </trkpt>
      <trkpt lat="43.15949" lon="2.36243">
        <ele>241.1</ele>
        <time>2019-08-18T06:49:52.000Z</time>
      </trkpt>
      <trkpt lat="43.15949" lon="2.36247">
        <ele>241.4</ele>
        <time>2019-08-18T06:49:53.000Z</time>
      </trkpt>
      <trkpt lat="43.1595" lon="2.3625">
        <ele>241.7</ele>
        <time>2019-08-18T06:49:54.000Z</time>
      </trkpt>
      <trkpt lat="43.1595" lon="2.36253">
        <ele>241.9</ele>
        <time>2019-08-18T06:49:55.000Z</time>
      </trkpt>
      <trkpt lat="43.1595" lon="2.36256">
        <ele>242.2</ele>
        <time>2019-08-18T06:49:56.000Z</time>
      </trkpt>
      <trkpt lat="43.15951" lon="2.3626">
        <ele>242.5</ele>
        <time>2019-08-18T06:49:57.000Z</time>
      </trkpt>
      <trkpt lat="43.15951" lon="2.36263">
        <ele>242.7</ele>
        <time>2019-08-18T06:49:58.000Z</time>
      </trkpt>
      <trkpt lat="43.15952" lon="2.36266">
        <ele>243</ele>
        <time>2019-08-18T06:49:59.000Z</time>
      </trkpt>
      <trkpt lat="43.15952" lon="2.3627">
        <ele>243.3</ele>
        <time>2019-08-18T06:50:00.000Z</time>
      </trkpt>
      <trkpt lat="43.15952" lon="2.36273">
        <ele>243.6</ele>
        <time>2019-08-18T06:50:01.000Z</time>
      </trkpt>
      <trkpt lat="43.15953" lon="2.36276">
        <ele>243.8</ele>
        <time>2019-08-18T06:50:02.000Z</time>
      </trkpt>
      <trkpt lat="43.15953" lon="2.3628">
        <ele>244.1</ele>
        <time>2019-08-18T06:50:03.000Z</time>
      </trkpt>
      <trkpt lat="43.15953" lon="2.36283">
        <ele>244.4</ele>
        <time>2019-08-18T06:50:04.000Z</time>
      </trkpt>
      <trkpt lat="43.15953" lon="2.36286">
        <ele>244.7</ele>
        <time>2019-08-18T06:50:05.000Z</time>
      </trkpt>
      <trkpt lat="43.15954" lon="2.36289">
        <ele>245</ele>
        <time>2019-08-18T06:50:06.000Z</time>
      </trkpt>
      <trkpt lat="43.15954" lon="2.36293">
        <ele>245.3</ele>
        <time>2019-08-18T06:50:07.000Z</time>
      </trkpt>
      <trkpt lat="43.15954" lon="2.36296">
        <ele>245.6</ele>
        <time>2019-08-18T06:50:08.000Z</time>
      </trkpt>
      <trkpt lat="43.15954" lon="2.36299">
        <ele>245.9</ele>
        <time>2019-08-18T06:50:09.000Z</time>
      </trkpt>
      <trkpt lat="43.15954" lon="2.36301">
        <ele>246.2</ele>
        <time>2019-08-18T06:50:10.000Z</time>
      </trkpt>
      <trkpt lat="43.15954" lon="2.36304">
        <ele>246.4</ele>
        <time>2019-08-18T06:50:11.000Z</time>
      </trkpt>
      <trkpt lat="43.15954" lon="2.36307">
        <ele>246.6</ele>
        <time>2019-08-18T06:50:12.000Z</time>
      </trkpt>
      <trkpt lat="43.15955" lon="2.36309">
        <ele>246.8</ele>
        <time>2019-08-18T06:50:13.000Z</time>
      </trkpt>
      <trkpt lat="43.15955" lon="2.36311">
        <ele>246.9</ele>
        <time>2019-08-18T06:50:14.000Z</time>
      </trkpt>
      <trkpt lat="43.15956" lon="2.36313">
        <ele>246.9</ele>
        <time>2019-08-18T06:50:15.000Z</time>
      </trkpt>
      <trkpt lat="43.15958" lon="2.36315">
        <ele>246.8</ele>
        <time>2019-08-18T06:50:16.000Z</time>
      </trkpt>
      <trkpt lat="43.15959" lon="2.36317">
        <ele>246.6</ele>
        <time>2019-08-18T06:50:17.000Z</time>
      </trkpt>
      <trkpt lat="43.15961" lon="2.36319">
        <ele>246.4</ele>
        <time>2019-08-18T06:50:18.000Z</time>
      </trkpt>
      <trkpt lat="43.15963" lon="2.3632">
        <ele>246.2</ele>
        <time>2019-08-18T06:50:19.000Z</time>
      </trkpt>
      <trkpt lat="43.15965" lon="2.36322">
        <ele>245.9</ele>
        <time>2019-08-18T06:50:20.000Z</time>
      </trkpt>
      <trkpt lat="43.15967" lon="2.36324">
        <ele>245.6</ele>
        <time>2019-08-18T06:50:21.000Z</time>
      </trkpt>
      <trkpt lat="43.15969" lon="2.36326">
        <ele>245.4</ele>
        <time>2019-08-18T06:50:22.000Z</time>
      </trkpt>
      <trkpt lat="43.15971" lon="2.36329">
        <ele>245.2</ele>
        <time>2019-08-18T06:50:23.000Z</time>
      </trkpt>
      <trkpt lat="43.15973" lon="2.36331">
        <ele>245</ele>
        <time>2019-08-18T06:50:24.000Z</time>
      </trkpt>
      <trkpt lat="43.15975" lon="2.36334">
        <ele>244.8</ele>
        <time>2019-08-18T06:50:25.000Z</time>
      </trkpt>
      <trkpt lat="43.15976" lon="2.36336">
        <ele>244.6</ele>
        <time>2019-08-18T06:50:26.000Z</time>
      </trkpt>
      <trkpt lat="43.15978" lon="2.36339">
        <ele>244.4</ele>
        <time>2019-08-18T06:50:27.000Z</time>
      </trkpt>
      <trkpt lat="43.1598" lon="2.36342">
        <ele>244.2</ele>
        <time>2019-08-18T06:50:28.000Z</time>
      </trkpt>
      <trkpt lat="43.15981" lon="2.36345">
        <ele>244</ele>
        <time>2019-08-18T06:50:29.000Z</time>
      </trkpt>
      <trkpt lat="43.15982" lon="2.36348">
        <ele>243.9</ele>
        <time>2019-08-18T06:50:30.000Z</time>
      </trkpt>
      <trkpt lat="43.15983" lon="2.36351">
        <ele>243.8</ele>
        <time>2019-08-18T06:50:31.000Z</time>
      </trkpt>
      <trkpt lat="43.15985" lon="2.36354">
        <ele>243.7</ele>
        <time>2019-08-18T06:50:32.000Z</time>
      </trkpt>
      <trkpt lat="43.15986" lon="2.36357">
        <ele>243.6</ele>
        <time>2019-08-18T06:50:33.000Z</time>
      </trkpt>
      <trkpt lat="43.15986" lon="2.3636">
        <ele>243.6</ele>
        <time>2019-08-18T06:50:34.000Z</time>
      </trkpt>
      <trkpt lat="43.15987" lon="2.36363">
        <ele>243.5</ele>
        <time>2019-08-18T06:50:35.000Z</time>
      </trkpt>
      <trkpt lat="43.15988" lon="2.36367">
        <ele>243.5</ele>
        <time>2019-08-18T06:50:36.000Z</time>
      </trkpt>
      <trkpt lat="43.15989" lon="2.3637">
        <ele>243.4</ele>
        <time>2019-08-18T06:50:37.000Z</time>
      </trkpt>
      <trkpt lat="43.1599" lon="2.36373">
        <ele>243.4</ele>
        <time>2019-08-18T06:50:38.000Z</time>
      </trkpt>
      <trkpt lat="43.15991" lon="2.36376">
        <ele>243.3</ele>
        <time>2019-08-18T06:50:39.000Z</time>
      </trkpt>
      <trkpt lat="43.15991" lon="2.36379">
        <ele>243.3</ele>
        <time>2019-08-18T06:50:40.000Z</time>
      </trkpt>
      <trkpt lat="43.15992" lon="2.36382">
        <ele>243.2</ele>
        <time>2019-08-18T06:50:41.000Z</time>
      </trkpt>
      <trkpt lat="43.15993" lon="2.36385">
        <ele>243.2</ele>
        <time>2019-08-18T06:50:42.000Z</time>
      </trkpt>
      <trkpt lat="43.15994" lon="2.36388">
        <ele>243.1</ele>
        <time>2019-08-18T06:50:43.000Z</time>
      </trkpt>
      <trkpt lat="43.15995" lon="2.36391">
        <ele>243</ele>
        <time>2019-08-18T06:50:44.000Z</time>
      </trkpt>
      <trkpt lat="43.15996" lon="2.36394">
        <ele>242.9</ele>
        <time>2019-08-18T06:50:45.000Z</time>
      </trkpt>
      <trkpt lat="43.15997" lon="2.36397">
        <ele>242.8</ele>
        <time>2019-08-18T06:50:46.000Z</time>
      </trkpt>
      <trkpt lat="43.15998" lon="2.364">
        <ele>242.6</ele>
        <time>2019-08-18T06:50:47.000Z</time>
      </trkpt>
      <trkpt lat="43.15999" lon="2.36403">
        <ele>242.5</ele>
        <time>2019-08-18T06:50:48.000Z</time>
      </trkpt>
      <trkpt lat="43.16001" lon="2.36406">
        <ele>242.4</ele>
        <time>2019-08-18T06:50:49.000Z</time>
      </trkpt>
      <trkpt lat="43.16002" lon="2.36409">
        <ele>242.3</ele>
        <time>2019-08-18T06:50:50.000Z</time>
      </trkpt>
      <trkpt lat="43.16003" lon="2.36412">
        <ele>242.3</ele>
        <time>2019-08-18T06:50:51.000Z</time>
      </trkpt>
      <trkpt lat="43.16004" lon="2.36415">
        <ele>242.2</ele>
        <time>2019-08-18T06:50:52.000Z</time>
      </trkpt>
      <trkpt lat="43.16005" lon="2.36418">
        <ele>242.2</ele>
        <time>2019-08-18T06:50:53.000Z</time>
      </trkpt>
      <trkpt lat="43.16006" lon="2.36421">
        <ele>242.1</ele>
        <time>2019-08-18T06:50:54.000Z</time>
      </trkpt>
      <trkpt lat="43.16007" lon="2.36424">
        <ele>242</ele>
        <time>2019-08-18T06:50:55.000Z</time>
      </trkpt>
      <trkpt lat="43.16008" lon="2.36427">
        <ele>242</ele>
        <time>2019-08-18T06:50:56.000Z</time>
      </trkpt>
      <trkpt lat="43.16009" lon="2.3643">
        <ele>241.9</ele>
        <time>2019-08-18T06:50:57.000Z</time>
      </trkpt>
      <trkpt lat="43.16009" lon="2.36433">
        <ele>241.9</ele>
        <time>2019-08-18T06:50:58.000Z</time>
      </trkpt>
      <trkpt lat="43.1601" lon="2.36435">
        <ele>241.9</ele>
        <time>2019-08-18T06:50:59.000Z</time>
      </trkpt>
      <trkpt lat="43.16011" lon="2.36438">
        <ele>241.9</ele>
        <time>2019-08-18T06:51:00.000Z</time>
      </trkpt>
      <trkpt lat="43.16011" lon="2.36441">
        <ele>241.9</ele>
        <time>2019-08-18T06:51:01.000Z</time>
      </trkpt>
      <trkpt lat="43.16012" lon="2.36444">
        <ele>241.9</ele>
        <time>2019-08-18T06:51:02.000Z</time>
      </trkpt>
      <trkpt lat="43.16012" lon="2.36447">
        <ele>241.9</ele>
        <time>2019-08-18T06:51:03.000Z</time>
      </trkpt>
      <trkpt lat="43.16013" lon="2.3645">
        <ele>241.9</ele>
        <time>2019-08-18T06:51:04.000Z</time>
      </trkpt>
      <trkpt lat="43.16013" lon="2.36453">
        <ele>241.9</ele>
        <time>2019-08-18T06:51:05.000Z</time>
      </trkpt>
      <trkpt lat="43.16014" lon="2.36456">
        <ele>241.9</ele>
        <time>2019-08-18T06:51:06.000Z</time>
      </trkpt>
      <trkpt lat="43.16014" lon="2.36459">
        <ele>242</ele>
        <time>2019-08-18T06:51:07.000Z</time>
      </trkpt>
      <trkpt lat="43.16015" lon="2.36462">
        <ele>242</ele>
        <time>2019-08-18T06:51:08.000Z</time>
      </trkpt>
      <trkpt lat="43.16015" lon="2.36465">
        <ele>242</ele>
        <time>2019-08-18T06:51:09.000Z</time>
      </trkpt>
      <trkpt lat="43.16016" lon="2.36467">
        <ele>242</ele>
        <time>2019-08-18T06:51:10.000Z</time>
      </trkpt>
      <trkpt lat="43.16016" lon="2.3647">
        <ele>242.1</ele>
        <time>2019-08-18T06:51:11.000Z</time>
      </trkpt>
      <trkpt lat="43.16017" lon="2.36473">
        <ele>242.1</ele>
        <time>2019-08-18T06:51:12.000Z</time>
      </trkpt>
      <trkpt lat="43.16017" lon="2.36476">
        <ele>242.1</ele>
        <time>2019-08-18T06:51:13.000Z</time>
      </trkpt>
      <trkpt lat="43.16018" lon="2.36479">
        <ele>242.1</ele>
        <time>2019-08-18T06:51:14.000Z</time>
      </trkpt>
      <trkpt lat="43.16018" lon="2.36482">
        <ele>242.1</ele>
        <time>2019-08-18T06:51:15.000Z</time>
      </trkpt>
      <trkpt lat="43.16019" lon="2.36485">
        <ele>242.1</ele>
        <time>2019-08-18T06:51:16.000Z</time>
      </trkpt>
      <trkpt lat="43.16019" lon="2.36488">
        <ele>242.1</ele>
        <time>2019-08-18T06:51:17.000Z</time>
      </trkpt>
      <trkpt lat="43.1602" lon="2.36491">
        <ele>242.1</ele>
        <time>2019-08-18T06:51:18.000Z</time>
      </trkpt>
      <trkpt lat="43.1602" lon="2.36494">
        <ele>242.1</ele>
        <time>2019-08-18T06:51:19.000Z</time>
      </trkpt>
      <trkpt lat="43.16021" lon="2.36497">
        <ele>242.1</ele>
        <time>2019-08-18T06:51:20.000Z</time>
      </trkpt>
      <trkpt lat="43.16022" lon="2.365">
        <ele>242.1</ele>
        <time>2019-08-18T06:51:21.000Z</time>
      </trkpt>
      <trkpt lat="43.16022" lon="2.36503">
        <ele>242.1</ele>
        <time>2019-08-18T06:51:22.000Z</time>
      </trkpt>
      <trkpt lat="43.16023" lon="2.36506">
        <ele>242.1</ele>
        <time>2019-08-18T06:51:23.000Z</time>
      </trkpt>
      <trkpt lat="43.16023" lon="2.36509">
        <ele>242</ele>
        <time>2019-08-18T06:51:24.000Z</time>
      </trkpt>
      <trkpt lat="43.16024" lon="2.36512">
        <ele>242</ele>
        <time>2019-08-18T06:51:25.000Z</time>
      </trkpt>
      <trkpt lat="43.16024" lon="2.36516">
        <ele>242</ele>
        <time>2019-08-18T06:51:26.000Z</time>
      </trkpt>
      <trkpt lat="43.16025" lon="2.36519">
        <ele>242</ele>
        <time>2019-08-18T06:51:27.000Z</time>
      </trkpt>
      <trkpt lat="43.16025" lon="2.36522">
        <ele>242</ele>
        <time>2019-08-18T06:51:28.000Z</time>
      </trkpt>
      <trkpt lat="43.16025" lon="2.36526">
        <ele>242.1</ele>
        <time>2019-08-18T06:51:29.000Z</time>
      </trkpt>
      <trkpt lat="43.16026" lon="2.36529">
        <ele>242.1</ele>
        <time>2019-08-18T06:51:30.000Z</time>
      </trkpt>
      <trkpt lat="43.16026" lon="2.36533">
        <ele>242.2</ele>
        <time>2019-08-18T06:51:31.000Z</time>
      </trkpt>
      <trkpt lat="43.16026" lon="2.36536">
        <ele>242.2</ele>
        <time>2019-08-18T06:51:32.000Z</time>
      </trkpt>
      <trkpt lat="43.16026" lon="2.3654">
        <ele>242.4</ele>
        <time>2019-08-18T06:51:33.000Z</time>
      </trkpt>
      <trkpt lat="43.16025" lon="2.36544">
        <ele>242.5</ele>
        <time>2019-08-18T06:51:34.000Z</time>
      </trkpt>
      <trkpt lat="43.16025" lon="2.36548">
        <ele>242.6</ele>
        <time>2019-08-18T06:51:35.000Z</time>
      </trkpt>
      <trkpt lat="43.16025" lon="2.36552">
        <ele>242.8</ele>
        <time>2019-08-18T06:51:36.000Z</time>
      </trkpt>
      <trkpt lat="43.16025" lon="2.36556">
        <ele>242.9</ele>
        <time>2019-08-18T06:51:37.000Z</time>
      </trkpt>
      <trkpt lat="43.16024" lon="2.36559">
        <ele>243</ele>
        <time>2019-08-18T06:51:38.000Z</time>
      </trkpt>
      <trkpt lat="43.16024" lon="2.36563">
        <ele>243.2</ele>
        <time>2019-08-18T06:51:39.000Z</time>
      </trkpt>
      <trkpt lat="43.16024" lon="2.36566">
        <ele>243.3</ele>
        <time>2019-08-18T06:51:40.000Z</time>
      </trkpt>
      <trkpt lat="43.16024" lon="2.36569">
        <ele>243.4</ele>
        <time>2019-08-18T06:51:41.000Z</time>
      </trkpt>
      <trkpt lat="43.16024" lon="2.36572">
        <ele>243.4</ele>
        <time>2019-08-18T06:51:42.000Z</time>
      </trkpt>
      <trkpt lat="43.16024" lon="2.36574">
        <ele>243.5</ele>
        <time>2019-08-18T06:51:43.000Z</time>
      </trkpt>
      <trkpt lat="43.16024" lon="2.36576">
        <ele>243.5</ele>
        <time>2019-08-18T06:51:44.000Z</time>
      </trkpt>
      <trkpt lat="43.16024" lon="2.36578">
        <ele>243.6</ele>
        <time>2019-08-18T06:51:45.000Z</time>
      </trkpt>
      <trkpt lat="43.16024" lon="2.36579">
        <ele>243.7</ele>
        <time>2019-08-18T06:51:46.000Z</time>
      </trkpt>
      <trkpt lat="43.16023" lon="2.3658">
        <ele>243.7</ele>
        <time>2019-08-18T06:51:47.000Z</time>
      </trkpt>
      <trkpt lat="43.16023" lon="2.36581">
        <ele>243.8</ele>
        <time>2019-08-18T06:51:48.000Z</time>
      </trkpt>
      <trkpt lat="43.16022" lon="2.36581">
        <ele>243.9</ele>
        <time>2019-08-18T06:51:49.000Z</time>
      </trkpt>
      <trkpt lat="43.16022" lon="2.36581">
        <ele>244</ele>
        <time>2019-08-18T06:51:50.000Z</time>
      </trkpt>
      <trkpt lat="43.16022" lon="2.36582">
        <ele>244</ele>
        <time>2019-08-18T06:51:51.000Z</time>
      </trkpt>
      <trkpt lat="43.16021" lon="2.36582">
        <ele>244.1</ele>
        <time>2019-08-18T06:51:52.000Z</time>
      </trkpt>
      <trkpt lat="43.16021" lon="2.36582">
        <ele>244.1</ele>
        <time>2019-08-18T06:51:53.000Z</time>
      </trkpt>
      <trkpt lat="43.16021" lon="2.36582">
        <ele>244.2</ele>
        <time>2019-08-18T06:51:54.000Z</time>
      </trkpt>
      <trkpt lat="43.16021" lon="2.36583">
        <ele>244.2</ele>
        <time>2019-08-18T06:51:55.000Z</time>
      </trkpt>
      <trkpt lat="43.16021" lon="2.36584">
        <ele>244.2</ele>
        <time>2019-08-18T06:51:56.000Z</time>
      </trkpt>
      <trkpt lat="43.16021" lon="2.36585">
        <ele>244.1</ele>
        <time>2019-08-18T06:51:57.000Z</time>
      </trkpt>
      <trkpt lat="43.16022" lon="2.36587">
        <ele>244.1</ele>
        <time>2019-08-18T06:51:58.000Z</time>
      </trkpt>
      <trkpt lat="43.16022" lon="2.36588">
        <ele>244.1</ele>
        <time>2019-08-18T06:51:59.000Z</time>
      </trkpt>
      <trkpt lat="43.16022" lon="2.3659">
        <ele>244.1</ele>
        <time>2019-08-18T06:52:00.000Z</time>
      </trkpt>
      <trkpt lat="43.16021" lon="2.36592">
        <ele>244.1</ele>
        <time>2019-08-18T06:52:01.000Z</time>
      </trkpt>
      <trkpt lat="43.16021" lon="2.36594">
        <ele>244.1</ele>
        <time>2019-08-18T06:52:02.000Z</time>
      </trkpt>
      <trkpt lat="43.1602" lon="2.36596">
        <ele>244.2</ele>
        <time>2019-08-18T06:52:03.000Z</time>
      </trkpt>
      <trkpt lat="43.16019" lon="2.36599">
        <ele>244.3</ele>
        <time>2019-08-18T06:52:04.000Z</time>
      </trkpt>
      <trkpt lat="43.16018" lon="2.36601">
        <ele>244.4</ele>
        <time>2019-08-18T06:52:05.000Z</time>
      </trkpt>
      <trkpt lat="43.16017" lon="2.36602">
        <ele>244.6</ele>
        <time>2019-08-18T06:52:06.000Z</time>
      </trkpt>
      <trkpt lat="43.16016" lon="2.36603">
        <ele>244.8</ele>
        <time>2019-08-18T06:52:07.000Z</time>
      </trkpt>
      <trkpt lat="43.16014" lon="2.36605">
        <ele>245</ele>
        <time>2019-08-18T06:52:08.000Z</time>
      </trkpt>
      <trkpt lat="43.16013" lon="2.36606">
        <ele>245.2</ele>
        <time>2019-08-18T06:52:09.000Z</time>
      </trkpt>
      <trkpt lat="43.16011" lon="2.36608">
        <ele>245.4</ele>
        <time>2019-08-18T06:52:10.000Z</time>
      </trkpt>
      <trkpt lat="43.16009" lon="2.3661">
        <ele>245.6</ele>
        <time>2019-08-18T06:52:11.000Z</time>
      </trkpt>
      <trkpt lat="43.16008" lon="2.36612">
        <ele>245.8</ele>
        <time>2019-08-18T06:52:12.000Z</time>
      </trkpt>
      <trkpt lat="43.16006" lon="2.36614">
        <ele>246.1</ele>
        <time>2019-08-18T06:52:13.000Z</time>
      </trkpt>
      <trkpt lat="43.16004" lon="2.36616">
        <ele>246.3</ele>
        <time>2019-08-18T06:52:14.000Z</time>
      </trkpt>
      <trkpt lat="43.16002" lon="2.36618">
        <ele>246.4</ele>
        <time>2019-08-18T06:52:15.000Z</time>
      </trkpt>
      <trkpt lat="43.16" lon="2.36621">
        <ele>246.6</ele>
        <time>2019-08-18T06:52:16.000Z</time>
      </trkpt>
      <trkpt lat="43.15998" lon="2.36623">
        <ele>246.9</ele>
        <time>2019-08-18T06:52:17.000Z</time>
      </trkpt>
      <trkpt lat="43.15997" lon="2.36626">
        <ele>247.2</ele>
        <time>2019-08-18T06:52:18.000Z</time>
      </trkpt>
      <trkpt lat="43.15995" lon="2.36628">
        <ele>247.5</ele>
        <time>2019-08-18T06:52:19.000Z</time>
      </trkpt>
      <trkpt lat="43.15993" lon="2.36631">
        <ele>247.8</ele>
        <time>2019-08-18T06:52:20.000Z</time>
      </trkpt>
      <trkpt lat="43.15991" lon="2.36633">
        <ele>248.1</ele>
        <time>2019-08-18T06:52:21.000Z</time>
      </trkpt>
      <trkpt lat="43.15989" lon="2.36636">
        <ele>248.4</ele>
        <time>2019-08-18T06:52:22.000Z</time>
      </trkpt>
      <trkpt lat="43.15987" lon="2.36638">
        <ele>248.7</ele>
        <time>2019-08-18T06:52:23.000Z</time>
      </trkpt>
      <trkpt lat="43.15986" lon="2.36641">
        <ele>248.9</ele>
        <time>2019-08-18T06:52:24.000Z</time>
      </trkpt>
      <trkpt lat="43.15984" lon="2.36643">
        <ele>249.2</ele>
        <time>2019-08-18T06:52:25.000Z</time>
      </trkpt>
      <trkpt lat="43.15982" lon="2.36646">
        <ele>249.4</ele>
        <time>2019-08-18T06:52:26.000Z</time>
      </trkpt>
      <trkpt lat="43.15981" lon="2.36648">
        <ele>249.6</ele>
        <time>2019-08-18T06:52:27.000Z</time>
      </trkpt>
      <trkpt lat="43.1598" lon="2.36651">
        <ele>249.8</ele>
        <time>2019-08-18T06:52:28.000Z</time>
      </trkpt>
      <trkpt lat="43.15978" lon="2.36653">
        <ele>250</ele>
        <time>2019-08-18T06:52:29.000Z</time>
      </trkpt>
      <trkpt lat="43.15977" lon="2.36656">
        <ele>250.1</ele>
        <time>2019-08-18T06:52:30.000Z</time>
      </trkpt>
      <trkpt lat="43.15976" lon="2.36659">
        <ele>250.3</ele>
        <time>2019-08-18T06:52:31.000Z</time>
      </trkpt>
      <trkpt lat="43.15975" lon="2.36662">
        <ele>250.4</ele>
        <time>2019-08-18T06:52:32.000Z</time>
      </trkpt>
      <trkpt lat="43.15974" lon="2.36664">
        <ele>250.5</ele>
        <time>2019-08-18T06:52:33.000Z</time>
      </trkpt>
      <trkpt lat="43.15973" lon="2.36667">
        <ele>250.5</ele>
        <time>2019-08-18T06:52:34.000Z</time>
      </trkpt>
      <trkpt lat="43.15972" lon="2.36671">
        <ele>250.4</ele>
        <time>2019-08-18T06:52:35.000Z</time>
      </trkpt>
      <trkpt lat="43.15971" lon="2.36674">
        <ele>250.3</ele>
        <time>2019-08-18T06:52:36.000Z</time>
      </trkpt>
      <trkpt lat="43.15971" lon="2.36677">
        <ele>250.1</ele>
        <time>2019-08-18T06:52:37.000Z</time>
      </trkpt>
      <trkpt lat="43.1597" lon="2.36681">
        <ele>249.8</ele>
        <time>2019-08-18T06:52:38.000Z</time>
      </trkpt>
      <trkpt lat="43.1597" lon="2.36684">
        <ele>249.6</ele>
        <time>2019-08-18T06:52:39.000Z</time>
      </trkpt>
      <trkpt lat="43.15969" lon="2.36688">
        <ele>249.3</ele>
        <time>2019-08-18T06:52:40.000Z</time>
      </trkpt>
      <trkpt lat="43.15969" lon="2.36692">
        <ele>249</ele>
        <time>2019-08-18T06:52:41.000Z</time>
      </trkpt>
      <trkpt lat="43.15969" lon="2.36696">
        <ele>248.7</ele>
        <time>2019-08-18T06:52:42.000Z</time>
      </trkpt>
      <trkpt lat="43.15968" lon="2.367">
        <ele>248.3</ele>
        <time>2019-08-18T06:52:43.000Z</time>
      </trkpt>
      <trkpt lat="43.15968" lon="2.36703">
        <ele>248</ele>
        <time>2019-08-18T06:52:44.000Z</time>
      </trkpt>
      <trkpt lat="43.15968" lon="2.36707">
        <ele>247.7</ele>
        <time>2019-08-18T06:52:45.000Z</time>
      </trkpt>
      <trkpt lat="43.15968" lon="2.36711">
        <ele>247.4</ele>
        <time>2019-08-18T06:52:46.000Z</time>
      </trkpt>
      <trkpt lat="43.15967" lon="2.36715">
        <ele>247</ele>
        <time>2019-08-18T06:52:47.000Z</time>
      </trkpt>
      <trkpt lat="43.15967" lon="2.36718">
        <ele>246.7</ele>
        <time>2019-08-18T06:52:48.000Z</time>
      </trkpt>
      <trkpt lat="43.15967" lon="2.36722">
        <ele>246.4</ele>
        <time>2019-08-18T06:52:49.000Z</time>
      </trkpt>
      <trkpt lat="43.15966" lon="2.36725">
        <ele>246.1</ele>
        <time>2019-08-18T06:52:50.000Z</time>
      </trkpt>
      <trkpt lat="43.15966" lon="2.36728">
        <ele>245.9</ele>
        <time>2019-08-18T06:52:51.000Z</time>
      </trkpt>
      <trkpt lat="43.15965" lon="2.36731">
        <ele>245.6</ele>
        <time>2019-08-18T06:52:52.000Z</time>
      </trkpt>
      <trkpt lat="43.15965" lon="2.36734">
        <ele>245.4</ele>
        <time>2019-08-18T06:52:53.000Z</time>
      </trkpt>
      <trkpt lat="43.15964" lon="2.36736">
        <ele>245.1</ele>
        <time>2019-08-18T06:52:54.000Z</time>
      </trkpt>
      <trkpt lat="43.15963" lon="2.36739">
        <ele>244.9</ele>
        <time>2019-08-18T06:52:55.000Z</time>
      </trkpt>
      <trkpt lat="43.15963" lon="2.36742">
        <ele>244.7</ele>
        <time>2019-08-18T06:52:56.000Z</time>
      </trkpt>
      <trkpt lat="43.15962" lon="2.36744">
        <ele>244.5</ele>
        <time>2019-08-18T06:52:57.000Z</time>
      </trkpt>
      <trkpt lat="43.15962" lon="2.36746">
        <ele>244.2</ele>
        <time>2019-08-18T06:52:58.000Z</time>
      </trkpt>
      <trkpt lat="43.15961" lon="2.36749">
        <ele>244</ele>
        <time>2019-08-18T06:52:59.000Z</time>
      </trkpt>
      <trkpt lat="43.1596" lon="2.36751">
        <ele>243.9</ele>
        <time>2019-08-18T06:53:00.000Z</time>
      </trkpt>
      <trkpt lat="43.15959" lon="2.36752">
        <ele>243.8</ele>
        <time>2019-08-18T06:53:01.000Z</time>
      </trkpt>
      <trkpt lat="43.15957" lon="2.36754">
        <ele>243.7</ele>
        <time>2019-08-18T06:53:02.000Z</time>
      </trkpt>
      <trkpt lat="43.15955" lon="2.36755">
        <ele>243.7</ele>
        <time>2019-08-18T06:53:03.000Z</time>
      </trkpt>
      <trkpt lat="43.15952" lon="2.36756">
        <ele>243.7</ele>
        <time>2019-08-18T06:53:04.000Z</time>
      </trkpt>
      <trkpt lat="43.1595" lon="2.36757">
        <ele>243.6</ele>
        <time>2019-08-18T06:53:05.000Z</time>
      </trkpt>
      <trkpt lat="43.15948" lon="2.36759">
        <ele>243.6</ele>
        <time>2019-08-18T06:53:06.000Z</time>
      </trkpt>
      <trkpt lat="43.15947" lon="2.3676">
        <ele>243.5</ele>
        <time>2019-08-18T06:53:07.000Z</time>
      </trkpt>
      <trkpt lat="43.15945" lon="2.36762">
        <ele>243.3</ele>
        <time>2019-08-18T06:53:08.000Z</time>
      </trkpt>
      <trkpt lat="43.15943" lon="2.36763">
        <ele>243.2</ele>
        <time>2019-08-18T06:53:09.000Z</time>
      </trkpt>
      <trkpt lat="43.15942" lon="2.36765">
        <ele>243.1</ele>
        <time>2019-08-18T06:53:10.000Z</time>
      </trkpt>
      <trkpt lat="43.1594" lon="2.36767">
        <ele>243</ele>
        <time>2019-08-18T06:53:11.000Z</time>
      </trkpt>
      <trkpt lat="43.15939" lon="2.36768">
        <ele>242.8</ele>
        <time>2019-08-18T06:53:12.000Z</time>
      </trkpt>
      <trkpt lat="43.15938" lon="2.3677">
        <ele>242.7</ele>
        <time>2019-08-18T06:53:13.000Z</time>
      </trkpt>
      <trkpt lat="43.15936" lon="2.36771">
        <ele>242.6</ele>
        <time>2019-08-18T06:53:14.000Z</time>
      </trkpt>
      <trkpt lat="43.15935" lon="2.36772">
        <ele>242.5</ele>
        <time>2019-08-18T06:53:15.000Z</time>
      </trkpt>
      <trkpt lat="43.15934" lon="2.36773">
        <ele>242.4</ele>
        <time>2019-08-18T06:53:16.000Z</time>
      </trkpt>
      <trkpt lat="43.15932" lon="2.36775">
        <ele>242.3</ele>
        <time>2019-08-18T06:53:17.000Z</time>
      </trkpt>
      <trkpt lat="43.15931" lon="2.36776">
        <ele>242.2</ele>
        <time>2019-08-18T06:53:18.000Z</time>
      </trkpt>
      <trkpt lat="43.1593" lon="2.36777">
        <ele>242.1</ele>
        <time>2019-08-18T06:53:19.000Z</time>
      </trkpt>
      <trkpt lat="43.15929" lon="2.36778">
        <ele>242</ele>
        <time>2019-08-18T06:53:20.000Z</time>
      </trkpt>
      <trkpt lat="43.15927" lon="2.36779">
        <ele>241.9</ele>
        <time>2019-08-18T06:53:21.000Z</time>
      </trkpt>
      <trkpt lat="43.15926" lon="2.3678">
        <ele>241.8</ele>
        <time>2019-08-18T06:53:22.000Z</time>
      </trkpt>
      <trkpt lat="43.15925" lon="2.36781">
        <ele>241.7</ele>
        <time>2019-08-18T06:53:23.000Z</time>
      </trkpt>
      <trkpt lat="43.15924" lon="2.36782">
        <ele>241.6</ele>
        <time>2019-08-18T06:53:24.000Z</time>
      </trkpt>
      <trkpt lat="43.15923" lon="2.36783">
        <ele>241.5</ele>
        <time>2019-08-18T06:53:25.000Z</time>
      </trkpt>
      <trkpt lat="43.15923" lon="2.36784">
        <ele>241.4</ele>
        <time>2019-08-18T06:53:26.000Z</time>
      </trkpt>
      <trkpt lat="43.15922" lon="2.36784">
        <ele>241.3</ele>
        <time>2019-08-18T06:53:27.000Z</time>
      </trkpt>
      <trkpt lat="43.15922" lon="2.36785">
        <ele>241.2</ele>
        <time>2019-08-18T06:53:28.000Z</time>
      </trkpt>
      <trkpt lat="43.15921" lon="2.36786">
        <ele>241.1</ele>
        <time>2019-08-18T06:53:29.000Z</time>
      </trkpt>
      <trkpt lat="43.15921" lon="2.36787">
        <ele>241.1</ele>
        <time>2019-08-18T06:53:30.000Z</time>
      </trkpt>
      <trkpt lat="43.1592" lon="2.36787">
        <ele>241</ele>
        <time>2019-08-18T06:53:31.000Z</time>
      </trkpt>
      <trkpt lat="43.1592" lon="2.36788">
        <ele>240.9</ele>
        <time>2019-08-18T06:53:32.000Z</time>
      </trkpt>
      <trkpt lat="43.15919" lon="2.36788">
        <ele>240.9</ele>
        <time>2019-08-18T06:53:33.000Z</time>
      </trkpt>
      <trkpt lat="43.15918" lon="2.36789">
        <ele>240.9</ele>
        <time>2019-08-18T06:53:34.000Z</time>
      </trkpt>
      <trkpt lat="43.15917" lon="2.36789">
        <ele>240.9</ele>
        <time>2019-08-18T06:53:35.000Z</time>
      </trkpt>
      <trkpt lat="43.15916" lon="2.36789">
        <ele>241</ele>
        <time>2019-08-18T06:53:36.000Z</time>
      </trkpt>
      <trkpt lat="43.15915" lon="2.36789">
        <ele>241.1</ele>
        <time>2019-08-18T06:53:37.000Z</time>
      </trkpt>
      <trkpt lat="43.15914" lon="2.36789">
        <ele>241.1</ele>
        <time>2019-08-18T06:53:38.000Z</time>
      </trkpt>
      <trkpt lat="43.15914" lon="2.3679">
        <ele>241.1</ele>
        <time>2019-08-18T06:53:39.000Z</time>
      </trkpt>
      <trkpt lat="43.15914" lon="2.3679">
        <ele>241</ele>
        <time>2019-08-18T06:53:40.000Z</time>
      </trkpt>
      <trkpt lat="43.15914" lon="2.36791">
        <ele>240.9</ele>
        <time>2019-08-18T06:53:41.000Z</time>
      </trkpt>
      <trkpt lat="43.15915" lon="2.36791">
        <ele>240.8</ele>
        <time>2019-08-18T06:53:42.000Z</time>
      </trkpt>
      <trkpt lat="43.15915" lon="2.36792">
        <ele>240.7</ele>
        <time>2019-08-18T06:53:43.000Z</time>
      </trkpt>
      <trkpt lat="43.15916" lon="2.36792">
        <ele>240.6</ele>
        <time>2019-08-18T06:53:44.000Z</time>
      </trkpt>
      <trkpt lat="43.15916" lon="2.36793">
        <ele>240.5</ele>
        <time>2019-08-18T06:53:45.000Z</time>
      </trkpt>
      <trkpt lat="43.15916" lon="2.36793">
        <ele>240.4</ele>
        <time>2019-08-18T06:53:46.000Z</time>
      </trkpt>
      <trkpt lat="43.15915" lon="2.36793">
        <ele>240.4</ele>
        <time>2019-08-18T06:53:47.000Z</time>
      </trkpt>
      <trkpt lat="43.15915" lon="2.36794">
        <ele>240.5</ele>
        <time>2019-08-18T06:53:48.000Z</time>
      </trkpt>
      <trkpt lat="43.15914" lon="2.36794">
        <ele>240.5</ele>
        <time>2019-08-18T06:53:49.000Z</time>
      </trkpt>
      <trkpt lat="43.15912" lon="2.36795">
        <ele>240.5</ele>
        <time>2019-08-18T06:53:50.000Z</time>
      </trkpt>
      <trkpt lat="43.15911" lon="2.36796">
        <ele>240.5</ele>
        <time>2019-08-18T06:53:51.000Z</time>
      </trkpt>
      <trkpt lat="43.1591" lon="2.36797">
        <ele>240.5</ele>
        <time>2019-08-18T06:53:52.000Z</time>
      </trkpt>
      <trkpt lat="43.15909" lon="2.36799">
        <ele>240.3</ele>
        <time>2019-08-18T06:53:53.000Z</time>
      </trkpt>
      <trkpt lat="43.15908" lon="2.36802">
        <ele>240</ele>
        <time>2019-08-18T06:53:54.000Z</time>
      </trkpt>
      <trkpt lat="43.15908" lon="2.36806">
        <ele>239.6</ele>
        <time>2019-08-18T06:53:55.000Z</time>
      </trkpt>
      <trkpt lat="43.15908" lon="2.36809">
        <ele>239.1</ele>
        <time>2019-08-18T06:53:56.000Z</time>
      </trkpt>
      <trkpt lat="43.15909" lon="2.36813">
        <ele>238.6</ele>
        <time>2019-08-18T06:53:57.000Z</time>
      </trkpt>
      <trkpt lat="43.1591" lon="2.36815">
        <ele>238.1</ele>
        <time>2019-08-18T06:53:58.000Z</time>
      </trkpt>
      <trkpt lat="43.15911" lon="2.36817">
        <ele>237.8</ele>
        <time>2019-08-18T06:53:59.000Z</time>
      </trkpt>
      <trkpt lat="43.15911" lon="2.36817">
        <ele>237.6</ele>
        <time>2019-08-18T06:54:00.000Z</time>
      </trkpt>
      <trkpt lat="43.15912" lon="2.36818">
        <ele>237.5</ele>
        <time>2019-08-18T06:54:01.000Z</time>
      </trkpt>
      <trkpt lat="43.15914" lon="2.36819">
        <ele>237.2</ele>
        <time>2019-08-18T06:54:02.000Z</time>
      </trkpt>
      <trkpt lat="43.15915" lon="2.3682">
        <ele>236.9</ele>
        <time>2019-08-18T06:54:03.000Z</time>
      </trkpt>
      <trkpt lat="43.15917" lon="2.36822">
        <ele>236.6</ele>
        <time>2019-08-18T06:54:04.000Z</time>
      </trkpt>
      <trkpt lat="43.15918" lon="2.36823">
        <ele>236.3</ele>
        <time>2019-08-18T06:54:05.000Z</time>
      </trkpt>
      <trkpt lat="43.1592" lon="2.36825">
        <ele>236.1</ele>
        <time>2019-08-18T06:54:06.000Z</time>
      </trkpt>
      <trkpt lat="43.15922" lon="2.36827">
        <ele>235.9</ele>
        <time>2019-08-18T06:54:07.000Z</time>
      </trkpt>
      <trkpt lat="43.15924" lon="2.36829">
        <ele>235.6</ele>
        <time>2019-08-18T06:54:08.000Z</time>
      </trkpt>
      <trkpt lat="43.15926" lon="2.36831">
        <ele>235.4</ele>
        <time>2019-08-18T06:54:09.000Z</time>
      </trkpt>
      <trkpt lat="43.15928" lon="2.36833">
        <ele>235.2</ele>
        <time>2019-08-18T06:54:10.000Z</time>
      </trkpt>
      <trkpt lat="43.1593" lon="2.36835">
        <ele>235.2</ele>
        <time>2019-08-18T06:54:11.000Z</time>
      </trkpt>
      <trkpt lat="43.15932" lon="2.36837">
        <ele>235.3</ele>
        <time>2019-08-18T06:54:12.000Z</time>
      </trkpt>
      <trkpt lat="43.15934" lon="2.36839">
        <ele>235.3</ele>
        <time>2019-08-18T06:54:13.000Z</time>
      </trkpt>
      <trkpt lat="43.15935" lon="2.36841">
        <ele>235.4</ele>
        <time>2019-08-18T06:54:14.000Z</time>
      </trkpt>
      <trkpt lat="43.15937" lon="2.36843">
        <ele>235.4</ele>
        <time>2019-08-18T06:54:15.000Z</time>
      </trkpt>
      <trkpt lat="43.15938" lon="2.36844">
        <ele>235.4</ele>
        <time>2019-08-18T06:54:16.000Z</time>
      </trkpt>
      <trkpt lat="43.15938" lon="2.36846">
        <ele>235.5</ele>
        <time>2019-08-18T06:54:17.000Z</time>
      </trkpt>
      <trkpt lat="43.15939" lon="2.36846">
        <ele>235.5</ele>
        <time>2019-08-18T06:54:18.000Z</time>
      </trkpt>
      <trkpt lat="43.15939" lon="2.36847">
        <ele>235.5</ele>
        <time>2019-08-18T06:54:19.000Z</time>
      </trkpt>
      <trkpt lat="43.1594" lon="2.36847">
        <ele>235.5</ele>
        <time>2019-08-18T06:54:20.000Z</time>
      </trkpt>
      <trkpt lat="43.1594" lon="2.36847">
        <ele>235.5</ele>
        <time>2019-08-18T06:54:21.000Z</time>
      </trkpt>
      <trkpt lat="43.1594" lon="2.36847">
        <ele>235.5</ele>
        <time>2019-08-18T06:54:22.000Z</time>
      </trkpt>
      <trkpt lat="43.1594" lon="2.36847">
        <ele>235.5</ele>
        <time>2019-08-18T06:54:23.000Z</time>
      </trkpt>
      <trkpt lat="43.1594" lon="2.36847">
        <ele>235.5</ele>
        <time>2019-08-18T06:54:24.000Z</time>
      </trkpt>
      <trkpt lat="43.15941" lon="2.36846">
        <ele>235.5</ele>
        <time>2019-08-18T06:54:25.000Z</time>
      </trkpt>
      <trkpt lat="43.15941" lon="2.36846">
        <ele>235.5</ele>
        <time>2019-08-18T06:54:26.000Z</time>
      </trkpt>
      <trkpt lat="43.15942" lon="2.36846">
        <ele>235.4</ele>
        <time>2019-08-18T06:54:27.000Z</time>
      </trkpt>
      <trkpt lat="43.15942" lon="2.36845">
        <ele>235.4</ele>
        <time>2019-08-18T06:54:28.000Z</time>
      </trkpt>
      <trkpt lat="43.15942" lon="2.36845">
        <ele>235.4</ele>
        <time>2019-08-18T06:54:29.000Z</time>
      </trkpt>
      <trkpt lat="43.15943" lon="2.36845">
        <ele>235.4</ele>
        <time>2019-08-18T06:54:30.000Z</time>
      </trkpt>
      <trkpt lat="43.15943" lon="2.36845">
        <ele>235.4</ele>
        <time>2019-08-18T06:54:31.000Z</time>
      </trkpt>
      <trkpt lat="43.15943" lon="2.36845">
        <ele>235.4</ele>
        <time>2019-08-18T06:54:32.000Z</time>
      </trkpt>
      <trkpt lat="43.15943" lon="2.36845">
        <ele>235.4</ele>
        <time>2019-08-18T06:54:33.000Z</time>
      </trkpt>
      <trkpt lat="43.15943" lon="2.36845">
        <ele>235.4</ele>
        <time>2019-08-18T06:54:34.000Z</time>
      </trkpt>
      <trkpt lat="43.15943" lon="2.36846">
        <ele>235.4</ele>
        <time>2019-08-18T06:54:35.000Z</time>
      </trkpt>
      <trkpt lat="43.15942" lon="2.36847">
        <ele>235.5</ele>
        <time>2019-08-18T06:54:36.000Z</time>
      </trkpt>
      <trkpt lat="43.15942" lon="2.36849">
        <ele>235.5</ele>
        <time>2019-08-18T06:54:37.000Z</time>
      </trkpt>
      <trkpt lat="43.15942" lon="2.36851">
        <ele>235.5</ele>
        <time>2019-08-18T06:54:38.000Z</time>
      </trkpt>
      <trkpt lat="43.15942" lon="2.36853">
        <ele>235.5</ele>
        <time>2019-08-18T06:54:39.000Z</time>
      </trkpt>
      <trkpt lat="43.15942" lon="2.36855">
        <ele>235.6</ele>
        <time>2019-08-18T06:54:40.000Z</time>
      </trkpt>
      <trkpt lat="43.15943" lon="2.36858">
        <ele>235.6</ele>
        <time>2019-08-18T06:54:41.000Z</time>
      </trkpt>
      <trkpt lat="43.15944" lon="2.36862">
        <ele>235.6</ele>
        <time>2019-08-18T06:54:42.000Z</time>
      </trkpt>
      <trkpt lat="43.15945" lon="2.36865">
        <ele>235.6</ele>
        <time>2019-08-18T06:54:43.000Z</time>
      </trkpt>
      <trkpt lat="43.15946" lon="2.36868">
        <ele>235.5</ele>
        <time>2019-08-18T06:54:44.000Z</time>
      </trkpt>
      <trkpt lat="43.15948" lon="2.36872">
        <ele>235.5</ele>
        <time>2019-08-18T06:54:45.000Z</time>
      </trkpt>
      <trkpt lat="43.1595" lon="2.36875">
        <ele>235.4</ele>
        <time>2019-08-18T06:54:46.000Z</time>
      </trkpt>
      <trkpt lat="43.15952" lon="2.36878">
        <ele>235.3</ele>
        <time>2019-08-18T06:54:47.000Z</time>
      </trkpt>
      <trkpt lat="43.15953" lon="2.36881">
        <ele>235.2</ele>
        <time>2019-08-18T06:54:48.000Z</time>
      </trkpt>
      <trkpt lat="43.15955" lon="2.36884">
        <ele>235.1</ele>
        <time>2019-08-18T06:54:49.000Z</time>
      </trkpt>
      <trkpt lat="43.15957" lon="2.36888">
        <ele>235</ele>
        <time>2019-08-18T06:54:50.000Z</time>
      </trkpt>
      <trkpt lat="43.15958" lon="2.36891">
        <ele>234.8</ele>
        <time>2019-08-18T06:54:51.000Z</time>
      </trkpt>
      <trkpt lat="43.15959" lon="2.36895">
        <ele>234.7</ele>
        <time>2019-08-18T06:54:52.000Z</time>
      </trkpt>
      <trkpt lat="43.1596" lon="2.36899">
        <ele>234.6</ele>
        <time>2019-08-18T06:54:53.000Z</time>
      </trkpt>
      <trkpt lat="43.15961" lon="2.36902">
        <ele>234.4</ele>
        <time>2019-08-18T06:54:54.000Z</time>
      </trkpt>
      <trkpt lat="43.15962" lon="2.36906">
        <ele>234.3</ele>
        <time>2019-08-18T06:54:55.000Z</time>
      </trkpt>
      <trkpt lat="43.15963" lon="2.3691">
        <ele>234.1</ele>
        <time>2019-08-18T06:54:56.000Z</time>
      </trkpt>
      <trkpt lat="43.15964" lon="2.36913">
        <ele>233.9</ele>
        <time>2019-08-18T06:54:57.000Z</time>
      </trkpt>
      <trkpt lat="43.15965" lon="2.36917">
        <ele>233.8</ele>
        <time>2019-08-18T06:54:58.000Z</time>
      </trkpt>
      <trkpt lat="43.15967" lon="2.36921">
        <ele>233.7</ele>
        <time>2019-08-18T06:54:59.000Z</time>
      </trkpt>
      <trkpt lat="43.15968" lon="2.36924">
        <ele>233.6</ele>
        <time>2019-08-18T06:55:00.000Z</time>
      </trkpt>
      <trkpt lat="43.15969" lon="2.36928">
        <ele>233.5</ele>
        <time>2019-08-18T06:55:01.000Z</time>
      </trkpt>
      <trkpt lat="43.15971" lon="2.36932">
        <ele>233.3</ele>
        <time>2019-08-18T06:55:02.000Z</time>
      </trkpt>
      <trkpt lat="43.15972" lon="2.36935">
        <ele>233.2</ele>
        <time>2019-08-18T06:55:03.000Z</time>
      </trkpt>
      <trkpt lat="43.15974" lon="2.36939">
        <ele>233</ele>
        <time>2019-08-18T06:55:04.000Z</time>
      </trkpt>
      <trkpt lat="43.15975" lon="2.36943">
        <ele>232.7</ele>
        <time>2019-08-18T06:55:05.000Z</time>
      </trkpt>
      <trkpt lat="43.15977" lon="2.36947">
        <ele>232.5</ele>
        <time>2019-08-18T06:55:06.000Z</time>
      </trkpt>
      <trkpt lat="43.15978" lon="2.36951">
        <ele>232.3</ele>
        <time>2019-08-18T06:55:07.000Z</time>
      </trkpt>
      <trkpt lat="43.1598" lon="2.36954">
        <ele>232</ele>
        <time>2019-08-18T06:55:08.000Z</time>
      </trkpt>
      <trkpt lat="43.15981" lon="2.36958">
        <ele>231.8</ele>
        <time>2019-08-18T06:55:09.000Z</time>
      </trkpt>
      <trkpt lat="43.15982" lon="2.36961">
        <ele>231.6</ele>
        <time>2019-08-18T06:55:10.000Z</time>
      </trkpt>
      <trkpt lat="43.15983" lon="2.36964">
        <ele>231.4</ele>
        <time>2019-08-18T06:55:11.000Z</time>
      </trkpt>
      <trkpt lat="43.15984" lon="2.36967">
        <ele>231.2</ele>
        <time>2019-08-18T06:55:12.000Z</time>
      </trkpt>
      <trkpt lat="43.15984" lon="2.3697">
        <ele>231.1</ele>
        <time>2019-08-18T06:55:13.000Z</time>
      </trkpt>
      <trkpt lat="43.15985" lon="2.36972">
        <ele>231</ele>
        <time>2019-08-18T06:55:14.000Z</time>
      </trkpt>
      <trkpt lat="43.15985" lon="2.36974">
        <ele>230.9</ele>
        <time>2019-08-18T06:55:15.000Z</time>
      </trkpt>
      <trkpt lat="43.15985" lon="2.36975">
        <ele>230.9</ele>
        <time>2019-08-18T06:55:16.000Z</time>
      </trkpt>
      <trkpt lat="43.15985" lon="2.36976">
        <ele>230.9</ele>
        <time>2019-08-18T06:55:17.000Z</time>
      </trkpt>
      <trkpt lat="43.15985" lon="2.36976">
        <ele>230.9</ele>
        <time>2019-08-18T06:55:18.000Z</time>
      </trkpt>
      <trkpt lat="43.15985" lon="2.36976">
        <ele>230.8</ele>
        <time>2019-08-18T06:55:19.000Z</time>
      </trkpt>
      <trkpt lat="43.15985" lon="2.36976">
        <ele>230.8</ele>
        <time>2019-08-18T06:55:20.000Z</time>
      </trkpt>
      <trkpt lat="43.15986" lon="2.36975">
        <ele>230.8</ele>
        <time>2019-08-18T06:55:21.000Z</time>
      </trkpt>
      <trkpt lat="43.15986" lon="2.36974">
        <ele>230.7</ele>
        <time>2019-08-18T06:55:22.000Z</time>
      </trkpt>
      <trkpt lat="43.15987" lon="2.36973">
        <ele>230.6</ele>
        <time>2019-08-18T06:55:23.000Z</time>
      </trkpt>
      <trkpt lat="43.15988" lon="2.36971">
        <ele>230.5</ele>
        <time>2019-08-18T06:55:24.000Z</time>
      </trkpt>
      <trkpt lat="43.15988" lon="2.3697">
        <ele>230.4</ele>
        <time>2019-08-18T06:55:25.000Z</time>
      </trkpt>
      <trkpt lat="43.15989" lon="2.36969">
        <ele>230.3</ele>
        <time>2019-08-18T06:55:26.000Z</time>
      </trkpt>
      <trkpt lat="43.15989" lon="2.36968">
        <ele>230.3</ele>
        <time>2019-08-18T06:55:27.000Z</time>
      </trkpt>
      <trkpt lat="43.15989" lon="2.36968">
        <ele>230.3</ele>
        <time>2019-08-18T06:55:28.000Z</time>
      </trkpt>
      <trkpt lat="43.15988" lon="2.36968">
        <ele>230.3</ele>
        <time>2019-08-18T06:55:29.000Z</time>
      </trkpt>
      <trkpt lat="43.15988" lon="2.36969">
        <ele>230.4</ele>
        <time>2019-08-18T06:55:30.000Z</time>
      </trkpt>
      <trkpt lat="43.15988" lon="2.3697">
        <ele>230.4</ele>
        <time>2019-08-18T06:55:31.000Z</time>
      </trkpt>
      <trkpt lat="43.15988" lon="2.36971">
        <ele>230.4</ele>
        <time>2019-08-18T06:55:32.000Z</time>
      </trkpt>
      <trkpt lat="43.15988" lon="2.36973">
        <ele>230.4</ele>
        <time>2019-08-18T06:55:33.000Z</time>
      </trkpt>
      <trkpt lat="43.15988" lon="2.36976">
        <ele>230.3</ele>
        <time>2019-08-18T06:55:34.000Z</time>
      </trkpt>
      <trkpt lat="43.15988" lon="2.36978">
        <ele>230.2</ele>
        <time>2019-08-18T06:55:35.000Z</time>
      </trkpt>
      <trkpt lat="43.15989" lon="2.36981">
        <ele>230</ele>
        <time>2019-08-18T06:55:36.000Z</time>
      </trkpt>
      <trkpt lat="43.15989" lon="2.36983">
        <ele>229.9</ele>
        <time>2019-08-18T06:55:37.000Z</time>
      </trkpt>
      <trkpt lat="43.1599" lon="2.36985">
        <ele>229.7</ele>
        <time>2019-08-18T06:55:38.000Z</time>
      </trkpt>
      <trkpt lat="43.1599" lon="2.36987">
        <ele>229.6</ele>
        <time>2019-08-18T06:55:39.000Z</time>
      </trkpt>
      <trkpt lat="43.15991" lon="2.36989">
        <ele>229.4</ele>
        <time>2019-08-18T06:55:40.000Z</time>
      </trkpt>
      <trkpt lat="43.15992" lon="2.3699">
        <ele>229.3</ele>
        <time>2019-08-18T06:55:41.000Z</time>
      </trkpt>
      <trkpt lat="43.15992" lon="2.3699">
        <ele>229.1</ele>
        <time>2019-08-18T06:55:42.000Z</time>
      </trkpt>
      <trkpt lat="43.15993" lon="2.36991">
        <ele>229</ele>
        <time>2019-08-18T06:55:43.000Z</time>
      </trkpt>
      <trkpt lat="43.15993" lon="2.36991">
        <ele>228.8</ele>
        <time>2019-08-18T06:55:44.000Z</time>
      </trkpt>
      <trkpt lat="43.15994" lon="2.36992">
        <ele>228.7</ele>
        <time>2019-08-18T06:55:45.000Z</time>
      </trkpt>
      <trkpt lat="43.15995" lon="2.36992">
        <ele>228.5</ele>
        <time>2019-08-18T06:55:46.000Z</time>
      </trkpt>
      <trkpt lat="43.15995" lon="2.36992">
        <ele>228.4</ele>
        <time>2019-08-18T06:55:47.000Z</time>
      </trkpt>
      <trkpt lat="43.15996" lon="2.36993">
        <ele>228.2</ele>
        <time>2019-08-18T06:55:48.000Z</time>
      </trkpt>
      <trkpt lat="43.15996" lon="2.36993">
        <ele>228.1</ele>
        <time>2019-08-18T06:55:49.000Z</time>
      </trkpt>
      <trkpt lat="43.15997" lon="2.36994">
        <ele>228</ele>
        <time>2019-08-18T06:55:50.000Z</time>
      </trkpt>
      <trkpt lat="43.15997" lon="2.36995">
        <ele>227.9</ele>
        <time>2019-08-18T06:55:51.000Z</time>
      </trkpt>
      <trkpt lat="43.15997" lon="2.36996">
        <ele>227.9</ele>
        <time>2019-08-18T06:55:52.000Z</time>
      </trkpt>
      <trkpt lat="43.15997" lon="2.36997">
        <ele>227.9</ele>
        <time>2019-08-18T06:55:53.000Z</time>
      </trkpt>
      <trkpt lat="43.15996" lon="2.36999">
        <ele>228</ele>
        <time>2019-08-18T06:55:54.000Z</time>
      </trkpt>
      <trkpt lat="43.15995" lon="2.37">
        <ele>228.1</ele>
        <time>2019-08-18T06:55:55.000Z</time>
      </trkpt>
      <trkpt lat="43.15995" lon="2.37001">
        <ele>228.4</ele>
        <time>2019-08-18T06:55:56.000Z</time>
      </trkpt>
      <trkpt lat="43.15994" lon="2.37003">
        <ele>228.6</ele>
        <time>2019-08-18T06:55:57.000Z</time>
      </trkpt>
      <trkpt lat="43.15993" lon="2.37005">
        <ele>228.9</ele>
        <time>2019-08-18T06:55:58.000Z</time>
      </trkpt>
      <trkpt lat="43.15993" lon="2.37007">
        <ele>229.1</ele>
        <time>2019-08-18T06:55:59.000Z</time>
      </trkpt>
      <trkpt lat="43.15992" lon="2.37008">
        <ele>229.2</ele>
        <time>2019-08-18T06:56:00.000Z</time>
      </trkpt>
      <trkpt lat="43.15993" lon="2.3701">
        <ele>229.2</ele>
        <time>2019-08-18T06:56:01.000Z</time>
      </trkpt>
      <trkpt lat="43.15993" lon="2.37012">
        <ele>229</ele>
        <time>2019-08-18T06:56:02.000Z</time>
      </trkpt>
      <trkpt lat="43.15995" lon="2.37014">
        <ele>228.8</ele>
        <time>2019-08-18T06:56:03.000Z</time>
      </trkpt>
      <trkpt lat="43.15996" lon="2.37015">
        <ele>228.6</ele>
        <time>2019-08-18T06:56:04.000Z</time>
      </trkpt>
      <trkpt lat="43.15997" lon="2.37016">
        <ele>228.3</ele>
        <time>2019-08-18T06:56:05.000Z</time>
      </trkpt>
      <trkpt lat="43.15999" lon="2.37017">
        <ele>227.9</ele>
        <time>2019-08-18T06:56:06.000Z</time>
      </trkpt>
      <trkpt lat="43.16001" lon="2.37017">
        <ele>227.6</ele>
        <time>2019-08-18T06:56:07.000Z</time>
      </trkpt>
      <trkpt lat="43.16002" lon="2.37017">
        <ele>227.5</ele>
        <time>2019-08-18T06:56:08.000Z</time>
      </trkpt>
      <trkpt lat="43.16004" lon="2.37017">
        <ele>227.4</ele>
        <time>2019-08-18T06:56:09.000Z</time>
      </trkpt>
      <trkpt lat="43.16006" lon="2.37016">
        <ele>227.3</ele>
        <time>2019-08-18T06:56:10.000Z</time>
      </trkpt>
      <trkpt lat="43.16007" lon="2.37015">
        <ele>227.1</ele>
        <time>2019-08-18T06:56:11.000Z</time>
      </trkpt>
      <trkpt lat="43.16009" lon="2.37014">
        <ele>227</ele>
        <time>2019-08-18T06:56:12.000Z</time>
      </trkpt>
      <trkpt lat="43.16011" lon="2.37014">
        <ele>226.9</ele>
        <time>2019-08-18T06:56:13.000Z</time>
      </trkpt>
      <trkpt lat="43.16013" lon="2.37013">
        <ele>226.7</ele>
        <time>2019-08-18T06:56:14.000Z</time>
      </trkpt>
      <trkpt lat="43.16015" lon="2.37013">
        <ele>226.6</ele>
        <time>2019-08-18T06:56:15.000Z</time>
      </trkpt>
      <trkpt lat="43.16017" lon="2.37014">
        <ele>226.5</ele>
        <time>2019-08-18T06:56:16.000Z</time>
      </trkpt>
      <trkpt lat="43.16019" lon="2.37015">
        <ele>226.4</ele>
        <time>2019-08-18T06:56:17.000Z</time>
      </trkpt>
      <trkpt lat="43.16021" lon="2.37016">
        <ele>226.3</ele>
        <time>2019-08-18T06:56:18.000Z</time>
      </trkpt>
      <trkpt lat="43.16023" lon="2.37017">
        <ele>226.3</ele>
        <time>2019-08-18T06:56:19.000Z</time>
      </trkpt>
      <trkpt lat="43.16025" lon="2.37019">
        <ele>226.2</ele>
        <time>2019-08-18T06:56:20.000Z</time>
      </trkpt>
      <trkpt lat="43.16027" lon="2.3702">
        <ele>226.2</ele>
        <time>2019-08-18T06:56:21.000Z</time>
      </trkpt>
      <trkpt lat="43.16029" lon="2.37022">
        <ele>226.2</ele>
        <time>2019-08-18T06:56:22.000Z</time>
      </trkpt>
      <trkpt lat="43.1603" lon="2.37024">
        <ele>226.2</ele>
        <time>2019-08-18T06:56:23.000Z</time>
      </trkpt>
      <trkpt lat="43.16032" lon="2.37026">
        <ele>226.2</ele>
        <time>2019-08-18T06:56:24.000Z</time>
      </trkpt>
      <trkpt lat="43.16033" lon="2.37029">
        <ele>226.2</ele>
        <time>2019-08-18T06:56:25.000Z</time>
      </trkpt>
      <trkpt lat="43.16034" lon="2.37031">
        <ele>226.2</ele>
        <time>2019-08-18T06:56:26.000Z</time>
      </trkpt>
      <trkpt lat="43.16035" lon="2.37033">
        <ele>226.2</ele>
        <time>2019-08-18T06:56:27.000Z</time>
      </trkpt>
      <trkpt lat="43.16037" lon="2.37036">
        <ele>226.3</ele>
        <time>2019-08-18T06:56:28.000Z</time>
      </trkpt>
      <trkpt lat="43.16038" lon="2.37038">
        <ele>226.3</ele>
        <time>2019-08-18T06:56:29.000Z</time>
      </trkpt>
      <trkpt lat="43.16039" lon="2.3704">
        <ele>226.3</ele>
        <time>2019-08-18T06:56:30.000Z</time>
      </trkpt>
      <trkpt lat="43.1604" lon="2.37043">
        <ele>226.4</ele>
        <time>2019-08-18T06:56:31.000Z</time>
      </trkpt>
      <trkpt lat="43.16041" lon="2.37045">
        <ele>226.4</ele>
        <time>2019-08-18T06:56:32.000Z</time>
      </trkpt>
      <trkpt lat="43.16042" lon="2.37048">
        <ele>226.5</ele>
        <time>2019-08-18T06:56:33.000Z</time>
      </trkpt>
      <trkpt lat="43.16043" lon="2.3705">
        <ele>226.5</ele>
        <time>2019-08-18T06:56:34.000Z</time>
      </trkpt>
      <trkpt lat="43.16044" lon="2.37052">
        <ele>226.6</ele>
        <time>2019-08-18T06:56:35.000Z</time>
      </trkpt>
      <trkpt lat="43.16045" lon="2.37055">
        <ele>226.6</ele>
        <time>2019-08-18T06:56:36.000Z</time>
      </trkpt>
      <trkpt lat="43.16045" lon="2.37057">
        <ele>226.7</ele>
        <time>2019-08-18T06:56:37.000Z</time>
      </trkpt>
      <trkpt lat="43.16046" lon="2.37059">
        <ele>226.8</ele>
        <time>2019-08-18T06:56:38.000Z</time>
      </trkpt>
      <trkpt lat="43.16046" lon="2.37062">
        <ele>226.9</ele>
        <time>2019-08-18T06:56:39.000Z</time>
      </trkpt>
      <trkpt lat="43.16046" lon="2.37065">
        <ele>227</ele>
        <time>2019-08-18T06:56:40.000Z</time>
      </trkpt>
      <trkpt lat="43.16047" lon="2.37067">
        <ele>227.1</ele>
        <time>2019-08-18T06:56:41.000Z</time>
      </trkpt>
      <trkpt lat="43.16047" lon="2.3707">
        <ele>227.2</ele>
        <time>2019-08-18T06:56:42.000Z</time>
      </trkpt>
      <trkpt lat="43.16047" lon="2.37073">
        <ele>227.3</ele>
        <time>2019-08-18T06:56:43.000Z</time>
      </trkpt>
      <trkpt lat="43.16048" lon="2.37075">
        <ele>227.4</ele>
        <time>2019-08-18T06:56:44.000Z</time>
      </trkpt>
      <trkpt lat="43.16048" lon="2.37078">
        <ele>227.4</ele>
        <time>2019-08-18T06:56:45.000Z</time>
      </trkpt>
      <trkpt lat="43.16048" lon="2.3708">
        <ele>227.5</ele>
        <time>2019-08-18T06:56:46.000Z</time>
      </trkpt>
      <trkpt lat="43.16049" lon="2.37082">
        <ele>227.6</ele>
        <time>2019-08-18T06:56:47.000Z</time>
      </trkpt>
      <trkpt lat="43.16049" lon="2.37084">
        <ele>227.7</ele>
        <time>2019-08-18T06:56:48.000Z</time>
      </trkpt>
      <trkpt lat="43.1605" lon="2.37085">
        <ele>227.8</ele>
        <time>2019-08-18T06:56:49.000Z</time>
      </trkpt>
      <trkpt lat="43.1605" lon="2.37087">
        <ele>227.9</ele>
        <time>2019-08-18T06:56:50.000Z</time>
      </trkpt>
      <trkpt lat="43.16051" lon="2.37088">
        <ele>228</ele>
        <time>2019-08-18T06:56:51.000Z</time>
      </trkpt>
      <trkpt lat="43.16051" lon="2.37089">
        <ele>228.1</ele>
        <time>2019-08-18T06:56:52.000Z</time>
      </trkpt>
      <trkpt lat="43.16052" lon="2.3709">
        <ele>228.2</ele>
        <time>2019-08-18T06:56:53.000Z</time>
      </trkpt>
      <trkpt lat="43.16052" lon="2.37092">
        <ele>228.4</ele>
        <time>2019-08-18T06:56:54.000Z</time>
      </trkpt>
      <trkpt lat="43.16053" lon="2.37093">
        <ele>228.5</ele>
        <time>2019-08-18T06:56:55.000Z</time>
      </trkpt>
      <trkpt lat="43.16053" lon="2.37094">
        <ele>228.6</ele>
        <time>2019-08-18T06:56:56.000Z</time>
      </trkpt>
      <trkpt lat="43.16054" lon="2.37096">
        <ele>228.8</ele>
        <time>2019-08-18T06:56:57.000Z</time>
      </trkpt>
      <trkpt lat="43.16054" lon="2.37098">
        <ele>229</ele>
        <time>2019-08-18T06:56:58.000Z</time>
      </trkpt>
      <trkpt lat="43.16054" lon="2.371">
        <ele>229.2</ele>
        <time>2019-08-18T06:56:59.000Z</time>
      </trkpt>
      <trkpt lat="43.16054" lon="2.37102">
        <ele>229.4</ele>
        <time>2019-08-18T06:57:00.000Z</time>
      </trkpt>
      <trkpt lat="43.16054" lon="2.37104">
        <ele>229.6</ele>
        <time>2019-08-18T06:57:01.000Z</time>
      </trkpt>
      <trkpt lat="43.16054" lon="2.37106">
        <ele>229.9</ele>
        <time>2019-08-18T06:57:02.000Z</time>
      </trkpt>
      <trkpt lat="43.16054" lon="2.37109">
        <ele>230.1</ele>
        <time>2019-08-18T06:57:03.000Z</time>
      </trkpt>
      <trkpt lat="43.16054" lon="2.37111">
        <ele>230.3</ele>
        <time>2019-08-18T06:57:04.000Z</time>
      </trkpt>
      <trkpt lat="43.16054" lon="2.37113">
        <ele>230.6</ele>
        <time>2019-08-18T06:57:05.000Z</time>
      </trkpt>
      <trkpt lat="43.16054" lon="2.37115">
        <ele>230.8</ele>
        <time>2019-08-18T06:57:06.000Z</time>
      </trkpt>
      <trkpt lat="43.16054" lon="2.37117">
        <ele>231</ele>
        <time>2019-08-18T06:57:07.000Z</time>
      </trkpt>
      <trkpt lat="43.16054" lon="2.37119">
        <ele>231.3</ele>
        <time>2019-08-18T06:57:08.000Z</time>
      </trkpt>
      <trkpt lat="43.16054" lon="2.37121">
        <ele>231.5</ele>
        <time>2019-08-18T06:57:09.000Z</time>
      </trkpt>
      <trkpt lat="43.16053" lon="2.37123">
        <ele>231.7</ele>
        <time>2019-08-18T06:57:10.000Z</time>
      </trkpt>
      <trkpt lat="43.16053" lon="2.37126">
        <ele>231.9</ele>
        <time>2019-08-18T06:57:11.000Z</time>
      </trkpt>
      <trkpt lat="43.16053" lon="2.37128">
        <ele>232.1</ele>
        <time>2019-08-18T06:57:12.000Z</time>
      </trkpt>
      <trkpt lat="43.16053" lon="2.3713">
        <ele>232.3</ele>
        <time>2019-08-18T06:57:13.000Z</time>
      </trkpt>
      <trkpt lat="43.16053" lon="2.37132">
        <ele>232.6</ele>
        <time>2019-08-18T06:57:14.000Z</time>
      </trkpt>
      <trkpt lat="43.16053" lon="2.37134">
        <ele>232.8</ele>
        <time>2019-08-18T06:57:15.000Z</time>
      </trkpt>
      <trkpt lat="43.16054" lon="2.37136">
        <ele>233</ele>
        <time>2019-08-18T06:57:16.000Z</time>
      </trkpt>
      <trkpt lat="43.16054" lon="2.37138">
        <ele>233.2</ele>
        <time>2019-08-18T06:57:17.000Z</time>
      </trkpt>
      <trkpt lat="43.16054" lon="2.3714">
        <ele>233.4</ele>
        <time>2019-08-18T06:57:18.000Z</time>
      </trkpt>
      <trkpt lat="43.16054" lon="2.37142">
        <ele>233.6</ele>
        <time>2019-08-18T06:57:19.000Z</time>
      </trkpt>
      <trkpt lat="43.16055" lon="2.37144">
        <ele>233.8</ele>
        <time>2019-08-18T06:57:20.000Z</time>
      </trkpt>
      <trkpt lat="43.16055" lon="2.37146">
        <ele>234</ele>
        <time>2019-08-18T06:57:21.000Z</time>
      </trkpt>
      <trkpt lat="43.16055" lon="2.37147">
        <ele>234.2</ele>
        <time>2019-08-18T06:57:22.000Z</time>
      </trkpt>
      <trkpt lat="43.16056" lon="2.37149">
        <ele>234.4</ele>
        <time>2019-08-18T06:57:23.000Z</time>
      </trkpt>
      <trkpt lat="43.16056" lon="2.37151">
        <ele>234.6</ele>
        <time>2019-08-18T06:57:24.000Z</time>
      </trkpt>
      <trkpt lat="43.16056" lon="2.37153">
        <ele>234.8</ele>
        <time>2019-08-18T06:57:25.000Z</time>
      </trkpt>
      <trkpt lat="43.16056" lon="2.37154">
        <ele>235</ele>
        <time>2019-08-18T06:57:26.000Z</time>
      </trkpt>
      <trkpt lat="43.16057" lon="2.37156">
        <ele>235.2</ele>
        <time>2019-08-18T06:57:27.000Z</time>
      </trkpt>
      <trkpt lat="43.16057" lon="2.37157">
        <ele>235.4</ele>
        <time>2019-08-18T06:57:28.000Z</time>
      </trkpt>
      <trkpt lat="43.16057" lon="2.37159">
        <ele>235.5</ele>
        <time>2019-08-18T06:57:29.000Z</time>
      </trkpt>
      <trkpt lat="43.16057" lon="2.3716">
        <ele>235.7</ele>
        <time>2019-08-18T06:57:30.000Z</time>
      </trkpt>
      <trkpt lat="43.16058" lon="2.37162">
        <ele>235.8</ele>
        <time>2019-08-18T06:57:31.000Z</time>
      </trkpt>
      <trkpt lat="43.16058" lon="2.37163">
        <ele>236</ele>
        <time>2019-08-18T06:57:32.000Z</time>
      </trkpt>
      <trkpt lat="43.16059" lon="2.37164">
        <ele>236.1</ele>
        <time>2019-08-18T06:57:33.000Z</time>
      </trkpt>
      <trkpt lat="43.16059" lon="2.37165">
        <ele>236.3</ele>
        <time>2019-08-18T06:57:34.000Z</time>
      </trkpt>
      <trkpt lat="43.16059" lon="2.37166">
        <ele>236.4</ele>
        <time>2019-08-18T06:57:35.000Z</time>
      </trkpt>
      <trkpt lat="43.1606" lon="2.37167">
        <ele>236.5</ele>
        <time>2019-08-18T06:57:36.000Z</time>
      </trkpt>
      <trkpt lat="43.1606" lon="2.37168">
        <ele>236.6</ele>
        <time>2019-08-18T06:57:37.000Z</time>
      </trkpt>
      <trkpt lat="43.16061" lon="2.37169">
        <ele>236.7</ele>
        <time>2019-08-18T06:57:38.000Z</time>
      </trkpt>
      <trkpt lat="43.16061" lon="2.37169">
        <ele>236.7</ele>
        <time>2019-08-18T06:57:39.000Z</time>
      </trkpt>
      <trkpt lat="43.16062" lon="2.37169">
        <ele>236.8</ele>
        <time>2019-08-18T06:57:40.000Z</time>
      </trkpt>
      <trkpt lat="43.16062" lon="2.37169">
        <ele>236.8</ele>
        <time>2019-08-18T06:57:41.000Z</time>
      </trkpt>
      <trkpt lat="43.16063" lon="2.3717">
        <ele>236.8</ele>
        <time>2019-08-18T06:57:42.000Z</time>
      </trkpt>
      <trkpt lat="43.16064" lon="2.3717">
        <ele>236.8</ele>
        <time>2019-08-18T06:57:43.000Z</time>
      </trkpt>
      <trkpt lat="43.16064" lon="2.3717">
        <ele>236.9</ele>
        <time>2019-08-18T06:57:44.000Z</time>
      </trkpt>
      <trkpt lat="43.16065" lon="2.3717">
        <ele>236.9</ele>
        <time>2019-08-18T06:57:45.000Z</time>
      </trkpt>
      <trkpt lat="43.16066" lon="2.37171">
        <ele>237</ele>
        <time>2019-08-18T06:57:46.000Z</time>
      </trkpt>
      <trkpt lat="43.16067" lon="2.37171">
        <ele>237.1</ele>
        <time>2019-08-18T06:57:47.000Z</time>
      </trkpt>
      <trkpt lat="43.16068" lon="2.37172">
        <ele>237.2</ele>
        <time>2019-08-18T06:57:48.000Z</time>
      </trkpt>
      <trkpt lat="43.1607" lon="2.37174">
        <ele>237.4</ele>
        <time>2019-08-18T06:57:49.000Z</time>
      </trkpt>
      <trkpt lat="43.16071" lon="2.37175">
        <ele>237.6</ele>
        <time>2019-08-18T06:57:50.000Z</time>
      </trkpt>
      <trkpt lat="43.16073" lon="2.37177">
        <ele>237.8</ele>
        <time>2019-08-18T06:57:51.000Z</time>
      </trkpt>
      <trkpt lat="43.16075" lon="2.37178">
        <ele>238</ele>
        <time>2019-08-18T06:57:52.000Z</time>
      </trkpt>
      <trkpt lat="43.16077" lon="2.3718">
        <ele>238.3</ele>
        <time>2019-08-18T06:57:53.000Z</time>
      </trkpt>
      <trkpt lat="43.16079" lon="2.37182">
        <ele>238.5</ele>
        <time>2019-08-18T06:57:54.000Z</time>
      </trkpt>
      <trkpt lat="43.1608" lon="2.37184">
        <ele>238.8</ele>
        <time>2019-08-18T06:57:55.000Z</time>
      </trkpt>
      <trkpt lat="43.16082" lon="2.37186">
        <ele>239</ele>
        <time>2019-08-18T06:57:56.000Z</time>
      </trkpt>
      <trkpt lat="43.16084" lon="2.37188">
        <ele>239.2</ele>
        <time>2019-08-18T06:57:57.000Z</time>
      </trkpt>
      <trkpt lat="43.16086" lon="2.3719">
        <ele>239.2</ele>
        <time>2019-08-18T06:57:58.000Z</time>
      </trkpt>
      <trkpt lat="43.16088" lon="2.37192">
        <ele>239.1</ele>
        <time>2019-08-18T06:57:59.000Z</time>
      </trkpt>
      <trkpt lat="43.1609" lon="2.37193">
        <ele>239.1</ele>
        <time>2019-08-18T06:58:00.000Z</time>
      </trkpt>
      <trkpt lat="43.16092" lon="2.37195">
        <ele>239</ele>
        <time>2019-08-18T06:58:01.000Z</time>
      </trkpt>
      <trkpt lat="43.16093" lon="2.37196">
        <ele>239</ele>
        <time>2019-08-18T06:58:02.000Z</time>
      </trkpt>
      <trkpt lat="43.16095" lon="2.37197">
        <ele>238.9</ele>
        <time>2019-08-18T06:58:03.000Z</time>
      </trkpt>
      <trkpt lat="43.16097" lon="2.37198">
        <ele>238.8</ele>
        <time>2019-08-18T06:58:04.000Z</time>
      </trkpt>
      <trkpt lat="43.16098" lon="2.37199">
        <ele>238.7</ele>
        <time>2019-08-18T06:58:05.000Z</time>
      </trkpt>
      <trkpt lat="43.161" lon="2.372">
        <ele>238.6</ele>
        <time>2019-08-18T06:58:06.000Z</time>
      </trkpt>
      <trkpt lat="43.16101" lon="2.37201">
        <ele>238.5</ele>
        <time>2019-08-18T06:58:07.000Z</time>
      </trkpt>
      <trkpt lat="43.16103" lon="2.37201">
        <ele>238.4</ele>
        <time>2019-08-18T06:58:08.000Z</time>
      </trkpt>
      <trkpt lat="43.16105" lon="2.37202">
        <ele>238.2</ele>
        <time>2019-08-18T06:58:09.000Z</time>
      </trkpt>
      <trkpt lat="43.16106" lon="2.37202">
        <ele>238.1</ele>
        <time>2019-08-18T06:58:10.000Z</time>
      </trkpt>
      <trkpt lat="43.16108" lon="2.37202">
        <ele>237.9</ele>
        <time>2019-08-18T06:58:11.000Z</time>
      </trkpt>
      <trkpt lat="43.16109" lon="2.37202">
        <ele>237.7</ele>
        <time>2019-08-18T06:58:12.000Z</time>
      </trkpt>
      <trkpt lat="43.16111" lon="2.37202">
        <ele>237.5</ele>
        <time>2019-08-18T06:58:13.000Z</time>
      </trkpt>
      <trkpt lat="43.16112" lon="2.37202">
        <ele>237.3</ele>
        <time>2019-08-18T06:58:14.000Z</time>
      </trkpt>
      <trkpt lat="43.16114" lon="2.37202">
        <ele>237.1</ele>
        <time>2019-08-18T06:58:15.000Z</time>
      </trkpt>
      <trkpt lat="43.16116" lon="2.37201">
        <ele>236.9</ele>
        <time>2019-08-18T06:58:16.000Z</time>
      </trkpt>
      <trkpt lat="43.16117" lon="2.37201">
        <ele>236.6</ele>
        <time>2019-08-18T06:58:17.000Z</time>
      </trkpt>
      <trkpt lat="43.16119" lon="2.37201">
        <ele>236.4</ele>
        <time>2019-08-18T06:58:18.000Z</time>
      </trkpt>
      <trkpt lat="43.16121" lon="2.372">
        <ele>236.1</ele>
        <time>2019-08-18T06:58:19.000Z</time>
      </trkpt>
      <trkpt lat="43.16123" lon="2.372">
        <ele>235.9</ele>
        <time>2019-08-18T06:58:20.000Z</time>
      </trkpt>
      <trkpt lat="43.16124" lon="2.372">
        <ele>235.7</ele>
        <time>2019-08-18T06:58:21.000Z</time>
      </trkpt>
      <trkpt lat="43.16126" lon="2.37201">
        <ele>235.5</ele>
        <time>2019-08-18T06:58:22.000Z</time>
      </trkpt>
      <trkpt lat="43.16128" lon="2.37201">
        <ele>235.3</ele>
        <time>2019-08-18T06:58:23.000Z</time>
      </trkpt>
      <trkpt lat="43.1613" lon="2.37202">
        <ele>235.2</ele>
        <time>2019-08-18T06:58:24.000Z</time>
      </trkpt>
      <trkpt lat="43.16132" lon="2.37203">
        <ele>235.1</ele>
        <time>2019-08-18T06:58:25.000Z</time>
      </trkpt>
      <trkpt lat="43.16134" lon="2.37203">
        <ele>234.9</ele>
        <time>2019-08-18T06:58:26.000Z</time>
      </trkpt>
      <trkpt lat="43.16135" lon="2.37204">
        <ele>234.9</ele>
        <time>2019-08-18T06:58:27.000Z</time>
      </trkpt>
      <trkpt lat="43.16136" lon="2.37205">
        <ele>234.8</ele>
        <time>2019-08-18T06:58:28.000Z</time>
      </trkpt>
      <trkpt lat="43.16137" lon="2.37206">
        <ele>234.7</ele>
        <time>2019-08-18T06:58:29.000Z</time>
      </trkpt>
      <trkpt lat="43.16138" lon="2.37207">
        <ele>234.7</ele>
        <time>2019-08-18T06:58:30.000Z</time>
      </trkpt>
      <trkpt lat="43.16139" lon="2.37208">
        <ele>234.7</ele>
        <time>2019-08-18T06:58:31.000Z</time>
      </trkpt>
      <trkpt lat="43.1614" lon="2.37208">
        <ele>234.7</ele>
        <time>2019-08-18T06:58:32.000Z</time>
      </trkpt>
      <trkpt lat="43.1614" lon="2.37209">
        <ele>234.7</ele>
        <time>2019-08-18T06:58:33.000Z</time>
      </trkpt>
      <trkpt lat="43.16141" lon="2.3721">
        <ele>234.7</ele>
        <time>2019-08-18T06:58:34.000Z</time>
      </trkpt>
      <trkpt lat="43.16142" lon="2.3721">
        <ele>234.7</ele>
        <time>2019-08-18T06:58:35.000Z</time>
      </trkpt>
      <trkpt lat="43.16142" lon="2.37211">
        <ele>234.7</ele>
        <time>2019-08-18T06:58:36.000Z</time>
      </trkpt>
      <trkpt lat="43.16143" lon="2.37212">
        <ele>234.7</ele>
        <time>2019-08-18T06:58:37.000Z</time>
      </trkpt>
      <trkpt lat="43.16144" lon="2.37212">
        <ele>234.7</ele>
        <time>2019-08-18T06:58:38.000Z</time>
      </trkpt>
      <trkpt lat="43.16144" lon="2.37213">
        <ele>234.7</ele>
        <time>2019-08-18T06:58:39.000Z</time>
      </trkpt>
      <trkpt lat="43.16145" lon="2.37214">
        <ele>234.7</ele>
        <time>2019-08-18T06:58:40.000Z</time>
      </trkpt>
      <trkpt lat="43.16145" lon="2.37215">
        <ele>234.7</ele>
        <time>2019-08-18T06:58:41.000Z</time>
      </trkpt>
      <trkpt lat="43.16146" lon="2.37216">
        <ele>234.8</ele>
        <time>2019-08-18T06:58:42.000Z</time>
      </trkpt>
      <trkpt lat="43.16146" lon="2.37217">
        <ele>234.9</ele>
        <time>2019-08-18T06:58:43.000Z</time>
      </trkpt>
      <trkpt lat="43.16147" lon="2.37218">
        <ele>235</ele>
        <time>2019-08-18T06:58:44.000Z</time>
      </trkpt>
      <trkpt lat="43.16147" lon="2.3722">
        <ele>235.1</ele>
        <time>2019-08-18T06:58:45.000Z</time>
      </trkpt>
      <trkpt lat="43.16147" lon="2.37221">
        <ele>235.2</ele>
        <time>2019-08-18T06:58:46.000Z</time>
      </trkpt>
      <trkpt lat="43.16147" lon="2.37223">
        <ele>235.4</ele>
        <time>2019-08-18T06:58:47.000Z</time>
      </trkpt>
      <trkpt lat="43.16147" lon="2.37225">
        <ele>235.6</ele>
        <time>2019-08-18T06:58:48.000Z</time>
      </trkpt>
      <trkpt lat="43.16147" lon="2.37226">
        <ele>235.8</ele>
        <time>2019-08-18T06:58:49.000Z</time>
      </trkpt>
      <trkpt lat="43.16147" lon="2.37228">
        <ele>236</ele>
        <time>2019-08-18T06:58:50.000Z</time>
      </trkpt>
      <trkpt lat="43.16147" lon="2.3723">
        <ele>236.2</ele>
        <time>2019-08-18T06:58:51.000Z</time>
      </trkpt>
      <trkpt lat="43.16147" lon="2.37232">
        <ele>236.4</ele>
        <time>2019-08-18T06:58:52.000Z</time>
      </trkpt>
      <trkpt lat="43.16147" lon="2.37233">
        <ele>236.6</ele>
        <time>2019-08-18T06:58:53.000Z</time>
      </trkpt>
      <trkpt lat="43.16147" lon="2.37235">
        <ele>236.8</ele>
        <time>2019-08-18T06:58:54.000Z</time>
      </trkpt>
      <trkpt lat="43.16147" lon="2.37237">
        <ele>237</ele>
        <time>2019-08-18T06:58:55.000Z</time>
      </trkpt>
      <trkpt lat="43.16147" lon="2.37239">
        <ele>237.2</ele>
        <time>2019-08-18T06:58:56.000Z</time>
      </trkpt>
      <trkpt lat="43.16148" lon="2.37242">
        <ele>237.4</ele>
        <time>2019-08-18T06:58:57.000Z</time>
      </trkpt>
      <trkpt lat="43.16148" lon="2.37244">
        <ele>237.5</ele>
        <time>2019-08-18T06:58:58.000Z</time>
      </trkpt>
      <trkpt lat="43.16149" lon="2.37246">
        <ele>237.7</ele>
        <time>2019-08-18T06:58:59.000Z</time>
      </trkpt>
      <trkpt lat="43.1615" lon="2.37249">
        <ele>237.8</ele>
        <time>2019-08-18T06:59:00.000Z</time>
      </trkpt>
      <trkpt lat="43.16151" lon="2.37251">
        <ele>237.9</ele>
        <time>2019-08-18T06:59:01.000Z</time>
      </trkpt>
      <trkpt lat="43.16152" lon="2.37254">
        <ele>237.9</ele>
        <time>2019-08-18T06:59:02.000Z</time>
      </trkpt>
      <trkpt lat="43.16153" lon="2.37257">
        <ele>237.9</ele>
        <time>2019-08-18T06:59:03.000Z</time>
      </trkpt>
      <trkpt lat="43.16154" lon="2.3726">
        <ele>237.9</ele>
        <time>2019-08-18T06:59:04.000Z</time>
      </trkpt>
      <trkpt lat="43.16154" lon="2.37263">
        <ele>237.9</ele>
        <time>2019-08-18T06:59:05.000Z</time>
      </trkpt>
      <trkpt lat="43.16155" lon="2.37266">
        <ele>238</ele>
        <time>2019-08-18T06:59:06.000Z</time>
      </trkpt>
      <trkpt lat="43.16155" lon="2.37269">
        <ele>238.1</ele>
        <time>2019-08-18T06:59:07.000Z</time>
      </trkpt>
      <trkpt lat="43.16155" lon="2.37272">
        <ele>238.2</ele>
        <time>2019-08-18T06:59:08.000Z</time>
      </trkpt>
      <trkpt lat="43.16155" lon="2.37275">
        <ele>238.3</ele>
        <time>2019-08-18T06:59:09.000Z</time>
      </trkpt>
      <trkpt lat="43.16155" lon="2.37278">
        <ele>238.4</ele>
        <time>2019-08-18T06:59:10.000Z</time>
      </trkpt>
      <trkpt lat="43.16155" lon="2.37281">
        <ele>238.5</ele>
        <time>2019-08-18T06:59:11.000Z</time>
      </trkpt>
      <trkpt lat="43.16155" lon="2.37283">
        <ele>238.6</ele>
        <time>2019-08-18T06:59:12.000Z</time>
      </trkpt>
      <trkpt lat="43.16154" lon="2.37286">
        <ele>238.8</ele>
        <time>2019-08-18T06:59:13.000Z</time>
      </trkpt>
      <trkpt lat="43.16154" lon="2.37289">
        <ele>238.9</ele>
        <time>2019-08-18T06:59:14.000Z</time>
      </trkpt>
      <trkpt lat="43.16154" lon="2.37292">
        <ele>239</ele>
        <time>2019-08-18T06:59:15.000Z</time>
      </trkpt>
      <trkpt lat="43.16154" lon="2.37294">
        <ele>239.2</ele>
        <time>2019-08-18T06:59:16.000Z</time>
      </trkpt>
      <trkpt lat="43.16153" lon="2.37296">
        <ele>239.3</ele>
        <time>2019-08-18T06:59:17.000Z</time>
      </trkpt>
      <trkpt lat="43.16153" lon="2.37299">
        <ele>239.4</ele>
        <time>2019-08-18T06:59:18.000Z</time>
      </trkpt>
      <trkpt lat="43.16153" lon="2.37301">
        <ele>239.4</ele>
        <time>2019-08-18T06:59:19.000Z</time>
      </trkpt>
      <trkpt lat="43.16153" lon="2.37303">
        <ele>239.5</ele>
        <time>2019-08-18T06:59:20.000Z</time>
      </trkpt>
      <trkpt lat="43.16153" lon="2.37305">
        <ele>239.6</ele>
        <time>2019-08-18T06:59:21.000Z</time>
      </trkpt>
      <trkpt lat="43.16153" lon="2.37307">
        <ele>239.7</ele>
        <time>2019-08-18T06:59:22.000Z</time>
      </trkpt>
      <trkpt lat="43.16153" lon="2.37309">
        <ele>239.8</ele>
        <time>2019-08-18T06:59:23.000Z</time>
      </trkpt>
      <trkpt lat="43.16153" lon="2.37312">
        <ele>239.9</ele>
        <time>2019-08-18T06:59:24.000Z</time>
      </trkpt>
      <trkpt lat="43.16153" lon="2.37314">
        <ele>240</ele>
        <time>2019-08-18T06:59:25.000Z</time>
      </trkpt>
      <trkpt lat="43.16153" lon="2.37317">
        <ele>240.1</ele>
        <time>2019-08-18T06:59:26.000Z</time>
      </trkpt>
      <trkpt lat="43.16153" lon="2.37319">
        <ele>240.2</ele>
        <time>2019-08-18T06:59:27.000Z</time>
      </trkpt>
      <trkpt lat="43.16153" lon="2.37322">
        <ele>240.3</ele>
        <time>2019-08-18T06:59:28.000Z</time>
      </trkpt>
      <trkpt lat="43.16153" lon="2.37325">
        <ele>240.4</ele>
        <time>2019-08-18T06:59:29.000Z</time>
      </trkpt>
      <trkpt lat="43.16153" lon="2.37328">
        <ele>240.5</ele>
        <time>2019-08-18T06:59:30.000Z</time>
      </trkpt>
      <trkpt lat="43.16153" lon="2.37331">
        <ele>240.6</ele>
        <time>2019-08-18T06:59:31.000Z</time>
      </trkpt>
      <trkpt lat="43.16153" lon="2.37334">
        <ele>240.7</ele>
        <time>2019-08-18T06:59:32.000Z</time>
      </trkpt>
      <trkpt lat="43.16153" lon="2.37337">
        <ele>240.7</ele>
        <time>2019-08-18T06:59:33.000Z</time>
      </trkpt>
      <trkpt lat="43.16153" lon="2.37341">
        <ele>240.8</ele>
        <time>2019-08-18T06:59:34.000Z</time>
      </trkpt>
      <trkpt lat="43.16153" lon="2.37344">
        <ele>240.8</ele>
        <time>2019-08-18T06:59:35.000Z</time>
      </trkpt>
      <trkpt lat="43.16153" lon="2.37347">
        <ele>240.8</ele>
        <time>2019-08-18T06:59:36.000Z</time>
      </trkpt>
      <trkpt lat="43.16153" lon="2.37351">
        <ele>240.8</ele>
        <time>2019-08-18T06:59:37.000Z</time>
      </trkpt>
      <trkpt lat="43.16153" lon="2.37354">
        <ele>240.8</ele>
        <time>2019-08-18T06:59:38.000Z</time>
      </trkpt>
      <trkpt lat="43.16154" lon="2.37357">
        <ele>240.9</ele>
        <time>2019-08-18T06:59:39.000Z</time>
      </trkpt>
      <trkpt lat="43.16154" lon="2.3736">
        <ele>240.9</ele>
        <time>2019-08-18T06:59:40.000Z</time>
      </trkpt>
      <trkpt lat="43.16155" lon="2.37364">
        <ele>240.9</ele>
        <time>2019-08-18T06:59:41.000Z</time>
      </trkpt>
      <trkpt lat="43.16155" lon="2.37367">
        <ele>240.9</ele>
        <time>2019-08-18T06:59:42.000Z</time>
      </trkpt>
      <trkpt lat="43.16156" lon="2.3737">
        <ele>240.9</ele>
        <time>2019-08-18T06:59:43.000Z</time>
      </trkpt>
      <trkpt lat="43.16156" lon="2.37373">
        <ele>240.9</ele>
        <time>2019-08-18T06:59:44.000Z</time>
      </trkpt>
      <trkpt lat="43.16157" lon="2.37376">
        <ele>240.9</ele>
        <time>2019-08-18T06:59:45.000Z</time>
      </trkpt>
      <trkpt lat="43.16157" lon="2.37379">
        <ele>240.9</ele>
        <time>2019-08-18T06:59:46.000Z</time>
      </trkpt>
      <trkpt lat="43.16158" lon="2.37383">
        <ele>240.9</ele>
        <time>2019-08-18T06:59:47.000Z</time>
      </trkpt>
      <trkpt lat="43.16158" lon="2.37386">
        <ele>240.9</ele>
        <time>2019-08-18T06:59:48.000Z</time>
      </trkpt>
      <trkpt lat="43.16159" lon="2.37389">
        <ele>240.9</ele>
        <time>2019-08-18T06:59:49.000Z</time>
      </trkpt>
      <trkpt lat="43.16159" lon="2.37392">
        <ele>240.9</ele>
        <time>2019-08-18T06:59:50.000Z</time>
      </trkpt>
      <trkpt lat="43.1616" lon="2.37395">
        <ele>240.9</ele>
        <time>2019-08-18T06:59:51.000Z</time>
      </trkpt>
      <trkpt lat="43.1616" lon="2.37399">
        <ele>241</ele>
        <time>2019-08-18T06:59:52.000Z</time>
      </trkpt>
      <trkpt lat="43.1616" lon="2.37402">
        <ele>241</ele>
        <time>2019-08-18T06:59:53.000Z</time>
      </trkpt>
      <trkpt lat="43.16161" lon="2.37405">
        <ele>241.1</ele>
        <time>2019-08-18T06:59:54.000Z</time>
      </trkpt>
      <trkpt lat="43.16161" lon="2.37408">
        <ele>241.1</ele>
        <time>2019-08-18T06:59:55.000Z</time>
      </trkpt>
      <trkpt lat="43.16161" lon="2.37411">
        <ele>241.2</ele>
        <time>2019-08-18T06:59:56.000Z</time>
      </trkpt>
      <trkpt lat="43.16161" lon="2.37414">
        <ele>241.2</ele>
        <time>2019-08-18T06:59:57.000Z</time>
      </trkpt>
      <trkpt lat="43.1616" lon="2.37417">
        <ele>241.3</ele>
        <time>2019-08-18T06:59:58.000Z</time>
      </trkpt>
      <trkpt lat="43.1616" lon="2.3742">
        <ele>241.1</ele>
        <time>2019-08-18T06:59:59.000Z</time>
      </trkpt>
      <trkpt lat="43.16159" lon="2.37422">
        <ele>240.9</ele>
        <time>2019-08-18T07:00:00.000Z</time>
      </trkpt>
      <trkpt lat="43.16159" lon="2.37424">
        <ele>240.8</ele>
        <time>2019-08-18T07:00:01.000Z</time>
      </trkpt>
      <trkpt lat="43.16158" lon="2.37426">
        <ele>240.7</ele>
        <time>2019-08-18T07:00:02.000Z</time>
      </trkpt>
      <trkpt lat="43.16157" lon="2.37428">
        <ele>240.6</ele>
        <time>2019-08-18T07:00:03.000Z</time>
      </trkpt>
      <trkpt lat="43.16155" lon="2.37429">
        <ele>240.5</ele>
        <time>2019-08-18T07:00:04.000Z</time>
      </trkpt>
      <trkpt lat="43.16154" lon="2.37431">
        <ele>240.4</ele>
        <time>2019-08-18T07:00:05.000Z</time>
      </trkpt>
      <trkpt lat="43.16153" lon="2.37432">
        <ele>240.3</ele>
        <time>2019-08-18T07:00:06.000Z</time>
      </trkpt>
      <trkpt lat="43.16152" lon="2.37433">
        <ele>240.3</ele>
        <time>2019-08-18T07:00:07.000Z</time>
      </trkpt>
      <trkpt lat="43.16151" lon="2.37435">
        <ele>240.2</ele>
        <time>2019-08-18T07:00:08.000Z</time>
      </trkpt>
      <trkpt lat="43.16149" lon="2.37437">
        <ele>240.1</ele>
        <time>2019-08-18T07:00:09.000Z</time>
      </trkpt>
      <trkpt lat="43.16148" lon="2.37438">
        <ele>239.9</ele>
        <time>2019-08-18T07:00:10.000Z</time>
      </trkpt>
      <trkpt lat="43.16147" lon="2.3744">
        <ele>239.8</ele>
        <time>2019-08-18T07:00:11.000Z</time>
      </trkpt>
      <trkpt lat="43.16146" lon="2.37441">
        <ele>239.7</ele>
        <time>2019-08-18T07:00:12.000Z</time>
      </trkpt>
      <trkpt lat="43.16145" lon="2.37443">
        <ele>239.6</ele>
        <time>2019-08-18T07:00:13.000Z</time>
      </trkpt>
      <trkpt lat="43.16144" lon="2.37445">
        <ele>239.4</ele>
        <time>2019-08-18T07:00:14.000Z</time>
      </trkpt>
      <trkpt lat="43.16142" lon="2.37447">
        <ele>239.3</ele>
        <time>2019-08-18T07:00:15.000Z</time>
      </trkpt>
      <trkpt lat="43.16141" lon="2.37448">
        <ele>239.1</ele>
        <time>2019-08-18T07:00:16.000Z</time>
      </trkpt>
      <trkpt lat="43.16139" lon="2.3745">
        <ele>239</ele>
        <time>2019-08-18T07:00:17.000Z</time>
      </trkpt>
      <trkpt lat="43.16138" lon="2.37452">
        <ele>238.8</ele>
        <time>2019-08-18T07:00:18.000Z</time>
      </trkpt>
      <trkpt lat="43.16137" lon="2.37454">
        <ele>238.7</ele>
        <time>2019-08-18T07:00:19.000Z</time>
      </trkpt>
      <trkpt lat="43.16136" lon="2.37455">
        <ele>238.5</ele>
        <time>2019-08-18T07:00:20.000Z</time>
      </trkpt>
      <trkpt lat="43.16136" lon="2.37457">
        <ele>238.3</ele>
        <time>2019-08-18T07:00:21.000Z</time>
      </trkpt>
      <trkpt lat="43.16136" lon="2.37459">
        <ele>238.1</ele>
        <time>2019-08-18T07:00:22.000Z</time>
      </trkpt>
      <trkpt lat="43.16136" lon="2.37461">
        <ele>237.9</ele>
        <time>2019-08-18T07:00:23.000Z</time>
      </trkpt>
      <trkpt lat="43.16136" lon="2.37463">
        <ele>237.7</ele>
        <time>2019-08-18T07:00:24.000Z</time>
      </trkpt>
      <trkpt lat="43.16136" lon="2.37465">
        <ele>237.5</ele>
        <time>2019-08-18T07:00:25.000Z</time>
      </trkpt>
      <trkpt lat="43.16137" lon="2.37467">
        <ele>237.3</ele>
        <time>2019-08-18T07:00:26.000Z</time>
      </trkpt>
      <trkpt lat="43.16137" lon="2.37469">
        <ele>237.1</ele>
        <time>2019-08-18T07:00:27.000Z</time>
      </trkpt>
      <trkpt lat="43.16138" lon="2.37471">
        <ele>236.9</ele>
        <time>2019-08-18T07:00:28.000Z</time>
      </trkpt>
      <trkpt lat="43.16138" lon="2.37473">
        <ele>236.7</ele>
        <time>2019-08-18T07:00:29.000Z</time>
      </trkpt>
      <trkpt lat="43.16138" lon="2.37475">
        <ele>236.4</ele>
        <time>2019-08-18T07:00:30.000Z</time>
      </trkpt>
      <trkpt lat="43.16138" lon="2.37478">
        <ele>236.2</ele>
        <time>2019-08-18T07:00:31.000Z</time>
      </trkpt>
      <trkpt lat="43.16137" lon="2.3748">
        <ele>236</ele>
        <time>2019-08-18T07:00:32.000Z</time>
      </trkpt>
      <trkpt lat="43.16137" lon="2.37482">
        <ele>235.7</ele>
        <time>2019-08-18T07:00:33.000Z</time>
      </trkpt>
      <trkpt lat="43.16137" lon="2.37485">
        <ele>235.5</ele>
        <time>2019-08-18T07:00:34.000Z</time>
      </trkpt>
      <trkpt lat="43.16137" lon="2.37488">
        <ele>235.2</ele>
        <time>2019-08-18T07:00:35.000Z</time>
      </trkpt>
      <trkpt lat="43.16137" lon="2.3749">
        <ele>234.9</ele>
        <time>2019-08-18T07:00:36.000Z</time>
      </trkpt>
      <trkpt lat="43.16137" lon="2.37493">
        <ele>234.6</ele>
        <time>2019-08-18T07:00:37.000Z</time>
      </trkpt>
      <trkpt lat="43.16137" lon="2.37496">
        <ele>234.4</ele>
        <time>2019-08-18T07:00:38.000Z</time>
      </trkpt>
      <trkpt lat="43.16138" lon="2.37499">
        <ele>234.1</ele>
        <time>2019-08-18T07:00:39.000Z</time>
      </trkpt>
      <trkpt lat="43.16138" lon="2.37502">
        <ele>233.7</ele>
        <time>2019-08-18T07:00:40.000Z</time>
      </trkpt>
      <trkpt lat="43.16138" lon="2.37505">
        <ele>233.3</ele>
        <time>2019-08-18T07:00:41.000Z</time>
      </trkpt>
      <trkpt lat="43.16139" lon="2.37508">
        <ele>232.9</ele>
        <time>2019-08-18T07:00:42.000Z</time>
      </trkpt>
      <trkpt lat="43.16139" lon="2.3751">
        <ele>232.5</ele>
        <time>2019-08-18T07:00:43.000Z</time>
      </trkpt>
      <trkpt lat="43.1614" lon="2.37513">
        <ele>232.1</ele>
        <time>2019-08-18T07:00:44.000Z</time>
      </trkpt>
      <trkpt lat="43.1614" lon="2.37516">
        <ele>231.7</ele>
        <time>2019-08-18T07:00:45.000Z</time>
      </trkpt>
      <trkpt lat="43.1614" lon="2.37519">
        <ele>231.3</ele>
        <time>2019-08-18T07:00:46.000Z</time>
      </trkpt>
      <trkpt lat="43.16141" lon="2.37521">
        <ele>231</ele>
        <time>2019-08-18T07:00:47.000Z</time>
      </trkpt>
      <trkpt lat="43.16141" lon="2.37523">
        <ele>230.6</ele>
        <time>2019-08-18T07:00:48.000Z</time>
      </trkpt>
      <trkpt lat="43.16141" lon="2.37525">
        <ele>230.3</ele>
        <time>2019-08-18T07:00:49.000Z</time>
      </trkpt>
      <trkpt lat="43.16141" lon="2.37527">
        <ele>230</ele>
        <time>2019-08-18T07:00:50.000Z</time>
      </trkpt>
      <trkpt lat="43.16141" lon="2.37529">
        <ele>229.7</ele>
        <time>2019-08-18T07:00:51.000Z</time>
      </trkpt>
      <trkpt lat="43.16141" lon="2.37531">
        <ele>229.4</ele>
        <time>2019-08-18T07:00:52.000Z</time>
      </trkpt>
      <trkpt lat="43.16141" lon="2.37533">
        <ele>229.1</ele>
        <time>2019-08-18T07:00:53.000Z</time>
      </trkpt>
      <trkpt lat="43.1614" lon="2.37536">
        <ele>228.7</ele>
        <time>2019-08-18T07:00:54.000Z</time>
      </trkpt>
      <trkpt lat="43.1614" lon="2.37539">
        <ele>228.3</ele>
        <time>2019-08-18T07:00:55.000Z</time>
      </trkpt>
      <trkpt lat="43.1614" lon="2.37542">
        <ele>227.8</ele>
        <time>2019-08-18T07:00:56.000Z</time>
      </trkpt>
      <trkpt lat="43.1614" lon="2.37545">
        <ele>227.4</ele>
        <time>2019-08-18T07:00:57.000Z</time>
      </trkpt>
      <trkpt lat="43.1614" lon="2.37547">
        <ele>227</ele>
        <time>2019-08-18T07:00:58.000Z</time>
      </trkpt>
      <trkpt lat="43.16139" lon="2.3755">
        <ele>226.7</ele>
        <time>2019-08-18T07:00:59.000Z</time>
      </trkpt>
      <trkpt lat="43.16139" lon="2.37552">
        <ele>226.3</ele>
        <time>2019-08-18T07:01:00.000Z</time>
      </trkpt>
      <trkpt lat="43.16138" lon="2.37555">
        <ele>225.9</ele>
        <time>2019-08-18T07:01:01.000Z</time>
      </trkpt>
      <trkpt lat="43.16138" lon="2.37557">
        <ele>225.6</ele>
        <time>2019-08-18T07:01:02.000Z</time>
      </trkpt>
      <trkpt lat="43.16137" lon="2.37559">
        <ele>225.2</ele>
        <time>2019-08-18T07:01:03.000Z</time>
      </trkpt>
      <trkpt lat="43.16137" lon="2.37562">
        <ele>224.8</ele>
        <time>2019-08-18T07:01:04.000Z</time>
      </trkpt>
      <trkpt lat="43.16136" lon="2.37565">
        <ele>224.4</ele>
        <time>2019-08-18T07:01:05.000Z</time>
      </trkpt>
      <trkpt lat="43.16135" lon="2.37567">
        <ele>224</ele>
        <time>2019-08-18T07:01:06.000Z</time>
      </trkpt>
      <trkpt lat="43.16134" lon="2.3757">
        <ele>223.6</ele>
        <time>2019-08-18T07:01:07.000Z</time>
      </trkpt>
      <trkpt lat="43.16133" lon="2.37573">
        <ele>223.2</ele>
        <time>2019-08-18T07:01:08.000Z</time>
      </trkpt>
      <trkpt lat="43.16132" lon="2.37575">
        <ele>222.7</ele>
        <time>2019-08-18T07:01:09.000Z</time>
      </trkpt>
      <trkpt lat="43.16131" lon="2.37578">
        <ele>222.3</ele>
        <time>2019-08-18T07:01:10.000Z</time>
      </trkpt>
      <trkpt lat="43.16129" lon="2.37581">
        <ele>221.9</ele>
        <time>2019-08-18T07:01:11.000Z</time>
      </trkpt>
      <trkpt lat="43.16128" lon="2.37584">
        <ele>221.5</ele>
        <time>2019-08-18T07:01:12.000Z</time>
      </trkpt>
      <trkpt lat="43.16127" lon="2.37586">
        <ele>221.4</ele>
        <time>2019-08-18T07:01:13.000Z</time>
      </trkpt>
      <trkpt lat="43.16126" lon="2.37589">
        <ele>221.3</ele>
        <time>2019-08-18T07:01:14.000Z</time>
      </trkpt>
      <trkpt lat="43.16125" lon="2.37591">
        <ele>221.2</ele>
        <time>2019-08-18T07:01:15.000Z</time>
      </trkpt>
      <trkpt lat="43.16125" lon="2.37594">
        <ele>221.1</ele>
        <time>2019-08-18T07:01:16.000Z</time>
      </trkpt>
      <trkpt lat="43.16124" lon="2.37596">
        <ele>221</ele>
        <time>2019-08-18T07:01:17.000Z</time>
      </trkpt>
      <trkpt lat="43.16123" lon="2.37598">
        <ele>221</ele>
        <time>2019-08-18T07:01:18.000Z</time>
      </trkpt>
      <trkpt lat="43.16123" lon="2.376">
        <ele>220.9</ele>
        <time>2019-08-18T07:01:19.000Z</time>
      </trkpt>
      <trkpt lat="43.16122" lon="2.37602">
        <ele>220.8</ele>
        <time>2019-08-18T07:01:20.000Z</time>
      </trkpt>
      <trkpt lat="43.16121" lon="2.37603">
        <ele>220.8</ele>
        <time>2019-08-18T07:01:21.000Z</time>
      </trkpt>
      <trkpt lat="43.1612" lon="2.37605">
        <ele>220.7</ele>
        <time>2019-08-18T07:01:22.000Z</time>
      </trkpt>
      <trkpt lat="43.16119" lon="2.37606">
        <ele>220.7</ele>
        <time>2019-08-18T07:01:23.000Z</time>
      </trkpt>
      <trkpt lat="43.16117" lon="2.37606">
        <ele>220.7</ele>
        <time>2019-08-18T07:01:24.000Z</time>
      </trkpt>
      <trkpt lat="43.16116" lon="2.37608">
        <ele>220.6</ele>
        <time>2019-08-18T07:01:25.000Z</time>
      </trkpt>
      <trkpt lat="43.16114" lon="2.37609">
        <ele>220.6</ele>
        <time>2019-08-18T07:01:26.000Z</time>
      </trkpt>
      <trkpt lat="43.16113" lon="2.37611">
        <ele>220.6</ele>
        <time>2019-08-18T07:01:27.000Z</time>
      </trkpt>
      <trkpt lat="43.16112" lon="2.37612">
        <ele>220.5</ele>
        <time>2019-08-18T07:01:28.000Z</time>
      </trkpt>
      <trkpt lat="43.16111" lon="2.37615">
        <ele>220.5</ele>
        <time>2019-08-18T07:01:29.000Z</time>
      </trkpt>
      <trkpt lat="43.1611" lon="2.37617">
        <ele>220.4</ele>
        <time>2019-08-18T07:01:30.000Z</time>
      </trkpt>
      <trkpt lat="43.16109" lon="2.37619">
        <ele>220.3</ele>
        <time>2019-08-18T07:01:31.000Z</time>
      </trkpt>
      <trkpt lat="43.16109" lon="2.37622">
        <ele>220.3</ele>
        <time>2019-08-18T07:01:32.000Z</time>
      </trkpt>
      <trkpt lat="43.1611" lon="2.37624">
        <ele>220.2</ele>
        <time>2019-08-18T07:01:33.000Z</time>
      </trkpt>
      <trkpt lat="43.16111" lon="2.37627">
        <ele>220.1</ele>
        <time>2019-08-18T07:01:34.000Z</time>
      </trkpt>
      <trkpt lat="43.16112" lon="2.37629">
        <ele>220</ele>
        <time>2019-08-18T07:01:35.000Z</time>
      </trkpt>
      <trkpt lat="43.16113" lon="2.37632">
        <ele>219.9</ele>
        <time>2019-08-18T07:01:36.000Z</time>
      </trkpt>
      <trkpt lat="43.16115" lon="2.37634">
        <ele>219.8</ele>
        <time>2019-08-18T07:01:37.000Z</time>
      </trkpt>
      <trkpt lat="43.16116" lon="2.37636">
        <ele>219.8</ele>
        <time>2019-08-18T07:01:38.000Z</time>
      </trkpt>
      <trkpt lat="43.16118" lon="2.37638">
        <ele>219.7</ele>
        <time>2019-08-18T07:01:39.000Z</time>
      </trkpt>
      <trkpt lat="43.16119" lon="2.3764">
        <ele>219.6</ele>
        <time>2019-08-18T07:01:40.000Z</time>
      </trkpt>
      <trkpt lat="43.16121" lon="2.37641">
        <ele>219.5</ele>
        <time>2019-08-18T07:01:41.000Z</time>
      </trkpt>
      <trkpt lat="43.16122" lon="2.37642">
        <ele>219.5</ele>
        <time>2019-08-18T07:01:42.000Z</time>
      </trkpt>
      <trkpt lat="43.16123" lon="2.37643">
        <ele>219.4</ele>
        <time>2019-08-18T07:01:43.000Z</time>
      </trkpt>
      <trkpt lat="43.16124" lon="2.37645">
        <ele>219.3</ele>
        <time>2019-08-18T07:01:44.000Z</time>
      </trkpt>
      <trkpt lat="43.16126" lon="2.37646">
        <ele>219.2</ele>
        <time>2019-08-18T07:01:45.000Z</time>
      </trkpt>
      <trkpt lat="43.16127" lon="2.37647">
        <ele>219.1</ele>
        <time>2019-08-18T07:01:46.000Z</time>
      </trkpt>
      <trkpt lat="43.16129" lon="2.37649">
        <ele>219</ele>
        <time>2019-08-18T07:01:47.000Z</time>
      </trkpt>
      <trkpt lat="43.1613" lon="2.37651">
        <ele>218.9</ele>
        <time>2019-08-18T07:01:48.000Z</time>
      </trkpt>
      <trkpt lat="43.16132" lon="2.37653">
        <ele>218.8</ele>
        <time>2019-08-18T07:01:49.000Z</time>
      </trkpt>
      <trkpt lat="43.16133" lon="2.37655">
        <ele>218.7</ele>
        <time>2019-08-18T07:01:50.000Z</time>
      </trkpt>
      <trkpt lat="43.16135" lon="2.37657">
        <ele>218.6</ele>
        <time>2019-08-18T07:01:51.000Z</time>
      </trkpt>
      <trkpt lat="43.16136" lon="2.37659">
        <ele>218.5</ele>
        <time>2019-08-18T07:01:52.000Z</time>
      </trkpt>
      <trkpt lat="43.16137" lon="2.3766">
        <ele>218.3</ele>
        <time>2019-08-18T07:01:53.000Z</time>
      </trkpt>
      <trkpt lat="43.16138" lon="2.37662">
        <ele>218.2</ele>
        <time>2019-08-18T07:01:54.000Z</time>
      </trkpt>
      <trkpt lat="43.16139" lon="2.37663">
        <ele>218.1</ele>
        <time>2019-08-18T07:01:55.000Z</time>
      </trkpt>
      <trkpt lat="43.1614" lon="2.37665">
        <ele>218</ele>
        <time>2019-08-18T07:01:56.000Z</time>
      </trkpt>
      <trkpt lat="43.16141" lon="2.37666">
        <ele>218</ele>
        <time>2019-08-18T07:01:57.000Z</time>
      </trkpt>
      <trkpt lat="43.16142" lon="2.37667">
        <ele>218</ele>
        <time>2019-08-18T07:01:58.000Z</time>
      </trkpt>
      <trkpt lat="43.16142" lon="2.37668">
        <ele>218.1</ele>
        <time>2019-08-18T07:01:59.000Z</time>
      </trkpt>
      <trkpt lat="43.16143" lon="2.37669">
        <ele>218.2</ele>
        <time>2019-08-18T07:02:00.000Z</time>
      </trkpt>
      <trkpt lat="43.16144" lon="2.3767">
        <ele>218.3</ele>
        <time>2019-08-18T07:02:01.000Z</time>
      </trkpt>
      <trkpt lat="43.16144" lon="2.37671">
        <ele>218.5</ele>
        <time>2019-08-18T07:02:02.000Z</time>
      </trkpt>
      <trkpt lat="43.16145" lon="2.37672">
        <ele>218.6</ele>
        <time>2019-08-18T07:02:03.000Z</time>
      </trkpt>
      <trkpt lat="43.16146" lon="2.37673">
        <ele>218.7</ele>
        <time>2019-08-18T07:02:04.000Z</time>
      </trkpt>
      <trkpt lat="43.16146" lon="2.37674">
        <ele>218.9</ele>
        <time>2019-08-18T07:02:05.000Z</time>
      </trkpt>
      <trkpt lat="43.16147" lon="2.37676">
        <ele>219.1</ele>
        <time>2019-08-18T07:02:06.000Z</time>
      </trkpt>
      <trkpt lat="43.16148" lon="2.37677">
        <ele>219.3</ele>
        <time>2019-08-18T07:02:07.000Z</time>
      </trkpt>
      <trkpt lat="43.16148" lon="2.37679">
        <ele>219.6</ele>
        <time>2019-08-18T07:02:08.000Z</time>
      </trkpt>
      <trkpt lat="43.16148" lon="2.37681">
        <ele>219.9</ele>
        <time>2019-08-18T07:02:09.000Z</time>
      </trkpt>
      <trkpt lat="43.16149" lon="2.37683">
        <ele>220.2</ele>
        <time>2019-08-18T07:02:10.000Z</time>
      </trkpt>
      <trkpt lat="43.16149" lon="2.37685">
        <ele>220.5</ele>
        <time>2019-08-18T07:02:11.000Z</time>
      </trkpt>
      <trkpt lat="43.16149" lon="2.37687">
        <ele>220.8</ele>
        <time>2019-08-18T07:02:12.000Z</time>
      </trkpt>
      <trkpt lat="43.1615" lon="2.37689">
        <ele>221.1</ele>
        <time>2019-08-18T07:02:13.000Z</time>
      </trkpt>
      <trkpt lat="43.1615" lon="2.37691">
        <ele>221.3</ele>
        <time>2019-08-18T07:02:14.000Z</time>
      </trkpt>
      <trkpt lat="43.1615" lon="2.37692">
        <ele>221.5</ele>
        <time>2019-08-18T07:02:15.000Z</time>
      </trkpt>
      <trkpt lat="43.1615" lon="2.37693">
        <ele>221.7</ele>
        <time>2019-08-18T07:02:16.000Z</time>
      </trkpt>
      <trkpt lat="43.1615" lon="2.37694">
        <ele>221.8</ele>
        <time>2019-08-18T07:02:17.000Z</time>
      </trkpt>
      <trkpt lat="43.1615" lon="2.37695">
        <ele>222</ele>
        <time>2019-08-18T07:02:18.000Z</time>
      </trkpt>
      <trkpt lat="43.1615" lon="2.37697">
        <ele>222.2</ele>
        <time>2019-08-18T07:02:19.000Z</time>
      </trkpt>
      <trkpt lat="43.1615" lon="2.37698">
        <ele>222.5</ele>
        <time>2019-08-18T07:02:20.000Z</time>
      </trkpt>
      <trkpt lat="43.1615" lon="2.377">
        <ele>222.7</ele>
        <time>2019-08-18T07:02:21.000Z</time>
      </trkpt>
      <trkpt lat="43.16151" lon="2.37701">
        <ele>222.9</ele>
        <time>2019-08-18T07:02:22.000Z</time>
      </trkpt>
      <trkpt lat="43.16152" lon="2.37703">
        <ele>223.1</ele>
        <time>2019-08-18T07:02:23.000Z</time>
      </trkpt>
      <trkpt lat="43.16153" lon="2.37704">
        <ele>223.2</ele>
        <time>2019-08-18T07:02:24.000Z</time>
      </trkpt>
      <trkpt lat="43.16154" lon="2.37705">
        <ele>223.4</ele>
        <time>2019-08-18T07:02:25.000Z</time>
      </trkpt>
      <trkpt lat="43.16154" lon="2.37706">
        <ele>223.5</ele>
        <time>2019-08-18T07:02:26.000Z</time>
      </trkpt>
      <trkpt lat="43.16155" lon="2.37707">
        <ele>223.6</ele>
        <time>2019-08-18T07:02:27.000Z</time>
      </trkpt>
      <trkpt lat="43.16156" lon="2.37708">
        <ele>223.7</ele>
        <time>2019-08-18T07:02:28.000Z</time>
      </trkpt>
      <trkpt lat="43.16157" lon="2.37708">
        <ele>223.8</ele>
        <time>2019-08-18T07:02:29.000Z</time>
      </trkpt>
      <trkpt lat="43.16158" lon="2.37709">
        <ele>223.8</ele>
        <time>2019-08-18T07:02:30.000Z</time>
      </trkpt>
      <trkpt lat="43.16159" lon="2.37709">
        <ele>223.8</ele>
        <time>2019-08-18T07:02:31.000Z</time>
      </trkpt>
      <trkpt lat="43.1616" lon="2.37709">
        <ele>223.8</ele>
        <time>2019-08-18T07:02:32.000Z</time>
      </trkpt>
      <trkpt lat="43.16161" lon="2.37709">
        <ele>223.7</ele>
        <time>2019-08-18T07:02:33.000Z</time>
      </trkpt>
      <trkpt lat="43.16162" lon="2.37709">
        <ele>223.7</ele>
        <time>2019-08-18T07:02:34.000Z</time>
      </trkpt>
      <trkpt lat="43.16164" lon="2.37708">
        <ele>223.6</ele>
        <time>2019-08-18T07:02:35.000Z</time>
      </trkpt>
      <trkpt lat="43.16165" lon="2.37708">
        <ele>223.5</ele>
        <time>2019-08-18T07:02:36.000Z</time>
      </trkpt>
      <trkpt lat="43.16167" lon="2.37707">
        <ele>223.4</ele>
        <time>2019-08-18T07:02:37.000Z</time>
      </trkpt>
      <trkpt lat="43.16168" lon="2.37707">
        <ele>223.2</ele>
        <time>2019-08-18T07:02:38.000Z</time>
      </trkpt>
      <trkpt lat="43.1617" lon="2.37707">
        <ele>223</ele>
        <time>2019-08-18T07:02:39.000Z</time>
      </trkpt>
      <trkpt lat="43.16172" lon="2.37706">
        <ele>222.8</ele>
        <time>2019-08-18T07:02:40.000Z</time>
      </trkpt>
      <trkpt lat="43.16173" lon="2.37706">
        <ele>222.7</ele>
        <time>2019-08-18T07:02:41.000Z</time>
      </trkpt>
      <trkpt lat="43.16175" lon="2.37705">
        <ele>222.5</ele>
        <time>2019-08-18T07:02:42.000Z</time>
      </trkpt>
      <trkpt lat="43.16177" lon="2.37705">
        <ele>222.4</ele>
        <time>2019-08-18T07:02:43.000Z</time>
      </trkpt>
      <trkpt lat="43.16178" lon="2.37705">
        <ele>222.2</ele>
        <time>2019-08-18T07:02:44.000Z</time>
      </trkpt>
      <trkpt lat="43.1618" lon="2.37704">
        <ele>222.1</ele>
        <time>2019-08-18T07:02:45.000Z</time>
      </trkpt>
      <trkpt lat="43.16182" lon="2.37704">
        <ele>222</ele>
        <time>2019-08-18T07:02:46.000Z</time>
      </trkpt>
      <trkpt lat="43.16184" lon="2.37704">
        <ele>221.8</ele>
        <time>2019-08-18T07:02:47.000Z</time>
      </trkpt>
      <trkpt lat="43.16185" lon="2.37704">
        <ele>221.7</ele>
        <time>2019-08-18T07:02:48.000Z</time>
      </trkpt>
      <trkpt lat="43.16187" lon="2.37703">
        <ele>221.5</ele>
        <time>2019-08-18T07:02:49.000Z</time>
      </trkpt>
      <trkpt lat="43.16189" lon="2.37703">
        <ele>221.4</ele>
        <time>2019-08-18T07:02:50.000Z</time>
      </trkpt>
      <trkpt lat="43.16191" lon="2.37703">
        <ele>221.2</ele>
        <time>2019-08-18T07:02:51.000Z</time>
      </trkpt>
      <trkpt lat="43.16193" lon="2.37702">
        <ele>221.1</ele>
        <time>2019-08-18T07:02:52.000Z</time>
      </trkpt>
      <trkpt lat="43.16194" lon="2.37702">
        <ele>220.9</ele>
        <time>2019-08-18T07:02:53.000Z</time>
      </trkpt>
      <trkpt lat="43.16196" lon="2.37701">
        <ele>220.7</ele>
        <time>2019-08-18T07:02:54.000Z</time>
      </trkpt>
      <trkpt lat="43.16198" lon="2.377">
        <ele>220.5</ele>
        <time>2019-08-18T07:02:55.000Z</time>
      </trkpt>
      <trkpt lat="43.162" lon="2.37699">
        <ele>220.2</ele>
        <time>2019-08-18T07:02:56.000Z</time>
      </trkpt>
      <trkpt lat="43.16202" lon="2.37698">
        <ele>220</ele>
        <time>2019-08-18T07:02:57.000Z</time>
      </trkpt>
      <trkpt lat="43.16204" lon="2.37697">
        <ele>219.7</ele>
        <time>2019-08-18T07:02:58.000Z</time>
      </trkpt>
      <trkpt lat="43.16206" lon="2.37695">
        <ele>219.4</ele>
        <time>2019-08-18T07:02:59.000Z</time>
      </trkpt>
      <trkpt lat="43.16207" lon="2.37694">
        <ele>219.1</ele>
        <time>2019-08-18T07:03:00.000Z</time>
      </trkpt>
      <trkpt lat="43.16209" lon="2.37692">
        <ele>218.8</ele>
        <time>2019-08-18T07:03:01.000Z</time>
      </trkpt>
      <trkpt lat="43.16211" lon="2.37691">
        <ele>218.5</ele>
        <time>2019-08-18T07:03:02.000Z</time>
      </trkpt>
      <trkpt lat="43.16213" lon="2.3769">
        <ele>218.3</ele>
        <time>2019-08-18T07:03:03.000Z</time>
      </trkpt>
      <trkpt lat="43.16215" lon="2.37689">
        <ele>218.1</ele>
        <time>2019-08-18T07:03:04.000Z</time>
      </trkpt>
      <trkpt lat="43.16217" lon="2.37688">
        <ele>217.9</ele>
        <time>2019-08-18T07:03:05.000Z</time>
      </trkpt>
      <trkpt lat="43.16219" lon="2.37687">
        <ele>217.7</ele>
        <time>2019-08-18T07:03:06.000Z</time>
      </trkpt>
      <trkpt lat="43.16221" lon="2.37687">
        <ele>217.5</ele>
        <time>2019-08-18T07:03:07.000Z</time>
      </trkpt>
      <trkpt lat="43.16223" lon="2.37686">
        <ele>217.3</ele>
        <time>2019-08-18T07:03:08.000Z</time>
      </trkpt>
      <trkpt lat="43.16225" lon="2.37685">
        <ele>217.2</ele>
        <time>2019-08-18T07:03:09.000Z</time>
      </trkpt>
      <trkpt lat="43.16228" lon="2.37685">
        <ele>217</ele>
        <time>2019-08-18T07:03:10.000Z</time>
      </trkpt>
      <trkpt lat="43.1623" lon="2.37684">
        <ele>216.8</ele>
        <time>2019-08-18T07:03:11.000Z</time>
      </trkpt>
      <trkpt lat="43.16232" lon="2.37684">
        <ele>216.7</ele>
        <time>2019-08-18T07:03:12.000Z</time>
      </trkpt>
      <trkpt lat="43.16233" lon="2.37683">
        <ele>216.5</ele>
        <time>2019-08-18T07:03:13.000Z</time>
      </trkpt>
      <trkpt lat="43.16235" lon="2.37682">
        <ele>216.3</ele>
        <time>2019-08-18T07:03:14.000Z</time>
      </trkpt>
      <trkpt lat="43.16237" lon="2.37681">
        <ele>216.1</ele>
        <time>2019-08-18T07:03:15.000Z</time>
      </trkpt>
      <trkpt lat="43.16239" lon="2.3768">
        <ele>215.9</ele>
        <time>2019-08-18T07:03:16.000Z</time>
      </trkpt>
      <trkpt lat="43.16241" lon="2.3768">
        <ele>215.8</ele>
        <time>2019-08-18T07:03:17.000Z</time>
      </trkpt>
      <trkpt lat="43.16243" lon="2.37679">
        <ele>215.6</ele>
        <time>2019-08-18T07:03:18.000Z</time>
      </trkpt>
      <trkpt lat="43.16245" lon="2.37678">
        <ele>215.4</ele>
        <time>2019-08-18T07:03:19.000Z</time>
      </trkpt>
      <trkpt lat="43.16247" lon="2.37677">
        <ele>215.3</ele>
        <time>2019-08-18T07:03:20.000Z</time>
      </trkpt>
      <trkpt lat="43.16249" lon="2.37677">
        <ele>215.1</ele>
        <time>2019-08-18T07:03:21.000Z</time>
      </trkpt>
      <trkpt lat="43.16251" lon="2.37677">
        <ele>214.9</ele>
        <time>2019-08-18T07:03:22.000Z</time>
      </trkpt>
      <trkpt lat="43.16253" lon="2.37676">
        <ele>214.7</ele>
        <time>2019-08-18T07:03:23.000Z</time>
      </trkpt>
      <trkpt lat="43.16255" lon="2.37676">
        <ele>214.4</ele>
        <time>2019-08-18T07:03:24.000Z</time>
      </trkpt>
      <trkpt lat="43.16257" lon="2.37676">
        <ele>214.2</ele>
        <time>2019-08-18T07:03:25.000Z</time>
      </trkpt>
      <trkpt lat="43.16259" lon="2.37676">
        <ele>214</ele>
        <time>2019-08-18T07:03:26.000Z</time>
      </trkpt>
      <trkpt lat="43.16261" lon="2.37676">
        <ele>213.8</ele>
        <time>2019-08-18T07:03:27.000Z</time>
      </trkpt>
      <trkpt lat="43.16263" lon="2.37677">
        <ele>213.6</ele>
        <time>2019-08-18T07:03:28.000Z</time>
      </trkpt>
      <trkpt lat="43.16265" lon="2.37677">
        <ele>213.5</ele>
        <time>2019-08-18T07:03:29.000Z</time>
      </trkpt>
      <trkpt lat="43.16267" lon="2.37678">
        <ele>213.3</ele>
        <time>2019-08-18T07:03:30.000Z</time>
      </trkpt>
      <trkpt lat="43.16269" lon="2.37678">
        <ele>213.2</ele>
        <time>2019-08-18T07:03:31.000Z</time>
      </trkpt>
      <trkpt lat="43.16271" lon="2.37679">
        <ele>213.1</ele>
        <time>2019-08-18T07:03:32.000Z</time>
      </trkpt>
      <trkpt lat="43.16273" lon="2.3768">
        <ele>212.9</ele>
        <time>2019-08-18T07:03:33.000Z</time>
      </trkpt>
      <trkpt lat="43.16275" lon="2.3768">
        <ele>212.8</ele>
        <time>2019-08-18T07:03:34.000Z</time>
      </trkpt>
      <trkpt lat="43.16277" lon="2.37681">
        <ele>212.7</ele>
        <time>2019-08-18T07:03:35.000Z</time>
      </trkpt>
      <trkpt lat="43.16279" lon="2.37682">
        <ele>212.5</ele>
        <time>2019-08-18T07:03:36.000Z</time>
      </trkpt>
      <trkpt lat="43.16281" lon="2.37682">
        <ele>212.4</ele>
        <time>2019-08-18T07:03:37.000Z</time>
      </trkpt>
      <trkpt lat="43.16283" lon="2.37683">
        <ele>212.2</ele>
        <time>2019-08-18T07:03:38.000Z</time>
      </trkpt>
      <trkpt lat="43.16285" lon="2.37683">
        <ele>212</ele>
        <time>2019-08-18T07:03:39.000Z</time>
      </trkpt>
      <trkpt lat="43.16287" lon="2.37683">
        <ele>211.8</ele>
        <time>2019-08-18T07:03:40.000Z</time>
      </trkpt>
      <trkpt lat="43.16289" lon="2.37683">
        <ele>211.6</ele>
        <time>2019-08-18T07:03:41.000Z</time>
      </trkpt>
      <trkpt lat="43.16291" lon="2.37684">
        <ele>211.4</ele>
        <time>2019-08-18T07:03:42.000Z</time>
      </trkpt>
      <trkpt lat="43.16293" lon="2.37684">
        <ele>211.2</ele>
        <time>2019-08-18T07:03:43.000Z</time>
      </trkpt>
      <trkpt lat="43.16295" lon="2.37684">
        <ele>211</ele>
        <time>2019-08-18T07:03:44.000Z</time>
      </trkpt>
      <trkpt lat="43.16297" lon="2.37684">
        <ele>210.8</ele>
        <time>2019-08-18T07:03:45.000Z</time>
      </trkpt>
      <trkpt lat="43.16299" lon="2.37684">
        <ele>210.6</ele>
        <time>2019-08-18T07:03:46.000Z</time>
      </trkpt>
      <trkpt lat="43.16301" lon="2.37685">
        <ele>210.5</ele>
        <time>2019-08-18T07:03:47.000Z</time>
      </trkpt>
      <trkpt lat="43.16303" lon="2.37686">
        <ele>210.3</ele>
        <time>2019-08-18T07:03:48.000Z</time>
      </trkpt>
      <trkpt lat="43.16305" lon="2.37686">
        <ele>210.2</ele>
        <time>2019-08-18T07:03:49.000Z</time>
      </trkpt>
      <trkpt lat="43.16307" lon="2.37688">
        <ele>210.1</ele>
        <time>2019-08-18T07:03:50.000Z</time>
      </trkpt>
      <trkpt lat="43.16309" lon="2.37689">
        <ele>210.1</ele>
        <time>2019-08-18T07:03:51.000Z</time>
      </trkpt>
      <trkpt lat="43.1631" lon="2.37691">
        <ele>210.1</ele>
        <time>2019-08-18T07:03:52.000Z</time>
      </trkpt>
      <trkpt lat="43.16312" lon="2.37693">
        <ele>210.2</ele>
        <time>2019-08-18T07:03:53.000Z</time>
      </trkpt>
      <trkpt lat="43.16313" lon="2.37696">
        <ele>210.4</ele>
        <time>2019-08-18T07:03:54.000Z</time>
      </trkpt>
      <trkpt lat="43.16314" lon="2.37699">
        <ele>210.6</ele>
        <time>2019-08-18T07:03:55.000Z</time>
      </trkpt>
      <trkpt lat="43.16315" lon="2.37702">
        <ele>210.9</ele>
        <time>2019-08-18T07:03:56.000Z</time>
      </trkpt>
      <trkpt lat="43.16316" lon="2.37706">
        <ele>211.1</ele>
        <time>2019-08-18T07:03:57.000Z</time>
      </trkpt>
      <trkpt lat="43.16317" lon="2.37708">
        <ele>211.3</ele>
        <time>2019-08-18T07:03:58.000Z</time>
      </trkpt>
      <trkpt lat="43.16318" lon="2.37711">
        <ele>211.5</ele>
        <time>2019-08-18T07:03:59.000Z</time>
      </trkpt>
      <trkpt lat="43.16319" lon="2.37713">
        <ele>211.6</ele>
        <time>2019-08-18T07:04:00.000Z</time>
      </trkpt>
      <trkpt lat="43.1632" lon="2.37714">
        <ele>211.6</ele>
        <time>2019-08-18T07:04:01.000Z</time>
      </trkpt>
      <trkpt lat="43.16321" lon="2.37715">
        <ele>211.6</ele>
        <time>2019-08-18T07:04:02.000Z</time>
      </trkpt>
      <trkpt lat="43.16322" lon="2.37716">
        <ele>211.5</ele>
        <time>2019-08-18T07:04:03.000Z</time>
      </trkpt>
      <trkpt lat="43.16323" lon="2.37716">
        <ele>211.5</ele>
        <time>2019-08-18T07:04:04.000Z</time>
      </trkpt>
      <trkpt lat="43.16324" lon="2.37717">
        <ele>211.4</ele>
        <time>2019-08-18T07:04:05.000Z</time>
      </trkpt>
      <trkpt lat="43.16325" lon="2.37718">
        <ele>211.4</ele>
        <time>2019-08-18T07:04:06.000Z</time>
      </trkpt>
      <trkpt lat="43.16326" lon="2.3772">
        <ele>211.5</ele>
        <time>2019-08-18T07:04:07.000Z</time>
      </trkpt>
      <trkpt lat="43.16327" lon="2.37721">
        <ele>211.5</ele>
        <time>2019-08-18T07:04:08.000Z</time>
      </trkpt>
      <trkpt lat="43.16329" lon="2.37723">
        <ele>211.6</ele>
        <time>2019-08-18T07:04:09.000Z</time>
      </trkpt>
      <trkpt lat="43.1633" lon="2.37724">
        <ele>211.6</ele>
        <time>2019-08-18T07:04:10.000Z</time>
      </trkpt>
      <trkpt lat="43.16331" lon="2.37725">
        <ele>211.5</ele>
        <time>2019-08-18T07:04:11.000Z</time>
      </trkpt>
      <trkpt lat="43.16333" lon="2.37725">
        <ele>211.4</ele>
        <time>2019-08-18T07:04:12.000Z</time>
      </trkpt>
      <trkpt lat="43.16334" lon="2.37725">
        <ele>211.3</ele>
        <time>2019-08-18T07:04:13.000Z</time>
      </trkpt>
      <trkpt lat="43.16335" lon="2.37724">
        <ele>211.2</ele>
        <time>2019-08-18T07:04:14.000Z</time>
      </trkpt>
      <trkpt lat="43.16337" lon="2.37723">
        <ele>211.2</ele>
        <time>2019-08-18T07:04:15.000Z</time>
      </trkpt>
      <trkpt lat="43.16338" lon="2.37723">
        <ele>211.1</ele>
        <time>2019-08-18T07:04:16.000Z</time>
      </trkpt>
      <trkpt lat="43.16339" lon="2.37722">
        <ele>211.1</ele>
        <time>2019-08-18T07:04:17.000Z</time>
      </trkpt>
      <trkpt lat="43.1634" lon="2.37722">
        <ele>211.1</ele>
        <time>2019-08-18T07:04:18.000Z</time>
      </trkpt>
      <trkpt lat="43.16341" lon="2.37722">
        <ele>211.1</ele>
        <time>2019-08-18T07:04:19.000Z</time>
      </trkpt>
      <trkpt lat="43.16343" lon="2.37722">
        <ele>211.2</ele>
        <time>2019-08-18T07:04:20.000Z</time>
      </trkpt>
      <trkpt lat="43.16344" lon="2.37722">
        <ele>211.2</ele>
        <time>2019-08-18T07:04:21.000Z</time>
      </trkpt>
      <trkpt lat="43.16346" lon="2.37722">
        <ele>211.3</ele>
        <time>2019-08-18T07:04:22.000Z</time>
      </trkpt>
      <trkpt lat="43.16348" lon="2.37722">
        <ele>211.3</ele>
        <time>2019-08-18T07:04:23.000Z</time>
      </trkpt>
      <trkpt lat="43.16349" lon="2.37722">
        <ele>211.2</ele>
        <time>2019-08-18T07:04:24.000Z</time>
      </trkpt>
      <trkpt lat="43.16351" lon="2.37721">
        <ele>211.2</ele>
        <time>2019-08-18T07:04:25.000Z</time>
      </trkpt>
      <trkpt lat="43.16353" lon="2.3772">
        <ele>211.1</ele>
        <time>2019-08-18T07:04:26.000Z</time>
      </trkpt>
      <trkpt lat="43.16354" lon="2.37719">
        <ele>211.1</ele>
        <time>2019-08-18T07:04:27.000Z</time>
      </trkpt>
      <trkpt lat="43.16356" lon="2.37718">
        <ele>211</ele>
        <time>2019-08-18T07:04:28.000Z</time>
      </trkpt>
      <trkpt lat="43.16358" lon="2.37717">
        <ele>210.9</ele>
        <time>2019-08-18T07:04:29.000Z</time>
      </trkpt>
      <trkpt lat="43.16359" lon="2.37716">
        <ele>210.8</ele>
        <time>2019-08-18T07:04:30.000Z</time>
      </trkpt>
      <trkpt lat="43.16361" lon="2.37715">
        <ele>210.7</ele>
        <time>2019-08-18T07:04:31.000Z</time>
      </trkpt>
      <trkpt lat="43.16363" lon="2.37713">
        <ele>210.6</ele>
        <time>2019-08-18T07:04:32.000Z</time>
      </trkpt>
      <trkpt lat="43.16364" lon="2.37712">
        <ele>210.5</ele>
        <time>2019-08-18T07:04:33.000Z</time>
      </trkpt>
      <trkpt lat="43.16366" lon="2.37711">
        <ele>210.4</ele>
        <time>2019-08-18T07:04:34.000Z</time>
      </trkpt>
      <trkpt lat="43.16368" lon="2.3771">
        <ele>210.3</ele>
        <time>2019-08-18T07:04:35.000Z</time>
      </trkpt>
      <trkpt lat="43.16369" lon="2.37709">
        <ele>210.2</ele>
        <time>2019-08-18T07:04:36.000Z</time>
      </trkpt>
      <trkpt lat="43.16371" lon="2.37708">
        <ele>210.2</ele>
        <time>2019-08-18T07:04:37.000Z</time>
      </trkpt>
      <trkpt lat="43.16373" lon="2.37708">
        <ele>210.1</ele>
        <time>2019-08-18T07:04:38.000Z</time>
      </trkpt>
      <trkpt lat="43.16374" lon="2.37707">
        <ele>210.1</ele>
        <time>2019-08-18T07:04:39.000Z</time>
      </trkpt>
      <trkpt lat="43.16376" lon="2.37707">
        <ele>210.1</ele>
        <time>2019-08-18T07:04:40.000Z</time>
      </trkpt>
      <trkpt lat="43.16377" lon="2.37706">
        <ele>210</ele>
        <time>2019-08-18T07:04:41.000Z</time>
      </trkpt>
      <trkpt lat="43.16379" lon="2.37706">
        <ele>210</ele>
        <time>2019-08-18T07:04:42.000Z</time>
      </trkpt>
      <trkpt lat="43.1638" lon="2.37706">
        <ele>210</ele>
        <time>2019-08-18T07:04:43.000Z</time>
      </trkpt>
      <trkpt lat="43.16382" lon="2.37706">
        <ele>210.1</ele>
        <time>2019-08-18T07:04:44.000Z</time>
      </trkpt>
      <trkpt lat="43.16383" lon="2.37706">
        <ele>210.1</ele>
        <time>2019-08-18T07:04:45.000Z</time>
      </trkpt>
      <trkpt lat="43.16384" lon="2.37706">
        <ele>210.1</ele>
        <time>2019-08-18T07:04:46.000Z</time>
      </trkpt>
      <trkpt lat="43.16386" lon="2.37706">
        <ele>210.2</ele>
        <time>2019-08-18T07:04:47.000Z</time>
      </trkpt>
      <trkpt lat="43.16387" lon="2.37706">
        <ele>210.2</ele>
        <time>2019-08-18T07:04:48.000Z</time>
      </trkpt>
      <trkpt lat="43.16389" lon="2.37706">
        <ele>210.2</ele>
        <time>2019-08-18T07:04:49.000Z</time>
      </trkpt>
      <trkpt lat="43.1639" lon="2.37706">
        <ele>210.3</ele>
        <time>2019-08-18T07:04:50.000Z</time>
      </trkpt>
      <trkpt lat="43.16391" lon="2.37707">
        <ele>210.3</ele>
        <time>2019-08-18T07:04:51.000Z</time>
      </trkpt>
      <trkpt lat="43.16393" lon="2.37707">
        <ele>210.4</ele>
        <time>2019-08-18T07:04:52.000Z</time>
      </trkpt>
      <trkpt lat="43.16394" lon="2.37706">
        <ele>210.4</ele>
        <time>2019-08-18T07:04:53.000Z</time>
      </trkpt>
      <trkpt lat="43.16396" lon="2.37706">
        <ele>210.3</ele>
        <time>2019-08-18T07:04:54.000Z</time>
      </trkpt>
      <trkpt lat="43.16398" lon="2.37705">
        <ele>210.3</ele>
        <time>2019-08-18T07:04:55.000Z</time>
      </trkpt>
      <trkpt lat="43.16399" lon="2.37705">
        <ele>210.2</ele>
        <time>2019-08-18T07:04:56.000Z</time>
      </trkpt>
      <trkpt lat="43.16401" lon="2.37704">
        <ele>210.2</ele>
        <time>2019-08-18T07:04:57.000Z</time>
      </trkpt>
      <trkpt lat="43.16402" lon="2.37703">
        <ele>210.1</ele>
        <time>2019-08-18T07:04:58.000Z</time>
      </trkpt>
      <trkpt lat="43.16403" lon="2.37703">
        <ele>210.1</ele>
        <time>2019-08-18T07:04:59.000Z</time>
      </trkpt>
      <trkpt lat="43.16404" lon="2.37702">
        <ele>210.1</ele>
        <time>2019-08-18T07:05:00.000Z</time>
      </trkpt>
      <trkpt lat="43.16405" lon="2.37703">
        <ele>210.1</ele>
        <time>2019-08-18T07:05:01.000Z</time>
      </trkpt>
      <trkpt lat="43.16406" lon="2.37703">
        <ele>210.2</ele>
        <time>2019-08-18T07:05:02.000Z</time>
      </trkpt>
      <trkpt lat="43.16407" lon="2.37704">
        <ele>210.3</ele>
        <time>2019-08-18T07:05:03.000Z</time>
      </trkpt>
      <trkpt lat="43.16408" lon="2.37705">
        <ele>210.4</ele>
        <time>2019-08-18T07:05:04.000Z</time>
      </trkpt>
      <trkpt lat="43.16409" lon="2.37706">
        <ele>210.6</ele>
        <time>2019-08-18T07:05:05.000Z</time>
      </trkpt>
      <trkpt lat="43.1641" lon="2.37707">
        <ele>210.8</ele>
        <time>2019-08-18T07:05:06.000Z</time>
      </trkpt>
      <trkpt lat="43.16412" lon="2.37709">
        <ele>211</ele>
        <time>2019-08-18T07:05:07.000Z</time>
      </trkpt>
      <trkpt lat="43.16413" lon="2.37711">
        <ele>211.2</ele>
        <time>2019-08-18T07:05:08.000Z</time>
      </trkpt>
      <trkpt lat="43.16415" lon="2.37712">
        <ele>211.5</ele>
        <time>2019-08-18T07:05:09.000Z</time>
      </trkpt>
      <trkpt lat="43.16416" lon="2.37714">
        <ele>211.7</ele>
        <time>2019-08-18T07:05:10.000Z</time>
      </trkpt>
      <trkpt lat="43.16418" lon="2.37716">
        <ele>211.9</ele>
        <time>2019-08-18T07:05:11.000Z</time>
      </trkpt>
      <trkpt lat="43.16419" lon="2.37719">
        <ele>212.2</ele>
        <time>2019-08-18T07:05:12.000Z</time>
      </trkpt>
      <trkpt lat="43.1642" lon="2.37721">
        <ele>212.4</ele>
        <time>2019-08-18T07:05:13.000Z</time>
      </trkpt>
      <trkpt lat="43.16422" lon="2.37723">
        <ele>212.6</ele>
        <time>2019-08-18T07:05:14.000Z</time>
      </trkpt>
      <trkpt lat="43.16423" lon="2.37725">
        <ele>212.8</ele>
        <time>2019-08-18T07:05:15.000Z</time>
      </trkpt>
      <trkpt lat="43.16423" lon="2.37726">
        <ele>213</ele>
        <time>2019-08-18T07:05:16.000Z</time>
      </trkpt>
      <trkpt lat="43.16424" lon="2.37728">
        <ele>213.2</ele>
        <time>2019-08-18T07:05:17.000Z</time>
      </trkpt>
      <trkpt lat="43.16425" lon="2.37729">
        <ele>213.3</ele>
        <time>2019-08-18T07:05:18.000Z</time>
      </trkpt>
      <trkpt lat="43.16425" lon="2.37731">
        <ele>213.5</ele>
        <time>2019-08-18T07:05:19.000Z</time>
      </trkpt>
      <trkpt lat="43.16425" lon="2.37732">
        <ele>213.7</ele>
        <time>2019-08-18T07:05:20.000Z</time>
      </trkpt>
      <trkpt lat="43.16426" lon="2.37734">
        <ele>213.9</ele>
        <time>2019-08-18T07:05:21.000Z</time>
      </trkpt>
      <trkpt lat="43.16427" lon="2.37736">
        <ele>214.1</ele>
        <time>2019-08-18T07:05:22.000Z</time>
      </trkpt>
      <trkpt lat="43.16427" lon="2.37738">
        <ele>214.4</ele>
        <time>2019-08-18T07:05:23.000Z</time>
      </trkpt>
      <trkpt lat="43.16428" lon="2.37741">
        <ele>214.6</ele>
        <time>2019-08-18T07:05:24.000Z</time>
      </trkpt>
      <trkpt lat="43.16429" lon="2.37743">
        <ele>214.9</ele>
        <time>2019-08-18T07:05:25.000Z</time>
      </trkpt>
      <trkpt lat="43.1643" lon="2.37745">
        <ele>215.1</ele>
        <time>2019-08-18T07:05:26.000Z</time>
      </trkpt>
      <trkpt lat="43.16432" lon="2.37748">
        <ele>215.4</ele>
        <time>2019-08-18T07:05:27.000Z</time>
      </trkpt>
      <trkpt lat="43.16433" lon="2.37751">
        <ele>215.6</ele>
        <time>2019-08-18T07:05:28.000Z</time>
      </trkpt>
      <trkpt lat="43.16435" lon="2.37753">
        <ele>215.7</ele>
        <time>2019-08-18T07:05:29.000Z</time>
      </trkpt>
      <trkpt lat="43.16436" lon="2.37756">
        <ele>215.8</ele>
        <time>2019-08-18T07:05:30.000Z</time>
      </trkpt>
      <trkpt lat="43.16438" lon="2.37759">
        <ele>215.8</ele>
        <time>2019-08-18T07:05:31.000Z</time>
      </trkpt>
      <trkpt lat="43.1644" lon="2.37761">
        <ele>215.9</ele>
        <time>2019-08-18T07:05:32.000Z</time>
      </trkpt>
      <trkpt lat="43.16442" lon="2.37764">
        <ele>215.9</ele>
        <time>2019-08-18T07:05:33.000Z</time>
      </trkpt>
      <trkpt lat="43.16443" lon="2.37766">
        <ele>215.9</ele>
        <time>2019-08-18T07:05:34.000Z</time>
      </trkpt>
      <trkpt lat="43.16445" lon="2.37768">
        <ele>215.9</ele>
        <time>2019-08-18T07:05:35.000Z</time>
      </trkpt>
      <trkpt lat="43.16446" lon="2.3777">
        <ele>215.9</ele>
        <time>2019-08-18T07:05:36.000Z</time>
      </trkpt>
      <trkpt lat="43.16448" lon="2.37772">
        <ele>215.9</ele>
        <time>2019-08-18T07:05:37.000Z</time>
      </trkpt>
      <trkpt lat="43.16449" lon="2.37774">
        <ele>215.9</ele>
        <time>2019-08-18T07:05:38.000Z</time>
      </trkpt>
      <trkpt lat="43.16451" lon="2.37776">
        <ele>215.9</ele>
        <time>2019-08-18T07:05:39.000Z</time>
      </trkpt>
      <trkpt lat="43.16452" lon="2.37778">
        <ele>215.8</ele>
        <time>2019-08-18T07:05:40.000Z</time>
      </trkpt>
      <trkpt lat="43.16454" lon="2.3778">
        <ele>215.8</ele>
        <time>2019-08-18T07:05:41.000Z</time>
      </trkpt>
      <trkpt lat="43.16455" lon="2.37782">
        <ele>215.8</ele>
        <time>2019-08-18T07:05:42.000Z</time>
      </trkpt>
      <trkpt lat="43.16457" lon="2.37784">
        <ele>215.7</ele>
        <time>2019-08-18T07:05:43.000Z</time>
      </trkpt>
      <trkpt lat="43.16458" lon="2.37786">
        <ele>215.7</ele>
        <time>2019-08-18T07:05:44.000Z</time>
      </trkpt>
      <trkpt lat="43.1646" lon="2.37788">
        <ele>215.6</ele>
        <time>2019-08-18T07:05:45.000Z</time>
      </trkpt>
      <trkpt lat="43.16461" lon="2.3779">
        <ele>215.6</ele>
        <time>2019-08-18T07:05:46.000Z</time>
      </trkpt>
      <trkpt lat="43.16462" lon="2.37792">
        <ele>215.5</ele>
        <time>2019-08-18T07:05:47.000Z</time>
      </trkpt>
      <trkpt lat="43.16464" lon="2.37795">
        <ele>215.4</ele>
        <time>2019-08-18T07:05:48.000Z</time>
      </trkpt>
      <trkpt lat="43.16465" lon="2.37797">
        <ele>215.4</ele>
        <time>2019-08-18T07:05:49.000Z</time>
      </trkpt>
      <trkpt lat="43.16467" lon="2.37799">
        <ele>215.3</ele>
        <time>2019-08-18T07:05:50.000Z</time>
      </trkpt>
      <trkpt lat="43.16468" lon="2.37801">
        <ele>215.2</ele>
        <time>2019-08-18T07:05:51.000Z</time>
      </trkpt>
      <trkpt lat="43.1647" lon="2.37803">
        <ele>215.1</ele>
        <time>2019-08-18T07:05:52.000Z</time>
      </trkpt>
      <trkpt lat="43.16471" lon="2.37805">
        <ele>215</ele>
        <time>2019-08-18T07:05:53.000Z</time>
      </trkpt>
      <trkpt lat="43.16472" lon="2.37808">
        <ele>214.9</ele>
        <time>2019-08-18T07:05:54.000Z</time>
      </trkpt>
      <trkpt lat="43.16474" lon="2.37809">
        <ele>214.8</ele>
        <time>2019-08-18T07:05:55.000Z</time>
      </trkpt>
      <trkpt lat="43.16475" lon="2.37811">
        <ele>214.6</ele>
        <time>2019-08-18T07:05:56.000Z</time>
      </trkpt>
      <trkpt lat="43.16477" lon="2.37813">
        <ele>214.5</ele>
        <time>2019-08-18T07:05:57.000Z</time>
      </trkpt>
      <trkpt lat="43.16478" lon="2.37814">
        <ele>214.4</ele>
        <time>2019-08-18T07:05:58.000Z</time>
      </trkpt>
      <trkpt lat="43.1648" lon="2.37816">
        <ele>214.2</ele>
        <time>2019-08-18T07:05:59.000Z</time>
      </trkpt>
      <trkpt lat="43.16482" lon="2.37817">
        <ele>214.1</ele>
        <time>2019-08-18T07:06:00.000Z</time>
      </trkpt>
      <trkpt lat="43.16484" lon="2.37817">
        <ele>213.9</ele>
        <time>2019-08-18T07:06:01.000Z</time>
      </trkpt>
      <trkpt lat="43.16486" lon="2.37818">
        <ele>213.7</ele>
        <time>2019-08-18T07:06:02.000Z</time>
      </trkpt>
      <trkpt lat="43.16488" lon="2.37818">
        <ele>213.5</ele>
        <time>2019-08-18T07:06:03.000Z</time>
      </trkpt>
      <trkpt lat="43.1649" lon="2.37819">
        <ele>213.3</ele>
        <time>2019-08-18T07:06:04.000Z</time>
      </trkpt>
      <trkpt lat="43.16492" lon="2.37819">
        <ele>213.1</ele>
        <time>2019-08-18T07:06:05.000Z</time>
      </trkpt>
      <trkpt lat="43.16494" lon="2.37819">
        <ele>212.9</ele>
        <time>2019-08-18T07:06:06.000Z</time>
      </trkpt>
      <trkpt lat="43.16497" lon="2.3782">
        <ele>212.6</ele>
        <time>2019-08-18T07:06:07.000Z</time>
      </trkpt>
      <trkpt lat="43.16499" lon="2.3782">
        <ele>212.4</ele>
        <time>2019-08-18T07:06:08.000Z</time>
      </trkpt>
      <trkpt lat="43.16502" lon="2.37821">
        <ele>212.1</ele>
        <time>2019-08-18T07:06:09.000Z</time>
      </trkpt>
      <trkpt lat="43.16505" lon="2.37821">
        <ele>211.8</ele>
        <time>2019-08-18T07:06:10.000Z</time>
      </trkpt>
      <trkpt lat="43.16507" lon="2.37822">
        <ele>211.5</ele>
        <time>2019-08-18T07:06:11.000Z</time>
      </trkpt>
      <trkpt lat="43.1651" lon="2.37822">
        <ele>211.3</ele>
        <time>2019-08-18T07:06:12.000Z</time>
      </trkpt>
      <trkpt lat="43.16513" lon="2.37823">
        <ele>210.9</ele>
        <time>2019-08-18T07:06:13.000Z</time>
      </trkpt>
      <trkpt lat="43.16516" lon="2.37823">
        <ele>210.6</ele>
        <time>2019-08-18T07:06:14.000Z</time>
      </trkpt>
      <trkpt lat="43.16519" lon="2.37824">
        <ele>210.3</ele>
        <time>2019-08-18T07:06:15.000Z</time>
      </trkpt>
      <trkpt lat="43.16522" lon="2.37824">
        <ele>210</ele>
        <time>2019-08-18T07:06:16.000Z</time>
      </trkpt>
      <trkpt lat="43.16524" lon="2.37824">
        <ele>209.8</ele>
        <time>2019-08-18T07:06:17.000Z</time>
      </trkpt>
      <trkpt lat="43.16527" lon="2.37824">
        <ele>209.5</ele>
        <time>2019-08-18T07:06:18.000Z</time>
      </trkpt>
      <trkpt lat="43.1653" lon="2.37824">
        <ele>209.2</ele>
        <time>2019-08-18T07:06:19.000Z</time>
      </trkpt>
      <trkpt lat="43.16533" lon="2.37824">
        <ele>208.9</ele>
        <time>2019-08-18T07:06:20.000Z</time>
      </trkpt>
      <trkpt lat="43.16536" lon="2.37824">
        <ele>208.7</ele>
        <time>2019-08-18T07:06:21.000Z</time>
      </trkpt>
      <trkpt lat="43.16538" lon="2.37823">
        <ele>208.4</ele>
        <time>2019-08-18T07:06:22.000Z</time>
      </trkpt>
      <trkpt lat="43.16541" lon="2.37823">
        <ele>208.1</ele>
        <time>2019-08-18T07:06:23.000Z</time>
      </trkpt>
      <trkpt lat="43.16544" lon="2.37822">
        <ele>207.9</ele>
        <time>2019-08-18T07:06:24.000Z</time>
      </trkpt>
      <trkpt lat="43.16547" lon="2.37822">
        <ele>207.6</ele>
        <time>2019-08-18T07:06:25.000Z</time>
      </trkpt>
      <trkpt lat="43.16549" lon="2.37822">
        <ele>207.4</ele>
        <time>2019-08-18T07:06:26.000Z</time>
      </trkpt>
      <trkpt lat="43.16552" lon="2.37821">
        <ele>207.1</ele>
        <time>2019-08-18T07:06:27.000Z</time>
      </trkpt>
      <trkpt lat="43.16555" lon="2.37821">
        <ele>206.9</ele>
        <time>2019-08-18T07:06:28.000Z</time>
      </trkpt>
      <trkpt lat="43.16558" lon="2.3782">
        <ele>206.6</ele>
        <time>2019-08-18T07:06:29.000Z</time>
      </trkpt>
      <trkpt lat="43.16561" lon="2.3782">
        <ele>206.4</ele>
        <time>2019-08-18T07:06:30.000Z</time>
      </trkpt>
      <trkpt lat="43.16563" lon="2.37819">
        <ele>206.2</ele>
        <time>2019-08-18T07:06:31.000Z</time>
      </trkpt>
      <trkpt lat="43.16566" lon="2.37818">
        <ele>205.9</ele>
        <time>2019-08-18T07:06:32.000Z</time>
      </trkpt>
      <trkpt lat="43.16569" lon="2.37818">
        <ele>205.7</ele>
        <time>2019-08-18T07:06:33.000Z</time>
      </trkpt>
      <trkpt lat="43.16572" lon="2.37817">
        <ele>205.5</ele>
        <time>2019-08-18T07:06:34.000Z</time>
      </trkpt>
      <trkpt lat="43.16574" lon="2.37817">
        <ele>205.3</ele>
        <time>2019-08-18T07:06:35.000Z</time>
      </trkpt>
      <trkpt lat="43.16577" lon="2.37816">
        <ele>205</ele>
        <time>2019-08-18T07:06:36.000Z</time>
      </trkpt>
      <trkpt lat="43.1658" lon="2.37816">
        <ele>204.8</ele>
        <time>2019-08-18T07:06:37.000Z</time>
      </trkpt>
      <trkpt lat="43.16582" lon="2.37815">
        <ele>204.6</ele>
        <time>2019-08-18T07:06:38.000Z</time>
      </trkpt>
      <trkpt lat="43.16585" lon="2.37815">
        <ele>204.5</ele>
        <time>2019-08-18T07:06:39.000Z</time>
      </trkpt>
      <trkpt lat="43.16588" lon="2.37814">
        <ele>204.4</ele>
        <time>2019-08-18T07:06:40.000Z</time>
      </trkpt>
      <trkpt lat="43.16591" lon="2.37814">
        <ele>204.3</ele>
        <time>2019-08-18T07:06:41.000Z</time>
      </trkpt>
      <trkpt lat="43.16593" lon="2.37813">
        <ele>204.3</ele>
        <time>2019-08-18T07:06:42.000Z</time>
      </trkpt>
      <trkpt lat="43.16596" lon="2.37812">
        <ele>204.2</ele>
        <time>2019-08-18T07:06:43.000Z</time>
      </trkpt>
      <trkpt lat="43.16599" lon="2.37812">
        <ele>204.1</ele>
        <time>2019-08-18T07:06:44.000Z</time>
      </trkpt>
      <trkpt lat="43.16601" lon="2.37811">
        <ele>204</ele>
        <time>2019-08-18T07:06:45.000Z</time>
      </trkpt>
      <trkpt lat="43.16604" lon="2.37811">
        <ele>204</ele>
        <time>2019-08-18T07:06:46.000Z</time>
      </trkpt>
      <trkpt lat="43.16607" lon="2.3781">
        <ele>203.9</ele>
        <time>2019-08-18T07:06:47.000Z</time>
      </trkpt>
      <trkpt lat="43.16609" lon="2.3781">
        <ele>203.8</ele>
        <time>2019-08-18T07:06:48.000Z</time>
      </trkpt>
      <trkpt lat="43.16612" lon="2.37809">
        <ele>203.7</ele>
        <time>2019-08-18T07:06:49.000Z</time>
      </trkpt>
      <trkpt lat="43.16614" lon="2.37809">
        <ele>203.6</ele>
        <time>2019-08-18T07:06:50.000Z</time>
      </trkpt>
      <trkpt lat="43.16617" lon="2.37808">
        <ele>203.5</ele>
        <time>2019-08-18T07:06:51.000Z</time>
      </trkpt>
      <trkpt lat="43.1662" lon="2.37808">
        <ele>203.4</ele>
        <time>2019-08-18T07:06:52.000Z</time>
      </trkpt>
      <trkpt lat="43.16622" lon="2.37808">
        <ele>203.3</ele>
        <time>2019-08-18T07:06:53.000Z</time>
      </trkpt>
      <trkpt lat="43.16625" lon="2.37808">
        <ele>203.2</ele>
        <time>2019-08-18T07:06:54.000Z</time>
      </trkpt>
      <trkpt lat="43.16628" lon="2.37808">
        <ele>203</ele>
        <time>2019-08-18T07:06:55.000Z</time>
      </trkpt>
      <trkpt lat="43.1663" lon="2.37809">
        <ele>202.9</ele>
        <time>2019-08-18T07:06:56.000Z</time>
      </trkpt>
      <trkpt lat="43.16633" lon="2.37809">
        <ele>202.7</ele>
        <time>2019-08-18T07:06:57.000Z</time>
      </trkpt>
      <trkpt lat="43.16636" lon="2.3781">
        <ele>202.6</ele>
        <time>2019-08-18T07:06:58.000Z</time>
      </trkpt>
      <trkpt lat="43.16639" lon="2.3781">
        <ele>202.4</ele>
        <time>2019-08-18T07:06:59.000Z</time>
      </trkpt>
      <trkpt lat="43.16641" lon="2.3781">
        <ele>202.3</ele>
        <time>2019-08-18T07:07:00.000Z</time>
      </trkpt>
      <trkpt lat="43.16644" lon="2.37811">
        <ele>202.1</ele>
        <time>2019-08-18T07:07:01.000Z</time>
      </trkpt>
      <trkpt lat="43.16647" lon="2.37811">
        <ele>202</ele>
        <time>2019-08-18T07:07:02.000Z</time>
      </trkpt>
      <trkpt lat="43.1665" lon="2.37811">
        <ele>201.9</ele>
        <time>2019-08-18T07:07:03.000Z</time>
      </trkpt>
      <trkpt lat="43.16652" lon="2.37811">
        <ele>201.7</ele>
        <time>2019-08-18T07:07:04.000Z</time>
      </trkpt>
      <trkpt lat="43.16655" lon="2.37811">
        <ele>201.6</ele>
        <time>2019-08-18T07:07:05.000Z</time>
      </trkpt>
      <trkpt lat="43.16658" lon="2.37811">
        <ele>201.5</ele>
        <time>2019-08-18T07:07:06.000Z</time>
      </trkpt>
      <trkpt lat="43.1666" lon="2.37812">
        <ele>201.3</ele>
        <time>2019-08-18T07:07:07.000Z</time>
      </trkpt>
      <trkpt lat="43.16663" lon="2.37813">
        <ele>201.2</ele>
        <time>2019-08-18T07:07:08.000Z</time>
      </trkpt>
      <trkpt lat="43.16666" lon="2.37815">
        <ele>200.9</ele>
        <time>2019-08-18T07:07:09.000Z</time>
      </trkpt>
      <trkpt lat="43.16668" lon="2.37818">
        <ele>200.8</ele>
        <time>2019-08-18T07:07:10.000Z</time>
      </trkpt>
      <trkpt lat="43.1667" lon="2.37821">
        <ele>200.6</ele>
        <time>2019-08-18T07:07:11.000Z</time>
      </trkpt>
      <trkpt lat="43.16672" lon="2.37824">
        <ele>200.5</ele>
        <time>2019-08-18T07:07:12.000Z</time>
      </trkpt>
      <trkpt lat="43.16674" lon="2.37827">
        <ele>200.3</ele>
        <time>2019-08-18T07:07:13.000Z</time>
      </trkpt>
      <trkpt lat="43.16676" lon="2.37831">
        <ele>200.1</ele>
        <time>2019-08-18T07:07:14.000Z</time>
      </trkpt>
      <trkpt lat="43.16678" lon="2.37834">
        <ele>199.9</ele>
        <time>2019-08-18T07:07:15.000Z</time>
      </trkpt>
      <trkpt lat="43.1668" lon="2.37838">
        <ele>199.7</ele>
        <time>2019-08-18T07:07:16.000Z</time>
      </trkpt>
      <trkpt lat="43.16681" lon="2.37841">
        <ele>199.4</ele>
        <time>2019-08-18T07:07:17.000Z</time>
      </trkpt>
      <trkpt lat="43.16683" lon="2.37845">
        <ele>199.1</ele>
        <time>2019-08-18T07:07:18.000Z</time>
      </trkpt>
      <trkpt lat="43.16684" lon="2.37848">
        <ele>198.9</ele>
        <time>2019-08-18T07:07:19.000Z</time>
      </trkpt>
      <trkpt lat="43.16685" lon="2.37852">
        <ele>198.6</ele>
        <time>2019-08-18T07:07:20.000Z</time>
      </trkpt>
      <trkpt lat="43.16687" lon="2.37855">
        <ele>198.3</ele>
        <time>2019-08-18T07:07:21.000Z</time>
      </trkpt>
      <trkpt lat="43.16688" lon="2.37859">
        <ele>198.1</ele>
        <time>2019-08-18T07:07:22.000Z</time>
      </trkpt>
      <trkpt lat="43.1669" lon="2.37862">
        <ele>197.9</ele>
        <time>2019-08-18T07:07:23.000Z</time>
      </trkpt>
      <trkpt lat="43.16691" lon="2.37866">
        <ele>197.6</ele>
        <time>2019-08-18T07:07:24.000Z</time>
      </trkpt>
      <trkpt lat="43.16692" lon="2.37869">
        <ele>197.4</ele>
        <time>2019-08-18T07:07:25.000Z</time>
      </trkpt>
      <trkpt lat="43.16694" lon="2.37872">
        <ele>197.2</ele>
        <time>2019-08-18T07:07:26.000Z</time>
      </trkpt>
      <trkpt lat="43.16695" lon="2.37875">
        <ele>197</ele>
        <time>2019-08-18T07:07:27.000Z</time>
      </trkpt>
      <trkpt lat="43.16697" lon="2.37879">
        <ele>196.8</ele>
        <time>2019-08-18T07:07:28.000Z</time>
      </trkpt>
      <trkpt lat="43.16698" lon="2.37882">
        <ele>196.6</ele>
        <time>2019-08-18T07:07:29.000Z</time>
      </trkpt>
      <trkpt lat="43.16699" lon="2.37885">
        <ele>196.4</ele>
        <time>2019-08-18T07:07:30.000Z</time>
      </trkpt>
      <trkpt lat="43.16701" lon="2.37888">
        <ele>196.2</ele>
        <time>2019-08-18T07:07:31.000Z</time>
      </trkpt>
      <trkpt lat="43.16702" lon="2.37891">
        <ele>196.1</ele>
        <time>2019-08-18T07:07:32.000Z</time>
      </trkpt>
      <trkpt lat="43.16704" lon="2.37894">
        <ele>195.9</ele>
        <time>2019-08-18T07:07:33.000Z</time>
      </trkpt>
      <trkpt lat="43.16706" lon="2.37897">
        <ele>195.7</ele>
        <time>2019-08-18T07:07:34.000Z</time>
      </trkpt>
      <trkpt lat="43.16707" lon="2.379">
        <ele>195.5</ele>
        <time>2019-08-18T07:07:35.000Z</time>
      </trkpt>
      <trkpt lat="43.16709" lon="2.37903">
        <ele>195.4</ele>
        <time>2019-08-18T07:07:36.000Z</time>
      </trkpt>
      <trkpt lat="43.1671" lon="2.37907">
        <ele>195.2</ele>
        <time>2019-08-18T07:07:37.000Z</time>
      </trkpt>
      <trkpt lat="43.16712" lon="2.3791">
        <ele>195.1</ele>
        <time>2019-08-18T07:07:38.000Z</time>
      </trkpt>
      <trkpt lat="43.16713" lon="2.37913">
        <ele>194.9</ele>
        <time>2019-08-18T07:07:39.000Z</time>
      </trkpt>
      <trkpt lat="43.16714" lon="2.37916">
        <ele>194.7</ele>
        <time>2019-08-18T07:07:40.000Z</time>
      </trkpt>
      <trkpt lat="43.16716" lon="2.37919">
        <ele>194.6</ele>
        <time>2019-08-18T07:07:41.000Z</time>
      </trkpt>
      <trkpt lat="43.16717" lon="2.37922">
        <ele>194.5</ele>
        <time>2019-08-18T07:07:42.000Z</time>
      </trkpt>
      <trkpt lat="43.16718" lon="2.37925">
        <ele>194.4</ele>
        <time>2019-08-18T07:07:43.000Z</time>
      </trkpt>
      <trkpt lat="43.1672" lon="2.37927">
        <ele>194.3</ele>
        <time>2019-08-18T07:07:44.000Z</time>
      </trkpt>
      <trkpt lat="43.16722" lon="2.37929">
        <ele>194.3</ele>
        <time>2019-08-18T07:07:45.000Z</time>
      </trkpt>
      <trkpt lat="43.16724" lon="2.3793">
        <ele>194.3</ele>
        <time>2019-08-18T07:07:46.000Z</time>
      </trkpt>
      <trkpt lat="43.16726" lon="2.37931">
        <ele>194.3</ele>
        <time>2019-08-18T07:07:47.000Z</time>
      </trkpt>
      <trkpt lat="43.16729" lon="2.37931">
        <ele>194.4</ele>
        <time>2019-08-18T07:07:48.000Z</time>
      </trkpt>
      <trkpt lat="43.16731" lon="2.37931">
        <ele>194.5</ele>
        <time>2019-08-18T07:07:49.000Z</time>
      </trkpt>
      <trkpt lat="43.16734" lon="2.37931">
        <ele>194.6</ele>
        <time>2019-08-18T07:07:50.000Z</time>
      </trkpt>
      <trkpt lat="43.16736" lon="2.37931">
        <ele>194.7</ele>
        <time>2019-08-18T07:07:51.000Z</time>
      </trkpt>
      <trkpt lat="43.16738" lon="2.3793">
        <ele>194.8</ele>
        <time>2019-08-18T07:07:52.000Z</time>
      </trkpt>
      <trkpt lat="43.1674" lon="2.3793">
        <ele>194.9</ele>
        <time>2019-08-18T07:07:53.000Z</time>
      </trkpt>
      <trkpt lat="43.16742" lon="2.3793">
        <ele>194.9</ele>
        <time>2019-08-18T07:07:54.000Z</time>
      </trkpt>
      <trkpt lat="43.16744" lon="2.37929">
        <ele>195</ele>
        <time>2019-08-18T07:07:55.000Z</time>
      </trkpt>
      <trkpt lat="43.16746" lon="2.37929">
        <ele>195.1</ele>
        <time>2019-08-18T07:07:56.000Z</time>
      </trkpt>
      <trkpt lat="43.16748" lon="2.37929">
        <ele>195.2</ele>
        <time>2019-08-18T07:07:57.000Z</time>
      </trkpt>
      <trkpt lat="43.1675" lon="2.37929">
        <ele>195.3</ele>
        <time>2019-08-18T07:07:58.000Z</time>
      </trkpt>
      <trkpt lat="43.16753" lon="2.37929">
        <ele>195.3</ele>
        <time>2019-08-18T07:07:59.000Z</time>
      </trkpt>
      <trkpt lat="43.16755" lon="2.37928">
        <ele>195.3</ele>
        <time>2019-08-18T07:08:00.000Z</time>
      </trkpt>
      <trkpt lat="43.16758" lon="2.37928">
        <ele>195.3</ele>
        <time>2019-08-18T07:08:01.000Z</time>
      </trkpt>
      <trkpt lat="43.1676" lon="2.37928">
        <ele>195.3</ele>
        <time>2019-08-18T07:08:02.000Z</time>
      </trkpt>
      <trkpt lat="43.16762" lon="2.37928">
        <ele>195.3</ele>
        <time>2019-08-18T07:08:03.000Z</time>
      </trkpt>
      <trkpt lat="43.16765" lon="2.37927">
        <ele>195.3</ele>
        <time>2019-08-18T07:08:04.000Z</time>
      </trkpt>
      <trkpt lat="43.16767" lon="2.37927">
        <ele>195.3</ele>
        <time>2019-08-18T07:08:05.000Z</time>
      </trkpt>
      <trkpt lat="43.1677" lon="2.37926">
        <ele>195.3</ele>
        <time>2019-08-18T07:08:06.000Z</time>
      </trkpt>
      <trkpt lat="43.16772" lon="2.37926">
        <ele>195.3</ele>
        <time>2019-08-18T07:08:07.000Z</time>
      </trkpt>
      <trkpt lat="43.16775" lon="2.37925">
        <ele>195.3</ele>
        <time>2019-08-18T07:08:08.000Z</time>
      </trkpt>
      <trkpt lat="43.16777" lon="2.37924">
        <ele>195.3</ele>
        <time>2019-08-18T07:08:09.000Z</time>
      </trkpt>
      <trkpt lat="43.1678" lon="2.37924">
        <ele>195.3</ele>
        <time>2019-08-18T07:08:10.000Z</time>
      </trkpt>
      <trkpt lat="43.16782" lon="2.37923">
        <ele>195.4</ele>
        <time>2019-08-18T07:08:11.000Z</time>
      </trkpt>
      <trkpt lat="43.16785" lon="2.37922">
        <ele>195.4</ele>
        <time>2019-08-18T07:08:12.000Z</time>
      </trkpt>
      <trkpt lat="43.16788" lon="2.37921">
        <ele>195.4</ele>
        <time>2019-08-18T07:08:13.000Z</time>
      </trkpt>
      <trkpt lat="43.1679" lon="2.3792">
        <ele>195.4</ele>
        <time>2019-08-18T07:08:14.000Z</time>
      </trkpt>
      <trkpt lat="43.16793" lon="2.37919">
        <ele>195.4</ele>
        <time>2019-08-18T07:08:15.000Z</time>
      </trkpt>
      <trkpt lat="43.16797" lon="2.37918">
        <ele>195.4</ele>
        <time>2019-08-18T07:08:16.000Z</time>
      </trkpt>
      <trkpt lat="43.168" lon="2.37918">
        <ele>195.4</ele>
        <time>2019-08-18T07:08:17.000Z</time>
      </trkpt>
      <trkpt lat="43.16803" lon="2.37917">
        <ele>195.4</ele>
        <time>2019-08-18T07:08:18.000Z</time>
      </trkpt>
      <trkpt lat="43.16806" lon="2.37916">
        <ele>195.3</ele>
        <time>2019-08-18T07:08:19.000Z</time>
      </trkpt>
      <trkpt lat="43.16809" lon="2.37915">
        <ele>195.3</ele>
        <time>2019-08-18T07:08:20.000Z</time>
      </trkpt>
      <trkpt lat="43.16812" lon="2.37914">
        <ele>195.3</ele>
        <time>2019-08-18T07:08:21.000Z</time>
      </trkpt>
      <trkpt lat="43.16815" lon="2.37913">
        <ele>195.3</ele>
        <time>2019-08-18T07:08:22.000Z</time>
      </trkpt>
      <trkpt lat="43.16818" lon="2.37913">
        <ele>195.2</ele>
        <time>2019-08-18T07:08:23.000Z</time>
      </trkpt>
      <trkpt lat="43.16821" lon="2.37912">
        <ele>195.2</ele>
        <time>2019-08-18T07:08:24.000Z</time>
      </trkpt>
      <trkpt lat="43.16824" lon="2.37911">
        <ele>195.1</ele>
        <time>2019-08-18T07:08:25.000Z</time>
      </trkpt>
      <trkpt lat="43.16826" lon="2.3791">
        <ele>195.1</ele>
        <time>2019-08-18T07:08:26.000Z</time>
      </trkpt>
      <trkpt lat="43.16829" lon="2.3791">
        <ele>195.1</ele>
        <time>2019-08-18T07:08:27.000Z</time>
      </trkpt>
      <trkpt lat="43.16832" lon="2.37909">
        <ele>195</ele>
        <time>2019-08-18T07:08:28.000Z</time>
      </trkpt>
      <trkpt lat="43.16835" lon="2.37908">
        <ele>194.9</ele>
        <time>2019-08-18T07:08:29.000Z</time>
      </trkpt>
      <trkpt lat="43.16837" lon="2.37907">
        <ele>194.8</ele>
        <time>2019-08-18T07:08:30.000Z</time>
      </trkpt>
      <trkpt lat="43.1684" lon="2.37906">
        <ele>194.6</ele>
        <time>2019-08-18T07:08:31.000Z</time>
      </trkpt>
      <trkpt lat="43.16843" lon="2.37906">
        <ele>194.4</ele>
        <time>2019-08-18T07:08:32.000Z</time>
      </trkpt>
      <trkpt lat="43.16846" lon="2.37905">
        <ele>194.2</ele>
        <time>2019-08-18T07:08:33.000Z</time>
      </trkpt>
      <trkpt lat="43.16848" lon="2.37904">
        <ele>194.1</ele>
        <time>2019-08-18T07:08:34.000Z</time>
      </trkpt>
      <trkpt lat="43.16851" lon="2.37903">
        <ele>193.9</ele>
        <time>2019-08-18T07:08:35.000Z</time>
      </trkpt>
      <trkpt lat="43.16854" lon="2.37902">
        <ele>193.7</ele>
        <time>2019-08-18T07:08:36.000Z</time>
      </trkpt>
      <trkpt lat="43.16857" lon="2.37901">
        <ele>193.5</ele>
        <time>2019-08-18T07:08:37.000Z</time>
      </trkpt>
      <trkpt lat="43.16859" lon="2.37899">
        <ele>193.4</ele>
        <time>2019-08-18T07:08:38.000Z</time>
      </trkpt>
      <trkpt lat="43.16862" lon="2.37898">
        <ele>193.2</ele>
        <time>2019-08-18T07:08:39.000Z</time>
      </trkpt>
      <trkpt lat="43.16865" lon="2.37898">
        <ele>193</ele>
        <time>2019-08-18T07:08:40.000Z</time>
      </trkpt>
      <trkpt lat="43.16867" lon="2.37897">
        <ele>192.9</ele>
        <time>2019-08-18T07:08:41.000Z</time>
      </trkpt>
      <trkpt lat="43.1687" lon="2.37896">
        <ele>192.7</ele>
        <time>2019-08-18T07:08:42.000Z</time>
      </trkpt>
      <trkpt lat="43.16873" lon="2.37895">
        <ele>192.5</ele>
        <time>2019-08-18T07:08:43.000Z</time>
      </trkpt>
      <trkpt lat="43.16876" lon="2.37895">
        <ele>192.3</ele>
        <time>2019-08-18T07:08:44.000Z</time>
      </trkpt>
      <trkpt lat="43.16878" lon="2.37894">
        <ele>192.2</ele>
        <time>2019-08-18T07:08:45.000Z</time>
      </trkpt>
      <trkpt lat="43.16881" lon="2.37894">
        <ele>192</ele>
        <time>2019-08-18T07:08:46.000Z</time>
      </trkpt>
      <trkpt lat="43.16884" lon="2.37894">
        <ele>191.8</ele>
        <time>2019-08-18T07:08:47.000Z</time>
      </trkpt>
      <trkpt lat="43.16886" lon="2.37893">
        <ele>191.6</ele>
        <time>2019-08-18T07:08:48.000Z</time>
      </trkpt>
      <trkpt lat="43.16889" lon="2.37893">
        <ele>191.5</ele>
        <time>2019-08-18T07:08:49.000Z</time>
      </trkpt>
      <trkpt lat="43.16892" lon="2.37892">
        <ele>191.3</ele>
        <time>2019-08-18T07:08:50.000Z</time>
      </trkpt>
      <trkpt lat="43.16895" lon="2.37892">
        <ele>191.1</ele>
        <time>2019-08-18T07:08:51.000Z</time>
      </trkpt>
      <trkpt lat="43.16897" lon="2.37891">
        <ele>190.9</ele>
        <time>2019-08-18T07:08:52.000Z</time>
      </trkpt>
      <trkpt lat="43.169" lon="2.3789">
        <ele>190.7</ele>
        <time>2019-08-18T07:08:53.000Z</time>
      </trkpt>
      <trkpt lat="43.16903" lon="2.3789">
        <ele>190.6</ele>
        <time>2019-08-18T07:08:54.000Z</time>
      </trkpt>
      <trkpt lat="43.16906" lon="2.37889">
        <ele>190.4</ele>
        <time>2019-08-18T07:08:55.000Z</time>
      </trkpt>
      <trkpt lat="43.16908" lon="2.37888">
        <ele>190.2</ele>
        <time>2019-08-18T07:08:56.000Z</time>
      </trkpt>
      <trkpt lat="43.16911" lon="2.37887">
        <ele>190</ele>
        <time>2019-08-18T07:08:57.000Z</time>
      </trkpt>
      <trkpt lat="43.16913" lon="2.37887">
        <ele>189.9</ele>
        <time>2019-08-18T07:08:58.000Z</time>
      </trkpt>
      <trkpt lat="43.16916" lon="2.37886">
        <ele>189.7</ele>
        <time>2019-08-18T07:08:59.000Z</time>
      </trkpt>
      <trkpt lat="43.16918" lon="2.37886">
        <ele>189.6</ele>
        <time>2019-08-18T07:09:00.000Z</time>
      </trkpt>
      <trkpt lat="43.16921" lon="2.37885">
        <ele>189.4</ele>
        <time>2019-08-18T07:09:01.000Z</time>
      </trkpt>
      <trkpt lat="43.16923" lon="2.37884">
        <ele>189.3</ele>
        <time>2019-08-18T07:09:02.000Z</time>
      </trkpt>
      <trkpt lat="43.16926" lon="2.37884">
        <ele>189.2</ele>
        <time>2019-08-18T07:09:03.000Z</time>
      </trkpt>
      <trkpt lat="43.16928" lon="2.37883">
        <ele>189.1</ele>
        <time>2019-08-18T07:09:04.000Z</time>
      </trkpt>
      <trkpt lat="43.16931" lon="2.37883">
        <ele>188.9</ele>
        <time>2019-08-18T07:09:05.000Z</time>
      </trkpt>
      <trkpt lat="43.16934" lon="2.37883">
        <ele>188.8</ele>
        <time>2019-08-18T07:09:06.000Z</time>
      </trkpt>
      <trkpt lat="43.16937" lon="2.37882">
        <ele>188.7</ele>
        <time>2019-08-18T07:09:07.000Z</time>
      </trkpt>
      <trkpt lat="43.16939" lon="2.37882">
        <ele>188.6</ele>
        <time>2019-08-18T07:09:08.000Z</time>
      </trkpt>
      <trkpt lat="43.16942" lon="2.37882">
        <ele>188.4</ele>
        <time>2019-08-18T07:09:09.000Z</time>
      </trkpt>
      <trkpt lat="43.16945" lon="2.37881">
        <ele>188.3</ele>
        <time>2019-08-18T07:09:10.000Z</time>
      </trkpt>
      <trkpt lat="43.16948" lon="2.37881">
        <ele>188.2</ele>
        <time>2019-08-18T07:09:11.000Z</time>
      </trkpt>
      <trkpt lat="43.16951" lon="2.37881">
        <ele>188</ele>
        <time>2019-08-18T07:09:12.000Z</time>
      </trkpt>
      <trkpt lat="43.16954" lon="2.37881">
        <ele>187.9</ele>
        <time>2019-08-18T07:09:13.000Z</time>
      </trkpt>
      <trkpt lat="43.16957" lon="2.37881">
        <ele>187.8</ele>
        <time>2019-08-18T07:09:14.000Z</time>
      </trkpt>
      <trkpt lat="43.16959" lon="2.37881">
        <ele>187.7</ele>
        <time>2019-08-18T07:09:15.000Z</time>
      </trkpt>
      <trkpt lat="43.16962" lon="2.37881">
        <ele>187.5</ele>
        <time>2019-08-18T07:09:16.000Z</time>
      </trkpt>
      <trkpt lat="43.16965" lon="2.37881">
        <ele>187.4</ele>
        <time>2019-08-18T07:09:17.000Z</time>
      </trkpt>
      <trkpt lat="43.16968" lon="2.3788">
        <ele>187.3</ele>
        <time>2019-08-18T07:09:18.000Z</time>
      </trkpt>
      <trkpt lat="43.16971" lon="2.3788">
        <ele>187.2</ele>
        <time>2019-08-18T07:09:19.000Z</time>
      </trkpt>
      <trkpt lat="43.16974" lon="2.37879">
        <ele>187.1</ele>
        <time>2019-08-18T07:09:20.000Z</time>
      </trkpt>
      <trkpt lat="43.16976" lon="2.37879">
        <ele>186.9</ele>
        <time>2019-08-18T07:09:21.000Z</time>
      </trkpt>
      <trkpt lat="43.16979" lon="2.37878">
        <ele>186.8</ele>
        <time>2019-08-18T07:09:22.000Z</time>
      </trkpt>
      <trkpt lat="43.16982" lon="2.37877">
        <ele>186.7</ele>
        <time>2019-08-18T07:09:23.000Z</time>
      </trkpt>
      <trkpt lat="43.16985" lon="2.37876">
        <ele>186.6</ele>
        <time>2019-08-18T07:09:24.000Z</time>
      </trkpt>
      <trkpt lat="43.16987" lon="2.37875">
        <ele>186.5</ele>
        <time>2019-08-18T07:09:25.000Z</time>
      </trkpt>
      <trkpt lat="43.1699" lon="2.37874">
        <ele>186.4</ele>
        <time>2019-08-18T07:09:26.000Z</time>
      </trkpt>
      <trkpt lat="43.16993" lon="2.37873">
        <ele>186.3</ele>
        <time>2019-08-18T07:09:27.000Z</time>
      </trkpt>
      <trkpt lat="43.16996" lon="2.37872">
        <ele>186.2</ele>
        <time>2019-08-18T07:09:28.000Z</time>
      </trkpt>
      <trkpt lat="43.16998" lon="2.37871">
        <ele>186.2</ele>
        <time>2019-08-18T07:09:29.000Z</time>
      </trkpt>
      <trkpt lat="43.17001" lon="2.3787">
        <ele>186.1</ele>
        <time>2019-08-18T07:09:30.000Z</time>
      </trkpt>
      <trkpt lat="43.17004" lon="2.37869">
        <ele>186</ele>
        <time>2019-08-18T07:09:31.000Z</time>
      </trkpt>
      <trkpt lat="43.17007" lon="2.37868">
        <ele>185.9</ele>
        <time>2019-08-18T07:09:32.000Z</time>
      </trkpt>
      <trkpt lat="43.17009" lon="2.37867">
        <ele>185.8</ele>
        <time>2019-08-18T07:09:33.000Z</time>
      </trkpt>
      <trkpt lat="43.17012" lon="2.37866">
        <ele>185.8</ele>
        <time>2019-08-18T07:09:34.000Z</time>
      </trkpt>
      <trkpt lat="43.17015" lon="2.37865">
        <ele>185.7</ele>
        <time>2019-08-18T07:09:35.000Z</time>
      </trkpt>
      <trkpt lat="43.17017" lon="2.37864">
        <ele>185.6</ele>
        <time>2019-08-18T07:09:36.000Z</time>
      </trkpt>
      <trkpt lat="43.1702" lon="2.37862">
        <ele>185.5</ele>
        <time>2019-08-18T07:09:37.000Z</time>
      </trkpt>
      <trkpt lat="43.17023" lon="2.37861">
        <ele>185.4</ele>
        <time>2019-08-18T07:09:38.000Z</time>
      </trkpt>
      <trkpt lat="43.17025" lon="2.3786">
        <ele>185.3</ele>
        <time>2019-08-18T07:09:39.000Z</time>
      </trkpt>
      <trkpt lat="43.17028" lon="2.37859">
        <ele>185.2</ele>
        <time>2019-08-18T07:09:40.000Z</time>
      </trkpt>
      <trkpt lat="43.17031" lon="2.37858">
        <ele>185.2</ele>
        <time>2019-08-18T07:09:41.000Z</time>
      </trkpt>
      <trkpt lat="43.17033" lon="2.37857">
        <ele>185.1</ele>
        <time>2019-08-18T07:09:42.000Z</time>
      </trkpt>
      <trkpt lat="43.17036" lon="2.37855">
        <ele>185</ele>
        <time>2019-08-18T07:09:43.000Z</time>
      </trkpt>
      <trkpt lat="43.17038" lon="2.37854">
        <ele>184.9</ele>
        <time>2019-08-18T07:09:44.000Z</time>
      </trkpt>
      <trkpt lat="43.17041" lon="2.37853">
        <ele>184.8</ele>
        <time>2019-08-18T07:09:45.000Z</time>
      </trkpt>
      <trkpt lat="43.17043" lon="2.37851">
        <ele>184.7</ele>
        <time>2019-08-18T07:09:46.000Z</time>
      </trkpt>
      <trkpt lat="43.17046" lon="2.3785">
        <ele>184.6</ele>
        <time>2019-08-18T07:09:47.000Z</time>
      </trkpt>
      <trkpt lat="43.17048" lon="2.37848">
        <ele>184.5</ele>
        <time>2019-08-18T07:09:48.000Z</time>
      </trkpt>
      <trkpt lat="43.17051" lon="2.37847">
        <ele>184.5</ele>
        <time>2019-08-18T07:09:49.000Z</time>
      </trkpt>
      <trkpt lat="43.17053" lon="2.37845">
        <ele>184.4</ele>
        <time>2019-08-18T07:09:50.000Z</time>
      </trkpt>
      <trkpt lat="43.17055" lon="2.37843">
        <ele>184.3</ele>
        <time>2019-08-18T07:09:51.000Z</time>
      </trkpt>
      <trkpt lat="43.17058" lon="2.37841">
        <ele>184.2</ele>
        <time>2019-08-18T07:09:52.000Z</time>
      </trkpt>
      <trkpt lat="43.1706" lon="2.37839">
        <ele>184.1</ele>
        <time>2019-08-18T07:09:53.000Z</time>
      </trkpt>
      <trkpt lat="43.17062" lon="2.37838">
        <ele>184</ele>
        <time>2019-08-18T07:09:54.000Z</time>
      </trkpt>
      <trkpt lat="43.17065" lon="2.37836">
        <ele>183.9</ele>
        <time>2019-08-18T07:09:55.000Z</time>
      </trkpt>
      <trkpt lat="43.17067" lon="2.37834">
        <ele>183.8</ele>
        <time>2019-08-18T07:09:56.000Z</time>
      </trkpt>
      <trkpt lat="43.17069" lon="2.37832">
        <ele>183.7</ele>
        <time>2019-08-18T07:09:57.000Z</time>
      </trkpt>
      <trkpt lat="43.17072" lon="2.3783">
        <ele>183.5</ele>
        <time>2019-08-18T07:09:58.000Z</time>
      </trkpt>
      <trkpt lat="43.17074" lon="2.37828">
        <ele>183.4</ele>
        <time>2019-08-18T07:09:59.000Z</time>
      </trkpt>
      <trkpt lat="43.17076" lon="2.37826">
        <ele>183.3</ele>
        <time>2019-08-18T07:10:00.000Z</time>
      </trkpt>
      <trkpt lat="43.17078" lon="2.37824">
        <ele>183.1</ele>
        <time>2019-08-18T07:10:01.000Z</time>
      </trkpt>
      <trkpt lat="43.17081" lon="2.37823">
        <ele>183</ele>
        <time>2019-08-18T07:10:02.000Z</time>
      </trkpt>
      <trkpt lat="43.17083" lon="2.37821">
        <ele>182.9</ele>
        <time>2019-08-18T07:10:03.000Z</time>
      </trkpt>
      <trkpt lat="43.17085" lon="2.37819">
        <ele>182.8</ele>
        <time>2019-08-18T07:10:04.000Z</time>
      </trkpt>
      <trkpt lat="43.17087" lon="2.37818">
        <ele>182.7</ele>
        <time>2019-08-18T07:10:05.000Z</time>
      </trkpt>
      <trkpt lat="43.1709" lon="2.37816">
        <ele>182.6</ele>
        <time>2019-08-18T07:10:06.000Z</time>
      </trkpt>
      <trkpt lat="43.17092" lon="2.37814">
        <ele>182.4</ele>
        <time>2019-08-18T07:10:07.000Z</time>
      </trkpt>
      <trkpt lat="43.17094" lon="2.37813">
        <ele>182.3</ele>
        <time>2019-08-18T07:10:08.000Z</time>
      </trkpt>
      <trkpt lat="43.17096" lon="2.37811">
        <ele>182.2</ele>
        <time>2019-08-18T07:10:09.000Z</time>
      </trkpt>
      <trkpt lat="43.17099" lon="2.3781">
        <ele>182.1</ele>
        <time>2019-08-18T07:10:10.000Z</time>
      </trkpt>
      <trkpt lat="43.17101" lon="2.37808">
        <ele>182</ele>
        <time>2019-08-18T07:10:11.000Z</time>
      </trkpt>
      <trkpt lat="43.17103" lon="2.37806">
        <ele>181.9</ele>
        <time>2019-08-18T07:10:12.000Z</time>
      </trkpt>
      <trkpt lat="43.17105" lon="2.37804">
        <ele>181.8</ele>
        <time>2019-08-18T07:10:13.000Z</time>
      </trkpt>
      <trkpt lat="43.17106" lon="2.37802">
        <ele>181.7</ele>
        <time>2019-08-18T07:10:14.000Z</time>
      </trkpt>
      <trkpt lat="43.17108" lon="2.37799">
        <ele>181.6</ele>
        <time>2019-08-18T07:10:15.000Z</time>
      </trkpt>
      <trkpt lat="43.17109" lon="2.37797">
        <ele>181.5</ele>
        <time>2019-08-18T07:10:16.000Z</time>
      </trkpt>
      <trkpt lat="43.1711" lon="2.37794">
        <ele>181.4</ele>
        <time>2019-08-18T07:10:17.000Z</time>
      </trkpt>
      <trkpt lat="43.1711" lon="2.37791">
        <ele>181.4</ele>
        <time>2019-08-18T07:10:18.000Z</time>
      </trkpt>
      <trkpt lat="43.17111" lon="2.37788">
        <ele>181.3</ele>
        <time>2019-08-18T07:10:19.000Z</time>
      </trkpt>
      <trkpt lat="43.1711" lon="2.37785">
        <ele>181.3</ele>
        <time>2019-08-18T07:10:20.000Z</time>
      </trkpt>
      <trkpt lat="43.1711" lon="2.37781">
        <ele>181.2</ele>
        <time>2019-08-18T07:10:21.000Z</time>
      </trkpt>
      <trkpt lat="43.1711" lon="2.37778">
        <ele>181.2</ele>
        <time>2019-08-18T07:10:22.000Z</time>
      </trkpt>
      <trkpt lat="43.17109" lon="2.37774">
        <ele>181.1</ele>
        <time>2019-08-18T07:10:23.000Z</time>
      </trkpt>
      <trkpt lat="43.17109" lon="2.3777">
        <ele>181.1</ele>
        <time>2019-08-18T07:10:24.000Z</time>
      </trkpt>
      <trkpt lat="43.17109" lon="2.37767">
        <ele>181</ele>
        <time>2019-08-18T07:10:25.000Z</time>
      </trkpt>
      <trkpt lat="43.17109" lon="2.37763">
        <ele>181</ele>
        <time>2019-08-18T07:10:26.000Z</time>
      </trkpt>
      <trkpt lat="43.17109" lon="2.3776">
        <ele>180.9</ele>
        <time>2019-08-18T07:10:27.000Z</time>
      </trkpt>
      <trkpt lat="43.17109" lon="2.37756">
        <ele>180.9</ele>
        <time>2019-08-18T07:10:28.000Z</time>
      </trkpt>
      <trkpt lat="43.1711" lon="2.37753">
        <ele>180.8</ele>
        <time>2019-08-18T07:10:29.000Z</time>
      </trkpt>
      <trkpt lat="43.1711" lon="2.3775">
        <ele>180.7</ele>
        <time>2019-08-18T07:10:30.000Z</time>
      </trkpt>
      <trkpt lat="43.17111" lon="2.37747">
        <ele>180.6</ele>
        <time>2019-08-18T07:10:31.000Z</time>
      </trkpt>
      <trkpt lat="43.17112" lon="2.37744">
        <ele>180.5</ele>
        <time>2019-08-18T07:10:32.000Z</time>
      </trkpt>
      <trkpt lat="43.17113" lon="2.37741">
        <ele>180.4</ele>
        <time>2019-08-18T07:10:33.000Z</time>
      </trkpt>
      <trkpt lat="43.17115" lon="2.37738">
        <ele>180.4</ele>
        <time>2019-08-18T07:10:34.000Z</time>
      </trkpt>
      <trkpt lat="43.17116" lon="2.37735">
        <ele>180.3</ele>
        <time>2019-08-18T07:10:35.000Z</time>
      </trkpt>
      <trkpt lat="43.17117" lon="2.37732">
        <ele>180.1</ele>
        <time>2019-08-18T07:10:36.000Z</time>
      </trkpt>
      <trkpt lat="43.17119" lon="2.37729">
        <ele>180</ele>
        <time>2019-08-18T07:10:37.000Z</time>
      </trkpt>
      <trkpt lat="43.1712" lon="2.37726">
        <ele>179.9</ele>
        <time>2019-08-18T07:10:38.000Z</time>
      </trkpt>
      <trkpt lat="43.17122" lon="2.37723">
        <ele>179.8</ele>
        <time>2019-08-18T07:10:39.000Z</time>
      </trkpt>
      <trkpt lat="43.17123" lon="2.37719">
        <ele>179.7</ele>
        <time>2019-08-18T07:10:40.000Z</time>
      </trkpt>
      <trkpt lat="43.17125" lon="2.37716">
        <ele>179.6</ele>
        <time>2019-08-18T07:10:41.000Z</time>
      </trkpt>
      <trkpt lat="43.17126" lon="2.37713">
        <ele>179.5</ele>
        <time>2019-08-18T07:10:42.000Z</time>
      </trkpt>
      <trkpt lat="43.17128" lon="2.3771">
        <ele>179.4</ele>
        <time>2019-08-18T07:10:43.000Z</time>
      </trkpt>
      <trkpt lat="43.17129" lon="2.37708">
        <ele>179.3</ele>
        <time>2019-08-18T07:10:44.000Z</time>
      </trkpt>
      <trkpt lat="43.1713" lon="2.37705">
        <ele>179.2</ele>
        <time>2019-08-18T07:10:45.000Z</time>
      </trkpt>
      <trkpt lat="43.17132" lon="2.37702">
        <ele>179.1</ele>
        <time>2019-08-18T07:10:46.000Z</time>
      </trkpt>
      <trkpt lat="43.17133" lon="2.377">
        <ele>179</ele>
        <time>2019-08-18T07:10:47.000Z</time>
      </trkpt>
      <trkpt lat="43.17135" lon="2.37698">
        <ele>178.9</ele>
        <time>2019-08-18T07:10:48.000Z</time>
      </trkpt>
      <trkpt lat="43.17136" lon="2.37696">
        <ele>178.8</ele>
        <time>2019-08-18T07:10:49.000Z</time>
      </trkpt>
      <trkpt lat="43.17138" lon="2.37694">
        <ele>178.7</ele>
        <time>2019-08-18T07:10:50.000Z</time>
      </trkpt>
      <trkpt lat="43.17139" lon="2.37693">
        <ele>178.6</ele>
        <time>2019-08-18T07:10:51.000Z</time>
      </trkpt>
      <trkpt lat="43.17141" lon="2.37692">
        <ele>178.5</ele>
        <time>2019-08-18T07:10:52.000Z</time>
      </trkpt>
      <trkpt lat="43.17142" lon="2.37691">
        <ele>178.5</ele>
        <time>2019-08-18T07:10:53.000Z</time>
      </trkpt>
      <trkpt lat="43.17143" lon="2.37688">
        <ele>178.4</ele>
        <time>2019-08-18T07:10:54.000Z</time>
      </trkpt>
      <trkpt lat="43.17143" lon="2.37686">
        <ele>178.4</ele>
        <time>2019-08-18T07:10:55.000Z</time>
      </trkpt>
      <trkpt lat="43.17142" lon="2.37683">
        <ele>178.4</ele>
        <time>2019-08-18T07:10:56.000Z</time>
      </trkpt>
      <trkpt lat="43.17141" lon="2.3768">
        <ele>178.4</ele>
        <time>2019-08-18T07:10:57.000Z</time>
      </trkpt>
      <trkpt lat="43.1714" lon="2.37677">
        <ele>178.4</ele>
        <time>2019-08-18T07:10:58.000Z</time>
      </trkpt>
      <trkpt lat="43.17139" lon="2.37675">
        <ele>178.4</ele>
        <time>2019-08-18T07:10:59.000Z</time>
      </trkpt>
      <trkpt lat="43.17137" lon="2.37672">
        <ele>178.5</ele>
        <time>2019-08-18T07:11:00.000Z</time>
      </trkpt>
      <trkpt lat="43.17135" lon="2.3767">
        <ele>178.5</ele>
        <time>2019-08-18T07:11:01.000Z</time>
      </trkpt>
      <trkpt lat="43.17134" lon="2.37668">
        <ele>178.6</ele>
        <time>2019-08-18T07:11:02.000Z</time>
      </trkpt>
      <trkpt lat="43.17132" lon="2.37665">
        <ele>178.6</ele>
        <time>2019-08-18T07:11:03.000Z</time>
      </trkpt>
      <trkpt lat="43.1713" lon="2.37662">
        <ele>178.5</ele>
        <time>2019-08-18T07:11:04.000Z</time>
      </trkpt>
      <trkpt lat="43.17128" lon="2.3766">
        <ele>178.4</ele>
        <time>2019-08-18T07:11:05.000Z</time>
      </trkpt>
      <trkpt lat="43.17126" lon="2.37657">
        <ele>178.3</ele>
        <time>2019-08-18T07:11:06.000Z</time>
      </trkpt>
      <trkpt lat="43.17124" lon="2.37654">
        <ele>178.2</ele>
        <time>2019-08-18T07:11:07.000Z</time>
      </trkpt>
      <trkpt lat="43.17122" lon="2.3765">
        <ele>178</ele>
        <time>2019-08-18T07:11:08.000Z</time>
      </trkpt>
      <trkpt lat="43.17121" lon="2.37647">
        <ele>177.9</ele>
        <time>2019-08-18T07:11:09.000Z</time>
      </trkpt>
      <trkpt lat="43.17119" lon="2.37644">
        <ele>177.8</ele>
        <time>2019-08-18T07:11:10.000Z</time>
      </trkpt>
      <trkpt lat="43.17117" lon="2.37641">
        <ele>177.6</ele>
        <time>2019-08-18T07:11:11.000Z</time>
      </trkpt>
      <trkpt lat="43.17115" lon="2.37638">
        <ele>177.4</ele>
        <time>2019-08-18T07:11:12.000Z</time>
      </trkpt>
      <trkpt lat="43.17113" lon="2.37635">
        <ele>177.3</ele>
        <time>2019-08-18T07:11:13.000Z</time>
      </trkpt>
      <trkpt lat="43.17112" lon="2.37632">
        <ele>177.1</ele>
        <time>2019-08-18T07:11:14.000Z</time>
      </trkpt>
      <trkpt lat="43.1711" lon="2.37629">
        <ele>177</ele>
        <time>2019-08-18T07:11:15.000Z</time>
      </trkpt>
      <trkpt lat="43.17108" lon="2.37626">
        <ele>176.8</ele>
        <time>2019-08-18T07:11:16.000Z</time>
      </trkpt>
      <trkpt lat="43.17107" lon="2.37622">
        <ele>176.6</ele>
        <time>2019-08-18T07:11:17.000Z</time>
      </trkpt>
      <trkpt lat="43.17105" lon="2.37619">
        <ele>176.4</ele>
        <time>2019-08-18T07:11:18.000Z</time>
      </trkpt>
      <trkpt lat="43.17103" lon="2.37616">
        <ele>176.2</ele>
        <time>2019-08-18T07:11:19.000Z</time>
      </trkpt>
      <trkpt lat="43.17102" lon="2.37613">
        <ele>176</ele>
        <time>2019-08-18T07:11:20.000Z</time>
      </trkpt>
      <trkpt lat="43.171" lon="2.3761">
        <ele>175.8</ele>
        <time>2019-08-18T07:11:21.000Z</time>
      </trkpt>
      <trkpt lat="43.17099" lon="2.37607">
        <ele>175.6</ele>
        <time>2019-08-18T07:11:22.000Z</time>
      </trkpt>
      <trkpt lat="43.17097" lon="2.37604">
        <ele>175.4</ele>
        <time>2019-08-18T07:11:23.000Z</time>
      </trkpt>
      <trkpt lat="43.17096" lon="2.37601">
        <ele>175.2</ele>
        <time>2019-08-18T07:11:24.000Z</time>
      </trkpt>
      <trkpt lat="43.17095" lon="2.37597">
        <ele>175</ele>
        <time>2019-08-18T07:11:25.000Z</time>
      </trkpt>
      <trkpt lat="43.17093" lon="2.37594">
        <ele>174.7</ele>
        <time>2019-08-18T07:11:26.000Z</time>
      </trkpt>
      <trkpt lat="43.17092" lon="2.37591">
        <ele>174.5</ele>
        <time>2019-08-18T07:11:27.000Z</time>
      </trkpt>
      <trkpt lat="43.17091" lon="2.37588">
        <ele>174.3</ele>
        <time>2019-08-18T07:11:28.000Z</time>
      </trkpt>
      <trkpt lat="43.17089" lon="2.37584">
        <ele>174</ele>
        <time>2019-08-18T07:11:29.000Z</time>
      </trkpt>
      <trkpt lat="43.17088" lon="2.37581">
        <ele>173.8</ele>
        <time>2019-08-18T07:11:30.000Z</time>
      </trkpt>
      <trkpt lat="43.17087" lon="2.37577">
        <ele>173.6</ele>
        <time>2019-08-18T07:11:31.000Z</time>
      </trkpt>
      <trkpt lat="43.17086" lon="2.37574">
        <ele>173.4</ele>
        <time>2019-08-18T07:11:32.000Z</time>
      </trkpt>
      <trkpt lat="43.17085" lon="2.37571">
        <ele>173.2</ele>
        <time>2019-08-18T07:11:33.000Z</time>
      </trkpt>
      <trkpt lat="43.17084" lon="2.37567">
        <ele>173</ele>
        <time>2019-08-18T07:11:34.000Z</time>
      </trkpt>
      <trkpt lat="43.17084" lon="2.37563">
        <ele>172.8</ele>
        <time>2019-08-18T07:11:35.000Z</time>
      </trkpt>
      <trkpt lat="43.17083" lon="2.3756">
        <ele>172.6</ele>
        <time>2019-08-18T07:11:36.000Z</time>
      </trkpt>
      <trkpt lat="43.17083" lon="2.37556">
        <ele>172.4</ele>
        <time>2019-08-18T07:11:37.000Z</time>
      </trkpt>
      <trkpt lat="43.17082" lon="2.37553">
        <ele>172.2</ele>
        <time>2019-08-18T07:11:38.000Z</time>
      </trkpt>
      <trkpt lat="43.17082" lon="2.37549">
        <ele>172</ele>
        <time>2019-08-18T07:11:39.000Z</time>
      </trkpt>
      <trkpt lat="43.17082" lon="2.37545">
        <ele>171.7</ele>
        <time>2019-08-18T07:11:40.000Z</time>
      </trkpt>
      <trkpt lat="43.17082" lon="2.37541">
        <ele>171.5</ele>
        <time>2019-08-18T07:11:41.000Z</time>
      </trkpt>
      <trkpt lat="43.17082" lon="2.37537">
        <ele>171.3</ele>
        <time>2019-08-18T07:11:42.000Z</time>
      </trkpt>
      <trkpt lat="43.17082" lon="2.37534">
        <ele>171</ele>
        <time>2019-08-18T07:11:43.000Z</time>
      </trkpt>
      <trkpt lat="43.17083" lon="2.3753">
        <ele>170.8</ele>
        <time>2019-08-18T07:11:44.000Z</time>
      </trkpt>
      <trkpt lat="43.17083" lon="2.37526">
        <ele>170.5</ele>
        <time>2019-08-18T07:11:45.000Z</time>
      </trkpt>
      <trkpt lat="43.17084" lon="2.37522">
        <ele>170.3</ele>
        <time>2019-08-18T07:11:46.000Z</time>
      </trkpt>
      <trkpt lat="43.17084" lon="2.37518">
        <ele>170.1</ele>
        <time>2019-08-18T07:11:47.000Z</time>
      </trkpt>
      <trkpt lat="43.17085" lon="2.37514">
        <ele>169.9</ele>
        <time>2019-08-18T07:11:48.000Z</time>
      </trkpt>
      <trkpt lat="43.17085" lon="2.3751">
        <ele>169.6</ele>
        <time>2019-08-18T07:11:49.000Z</time>
      </trkpt>
      <trkpt lat="43.17086" lon="2.37507">
        <ele>169.4</ele>
        <time>2019-08-18T07:11:50.000Z</time>
      </trkpt>
      <trkpt lat="43.17087" lon="2.37503">
        <ele>169.2</ele>
        <time>2019-08-18T07:11:51.000Z</time>
      </trkpt>
      <trkpt lat="43.17088" lon="2.37499">
        <ele>169</ele>
        <time>2019-08-18T07:11:52.000Z</time>
      </trkpt>
      <trkpt lat="43.17088" lon="2.37495">
        <ele>168.9</ele>
        <time>2019-08-18T07:11:53.000Z</time>
      </trkpt>
      <trkpt lat="43.17089" lon="2.37492">
        <ele>168.8</ele>
        <time>2019-08-18T07:11:54.000Z</time>
      </trkpt>
      <trkpt lat="43.1709" lon="2.37488">
        <ele>168.7</ele>
        <time>2019-08-18T07:11:55.000Z</time>
      </trkpt>
      <trkpt lat="43.17091" lon="2.37485">
        <ele>168.5</ele>
        <time>2019-08-18T07:11:56.000Z</time>
      </trkpt>
      <trkpt lat="43.17092" lon="2.37481">
        <ele>168.4</ele>
        <time>2019-08-18T07:11:57.000Z</time>
      </trkpt>
      <trkpt lat="43.17093" lon="2.37477">
        <ele>168.3</ele>
        <time>2019-08-18T07:11:58.000Z</time>
      </trkpt>
      <trkpt lat="43.17093" lon="2.37474">
        <ele>168.2</ele>
        <time>2019-08-18T07:11:59.000Z</time>
      </trkpt>
      <trkpt lat="43.17094" lon="2.3747">
        <ele>168.1</ele>
        <time>2019-08-18T07:12:00.000Z</time>
      </trkpt>
      <trkpt lat="43.17095" lon="2.37467">
        <ele>167.9</ele>
        <time>2019-08-18T07:12:01.000Z</time>
      </trkpt>
      <trkpt lat="43.17095" lon="2.37463">
        <ele>167.8</ele>
        <time>2019-08-18T07:12:02.000Z</time>
      </trkpt>
      <trkpt lat="43.17096" lon="2.37459">
        <ele>167.7</ele>
        <time>2019-08-18T07:12:03.000Z</time>
      </trkpt>
      <trkpt lat="43.17097" lon="2.37456">
        <ele>167.6</ele>
        <time>2019-08-18T07:12:04.000Z</time>
      </trkpt>
      <trkpt lat="43.17097" lon="2.37452">
        <ele>167.4</ele>
        <time>2019-08-18T07:12:05.000Z</time>
      </trkpt>
      <trkpt lat="43.17098" lon="2.37448">
        <ele>167.3</ele>
        <time>2019-08-18T07:12:06.000Z</time>
      </trkpt>
      <trkpt lat="43.17098" lon="2.37444">
        <ele>167.2</ele>
        <time>2019-08-18T07:12:07.000Z</time>
      </trkpt>
      <trkpt lat="43.17098" lon="2.37441">
        <ele>167</ele>
        <time>2019-08-18T07:12:08.000Z</time>
      </trkpt>
      <trkpt lat="43.17098" lon="2.37437">
        <ele>166.9</ele>
        <time>2019-08-18T07:12:09.000Z</time>
      </trkpt>
      <trkpt lat="43.17099" lon="2.37433">
        <ele>166.8</ele>
        <time>2019-08-18T07:12:10.000Z</time>
      </trkpt>
      <trkpt lat="43.17099" lon="2.3743">
        <ele>166.7</ele>
        <time>2019-08-18T07:12:11.000Z</time>
      </trkpt>
      <trkpt lat="43.17098" lon="2.37426">
        <ele>166.5</ele>
        <time>2019-08-18T07:12:12.000Z</time>
      </trkpt>
      <trkpt lat="43.17098" lon="2.37423">
        <ele>166.4</ele>
        <time>2019-08-18T07:12:13.000Z</time>
      </trkpt>
      <trkpt lat="43.17098" lon="2.3742">
        <ele>166.3</ele>
        <time>2019-08-18T07:12:14.000Z</time>
      </trkpt>
      <trkpt lat="43.17097" lon="2.37417">
        <ele>166.2</ele>
        <time>2019-08-18T07:12:15.000Z</time>
      </trkpt>
      <trkpt lat="43.17097" lon="2.37414">
        <ele>166.1</ele>
        <time>2019-08-18T07:12:16.000Z</time>
      </trkpt>
      <trkpt lat="43.17096" lon="2.37411">
        <ele>166.1</ele>
        <time>2019-08-18T07:12:17.000Z</time>
      </trkpt>
      <trkpt lat="43.17095" lon="2.37408">
        <ele>166</ele>
        <time>2019-08-18T07:12:18.000Z</time>
      </trkpt>
      <trkpt lat="43.17094" lon="2.37406">
        <ele>166</ele>
        <time>2019-08-18T07:12:19.000Z</time>
      </trkpt>
      <trkpt lat="43.17093" lon="2.37404">
        <ele>165.9</ele>
        <time>2019-08-18T07:12:20.000Z</time>
      </trkpt>
      <trkpt lat="43.17091" lon="2.37402">
        <ele>165.9</ele>
        <time>2019-08-18T07:12:21.000Z</time>
      </trkpt>
      <trkpt lat="43.17089" lon="2.374">
        <ele>165.9</ele>
        <time>2019-08-18T07:12:22.000Z</time>
      </trkpt>
      <trkpt lat="43.17088" lon="2.37399">
        <ele>165.8</ele>
        <time>2019-08-18T07:12:23.000Z</time>
      </trkpt>
      <trkpt lat="43.17086" lon="2.37398">
        <ele>165.8</ele>
        <time>2019-08-18T07:12:24.000Z</time>
      </trkpt>
      <trkpt lat="43.17084" lon="2.37396">
        <ele>165.8</ele>
        <time>2019-08-18T07:12:25.000Z</time>
      </trkpt>
      <trkpt lat="43.17082" lon="2.37395">
        <ele>165.8</ele>
        <time>2019-08-18T07:12:26.000Z</time>
      </trkpt>
      <trkpt lat="43.1708" lon="2.37393">
        <ele>165.9</ele>
        <time>2019-08-18T07:12:27.000Z</time>
      </trkpt>
      <trkpt lat="43.17078" lon="2.37392">
        <ele>166</ele>
        <time>2019-08-18T07:12:28.000Z</time>
      </trkpt>
      <trkpt lat="43.17076" lon="2.3739">
        <ele>166.1</ele>
        <time>2019-08-18T07:12:29.000Z</time>
      </trkpt>
      <trkpt lat="43.17073" lon="2.37389">
        <ele>166.2</ele>
        <time>2019-08-18T07:12:30.000Z</time>
      </trkpt>
      <trkpt lat="43.17071" lon="2.37387">
        <ele>166.3</ele>
        <time>2019-08-18T07:12:31.000Z</time>
      </trkpt>
      <trkpt lat="43.17069" lon="2.37385">
        <ele>166.4</ele>
        <time>2019-08-18T07:12:32.000Z</time>
      </trkpt>
      <trkpt lat="43.17067" lon="2.37383">
        <ele>166.6</ele>
        <time>2019-08-18T07:12:33.000Z</time>
      </trkpt>
      <trkpt lat="43.17065" lon="2.37381">
        <ele>166.7</ele>
        <time>2019-08-18T07:12:34.000Z</time>
      </trkpt>
      <trkpt lat="43.17063" lon="2.37379">
        <ele>166.8</ele>
        <time>2019-08-18T07:12:35.000Z</time>
      </trkpt>
      <trkpt lat="43.17061" lon="2.37378">
        <ele>167</ele>
        <time>2019-08-18T07:12:36.000Z</time>
      </trkpt>
      <trkpt lat="43.17058" lon="2.37376">
        <ele>167.1</ele>
        <time>2019-08-18T07:12:37.000Z</time>
      </trkpt>
      <trkpt lat="43.17056" lon="2.37374">
        <ele>167.3</ele>
        <time>2019-08-18T07:12:38.000Z</time>
      </trkpt>
      <trkpt lat="43.17054" lon="2.37372">
        <ele>167.5</ele>
        <time>2019-08-18T07:12:39.000Z</time>
      </trkpt>
      <trkpt lat="43.17051" lon="2.3737">
        <ele>167.7</ele>
        <time>2019-08-18T07:12:40.000Z</time>
      </trkpt>
      <trkpt lat="43.17049" lon="2.37368">
        <ele>167.8</ele>
        <time>2019-08-18T07:12:41.000Z</time>
      </trkpt>
      <trkpt lat="43.17047" lon="2.37366">
        <ele>168</ele>
        <time>2019-08-18T07:12:42.000Z</time>
      </trkpt>
      <trkpt lat="43.17045" lon="2.37364">
        <ele>168.2</ele>
        <time>2019-08-18T07:12:43.000Z</time>
      </trkpt>
      <trkpt lat="43.17043" lon="2.37362">
        <ele>168.4</ele>
        <time>2019-08-18T07:12:44.000Z</time>
      </trkpt>
      <trkpt lat="43.17041" lon="2.3736">
        <ele>168.6</ele>
        <time>2019-08-18T07:12:45.000Z</time>
      </trkpt>
      <trkpt lat="43.17039" lon="2.37358">
        <ele>168.8</ele>
        <time>2019-08-18T07:12:46.000Z</time>
      </trkpt>
      <trkpt lat="43.17037" lon="2.37356">
        <ele>169</ele>
        <time>2019-08-18T07:12:47.000Z</time>
      </trkpt>
      <trkpt lat="43.17035" lon="2.37353">
        <ele>169.2</ele>
        <time>2019-08-18T07:12:48.000Z</time>
      </trkpt>
      <trkpt lat="43.17034" lon="2.37351">
        <ele>169.4</ele>
        <time>2019-08-18T07:12:49.000Z</time>
      </trkpt>
      <trkpt lat="43.17032" lon="2.37349">
        <ele>169.5</ele>
        <time>2019-08-18T07:12:50.000Z</time>
      </trkpt>
      <trkpt lat="43.17031" lon="2.37346">
        <ele>169.7</ele>
        <time>2019-08-18T07:12:51.000Z</time>
      </trkpt>
      <trkpt lat="43.1703" lon="2.37344">
        <ele>169.9</ele>
        <time>2019-08-18T07:12:52.000Z</time>
      </trkpt>
      <trkpt lat="43.17029" lon="2.37341">
        <ele>170</ele>
        <time>2019-08-18T07:12:53.000Z</time>
      </trkpt>
      <trkpt lat="43.17028" lon="2.37338">
        <ele>170.2</ele>
        <time>2019-08-18T07:12:54.000Z</time>
      </trkpt>
      <trkpt lat="43.17027" lon="2.37336">
        <ele>170.4</ele>
        <time>2019-08-18T07:12:55.000Z</time>
      </trkpt>
      <trkpt lat="43.17026" lon="2.37333">
        <ele>170.5</ele>
        <time>2019-08-18T07:12:56.000Z</time>
      </trkpt>
      <trkpt lat="43.17025" lon="2.3733">
        <ele>170.7</ele>
        <time>2019-08-18T07:12:57.000Z</time>
      </trkpt>
      <trkpt lat="43.17025" lon="2.37328">
        <ele>170.8</ele>
        <time>2019-08-18T07:12:58.000Z</time>
      </trkpt>
      <trkpt lat="43.17024" lon="2.37325">
        <ele>171</ele>
        <time>2019-08-18T07:12:59.000Z</time>
      </trkpt>
      <trkpt lat="43.17024" lon="2.37323">
        <ele>171.1</ele>
        <time>2019-08-18T07:13:00.000Z</time>
      </trkpt>
      <trkpt lat="43.17023" lon="2.3732">
        <ele>171.2</ele>
        <time>2019-08-18T07:13:01.000Z</time>
      </trkpt>
      <trkpt lat="43.17023" lon="2.37317">
        <ele>171.4</ele>
        <time>2019-08-18T07:13:02.000Z</time>
      </trkpt>
      <trkpt lat="43.17022" lon="2.37315">
        <ele>171.5</ele>
        <time>2019-08-18T07:13:03.000Z</time>
      </trkpt>
      <trkpt lat="43.17022" lon="2.37313">
        <ele>171.6</ele>
        <time>2019-08-18T07:13:04.000Z</time>
      </trkpt>
      <trkpt lat="43.17021" lon="2.3731">
        <ele>171.8</ele>
        <time>2019-08-18T07:13:05.000Z</time>
      </trkpt>
      <trkpt lat="43.1702" lon="2.37308">
        <ele>171.9</ele>
        <time>2019-08-18T07:13:06.000Z</time>
      </trkpt>
      <trkpt lat="43.1702" lon="2.37306">
        <ele>172</ele>
        <time>2019-08-18T07:13:07.000Z</time>
      </trkpt>
      <trkpt lat="43.17019" lon="2.37303">
        <ele>172.2</ele>
        <time>2019-08-18T07:13:08.000Z</time>
      </trkpt>
      <trkpt lat="43.17018" lon="2.37301">
        <ele>172.4</ele>
        <time>2019-08-18T07:13:09.000Z</time>
      </trkpt>
      <trkpt lat="43.17017" lon="2.37299">
        <ele>172.6</ele>
        <time>2019-08-18T07:13:10.000Z</time>
      </trkpt>
      <trkpt lat="43.17015" lon="2.37297">
        <ele>172.8</ele>
        <time>2019-08-18T07:13:11.000Z</time>
      </trkpt>
      <trkpt lat="43.17014" lon="2.37295">
        <ele>173</ele>
        <time>2019-08-18T07:13:12.000Z</time>
      </trkpt>
      <trkpt lat="43.17012" lon="2.37293">
        <ele>173.2</ele>
        <time>2019-08-18T07:13:13.000Z</time>
      </trkpt>
      <trkpt lat="43.1701" lon="2.37291">
        <ele>173.5</ele>
        <time>2019-08-18T07:13:14.000Z</time>
      </trkpt>
      <trkpt lat="43.17008" lon="2.37289">
        <ele>173.8</ele>
        <time>2019-08-18T07:13:15.000Z</time>
      </trkpt>
      <trkpt lat="43.17007" lon="2.37287">
        <ele>174</ele>
        <time>2019-08-18T07:13:16.000Z</time>
      </trkpt>
      <trkpt lat="43.17005" lon="2.37285">
        <ele>174.3</ele>
        <time>2019-08-18T07:13:17.000Z</time>
      </trkpt>
      <trkpt lat="43.17003" lon="2.37283">
        <ele>174.5</ele>
        <time>2019-08-18T07:13:18.000Z</time>
      </trkpt>
      <trkpt lat="43.17001" lon="2.37281">
        <ele>174.8</ele>
        <time>2019-08-18T07:13:19.000Z</time>
      </trkpt>
      <trkpt lat="43.17" lon="2.37279">
        <ele>175</ele>
        <time>2019-08-18T07:13:20.000Z</time>
      </trkpt>
      <trkpt lat="43.16998" lon="2.37277">
        <ele>175.1</ele>
        <time>2019-08-18T07:13:21.000Z</time>
      </trkpt>
      <trkpt lat="43.16997" lon="2.37275">
        <ele>175.2</ele>
        <time>2019-08-18T07:13:22.000Z</time>
      </trkpt>
      <trkpt lat="43.16995" lon="2.37274">
        <ele>175.3</ele>
        <time>2019-08-18T07:13:23.000Z</time>
      </trkpt>
      <trkpt lat="43.16994" lon="2.37272">
        <ele>175.5</ele>
        <time>2019-08-18T07:13:24.000Z</time>
      </trkpt>
      <trkpt lat="43.16992" lon="2.3727">
        <ele>175.6</ele>
        <time>2019-08-18T07:13:25.000Z</time>
      </trkpt>
      <trkpt lat="43.16991" lon="2.37268">
        <ele>175.7</ele>
        <time>2019-08-18T07:13:26.000Z</time>
      </trkpt>
      <trkpt lat="43.16989" lon="2.37267">
        <ele>175.8</ele>
        <time>2019-08-18T07:13:27.000Z</time>
      </trkpt>
      <trkpt lat="43.16988" lon="2.37265">
        <ele>175.9</ele>
        <time>2019-08-18T07:13:28.000Z</time>
      </trkpt>
      <trkpt lat="43.16986" lon="2.37263">
        <ele>176</ele>
        <time>2019-08-18T07:13:29.000Z</time>
      </trkpt>
      <trkpt lat="43.16985" lon="2.37261">
        <ele>176.2</ele>
        <time>2019-08-18T07:13:30.000Z</time>
      </trkpt>
      <trkpt lat="43.16983" lon="2.3726">
        <ele>176.3</ele>
        <time>2019-08-18T07:13:31.000Z</time>
      </trkpt>
      <trkpt lat="43.16982" lon="2.37258">
        <ele>176.4</ele>
        <time>2019-08-18T07:13:32.000Z</time>
      </trkpt>
      <trkpt lat="43.1698" lon="2.37256">
        <ele>176.5</ele>
        <time>2019-08-18T07:13:33.000Z</time>
      </trkpt>
      <trkpt lat="43.16978" lon="2.37254">
        <ele>176.7</ele>
        <time>2019-08-18T07:13:34.000Z</time>
      </trkpt>
      <trkpt lat="43.16976" lon="2.37252">
        <ele>176.8</ele>
        <time>2019-08-18T07:13:35.000Z</time>
      </trkpt>
      <trkpt lat="43.16975" lon="2.3725">
        <ele>176.9</ele>
        <time>2019-08-18T07:13:36.000Z</time>
      </trkpt>
      <trkpt lat="43.16973" lon="2.37248">
        <ele>177</ele>
        <time>2019-08-18T07:13:37.000Z</time>
      </trkpt>
      <trkpt lat="43.16971" lon="2.37246">
        <ele>177.1</ele>
        <time>2019-08-18T07:13:38.000Z</time>
      </trkpt>
      <trkpt lat="43.16969" lon="2.37244">
        <ele>177.1</ele>
        <time>2019-08-18T07:13:39.000Z</time>
      </trkpt>
      <trkpt lat="43.16967" lon="2.37242">
        <ele>177.2</ele>
        <time>2019-08-18T07:13:40.000Z</time>
      </trkpt>
      <trkpt lat="43.16965" lon="2.3724">
        <ele>177.3</ele>
        <time>2019-08-18T07:13:41.000Z</time>
      </trkpt>
      <trkpt lat="43.16963" lon="2.37238">
        <ele>177.4</ele>
        <time>2019-08-18T07:13:42.000Z</time>
      </trkpt>
      <trkpt lat="43.16961" lon="2.37236">
        <ele>177.5</ele>
        <time>2019-08-18T07:13:43.000Z</time>
      </trkpt>
      <trkpt lat="43.16959" lon="2.37234">
        <ele>177.6</ele>
        <time>2019-08-18T07:13:44.000Z</time>
      </trkpt>
      <trkpt lat="43.16957" lon="2.37233">
        <ele>177.7</ele>
        <time>2019-08-18T07:13:45.000Z</time>
      </trkpt>
      <trkpt lat="43.16955" lon="2.37231">
        <ele>177.7</ele>
        <time>2019-08-18T07:13:46.000Z</time>
      </trkpt>
      <trkpt lat="43.16953" lon="2.37229">
        <ele>177.8</ele>
        <time>2019-08-18T07:13:47.000Z</time>
      </trkpt>
      <trkpt lat="43.16951" lon="2.37227">
        <ele>177.9</ele>
        <time>2019-08-18T07:13:48.000Z</time>
      </trkpt>
      <trkpt lat="43.16949" lon="2.37225">
        <ele>178</ele>
        <time>2019-08-18T07:13:49.000Z</time>
      </trkpt>
      <trkpt lat="43.16948" lon="2.37224">
        <ele>178.1</ele>
        <time>2019-08-18T07:13:50.000Z</time>
      </trkpt>
      <trkpt lat="43.16946" lon="2.37222">
        <ele>178.2</ele>
        <time>2019-08-18T07:13:51.000Z</time>
      </trkpt>
      <trkpt lat="43.16944" lon="2.3722">
        <ele>178.3</ele>
        <time>2019-08-18T07:13:52.000Z</time>
      </trkpt>
      <trkpt lat="43.16942" lon="2.37218">
        <ele>178.4</ele>
        <time>2019-08-18T07:13:53.000Z</time>
      </trkpt>
      <trkpt lat="43.1694" lon="2.37217">
        <ele>178.5</ele>
        <time>2019-08-18T07:13:54.000Z</time>
      </trkpt>
      <trkpt lat="43.16938" lon="2.37215">
        <ele>178.5</ele>
        <time>2019-08-18T07:13:55.000Z</time>
      </trkpt>
      <trkpt lat="43.16936" lon="2.37213">
        <ele>178.6</ele>
        <time>2019-08-18T07:13:56.000Z</time>
      </trkpt>
      <trkpt lat="43.16934" lon="2.37211">
        <ele>178.7</ele>
        <time>2019-08-18T07:13:57.000Z</time>
      </trkpt>
      <trkpt lat="43.16932" lon="2.37209">
        <ele>178.8</ele>
        <time>2019-08-18T07:13:58.000Z</time>
      </trkpt>
      <trkpt lat="43.1693" lon="2.37207">
        <ele>178.9</ele>
        <time>2019-08-18T07:13:59.000Z</time>
      </trkpt>
      <trkpt lat="43.16929" lon="2.37206">
        <ele>179</ele>
        <time>2019-08-18T07:14:00.000Z</time>
      </trkpt>
      <trkpt lat="43.16927" lon="2.37204">
        <ele>179.1</ele>
        <time>2019-08-18T07:14:01.000Z</time>
      </trkpt>
      <trkpt lat="43.16925" lon="2.37202">
        <ele>179.2</ele>
        <time>2019-08-18T07:14:02.000Z</time>
      </trkpt>
      <trkpt lat="43.16923" lon="2.372">
        <ele>179.3</ele>
        <time>2019-08-18T07:14:03.000Z</time>
      </trkpt>
      <trkpt lat="43.16921" lon="2.37198">
        <ele>179.5</ele>
        <time>2019-08-18T07:14:04.000Z</time>
      </trkpt>
      <trkpt lat="43.16919" lon="2.37196">
        <ele>179.6</ele>
        <time>2019-08-18T07:14:05.000Z</time>
      </trkpt>
      <trkpt lat="43.16917" lon="2.37194">
        <ele>179.7</ele>
        <time>2019-08-18T07:14:06.000Z</time>
      </trkpt>
      <trkpt lat="43.16915" lon="2.37192">
        <ele>179.8</ele>
        <time>2019-08-18T07:14:07.000Z</time>
      </trkpt>
      <trkpt lat="43.16913" lon="2.3719">
        <ele>179.9</ele>
        <time>2019-08-18T07:14:08.000Z</time>
      </trkpt>
      <trkpt lat="43.16911" lon="2.37188">
        <ele>180</ele>
        <time>2019-08-18T07:14:09.000Z</time>
      </trkpt>
      <trkpt lat="43.16909" lon="2.37185">
        <ele>180.1</ele>
        <time>2019-08-18T07:14:10.000Z</time>
      </trkpt>
      <trkpt lat="43.16907" lon="2.37183">
        <ele>180.2</ele>
        <time>2019-08-18T07:14:11.000Z</time>
      </trkpt>
      <trkpt lat="43.16905" lon="2.37181">
        <ele>180.3</ele>
        <time>2019-08-18T07:14:12.000Z</time>
      </trkpt>
      <trkpt lat="43.16903" lon="2.37179">
        <ele>180.4</ele>
        <time>2019-08-18T07:14:13.000Z</time>
      </trkpt>
      <trkpt lat="43.16901" lon="2.37177">
        <ele>180.6</ele>
        <time>2019-08-18T07:14:14.000Z</time>
      </trkpt>
      <trkpt lat="43.16899" lon="2.37175">
        <ele>180.7</ele>
        <time>2019-08-18T07:14:15.000Z</time>
      </trkpt>
      <trkpt lat="43.16897" lon="2.37173">
        <ele>180.8</ele>
        <time>2019-08-18T07:14:16.000Z</time>
      </trkpt>
      <trkpt lat="43.16895" lon="2.3717">
        <ele>181</ele>
        <time>2019-08-18T07:14:17.000Z</time>
      </trkpt>
      <trkpt lat="43.16893" lon="2.37168">
        <ele>181.1</ele>
        <time>2019-08-18T07:14:18.000Z</time>
      </trkpt>
      <trkpt lat="43.16891" lon="2.37166">
        <ele>181.2</ele>
        <time>2019-08-18T07:14:19.000Z</time>
      </trkpt>
      <trkpt lat="43.16889" lon="2.37164">
        <ele>181.3</ele>
        <time>2019-08-18T07:14:20.000Z</time>
      </trkpt>
      <trkpt lat="43.16887" lon="2.37162">
        <ele>181.4</ele>
        <time>2019-08-18T07:14:21.000Z</time>
      </trkpt>
      <trkpt lat="43.16885" lon="2.37159">
        <ele>181.6</ele>
        <time>2019-08-18T07:14:22.000Z</time>
      </trkpt>
      <trkpt lat="43.16883" lon="2.37157">
        <ele>181.7</ele>
        <time>2019-08-18T07:14:23.000Z</time>
      </trkpt>
      <trkpt lat="43.16881" lon="2.37155">
        <ele>181.8</ele>
        <time>2019-08-18T07:14:24.000Z</time>
      </trkpt>
      <trkpt lat="43.16879" lon="2.37153">
        <ele>181.9</ele>
        <time>2019-08-18T07:14:25.000Z</time>
      </trkpt>
      <trkpt lat="43.16877" lon="2.3715">
        <ele>182.1</ele>
        <time>2019-08-18T07:14:26.000Z</time>
      </trkpt>
      <trkpt lat="43.16875" lon="2.37148">
        <ele>182.2</ele>
        <time>2019-08-18T07:14:27.000Z</time>
      </trkpt>
      <trkpt lat="43.16873" lon="2.37146">
        <ele>182.4</ele>
        <time>2019-08-18T07:14:28.000Z</time>
      </trkpt>
      <trkpt lat="43.16871" lon="2.37144">
        <ele>182.6</ele>
        <time>2019-08-18T07:14:29.000Z</time>
      </trkpt>
      <trkpt lat="43.1687" lon="2.37141">
        <ele>182.7</ele>
        <time>2019-08-18T07:14:30.000Z</time>
      </trkpt>
      <trkpt lat="43.16868" lon="2.37139">
        <ele>182.9</ele>
        <time>2019-08-18T07:14:31.000Z</time>
      </trkpt>
      <trkpt lat="43.16866" lon="2.37137">
        <ele>183.1</ele>
        <time>2019-08-18T07:14:32.000Z</time>
      </trkpt>
      <trkpt lat="43.16864" lon="2.37135">
        <ele>183.3</ele>
        <time>2019-08-18T07:14:33.000Z</time>
      </trkpt>
      <trkpt lat="43.16863" lon="2.37133">
        <ele>183.5</ele>
        <time>2019-08-18T07:14:34.000Z</time>
      </trkpt>
      <trkpt lat="43.16861" lon="2.37132">
        <ele>183.6</ele>
        <time>2019-08-18T07:14:35.000Z</time>
      </trkpt>
      <trkpt lat="43.16859" lon="2.37131">
        <ele>183.8</ele>
        <time>2019-08-18T07:14:36.000Z</time>
      </trkpt>
      <trkpt lat="43.16858" lon="2.37129">
        <ele>184</ele>
        <time>2019-08-18T07:14:37.000Z</time>
      </trkpt>
      <trkpt lat="43.16856" lon="2.37128">
        <ele>184.2</ele>
        <time>2019-08-18T07:14:38.000Z</time>
      </trkpt>
      <trkpt lat="43.16855" lon="2.37127">
        <ele>184.4</ele>
        <time>2019-08-18T07:14:39.000Z</time>
      </trkpt>
      <trkpt lat="43.16853" lon="2.37125">
        <ele>184.6</ele>
        <time>2019-08-18T07:14:40.000Z</time>
      </trkpt>
      <trkpt lat="43.16852" lon="2.37123">
        <ele>184.8</ele>
        <time>2019-08-18T07:14:41.000Z</time>
      </trkpt>
      <trkpt lat="43.16851" lon="2.37121">
        <ele>185</ele>
        <time>2019-08-18T07:14:42.000Z</time>
      </trkpt>
      <trkpt lat="43.1685" lon="2.37119">
        <ele>185.2</ele>
        <time>2019-08-18T07:14:43.000Z</time>
      </trkpt>
      <trkpt lat="43.16849" lon="2.37116">
        <ele>185.4</ele>
        <time>2019-08-18T07:14:44.000Z</time>
      </trkpt>
      <trkpt lat="43.16848" lon="2.37113">
        <ele>185.6</ele>
        <time>2019-08-18T07:14:45.000Z</time>
      </trkpt>
      <trkpt lat="43.16847" lon="2.37111">
        <ele>185.8</ele>
        <time>2019-08-18T07:14:46.000Z</time>
      </trkpt>
      <trkpt lat="43.16847" lon="2.3711">
        <ele>185.9</ele>
        <time>2019-08-18T07:14:47.000Z</time>
      </trkpt>
      <trkpt lat="43.16847" lon="2.3711">
        <ele>185.9</ele>
        <time>2019-08-18T07:14:48.000Z</time>
      </trkpt>
      <trkpt lat="43.16847" lon="2.37109">
        <ele>186</ele>
        <time>2019-08-18T07:14:49.000Z</time>
      </trkpt>
      <trkpt lat="43.16846" lon="2.37108">
        <ele>186</ele>
        <time>2019-08-18T07:14:50.000Z</time>
      </trkpt>
      <trkpt lat="43.16846" lon="2.37107">
        <ele>186.1</ele>
        <time>2019-08-18T07:14:51.000Z</time>
      </trkpt>
      <trkpt lat="43.16846" lon="2.37106">
        <ele>186.2</ele>
        <time>2019-08-18T07:14:52.000Z</time>
      </trkpt>
      <trkpt lat="43.16846" lon="2.37104">
        <ele>186.3</ele>
        <time>2019-08-18T07:14:53.000Z</time>
      </trkpt>
      <trkpt lat="43.16845" lon="2.37102">
        <ele>186.5</ele>
        <time>2019-08-18T07:14:54.000Z</time>
      </trkpt>
      <trkpt lat="43.16844" lon="2.37099">
        <ele>186.7</ele>
        <time>2019-08-18T07:14:55.000Z</time>
      </trkpt>
      <trkpt lat="43.16843" lon="2.37096">
        <ele>186.9</ele>
        <time>2019-08-18T07:14:56.000Z</time>
      </trkpt>
      <trkpt lat="43.16842" lon="2.37093">
        <ele>187.2</ele>
        <time>2019-08-18T07:14:57.000Z</time>
      </trkpt>
      <trkpt lat="43.16841" lon="2.37089">
        <ele>187.5</ele>
        <time>2019-08-18T07:14:58.000Z</time>
      </trkpt>
      <trkpt lat="43.1684" lon="2.37086">
        <ele>187.9</ele>
        <time>2019-08-18T07:14:59.000Z</time>
      </trkpt>
      <trkpt lat="43.16839" lon="2.37083">
        <ele>188.2</ele>
        <time>2019-08-18T07:15:00.000Z</time>
      </trkpt>
      <trkpt lat="43.16839" lon="2.37081">
        <ele>188.4</ele>
        <time>2019-08-18T07:15:01.000Z</time>
      </trkpt>
      <trkpt lat="43.16838" lon="2.37079">
        <ele>188.6</ele>
        <time>2019-08-18T07:15:02.000Z</time>
      </trkpt>
      <trkpt lat="43.16837" lon="2.37077">
        <ele>188.9</ele>
        <time>2019-08-18T07:15:03.000Z</time>
      </trkpt>
      <trkpt lat="43.16837" lon="2.37074">
        <ele>189.1</ele>
        <time>2019-08-18T07:15:04.000Z</time>
      </trkpt>
      <trkpt lat="43.16836" lon="2.37072">
        <ele>189.4</ele>
        <time>2019-08-18T07:15:05.000Z</time>
      </trkpt>
      <trkpt lat="43.16835" lon="2.37069">
        <ele>189.8</ele>
        <time>2019-08-18T07:15:06.000Z</time>
      </trkpt>
      <trkpt lat="43.16834" lon="2.37066">
        <ele>190.1</ele>
        <time>2019-08-18T07:15:07.000Z</time>
      </trkpt>
      <trkpt lat="43.16833" lon="2.37063">
        <ele>190.5</ele>
        <time>2019-08-18T07:15:08.000Z</time>
      </trkpt>
      <trkpt lat="43.16832" lon="2.37061">
        <ele>190.8</ele>
        <time>2019-08-18T07:15:09.000Z</time>
      </trkpt>
      <trkpt lat="43.16831" lon="2.37058">
        <ele>191.1</ele>
        <time>2019-08-18T07:15:10.000Z</time>
      </trkpt>
      <trkpt lat="43.1683" lon="2.37055">
        <ele>191.4</ele>
        <time>2019-08-18T07:15:11.000Z</time>
      </trkpt>
      <trkpt lat="43.16829" lon="2.37053">
        <ele>191.7</ele>
        <time>2019-08-18T07:15:12.000Z</time>
      </trkpt>
      <trkpt lat="43.16828" lon="2.3705">
        <ele>192</ele>
        <time>2019-08-18T07:15:13.000Z</time>
      </trkpt>
      <trkpt lat="43.16828" lon="2.37048">
        <ele>192.2</ele>
        <time>2019-08-18T07:15:14.000Z</time>
      </trkpt>
      <trkpt lat="43.16827" lon="2.37045">
        <ele>192.5</ele>
        <time>2019-08-18T07:15:15.000Z</time>
      </trkpt>
      <trkpt lat="43.16826" lon="2.37043">
        <ele>192.7</ele>
        <time>2019-08-18T07:15:16.000Z</time>
      </trkpt>
      <trkpt lat="43.16825" lon="2.37041">
        <ele>193</ele>
        <time>2019-08-18T07:15:17.000Z</time>
      </trkpt>
      <trkpt lat="43.16825" lon="2.37039">
        <ele>193.2</ele>
        <time>2019-08-18T07:15:18.000Z</time>
      </trkpt>
      <trkpt lat="43.16824" lon="2.37036">
        <ele>193.5</ele>
        <time>2019-08-18T07:15:19.000Z</time>
      </trkpt>
      <trkpt lat="43.16823" lon="2.37034">
        <ele>193.7</ele>
        <time>2019-08-18T07:15:20.000Z</time>
      </trkpt>
      <trkpt lat="43.16823" lon="2.37032">
        <ele>194</ele>
        <time>2019-08-18T07:15:21.000Z</time>
      </trkpt>
      <trkpt lat="43.16822" lon="2.37029">
        <ele>194.2</ele>
        <time>2019-08-18T07:15:22.000Z</time>
      </trkpt>
      <trkpt lat="43.16821" lon="2.37027">
        <ele>194.5</ele>
        <time>2019-08-18T07:15:23.000Z</time>
      </trkpt>
      <trkpt lat="43.16821" lon="2.37025">
        <ele>194.8</ele>
        <time>2019-08-18T07:15:24.000Z</time>
      </trkpt>
      <trkpt lat="43.1682" lon="2.37022">
        <ele>195</ele>
        <time>2019-08-18T07:15:25.000Z</time>
      </trkpt>
      <trkpt lat="43.1682" lon="2.3702">
        <ele>195.3</ele>
        <time>2019-08-18T07:15:26.000Z</time>
      </trkpt>
      <trkpt lat="43.16819" lon="2.37017">
        <ele>195.6</ele>
        <time>2019-08-18T07:15:27.000Z</time>
      </trkpt>
      <trkpt lat="43.16819" lon="2.37015">
        <ele>195.8</ele>
        <time>2019-08-18T07:15:28.000Z</time>
      </trkpt>
      <trkpt lat="43.16818" lon="2.37012">
        <ele>196.1</ele>
        <time>2019-08-18T07:15:29.000Z</time>
      </trkpt>
      <trkpt lat="43.16818" lon="2.3701">
        <ele>196.3</ele>
        <time>2019-08-18T07:15:30.000Z</time>
      </trkpt>
      <trkpt lat="43.16817" lon="2.37009">
        <ele>196.5</ele>
        <time>2019-08-18T07:15:31.000Z</time>
      </trkpt>
      <trkpt lat="43.16817" lon="2.37007">
        <ele>196.6</ele>
        <time>2019-08-18T07:15:32.000Z</time>
      </trkpt>
      <trkpt lat="43.16816" lon="2.37006">
        <ele>196.8</ele>
        <time>2019-08-18T07:15:33.000Z</time>
      </trkpt>
      <trkpt lat="43.16816" lon="2.37005">
        <ele>196.9</ele>
        <time>2019-08-18T07:15:34.000Z</time>
      </trkpt>
      <trkpt lat="43.16816" lon="2.37005">
        <ele>197</ele>
        <time>2019-08-18T07:15:35.000Z</time>
      </trkpt>
      <trkpt lat="43.16816" lon="2.37004">
        <ele>197</ele>
        <time>2019-08-18T07:15:36.000Z</time>
      </trkpt>
      <trkpt lat="43.16816" lon="2.37004">
        <ele>197.1</ele>
        <time>2019-08-18T07:15:37.000Z</time>
      </trkpt>
      <trkpt lat="43.16815" lon="2.37004">
        <ele>197.1</ele>
        <time>2019-08-18T07:15:38.000Z</time>
      </trkpt>
      <trkpt lat="43.16815" lon="2.37003">
        <ele>197.1</ele>
        <time>2019-08-18T07:15:39.000Z</time>
      </trkpt>
      <trkpt lat="43.16815" lon="2.37003">
        <ele>197.2</ele>
        <time>2019-08-18T07:15:40.000Z</time>
      </trkpt>
      <trkpt lat="43.16815" lon="2.37003">
        <ele>197.2</ele>
        <time>2019-08-18T07:15:41.000Z</time>
      </trkpt>
      <trkpt lat="43.16815" lon="2.37003">
        <ele>197.2</ele>
        <time>2019-08-18T07:15:42.000Z</time>
      </trkpt>
      <trkpt lat="43.16815" lon="2.37003">
        <ele>197.2</ele>
        <time>2019-08-18T07:15:43.000Z</time>
      </trkpt>
      <trkpt lat="43.16815" lon="2.37003">
        <ele>197.2</ele>
        <time>2019-08-18T07:15:44.000Z</time>
      </trkpt>
      <trkpt lat="43.16815" lon="2.37003">
        <ele>197.3</ele>
        <time>2019-08-18T07:15:45.000Z</time>
      </trkpt>
      <trkpt lat="43.16815" lon="2.37003">
        <ele>197.3</ele>
        <time>2019-08-18T07:15:46.000Z</time>
      </trkpt>
      <trkpt lat="43.16815" lon="2.37003">
        <ele>197.3</ele>
        <time>2019-08-18T07:15:47.000Z</time>
      </trkpt>
      <trkpt lat="43.16815" lon="2.37003">
        <ele>197.3</ele>
        <time>2019-08-18T07:15:48.000Z</time>
      </trkpt>
      <trkpt lat="43.16815" lon="2.37003">
        <ele>197.3</ele>
        <time>2019-08-18T07:15:49.000Z</time>
      </trkpt>
      <trkpt lat="43.16815" lon="2.37003">
        <ele>197.3</ele>
        <time>2019-08-18T07:15:50.000Z</time>
      </trkpt>
      <trkpt lat="43.16815" lon="2.37003">
        <ele>197.3</ele>
        <time>2019-08-18T07:15:51.000Z</time>
      </trkpt>
      <trkpt lat="43.16815" lon="2.37003">
        <ele>197.3</ele>
        <time>2019-08-18T07:15:52.000Z</time>
      </trkpt>
      <trkpt lat="43.16815" lon="2.37003">
        <ele>197.3</ele>
        <time>2019-08-18T07:15:53.000Z</time>
      </trkpt>
      <trkpt lat="43.16815" lon="2.37003">
        <ele>197.3</ele>
        <time>2019-08-18T07:15:54.000Z</time>
      </trkpt>
      <trkpt lat="43.16815" lon="2.37003">
        <ele>197.3</ele>
        <time>2019-08-18T07:15:55.000Z</time>
      </trkpt>
      <trkpt lat="43.16815" lon="2.37003">
        <ele>197.3</ele>
        <time>2019-08-18T07:15:56.000Z</time>
      </trkpt>
      <trkpt lat="43.16815" lon="2.37003">
        <ele>197.3</ele>
        <time>2019-08-18T07:15:57.000Z</time>
      </trkpt>
      <trkpt lat="43.16815" lon="2.37003">
        <ele>197.3</ele>
        <time>2019-08-18T07:15:58.000Z</time>
      </trkpt>
      <trkpt lat="43.16815" lon="2.37003">
        <ele>197.3</ele>
        <time>2019-08-18T07:15:59.000Z</time>
      </trkpt>
      <trkpt lat="43.16815" lon="2.37003">
        <ele>197.3</ele>
        <time>2019-08-18T07:16:00.000Z</time>
      </trkpt>
      <trkpt lat="43.16815" lon="2.37003">
        <ele>197.3</ele>
        <time>2019-08-18T07:16:01.000Z</time>
      </trkpt>
      <trkpt lat="43.16815" lon="2.37003">
        <ele>197.3</ele>
        <time>2019-08-18T07:16:02.000Z</time>
      </trkpt>
      <trkpt lat="43.16815" lon="2.37003">
        <ele>197.3</ele>
        <time>2019-08-18T07:16:03.000Z</time>
      </trkpt>
      <trkpt lat="43.16815" lon="2.37003">
        <ele>197.3</ele>
        <time>2019-08-18T07:16:04.000Z</time>
      </trkpt>
      <trkpt lat="43.16815" lon="2.37003">
        <ele>197.3</ele>
        <time>2019-08-18T07:16:05.000Z</time>
      </trkpt>
      <trkpt lat="43.16815" lon="2.37003">
        <ele>197.3</ele>
        <time>2019-08-18T07:16:06.000Z</time>
      </trkpt>
      <trkpt lat="43.16815" lon="2.37003">
        <ele>197.3</ele>
        <time>2019-08-18T07:16:07.000Z</time>
      </trkpt>
      <trkpt lat="43.16815" lon="2.37003">
        <ele>197.3</ele>
        <time>2019-08-18T07:16:08.000Z</time>
      </trkpt>
      <trkpt lat="43.16815" lon="2.37003">
        <ele>197.3</ele>
        <time>2019-08-18T07:16:09.000Z</time>
      </trkpt>
      <trkpt lat="43.16815" lon="2.37003">
        <ele>197.3</ele>
        <time>2019-08-18T07:16:10.000Z</time>
      </trkpt>
      <trkpt lat="43.16815" lon="2.37003">
        <ele>197.3</ele>
        <time>2019-08-18T07:16:11.000Z</time>
      </trkpt>
      <trkpt lat="43.16815" lon="2.37003">
        <ele>197.3</ele>
        <time>2019-08-18T07:16:12.000Z</time>
      </trkpt>
      <trkpt lat="43.16815" lon="2.37003">
        <ele>197.3</ele>
        <time>2019-08-18T07:16:13.000Z</time>
      </trkpt>
      <trkpt lat="43.16815" lon="2.37003">
        <ele>197.3</ele>
        <time>2019-08-18T07:16:14.000Z</time>
      </trkpt>
      <trkpt lat="43.16815" lon="2.37003">
        <ele>197.3</ele>
        <time>2019-08-18T07:16:15.000Z</time>
      </trkpt>
      <trkpt lat="43.16815" lon="2.37003">
        <ele>197.3</ele>
        <time>2019-08-18T07:16:16.000Z</time>
      </trkpt>
      <trkpt lat="43.16815" lon="2.37003">
        <ele>197.3</ele>
        <time>2019-08-18T07:16:17.000Z</time>
      </trkpt>
      <trkpt lat="43.16815" lon="2.37003">
        <ele>197.3</ele>
        <time>2019-08-18T07:16:18.000Z</time>
      </trkpt>
      <trkpt lat="43.16815" lon="2.37003">
        <ele>197.3</ele>
        <time>2019-08-18T07:16:19.000Z</time>
      </trkpt>
      <trkpt lat="43.16815" lon="2.37003">
        <ele>197.3</ele>
        <time>2019-08-18T07:16:20.000Z</time>
      </trkpt>
      <trkpt lat="43.16815" lon="2.37003">
        <ele>197.3</ele>
        <time>2019-08-18T07:16:21.000Z</time>
      </trkpt>
      <trkpt lat="43.16815" lon="2.37003">
        <ele>197.3</ele>
        <time>2019-08-18T07:16:22.000Z</time>
      </trkpt>
      <trkpt lat="43.16815" lon="2.37003">
        <ele>197.3</ele>
        <time>2019-08-18T07:16:23.000Z</time>
      </trkpt>
      <trkpt lat="43.16815" lon="2.37003">
        <ele>197.3</ele>
        <time>2019-08-18T07:16:24.000Z</time>
      </trkpt>
      <trkpt lat="43.16815" lon="2.37003">
        <ele>197.3</ele>
        <time>2019-08-18T07:16:25.000Z</time>
      </trkpt>
      <trkpt lat="43.16815" lon="2.37003">
        <ele>197.3</ele>
        <time>2019-08-18T07:16:26.000Z</time>
      </trkpt>
      <trkpt lat="43.16815" lon="2.37003">
        <ele>197.3</ele>
        <time>2019-08-18T07:16:27.000Z</time>
      </trkpt>
      <trkpt lat="43.16815" lon="2.37003">
        <ele>197.3</ele>
        <time>2019-08-18T07:16:28.000Z</time>
      </trkpt>
      <trkpt lat="43.16815" lon="2.37003">
        <ele>197.3</ele>
        <time>2019-08-18T07:16:29.000Z</time>
      </trkpt>
      <trkpt lat="43.16815" lon="2.37002">
        <ele>197.3</ele>
        <time>2019-08-18T07:16:30.000Z</time>
      </trkpt>
      <trkpt lat="43.16815" lon="2.37002">
        <ele>197.3</ele>
        <time>2019-08-18T07:16:31.000Z</time>
      </trkpt>
      <trkpt lat="43.16815" lon="2.37002">
        <ele>197.3</ele>
        <time>2019-08-18T07:16:32.000Z</time>
      </trkpt>
      <trkpt lat="43.16815" lon="2.37002">
        <ele>197.3</ele>
        <time>2019-08-18T07:16:33.000Z</time>
      </trkpt>
      <trkpt lat="43.16815" lon="2.37002">
        <ele>197.3</ele>
        <time>2019-08-18T07:16:34.000Z</time>
      </trkpt>
      <trkpt lat="43.16815" lon="2.37002">
        <ele>197.3</ele>
        <time>2019-08-18T07:16:35.000Z</time>
      </trkpt>
      <trkpt lat="43.16814" lon="2.37002">
        <ele>197.4</ele>
        <time>2019-08-18T07:16:36.000Z</time>
      </trkpt>
      <trkpt lat="43.16814" lon="2.37001">
        <ele>197.4</ele>
        <time>2019-08-18T07:16:37.000Z</time>
      </trkpt>
      <trkpt lat="43.16814" lon="2.37001">
        <ele>197.5</ele>
        <time>2019-08-18T07:16:38.000Z</time>
      </trkpt>
      <trkpt lat="43.16814" lon="2.37">
        <ele>197.5</ele>
        <time>2019-08-18T07:16:39.000Z</time>
      </trkpt>
      <trkpt lat="43.16814" lon="2.37">
        <ele>197.5</ele>
        <time>2019-08-18T07:16:40.000Z</time>
      </trkpt>
      <trkpt lat="43.16814" lon="2.36999">
        <ele>197.5</ele>
        <time>2019-08-18T07:16:41.000Z</time>
      </trkpt>
      <trkpt lat="43.16815" lon="2.36998">
        <ele>197.5</ele>
        <time>2019-08-18T07:16:42.000Z</time>
      </trkpt>
      <trkpt lat="43.16815" lon="2.36997">
        <ele>197.5</ele>
        <time>2019-08-18T07:16:43.000Z</time>
      </trkpt>
      <trkpt lat="43.16815" lon="2.36996">
        <ele>197.5</ele>
        <time>2019-08-18T07:16:44.000Z</time>
      </trkpt>
      <trkpt lat="43.16815" lon="2.36994">
        <ele>197.5</ele>
        <time>2019-08-18T07:16:45.000Z</time>
      </trkpt>
      <trkpt lat="43.16816" lon="2.36993">
        <ele>197.4</ele>
        <time>2019-08-18T07:16:46.000Z</time>
      </trkpt>
      <trkpt lat="43.16816" lon="2.36991">
        <ele>197.4</ele>
        <time>2019-08-18T07:16:47.000Z</time>
      </trkpt>
      <trkpt lat="43.16816" lon="2.36989">
        <ele>197.4</ele>
        <time>2019-08-18T07:16:48.000Z</time>
      </trkpt>
      <trkpt lat="43.16816" lon="2.36987">
        <ele>197.5</ele>
        <time>2019-08-18T07:16:49.000Z</time>
      </trkpt>
      <trkpt lat="43.16816" lon="2.36985">
        <ele>197.5</ele>
        <time>2019-08-18T07:16:50.000Z</time>
      </trkpt>
      <trkpt lat="43.16816" lon="2.36983">
        <ele>197.6</ele>
        <time>2019-08-18T07:16:51.000Z</time>
      </trkpt>
      <trkpt lat="43.16816" lon="2.36981">
        <ele>197.6</ele>
        <time>2019-08-18T07:16:52.000Z</time>
      </trkpt>
      <trkpt lat="43.16815" lon="2.36978">
        <ele>197.7</ele>
        <time>2019-08-18T07:16:53.000Z</time>
      </trkpt>
      <trkpt lat="43.16815" lon="2.36975">
        <ele>197.9</ele>
        <time>2019-08-18T07:16:54.000Z</time>
      </trkpt>
      <trkpt lat="43.16814" lon="2.36973">
        <ele>198</ele>
        <time>2019-08-18T07:16:55.000Z</time>
      </trkpt>
      <trkpt lat="43.16814" lon="2.3697">
        <ele>198.2</ele>
        <time>2019-08-18T07:16:56.000Z</time>
      </trkpt>
      <trkpt lat="43.16813" lon="2.36967">
        <ele>198.3</ele>
        <time>2019-08-18T07:16:57.000Z</time>
      </trkpt>
      <trkpt lat="43.16812" lon="2.36964">
        <ele>198.5</ele>
        <time>2019-08-18T07:16:58.000Z</time>
      </trkpt>
      <trkpt lat="43.16811" lon="2.36961">
        <ele>198.7</ele>
        <time>2019-08-18T07:16:59.000Z</time>
      </trkpt>
      <trkpt lat="43.1681" lon="2.36957">
        <ele>198.9</ele>
        <time>2019-08-18T07:17:00.000Z</time>
      </trkpt>
      <trkpt lat="43.16809" lon="2.36954">
        <ele>199.2</ele>
        <time>2019-08-18T07:17:01.000Z</time>
      </trkpt>
      <trkpt lat="43.16807" lon="2.36951">
        <ele>199.4</ele>
        <time>2019-08-18T07:17:02.000Z</time>
      </trkpt>
      <trkpt lat="43.16806" lon="2.36947">
        <ele>199.6</ele>
        <time>2019-08-18T07:17:03.000Z</time>
      </trkpt>
      <trkpt lat="43.16805" lon="2.36944">
        <ele>199.9</ele>
        <time>2019-08-18T07:17:04.000Z</time>
      </trkpt>
      <trkpt lat="43.16804" lon="2.3694">
        <ele>200.2</ele>
        <time>2019-08-18T07:17:05.000Z</time>
      </trkpt>
      <trkpt lat="43.16802" lon="2.36936">
        <ele>200.5</ele>
        <time>2019-08-18T07:17:06.000Z</time>
      </trkpt>
      <trkpt lat="43.16801" lon="2.36933">
        <ele>200.7</ele>
        <time>2019-08-18T07:17:07.000Z</time>
      </trkpt>
      <trkpt lat="43.16799" lon="2.36929">
        <ele>201</ele>
        <time>2019-08-18T07:17:08.000Z</time>
      </trkpt>
      <trkpt lat="43.16798" lon="2.36926">
        <ele>201.3</ele>
        <time>2019-08-18T07:17:09.000Z</time>
      </trkpt>
      <trkpt lat="43.16797" lon="2.36922">
        <ele>201.6</ele>
        <time>2019-08-18T07:17:10.000Z</time>
      </trkpt>
      <trkpt lat="43.16796" lon="2.36919">
        <ele>201.8</ele>
        <time>2019-08-18T07:17:11.000Z</time>
      </trkpt>
      <trkpt lat="43.16794" lon="2.36916">
        <ele>202.1</ele>
        <time>2019-08-18T07:17:12.000Z</time>
      </trkpt>
      <trkpt lat="43.16793" lon="2.36913">
        <ele>202.2</ele>
        <time>2019-08-18T07:17:13.000Z</time>
      </trkpt>
      <trkpt lat="43.16792" lon="2.3691">
        <ele>202.4</ele>
        <time>2019-08-18T07:17:14.000Z</time>
      </trkpt>
      <trkpt lat="43.16791" lon="2.36907">
        <ele>202.5</ele>
        <time>2019-08-18T07:17:15.000Z</time>
      </trkpt>
      <trkpt lat="43.1679" lon="2.36904">
        <ele>202.6</ele>
        <time>2019-08-18T07:17:16.000Z</time>
      </trkpt>
      <trkpt lat="43.16789" lon="2.36901">
        <ele>202.8</ele>
        <time>2019-08-18T07:17:17.000Z</time>
      </trkpt>
      <trkpt lat="43.16789" lon="2.36899">
        <ele>202.9</ele>
        <time>2019-08-18T07:17:18.000Z</time>
      </trkpt>
      <trkpt lat="43.16788" lon="2.36896">
        <ele>203</ele>
        <time>2019-08-18T07:17:19.000Z</time>
      </trkpt>
      <trkpt lat="43.16787" lon="2.36894">
        <ele>203.1</ele>
        <time>2019-08-18T07:17:20.000Z</time>
      </trkpt>
      <trkpt lat="43.16787" lon="2.36892">
        <ele>203.2</ele>
        <time>2019-08-18T07:17:21.000Z</time>
      </trkpt>
      <trkpt lat="43.16786" lon="2.36889">
        <ele>203.2</ele>
        <time>2019-08-18T07:17:22.000Z</time>
      </trkpt>
      <trkpt lat="43.16785" lon="2.36887">
        <ele>203.3</ele>
        <time>2019-08-18T07:17:23.000Z</time>
      </trkpt>
      <trkpt lat="43.16785" lon="2.36885">
        <ele>203.4</ele>
        <time>2019-08-18T07:17:24.000Z</time>
      </trkpt>
      <trkpt lat="43.16784" lon="2.36883">
        <ele>203.5</ele>
        <time>2019-08-18T07:17:25.000Z</time>
      </trkpt>
      <trkpt lat="43.16783" lon="2.36881">
        <ele>203.7</ele>
        <time>2019-08-18T07:17:26.000Z</time>
      </trkpt>
      <trkpt lat="43.16782" lon="2.36879">
        <ele>203.8</ele>
        <time>2019-08-18T07:17:27.000Z</time>
      </trkpt>
      <trkpt lat="43.16781" lon="2.36877">
        <ele>203.9</ele>
        <time>2019-08-18T07:17:28.000Z</time>
      </trkpt>
      <trkpt lat="43.1678" lon="2.36876">
        <ele>204.1</ele>
        <time>2019-08-18T07:17:29.000Z</time>
      </trkpt>
      <trkpt lat="43.16779" lon="2.36874">
        <ele>204.4</ele>
        <time>2019-08-18T07:17:30.000Z</time>
      </trkpt>
      <trkpt lat="43.16777" lon="2.36873">
        <ele>204.6</ele>
        <time>2019-08-18T07:17:31.000Z</time>
      </trkpt>
      <trkpt lat="43.16775" lon="2.36872">
        <ele>205</ele>
        <time>2019-08-18T07:17:32.000Z</time>
      </trkpt>
      <trkpt lat="43.16773" lon="2.36872">
        <ele>205.3</ele>
        <time>2019-08-18T07:17:33.000Z</time>
      </trkpt>
      <trkpt lat="43.1677" lon="2.36871">
        <ele>205.7</ele>
        <time>2019-08-18T07:17:34.000Z</time>
      </trkpt>
      <trkpt lat="43.16768" lon="2.36871">
        <ele>206.1</ele>
        <time>2019-08-18T07:17:35.000Z</time>
      </trkpt>
      <trkpt lat="43.16766" lon="2.3687">
        <ele>206.5</ele>
        <time>2019-08-18T07:17:36.000Z</time>
      </trkpt>
      <trkpt lat="43.16763" lon="2.3687">
        <ele>206.9</ele>
        <time>2019-08-18T07:17:37.000Z</time>
      </trkpt>
      <trkpt lat="43.16761" lon="2.3687">
        <ele>207.3</ele>
        <time>2019-08-18T07:17:38.000Z</time>
      </trkpt>
      <trkpt lat="43.16759" lon="2.36869">
        <ele>207.6</ele>
        <time>2019-08-18T07:17:39.000Z</time>
      </trkpt>
      <trkpt lat="43.16756" lon="2.36869">
        <ele>208</ele>
        <time>2019-08-18T07:17:40.000Z</time>
      </trkpt>
      <trkpt lat="43.16754" lon="2.36869">
        <ele>208.3</ele>
        <time>2019-08-18T07:17:41.000Z</time>
      </trkpt>
      <trkpt lat="43.16753" lon="2.36869">
        <ele>208.6</ele>
        <time>2019-08-18T07:17:42.000Z</time>
      </trkpt>
      <trkpt lat="43.16751" lon="2.36869">
        <ele>208.9</ele>
        <time>2019-08-18T07:17:43.000Z</time>
      </trkpt>
      <trkpt lat="43.16749" lon="2.36869">
        <ele>209</ele>
        <time>2019-08-18T07:17:44.000Z</time>
      </trkpt>
      <trkpt lat="43.16747" lon="2.36869">
        <ele>209</ele>
        <time>2019-08-18T07:17:45.000Z</time>
      </trkpt>
      <trkpt lat="43.16745" lon="2.36869">
        <ele>209.1</ele>
        <time>2019-08-18T07:17:46.000Z</time>
      </trkpt>
      <trkpt lat="43.16742" lon="2.3687">
        <ele>209.1</ele>
        <time>2019-08-18T07:17:47.000Z</time>
      </trkpt>
      <trkpt lat="43.1674" lon="2.3687">
        <ele>209.1</ele>
        <time>2019-08-18T07:17:48.000Z</time>
      </trkpt>
      <trkpt lat="43.16738" lon="2.36869">
        <ele>209.2</ele>
        <time>2019-08-18T07:17:49.000Z</time>
      </trkpt>
      <trkpt lat="43.16737" lon="2.36869">
        <ele>209.2</ele>
        <time>2019-08-18T07:17:50.000Z</time>
      </trkpt>
      <trkpt lat="43.16735" lon="2.36867">
        <ele>209.2</ele>
        <time>2019-08-18T07:17:51.000Z</time>
      </trkpt>
      <trkpt lat="43.16734" lon="2.36865">
        <ele>209.2</ele>
        <time>2019-08-18T07:17:52.000Z</time>
      </trkpt>
      <trkpt lat="43.16733" lon="2.36862">
        <ele>209.3</ele>
        <time>2019-08-18T07:17:53.000Z</time>
      </trkpt>
      <trkpt lat="43.16732" lon="2.36859">
        <ele>209.3</ele>
        <time>2019-08-18T07:17:54.000Z</time>
      </trkpt>
      <trkpt lat="43.1673" lon="2.36855">
        <ele>209.3</ele>
        <time>2019-08-18T07:17:55.000Z</time>
      </trkpt>
      <trkpt lat="43.16729" lon="2.36852">
        <ele>209.4</ele>
        <time>2019-08-18T07:17:56.000Z</time>
      </trkpt>
      <trkpt lat="43.16727" lon="2.36849">
        <ele>209.5</ele>
        <time>2019-08-18T07:17:57.000Z</time>
      </trkpt>
      <trkpt lat="43.16725" lon="2.36846">
        <ele>209.5</ele>
        <time>2019-08-18T07:17:58.000Z</time>
      </trkpt>
      <trkpt lat="43.16723" lon="2.36843">
        <ele>209.6</ele>
        <time>2019-08-18T07:17:59.000Z</time>
      </trkpt>
      <trkpt lat="43.16721" lon="2.3684">
        <ele>209.6</ele>
        <time>2019-08-18T07:18:00.000Z</time>
      </trkpt>
      <trkpt lat="43.1672" lon="2.36838">
        <ele>209.7</ele>
        <time>2019-08-18T07:18:01.000Z</time>
      </trkpt>
      <trkpt lat="43.16718" lon="2.36835">
        <ele>209.8</ele>
        <time>2019-08-18T07:18:02.000Z</time>
      </trkpt>
      <trkpt lat="43.16717" lon="2.36832">
        <ele>209.8</ele>
        <time>2019-08-18T07:18:03.000Z</time>
      </trkpt>
      <trkpt lat="43.16715" lon="2.36829">
        <ele>209.8</ele>
        <time>2019-08-18T07:18:04.000Z</time>
      </trkpt>
      <trkpt lat="43.16714" lon="2.36826">
        <ele>209.8</ele>
        <time>2019-08-18T07:18:05.000Z</time>
      </trkpt>
      <trkpt lat="43.16713" lon="2.36822">
        <ele>209.7</ele>
        <time>2019-08-18T07:18:06.000Z</time>
      </trkpt>
      <trkpt lat="43.16711" lon="2.36819">
        <ele>209.7</ele>
        <time>2019-08-18T07:18:07.000Z</time>
      </trkpt>
      <trkpt lat="43.1671" lon="2.36816">
        <ele>209.7</ele>
        <time>2019-08-18T07:18:08.000Z</time>
      </trkpt>
      <trkpt lat="43.16709" lon="2.36813">
        <ele>209.7</ele>
        <time>2019-08-18T07:18:09.000Z</time>
      </trkpt>
      <trkpt lat="43.16708" lon="2.3681">
        <ele>209.7</ele>
        <time>2019-08-18T07:18:10.000Z</time>
      </trkpt>
      <trkpt lat="43.16707" lon="2.36806">
        <ele>209.7</ele>
        <time>2019-08-18T07:18:11.000Z</time>
      </trkpt>
      <trkpt lat="43.16706" lon="2.36803">
        <ele>209.8</ele>
        <time>2019-08-18T07:18:12.000Z</time>
      </trkpt>
      <trkpt lat="43.16704" lon="2.368">
        <ele>209.8</ele>
        <time>2019-08-18T07:18:13.000Z</time>
      </trkpt>
      <trkpt lat="43.16703" lon="2.36797">
        <ele>209.8</ele>
        <time>2019-08-18T07:18:14.000Z</time>
      </trkpt>
      <trkpt lat="43.16702" lon="2.36794">
        <ele>209.8</ele>
        <time>2019-08-18T07:18:15.000Z</time>
      </trkpt>
      <trkpt lat="43.16701" lon="2.3679">
        <ele>209.9</ele>
        <time>2019-08-18T07:18:16.000Z</time>
      </trkpt>
      <trkpt lat="43.16699" lon="2.36787">
        <ele>209.9</ele>
        <time>2019-08-18T07:18:17.000Z</time>
      </trkpt>
      <trkpt lat="43.16698" lon="2.36784">
        <ele>210</ele>
        <time>2019-08-18T07:18:18.000Z</time>
      </trkpt>
      <trkpt lat="43.16697" lon="2.36781">
        <ele>210</ele>
        <time>2019-08-18T07:18:19.000Z</time>
      </trkpt>
      <trkpt lat="43.16695" lon="2.36778">
        <ele>210.1</ele>
        <time>2019-08-18T07:18:20.000Z</time>
      </trkpt>
      <trkpt lat="43.16694" lon="2.36775">
        <ele>210.1</ele>
        <time>2019-08-18T07:18:21.000Z</time>
      </trkpt>
      <trkpt lat="43.16693" lon="2.36772">
        <ele>210.2</ele>
        <time>2019-08-18T07:18:22.000Z</time>
      </trkpt>
      <trkpt lat="43.16692" lon="2.36769">
        <ele>210.2</ele>
        <time>2019-08-18T07:18:23.000Z</time>
      </trkpt>
      <trkpt lat="43.16691" lon="2.36766">
        <ele>210.3</ele>
        <time>2019-08-18T07:18:24.000Z</time>
      </trkpt>
      <trkpt lat="43.1669" lon="2.36763">
        <ele>210.3</ele>
        <time>2019-08-18T07:18:25.000Z</time>
      </trkpt>
      <trkpt lat="43.1669" lon="2.3676">
        <ele>210.4</ele>
        <time>2019-08-18T07:18:26.000Z</time>
      </trkpt>
      <trkpt lat="43.16689" lon="2.36757">
        <ele>210.4</ele>
        <time>2019-08-18T07:18:27.000Z</time>
      </trkpt>
      <trkpt lat="43.16688" lon="2.36754">
        <ele>210.4</ele>
        <time>2019-08-18T07:18:28.000Z</time>
      </trkpt>
      <trkpt lat="43.16688" lon="2.36751">
        <ele>210.5</ele>
        <time>2019-08-18T07:18:29.000Z</time>
      </trkpt>
      <trkpt lat="43.16688" lon="2.36748">
        <ele>210.4</ele>
        <time>2019-08-18T07:18:30.000Z</time>
      </trkpt>
      <trkpt lat="43.16688" lon="2.36745">
        <ele>210.4</ele>
        <time>2019-08-18T07:18:31.000Z</time>
      </trkpt>
      <trkpt lat="43.16687" lon="2.36742">
        <ele>210.3</ele>
        <time>2019-08-18T07:18:32.000Z</time>
      </trkpt>
      <trkpt lat="43.16687" lon="2.36739">
        <ele>210.3</ele>
        <time>2019-08-18T07:18:33.000Z</time>
      </trkpt>
      <trkpt lat="43.16687" lon="2.36736">
        <ele>210.2</ele>
        <time>2019-08-18T07:18:34.000Z</time>
      </trkpt>
      <trkpt lat="43.16686" lon="2.36733">
        <ele>210.2</ele>
        <time>2019-08-18T07:18:35.000Z</time>
      </trkpt>
      <trkpt lat="43.16686" lon="2.3673">
        <ele>210.2</ele>
        <time>2019-08-18T07:18:36.000Z</time>
      </trkpt>
      <trkpt lat="43.16685" lon="2.36727">
        <ele>210.1</ele>
        <time>2019-08-18T07:18:37.000Z</time>
      </trkpt>
      <trkpt lat="43.16685" lon="2.36724">
        <ele>210.1</ele>
        <time>2019-08-18T07:18:38.000Z</time>
      </trkpt>
      <trkpt lat="43.16684" lon="2.36721">
        <ele>210.1</ele>
        <time>2019-08-18T07:18:39.000Z</time>
      </trkpt>
      <trkpt lat="43.16684" lon="2.36718">
        <ele>210.1</ele>
        <time>2019-08-18T07:18:40.000Z</time>
      </trkpt>
      <trkpt lat="43.16683" lon="2.36715">
        <ele>210</ele>
        <time>2019-08-18T07:18:41.000Z</time>
      </trkpt>
      <trkpt lat="43.16683" lon="2.36712">
        <ele>210</ele>
        <time>2019-08-18T07:18:42.000Z</time>
      </trkpt>
      <trkpt lat="43.16683" lon="2.36709">
        <ele>210</ele>
        <time>2019-08-18T07:18:43.000Z</time>
      </trkpt>
      <trkpt lat="43.16682" lon="2.36705">
        <ele>209.9</ele>
        <time>2019-08-18T07:18:44.000Z</time>
      </trkpt>
      <trkpt lat="43.16682" lon="2.36702">
        <ele>209.9</ele>
        <time>2019-08-18T07:18:45.000Z</time>
      </trkpt>
      <trkpt lat="43.16681" lon="2.36698">
        <ele>209.9</ele>
        <time>2019-08-18T07:18:46.000Z</time>
      </trkpt>
      <trkpt lat="43.16681" lon="2.36695">
        <ele>209.9</ele>
        <time>2019-08-18T07:18:47.000Z</time>
      </trkpt>
      <trkpt lat="43.1668" lon="2.36692">
        <ele>209.9</ele>
        <time>2019-08-18T07:18:48.000Z</time>
      </trkpt>
      <trkpt lat="43.1668" lon="2.36688">
        <ele>209.9</ele>
        <time>2019-08-18T07:18:49.000Z</time>
      </trkpt>
      <trkpt lat="43.16679" lon="2.36685">
        <ele>209.9</ele>
        <time>2019-08-18T07:18:50.000Z</time>
      </trkpt>
      <trkpt lat="43.16678" lon="2.36681">
        <ele>209.9</ele>
        <time>2019-08-18T07:18:51.000Z</time>
      </trkpt>
      <trkpt lat="43.16677" lon="2.36678">
        <ele>210</ele>
        <time>2019-08-18T07:18:52.000Z</time>
      </trkpt>
      <trkpt lat="43.16676" lon="2.36676">
        <ele>210.1</ele>
        <time>2019-08-18T07:18:53.000Z</time>
      </trkpt>
      <trkpt lat="43.16674" lon="2.36673">
        <ele>210.2</ele>
        <time>2019-08-18T07:18:54.000Z</time>
      </trkpt>
      <trkpt lat="43.16672" lon="2.36671">
        <ele>210.4</ele>
        <time>2019-08-18T07:18:55.000Z</time>
      </trkpt>
      <trkpt lat="43.1667" lon="2.36669">
        <ele>210.6</ele>
        <time>2019-08-18T07:18:56.000Z</time>
      </trkpt>
      <trkpt lat="43.16668" lon="2.36668">
        <ele>210.9</ele>
        <time>2019-08-18T07:18:57.000Z</time>
      </trkpt>
      <trkpt lat="43.16665" lon="2.36668">
        <ele>211.1</ele>
        <time>2019-08-18T07:18:58.000Z</time>
      </trkpt>
      <trkpt lat="43.16663" lon="2.36667">
        <ele>211.2</ele>
        <time>2019-08-18T07:18:59.000Z</time>
      </trkpt>
      <trkpt lat="43.1666" lon="2.36667">
        <ele>211.4</ele>
        <time>2019-08-18T07:19:00.000Z</time>
      </trkpt>
      <trkpt lat="43.16658" lon="2.36667">
        <ele>211.6</ele>
        <time>2019-08-18T07:19:01.000Z</time>
      </trkpt>
      <trkpt lat="43.16655" lon="2.36668">
        <ele>211.7</ele>
        <time>2019-08-18T07:19:02.000Z</time>
      </trkpt>
      <trkpt lat="43.16653" lon="2.36669">
        <ele>211.8</ele>
        <time>2019-08-18T07:19:03.000Z</time>
      </trkpt>
      <trkpt lat="43.1665" lon="2.3667">
        <ele>212</ele>
        <time>2019-08-18T07:19:04.000Z</time>
      </trkpt>
      <trkpt lat="43.16648" lon="2.36671">
        <ele>212.1</ele>
        <time>2019-08-18T07:19:05.000Z</time>
      </trkpt>
      <trkpt lat="43.16646" lon="2.36672">
        <ele>212.2</ele>
        <time>2019-08-18T07:19:06.000Z</time>
      </trkpt>
      <trkpt lat="43.16644" lon="2.36674">
        <ele>212.3</ele>
        <time>2019-08-18T07:19:07.000Z</time>
      </trkpt>
      <trkpt lat="43.16642" lon="2.36675">
        <ele>212.4</ele>
        <time>2019-08-18T07:19:08.000Z</time>
      </trkpt>
      <trkpt lat="43.1664" lon="2.36677">
        <ele>212.5</ele>
        <time>2019-08-18T07:19:09.000Z</time>
      </trkpt>
      <trkpt lat="43.16638" lon="2.36679">
        <ele>212.5</ele>
        <time>2019-08-18T07:19:10.000Z</time>
      </trkpt>
      <trkpt lat="43.16637" lon="2.36682">
        <ele>212.6</ele>
        <time>2019-08-18T07:19:11.000Z</time>
      </trkpt>
      <trkpt lat="43.16635" lon="2.36684">
        <ele>212.6</ele>
        <time>2019-08-18T07:19:12.000Z</time>
      </trkpt>
      <trkpt lat="43.16633" lon="2.36686">
        <ele>212.7</ele>
        <time>2019-08-18T07:19:13.000Z</time>
      </trkpt>
      <trkpt lat="43.16632" lon="2.36689">
        <ele>212.7</ele>
        <time>2019-08-18T07:19:14.000Z</time>
      </trkpt>
      <trkpt lat="43.1663" lon="2.36691">
        <ele>212.7</ele>
        <time>2019-08-18T07:19:15.000Z</time>
      </trkpt>
      <trkpt lat="43.16629" lon="2.36693">
        <ele>212.7</ele>
        <time>2019-08-18T07:19:16.000Z</time>
      </trkpt>
      <trkpt lat="43.16627" lon="2.36696">
        <ele>212.7</ele>
        <time>2019-08-18T07:19:17.000Z</time>
      </trkpt>
      <trkpt lat="43.16625" lon="2.36698">
        <ele>212.8</ele>
        <time>2019-08-18T07:19:18.000Z</time>
      </trkpt>
      <trkpt lat="43.16623" lon="2.367">
        <ele>212.8</ele>
        <time>2019-08-18T07:19:19.000Z</time>
      </trkpt>
      <trkpt lat="43.16621" lon="2.36701">
        <ele>212.8</ele>
        <time>2019-08-18T07:19:20.000Z</time>
      </trkpt>
      <trkpt lat="43.1662" lon="2.36703">
        <ele>212.8</ele>
        <time>2019-08-18T07:19:21.000Z</time>
      </trkpt>
      <trkpt lat="43.16618" lon="2.36705">
        <ele>212.8</ele>
        <time>2019-08-18T07:19:22.000Z</time>
      </trkpt>
      <trkpt lat="43.16616" lon="2.36706">
        <ele>212.8</ele>
        <time>2019-08-18T07:19:23.000Z</time>
      </trkpt>
      <trkpt lat="43.16614" lon="2.36708">
        <ele>212.8</ele>
        <time>2019-08-18T07:19:24.000Z</time>
      </trkpt>
      <trkpt lat="43.16611" lon="2.36709">
        <ele>212.8</ele>
        <time>2019-08-18T07:19:25.000Z</time>
      </trkpt>
      <trkpt lat="43.16609" lon="2.3671">
        <ele>212.8</ele>
        <time>2019-08-18T07:19:26.000Z</time>
      </trkpt>
      <trkpt lat="43.16607" lon="2.36711">
        <ele>212.8</ele>
        <time>2019-08-18T07:19:27.000Z</time>
      </trkpt>
      <trkpt lat="43.16605" lon="2.36712">
        <ele>212.8</ele>
        <time>2019-08-18T07:19:28.000Z</time>
      </trkpt>
      <trkpt lat="43.16602" lon="2.36713">
        <ele>212.8</ele>
        <time>2019-08-18T07:19:29.000Z</time>
      </trkpt>
      <trkpt lat="43.166" lon="2.36714">
        <ele>212.8</ele>
        <time>2019-08-18T07:19:30.000Z</time>
      </trkpt>
      <trkpt lat="43.16598" lon="2.36715">
        <ele>212.8</ele>
        <time>2019-08-18T07:19:31.000Z</time>
      </trkpt>
      <trkpt lat="43.16595" lon="2.36716">
        <ele>212.9</ele>
        <time>2019-08-18T07:19:32.000Z</time>
      </trkpt>
      <trkpt lat="43.16593" lon="2.36716">
        <ele>212.9</ele>
        <time>2019-08-18T07:19:33.000Z</time>
      </trkpt>
      <trkpt lat="43.1659" lon="2.36717">
        <ele>212.9</ele>
        <time>2019-08-18T07:19:34.000Z</time>
      </trkpt>
      <trkpt lat="43.16588" lon="2.36718">
        <ele>212.9</ele>
        <time>2019-08-18T07:19:35.000Z</time>
      </trkpt>
      <trkpt lat="43.16585" lon="2.36719">
        <ele>212.9</ele>
        <time>2019-08-18T07:19:36.000Z</time>
      </trkpt>
      <trkpt lat="43.16583" lon="2.36719">
        <ele>212.9</ele>
        <time>2019-08-18T07:19:37.000Z</time>
      </trkpt>
      <trkpt lat="43.1658" lon="2.3672">
        <ele>212.9</ele>
        <time>2019-08-18T07:19:38.000Z</time>
      </trkpt>
      <trkpt lat="43.16577" lon="2.36721">
        <ele>213</ele>
        <time>2019-08-18T07:19:39.000Z</time>
      </trkpt>
      <trkpt lat="43.16575" lon="2.36722">
        <ele>213</ele>
        <time>2019-08-18T07:19:40.000Z</time>
      </trkpt>
      <trkpt lat="43.16572" lon="2.36722">
        <ele>213.1</ele>
        <time>2019-08-18T07:19:41.000Z</time>
      </trkpt>
      <trkpt lat="43.1657" lon="2.36723">
        <ele>213.2</ele>
        <time>2019-08-18T07:19:42.000Z</time>
      </trkpt>
      <trkpt lat="43.16567" lon="2.36724">
        <ele>213.2</ele>
        <time>2019-08-18T07:19:43.000Z</time>
      </trkpt>
      <trkpt lat="43.16564" lon="2.36724">
        <ele>213.3</ele>
        <time>2019-08-18T07:19:44.000Z</time>
      </trkpt>
      <trkpt lat="43.16562" lon="2.36724">
        <ele>213.4</ele>
        <time>2019-08-18T07:19:45.000Z</time>
      </trkpt>
      <trkpt lat="43.16559" lon="2.36725">
        <ele>213.5</ele>
        <time>2019-08-18T07:19:46.000Z</time>
      </trkpt>
      <trkpt lat="43.16557" lon="2.36725">
        <ele>213.6</ele>
        <time>2019-08-18T07:19:47.000Z</time>
      </trkpt>
      <trkpt lat="43.16554" lon="2.36725">
        <ele>213.7</ele>
        <time>2019-08-18T07:19:48.000Z</time>
      </trkpt>
      <trkpt lat="43.16551" lon="2.36725">
        <ele>213.8</ele>
        <time>2019-08-18T07:19:49.000Z</time>
      </trkpt>
      <trkpt lat="43.16549" lon="2.36726">
        <ele>213.9</ele>
        <time>2019-08-18T07:19:50.000Z</time>
      </trkpt>
      <trkpt lat="43.16546" lon="2.36726">
        <ele>214</ele>
        <time>2019-08-18T07:19:51.000Z</time>
      </trkpt>
      <trkpt lat="43.16544" lon="2.36726">
        <ele>214</ele>
        <time>2019-08-18T07:19:52.000Z</time>
      </trkpt>
      <trkpt lat="43.16541" lon="2.36727">
        <ele>214.1</ele>
        <time>2019-08-18T07:19:53.000Z</time>
      </trkpt>
      <trkpt lat="43.16539" lon="2.36728">
        <ele>214.2</ele>
        <time>2019-08-18T07:19:54.000Z</time>
      </trkpt>
      <trkpt lat="43.16536" lon="2.36729">
        <ele>214.2</ele>
        <time>2019-08-18T07:19:55.000Z</time>
      </trkpt>
      <trkpt lat="43.16534" lon="2.3673">
        <ele>214.3</ele>
        <time>2019-08-18T07:19:56.000Z</time>
      </trkpt>
      <trkpt lat="43.16532" lon="2.36731">
        <ele>214.3</ele>
        <time>2019-08-18T07:19:57.000Z</time>
      </trkpt>
      <trkpt lat="43.16529" lon="2.36732">
        <ele>214.4</ele>
        <time>2019-08-18T07:19:58.000Z</time>
      </trkpt>
      <trkpt lat="43.16527" lon="2.36733">
        <ele>214.4</ele>
        <time>2019-08-18T07:19:59.000Z</time>
      </trkpt>
      <trkpt lat="43.16524" lon="2.36735">
        <ele>214.5</ele>
        <time>2019-08-18T07:20:00.000Z</time>
      </trkpt>
      <trkpt lat="43.16522" lon="2.36736">
        <ele>214.5</ele>
        <time>2019-08-18T07:20:01.000Z</time>
      </trkpt>
      <trkpt lat="43.1652" lon="2.36737">
        <ele>214.6</ele>
        <time>2019-08-18T07:20:02.000Z</time>
      </trkpt>
      <trkpt lat="43.16517" lon="2.36738">
        <ele>214.7</ele>
        <time>2019-08-18T07:20:03.000Z</time>
      </trkpt>
      <trkpt lat="43.16515" lon="2.36739">
        <ele>214.7</ele>
        <time>2019-08-18T07:20:04.000Z</time>
      </trkpt>
      <trkpt lat="43.16513" lon="2.36739">
        <ele>214.8</ele>
        <time>2019-08-18T07:20:05.000Z</time>
      </trkpt>
      <trkpt lat="43.16511" lon="2.36739">
        <ele>214.9</ele>
        <time>2019-08-18T07:20:06.000Z</time>
      </trkpt>
      <trkpt lat="43.16509" lon="2.36739">
        <ele>215</ele>
        <time>2019-08-18T07:20:07.000Z</time>
      </trkpt>
      <trkpt lat="43.16507" lon="2.36739">
        <ele>215.1</ele>
        <time>2019-08-18T07:20:08.000Z</time>
      </trkpt>
      <trkpt lat="43.16505" lon="2.36738">
        <ele>215.2</ele>
        <time>2019-08-18T07:20:09.000Z</time>
      </trkpt>
      <trkpt lat="43.16504" lon="2.36736">
        <ele>215.3</ele>
        <time>2019-08-18T07:20:10.000Z</time>
      </trkpt>
      <trkpt lat="43.16503" lon="2.36734">
        <ele>215.5</ele>
        <time>2019-08-18T07:20:11.000Z</time>
      </trkpt>
      <trkpt lat="43.16502" lon="2.36732">
        <ele>215.6</ele>
        <time>2019-08-18T07:20:12.000Z</time>
      </trkpt>
      <trkpt lat="43.16501" lon="2.3673">
        <ele>215.7</ele>
        <time>2019-08-18T07:20:13.000Z</time>
      </trkpt>
      <trkpt lat="43.16501" lon="2.36727">
        <ele>215.8</ele>
        <time>2019-08-18T07:20:14.000Z</time>
      </trkpt>
      <trkpt lat="43.16501" lon="2.36725">
        <ele>215.9</ele>
        <time>2019-08-18T07:20:15.000Z</time>
      </trkpt>
      <trkpt lat="43.16502" lon="2.36722">
        <ele>215.9</ele>
        <time>2019-08-18T07:20:16.000Z</time>
      </trkpt>
      <trkpt lat="43.16502" lon="2.36719">
        <ele>216</ele>
        <time>2019-08-18T07:20:17.000Z</time>
      </trkpt>
      <trkpt lat="43.16502" lon="2.36716">
        <ele>216.1</ele>
        <time>2019-08-18T07:20:18.000Z</time>
      </trkpt>
      <trkpt lat="43.16502" lon="2.36713">
        <ele>216.2</ele>
        <time>2019-08-18T07:20:19.000Z</time>
      </trkpt>
      <trkpt lat="43.16502" lon="2.3671">
        <ele>216.4</ele>
        <time>2019-08-18T07:20:20.000Z</time>
      </trkpt>
      <trkpt lat="43.16502" lon="2.36707">
        <ele>216.5</ele>
        <time>2019-08-18T07:20:21.000Z</time>
      </trkpt>
      <trkpt lat="43.16502" lon="2.36704">
        <ele>216.6</ele>
        <time>2019-08-18T07:20:22.000Z</time>
      </trkpt>
      <trkpt lat="43.16502" lon="2.36701">
        <ele>216.7</ele>
        <time>2019-08-18T07:20:23.000Z</time>
      </trkpt>
      <trkpt lat="43.16501" lon="2.36698">
        <ele>216.8</ele>
        <time>2019-08-18T07:20:24.000Z</time>
      </trkpt>
      <trkpt lat="43.16501" lon="2.36695">
        <ele>216.9</ele>
        <time>2019-08-18T07:20:25.000Z</time>
      </trkpt>
      <trkpt lat="43.165" lon="2.36692">
        <ele>217.1</ele>
        <time>2019-08-18T07:20:26.000Z</time>
      </trkpt>
      <trkpt lat="43.165" lon="2.3669">
        <ele>217.2</ele>
        <time>2019-08-18T07:20:27.000Z</time>
      </trkpt>
      <trkpt lat="43.16499" lon="2.36687">
        <ele>217.3</ele>
        <time>2019-08-18T07:20:28.000Z</time>
      </trkpt>
      <trkpt lat="43.16499" lon="2.36684">
        <ele>217.5</ele>
        <time>2019-08-18T07:20:29.000Z</time>
      </trkpt>
      <trkpt lat="43.16498" lon="2.36682">
        <ele>217.6</ele>
        <time>2019-08-18T07:20:30.000Z</time>
      </trkpt>
      <trkpt lat="43.16498" lon="2.36679">
        <ele>217.8</ele>
        <time>2019-08-18T07:20:31.000Z</time>
      </trkpt>
      <trkpt lat="43.16497" lon="2.36676">
        <ele>217.9</ele>
        <time>2019-08-18T07:20:32.000Z</time>
      </trkpt>
      <trkpt lat="43.16496" lon="2.36674">
        <ele>218.1</ele>
        <time>2019-08-18T07:20:33.000Z</time>
      </trkpt>
      <trkpt lat="43.16496" lon="2.36671">
        <ele>218.2</ele>
        <time>2019-08-18T07:20:34.000Z</time>
      </trkpt>
      <trkpt lat="43.16495" lon="2.36668">
        <ele>218.4</ele>
        <time>2019-08-18T07:20:35.000Z</time>
      </trkpt>
      <trkpt lat="43.16494" lon="2.36666">
        <ele>218.5</ele>
        <time>2019-08-18T07:20:36.000Z</time>
      </trkpt>
      <trkpt lat="43.16494" lon="2.36663">
        <ele>218.7</ele>
        <time>2019-08-18T07:20:37.000Z</time>
      </trkpt>
      <trkpt lat="43.16493" lon="2.3666">
        <ele>218.9</ele>
        <time>2019-08-18T07:20:38.000Z</time>
      </trkpt>
      <trkpt lat="43.16493" lon="2.36658">
        <ele>219.1</ele>
        <time>2019-08-18T07:20:39.000Z</time>
      </trkpt>
      <trkpt lat="43.16492" lon="2.36656">
        <ele>219.3</ele>
        <time>2019-08-18T07:20:40.000Z</time>
      </trkpt>
      <trkpt lat="43.16491" lon="2.36654">
        <ele>219.4</ele>
        <time>2019-08-18T07:20:41.000Z</time>
      </trkpt>
      <trkpt lat="43.16491" lon="2.36652">
        <ele>219.5</ele>
        <time>2019-08-18T07:20:42.000Z</time>
      </trkpt>
      <trkpt lat="43.1649" lon="2.36651">
        <ele>219.7</ele>
        <time>2019-08-18T07:20:43.000Z</time>
      </trkpt>
      <trkpt lat="43.1649" lon="2.36649">
        <ele>219.8</ele>
        <time>2019-08-18T07:20:44.000Z</time>
      </trkpt>
      <trkpt lat="43.16489" lon="2.36648">
        <ele>219.9</ele>
        <time>2019-08-18T07:20:45.000Z</time>
      </trkpt>
      <trkpt lat="43.16488" lon="2.36647">
        <ele>220</ele>
        <time>2019-08-18T07:20:46.000Z</time>
      </trkpt>
      <trkpt lat="43.16488" lon="2.36646">
        <ele>220.1</ele>
        <time>2019-08-18T07:20:47.000Z</time>
      </trkpt>
      <trkpt lat="43.16487" lon="2.36644">
        <ele>220.2</ele>
        <time>2019-08-18T07:20:48.000Z</time>
      </trkpt>
      <trkpt lat="43.16487" lon="2.36643">
        <ele>220.3</ele>
        <time>2019-08-18T07:20:49.000Z</time>
      </trkpt>
      <trkpt lat="43.16486" lon="2.36642">
        <ele>220.4</ele>
        <time>2019-08-18T07:20:50.000Z</time>
      </trkpt>
      <trkpt lat="43.16486" lon="2.36641">
        <ele>220.4</ele>
        <time>2019-08-18T07:20:51.000Z</time>
      </trkpt>
      <trkpt lat="43.16485" lon="2.3664">
        <ele>220.5</ele>
        <time>2019-08-18T07:20:52.000Z</time>
      </trkpt>
      <trkpt lat="43.16485" lon="2.3664">
        <ele>220.5</ele>
        <time>2019-08-18T07:20:53.000Z</time>
      </trkpt>
      <trkpt lat="43.16485" lon="2.3664">
        <ele>220.5</ele>
        <time>2019-08-18T07:20:54.000Z</time>
      </trkpt>
      <trkpt lat="43.16485" lon="2.3664">
        <ele>220.5</ele>
        <time>2019-08-18T07:20:55.000Z</time>
      </trkpt>
      <trkpt lat="43.16485" lon="2.36639">
        <ele>220.6</ele>
        <time>2019-08-18T07:20:56.000Z</time>
      </trkpt>
      <trkpt lat="43.16485" lon="2.36638">
        <ele>220.6</ele>
        <time>2019-08-18T07:20:57.000Z</time>
      </trkpt>
      <trkpt lat="43.16484" lon="2.36637">
        <ele>220.7</ele>
        <time>2019-08-18T07:20:58.000Z</time>
      </trkpt>
      <trkpt lat="43.16484" lon="2.36636">
        <ele>220.8</ele>
        <time>2019-08-18T07:20:59.000Z</time>
      </trkpt>
      <trkpt lat="43.16483" lon="2.36635">
        <ele>220.9</ele>
        <time>2019-08-18T07:21:00.000Z</time>
      </trkpt>
      <trkpt lat="43.16483" lon="2.36634">
        <ele>220.9</ele>
        <time>2019-08-18T07:21:01.000Z</time>
      </trkpt>
      <trkpt lat="43.16482" lon="2.36633">
        <ele>221</ele>
        <time>2019-08-18T07:21:02.000Z</time>
      </trkpt>
      <trkpt lat="43.16482" lon="2.36632">
        <ele>221.1</ele>
        <time>2019-08-18T07:21:03.000Z</time>
      </trkpt>
      <trkpt lat="43.16481" lon="2.3663">
        <ele>221.2</ele>
        <time>2019-08-18T07:21:04.000Z</time>
      </trkpt>
      <trkpt lat="43.16481" lon="2.36629">
        <ele>221.2</ele>
        <time>2019-08-18T07:21:05.000Z</time>
      </trkpt>
      <trkpt lat="43.16481" lon="2.36629">
        <ele>221.3</ele>
        <time>2019-08-18T07:21:06.000Z</time>
      </trkpt>
      <trkpt lat="43.16481" lon="2.36628">
        <ele>221.3</ele>
        <time>2019-08-18T07:21:07.000Z</time>
      </trkpt>
      <trkpt lat="43.16481" lon="2.36628">
        <ele>221.3</ele>
        <time>2019-08-18T07:21:08.000Z</time>
      </trkpt>
      <trkpt lat="43.16481" lon="2.36629">
        <ele>221.3</ele>
        <time>2019-08-18T07:21:09.000Z</time>
      </trkpt>
      <trkpt lat="43.16481" lon="2.36629">
        <ele>221.3</ele>
        <time>2019-08-18T07:21:10.000Z</time>
      </trkpt>
      <trkpt lat="43.16481" lon="2.36629">
        <ele>221.3</ele>
        <time>2019-08-18T07:21:11.000Z</time>
      </trkpt>
      <trkpt lat="43.16481" lon="2.36629">
        <ele>221.3</ele>
        <time>2019-08-18T07:21:12.000Z</time>
      </trkpt>
      <trkpt lat="43.16481" lon="2.36629">
        <ele>221.3</ele>
        <time>2019-08-18T07:21:13.000Z</time>
      </trkpt>
      <trkpt lat="43.16481" lon="2.36628">
        <ele>221.3</ele>
        <time>2019-08-18T07:21:14.000Z</time>
      </trkpt>
      <trkpt lat="43.1648" lon="2.36628">
        <ele>221.3</ele>
        <time>2019-08-18T07:21:15.000Z</time>
      </trkpt>
      <trkpt lat="43.1648" lon="2.36628">
        <ele>221.3</ele>
        <time>2019-08-18T07:21:16.000Z</time>
      </trkpt>
      <trkpt lat="43.1648" lon="2.36628">
        <ele>221.3</ele>
        <time>2019-08-18T07:21:17.000Z</time>
      </trkpt>
      <trkpt lat="43.1648" lon="2.36628">
        <ele>221.3</ele>
        <time>2019-08-18T07:21:18.000Z</time>
      </trkpt>
      <trkpt lat="43.1648" lon="2.36628">
        <ele>221.3</ele>
        <time>2019-08-18T07:21:19.000Z</time>
      </trkpt>
      <trkpt lat="43.1648" lon="2.36629">
        <ele>221.3</ele>
        <time>2019-08-18T07:21:20.000Z</time>
      </trkpt>
      <trkpt lat="43.16481" lon="2.36629">
        <ele>221.3</ele>
        <time>2019-08-18T07:21:21.000Z</time>
      </trkpt>
      <trkpt lat="43.16481" lon="2.36629">
        <ele>221.2</ele>
        <time>2019-08-18T07:21:22.000Z</time>
      </trkpt>
      <trkpt lat="43.16481" lon="2.36629">
        <ele>221.2</ele>
        <time>2019-08-18T07:21:23.000Z</time>
      </trkpt>
      <trkpt lat="43.16481" lon="2.36629">
        <ele>221.2</ele>
        <time>2019-08-18T07:21:24.000Z</time>
      </trkpt>
      <trkpt lat="43.16481" lon="2.36629">
        <ele>221.2</ele>
        <time>2019-08-18T07:21:25.000Z</time>
      </trkpt>
      <trkpt lat="43.16481" lon="2.36629">
        <ele>221.2</ele>
        <time>2019-08-18T07:21:26.000Z</time>
      </trkpt>
      <trkpt lat="43.16481" lon="2.36629">
        <ele>221.2</ele>
        <time>2019-08-18T07:21:27.000Z</time>
      </trkpt>
      <trkpt lat="43.16481" lon="2.36629">
        <ele>221.2</ele>
        <time>2019-08-18T07:21:28.000Z</time>
      </trkpt>
      <trkpt lat="43.16481" lon="2.36629">
        <ele>221.2</ele>
        <time>2019-08-18T07:21:29.000Z</time>
      </trkpt>
      <trkpt lat="43.16481" lon="2.36629">
        <ele>221.2</ele>
        <time>2019-08-18T07:21:30.000Z</time>
      </trkpt>
      <trkpt lat="43.16481" lon="2.36629">
        <ele>221.2</ele>
        <time>2019-08-18T07:21:31.000Z</time>
      </trkpt>
      <trkpt lat="43.16481" lon="2.36629">
        <ele>221.2</ele>
        <time>2019-08-18T07:21:32.000Z</time>
      </trkpt>
      <trkpt lat="43.16481" lon="2.36629">
        <ele>221.2</ele>
        <time>2019-08-18T07:21:33.000Z</time>
      </trkpt>
      <trkpt lat="43.16481" lon="2.36629">
        <ele>221.2</ele>
        <time>2019-08-18T07:21:34.000Z</time>
      </trkpt>
      <trkpt lat="43.16481" lon="2.36629">
        <ele>221.2</ele>
        <time>2019-08-18T07:21:35.000Z</time>
      </trkpt>
      <trkpt lat="43.16481" lon="2.36629">
        <ele>221.2</ele>
        <time>2019-08-18T07:21:36.000Z</time>
      </trkpt>
      <trkpt lat="43.16481" lon="2.36629">
        <ele>221.2</ele>
        <time>2019-08-18T07:21:37.000Z</time>
      </trkpt>
      <trkpt lat="43.16481" lon="2.36629">
        <ele>221.2</ele>
        <time>2019-08-18T07:21:38.000Z</time>
      </trkpt>
      <trkpt lat="43.16481" lon="2.36629">
        <ele>221.3</ele>
        <time>2019-08-18T07:21:39.000Z</time>
      </trkpt>
      <trkpt lat="43.1648" lon="2.36629">
        <ele>221.3</ele>
        <time>2019-08-18T07:21:40.000Z</time>
      </trkpt>
      <trkpt lat="43.1648" lon="2.36629">
        <ele>221.3</ele>
        <time>2019-08-18T07:21:41.000Z</time>
      </trkpt>
      <trkpt lat="43.16479" lon="2.36629">
        <ele>221.4</ele>
        <time>2019-08-18T07:21:42.000Z</time>
      </trkpt>
      <trkpt lat="43.16478" lon="2.36628">
        <ele>221.4</ele>
        <time>2019-08-18T07:21:43.000Z</time>
      </trkpt>
      <trkpt lat="43.16478" lon="2.36627">
        <ele>221.5</ele>
        <time>2019-08-18T07:21:44.000Z</time>
      </trkpt>
      <trkpt lat="43.16477" lon="2.36626">
        <ele>221.6</ele>
        <time>2019-08-18T07:21:45.000Z</time>
      </trkpt>
      <trkpt lat="43.16476" lon="2.36625">
        <ele>221.6</ele>
        <time>2019-08-18T07:21:46.000Z</time>
      </trkpt>
      <trkpt lat="43.16475" lon="2.36624">
        <ele>221.7</ele>
        <time>2019-08-18T07:21:47.000Z</time>
      </trkpt>
      <trkpt lat="43.16475" lon="2.36622">
        <ele>221.8</ele>
        <time>2019-08-18T07:21:48.000Z</time>
      </trkpt>
      <trkpt lat="43.16474" lon="2.36621">
        <ele>221.9</ele>
        <time>2019-08-18T07:21:49.000Z</time>
      </trkpt>
      <trkpt lat="43.16473" lon="2.3662">
        <ele>222</ele>
        <time>2019-08-18T07:21:50.000Z</time>
      </trkpt>
      <trkpt lat="43.16473" lon="2.36618">
        <ele>222.1</ele>
        <time>2019-08-18T07:21:51.000Z</time>
      </trkpt>
      <trkpt lat="43.16472" lon="2.36617">
        <ele>222.1</ele>
        <time>2019-08-18T07:21:52.000Z</time>
      </trkpt>
      <trkpt lat="43.16472" lon="2.36616">
        <ele>222.2</ele>
        <time>2019-08-18T07:21:53.000Z</time>
      </trkpt>
      <trkpt lat="43.16471" lon="2.36615">
        <ele>222.2</ele>
        <time>2019-08-18T07:21:54.000Z</time>
      </trkpt>
      <trkpt lat="43.16471" lon="2.36614">
        <ele>222.3</ele>
        <time>2019-08-18T07:21:55.000Z</time>
      </trkpt>
      <trkpt lat="43.1647" lon="2.36612">
        <ele>222.4</ele>
        <time>2019-08-18T07:21:56.000Z</time>
      </trkpt>
      <trkpt lat="43.16469" lon="2.36611">
        <ele>222.5</ele>
        <time>2019-08-18T07:21:57.000Z</time>
      </trkpt>
      <trkpt lat="43.16468" lon="2.36609">
        <ele>222.5</ele>
        <time>2019-08-18T07:21:58.000Z</time>
      </trkpt>
      <trkpt lat="43.16467" lon="2.36608">
        <ele>222.6</ele>
        <time>2019-08-18T07:21:59.000Z</time>
      </trkpt>
      <trkpt lat="43.16466" lon="2.36606">
        <ele>222.7</ele>
        <time>2019-08-18T07:22:00.000Z</time>
      </trkpt>
      <trkpt lat="43.16465" lon="2.36605">
        <ele>222.8</ele>
        <time>2019-08-18T07:22:01.000Z</time>
      </trkpt>
      <trkpt lat="43.16464" lon="2.36603">
        <ele>222.9</ele>
        <time>2019-08-18T07:22:02.000Z</time>
      </trkpt>
      <trkpt lat="43.16463" lon="2.36602">
        <ele>222.9</ele>
        <time>2019-08-18T07:22:03.000Z</time>
      </trkpt>
      <trkpt lat="43.16462" lon="2.366">
        <ele>223</ele>
        <time>2019-08-18T07:22:04.000Z</time>
      </trkpt>
      <trkpt lat="43.16461" lon="2.36598">
        <ele>223.1</ele>
        <time>2019-08-18T07:22:05.000Z</time>
      </trkpt>
      <trkpt lat="43.1646" lon="2.36597">
        <ele>223.2</ele>
        <time>2019-08-18T07:22:06.000Z</time>
      </trkpt>
      <trkpt lat="43.16459" lon="2.36595">
        <ele>223.2</ele>
        <time>2019-08-18T07:22:07.000Z</time>
      </trkpt>
      <trkpt lat="43.16458" lon="2.36593">
        <ele>223.3</ele>
        <time>2019-08-18T07:22:08.000Z</time>
      </trkpt>
      <trkpt lat="43.16456" lon="2.36591">
        <ele>223.3</ele>
        <time>2019-08-18T07:22:09.000Z</time>
      </trkpt>
      <trkpt lat="43.16455" lon="2.3659">
        <ele>223.4</ele>
        <time>2019-08-18T07:22:10.000Z</time>
      </trkpt>
      <trkpt lat="43.16454" lon="2.36588">
        <ele>223.5</ele>
        <time>2019-08-18T07:22:11.000Z</time>
      </trkpt>
      <trkpt lat="43.16453" lon="2.36586">
        <ele>223.5</ele>
        <time>2019-08-18T07:22:12.000Z</time>
      </trkpt>
      <trkpt lat="43.16451" lon="2.36584">
        <ele>223.6</ele>
        <time>2019-08-18T07:22:13.000Z</time>
      </trkpt>
      <trkpt lat="43.1645" lon="2.36582">
        <ele>223.6</ele>
        <time>2019-08-18T07:22:14.000Z</time>
      </trkpt>
      <trkpt lat="43.16448" lon="2.3658">
        <ele>223.6</ele>
        <time>2019-08-18T07:22:15.000Z</time>
      </trkpt>
      <trkpt lat="43.16447" lon="2.36578">
        <ele>223.5</ele>
        <time>2019-08-18T07:22:16.000Z</time>
      </trkpt>
      <trkpt lat="43.16445" lon="2.36576">
        <ele>223.5</ele>
        <time>2019-08-18T07:22:17.000Z</time>
      </trkpt>
      <trkpt lat="43.16444" lon="2.36574">
        <ele>223.5</ele>
        <time>2019-08-18T07:22:18.000Z</time>
      </trkpt>
      <trkpt lat="43.16442" lon="2.36572">
        <ele>223.4</ele>
        <time>2019-08-18T07:22:19.000Z</time>
      </trkpt>
      <trkpt lat="43.16441" lon="2.36569">
        <ele>223.4</ele>
        <time>2019-08-18T07:22:20.000Z</time>
      </trkpt>
      <trkpt lat="43.1644" lon="2.36567">
        <ele>223.3</ele>
        <time>2019-08-18T07:22:21.000Z</time>
      </trkpt>
      <trkpt lat="43.16439" lon="2.36564">
        <ele>223.2</ele>
        <time>2019-08-18T07:22:22.000Z</time>
      </trkpt>
      <trkpt lat="43.16438" lon="2.36562">
        <ele>223.2</ele>
        <time>2019-08-18T07:22:23.000Z</time>
      </trkpt>
      <trkpt lat="43.16437" lon="2.36559">
        <ele>223.1</ele>
        <time>2019-08-18T07:22:24.000Z</time>
      </trkpt>
      <trkpt lat="43.16436" lon="2.36556">
        <ele>223</ele>
        <time>2019-08-18T07:22:25.000Z</time>
      </trkpt>
      <trkpt lat="43.16435" lon="2.36553">
        <ele>222.9</ele>
        <time>2019-08-18T07:22:26.000Z</time>
      </trkpt>
      <trkpt lat="43.16434" lon="2.3655">
        <ele>222.8</ele>
        <time>2019-08-18T07:22:27.000Z</time>
      </trkpt>
      <trkpt lat="43.16434" lon="2.36547">
        <ele>222.7</ele>
        <time>2019-08-18T07:22:28.000Z</time>
      </trkpt>
      <trkpt lat="43.16433" lon="2.36543">
        <ele>222.5</ele>
        <time>2019-08-18T07:22:29.000Z</time>
      </trkpt>
      <trkpt lat="43.16432" lon="2.36539">
        <ele>222.4</ele>
        <time>2019-08-18T07:22:30.000Z</time>
      </trkpt>
      <trkpt lat="43.16432" lon="2.36536">
        <ele>222.2</ele>
        <time>2019-08-18T07:22:31.000Z</time>
      </trkpt>
      <trkpt lat="43.16431" lon="2.36532">
        <ele>222.1</ele>
        <time>2019-08-18T07:22:32.000Z</time>
      </trkpt>
      <trkpt lat="43.1643" lon="2.36528">
        <ele>221.9</ele>
        <time>2019-08-18T07:22:33.000Z</time>
      </trkpt>
      <trkpt lat="43.1643" lon="2.36524">
        <ele>221.8</ele>
        <time>2019-08-18T07:22:34.000Z</time>
      </trkpt>
      <trkpt lat="43.16429" lon="2.3652">
        <ele>221.6</ele>
        <time>2019-08-18T07:22:35.000Z</time>
      </trkpt>
      <trkpt lat="43.16429" lon="2.36516">
        <ele>221.4</ele>
        <time>2019-08-18T07:22:36.000Z</time>
      </trkpt>
      <trkpt lat="43.16428" lon="2.36512">
        <ele>221.3</ele>
        <time>2019-08-18T07:22:37.000Z</time>
      </trkpt>
      <trkpt lat="43.16428" lon="2.36509">
        <ele>221.1</ele>
        <time>2019-08-18T07:22:38.000Z</time>
      </trkpt>
      <trkpt lat="43.16427" lon="2.36505">
        <ele>220.9</ele>
        <time>2019-08-18T07:22:39.000Z</time>
      </trkpt>
      <trkpt lat="43.16427" lon="2.36501">
        <ele>220.8</ele>
        <time>2019-08-18T07:22:40.000Z</time>
      </trkpt>
      <trkpt lat="43.16426" lon="2.36498">
        <ele>220.6</ele>
        <time>2019-08-18T07:22:41.000Z</time>
      </trkpt>
      <trkpt lat="43.16426" lon="2.36494">
        <ele>220.3</ele>
        <time>2019-08-18T07:22:42.000Z</time>
      </trkpt>
      <trkpt lat="43.16425" lon="2.3649">
        <ele>220.1</ele>
        <time>2019-08-18T07:22:43.000Z</time>
      </trkpt>
      <trkpt lat="43.16425" lon="2.36486">
        <ele>219.9</ele>
        <time>2019-08-18T07:22:44.000Z</time>
      </trkpt>
      <trkpt lat="43.16424" lon="2.36483">
        <ele>219.6</ele>
        <time>2019-08-18T07:22:45.000Z</time>
      </trkpt>
      <trkpt lat="43.16424" lon="2.36479">
        <ele>219.4</ele>
        <time>2019-08-18T07:22:46.000Z</time>
      </trkpt>
      <trkpt lat="43.16423" lon="2.36475">
        <ele>219.1</ele>
        <time>2019-08-18T07:22:47.000Z</time>
      </trkpt>
      <trkpt lat="43.16422" lon="2.36472">
        <ele>218.8</ele>
        <time>2019-08-18T07:22:48.000Z</time>
      </trkpt>
      <trkpt lat="43.16422" lon="2.36468">
        <ele>218.6</ele>
        <time>2019-08-18T07:22:49.000Z</time>
      </trkpt>
      <trkpt lat="43.16421" lon="2.36464">
        <ele>218.3</ele>
        <time>2019-08-18T07:22:50.000Z</time>
      </trkpt>
      <trkpt lat="43.16421" lon="2.3646">
        <ele>218</ele>
        <time>2019-08-18T07:22:51.000Z</time>
      </trkpt>
      <trkpt lat="43.1642" lon="2.36457">
        <ele>217.8</ele>
        <time>2019-08-18T07:22:52.000Z</time>
      </trkpt>
      <trkpt lat="43.16419" lon="2.36453">
        <ele>217.5</ele>
        <time>2019-08-18T07:22:53.000Z</time>
      </trkpt>
      <trkpt lat="43.16419" lon="2.36449">
        <ele>217.2</ele>
        <time>2019-08-18T07:22:54.000Z</time>
      </trkpt>
      <trkpt lat="43.16418" lon="2.36446">
        <ele>216.9</ele>
        <time>2019-08-18T07:22:55.000Z</time>
      </trkpt>
      <trkpt lat="43.16418" lon="2.36442">
        <ele>216.6</ele>
        <time>2019-08-18T07:22:56.000Z</time>
      </trkpt>
      <trkpt lat="43.16417" lon="2.36438">
        <ele>216.3</ele>
        <time>2019-08-18T07:22:57.000Z</time>
      </trkpt>
      <trkpt lat="43.16417" lon="2.36434">
        <ele>216.1</ele>
        <time>2019-08-18T07:22:58.000Z</time>
      </trkpt>
      <trkpt lat="43.16416" lon="2.36431">
        <ele>215.9</ele>
        <time>2019-08-18T07:22:59.000Z</time>
      </trkpt>
      <trkpt lat="43.16416" lon="2.36427">
        <ele>215.7</ele>
        <time>2019-08-18T07:23:00.000Z</time>
      </trkpt>
      <trkpt lat="43.16416" lon="2.36423">
        <ele>215.5</ele>
        <time>2019-08-18T07:23:01.000Z</time>
      </trkpt>
      <trkpt lat="43.16415" lon="2.36419">
        <ele>215.3</ele>
        <time>2019-08-18T07:23:02.000Z</time>
      </trkpt>
      <trkpt lat="43.16415" lon="2.36416">
        <ele>215.2</ele>
        <time>2019-08-18T07:23:03.000Z</time>
      </trkpt>
      <trkpt lat="43.16414" lon="2.36412">
        <ele>215.2</ele>
        <time>2019-08-18T07:23:04.000Z</time>
      </trkpt>
      <trkpt lat="43.16414" lon="2.36408">
        <ele>215.2</ele>
        <time>2019-08-18T07:23:05.000Z</time>
      </trkpt>
      <trkpt lat="43.16414" lon="2.36404">
        <ele>215.2</ele>
        <time>2019-08-18T07:23:06.000Z</time>
      </trkpt>
      <trkpt lat="43.16414" lon="2.36401">
        <ele>215.2</ele>
        <time>2019-08-18T07:23:07.000Z</time>
      </trkpt>
      <trkpt lat="43.16413" lon="2.36397">
        <ele>215.1</ele>
        <time>2019-08-18T07:23:08.000Z</time>
      </trkpt>
      <trkpt lat="43.16413" lon="2.36393">
        <ele>215.1</ele>
        <time>2019-08-18T07:23:09.000Z</time>
      </trkpt>
      <trkpt lat="43.16413" lon="2.36389">
        <ele>215.1</ele>
        <time>2019-08-18T07:23:10.000Z</time>
      </trkpt>
      <trkpt lat="43.16412" lon="2.36386">
        <ele>215.1</ele>
        <time>2019-08-18T07:23:11.000Z</time>
      </trkpt>
      <trkpt lat="43.16412" lon="2.36382">
        <ele>215</ele>
        <time>2019-08-18T07:23:12.000Z</time>
      </trkpt>
      <trkpt lat="43.16412" lon="2.36378">
        <ele>215</ele>
        <time>2019-08-18T07:23:13.000Z</time>
      </trkpt>
      <trkpt lat="43.16412" lon="2.36374">
        <ele>215</ele>
        <time>2019-08-18T07:23:14.000Z</time>
      </trkpt>
      <trkpt lat="43.16411" lon="2.36371">
        <ele>214.9</ele>
        <time>2019-08-18T07:23:15.000Z</time>
      </trkpt>
      <trkpt lat="43.16411" lon="2.36367">
        <ele>214.9</ele>
        <time>2019-08-18T07:23:16.000Z</time>
      </trkpt>
      <trkpt lat="43.16411" lon="2.36363">
        <ele>214.9</ele>
        <time>2019-08-18T07:23:17.000Z</time>
      </trkpt>
      <trkpt lat="43.16411" lon="2.3636">
        <ele>214.8</ele>
        <time>2019-08-18T07:23:18.000Z</time>
      </trkpt>
      <trkpt lat="43.1641" lon="2.36356">
        <ele>214.8</ele>
        <time>2019-08-18T07:23:19.000Z</time>
      </trkpt>
      <trkpt lat="43.1641" lon="2.36352">
        <ele>214.8</ele>
        <time>2019-08-18T07:23:20.000Z</time>
      </trkpt>
      <trkpt lat="43.1641" lon="2.36348">
        <ele>214.7</ele>
        <time>2019-08-18T07:23:21.000Z</time>
      </trkpt>
      <trkpt lat="43.1641" lon="2.36345">
        <ele>214.7</ele>
        <time>2019-08-18T07:23:22.000Z</time>
      </trkpt>
      <trkpt lat="43.1641" lon="2.36341">
        <ele>214.6</ele>
        <time>2019-08-18T07:23:23.000Z</time>
      </trkpt>
      <trkpt lat="43.16409" lon="2.36337">
        <ele>214.6</ele>
        <time>2019-08-18T07:23:24.000Z</time>
      </trkpt>
      <trkpt lat="43.16409" lon="2.36334">
        <ele>214.6</ele>
        <time>2019-08-18T07:23:25.000Z</time>
      </trkpt>
      <trkpt lat="43.16409" lon="2.3633">
        <ele>214.4</ele>
        <time>2019-08-18T07:23:26.000Z</time>
      </trkpt>
      <trkpt lat="43.16408" lon="2.36326">
        <ele>214.2</ele>
        <time>2019-08-18T07:23:27.000Z</time>
      </trkpt>
      <trkpt lat="43.16408" lon="2.36323">
        <ele>214</ele>
        <time>2019-08-18T07:23:28.000Z</time>
      </trkpt>
      <trkpt lat="43.16408" lon="2.36319">
        <ele>213.8</ele>
        <time>2019-08-18T07:23:29.000Z</time>
      </trkpt>
      <trkpt lat="43.16407" lon="2.36315">
        <ele>213.6</ele>
        <time>2019-08-18T07:23:30.000Z</time>
      </trkpt>
      <trkpt lat="43.16407" lon="2.36311">
        <ele>213.4</ele>
        <time>2019-08-18T07:23:31.000Z</time>
      </trkpt>
      <trkpt lat="43.16406" lon="2.36308">
        <ele>213.2</ele>
        <time>2019-08-18T07:23:32.000Z</time>
      </trkpt>
      <trkpt lat="43.16406" lon="2.36304">
        <ele>213</ele>
        <time>2019-08-18T07:23:33.000Z</time>
      </trkpt>
      <trkpt lat="43.16405" lon="2.363">
        <ele>212.8</ele>
        <time>2019-08-18T07:23:34.000Z</time>
      </trkpt>
      <trkpt lat="43.16405" lon="2.36296">
        <ele>212.6</ele>
        <time>2019-08-18T07:23:35.000Z</time>
      </trkpt>
      <trkpt lat="43.16404" lon="2.36292">
        <ele>212.4</ele>
        <time>2019-08-18T07:23:36.000Z</time>
      </trkpt>
      <trkpt lat="43.16404" lon="2.36289">
        <ele>212.3</ele>
        <time>2019-08-18T07:23:37.000Z</time>
      </trkpt>
      <trkpt lat="43.16403" lon="2.36285">
        <ele>212.1</ele>
        <time>2019-08-18T07:23:38.000Z</time>
      </trkpt>
      <trkpt lat="43.16402" lon="2.36281">
        <ele>211.9</ele>
        <time>2019-08-18T07:23:39.000Z</time>
      </trkpt>
      <trkpt lat="43.16402" lon="2.36277">
        <ele>211.7</ele>
        <time>2019-08-18T07:23:40.000Z</time>
      </trkpt>
      <trkpt lat="43.16401" lon="2.36273">
        <ele>211.5</ele>
        <time>2019-08-18T07:23:41.000Z</time>
      </trkpt>
      <trkpt lat="43.164" lon="2.36269">
        <ele>211.3</ele>
        <time>2019-08-18T07:23:42.000Z</time>
      </trkpt>
      <trkpt lat="43.164" lon="2.36265">
        <ele>211.1</ele>
        <time>2019-08-18T07:23:43.000Z</time>
      </trkpt>
      <trkpt lat="43.16399" lon="2.36261">
        <ele>211</ele>
        <time>2019-08-18T07:23:44.000Z</time>
      </trkpt>
      <trkpt lat="43.16398" lon="2.36257">
        <ele>210.8</ele>
        <time>2019-08-18T07:23:45.000Z</time>
      </trkpt>
      <trkpt lat="43.16398" lon="2.36253">
        <ele>210.6</ele>
        <time>2019-08-18T07:23:46.000Z</time>
      </trkpt>
      <trkpt lat="43.16397" lon="2.36249">
        <ele>210.4</ele>
        <time>2019-08-18T07:23:47.000Z</time>
      </trkpt>
      <trkpt lat="43.16397" lon="2.36246">
        <ele>210.2</ele>
        <time>2019-08-18T07:23:48.000Z</time>
      </trkpt>
      <trkpt lat="43.16396" lon="2.36242">
        <ele>210</ele>
        <time>2019-08-18T07:23:49.000Z</time>
      </trkpt>
      <trkpt lat="43.16396" lon="2.36238">
        <ele>209.8</ele>
        <time>2019-08-18T07:23:50.000Z</time>
      </trkpt>
      <trkpt lat="43.16395" lon="2.36234">
        <ele>209.6</ele>
        <time>2019-08-18T07:23:51.000Z</time>
      </trkpt>
      <trkpt lat="43.16395" lon="2.3623">
        <ele>209.4</ele>
        <time>2019-08-18T07:23:52.000Z</time>
      </trkpt>
      <trkpt lat="43.16395" lon="2.36227">
        <ele>209.2</ele>
        <time>2019-08-18T07:23:53.000Z</time>
      </trkpt>
      <trkpt lat="43.16395" lon="2.36223">
        <ele>208.9</ele>
        <time>2019-08-18T07:23:54.000Z</time>
      </trkpt>
      <trkpt lat="43.16395" lon="2.36219">
        <ele>208.7</ele>
        <time>2019-08-18T07:23:55.000Z</time>
      </trkpt>
      <trkpt lat="43.16395" lon="2.36216">
        <ele>208.5</ele>
        <time>2019-08-18T07:23:56.000Z</time>
      </trkpt>
      <trkpt lat="43.16394" lon="2.36212">
        <ele>208.3</ele>
        <time>2019-08-18T07:23:57.000Z</time>
      </trkpt>
      <trkpt lat="43.16394" lon="2.36209">
        <ele>208.1</ele>
        <time>2019-08-18T07:23:58.000Z</time>
      </trkpt>
      <trkpt lat="43.16394" lon="2.36205">
        <ele>207.9</ele>
        <time>2019-08-18T07:23:59.000Z</time>
      </trkpt>
      <trkpt lat="43.16393" lon="2.36201">
        <ele>207.7</ele>
        <time>2019-08-18T07:24:00.000Z</time>
      </trkpt>
      <trkpt lat="43.16392" lon="2.36198">
        <ele>207.5</ele>
        <time>2019-08-18T07:24:01.000Z</time>
      </trkpt>
      <trkpt lat="43.16392" lon="2.36194">
        <ele>207.3</ele>
        <time>2019-08-18T07:24:02.000Z</time>
      </trkpt>
      <trkpt lat="43.16391" lon="2.3619">
        <ele>207.1</ele>
        <time>2019-08-18T07:24:03.000Z</time>
      </trkpt>
      <trkpt lat="43.1639" lon="2.36186">
        <ele>206.9</ele>
        <time>2019-08-18T07:24:04.000Z</time>
      </trkpt>
      <trkpt lat="43.16389" lon="2.36182">
        <ele>206.7</ele>
        <time>2019-08-18T07:24:05.000Z</time>
      </trkpt>
      <trkpt lat="43.16389" lon="2.36178">
        <ele>206.4</ele>
        <time>2019-08-18T07:24:06.000Z</time>
      </trkpt>
      <trkpt lat="43.16388" lon="2.36174">
        <ele>206.2</ele>
        <time>2019-08-18T07:24:07.000Z</time>
      </trkpt>
      <trkpt lat="43.16387" lon="2.3617">
        <ele>205.9</ele>
        <time>2019-08-18T07:24:08.000Z</time>
      </trkpt>
      <trkpt lat="43.16387" lon="2.36166">
        <ele>205.7</ele>
        <time>2019-08-18T07:24:09.000Z</time>
      </trkpt>
      <trkpt lat="43.16387" lon="2.36162">
        <ele>205.4</ele>
        <time>2019-08-18T07:24:10.000Z</time>
      </trkpt>
      <trkpt lat="43.16386" lon="2.36158">
        <ele>205.2</ele>
        <time>2019-08-18T07:24:11.000Z</time>
      </trkpt>
      <trkpt lat="43.16386" lon="2.36154">
        <ele>204.9</ele>
        <time>2019-08-18T07:24:12.000Z</time>
      </trkpt>
      <trkpt lat="43.16386" lon="2.3615">
        <ele>204.7</ele>
        <time>2019-08-18T07:24:13.000Z</time>
      </trkpt>
      <trkpt lat="43.16386" lon="2.36146">
        <ele>204.5</ele>
        <time>2019-08-18T07:24:14.000Z</time>
      </trkpt>
      <trkpt lat="43.16386" lon="2.36142">
        <ele>204.2</ele>
        <time>2019-08-18T07:24:15.000Z</time>
      </trkpt>
      <trkpt lat="43.16386" lon="2.36138">
        <ele>204</ele>
        <time>2019-08-18T07:24:16.000Z</time>
      </trkpt>
      <trkpt lat="43.16386" lon="2.36134">
        <ele>203.8</ele>
        <time>2019-08-18T07:24:17.000Z</time>
      </trkpt>
      <trkpt lat="43.16386" lon="2.36131">
        <ele>203.5</ele>
        <time>2019-08-18T07:24:18.000Z</time>
      </trkpt>
      <trkpt lat="43.16386" lon="2.36127">
        <ele>203.3</ele>
        <time>2019-08-18T07:24:19.000Z</time>
      </trkpt>
      <trkpt lat="43.16386" lon="2.36124">
        <ele>203.1</ele>
        <time>2019-08-18T07:24:20.000Z</time>
      </trkpt>
      <trkpt lat="43.16386" lon="2.36121">
        <ele>202.9</ele>
        <time>2019-08-18T07:24:21.000Z</time>
      </trkpt>
      <trkpt lat="43.16386" lon="2.36118">
        <ele>202.7</ele>
        <time>2019-08-18T07:24:22.000Z</time>
      </trkpt>
      <trkpt lat="43.16386" lon="2.36115">
        <ele>202.6</ele>
        <time>2019-08-18T07:24:23.000Z</time>
      </trkpt>
      <trkpt lat="43.16386" lon="2.36112">
        <ele>202.4</ele>
        <time>2019-08-18T07:24:24.000Z</time>
      </trkpt>
      <trkpt lat="43.16386" lon="2.36109">
        <ele>202.2</ele>
        <time>2019-08-18T07:24:25.000Z</time>
      </trkpt>
      <trkpt lat="43.16386" lon="2.36106">
        <ele>202</ele>
        <time>2019-08-18T07:24:26.000Z</time>
      </trkpt>
      <trkpt lat="43.16386" lon="2.36102">
        <ele>201.8</ele>
        <time>2019-08-18T07:24:27.000Z</time>
      </trkpt>
      <trkpt lat="43.16386" lon="2.36098">
        <ele>201.6</ele>
        <time>2019-08-18T07:24:28.000Z</time>
      </trkpt>
      <trkpt lat="43.16387" lon="2.36094">
        <ele>201.3</ele>
        <time>2019-08-18T07:24:29.000Z</time>
      </trkpt>
      <trkpt lat="43.16387" lon="2.3609">
        <ele>201.1</ele>
        <time>2019-08-18T07:24:30.000Z</time>
      </trkpt>
      <trkpt lat="43.16387" lon="2.36086">
        <ele>200.8</ele>
        <time>2019-08-18T07:24:31.000Z</time>
      </trkpt>
      <trkpt lat="43.16388" lon="2.36082">
        <ele>200.6</ele>
        <time>2019-08-18T07:24:32.000Z</time>
      </trkpt>
      <trkpt lat="43.16388" lon="2.36078">
        <ele>200.4</ele>
        <time>2019-08-18T07:24:33.000Z</time>
      </trkpt>
      <trkpt lat="43.16388" lon="2.36074">
        <ele>200.3</ele>
        <time>2019-08-18T07:24:34.000Z</time>
      </trkpt>
      <trkpt lat="43.16388" lon="2.3607">
        <ele>200.1</ele>
        <time>2019-08-18T07:24:35.000Z</time>
      </trkpt>
      <trkpt lat="43.16388" lon="2.36066">
        <ele>200</ele>
        <time>2019-08-18T07:24:36.000Z</time>
      </trkpt>
      <trkpt lat="43.16388" lon="2.36062">
        <ele>199.8</ele>
        <time>2019-08-18T07:24:37.000Z</time>
      </trkpt>
      <trkpt lat="43.16389" lon="2.36058">
        <ele>199.6</ele>
        <time>2019-08-18T07:24:38.000Z</time>
      </trkpt>
      <trkpt lat="43.16389" lon="2.36054">
        <ele>199.5</ele>
        <time>2019-08-18T07:24:39.000Z</time>
      </trkpt>
      <trkpt lat="43.16389" lon="2.36051">
        <ele>199.4</ele>
        <time>2019-08-18T07:24:40.000Z</time>
      </trkpt>
      <trkpt lat="43.16389" lon="2.36047">
        <ele>199.2</ele>
        <time>2019-08-18T07:24:41.000Z</time>
      </trkpt>
      <trkpt lat="43.1639" lon="2.36043">
        <ele>199.1</ele>
        <time>2019-08-18T07:24:42.000Z</time>
      </trkpt>
      <trkpt lat="43.16391" lon="2.36039">
        <ele>198.9</ele>
        <time>2019-08-18T07:24:43.000Z</time>
      </trkpt>
      <trkpt lat="43.16391" lon="2.36035">
        <ele>198.8</ele>
        <time>2019-08-18T07:24:44.000Z</time>
      </trkpt>
      <trkpt lat="43.16392" lon="2.36032">
        <ele>198.7</ele>
        <time>2019-08-18T07:24:45.000Z</time>
      </trkpt>
      <trkpt lat="43.16393" lon="2.36028">
        <ele>198.5</ele>
        <time>2019-08-18T07:24:46.000Z</time>
      </trkpt>
      <trkpt lat="43.16394" lon="2.36024">
        <ele>198.4</ele>
        <time>2019-08-18T07:24:47.000Z</time>
      </trkpt>
      <trkpt lat="43.16394" lon="2.3602">
        <ele>198.2</ele>
        <time>2019-08-18T07:24:48.000Z</time>
      </trkpt>
      <trkpt lat="43.16395" lon="2.36016">
        <ele>198.1</ele>
        <time>2019-08-18T07:24:49.000Z</time>
      </trkpt>
      <trkpt lat="43.16395" lon="2.36012">
        <ele>197.9</ele>
        <time>2019-08-18T07:24:50.000Z</time>
      </trkpt>
      <trkpt lat="43.16395" lon="2.36008">
        <ele>197.8</ele>
        <time>2019-08-18T07:24:51.000Z</time>
      </trkpt>
      <trkpt lat="43.16395" lon="2.36004">
        <ele>197.6</ele>
        <time>2019-08-18T07:24:52.000Z</time>
      </trkpt>
      <trkpt lat="43.16395" lon="2.36">
        <ele>197.5</ele>
        <time>2019-08-18T07:24:53.000Z</time>
      </trkpt>
      <trkpt lat="43.16395" lon="2.35996">
        <ele>197.4</ele>
        <time>2019-08-18T07:24:54.000Z</time>
      </trkpt>
      <trkpt lat="43.16395" lon="2.35991">
        <ele>197.2</ele>
        <time>2019-08-18T07:24:55.000Z</time>
      </trkpt>
      <trkpt lat="43.16394" lon="2.35987">
        <ele>197.1</ele>
        <time>2019-08-18T07:24:56.000Z</time>
      </trkpt>
      <trkpt lat="43.16394" lon="2.35983">
        <ele>197</ele>
        <time>2019-08-18T07:24:57.000Z</time>
      </trkpt>
      <trkpt lat="43.16393" lon="2.35978">
        <ele>196.8</ele>
        <time>2019-08-18T07:24:58.000Z</time>
      </trkpt>
      <trkpt lat="43.16393" lon="2.35974">
        <ele>196.7</ele>
        <time>2019-08-18T07:24:59.000Z</time>
      </trkpt>
      <trkpt lat="43.16392" lon="2.3597">
        <ele>196.6</ele>
        <time>2019-08-18T07:25:00.000Z</time>
      </trkpt>
      <trkpt lat="43.16391" lon="2.35965">
        <ele>196.4</ele>
        <time>2019-08-18T07:25:01.000Z</time>
      </trkpt>
      <trkpt lat="43.16391" lon="2.35961">
        <ele>196.3</ele>
        <time>2019-08-18T07:25:02.000Z</time>
      </trkpt>
      <trkpt lat="43.1639" lon="2.35956">
        <ele>196.1</ele>
        <time>2019-08-18T07:25:03.000Z</time>
      </trkpt>
      <trkpt lat="43.16389" lon="2.35952">
        <ele>196</ele>
        <time>2019-08-18T07:25:04.000Z</time>
      </trkpt>
      <trkpt lat="43.16389" lon="2.35948">
        <ele>195.9</ele>
        <time>2019-08-18T07:25:05.000Z</time>
      </trkpt>
      <trkpt lat="43.16388" lon="2.35943">
        <ele>195.7</ele>
        <time>2019-08-18T07:25:06.000Z</time>
      </trkpt>
      <trkpt lat="43.16388" lon="2.35939">
        <ele>195.6</ele>
        <time>2019-08-18T07:25:07.000Z</time>
      </trkpt>
      <trkpt lat="43.16387" lon="2.35935">
        <ele>195.5</ele>
        <time>2019-08-18T07:25:08.000Z</time>
      </trkpt>
      <trkpt lat="43.16387" lon="2.35931">
        <ele>195.3</ele>
        <time>2019-08-18T07:25:09.000Z</time>
      </trkpt>
      <trkpt lat="43.16386" lon="2.35927">
        <ele>195.2</ele>
        <time>2019-08-18T07:25:10.000Z</time>
      </trkpt>
      <trkpt lat="43.16386" lon="2.35924">
        <ele>195.1</ele>
        <time>2019-08-18T07:25:11.000Z</time>
      </trkpt>
      <trkpt lat="43.16386" lon="2.3592">
        <ele>195</ele>
        <time>2019-08-18T07:25:12.000Z</time>
      </trkpt>
      <trkpt lat="43.16386" lon="2.35917">
        <ele>194.9</ele>
        <time>2019-08-18T07:25:13.000Z</time>
      </trkpt>
      <trkpt lat="43.16385" lon="2.35913">
        <ele>194.7</ele>
        <time>2019-08-18T07:25:14.000Z</time>
      </trkpt>
      <trkpt lat="43.16385" lon="2.3591">
        <ele>194.6</ele>
        <time>2019-08-18T07:25:15.000Z</time>
      </trkpt>
      <trkpt lat="43.16385" lon="2.35906">
        <ele>194.4</ele>
        <time>2019-08-18T07:25:16.000Z</time>
      </trkpt>
      <trkpt lat="43.16384" lon="2.35902">
        <ele>194.2</ele>
        <time>2019-08-18T07:25:17.000Z</time>
      </trkpt>
      <trkpt lat="43.16384" lon="2.35899">
        <ele>194</ele>
        <time>2019-08-18T07:25:18.000Z</time>
      </trkpt>
      <trkpt lat="43.16383" lon="2.35895">
        <ele>193.8</ele>
        <time>2019-08-18T07:25:19.000Z</time>
      </trkpt>
      <trkpt lat="43.16383" lon="2.35891">
        <ele>193.7</ele>
        <time>2019-08-18T07:25:20.000Z</time>
      </trkpt>
      <trkpt lat="43.16382" lon="2.35887">
        <ele>193.5</ele>
        <time>2019-08-18T07:25:21.000Z</time>
      </trkpt>
      <trkpt lat="43.16381" lon="2.35883">
        <ele>193.3</ele>
        <time>2019-08-18T07:25:22.000Z</time>
      </trkpt>
      <trkpt lat="43.1638" lon="2.35879">
        <ele>193.1</ele>
        <time>2019-08-18T07:25:23.000Z</time>
      </trkpt>
      <trkpt lat="43.16379" lon="2.35874">
        <ele>192.9</ele>
        <time>2019-08-18T07:25:24.000Z</time>
      </trkpt>
      <trkpt lat="43.16378" lon="2.3587">
        <ele>192.6</ele>
        <time>2019-08-18T07:25:25.000Z</time>
      </trkpt>
      <trkpt lat="43.16377" lon="2.35866">
        <ele>192.4</ele>
        <time>2019-08-18T07:25:26.000Z</time>
      </trkpt>
      <trkpt lat="43.16376" lon="2.35862">
        <ele>192.2</ele>
        <time>2019-08-18T07:25:27.000Z</time>
      </trkpt>
      <trkpt lat="43.16375" lon="2.35858">
        <ele>192</ele>
        <time>2019-08-18T07:25:28.000Z</time>
      </trkpt>
      <trkpt lat="43.16374" lon="2.35854">
        <ele>191.8</ele>
        <time>2019-08-18T07:25:29.000Z</time>
      </trkpt>
      <trkpt lat="43.16373" lon="2.3585">
        <ele>191.7</ele>
        <time>2019-08-18T07:25:30.000Z</time>
      </trkpt>
      <trkpt lat="43.16372" lon="2.35846">
        <ele>191.5</ele>
        <time>2019-08-18T07:25:31.000Z</time>
      </trkpt>
      <trkpt lat="43.16371" lon="2.35842">
        <ele>191.3</ele>
        <time>2019-08-18T07:25:32.000Z</time>
      </trkpt>
      <trkpt lat="43.1637" lon="2.35839">
        <ele>191.1</ele>
        <time>2019-08-18T07:25:33.000Z</time>
      </trkpt>
      <trkpt lat="43.1637" lon="2.35835">
        <ele>190.9</ele>
        <time>2019-08-18T07:25:34.000Z</time>
      </trkpt>
      <trkpt lat="43.16369" lon="2.35831">
        <ele>190.8</ele>
        <time>2019-08-18T07:25:35.000Z</time>
      </trkpt>
      <trkpt lat="43.16368" lon="2.35828">
        <ele>190.7</ele>
        <time>2019-08-18T07:25:36.000Z</time>
      </trkpt>
      <trkpt lat="43.16368" lon="2.35824">
        <ele>190.6</ele>
        <time>2019-08-18T07:25:37.000Z</time>
      </trkpt>
      <trkpt lat="43.16368" lon="2.3582">
        <ele>190.5</ele>
        <time>2019-08-18T07:25:38.000Z</time>
      </trkpt>
      <trkpt lat="43.16367" lon="2.35817">
        <ele>190.4</ele>
        <time>2019-08-18T07:25:39.000Z</time>
      </trkpt>
      <trkpt lat="43.16367" lon="2.35813">
        <ele>190.3</ele>
        <time>2019-08-18T07:25:40.000Z</time>
      </trkpt>
      <trkpt lat="43.16367" lon="2.35809">
        <ele>190.2</ele>
        <time>2019-08-18T07:25:41.000Z</time>
      </trkpt>
      <trkpt lat="43.16367" lon="2.35806">
        <ele>190.2</ele>
        <time>2019-08-18T07:25:42.000Z</time>
      </trkpt>
      <trkpt lat="43.16367" lon="2.35802">
        <ele>190.1</ele>
        <time>2019-08-18T07:25:43.000Z</time>
      </trkpt>
      <trkpt lat="43.16367" lon="2.35798">
        <ele>190</ele>
        <time>2019-08-18T07:25:44.000Z</time>
      </trkpt>
      <trkpt lat="43.16367" lon="2.35795">
        <ele>189.9</ele>
        <time>2019-08-18T07:25:45.000Z</time>
      </trkpt>
      <trkpt lat="43.16366" lon="2.35791">
        <ele>189.8</ele>
        <time>2019-08-18T07:25:46.000Z</time>
      </trkpt>
      <trkpt lat="43.16365" lon="2.35788">
        <ele>189.7</ele>
        <time>2019-08-18T07:25:47.000Z</time>
      </trkpt>
      <trkpt lat="43.16365" lon="2.35784">
        <ele>189.6</ele>
        <time>2019-08-18T07:25:48.000Z</time>
      </trkpt>
      <trkpt lat="43.16364" lon="2.35781">
        <ele>189.5</ele>
        <time>2019-08-18T07:25:49.000Z</time>
      </trkpt>
      <trkpt lat="43.16363" lon="2.35777">
        <ele>189.4</ele>
        <time>2019-08-18T07:25:50.000Z</time>
      </trkpt>
      <trkpt lat="43.16361" lon="2.35774">
        <ele>189.2</ele>
        <time>2019-08-18T07:25:51.000Z</time>
      </trkpt>
      <trkpt lat="43.1636" lon="2.3577">
        <ele>189.1</ele>
        <time>2019-08-18T07:25:52.000Z</time>
      </trkpt>
      <trkpt lat="43.16359" lon="2.35767">
        <ele>189</ele>
        <time>2019-08-18T07:25:53.000Z</time>
      </trkpt>
      <trkpt lat="43.16358" lon="2.35763">
        <ele>188.9</ele>
        <time>2019-08-18T07:25:54.000Z</time>
      </trkpt>
      <trkpt lat="43.16357" lon="2.3576">
        <ele>188.8</ele>
        <time>2019-08-18T07:25:55.000Z</time>
      </trkpt>
      <trkpt lat="43.16355" lon="2.35756">
        <ele>188.7</ele>
        <time>2019-08-18T07:25:56.000Z</time>
      </trkpt>
      <trkpt lat="43.16354" lon="2.35753">
        <ele>188.6</ele>
        <time>2019-08-18T07:25:57.000Z</time>
      </trkpt>
      <trkpt lat="43.16353" lon="2.35749">
        <ele>188.5</ele>
        <time>2019-08-18T07:25:58.000Z</time>
      </trkpt>
      <trkpt lat="43.16352" lon="2.35746">
        <ele>188.5</ele>
        <time>2019-08-18T07:25:59.000Z</time>
      </trkpt>
      <trkpt lat="43.16351" lon="2.35743">
        <ele>188.5</ele>
        <time>2019-08-18T07:26:00.000Z</time>
      </trkpt>
      <trkpt lat="43.1635" lon="2.35739">
        <ele>188.5</ele>
        <time>2019-08-18T07:26:01.000Z</time>
      </trkpt>
      <trkpt lat="43.16349" lon="2.35736">
        <ele>188.6</ele>
        <time>2019-08-18T07:26:02.000Z</time>
      </trkpt>
      <trkpt lat="43.16348" lon="2.35733">
        <ele>188.6</ele>
        <time>2019-08-18T07:26:03.000Z</time>
      </trkpt>
      <trkpt lat="43.16347" lon="2.35729">
        <ele>188.7</ele>
        <time>2019-08-18T07:26:04.000Z</time>
      </trkpt>
      <trkpt lat="43.16346" lon="2.35726">
        <ele>188.7</ele>
        <time>2019-08-18T07:26:05.000Z</time>
      </trkpt>
      <trkpt lat="43.16345" lon="2.35723">
        <ele>188.7</ele>
        <time>2019-08-18T07:26:06.000Z</time>
      </trkpt>
      <trkpt lat="43.16344" lon="2.35719">
        <ele>188.8</ele>
        <time>2019-08-18T07:26:07.000Z</time>
      </trkpt>
      <trkpt lat="43.16343" lon="2.35716">
        <ele>188.9</ele>
        <time>2019-08-18T07:26:08.000Z</time>
      </trkpt>
      <trkpt lat="43.16342" lon="2.35713">
        <ele>188.9</ele>
        <time>2019-08-18T07:26:09.000Z</time>
      </trkpt>
      <trkpt lat="43.16341" lon="2.35709">
        <ele>189</ele>
        <time>2019-08-18T07:26:10.000Z</time>
      </trkpt>
      <trkpt lat="43.1634" lon="2.35706">
        <ele>189.1</ele>
        <time>2019-08-18T07:26:11.000Z</time>
      </trkpt>
      <trkpt lat="43.16339" lon="2.35702">
        <ele>189.1</ele>
        <time>2019-08-18T07:26:12.000Z</time>
      </trkpt>
      <trkpt lat="43.16338" lon="2.35699">
        <ele>189.2</ele>
        <time>2019-08-18T07:26:13.000Z</time>
      </trkpt>
      <trkpt lat="43.16337" lon="2.35695">
        <ele>189.3</ele>
        <time>2019-08-18T07:26:14.000Z</time>
      </trkpt>
      <trkpt lat="43.16336" lon="2.35692">
        <ele>189.4</ele>
        <time>2019-08-18T07:26:15.000Z</time>
      </trkpt>
      <trkpt lat="43.16335" lon="2.35688">
        <ele>189.5</ele>
        <time>2019-08-18T07:26:16.000Z</time>
      </trkpt>
      <trkpt lat="43.16334" lon="2.35685">
        <ele>189.6</ele>
        <time>2019-08-18T07:26:17.000Z</time>
      </trkpt>
      <trkpt lat="43.16333" lon="2.35681">
        <ele>189.7</ele>
        <time>2019-08-18T07:26:18.000Z</time>
      </trkpt>
      <trkpt lat="43.16332" lon="2.35678">
        <ele>189.9</ele>
        <time>2019-08-18T07:26:19.000Z</time>
      </trkpt>
      <trkpt lat="43.16331" lon="2.35674">
        <ele>190.1</ele>
        <time>2019-08-18T07:26:20.000Z</time>
      </trkpt>
      <trkpt lat="43.1633" lon="2.35671">
        <ele>190.4</ele>
        <time>2019-08-18T07:26:21.000Z</time>
      </trkpt>
      <trkpt lat="43.16328" lon="2.35667">
        <ele>190.6</ele>
        <time>2019-08-18T07:26:22.000Z</time>
      </trkpt>
      <trkpt lat="43.16327" lon="2.35664">
        <ele>190.7</ele>
        <time>2019-08-18T07:26:23.000Z</time>
      </trkpt>
      <trkpt lat="43.16326" lon="2.3566">
        <ele>190.9</ele>
        <time>2019-08-18T07:26:24.000Z</time>
      </trkpt>
      <trkpt lat="43.16325" lon="2.35657">
        <ele>191</ele>
        <time>2019-08-18T07:26:25.000Z</time>
      </trkpt>
      <trkpt lat="43.16324" lon="2.35653">
        <ele>191.1</ele>
        <time>2019-08-18T07:26:26.000Z</time>
      </trkpt>
      <trkpt lat="43.16323" lon="2.3565">
        <ele>191.3</ele>
        <time>2019-08-18T07:26:27.000Z</time>
      </trkpt>
      <trkpt lat="43.16322" lon="2.35647">
        <ele>191.4</ele>
        <time>2019-08-18T07:26:28.000Z</time>
      </trkpt>
      <trkpt lat="43.16321" lon="2.35644">
        <ele>191.5</ele>
        <time>2019-08-18T07:26:29.000Z</time>
      </trkpt>
      <trkpt lat="43.1632" lon="2.3564">
        <ele>191.7</ele>
        <time>2019-08-18T07:26:30.000Z</time>
      </trkpt>
      <trkpt lat="43.16319" lon="2.35637">
        <ele>191.8</ele>
        <time>2019-08-18T07:26:31.000Z</time>
      </trkpt>
      <trkpt lat="43.16318" lon="2.35634">
        <ele>191.9</ele>
        <time>2019-08-18T07:26:32.000Z</time>
      </trkpt>
      <trkpt lat="43.16317" lon="2.35631">
        <ele>192.1</ele>
        <time>2019-08-18T07:26:33.000Z</time>
      </trkpt>
      <trkpt lat="43.16316" lon="2.35628">
        <ele>192.2</ele>
        <time>2019-08-18T07:26:34.000Z</time>
      </trkpt>
      <trkpt lat="43.16314" lon="2.35625">
        <ele>192.4</ele>
        <time>2019-08-18T07:26:35.000Z</time>
      </trkpt>
      <trkpt lat="43.16313" lon="2.35622">
        <ele>192.5</ele>
        <time>2019-08-18T07:26:36.000Z</time>
      </trkpt>
      <trkpt lat="43.16312" lon="2.35619">
        <ele>192.7</ele>
        <time>2019-08-18T07:26:37.000Z</time>
      </trkpt>
      <trkpt lat="43.16311" lon="2.35616">
        <ele>192.8</ele>
        <time>2019-08-18T07:26:38.000Z</time>
      </trkpt>
      <trkpt lat="43.1631" lon="2.35613">
        <ele>193</ele>
        <time>2019-08-18T07:26:39.000Z</time>
      </trkpt>
      <trkpt lat="43.16309" lon="2.3561">
        <ele>193.2</ele>
        <time>2019-08-18T07:26:40.000Z</time>
      </trkpt>
      <trkpt lat="43.16307" lon="2.35608">
        <ele>193.4</ele>
        <time>2019-08-18T07:26:41.000Z</time>
      </trkpt>
      <trkpt lat="43.16306" lon="2.35605">
        <ele>193.6</ele>
        <time>2019-08-18T07:26:42.000Z</time>
      </trkpt>
      <trkpt lat="43.16304" lon="2.35602">
        <ele>193.7</ele>
        <time>2019-08-18T07:26:43.000Z</time>
      </trkpt>
      <trkpt lat="43.16303" lon="2.35599">
        <ele>193.9</ele>
        <time>2019-08-18T07:26:44.000Z</time>
      </trkpt>
      <trkpt lat="43.16302" lon="2.35596">
        <ele>194.1</ele>
        <time>2019-08-18T07:26:45.000Z</time>
      </trkpt>
      <trkpt lat="43.163" lon="2.35593">
        <ele>194.3</ele>
        <time>2019-08-18T07:26:46.000Z</time>
      </trkpt>
      <trkpt lat="43.16299" lon="2.3559">
        <ele>194.5</ele>
        <time>2019-08-18T07:26:47.000Z</time>
      </trkpt>
      <trkpt lat="43.16297" lon="2.35587">
        <ele>194.7</ele>
        <time>2019-08-18T07:26:48.000Z</time>
      </trkpt>
      <trkpt lat="43.16296" lon="2.35584">
        <ele>194.9</ele>
        <time>2019-08-18T07:26:49.000Z</time>
      </trkpt>
      <trkpt lat="43.16295" lon="2.35581">
        <ele>195.1</ele>
        <time>2019-08-18T07:26:50.000Z</time>
      </trkpt>
      <trkpt lat="43.16293" lon="2.35578">
        <ele>195.3</ele>
        <time>2019-08-18T07:26:51.000Z</time>
      </trkpt>
      <trkpt lat="43.16292" lon="2.35575">
        <ele>195.5</ele>
        <time>2019-08-18T07:26:52.000Z</time>
      </trkpt>
      <trkpt lat="43.16291" lon="2.35572">
        <ele>195.7</ele>
        <time>2019-08-18T07:26:53.000Z</time>
      </trkpt>
      <trkpt lat="43.16289" lon="2.35569">
        <ele>195.9</ele>
        <time>2019-08-18T07:26:54.000Z</time>
      </trkpt>
      <trkpt lat="43.16288" lon="2.35565">
        <ele>196</ele>
        <time>2019-08-18T07:26:55.000Z</time>
      </trkpt>
      <trkpt lat="43.16287" lon="2.35562">
        <ele>196.2</ele>
        <time>2019-08-18T07:26:56.000Z</time>
      </trkpt>
      <trkpt lat="43.16286" lon="2.35559">
        <ele>196.3</ele>
        <time>2019-08-18T07:26:57.000Z</time>
      </trkpt>
      <trkpt lat="43.16285" lon="2.35556">
        <ele>196.5</ele>
        <time>2019-08-18T07:26:58.000Z</time>
      </trkpt>
      <trkpt lat="43.16284" lon="2.35553">
        <ele>196.6</ele>
        <time>2019-08-18T07:26:59.000Z</time>
      </trkpt>
      <trkpt lat="43.16283" lon="2.3555">
        <ele>196.7</ele>
        <time>2019-08-18T07:27:00.000Z</time>
      </trkpt>
      <trkpt lat="43.16282" lon="2.35547">
        <ele>196.8</ele>
        <time>2019-08-18T07:27:01.000Z</time>
      </trkpt>
      <trkpt lat="43.16281" lon="2.35544">
        <ele>196.9</ele>
        <time>2019-08-18T07:27:02.000Z</time>
      </trkpt>
      <trkpt lat="43.16281" lon="2.35541">
        <ele>197</ele>
        <time>2019-08-18T07:27:03.000Z</time>
      </trkpt>
      <trkpt lat="43.1628" lon="2.35538">
        <ele>197.1</ele>
        <time>2019-08-18T07:27:04.000Z</time>
      </trkpt>
      <trkpt lat="43.16279" lon="2.35535">
        <ele>197.2</ele>
        <time>2019-08-18T07:27:05.000Z</time>
      </trkpt>
      <trkpt lat="43.16279" lon="2.35532">
        <ele>197.2</ele>
        <time>2019-08-18T07:27:06.000Z</time>
      </trkpt>
      <trkpt lat="43.16278" lon="2.35529">
        <ele>197.3</ele>
        <time>2019-08-18T07:27:07.000Z</time>
      </trkpt>
      <trkpt lat="43.16278" lon="2.35526">
        <ele>197.4</ele>
        <time>2019-08-18T07:27:08.000Z</time>
      </trkpt>
      <trkpt lat="43.16277" lon="2.35523">
        <ele>197.4</ele>
        <time>2019-08-18T07:27:09.000Z</time>
      </trkpt>
      <trkpt lat="43.16277" lon="2.35521">
        <ele>197.5</ele>
        <time>2019-08-18T07:27:10.000Z</time>
      </trkpt>
      <trkpt lat="43.16276" lon="2.35518">
        <ele>197.5</ele>
        <time>2019-08-18T07:27:11.000Z</time>
      </trkpt>
      <trkpt lat="43.16276" lon="2.35515">
        <ele>197.5</ele>
        <time>2019-08-18T07:27:12.000Z</time>
      </trkpt>
      <trkpt lat="43.16276" lon="2.35513">
        <ele>197.5</ele>
        <time>2019-08-18T07:27:13.000Z</time>
      </trkpt>
      <trkpt lat="43.16276" lon="2.3551">
        <ele>197.5</ele>
        <time>2019-08-18T07:27:14.000Z</time>
      </trkpt>
      <trkpt lat="43.16276" lon="2.35507">
        <ele>197.5</ele>
        <time>2019-08-18T07:27:15.000Z</time>
      </trkpt>
      <trkpt lat="43.16277" lon="2.35504">
        <ele>197.4</ele>
        <time>2019-08-18T07:27:16.000Z</time>
      </trkpt>
      <trkpt lat="43.16277" lon="2.35501">
        <ele>197.4</ele>
        <time>2019-08-18T07:27:17.000Z</time>
      </trkpt>
      <trkpt lat="43.16278" lon="2.35498">
        <ele>197.3</ele>
        <time>2019-08-18T07:27:18.000Z</time>
      </trkpt>
      <trkpt lat="43.16279" lon="2.35495">
        <ele>197.1</ele>
        <time>2019-08-18T07:27:19.000Z</time>
      </trkpt>
      <trkpt lat="43.1628" lon="2.35491">
        <ele>197</ele>
        <time>2019-08-18T07:27:20.000Z</time>
      </trkpt>
      <trkpt lat="43.16281" lon="2.35488">
        <ele>196.9</ele>
        <time>2019-08-18T07:27:21.000Z</time>
      </trkpt>
      <trkpt lat="43.16282" lon="2.35484">
        <ele>196.7</ele>
        <time>2019-08-18T07:27:22.000Z</time>
      </trkpt>
      <trkpt lat="43.16283" lon="2.3548">
        <ele>196.6</ele>
        <time>2019-08-18T07:27:23.000Z</time>
      </trkpt>
      <trkpt lat="43.16284" lon="2.35476">
        <ele>196.5</ele>
        <time>2019-08-18T07:27:24.000Z</time>
      </trkpt>
      <trkpt lat="43.16285" lon="2.35473">
        <ele>196.5</ele>
        <time>2019-08-18T07:27:25.000Z</time>
      </trkpt>
      <trkpt lat="43.16285" lon="2.35469">
        <ele>196.4</ele>
        <time>2019-08-18T07:27:26.000Z</time>
      </trkpt>
      <trkpt lat="43.16286" lon="2.35465">
        <ele>196.3</ele>
        <time>2019-08-18T07:27:27.000Z</time>
      </trkpt>
      <trkpt lat="43.16286" lon="2.35462">
        <ele>196.3</ele>
        <time>2019-08-18T07:27:28.000Z</time>
      </trkpt>
      <trkpt lat="43.16286" lon="2.35459">
        <ele>196.3</ele>
        <time>2019-08-18T07:27:29.000Z</time>
      </trkpt>
      <trkpt lat="43.16285" lon="2.35456">
        <ele>196.3</ele>
        <time>2019-08-18T07:27:30.000Z</time>
      </trkpt>
      <trkpt lat="43.16285" lon="2.35454">
        <ele>196.3</ele>
        <time>2019-08-18T07:27:31.000Z</time>
      </trkpt>
      <trkpt lat="43.16284" lon="2.35452">
        <ele>196.3</ele>
        <time>2019-08-18T07:27:32.000Z</time>
      </trkpt>
      <trkpt lat="43.16283" lon="2.3545">
        <ele>196.3</ele>
        <time>2019-08-18T07:27:33.000Z</time>
      </trkpt>
      <trkpt lat="43.16282" lon="2.35448">
        <ele>196.4</ele>
        <time>2019-08-18T07:27:34.000Z</time>
      </trkpt>
      <trkpt lat="43.16281" lon="2.35446">
        <ele>196.4</ele>
        <time>2019-08-18T07:27:35.000Z</time>
      </trkpt>
      <trkpt lat="43.16279" lon="2.35444">
        <ele>196.4</ele>
        <time>2019-08-18T07:27:36.000Z</time>
      </trkpt>
      <trkpt lat="43.16277" lon="2.35442">
        <ele>196.4</ele>
        <time>2019-08-18T07:27:37.000Z</time>
      </trkpt>
      <trkpt lat="43.16275" lon="2.3544">
        <ele>196.4</ele>
        <time>2019-08-18T07:27:38.000Z</time>
      </trkpt>
      <trkpt lat="43.16274" lon="2.35437">
        <ele>196.4</ele>
        <time>2019-08-18T07:27:39.000Z</time>
      </trkpt>
      <trkpt lat="43.16272" lon="2.35434">
        <ele>196.4</ele>
        <time>2019-08-18T07:27:40.000Z</time>
      </trkpt>
      <trkpt lat="43.16271" lon="2.35431">
        <ele>196.4</ele>
        <time>2019-08-18T07:27:41.000Z</time>
      </trkpt>
      <trkpt lat="43.16269" lon="2.35428">
        <ele>196.3</ele>
        <time>2019-08-18T07:27:42.000Z</time>
      </trkpt>
      <trkpt lat="43.16268" lon="2.35425">
        <ele>196.2</ele>
        <time>2019-08-18T07:27:43.000Z</time>
      </trkpt>
      <trkpt lat="43.16267" lon="2.35423">
        <ele>196.2</ele>
        <time>2019-08-18T07:27:44.000Z</time>
      </trkpt>
      <trkpt lat="43.16265" lon="2.35421">
        <ele>196.1</ele>
        <time>2019-08-18T07:27:45.000Z</time>
      </trkpt>
      <trkpt lat="43.16263" lon="2.3542">
        <ele>196.1</ele>
        <time>2019-08-18T07:27:46.000Z</time>
      </trkpt>
      <trkpt lat="43.16261" lon="2.35419">
        <ele>196.1</ele>
        <time>2019-08-18T07:27:47.000Z</time>
      </trkpt>
      <trkpt lat="43.16259" lon="2.35418">
        <ele>196</ele>
        <time>2019-08-18T07:27:48.000Z</time>
      </trkpt>
      <trkpt lat="43.16257" lon="2.35416">
        <ele>196</ele>
        <time>2019-08-18T07:27:49.000Z</time>
      </trkpt>
      <trkpt lat="43.16255" lon="2.35414">
        <ele>195.9</ele>
        <time>2019-08-18T07:27:50.000Z</time>
      </trkpt>
      <trkpt lat="43.16253" lon="2.35412">
        <ele>195.7</ele>
        <time>2019-08-18T07:27:51.000Z</time>
      </trkpt>
      <trkpt lat="43.16252" lon="2.35409">
        <ele>195.6</ele>
        <time>2019-08-18T07:27:52.000Z</time>
      </trkpt>
      <trkpt lat="43.16251" lon="2.35406">
        <ele>195.4</ele>
        <time>2019-08-18T07:27:53.000Z</time>
      </trkpt>
      <trkpt lat="43.1625" lon="2.35403">
        <ele>195.2</ele>
        <time>2019-08-18T07:27:54.000Z</time>
      </trkpt>
      <trkpt lat="43.16249" lon="2.35399">
        <ele>195</ele>
        <time>2019-08-18T07:27:55.000Z</time>
      </trkpt>
      <trkpt lat="43.16249" lon="2.35396">
        <ele>194.8</ele>
        <time>2019-08-18T07:27:56.000Z</time>
      </trkpt>
      <trkpt lat="43.16248" lon="2.35392">
        <ele>194.6</ele>
        <time>2019-08-18T07:27:57.000Z</time>
      </trkpt>
      <trkpt lat="43.16248" lon="2.35389">
        <ele>194.4</ele>
        <time>2019-08-18T07:27:58.000Z</time>
      </trkpt>
      <trkpt lat="43.16248" lon="2.35386">
        <ele>194.2</ele>
        <time>2019-08-18T07:27:59.000Z</time>
      </trkpt>
      <trkpt lat="43.16248" lon="2.35382">
        <ele>194</ele>
        <time>2019-08-18T07:28:00.000Z</time>
      </trkpt>
      <trkpt lat="43.16248" lon="2.35379">
        <ele>193.8</ele>
        <time>2019-08-18T07:28:01.000Z</time>
      </trkpt>
      <trkpt lat="43.16249" lon="2.35376">
        <ele>193.6</ele>
        <time>2019-08-18T07:28:02.000Z</time>
      </trkpt>
      <trkpt lat="43.1625" lon="2.35374">
        <ele>193.4</ele>
        <time>2019-08-18T07:28:03.000Z</time>
      </trkpt>
      <trkpt lat="43.16251" lon="2.35372">
        <ele>193.4</ele>
        <time>2019-08-18T07:28:04.000Z</time>
      </trkpt>
      <trkpt lat="43.16253" lon="2.35371">
        <ele>193.4</ele>
        <time>2019-08-18T07:28:05.000Z</time>
      </trkpt>
      <trkpt lat="43.16255" lon="2.35371">
        <ele>193.5</ele>
        <time>2019-08-18T07:28:06.000Z</time>
      </trkpt>
      <trkpt lat="43.16257" lon="2.35371">
        <ele>193.6</ele>
        <time>2019-08-18T07:28:07.000Z</time>
      </trkpt>
      <trkpt lat="43.16258" lon="2.35372">
        <ele>193.7</ele>
        <time>2019-08-18T07:28:08.000Z</time>
      </trkpt>
      <trkpt lat="43.1626" lon="2.35372">
        <ele>193.7</ele>
        <time>2019-08-18T07:28:09.000Z</time>
      </trkpt>
      <trkpt lat="43.1626" lon="2.35371">
        <ele>193.7</ele>
        <time>2019-08-18T07:28:10.000Z</time>
      </trkpt>
      <trkpt lat="43.16261" lon="2.35369">
        <ele>193.7</ele>
        <time>2019-08-18T07:28:11.000Z</time>
      </trkpt>
      <trkpt lat="43.16261" lon="2.35368">
        <ele>193.6</ele>
        <time>2019-08-18T07:28:12.000Z</time>
      </trkpt>
      <trkpt lat="43.16261" lon="2.35367">
        <ele>193.6</ele>
        <time>2019-08-18T07:28:13.000Z</time>
      </trkpt>
      <trkpt lat="43.16261" lon="2.35366">
        <ele>193.6</ele>
        <time>2019-08-18T07:28:14.000Z</time>
      </trkpt>
      <trkpt lat="43.16262" lon="2.35366">
        <ele>193.6</ele>
        <time>2019-08-18T07:28:15.000Z</time>
      </trkpt>
      <trkpt lat="43.16262" lon="2.35366">
        <ele>193.6</ele>
        <time>2019-08-18T07:28:16.000Z</time>
      </trkpt>
      <trkpt lat="43.16262" lon="2.35366">
        <ele>193.6</ele>
        <time>2019-08-18T07:28:17.000Z</time>
      </trkpt>
      <trkpt lat="43.16262" lon="2.35365">
        <ele>193.5</ele>
        <time>2019-08-18T07:28:18.000Z</time>
      </trkpt>
      <trkpt lat="43.16262" lon="2.35364">
        <ele>193.5</ele>
        <time>2019-08-18T07:28:19.000Z</time>
      </trkpt>
      <trkpt lat="43.16262" lon="2.35363">
        <ele>193.4</ele>
        <time>2019-08-18T07:28:20.000Z</time>
      </trkpt>
      <trkpt lat="43.16261" lon="2.35361">
        <ele>193.3</ele>
        <time>2019-08-18T07:28:21.000Z</time>
      </trkpt>
      <trkpt lat="43.1626" lon="2.35359">
        <ele>193.1</ele>
        <time>2019-08-18T07:28:22.000Z</time>
      </trkpt>
      <trkpt lat="43.16259" lon="2.35356">
        <ele>192.9</ele>
        <time>2019-08-18T07:28:23.000Z</time>
      </trkpt>
      <trkpt lat="43.16258" lon="2.35353">
        <ele>192.7</ele>
        <time>2019-08-18T07:28:24.000Z</time>
      </trkpt>
      <trkpt lat="43.16257" lon="2.3535">
        <ele>192.5</ele>
        <time>2019-08-18T07:28:25.000Z</time>
      </trkpt>
      <trkpt lat="43.16256" lon="2.35348">
        <ele>192.2</ele>
        <time>2019-08-18T07:28:26.000Z</time>
      </trkpt>
      <trkpt lat="43.16254" lon="2.35345">
        <ele>192</ele>
        <time>2019-08-18T07:28:27.000Z</time>
      </trkpt>
      <trkpt lat="43.16253" lon="2.35342">
        <ele>191.7</ele>
        <time>2019-08-18T07:28:28.000Z</time>
      </trkpt>
      <trkpt lat="43.16252" lon="2.35339">
        <ele>191.5</ele>
        <time>2019-08-18T07:28:29.000Z</time>
      </trkpt>
      <trkpt lat="43.1625" lon="2.35336">
        <ele>191.2</ele>
        <time>2019-08-18T07:28:30.000Z</time>
      </trkpt>
      <trkpt lat="43.16249" lon="2.35334">
        <ele>191.1</ele>
        <time>2019-08-18T07:28:31.000Z</time>
      </trkpt>
      <trkpt lat="43.16247" lon="2.35331">
        <ele>191</ele>
        <time>2019-08-18T07:28:32.000Z</time>
      </trkpt>
      <trkpt lat="43.16246" lon="2.35328">
        <ele>190.8</ele>
        <time>2019-08-18T07:28:33.000Z</time>
      </trkpt>
      <trkpt lat="43.16244" lon="2.35325">
        <ele>190.7</ele>
        <time>2019-08-18T07:28:34.000Z</time>
      </trkpt>
      <trkpt lat="43.16243" lon="2.35323">
        <ele>190.6</ele>
        <time>2019-08-18T07:28:35.000Z</time>
      </trkpt>
      <trkpt lat="43.16241" lon="2.3532">
        <ele>190.5</ele>
        <time>2019-08-18T07:28:36.000Z</time>
      </trkpt>
      <trkpt lat="43.1624" lon="2.35317">
        <ele>190.3</ele>
        <time>2019-08-18T07:28:37.000Z</time>
      </trkpt>
      <trkpt lat="43.16238" lon="2.35314">
        <ele>190.2</ele>
        <time>2019-08-18T07:28:38.000Z</time>
      </trkpt>
      <trkpt lat="43.16237" lon="2.35311">
        <ele>190.1</ele>
        <time>2019-08-18T07:28:39.000Z</time>
      </trkpt>
      <trkpt lat="43.16235" lon="2.35308">
        <ele>190</ele>
        <time>2019-08-18T07:28:40.000Z</time>
      </trkpt>
      <trkpt lat="43.16234" lon="2.35305">
        <ele>189.8</ele>
        <time>2019-08-18T07:28:41.000Z</time>
      </trkpt>
      <trkpt lat="43.16232" lon="2.35302">
        <ele>189.7</ele>
        <time>2019-08-18T07:28:42.000Z</time>
      </trkpt>
      <trkpt lat="43.16231" lon="2.35299">
        <ele>189.5</ele>
        <time>2019-08-18T07:28:43.000Z</time>
      </trkpt>
      <trkpt lat="43.16229" lon="2.35296">
        <ele>189.4</ele>
        <time>2019-08-18T07:28:44.000Z</time>
      </trkpt>
      <trkpt lat="43.16228" lon="2.35293">
        <ele>189.2</ele>
        <time>2019-08-18T07:28:45.000Z</time>
      </trkpt>
      <trkpt lat="43.16226" lon="2.3529">
        <ele>189.1</ele>
        <time>2019-08-18T07:28:46.000Z</time>
      </trkpt>
      <trkpt lat="43.16224" lon="2.35287">
        <ele>188.9</ele>
        <time>2019-08-18T07:28:47.000Z</time>
      </trkpt>
      <trkpt lat="43.16223" lon="2.35283">
        <ele>188.8</ele>
        <time>2019-08-18T07:28:48.000Z</time>
      </trkpt>
      <trkpt lat="43.16221" lon="2.3528">
        <ele>188.6</ele>
        <time>2019-08-18T07:28:49.000Z</time>
      </trkpt>
      <trkpt lat="43.1622" lon="2.35277">
        <ele>188.5</ele>
        <time>2019-08-18T07:28:50.000Z</time>
      </trkpt>
      <trkpt lat="43.16218" lon="2.35274">
        <ele>188.3</ele>
        <time>2019-08-18T07:28:51.000Z</time>
      </trkpt>
      <trkpt lat="43.16217" lon="2.35271">
        <ele>188.2</ele>
        <time>2019-08-18T07:28:52.000Z</time>
      </trkpt>
      <trkpt lat="43.16215" lon="2.35268">
        <ele>188</ele>
        <time>2019-08-18T07:28:53.000Z</time>
      </trkpt>
      <trkpt lat="43.16213" lon="2.35265">
        <ele>187.8</ele>
        <time>2019-08-18T07:28:54.000Z</time>
      </trkpt>
      <trkpt lat="43.16212" lon="2.35262">
        <ele>187.7</ele>
        <time>2019-08-18T07:28:55.000Z</time>
      </trkpt>
      <trkpt lat="43.1621" lon="2.35259">
        <ele>187.5</ele>
        <time>2019-08-18T07:28:56.000Z</time>
      </trkpt>
      <trkpt lat="43.16208" lon="2.35256">
        <ele>187.4</ele>
        <time>2019-08-18T07:28:57.000Z</time>
      </trkpt>
      <trkpt lat="43.16207" lon="2.35252">
        <ele>187.2</ele>
        <time>2019-08-18T07:28:58.000Z</time>
      </trkpt>
      <trkpt lat="43.16205" lon="2.35249">
        <ele>187.1</ele>
        <time>2019-08-18T07:28:59.000Z</time>
      </trkpt>
      <trkpt lat="43.16203" lon="2.35246">
        <ele>187</ele>
        <time>2019-08-18T07:29:00.000Z</time>
      </trkpt>
      <trkpt lat="43.16202" lon="2.35243">
        <ele>186.9</ele>
        <time>2019-08-18T07:29:01.000Z</time>
      </trkpt>
      <trkpt lat="43.162" lon="2.3524">
        <ele>186.8</ele>
        <time>2019-08-18T07:29:02.000Z</time>
      </trkpt>
      <trkpt lat="43.16198" lon="2.35237">
        <ele>186.7</ele>
        <time>2019-08-18T07:29:03.000Z</time>
      </trkpt>
      <trkpt lat="43.16197" lon="2.35234">
        <ele>186.7</ele>
        <time>2019-08-18T07:29:04.000Z</time>
      </trkpt>
      <trkpt lat="43.16195" lon="2.35231">
        <ele>186.6</ele>
        <time>2019-08-18T07:29:05.000Z</time>
      </trkpt>
      <trkpt lat="43.16193" lon="2.35228">
        <ele>186.5</ele>
        <time>2019-08-18T07:29:06.000Z</time>
      </trkpt>
      <trkpt lat="43.16192" lon="2.35225">
        <ele>186.4</ele>
        <time>2019-08-18T07:29:07.000Z</time>
      </trkpt>
      <trkpt lat="43.1619" lon="2.35222">
        <ele>186.3</ele>
        <time>2019-08-18T07:29:08.000Z</time>
      </trkpt>
      <trkpt lat="43.16188" lon="2.35219">
        <ele>186.2</ele>
        <time>2019-08-18T07:29:09.000Z</time>
      </trkpt>
      <trkpt lat="43.16187" lon="2.35216">
        <ele>186.1</ele>
        <time>2019-08-18T07:29:10.000Z</time>
      </trkpt>
      <trkpt lat="43.16185" lon="2.35213">
        <ele>186</ele>
        <time>2019-08-18T07:29:11.000Z</time>
      </trkpt>
      <trkpt lat="43.16184" lon="2.3521">
        <ele>185.9</ele>
        <time>2019-08-18T07:29:12.000Z</time>
      </trkpt>
      <trkpt lat="43.16183" lon="2.35207">
        <ele>185.7</ele>
        <time>2019-08-18T07:29:13.000Z</time>
      </trkpt>
      <trkpt lat="43.16182" lon="2.35204">
        <ele>185.6</ele>
        <time>2019-08-18T07:29:14.000Z</time>
      </trkpt>
      <trkpt lat="43.1618" lon="2.352">
        <ele>185.5</ele>
        <time>2019-08-18T07:29:15.000Z</time>
      </trkpt>
      <trkpt lat="43.16179" lon="2.35197">
        <ele>185.3</ele>
        <time>2019-08-18T07:29:16.000Z</time>
      </trkpt>
      <trkpt lat="43.16179" lon="2.35194">
        <ele>185.2</ele>
        <time>2019-08-18T07:29:17.000Z</time>
      </trkpt>
      <trkpt lat="43.16178" lon="2.3519">
        <ele>185.1</ele>
        <time>2019-08-18T07:29:18.000Z</time>
      </trkpt>
      <trkpt lat="43.16177" lon="2.35187">
        <ele>184.9</ele>
        <time>2019-08-18T07:29:19.000Z</time>
      </trkpt>
      <trkpt lat="43.16176" lon="2.35183">
        <ele>184.8</ele>
        <time>2019-08-18T07:29:20.000Z</time>
      </trkpt>
      <trkpt lat="43.16175" lon="2.3518">
        <ele>184.6</ele>
        <time>2019-08-18T07:29:21.000Z</time>
      </trkpt>
      <trkpt lat="43.16175" lon="2.35176">
        <ele>184.4</ele>
        <time>2019-08-18T07:29:22.000Z</time>
      </trkpt>
      <trkpt lat="43.16174" lon="2.35173">
        <ele>184.3</ele>
        <time>2019-08-18T07:29:23.000Z</time>
      </trkpt>
      <trkpt lat="43.16173" lon="2.35169">
        <ele>184.1</ele>
        <time>2019-08-18T07:29:24.000Z</time>
      </trkpt>
      <trkpt lat="43.16172" lon="2.35166">
        <ele>183.9</ele>
        <time>2019-08-18T07:29:25.000Z</time>
      </trkpt>
      <trkpt lat="43.16171" lon="2.35162">
        <ele>183.7</ele>
        <time>2019-08-18T07:29:26.000Z</time>
      </trkpt>
      <trkpt lat="43.16171" lon="2.35159">
        <ele>183.5</ele>
        <time>2019-08-18T07:29:27.000Z</time>
      </trkpt>
      <trkpt lat="43.1617" lon="2.35155">
        <ele>183.3</ele>
        <time>2019-08-18T07:29:28.000Z</time>
      </trkpt>
      <trkpt lat="43.16168" lon="2.35151">
        <ele>183.1</ele>
        <time>2019-08-18T07:29:29.000Z</time>
      </trkpt>
      <trkpt lat="43.16167" lon="2.35148">
        <ele>182.9</ele>
        <time>2019-08-18T07:29:30.000Z</time>
      </trkpt>
      <trkpt lat="43.16166" lon="2.35144">
        <ele>182.8</ele>
        <time>2019-08-18T07:29:31.000Z</time>
      </trkpt>
      <trkpt lat="43.16165" lon="2.35141">
        <ele>182.7</ele>
        <time>2019-08-18T07:29:32.000Z</time>
      </trkpt>
      <trkpt lat="43.16164" lon="2.35138">
        <ele>182.7</ele>
        <time>2019-08-18T07:29:33.000Z</time>
      </trkpt>
      <trkpt lat="43.16163" lon="2.35135">
        <ele>182.7</ele>
        <time>2019-08-18T07:29:34.000Z</time>
      </trkpt>
      <trkpt lat="43.16162" lon="2.35132">
        <ele>182.6</ele>
        <time>2019-08-18T07:29:35.000Z</time>
      </trkpt>
      <trkpt lat="43.16161" lon="2.3513">
        <ele>182.6</ele>
        <time>2019-08-18T07:29:36.000Z</time>
      </trkpt>
      <trkpt lat="43.16161" lon="2.35128">
        <ele>182.5</ele>
        <time>2019-08-18T07:29:37.000Z</time>
      </trkpt>
      <trkpt lat="43.16161" lon="2.35127">
        <ele>182.4</ele>
        <time>2019-08-18T07:29:38.000Z</time>
      </trkpt>
      <trkpt lat="43.16161" lon="2.35125">
        <ele>182.3</ele>
        <time>2019-08-18T07:29:39.000Z</time>
      </trkpt>
      <trkpt lat="43.16162" lon="2.35124">
        <ele>182.1</ele>
        <time>2019-08-18T07:29:40.000Z</time>
      </trkpt>
      <trkpt lat="43.16163" lon="2.35124">
        <ele>181.9</ele>
        <time>2019-08-18T07:29:41.000Z</time>
      </trkpt>
      <trkpt lat="43.16164" lon="2.35123">
        <ele>181.8</ele>
        <time>2019-08-18T07:29:42.000Z</time>
      </trkpt>
      <trkpt lat="43.16166" lon="2.35123">
        <ele>181.5</ele>
        <time>2019-08-18T07:29:43.000Z</time>
      </trkpt>
      <trkpt lat="43.16168" lon="2.35123">
        <ele>181.4</ele>
        <time>2019-08-18T07:29:44.000Z</time>
      </trkpt>
      <trkpt lat="43.1617" lon="2.35123">
        <ele>181.4</ele>
        <time>2019-08-18T07:29:45.000Z</time>
      </trkpt>
      <trkpt lat="43.16172" lon="2.35123">
        <ele>181.5</ele>
        <time>2019-08-18T07:29:46.000Z</time>
      </trkpt>
      <trkpt lat="43.16174" lon="2.35122">
        <ele>181.5</ele>
        <time>2019-08-18T07:29:47.000Z</time>
      </trkpt>
      <trkpt lat="43.16177" lon="2.35122">
        <ele>181.6</ele>
        <time>2019-08-18T07:29:48.000Z</time>
      </trkpt>
      <trkpt lat="43.16179" lon="2.35121">
        <ele>181.6</ele>
        <time>2019-08-18T07:29:49.000Z</time>
      </trkpt>
      <trkpt lat="43.16181" lon="2.35121">
        <ele>181.6</ele>
        <time>2019-08-18T07:29:50.000Z</time>
      </trkpt>
      <trkpt lat="43.16184" lon="2.35119">
        <ele>181.6</ele>
        <time>2019-08-18T07:29:51.000Z</time>
      </trkpt>
      <trkpt lat="43.16186" lon="2.35118">
        <ele>181.6</ele>
        <time>2019-08-18T07:29:52.000Z</time>
      </trkpt>
      <trkpt lat="43.16188" lon="2.35116">
        <ele>181.6</ele>
        <time>2019-08-18T07:29:53.000Z</time>
      </trkpt>
      <trkpt lat="43.16189" lon="2.35115">
        <ele>181.6</ele>
        <time>2019-08-18T07:29:54.000Z</time>
      </trkpt>
      <trkpt lat="43.1619" lon="2.35114">
        <ele>181.5</ele>
        <time>2019-08-18T07:29:55.000Z</time>
      </trkpt>
      <trkpt lat="43.16188" lon="2.35113">
        <ele>181.4</ele>
        <time>2019-08-18T07:29:56.000Z</time>
      </trkpt>
      <trkpt lat="43.16186" lon="2.35112">
        <ele>181.3</ele>
        <time>2019-08-18T07:29:57.000Z</time>
      </trkpt>
      <trkpt lat="43.16184" lon="2.35111">
        <ele>181.2</ele>
        <time>2019-08-18T07:29:58.000Z</time>
      </trkpt>
      <trkpt lat="43.16181" lon="2.35111">
        <ele>181.2</ele>
        <time>2019-08-18T07:29:59.000Z</time>
      </trkpt>
      <trkpt lat="43.16179" lon="2.35112">
        <ele>181.1</ele>
        <time>2019-08-18T07:30:00.000Z</time>
      </trkpt>
      <trkpt lat="43.16176" lon="2.35112">
        <ele>181</ele>
        <time>2019-08-18T07:30:01.000Z</time>
      </trkpt>
      <trkpt lat="43.16174" lon="2.35113">
        <ele>181</ele>
        <time>2019-08-18T07:30:02.000Z</time>
      </trkpt>
      <trkpt lat="43.16171" lon="2.35113">
        <ele>180.9</ele>
        <time>2019-08-18T07:30:03.000Z</time>
      </trkpt>
      <trkpt lat="43.16169" lon="2.35114">
        <ele>180.9</ele>
        <time>2019-08-18T07:30:04.000Z</time>
      </trkpt>
      <trkpt lat="43.16166" lon="2.35115">
        <ele>180.9</ele>
        <time>2019-08-18T07:30:05.000Z</time>
      </trkpt>
      <trkpt lat="43.16164" lon="2.35115">
        <ele>181.3</ele>
        <time>2019-08-18T07:30:06.000Z</time>
      </trkpt>
      <trkpt lat="43.16162" lon="2.35116">
        <ele>181.7</ele>
        <time>2019-08-18T07:30:07.000Z</time>
      </trkpt>
      <trkpt lat="43.16159" lon="2.35117">
        <ele>182</ele>
        <time>2019-08-18T07:30:08.000Z</time>
      </trkpt>
      <trkpt lat="43.16157" lon="2.35117">
        <ele>182.4</ele>
        <time>2019-08-18T07:30:09.000Z</time>
      </trkpt>
      <trkpt lat="43.16155" lon="2.35117">
        <ele>182.7</ele>
        <time>2019-08-18T07:30:10.000Z</time>
      </trkpt>
      <trkpt lat="43.16152" lon="2.35117">
        <ele>183</ele>
        <time>2019-08-18T07:30:11.000Z</time>
      </trkpt>
      <trkpt lat="43.1615" lon="2.35116">
        <ele>183.3</ele>
        <time>2019-08-18T07:30:12.000Z</time>
      </trkpt>
      <trkpt lat="43.16148" lon="2.35115">
        <ele>183.5</ele>
        <time>2019-08-18T07:30:13.000Z</time>
      </trkpt>
      <trkpt lat="43.16146" lon="2.35114">
        <ele>183.8</ele>
        <time>2019-08-18T07:30:14.000Z</time>
      </trkpt>
      <trkpt lat="43.16143" lon="2.35112">
        <ele>184</ele>
        <time>2019-08-18T07:30:15.000Z</time>
      </trkpt>
      <trkpt lat="43.16141" lon="2.3511">
        <ele>184.2</ele>
        <time>2019-08-18T07:30:16.000Z</time>
      </trkpt>
      <trkpt lat="43.16139" lon="2.35108">
        <ele>184.3</ele>
        <time>2019-08-18T07:30:17.000Z</time>
      </trkpt>
      <trkpt lat="43.16137" lon="2.35106">
        <ele>184.5</ele>
        <time>2019-08-18T07:30:18.000Z</time>
      </trkpt>
      <trkpt lat="43.16135" lon="2.35103">
        <ele>184.6</ele>
        <time>2019-08-18T07:30:19.000Z</time>
      </trkpt>
      <trkpt lat="43.16134" lon="2.35101">
        <ele>184.7</ele>
        <time>2019-08-18T07:30:20.000Z</time>
      </trkpt>
      <trkpt lat="43.16132" lon="2.35098">
        <ele>184.8</ele>
        <time>2019-08-18T07:30:21.000Z</time>
      </trkpt>
      <trkpt lat="43.1613" lon="2.35095">
        <ele>184.9</ele>
        <time>2019-08-18T07:30:22.000Z</time>
      </trkpt>
      <trkpt lat="43.16129" lon="2.35092">
        <ele>184.9</ele>
        <time>2019-08-18T07:30:23.000Z</time>
      </trkpt>
      <trkpt lat="43.16127" lon="2.35089">
        <ele>185</ele>
        <time>2019-08-18T07:30:24.000Z</time>
      </trkpt>
      <trkpt lat="43.16125" lon="2.35085">
        <ele>185.1</ele>
        <time>2019-08-18T07:30:25.000Z</time>
      </trkpt>
      <trkpt lat="43.16124" lon="2.35082">
        <ele>185.1</ele>
        <time>2019-08-18T07:30:26.000Z</time>
      </trkpt>
      <trkpt lat="43.16122" lon="2.35079">
        <ele>185.1</ele>
        <time>2019-08-18T07:30:27.000Z</time>
      </trkpt>
      <trkpt lat="43.1612" lon="2.35076">
        <ele>185.2</ele>
        <time>2019-08-18T07:30:28.000Z</time>
      </trkpt>
      <trkpt lat="43.16118" lon="2.35073">
        <ele>185.2</ele>
        <time>2019-08-18T07:30:29.000Z</time>
      </trkpt>
      <trkpt lat="43.16117" lon="2.35071">
        <ele>185.2</ele>
        <time>2019-08-18T07:30:30.000Z</time>
      </trkpt>
      <trkpt lat="43.16115" lon="2.35068">
        <ele>185.2</ele>
        <time>2019-08-18T07:30:31.000Z</time>
      </trkpt>
      <trkpt lat="43.16113" lon="2.35065">
        <ele>185.2</ele>
        <time>2019-08-18T07:30:32.000Z</time>
      </trkpt>
      <trkpt lat="43.16111" lon="2.35062">
        <ele>185.2</ele>
        <time>2019-08-18T07:30:33.000Z</time>
      </trkpt>
      <trkpt lat="43.1611" lon="2.35059">
        <ele>185.1</ele>
        <time>2019-08-18T07:30:34.000Z</time>
      </trkpt>
      <trkpt lat="43.16108" lon="2.35056">
        <ele>185</ele>
        <time>2019-08-18T07:30:35.000Z</time>
      </trkpt>
      <trkpt lat="43.16107" lon="2.35053">
        <ele>185</ele>
        <time>2019-08-18T07:30:36.000Z</time>
      </trkpt>
      <trkpt lat="43.16105" lon="2.3505">
        <ele>184.9</ele>
        <time>2019-08-18T07:30:37.000Z</time>
      </trkpt>
      <trkpt lat="43.16104" lon="2.35047">
        <ele>184.8</ele>
        <time>2019-08-18T07:30:38.000Z</time>
      </trkpt>
      <trkpt lat="43.16102" lon="2.35044">
        <ele>184.6</ele>
        <time>2019-08-18T07:30:39.000Z</time>
      </trkpt>
      <trkpt lat="43.16101" lon="2.3504">
        <ele>184.5</ele>
        <time>2019-08-18T07:30:40.000Z</time>
      </trkpt>
      <trkpt lat="43.16099" lon="2.35037">
        <ele>184.3</ele>
        <time>2019-08-18T07:30:41.000Z</time>
      </trkpt>
      <trkpt lat="43.16098" lon="2.35033">
        <ele>184.2</ele>
        <time>2019-08-18T07:30:42.000Z</time>
      </trkpt>
      <trkpt lat="43.16096" lon="2.3503">
        <ele>184</ele>
        <time>2019-08-18T07:30:43.000Z</time>
      </trkpt>
      <trkpt lat="43.16094" lon="2.35026">
        <ele>183.8</ele>
        <time>2019-08-18T07:30:44.000Z</time>
      </trkpt>
      <trkpt lat="43.16093" lon="2.35022">
        <ele>183.5</ele>
        <time>2019-08-18T07:30:45.000Z</time>
      </trkpt>
      <trkpt lat="43.16091" lon="2.35018">
        <ele>183.3</ele>
        <time>2019-08-18T07:30:46.000Z</time>
      </trkpt>
      <trkpt lat="43.1609" lon="2.35014">
        <ele>183</ele>
        <time>2019-08-18T07:30:47.000Z</time>
      </trkpt>
      <trkpt lat="43.16088" lon="2.35011">
        <ele>182.7</ele>
        <time>2019-08-18T07:30:48.000Z</time>
      </trkpt>
      <trkpt lat="43.16087" lon="2.35007">
        <ele>182.4</ele>
        <time>2019-08-18T07:30:49.000Z</time>
      </trkpt>
      <trkpt lat="43.16086" lon="2.35003">
        <ele>182.1</ele>
        <time>2019-08-18T07:30:50.000Z</time>
      </trkpt>
      <trkpt lat="43.16085" lon="2.34999">
        <ele>181.8</ele>
        <time>2019-08-18T07:30:51.000Z</time>
      </trkpt>
      <trkpt lat="43.16084" lon="2.34995">
        <ele>181.6</ele>
        <time>2019-08-18T07:30:52.000Z</time>
      </trkpt>
      <trkpt lat="43.16083" lon="2.34991">
        <ele>181.3</ele>
        <time>2019-08-18T07:30:53.000Z</time>
      </trkpt>
      <trkpt lat="43.16082" lon="2.34988">
        <ele>181</ele>
        <time>2019-08-18T07:30:54.000Z</time>
      </trkpt>
      <trkpt lat="43.16081" lon="2.34984">
        <ele>180.7</ele>
        <time>2019-08-18T07:30:55.000Z</time>
      </trkpt>
      <trkpt lat="43.16081" lon="2.3498">
        <ele>180.4</ele>
        <time>2019-08-18T07:30:56.000Z</time>
      </trkpt>
      <trkpt lat="43.1608" lon="2.34976">
        <ele>180.1</ele>
        <time>2019-08-18T07:30:57.000Z</time>
      </trkpt>
      <trkpt lat="43.1608" lon="2.34972">
        <ele>179.8</ele>
        <time>2019-08-18T07:30:58.000Z</time>
      </trkpt>
      <trkpt lat="43.1608" lon="2.34969">
        <ele>179.5</ele>
        <time>2019-08-18T07:30:59.000Z</time>
      </trkpt>
      <trkpt lat="43.16079" lon="2.34965">
        <ele>179.1</ele>
        <time>2019-08-18T07:31:00.000Z</time>
      </trkpt>
      <trkpt lat="43.16079" lon="2.3496">
        <ele>178.8</ele>
        <time>2019-08-18T07:31:01.000Z</time>
      </trkpt>
      <trkpt lat="43.16078" lon="2.34956">
        <ele>178.5</ele>
        <time>2019-08-18T07:31:02.000Z</time>
      </trkpt>
      <trkpt lat="43.16078" lon="2.34952">
        <ele>178.2</ele>
        <time>2019-08-18T07:31:03.000Z</time>
      </trkpt>
      <trkpt lat="43.16078" lon="2.34948">
        <ele>177.9</ele>
        <time>2019-08-18T07:31:04.000Z</time>
      </trkpt>
      <trkpt lat="43.16077" lon="2.34943">
        <ele>177.5</ele>
        <time>2019-08-18T07:31:05.000Z</time>
      </trkpt>
      <trkpt lat="43.16077" lon="2.34939">
        <ele>177.2</ele>
        <time>2019-08-18T07:31:06.000Z</time>
      </trkpt>
      <trkpt lat="43.16076" lon="2.34935">
        <ele>176.9</ele>
        <time>2019-08-18T07:31:07.000Z</time>
      </trkpt>
      <trkpt lat="43.16076" lon="2.34931">
        <ele>176.6</ele>
        <time>2019-08-18T07:31:08.000Z</time>
      </trkpt>
      <trkpt lat="43.16075" lon="2.34926">
        <ele>176.3</ele>
        <time>2019-08-18T07:31:09.000Z</time>
      </trkpt>
      <trkpt lat="43.16074" lon="2.34922">
        <ele>176.1</ele>
        <time>2019-08-18T07:31:10.000Z</time>
      </trkpt>
      <trkpt lat="43.16074" lon="2.34918">
        <ele>175.8</ele>
        <time>2019-08-18T07:31:11.000Z</time>
      </trkpt>
      <trkpt lat="43.16073" lon="2.34915">
        <ele>175.7</ele>
        <time>2019-08-18T07:31:12.000Z</time>
      </trkpt>
      <trkpt lat="43.16072" lon="2.34911">
        <ele>175.6</ele>
        <time>2019-08-18T07:31:13.000Z</time>
      </trkpt>
      <trkpt lat="43.16072" lon="2.34907">
        <ele>175.6</ele>
        <time>2019-08-18T07:31:14.000Z</time>
      </trkpt>
      <trkpt lat="43.16071" lon="2.34903">
        <ele>175.5</ele>
        <time>2019-08-18T07:31:15.000Z</time>
      </trkpt>
      <trkpt lat="43.1607" lon="2.349">
        <ele>175.5</ele>
        <time>2019-08-18T07:31:16.000Z</time>
      </trkpt>
      <trkpt lat="43.16069" lon="2.34896">
        <ele>175.4</ele>
        <time>2019-08-18T07:31:17.000Z</time>
      </trkpt>
      <trkpt lat="43.16068" lon="2.34893">
        <ele>175.3</ele>
        <time>2019-08-18T07:31:18.000Z</time>
      </trkpt>
      <trkpt lat="43.16068" lon="2.34889">
        <ele>175.3</ele>
        <time>2019-08-18T07:31:19.000Z</time>
      </trkpt>
      <trkpt lat="43.16067" lon="2.34885">
        <ele>175.2</ele>
        <time>2019-08-18T07:31:20.000Z</time>
      </trkpt>
      <trkpt lat="43.16066" lon="2.34882">
        <ele>175.2</ele>
        <time>2019-08-18T07:31:21.000Z</time>
      </trkpt>
      <trkpt lat="43.16065" lon="2.34878">
        <ele>175.1</ele>
        <time>2019-08-18T07:31:22.000Z</time>
      </trkpt>
      <trkpt lat="43.16065" lon="2.34875">
        <ele>175</ele>
        <time>2019-08-18T07:31:23.000Z</time>
      </trkpt>
      <trkpt lat="43.16064" lon="2.34871">
        <ele>174.9</ele>
        <time>2019-08-18T07:31:24.000Z</time>
      </trkpt>
      <trkpt lat="43.16063" lon="2.34867">
        <ele>174.8</ele>
        <time>2019-08-18T07:31:25.000Z</time>
      </trkpt>
      <trkpt lat="43.16063" lon="2.34863">
        <ele>174.7</ele>
        <time>2019-08-18T07:31:26.000Z</time>
      </trkpt>
      <trkpt lat="43.16062" lon="2.3486">
        <ele>174.6</ele>
        <time>2019-08-18T07:31:27.000Z</time>
      </trkpt>
      <trkpt lat="43.16062" lon="2.34856">
        <ele>174.5</ele>
        <time>2019-08-18T07:31:28.000Z</time>
      </trkpt>
      <trkpt lat="43.16061" lon="2.34852">
        <ele>174.4</ele>
        <time>2019-08-18T07:31:29.000Z</time>
      </trkpt>
      <trkpt lat="43.16061" lon="2.34848">
        <ele>174.3</ele>
        <time>2019-08-18T07:31:30.000Z</time>
      </trkpt>
      <trkpt lat="43.1606" lon="2.34844">
        <ele>174.2</ele>
        <time>2019-08-18T07:31:31.000Z</time>
      </trkpt>
      <trkpt lat="43.1606" lon="2.3484">
        <ele>174.1</ele>
        <time>2019-08-18T07:31:32.000Z</time>
      </trkpt>
      <trkpt lat="43.1606" lon="2.34837">
        <ele>174</ele>
        <time>2019-08-18T07:31:33.000Z</time>
      </trkpt>
      <trkpt lat="43.16059" lon="2.34833">
        <ele>173.8</ele>
        <time>2019-08-18T07:31:34.000Z</time>
      </trkpt>
      <trkpt lat="43.16059" lon="2.34829">
        <ele>173.6</ele>
        <time>2019-08-18T07:31:35.000Z</time>
      </trkpt>
      <trkpt lat="43.16059" lon="2.34825">
        <ele>173.4</ele>
        <time>2019-08-18T07:31:36.000Z</time>
      </trkpt>
      <trkpt lat="43.16059" lon="2.34821">
        <ele>173.2</ele>
        <time>2019-08-18T07:31:37.000Z</time>
      </trkpt>
      <trkpt lat="43.16059" lon="2.34817">
        <ele>173</ele>
        <time>2019-08-18T07:31:38.000Z</time>
      </trkpt>
      <trkpt lat="43.16059" lon="2.34814">
        <ele>172.8</ele>
        <time>2019-08-18T07:31:39.000Z</time>
      </trkpt>
      <trkpt lat="43.16059" lon="2.3481">
        <ele>172.6</ele>
        <time>2019-08-18T07:31:40.000Z</time>
      </trkpt>
      <trkpt lat="43.16059" lon="2.34806">
        <ele>172.4</ele>
        <time>2019-08-18T07:31:41.000Z</time>
      </trkpt>
      <trkpt lat="43.16059" lon="2.34802">
        <ele>172.2</ele>
        <time>2019-08-18T07:31:42.000Z</time>
      </trkpt>
      <trkpt lat="43.16059" lon="2.34799">
        <ele>172</ele>
        <time>2019-08-18T07:31:43.000Z</time>
      </trkpt>
      <trkpt lat="43.16059" lon="2.34795">
        <ele>171.8</ele>
        <time>2019-08-18T07:31:44.000Z</time>
      </trkpt>
      <trkpt lat="43.16059" lon="2.34791">
        <ele>171.6</ele>
        <time>2019-08-18T07:31:45.000Z</time>
      </trkpt>
      <trkpt lat="43.16059" lon="2.34788">
        <ele>171.4</ele>
        <time>2019-08-18T07:31:46.000Z</time>
      </trkpt>
      <trkpt lat="43.16059" lon="2.34784">
        <ele>171.2</ele>
        <time>2019-08-18T07:31:47.000Z</time>
      </trkpt>
      <trkpt lat="43.16059" lon="2.3478">
        <ele>170.9</ele>
        <time>2019-08-18T07:31:48.000Z</time>
      </trkpt>
      <trkpt lat="43.16059" lon="2.34777">
        <ele>170.7</ele>
        <time>2019-08-18T07:31:49.000Z</time>
      </trkpt>
      <trkpt lat="43.16059" lon="2.34773">
        <ele>170.5</ele>
        <time>2019-08-18T07:31:50.000Z</time>
      </trkpt>
      <trkpt lat="43.16059" lon="2.34769">
        <ele>170.3</ele>
        <time>2019-08-18T07:31:51.000Z</time>
      </trkpt>
      <trkpt lat="43.16059" lon="2.34766">
        <ele>170.1</ele>
        <time>2019-08-18T07:31:52.000Z</time>
      </trkpt>
      <trkpt lat="43.16059" lon="2.34762">
        <ele>169.9</ele>
        <time>2019-08-18T07:31:53.000Z</time>
      </trkpt>
      <trkpt lat="43.16059" lon="2.34758">
        <ele>169.7</ele>
        <time>2019-08-18T07:31:54.000Z</time>
      </trkpt>
      <trkpt lat="43.16059" lon="2.34755">
        <ele>169.5</ele>
        <time>2019-08-18T07:31:55.000Z</time>
      </trkpt>
      <trkpt lat="43.16058" lon="2.34751">
        <ele>169.3</ele>
        <time>2019-08-18T07:31:56.000Z</time>
      </trkpt>
      <trkpt lat="43.16058" lon="2.34747">
        <ele>169.2</ele>
        <time>2019-08-18T07:31:57.000Z</time>
      </trkpt>
      <trkpt lat="43.16058" lon="2.34743">
        <ele>169</ele>
        <time>2019-08-18T07:31:58.000Z</time>
      </trkpt>
      <trkpt lat="43.16058" lon="2.3474">
        <ele>168.9</ele>
        <time>2019-08-18T07:31:59.000Z</time>
      </trkpt>
      <trkpt lat="43.16057" lon="2.34736">
        <ele>168.8</ele>
        <time>2019-08-18T07:32:00.000Z</time>
      </trkpt>
      <trkpt lat="43.16057" lon="2.34733">
        <ele>168.6</ele>
        <time>2019-08-18T07:32:01.000Z</time>
      </trkpt>
      <trkpt lat="43.16057" lon="2.34729">
        <ele>168.5</ele>
        <time>2019-08-18T07:32:02.000Z</time>
      </trkpt>
      <trkpt lat="43.16057" lon="2.34726">
        <ele>168.4</ele>
        <time>2019-08-18T07:32:03.000Z</time>
      </trkpt>
      <trkpt lat="43.16056" lon="2.34723">
        <ele>168.3</ele>
        <time>2019-08-18T07:32:04.000Z</time>
      </trkpt>
      <trkpt lat="43.16056" lon="2.34721">
        <ele>168.2</ele>
        <time>2019-08-18T07:32:05.000Z</time>
      </trkpt>
      <trkpt lat="43.16056" lon="2.34719">
        <ele>168.1</ele>
        <time>2019-08-18T07:32:06.000Z</time>
      </trkpt>
      <trkpt lat="43.16056" lon="2.34717">
        <ele>168</ele>
        <time>2019-08-18T07:32:07.000Z</time>
      </trkpt>
      <trkpt lat="43.16056" lon="2.34716">
        <ele>168</ele>
        <time>2019-08-18T07:32:08.000Z</time>
      </trkpt>
      <trkpt lat="43.16056" lon="2.34714">
        <ele>167.9</ele>
        <time>2019-08-18T07:32:09.000Z</time>
      </trkpt>
      <trkpt lat="43.16056" lon="2.34713">
        <ele>167.9</ele>
        <time>2019-08-18T07:32:10.000Z</time>
      </trkpt>
      <trkpt lat="43.16056" lon="2.34712">
        <ele>167.8</ele>
        <time>2019-08-18T07:32:11.000Z</time>
      </trkpt>
      <trkpt lat="43.16056" lon="2.34711">
        <ele>167.8</ele>
        <time>2019-08-18T07:32:12.000Z</time>
      </trkpt>
      <trkpt lat="43.16056" lon="2.34709">
        <ele>167.7</ele>
        <time>2019-08-18T07:32:13.000Z</time>
      </trkpt>
      <trkpt lat="43.16056" lon="2.34707">
        <ele>167.6</ele>
        <time>2019-08-18T07:32:14.000Z</time>
      </trkpt>
      <trkpt lat="43.16056" lon="2.34704">
        <ele>167.5</ele>
        <time>2019-08-18T07:32:15.000Z</time>
      </trkpt>
      <trkpt lat="43.16057" lon="2.34702">
        <ele>167.4</ele>
        <time>2019-08-18T07:32:16.000Z</time>
      </trkpt>
      <trkpt lat="43.16057" lon="2.34699">
        <ele>167.3</ele>
        <time>2019-08-18T07:32:17.000Z</time>
      </trkpt>
      <trkpt lat="43.16058" lon="2.34696">
        <ele>167.2</ele>
        <time>2019-08-18T07:32:18.000Z</time>
      </trkpt>
      <trkpt lat="43.16059" lon="2.34693">
        <ele>167</ele>
        <time>2019-08-18T07:32:19.000Z</time>
      </trkpt>
      <trkpt lat="43.1606" lon="2.3469">
        <ele>166.9</ele>
        <time>2019-08-18T07:32:20.000Z</time>
      </trkpt>
      <trkpt lat="43.16061" lon="2.34686">
        <ele>166.8</ele>
        <time>2019-08-18T07:32:21.000Z</time>
      </trkpt>
      <trkpt lat="43.16062" lon="2.34683">
        <ele>166.6</ele>
        <time>2019-08-18T07:32:22.000Z</time>
      </trkpt>
      <trkpt lat="43.16063" lon="2.3468">
        <ele>166.5</ele>
        <time>2019-08-18T07:32:23.000Z</time>
      </trkpt>
      <trkpt lat="43.16064" lon="2.34676">
        <ele>166.4</ele>
        <time>2019-08-18T07:32:24.000Z</time>
      </trkpt>
      <trkpt lat="43.16064" lon="2.34673">
        <ele>166.2</ele>
        <time>2019-08-18T07:32:25.000Z</time>
      </trkpt>
      <trkpt lat="43.16065" lon="2.34669">
        <ele>166.1</ele>
        <time>2019-08-18T07:32:26.000Z</time>
      </trkpt>
      <trkpt lat="43.16066" lon="2.34665">
        <ele>166</ele>
        <time>2019-08-18T07:32:27.000Z</time>
      </trkpt>
      <trkpt lat="43.16066" lon="2.34662">
        <ele>165.9</ele>
        <time>2019-08-18T07:32:28.000Z</time>
      </trkpt>
      <trkpt lat="43.16066" lon="2.34658">
        <ele>165.7</ele>
        <time>2019-08-18T07:32:29.000Z</time>
      </trkpt>
      <trkpt lat="43.16066" lon="2.34654">
        <ele>165.6</ele>
        <time>2019-08-18T07:32:30.000Z</time>
      </trkpt>
      <trkpt lat="43.16066" lon="2.3465">
        <ele>165.5</ele>
        <time>2019-08-18T07:32:31.000Z</time>
      </trkpt>
      <trkpt lat="43.16067" lon="2.34646">
        <ele>165.4</ele>
        <time>2019-08-18T07:32:32.000Z</time>
      </trkpt>
      <trkpt lat="43.16067" lon="2.34643">
        <ele>165.3</ele>
        <time>2019-08-18T07:32:33.000Z</time>
      </trkpt>
      <trkpt lat="43.16067" lon="2.34639">
        <ele>165.2</ele>
        <time>2019-08-18T07:32:34.000Z</time>
      </trkpt>
      <trkpt lat="43.16068" lon="2.34636">
        <ele>165.1</ele>
        <time>2019-08-18T07:32:35.000Z</time>
      </trkpt>
      <trkpt lat="43.16069" lon="2.34633">
        <ele>165</ele>
        <time>2019-08-18T07:32:36.000Z</time>
      </trkpt>
      <trkpt lat="43.16069" lon="2.3463">
        <ele>164.9</ele>
        <time>2019-08-18T07:32:37.000Z</time>
      </trkpt>
      <trkpt lat="43.1607" lon="2.34627">
        <ele>164.8</ele>
        <time>2019-08-18T07:32:38.000Z</time>
      </trkpt>
      <trkpt lat="43.16072" lon="2.34624">
        <ele>164.7</ele>
        <time>2019-08-18T07:32:39.000Z</time>
      </trkpt>
      <trkpt lat="43.16073" lon="2.34621">
        <ele>164.6</ele>
        <time>2019-08-18T07:32:40.000Z</time>
      </trkpt>
      <trkpt lat="43.16074" lon="2.34618">
        <ele>164.5</ele>
        <time>2019-08-18T07:32:41.000Z</time>
      </trkpt>
      <trkpt lat="43.16076" lon="2.34616">
        <ele>164.3</ele>
        <time>2019-08-18T07:32:42.000Z</time>
      </trkpt>
      <trkpt lat="43.16077" lon="2.34613">
        <ele>164.2</ele>
        <time>2019-08-18T07:32:43.000Z</time>
      </trkpt>
      <trkpt lat="43.16078" lon="2.34611">
        <ele>164.1</ele>
        <time>2019-08-18T07:32:44.000Z</time>
      </trkpt>
      <trkpt lat="43.16079" lon="2.34609">
        <ele>164</ele>
        <time>2019-08-18T07:32:45.000Z</time>
      </trkpt>
      <trkpt lat="43.1608" lon="2.34607">
        <ele>163.9</ele>
        <time>2019-08-18T07:32:46.000Z</time>
      </trkpt>
      <trkpt lat="43.1608" lon="2.34605">
        <ele>163.9</ele>
        <time>2019-08-18T07:32:47.000Z</time>
      </trkpt>
      <trkpt lat="43.1608" lon="2.34603">
        <ele>163.8</ele>
        <time>2019-08-18T07:32:48.000Z</time>
      </trkpt>
      <trkpt lat="43.16079" lon="2.34602">
        <ele>163.8</ele>
        <time>2019-08-18T07:32:49.000Z</time>
      </trkpt>
      <trkpt lat="43.16078" lon="2.34601">
        <ele>163.8</ele>
        <time>2019-08-18T07:32:50.000Z</time>
      </trkpt>
      <trkpt lat="43.16076" lon="2.346">
        <ele>163.8</ele>
        <time>2019-08-18T07:32:51.000Z</time>
      </trkpt>
      <trkpt lat="43.16074" lon="2.346">
        <ele>163.9</ele>
        <time>2019-08-18T07:32:52.000Z</time>
      </trkpt>
      <trkpt lat="43.16072" lon="2.34599">
        <ele>163.9</ele>
        <time>2019-08-18T07:32:53.000Z</time>
      </trkpt>
      <trkpt lat="43.16069" lon="2.34599">
        <ele>164</ele>
        <time>2019-08-18T07:32:54.000Z</time>
      </trkpt>
      <trkpt lat="43.16067" lon="2.34598">
        <ele>164</ele>
        <time>2019-08-18T07:32:55.000Z</time>
      </trkpt>
      <trkpt lat="43.16065" lon="2.34598">
        <ele>164.1</ele>
        <time>2019-08-18T07:32:56.000Z</time>
      </trkpt>
      <trkpt lat="43.16062" lon="2.34598">
        <ele>164.1</ele>
        <time>2019-08-18T07:32:57.000Z</time>
      </trkpt>
      <trkpt lat="43.1606" lon="2.34598">
        <ele>164.2</ele>
        <time>2019-08-18T07:32:58.000Z</time>
      </trkpt>
      <trkpt lat="43.16059" lon="2.34598">
        <ele>164.3</ele>
        <time>2019-08-18T07:32:59.000Z</time>
      </trkpt>
      <trkpt lat="43.16058" lon="2.34598">
        <ele>164.3</ele>
        <time>2019-08-18T07:33:00.000Z</time>
      </trkpt>
      <trkpt lat="43.16057" lon="2.34599">
        <ele>164.3</ele>
        <time>2019-08-18T07:33:01.000Z</time>
      </trkpt>
      <trkpt lat="43.16056" lon="2.34599">
        <ele>164.4</ele>
        <time>2019-08-18T07:33:02.000Z</time>
      </trkpt>
      <trkpt lat="43.16055" lon="2.346">
        <ele>164.4</ele>
        <time>2019-08-18T07:33:03.000Z</time>
      </trkpt>
      <trkpt lat="43.16053" lon="2.346">
        <ele>164.5</ele>
        <time>2019-08-18T07:33:04.000Z</time>
      </trkpt>
      <trkpt lat="43.16052" lon="2.346">
        <ele>164.5</ele>
        <time>2019-08-18T07:33:05.000Z</time>
      </trkpt>
      <trkpt lat="43.16051" lon="2.34601">
        <ele>164.5</ele>
        <time>2019-08-18T07:33:06.000Z</time>
      </trkpt>
      <trkpt lat="43.1605" lon="2.34601">
        <ele>164.6</ele>
        <time>2019-08-18T07:33:07.000Z</time>
      </trkpt>
      <trkpt lat="43.16049" lon="2.34601">
        <ele>164.6</ele>
        <time>2019-08-18T07:33:08.000Z</time>
      </trkpt>
      <trkpt lat="43.16048" lon="2.34601">
        <ele>164.6</ele>
        <time>2019-08-18T07:33:09.000Z</time>
      </trkpt>
      <trkpt lat="43.16047" lon="2.34601">
        <ele>164.7</ele>
        <time>2019-08-18T07:33:10.000Z</time>
      </trkpt>
      <trkpt lat="43.16046" lon="2.34601">
        <ele>164.7</ele>
        <time>2019-08-18T07:33:11.000Z</time>
      </trkpt>
      <trkpt lat="43.16045" lon="2.34601">
        <ele>164.7</ele>
        <time>2019-08-18T07:33:12.000Z</time>
      </trkpt>
      <trkpt lat="43.16044" lon="2.34601">
        <ele>164.8</ele>
        <time>2019-08-18T07:33:13.000Z</time>
      </trkpt>
      <trkpt lat="43.16043" lon="2.34601">
        <ele>164.8</ele>
        <time>2019-08-18T07:33:14.000Z</time>
      </trkpt>
      <trkpt lat="43.16042" lon="2.34601">
        <ele>164.8</ele>
        <time>2019-08-18T07:33:15.000Z</time>
      </trkpt>
      <trkpt lat="43.16041" lon="2.34601">
        <ele>164.8</ele>
        <time>2019-08-18T07:33:16.000Z</time>
      </trkpt>
      <trkpt lat="43.1604" lon="2.34601">
        <ele>164.9</ele>
        <time>2019-08-18T07:33:17.000Z</time>
      </trkpt>
      <trkpt lat="43.16039" lon="2.34601">
        <ele>164.9</ele>
        <time>2019-08-18T07:33:18.000Z</time>
      </trkpt>
      <trkpt lat="43.16038" lon="2.34601">
        <ele>164.9</ele>
        <time>2019-08-18T07:33:19.000Z</time>
      </trkpt>
      <trkpt lat="43.16037" lon="2.34602">
        <ele>165</ele>
        <time>2019-08-18T07:33:20.000Z</time>
      </trkpt>
      <trkpt lat="43.16035" lon="2.34602">
        <ele>165</ele>
        <time>2019-08-18T07:33:21.000Z</time>
      </trkpt>
      <trkpt lat="43.16034" lon="2.34602">
        <ele>165.1</ele>
        <time>2019-08-18T07:33:22.000Z</time>
      </trkpt>
      <trkpt lat="43.16032" lon="2.34602">
        <ele>165.1</ele>
        <time>2019-08-18T07:33:23.000Z</time>
      </trkpt>
      <trkpt lat="43.1603" lon="2.34602">
        <ele>165.2</ele>
        <time>2019-08-18T07:33:24.000Z</time>
      </trkpt>
      <trkpt lat="43.16028" lon="2.34602">
        <ele>165.2</ele>
        <time>2019-08-18T07:33:25.000Z</time>
      </trkpt>
      <trkpt lat="43.16025" lon="2.34602">
        <ele>165.3</ele>
        <time>2019-08-18T07:33:26.000Z</time>
      </trkpt>
      <trkpt lat="43.16023" lon="2.34602">
        <ele>165.4</ele>
        <time>2019-08-18T07:33:27.000Z</time>
      </trkpt>
      <trkpt lat="43.1602" lon="2.34602">
        <ele>165.4</ele>
        <time>2019-08-18T07:33:28.000Z</time>
      </trkpt>
      <trkpt lat="43.16018" lon="2.34601">
        <ele>165.5</ele>
        <time>2019-08-18T07:33:29.000Z</time>
      </trkpt>
      <trkpt lat="43.16015" lon="2.346">
        <ele>165.6</ele>
        <time>2019-08-18T07:33:30.000Z</time>
      </trkpt>
      <trkpt lat="43.16013" lon="2.34599">
        <ele>165.6</ele>
        <time>2019-08-18T07:33:31.000Z</time>
      </trkpt>
      <trkpt lat="43.1601" lon="2.34598">
        <ele>165.7</ele>
        <time>2019-08-18T07:33:32.000Z</time>
      </trkpt>
      <trkpt lat="43.16007" lon="2.34596">
        <ele>165.8</ele>
        <time>2019-08-18T07:33:33.000Z</time>
      </trkpt>
      <trkpt lat="43.16005" lon="2.34595">
        <ele>165.8</ele>
        <time>2019-08-18T07:33:34.000Z</time>
      </trkpt>
      <trkpt lat="43.16003" lon="2.34593">
        <ele>165.9</ele>
        <time>2019-08-18T07:33:35.000Z</time>
      </trkpt>
      <trkpt lat="43.16001" lon="2.34591">
        <ele>166</ele>
        <time>2019-08-18T07:33:36.000Z</time>
      </trkpt>
      <trkpt lat="43.15999" lon="2.34589">
        <ele>166.2</ele>
        <time>2019-08-18T07:33:37.000Z</time>
      </trkpt>
      <trkpt lat="43.15997" lon="2.34587">
        <ele>166.4</ele>
        <time>2019-08-18T07:33:38.000Z</time>
      </trkpt>
      <trkpt lat="43.15995" lon="2.34585">
        <ele>166.7</ele>
        <time>2019-08-18T07:33:39.000Z</time>
      </trkpt>
      <trkpt lat="43.15993" lon="2.34583">
        <ele>166.8</ele>
        <time>2019-08-18T07:33:40.000Z</time>
      </trkpt>
      <trkpt lat="43.15992" lon="2.3458">
        <ele>166.9</ele>
        <time>2019-08-18T07:33:41.000Z</time>
      </trkpt>
      <trkpt lat="43.1599" lon="2.34578">
        <ele>166.9</ele>
        <time>2019-08-18T07:33:42.000Z</time>
      </trkpt>
      <trkpt lat="43.15988" lon="2.34576">
        <ele>166.9</ele>
        <time>2019-08-18T07:33:43.000Z</time>
      </trkpt>
      <trkpt lat="43.15987" lon="2.34574">
        <ele>166.9</ele>
        <time>2019-08-18T07:33:44.000Z</time>
      </trkpt>
      <trkpt lat="43.15985" lon="2.34571">
        <ele>166.9</ele>
        <time>2019-08-18T07:33:45.000Z</time>
      </trkpt>
      <trkpt lat="43.15983" lon="2.34569">
        <ele>167</ele>
        <time>2019-08-18T07:33:46.000Z</time>
      </trkpt>
      <trkpt lat="43.15982" lon="2.34567">
        <ele>167</ele>
        <time>2019-08-18T07:33:47.000Z</time>
      </trkpt>
      <trkpt lat="43.1598" lon="2.34565">
        <ele>167</ele>
        <time>2019-08-18T07:33:48.000Z</time>
      </trkpt>
      <trkpt lat="43.15978" lon="2.34563">
        <ele>167</ele>
        <time>2019-08-18T07:33:49.000Z</time>
      </trkpt>
      <trkpt lat="43.15976" lon="2.34561">
        <ele>167</ele>
        <time>2019-08-18T07:33:50.000Z</time>
      </trkpt>
      <trkpt lat="43.15975" lon="2.34559">
        <ele>167</ele>
        <time>2019-08-18T07:33:51.000Z</time>
      </trkpt>
      <trkpt lat="43.15973" lon="2.34557">
        <ele>167.1</ele>
        <time>2019-08-18T07:33:52.000Z</time>
      </trkpt>
      <trkpt lat="43.15971" lon="2.34555">
        <ele>167.1</ele>
        <time>2019-08-18T07:33:53.000Z</time>
      </trkpt>
      <trkpt lat="43.15969" lon="2.34553">
        <ele>167.1</ele>
        <time>2019-08-18T07:33:54.000Z</time>
      </trkpt>
      <trkpt lat="43.15967" lon="2.34551">
        <ele>167.2</ele>
        <time>2019-08-18T07:33:55.000Z</time>
      </trkpt>
      <trkpt lat="43.15965" lon="2.3455">
        <ele>167.2</ele>
        <time>2019-08-18T07:33:56.000Z</time>
      </trkpt>
      <trkpt lat="43.15963" lon="2.34548">
        <ele>167.3</ele>
        <time>2019-08-18T07:33:57.000Z</time>
      </trkpt>
      <trkpt lat="43.15961" lon="2.34547">
        <ele>167.4</ele>
        <time>2019-08-18T07:33:58.000Z</time>
      </trkpt>
      <trkpt lat="43.15959" lon="2.34546">
        <ele>167.4</ele>
        <time>2019-08-18T07:33:59.000Z</time>
      </trkpt>
      <trkpt lat="43.15956" lon="2.34545">
        <ele>167.6</ele>
        <time>2019-08-18T07:34:00.000Z</time>
      </trkpt>
      <trkpt lat="43.15954" lon="2.34544">
        <ele>167.7</ele>
        <time>2019-08-18T07:34:01.000Z</time>
      </trkpt>
      <trkpt lat="43.15952" lon="2.34543">
        <ele>167.8</ele>
        <time>2019-08-18T07:34:02.000Z</time>
      </trkpt>
      <trkpt lat="43.1595" lon="2.34542">
        <ele>167.9</ele>
        <time>2019-08-18T07:34:03.000Z</time>
      </trkpt>
      <trkpt lat="43.15948" lon="2.34542">
        <ele>168</ele>
        <time>2019-08-18T07:34:04.000Z</time>
      </trkpt>
      <trkpt lat="43.15946" lon="2.34541">
        <ele>168.2</ele>
        <time>2019-08-18T07:34:05.000Z</time>
      </trkpt>
      <trkpt lat="43.15943" lon="2.34541">
        <ele>168.3</ele>
        <time>2019-08-18T07:34:06.000Z</time>
      </trkpt>
      <trkpt lat="43.15941" lon="2.3454">
        <ele>168.5</ele>
        <time>2019-08-18T07:34:07.000Z</time>
      </trkpt>
      <trkpt lat="43.15939" lon="2.3454">
        <ele>168.6</ele>
        <time>2019-08-18T07:34:08.000Z</time>
      </trkpt>
      <trkpt lat="43.15937" lon="2.3454">
        <ele>168.8</ele>
        <time>2019-08-18T07:34:09.000Z</time>
      </trkpt>
      <trkpt lat="43.15935" lon="2.34539">
        <ele>169</ele>
        <time>2019-08-18T07:34:10.000Z</time>
      </trkpt>
      <trkpt lat="43.15933" lon="2.34539">
        <ele>169.1</ele>
        <time>2019-08-18T07:34:11.000Z</time>
      </trkpt>
      <trkpt lat="43.15931" lon="2.34539">
        <ele>169.3</ele>
        <time>2019-08-18T07:34:12.000Z</time>
      </trkpt>
      <trkpt lat="43.15929" lon="2.34539">
        <ele>169.5</ele>
        <time>2019-08-18T07:34:13.000Z</time>
      </trkpt>
      <trkpt lat="43.15927" lon="2.34539">
        <ele>169.6</ele>
        <time>2019-08-18T07:34:14.000Z</time>
      </trkpt>
      <trkpt lat="43.15925" lon="2.34539">
        <ele>169.8</ele>
        <time>2019-08-18T07:34:15.000Z</time>
      </trkpt>
      <trkpt lat="43.15923" lon="2.34538">
        <ele>170</ele>
        <time>2019-08-18T07:34:16.000Z</time>
      </trkpt>
      <trkpt lat="43.15921" lon="2.34538">
        <ele>170.1</ele>
        <time>2019-08-18T07:34:17.000Z</time>
      </trkpt>
      <trkpt lat="43.15919" lon="2.34538">
        <ele>170.3</ele>
        <time>2019-08-18T07:34:18.000Z</time>
      </trkpt>
      <trkpt lat="43.15917" lon="2.34538">
        <ele>170.4</ele>
        <time>2019-08-18T07:34:19.000Z</time>
      </trkpt>
      <trkpt lat="43.15915" lon="2.34537">
        <ele>170.5</ele>
        <time>2019-08-18T07:34:20.000Z</time>
      </trkpt>
      <trkpt lat="43.15913" lon="2.34537">
        <ele>170.6</ele>
        <time>2019-08-18T07:34:21.000Z</time>
      </trkpt>
      <trkpt lat="43.15911" lon="2.34537">
        <ele>170.6</ele>
        <time>2019-08-18T07:34:22.000Z</time>
      </trkpt>
      <trkpt lat="43.15909" lon="2.34537">
        <ele>170.7</ele>
        <time>2019-08-18T07:34:23.000Z</time>
      </trkpt>
      <trkpt lat="43.15907" lon="2.34536">
        <ele>170.8</ele>
        <time>2019-08-18T07:34:24.000Z</time>
      </trkpt>
      <trkpt lat="43.15905" lon="2.34536">
        <ele>170.8</ele>
        <time>2019-08-18T07:34:25.000Z</time>
      </trkpt>
      <trkpt lat="43.15904" lon="2.34536">
        <ele>170.9</ele>
        <time>2019-08-18T07:34:26.000Z</time>
      </trkpt>
      <trkpt lat="43.15902" lon="2.34535">
        <ele>170.9</ele>
        <time>2019-08-18T07:34:27.000Z</time>
      </trkpt>
      <trkpt lat="43.159" lon="2.34535">
        <ele>171</ele>
        <time>2019-08-18T07:34:28.000Z</time>
      </trkpt>
      <trkpt lat="43.15899" lon="2.34535">
        <ele>171.1</ele>
        <time>2019-08-18T07:34:29.000Z</time>
      </trkpt>
      <trkpt lat="43.15897" lon="2.34535">
        <ele>171.1</ele>
        <time>2019-08-18T07:34:30.000Z</time>
      </trkpt>
      <trkpt lat="43.15895" lon="2.34535">
        <ele>171.2</ele>
        <time>2019-08-18T07:34:31.000Z</time>
      </trkpt>
      <trkpt lat="43.15893" lon="2.34535">
        <ele>171.4</ele>
        <time>2019-08-18T07:34:32.000Z</time>
      </trkpt>
      <trkpt lat="43.15891" lon="2.34535">
        <ele>171.5</ele>
        <time>2019-08-18T07:34:33.000Z</time>
      </trkpt>
      <trkpt lat="43.15889" lon="2.34535">
        <ele>171.7</ele>
        <time>2019-08-18T07:34:34.000Z</time>
      </trkpt>
      <trkpt lat="43.15887" lon="2.34536">
        <ele>171.9</ele>
        <time>2019-08-18T07:34:35.000Z</time>
      </trkpt>
      <trkpt lat="43.15885" lon="2.34536">
        <ele>172</ele>
        <time>2019-08-18T07:34:36.000Z</time>
      </trkpt>
      <trkpt lat="43.15883" lon="2.34536">
        <ele>172.2</ele>
        <time>2019-08-18T07:34:37.000Z</time>
      </trkpt>
      <trkpt lat="43.15881" lon="2.34537">
        <ele>172.4</ele>
        <time>2019-08-18T07:34:38.000Z</time>
      </trkpt>
      <trkpt lat="43.15879" lon="2.34537">
        <ele>172.5</ele>
        <time>2019-08-18T07:34:39.000Z</time>
      </trkpt>
      <trkpt lat="43.15877" lon="2.34537">
        <ele>172.7</ele>
        <time>2019-08-18T07:34:40.000Z</time>
      </trkpt>
      <trkpt lat="43.15874" lon="2.34537">
        <ele>172.8</ele>
        <time>2019-08-18T07:34:41.000Z</time>
      </trkpt>
      <trkpt lat="43.15872" lon="2.34537">
        <ele>172.9</ele>
        <time>2019-08-18T07:34:42.000Z</time>
      </trkpt>
      <trkpt lat="43.1587" lon="2.34536">
        <ele>172.9</ele>
        <time>2019-08-18T07:34:43.000Z</time>
      </trkpt>
      <trkpt lat="43.15868" lon="2.34536">
        <ele>173</ele>
        <time>2019-08-18T07:34:44.000Z</time>
      </trkpt>
      <trkpt lat="43.15866" lon="2.34535">
        <ele>173.1</ele>
        <time>2019-08-18T07:34:45.000Z</time>
      </trkpt>
      <trkpt lat="43.15864" lon="2.34535">
        <ele>173.1</ele>
        <time>2019-08-18T07:34:46.000Z</time>
      </trkpt>
      <trkpt lat="43.15861" lon="2.34535">
        <ele>173.2</ele>
        <time>2019-08-18T07:34:47.000Z</time>
      </trkpt>
      <trkpt lat="43.15859" lon="2.34534">
        <ele>173.3</ele>
        <time>2019-08-18T07:34:48.000Z</time>
      </trkpt>
      <trkpt lat="43.15857" lon="2.34534">
        <ele>173.3</ele>
        <time>2019-08-18T07:34:49.000Z</time>
      </trkpt>
      <trkpt lat="43.15854" lon="2.34533">
        <ele>173.4</ele>
        <time>2019-08-18T07:34:50.000Z</time>
      </trkpt>
      <trkpt lat="43.15852" lon="2.34533">
        <ele>173.5</ele>
        <time>2019-08-18T07:34:51.000Z</time>
      </trkpt>
      <trkpt lat="43.1585" lon="2.34533">
        <ele>173.5</ele>
        <time>2019-08-18T07:34:52.000Z</time>
      </trkpt>
      <trkpt lat="43.15847" lon="2.34532">
        <ele>173.6</ele>
        <time>2019-08-18T07:34:53.000Z</time>
      </trkpt>
      <trkpt lat="43.15845" lon="2.34532">
        <ele>173.7</ele>
        <time>2019-08-18T07:34:54.000Z</time>
      </trkpt>
      <trkpt lat="43.15843" lon="2.34532">
        <ele>173.7</ele>
        <time>2019-08-18T07:34:55.000Z</time>
      </trkpt>
      <trkpt lat="43.15841" lon="2.34531">
        <ele>173.8</ele>
        <time>2019-08-18T07:34:56.000Z</time>
      </trkpt>
      <trkpt lat="43.15839" lon="2.34531">
        <ele>173.9</ele>
        <time>2019-08-18T07:34:57.000Z</time>
      </trkpt>
      <trkpt lat="43.15836" lon="2.3453">
        <ele>173.9</ele>
        <time>2019-08-18T07:34:58.000Z</time>
      </trkpt>
      <trkpt lat="43.15833" lon="2.34529">
        <ele>173.9</ele>
        <time>2019-08-18T07:34:59.000Z</time>
      </trkpt>
      <trkpt lat="43.15831" lon="2.34528">
        <ele>174</ele>
        <time>2019-08-18T07:35:00.000Z</time>
      </trkpt>
      <trkpt lat="43.15828" lon="2.34527">
        <ele>173.8</ele>
        <time>2019-08-18T07:35:01.000Z</time>
      </trkpt>
      <trkpt lat="43.15826" lon="2.34524">
        <ele>173.7</ele>
        <time>2019-08-18T07:35:02.000Z</time>
      </trkpt>
      <trkpt lat="43.15824" lon="2.34522">
        <ele>173.4</ele>
        <time>2019-08-18T07:35:03.000Z</time>
      </trkpt>
      <trkpt lat="43.15822" lon="2.3452">
        <ele>173.2</ele>
        <time>2019-08-18T07:35:04.000Z</time>
      </trkpt>
      <trkpt lat="43.1582" lon="2.34518">
        <ele>172.9</ele>
        <time>2019-08-18T07:35:05.000Z</time>
      </trkpt>
      <trkpt lat="43.15818" lon="2.34516">
        <ele>172.7</ele>
        <time>2019-08-18T07:35:06.000Z</time>
      </trkpt>
      <trkpt lat="43.15816" lon="2.34514">
        <ele>172.5</ele>
        <time>2019-08-18T07:35:07.000Z</time>
      </trkpt>
      <trkpt lat="43.15815" lon="2.34512">
        <ele>172.4</ele>
        <time>2019-08-18T07:35:08.000Z</time>
      </trkpt>
      <trkpt lat="43.15813" lon="2.3451">
        <ele>172.3</ele>
        <time>2019-08-18T07:35:09.000Z</time>
      </trkpt>
      <trkpt lat="43.15811" lon="2.34509">
        <ele>172.2</ele>
        <time>2019-08-18T07:35:10.000Z</time>
      </trkpt>
      <trkpt lat="43.15809" lon="2.34508">
        <ele>172.1</ele>
        <time>2019-08-18T07:35:11.000Z</time>
      </trkpt>
      <trkpt lat="43.15807" lon="2.34507">
        <ele>172.1</ele>
        <time>2019-08-18T07:35:12.000Z</time>
      </trkpt>
      <trkpt lat="43.15805" lon="2.34506">
        <ele>172</ele>
        <time>2019-08-18T07:35:13.000Z</time>
      </trkpt>
      <trkpt lat="43.15803" lon="2.34505">
        <ele>172.1</ele>
        <time>2019-08-18T07:35:14.000Z</time>
      </trkpt>
      <trkpt lat="43.158" lon="2.34504">
        <ele>172.1</ele>
        <time>2019-08-18T07:35:15.000Z</time>
      </trkpt>
      <trkpt lat="43.15798" lon="2.34504">
        <ele>172.2</ele>
        <time>2019-08-18T07:35:16.000Z</time>
      </trkpt>
      <trkpt lat="43.15796" lon="2.34503">
        <ele>172.3</ele>
        <time>2019-08-18T07:35:17.000Z</time>
      </trkpt>
      <trkpt lat="43.15794" lon="2.34503">
        <ele>172.4</ele>
        <time>2019-08-18T07:35:18.000Z</time>
      </trkpt>
      <trkpt lat="43.15791" lon="2.34503">
        <ele>172.5</ele>
        <time>2019-08-18T07:35:19.000Z</time>
      </trkpt>
      <trkpt lat="43.15789" lon="2.34503">
        <ele>172.7</ele>
        <time>2019-08-18T07:35:20.000Z</time>
      </trkpt>
      <trkpt lat="43.15787" lon="2.34503">
        <ele>172.8</ele>
        <time>2019-08-18T07:35:21.000Z</time>
      </trkpt>
      <trkpt lat="43.15784" lon="2.34502">
        <ele>172.9</ele>
        <time>2019-08-18T07:35:22.000Z</time>
      </trkpt>
      <trkpt lat="43.15782" lon="2.34502">
        <ele>173</ele>
        <time>2019-08-18T07:35:23.000Z</time>
      </trkpt>
      <trkpt lat="43.1578" lon="2.34502">
        <ele>173.2</ele>
        <time>2019-08-18T07:35:24.000Z</time>
      </trkpt>
      <trkpt lat="43.15777" lon="2.34502">
        <ele>173.3</ele>
        <time>2019-08-18T07:35:25.000Z</time>
      </trkpt>
      <trkpt lat="43.15775" lon="2.34501">
        <ele>173.4</ele>
        <time>2019-08-18T07:35:26.000Z</time>
      </trkpt>
      <trkpt lat="43.15773" lon="2.34501">
        <ele>173.5</ele>
        <time>2019-08-18T07:35:27.000Z</time>
      </trkpt>
      <trkpt lat="43.1577" lon="2.34501">
        <ele>173.7</ele>
        <time>2019-08-18T07:35:28.000Z</time>
      </trkpt>
      <trkpt lat="43.15768" lon="2.34501">
        <ele>173.8</ele>
        <time>2019-08-18T07:35:29.000Z</time>
      </trkpt>
      <trkpt lat="43.15765" lon="2.34501">
        <ele>174</ele>
        <time>2019-08-18T07:35:30.000Z</time>
      </trkpt>
      <trkpt lat="43.15763" lon="2.34501">
        <ele>174.2</ele>
        <time>2019-08-18T07:35:31.000Z</time>
      </trkpt>
      <trkpt lat="43.1576" lon="2.34501">
        <ele>174.4</ele>
        <time>2019-08-18T07:35:32.000Z</time>
      </trkpt>
      <trkpt lat="43.15758" lon="2.34501">
        <ele>174.6</ele>
        <time>2019-08-18T07:35:33.000Z</time>
      </trkpt>
      <trkpt lat="43.15755" lon="2.34501">
        <ele>174.8</ele>
        <time>2019-08-18T07:35:34.000Z</time>
      </trkpt>
      <trkpt lat="43.15753" lon="2.34501">
        <ele>175</ele>
        <time>2019-08-18T07:35:35.000Z</time>
      </trkpt>
      <trkpt lat="43.1575" lon="2.34501">
        <ele>175.2</ele>
        <time>2019-08-18T07:35:36.000Z</time>
      </trkpt>
      <trkpt lat="43.15748" lon="2.34501">
        <ele>175.2</ele>
        <time>2019-08-18T07:35:37.000Z</time>
      </trkpt>
      <trkpt lat="43.15745" lon="2.34501">
        <ele>175.2</ele>
        <time>2019-08-18T07:35:38.000Z</time>
      </trkpt>
      <trkpt lat="43.15743" lon="2.34501">
        <ele>175.1</ele>
        <time>2019-08-18T07:35:39.000Z</time>
      </trkpt>
      <trkpt lat="43.15741" lon="2.34501">
        <ele>175.1</ele>
        <time>2019-08-18T07:35:40.000Z</time>
      </trkpt>
      <trkpt lat="43.15738" lon="2.345">
        <ele>175</ele>
        <time>2019-08-18T07:35:41.000Z</time>
      </trkpt>
      <trkpt lat="43.15736" lon="2.345">
        <ele>175</ele>
        <time>2019-08-18T07:35:42.000Z</time>
      </trkpt>
      <trkpt lat="43.15733" lon="2.345">
        <ele>175</ele>
        <time>2019-08-18T07:35:43.000Z</time>
      </trkpt>
      <trkpt lat="43.15731" lon="2.34499">
        <ele>174.9</ele>
        <time>2019-08-18T07:35:44.000Z</time>
      </trkpt>
      <trkpt lat="43.15728" lon="2.34499">
        <ele>174.9</ele>
        <time>2019-08-18T07:35:45.000Z</time>
      </trkpt>
      <trkpt lat="43.15725" lon="2.34498">
        <ele>174.9</ele>
        <time>2019-08-18T07:35:46.000Z</time>
      </trkpt>
      <trkpt lat="43.15723" lon="2.34498">
        <ele>174.8</ele>
        <time>2019-08-18T07:35:47.000Z</time>
      </trkpt>
      <trkpt lat="43.1572" lon="2.34498">
        <ele>174.8</ele>
        <time>2019-08-18T07:35:48.000Z</time>
      </trkpt>
      <trkpt lat="43.15717" lon="2.34498">
        <ele>174.8</ele>
        <time>2019-08-18T07:35:49.000Z</time>
      </trkpt>
      <trkpt lat="43.15714" lon="2.34498">
        <ele>174.8</ele>
        <time>2019-08-18T07:35:50.000Z</time>
      </trkpt>
      <trkpt lat="43.15711" lon="2.34498">
        <ele>174.8</ele>
        <time>2019-08-18T07:35:51.000Z</time>
      </trkpt>
      <trkpt lat="43.15708" lon="2.34498">
        <ele>174.8</ele>
        <time>2019-08-18T07:35:52.000Z</time>
      </trkpt>
      <trkpt lat="43.15706" lon="2.34498">
        <ele>174.8</ele>
        <time>2019-08-18T07:35:53.000Z</time>
      </trkpt>
      <trkpt lat="43.15703" lon="2.34498">
        <ele>174.8</ele>
        <time>2019-08-18T07:35:54.000Z</time>
      </trkpt>
      <trkpt lat="43.15701" lon="2.34498">
        <ele>174.8</ele>
        <time>2019-08-18T07:35:55.000Z</time>
      </trkpt>
      <trkpt lat="43.15699" lon="2.34497">
        <ele>174.8</ele>
        <time>2019-08-18T07:35:56.000Z</time>
      </trkpt>
      <trkpt lat="43.15696" lon="2.34497">
        <ele>174.7</ele>
        <time>2019-08-18T07:35:57.000Z</time>
      </trkpt>
      <trkpt lat="43.15694" lon="2.34496">
        <ele>174.7</ele>
        <time>2019-08-18T07:35:58.000Z</time>
      </trkpt>
      <trkpt lat="43.15692" lon="2.34496">
        <ele>174.7</ele>
        <time>2019-08-18T07:35:59.000Z</time>
      </trkpt>
      <trkpt lat="43.15689" lon="2.34495">
        <ele>174.6</ele>
        <time>2019-08-18T07:36:00.000Z</time>
      </trkpt>
      <trkpt lat="43.15686" lon="2.34495">
        <ele>174.6</ele>
        <time>2019-08-18T07:36:01.000Z</time>
      </trkpt>
      <trkpt lat="43.15683" lon="2.34494">
        <ele>174.6</ele>
        <time>2019-08-18T07:36:02.000Z</time>
      </trkpt>
      <trkpt lat="43.1568" lon="2.34494">
        <ele>174.6</ele>
        <time>2019-08-18T07:36:03.000Z</time>
      </trkpt>
      <trkpt lat="43.15677" lon="2.34494">
        <ele>174.6</ele>
        <time>2019-08-18T07:36:04.000Z</time>
      </trkpt>
      <trkpt lat="43.15674" lon="2.34494">
        <ele>174.6</ele>
        <time>2019-08-18T07:36:05.000Z</time>
      </trkpt>
      <trkpt lat="43.1567" lon="2.34494">
        <ele>174.6</ele>
        <time>2019-08-18T07:36:06.000Z</time>
      </trkpt>
      <trkpt lat="43.15667" lon="2.34494">
        <ele>174.6</ele>
        <time>2019-08-18T07:36:07.000Z</time>
      </trkpt>
      <trkpt lat="43.15664" lon="2.34495">
        <ele>174.6</ele>
        <time>2019-08-18T07:36:08.000Z</time>
      </trkpt>
      <trkpt lat="43.15661" lon="2.34495">
        <ele>174.6</ele>
        <time>2019-08-18T07:36:09.000Z</time>
      </trkpt>
      <trkpt lat="43.15657" lon="2.34496">
        <ele>174.6</ele>
        <time>2019-08-18T07:36:10.000Z</time>
      </trkpt>
      <trkpt lat="43.15654" lon="2.34496">
        <ele>174.6</ele>
        <time>2019-08-18T07:36:11.000Z</time>
      </trkpt>
      <trkpt lat="43.15652" lon="2.34497">
        <ele>174.6</ele>
        <time>2019-08-18T07:36:12.000Z</time>
      </trkpt>
      <trkpt lat="43.15649" lon="2.34497">
        <ele>174.6</ele>
        <time>2019-08-18T07:36:13.000Z</time>
      </trkpt>
      <trkpt lat="43.15646" lon="2.34497">
        <ele>174.5</ele>
        <time>2019-08-18T07:36:14.000Z</time>
      </trkpt>
      <trkpt lat="43.15644" lon="2.34497">
        <ele>174.5</ele>
        <time>2019-08-18T07:36:15.000Z</time>
      </trkpt>
      <trkpt lat="43.15641" lon="2.34496">
        <ele>174.5</ele>
        <time>2019-08-18T07:36:16.000Z</time>
      </trkpt>
      <trkpt lat="43.15637" lon="2.34496">
        <ele>174.4</ele>
        <time>2019-08-18T07:36:17.000Z</time>
      </trkpt>
      <trkpt lat="43.15634" lon="2.34495">
        <ele>174.3</ele>
        <time>2019-08-18T07:36:18.000Z</time>
      </trkpt>
      <trkpt lat="43.15631" lon="2.34495">
        <ele>174.3</ele>
        <time>2019-08-18T07:36:19.000Z</time>
      </trkpt>
      <trkpt lat="43.15628" lon="2.34494">
        <ele>174.2</ele>
        <time>2019-08-18T07:36:20.000Z</time>
      </trkpt>
      <trkpt lat="43.15626" lon="2.34494">
        <ele>174.2</ele>
        <time>2019-08-18T07:36:21.000Z</time>
      </trkpt>
      <trkpt lat="43.15623" lon="2.34493">
        <ele>174.1</ele>
        <time>2019-08-18T07:36:22.000Z</time>
      </trkpt>
      <trkpt lat="43.1562" lon="2.34493">
        <ele>174.1</ele>
        <time>2019-08-18T07:36:23.000Z</time>
      </trkpt>
      <trkpt lat="43.15618" lon="2.34493">
        <ele>174</ele>
        <time>2019-08-18T07:36:24.000Z</time>
      </trkpt>
      <trkpt lat="43.15615" lon="2.34492">
        <ele>174</ele>
        <time>2019-08-18T07:36:25.000Z</time>
      </trkpt>
      <trkpt lat="43.15613" lon="2.34492">
        <ele>173.9</ele>
        <time>2019-08-18T07:36:26.000Z</time>
      </trkpt>
      <trkpt lat="43.1561" lon="2.34491">
        <ele>173.9</ele>
        <time>2019-08-18T07:36:27.000Z</time>
      </trkpt>
      <trkpt lat="43.15608" lon="2.34491">
        <ele>173.9</ele>
        <time>2019-08-18T07:36:28.000Z</time>
      </trkpt>
      <trkpt lat="43.15605" lon="2.34491">
        <ele>173.8</ele>
        <time>2019-08-18T07:36:29.000Z</time>
      </trkpt>
      <trkpt lat="43.15603" lon="2.3449">
        <ele>173.8</ele>
        <time>2019-08-18T07:36:30.000Z</time>
      </trkpt>
      <trkpt lat="43.156" lon="2.3449">
        <ele>173.8</ele>
        <time>2019-08-18T07:36:31.000Z</time>
      </trkpt>
      <trkpt lat="43.15598" lon="2.34489">
        <ele>173.7</ele>
        <time>2019-08-18T07:36:32.000Z</time>
      </trkpt>
      <trkpt lat="43.15595" lon="2.34489">
        <ele>173.7</ele>
        <time>2019-08-18T07:36:33.000Z</time>
      </trkpt>
      <trkpt lat="43.15592" lon="2.34488">
        <ele>173.6</ele>
        <time>2019-08-18T07:36:34.000Z</time>
      </trkpt>
      <trkpt lat="43.1559" lon="2.34488">
        <ele>173.6</ele>
        <time>2019-08-18T07:36:35.000Z</time>
      </trkpt>
      <trkpt lat="43.15587" lon="2.34487">
        <ele>173.6</ele>
        <time>2019-08-18T07:36:36.000Z</time>
      </trkpt>
      <trkpt lat="43.15585" lon="2.34486">
        <ele>173.5</ele>
        <time>2019-08-18T07:36:37.000Z</time>
      </trkpt>
      <trkpt lat="43.15583" lon="2.34485">
        <ele>173.5</ele>
        <time>2019-08-18T07:36:38.000Z</time>
      </trkpt>
      <trkpt lat="43.15581" lon="2.34484">
        <ele>173.6</ele>
        <time>2019-08-18T07:36:39.000Z</time>
      </trkpt>
      <trkpt lat="43.15579" lon="2.34482">
        <ele>173.7</ele>
        <time>2019-08-18T07:36:40.000Z</time>
      </trkpt>
      <trkpt lat="43.15577" lon="2.3448">
        <ele>173.8</ele>
        <time>2019-08-18T07:36:41.000Z</time>
      </trkpt>
      <trkpt lat="43.15575" lon="2.34478">
        <ele>173.8</ele>
        <time>2019-08-18T07:36:42.000Z</time>
      </trkpt>
      <trkpt lat="43.15574" lon="2.34476">
        <ele>173.8</ele>
        <time>2019-08-18T07:36:43.000Z</time>
      </trkpt>
      <trkpt lat="43.15572" lon="2.34474">
        <ele>173.9</ele>
        <time>2019-08-18T07:36:44.000Z</time>
      </trkpt>
      <trkpt lat="43.15571" lon="2.34472">
        <ele>173.9</ele>
        <time>2019-08-18T07:36:45.000Z</time>
      </trkpt>
      <trkpt lat="43.1557" lon="2.34469">
        <ele>173.8</ele>
        <time>2019-08-18T07:36:46.000Z</time>
      </trkpt>
      <trkpt lat="43.15569" lon="2.34467">
        <ele>173.8</ele>
        <time>2019-08-18T07:36:47.000Z</time>
      </trkpt>
      <trkpt lat="43.15568" lon="2.34465">
        <ele>173.8</ele>
        <time>2019-08-18T07:36:48.000Z</time>
      </trkpt>
      <trkpt lat="43.15568" lon="2.34463">
        <ele>173.7</ele>
        <time>2019-08-18T07:36:49.000Z</time>
      </trkpt>
      <trkpt lat="43.15567" lon="2.34461">
        <ele>173.7</ele>
        <time>2019-08-18T07:36:50.000Z</time>
      </trkpt>
      <trkpt lat="43.15567" lon="2.34459">
        <ele>173.6</ele>
        <time>2019-08-18T07:36:51.000Z</time>
      </trkpt>
      <trkpt lat="43.15568" lon="2.34458">
        <ele>173.5</ele>
        <time>2019-08-18T07:36:52.000Z</time>
      </trkpt>
      <trkpt lat="43.15568" lon="2.34456">
        <ele>173.4</ele>
        <time>2019-08-18T07:36:53.000Z</time>
      </trkpt>
      <trkpt lat="43.1557" lon="2.34455">
        <ele>173.3</ele>
        <time>2019-08-18T07:36:54.000Z</time>
      </trkpt>
      <trkpt lat="43.15571" lon="2.34454">
        <ele>173.1</ele>
        <time>2019-08-18T07:36:55.000Z</time>
      </trkpt>
      <trkpt lat="43.15573" lon="2.34453">
        <ele>173</ele>
        <time>2019-08-18T07:36:56.000Z</time>
      </trkpt>
      <trkpt lat="43.15574" lon="2.34452">
        <ele>172.8</ele>
        <time>2019-08-18T07:36:57.000Z</time>
      </trkpt>
      <trkpt lat="43.15576" lon="2.3445">
        <ele>172.7</ele>
        <time>2019-08-18T07:36:58.000Z</time>
      </trkpt>
      <trkpt lat="43.15577" lon="2.34449">
        <ele>172.5</ele>
        <time>2019-08-18T07:36:59.000Z</time>
      </trkpt>
      <trkpt lat="43.15579" lon="2.34448">
        <ele>172.4</ele>
        <time>2019-08-18T07:37:00.000Z</time>
      </trkpt>
      <trkpt lat="43.1558" lon="2.34447">
        <ele>172.3</ele>
        <time>2019-08-18T07:37:01.000Z</time>
      </trkpt>
      <trkpt lat="43.15581" lon="2.34446">
        <ele>172.2</ele>
        <time>2019-08-18T07:37:02.000Z</time>
      </trkpt>
      <trkpt lat="43.15582" lon="2.34445">
        <ele>172.1</ele>
        <time>2019-08-18T07:37:03.000Z</time>
      </trkpt>
      <trkpt lat="43.15583" lon="2.34444">
        <ele>172</ele>
        <time>2019-08-18T07:37:04.000Z</time>
      </trkpt>
      <trkpt lat="43.15584" lon="2.34443">
        <ele>171.9</ele>
        <time>2019-08-18T07:37:05.000Z</time>
      </trkpt>
      <trkpt lat="43.15586" lon="2.34442">
        <ele>171.9</ele>
        <time>2019-08-18T07:37:06.000Z</time>
      </trkpt>
      <trkpt lat="43.15587" lon="2.34441">
        <ele>171.8</ele>
        <time>2019-08-18T07:37:07.000Z</time>
      </trkpt>
      <trkpt lat="43.15588" lon="2.3444">
        <ele>171.8</ele>
        <time>2019-08-18T07:37:08.000Z</time>
      </trkpt>
      <trkpt lat="43.15589" lon="2.3444">
        <ele>171.7</ele>
        <time>2019-08-18T07:37:09.000Z</time>
      </trkpt>
      <trkpt lat="43.1559" lon="2.34439">
        <ele>171.7</ele>
        <time>2019-08-18T07:37:10.000Z</time>
      </trkpt>
      <trkpt lat="43.15591" lon="2.34438">
        <ele>171.6</ele>
        <time>2019-08-18T07:37:11.000Z</time>
      </trkpt>
      <trkpt lat="43.15592" lon="2.34437">
        <ele>171.6</ele>
        <time>2019-08-18T07:37:12.000Z</time>
      </trkpt>
      <trkpt lat="43.15594" lon="2.34436">
        <ele>171.5</ele>
        <time>2019-08-18T07:37:13.000Z</time>
      </trkpt>
      <trkpt lat="43.15595" lon="2.34435">
        <ele>171.5</ele>
        <time>2019-08-18T07:37:14.000Z</time>
      </trkpt>
      <trkpt lat="43.15596" lon="2.34433">
        <ele>171.4</ele>
        <time>2019-08-18T07:37:15.000Z</time>
      </trkpt>
      <trkpt lat="43.15597" lon="2.34432">
        <ele>171.3</ele>
        <time>2019-08-18T07:37:16.000Z</time>
      </trkpt>
      <trkpt lat="43.15598" lon="2.34431">
        <ele>171.2</ele>
        <time>2019-08-18T07:37:17.000Z</time>
      </trkpt>
      <trkpt lat="43.15599" lon="2.3443">
        <ele>171.2</ele>
        <time>2019-08-18T07:37:18.000Z</time>
      </trkpt>
      <trkpt lat="43.156" lon="2.34428">
        <ele>171.1</ele>
        <time>2019-08-18T07:37:19.000Z</time>
      </trkpt>
      <trkpt lat="43.15602" lon="2.34427">
        <ele>171</ele>
        <time>2019-08-18T07:37:20.000Z</time>
      </trkpt>
      <trkpt lat="43.15603" lon="2.34425">
        <ele>170.9</ele>
        <time>2019-08-18T07:37:21.000Z</time>
      </trkpt>
      <trkpt lat="43.15604" lon="2.34424">
        <ele>170.8</ele>
        <time>2019-08-18T07:37:22.000Z</time>
      </trkpt>
      <trkpt lat="43.15605" lon="2.34423">
        <ele>170.8</ele>
        <time>2019-08-18T07:37:23.000Z</time>
      </trkpt>
      <trkpt lat="43.15606" lon="2.34422">
        <ele>170.7</ele>
        <time>2019-08-18T07:37:24.000Z</time>
      </trkpt>
      <trkpt lat="43.15608" lon="2.34421">
        <ele>170.6</ele>
        <time>2019-08-18T07:37:25.000Z</time>
      </trkpt>
      <trkpt lat="43.15609" lon="2.3442">
        <ele>170.5</ele>
        <time>2019-08-18T07:37:26.000Z</time>
      </trkpt>
      <trkpt lat="43.1561" lon="2.34419">
        <ele>170.4</ele>
        <time>2019-08-18T07:37:27.000Z</time>
      </trkpt>
      <trkpt lat="43.15612" lon="2.34418">
        <ele>170.4</ele>
        <time>2019-08-18T07:37:28.000Z</time>
      </trkpt>
      <trkpt lat="43.15614" lon="2.34417">
        <ele>170.3</ele>
        <time>2019-08-18T07:37:29.000Z</time>
      </trkpt>
      <trkpt lat="43.15615" lon="2.34417">
        <ele>170.3</ele>
        <time>2019-08-18T07:37:30.000Z</time>
      </trkpt>
      <trkpt lat="43.15617" lon="2.34417">
        <ele>170.2</ele>
        <time>2019-08-18T07:37:31.000Z</time>
      </trkpt>
      <trkpt lat="43.15619" lon="2.34417">
        <ele>170.2</ele>
        <time>2019-08-18T07:37:32.000Z</time>
      </trkpt>
      <trkpt lat="43.1562" lon="2.34417">
        <ele>170.1</ele>
        <time>2019-08-18T07:37:33.000Z</time>
      </trkpt>
      <trkpt lat="43.15622" lon="2.34417">
        <ele>170.1</ele>
        <time>2019-08-18T07:37:34.000Z</time>
      </trkpt>
      <trkpt lat="43.15624" lon="2.34417">
        <ele>170</ele>
        <time>2019-08-18T07:37:35.000Z</time>
      </trkpt>
      <trkpt lat="43.15626" lon="2.34417">
        <ele>170</ele>
        <time>2019-08-18T07:37:36.000Z</time>
      </trkpt>
      <trkpt lat="43.15629" lon="2.34418">
        <ele>170</ele>
        <time>2019-08-18T07:37:37.000Z</time>
      </trkpt>
      <trkpt lat="43.15631" lon="2.34418">
        <ele>169.9</ele>
        <time>2019-08-18T07:37:38.000Z</time>
      </trkpt>
      <trkpt lat="43.15633" lon="2.34418">
        <ele>169.9</ele>
        <time>2019-08-18T07:37:39.000Z</time>
      </trkpt>
      <trkpt lat="43.15635" lon="2.34419">
        <ele>169.9</ele>
        <time>2019-08-18T07:37:40.000Z</time>
      </trkpt>
      <trkpt lat="43.15638" lon="2.34419">
        <ele>169.9</ele>
        <time>2019-08-18T07:37:41.000Z</time>
      </trkpt>
      <trkpt lat="43.1564" lon="2.3442">
        <ele>169.8</ele>
        <time>2019-08-18T07:37:42.000Z</time>
      </trkpt>
      <trkpt lat="43.15642" lon="2.3442">
        <ele>169.8</ele>
        <time>2019-08-18T07:37:43.000Z</time>
      </trkpt>
      <trkpt lat="43.15645" lon="2.3442">
        <ele>169.8</ele>
        <time>2019-08-18T07:37:44.000Z</time>
      </trkpt>
      <trkpt lat="43.15647" lon="2.34421">
        <ele>169.7</ele>
        <time>2019-08-18T07:37:45.000Z</time>
      </trkpt>
      <trkpt lat="43.1565" lon="2.34421">
        <ele>169.7</ele>
        <time>2019-08-18T07:37:46.000Z</time>
      </trkpt>
      <trkpt lat="43.15652" lon="2.34421">
        <ele>169.6</ele>
        <time>2019-08-18T07:37:47.000Z</time>
      </trkpt>
      <trkpt lat="43.15655" lon="2.34421">
        <ele>169.6</ele>
        <time>2019-08-18T07:37:48.000Z</time>
      </trkpt>
      <trkpt lat="43.15657" lon="2.34421">
        <ele>169.5</ele>
        <time>2019-08-18T07:37:49.000Z</time>
      </trkpt>
      <trkpt lat="43.1566" lon="2.34421">
        <ele>169.5</ele>
        <time>2019-08-18T07:37:50.000Z</time>
      </trkpt>
      <trkpt lat="43.15662" lon="2.34421">
        <ele>169.4</ele>
        <time>2019-08-18T07:37:51.000Z</time>
      </trkpt>
      <trkpt lat="43.15665" lon="2.3442">
        <ele>169.3</ele>
        <time>2019-08-18T07:37:52.000Z</time>
      </trkpt>
      <trkpt lat="43.15667" lon="2.3442">
        <ele>169.2</ele>
        <time>2019-08-18T07:37:53.000Z</time>
      </trkpt>
      <trkpt lat="43.15669" lon="2.34419">
        <ele>169.2</ele>
        <time>2019-08-18T07:37:54.000Z</time>
      </trkpt>
      <trkpt lat="43.15671" lon="2.34419">
        <ele>169.1</ele>
        <time>2019-08-18T07:37:55.000Z</time>
      </trkpt>
      <trkpt lat="43.15674" lon="2.34418">
        <ele>169</ele>
        <time>2019-08-18T07:37:56.000Z</time>
      </trkpt>
      <trkpt lat="43.15676" lon="2.34417">
        <ele>168.9</ele>
        <time>2019-08-18T07:37:57.000Z</time>
      </trkpt>
      <trkpt lat="43.15678" lon="2.34417">
        <ele>168.9</ele>
        <time>2019-08-18T07:37:58.000Z</time>
      </trkpt>
      <trkpt lat="43.15681" lon="2.34416">
        <ele>168.9</ele>
        <time>2019-08-18T07:37:59.000Z</time>
      </trkpt>
      <trkpt lat="43.15683" lon="2.34415">
        <ele>169</ele>
        <time>2019-08-18T07:38:00.000Z</time>
      </trkpt>
      <trkpt lat="43.15686" lon="2.34414">
        <ele>169.1</ele>
        <time>2019-08-18T07:38:01.000Z</time>
      </trkpt>
      <trkpt lat="43.15688" lon="2.34413">
        <ele>169.3</ele>
        <time>2019-08-18T07:38:02.000Z</time>
      </trkpt>
      <trkpt lat="43.15691" lon="2.34412">
        <ele>169.4</ele>
        <time>2019-08-18T07:38:03.000Z</time>
      </trkpt>
      <trkpt lat="43.15693" lon="2.34411">
        <ele>169.5</ele>
        <time>2019-08-18T07:38:04.000Z</time>
      </trkpt>
      <trkpt lat="43.15695" lon="2.3441">
        <ele>169.7</ele>
        <time>2019-08-18T07:38:05.000Z</time>
      </trkpt>
      <trkpt lat="43.15697" lon="2.34409">
        <ele>169.8</ele>
        <time>2019-08-18T07:38:06.000Z</time>
      </trkpt>
      <trkpt lat="43.15698" lon="2.34407">
        <ele>170</ele>
        <time>2019-08-18T07:38:07.000Z</time>
      </trkpt>
      <trkpt lat="43.15699" lon="2.34406">
        <ele>170.1</ele>
        <time>2019-08-18T07:38:08.000Z</time>
      </trkpt>
      <trkpt lat="43.157" lon="2.34406">
        <ele>170.2</ele>
        <time>2019-08-18T07:38:09.000Z</time>
      </trkpt>
      <trkpt lat="43.157" lon="2.34405">
        <ele>170.3</ele>
        <time>2019-08-18T07:38:10.000Z</time>
      </trkpt>
      <trkpt lat="43.157" lon="2.34404">
        <ele>170.4</ele>
        <time>2019-08-18T07:38:11.000Z</time>
      </trkpt>
      <trkpt lat="43.15699" lon="2.34404">
        <ele>170.4</ele>
        <time>2019-08-18T07:38:12.000Z</time>
      </trkpt>
      <trkpt lat="43.15699" lon="2.34403">
        <ele>170.5</ele>
        <time>2019-08-18T07:38:13.000Z</time>
      </trkpt>
      <trkpt lat="43.15699" lon="2.34403">
        <ele>170.6</ele>
        <time>2019-08-18T07:38:14.000Z</time>
      </trkpt>
      <trkpt lat="43.15699" lon="2.34403">
        <ele>170.7</ele>
        <time>2019-08-18T07:38:15.000Z</time>
      </trkpt>
      <trkpt lat="43.15699" lon="2.34402">
        <ele>170.7</ele>
        <time>2019-08-18T07:38:16.000Z</time>
      </trkpt>
      <trkpt lat="43.15699" lon="2.34402">
        <ele>170.8</ele>
        <time>2019-08-18T07:38:17.000Z</time>
      </trkpt>
      <trkpt lat="43.15698" lon="2.34401">
        <ele>170.9</ele>
        <time>2019-08-18T07:38:18.000Z</time>
      </trkpt>
      <trkpt lat="43.15698" lon="2.344">
        <ele>171</ele>
        <time>2019-08-18T07:38:19.000Z</time>
      </trkpt>
      <trkpt lat="43.15698" lon="2.344">
        <ele>171.1</ele>
        <time>2019-08-18T07:38:20.000Z</time>
      </trkpt>
      <trkpt lat="43.15697" lon="2.34399">
        <ele>171.2</ele>
        <time>2019-08-18T07:38:21.000Z</time>
      </trkpt>
      <trkpt lat="43.15697" lon="2.34398">
        <ele>171.4</ele>
        <time>2019-08-18T07:38:22.000Z</time>
      </trkpt>
      <trkpt lat="43.15697" lon="2.34396">
        <ele>171.6</ele>
        <time>2019-08-18T07:38:23.000Z</time>
      </trkpt>
      <trkpt lat="43.15696" lon="2.34395">
        <ele>171.8</ele>
        <time>2019-08-18T07:38:24.000Z</time>
      </trkpt>
      <trkpt lat="43.15696" lon="2.34393">
        <ele>172</ele>
        <time>2019-08-18T07:38:25.000Z</time>
      </trkpt>
      <trkpt lat="43.15695" lon="2.34392">
        <ele>172.3</ele>
        <time>2019-08-18T07:38:26.000Z</time>
      </trkpt>
      <trkpt lat="43.15695" lon="2.3439">
        <ele>172.6</ele>
        <time>2019-08-18T07:38:27.000Z</time>
      </trkpt>
      <trkpt lat="43.15694" lon="2.34387">
        <ele>172.9</ele>
        <time>2019-08-18T07:38:28.000Z</time>
      </trkpt>
      <trkpt lat="43.15694" lon="2.34385">
        <ele>173.2</ele>
        <time>2019-08-18T07:38:29.000Z</time>
      </trkpt>
      <trkpt lat="43.15693" lon="2.34383">
        <ele>173.5</ele>
        <time>2019-08-18T07:38:30.000Z</time>
      </trkpt>
      <trkpt lat="43.15692" lon="2.34381">
        <ele>173.8</ele>
        <time>2019-08-18T07:38:31.000Z</time>
      </trkpt>
      <trkpt lat="43.15691" lon="2.34379">
        <ele>174.1</ele>
        <time>2019-08-18T07:38:32.000Z</time>
      </trkpt>
      <trkpt lat="43.1569" lon="2.34377">
        <ele>174.4</ele>
        <time>2019-08-18T07:38:33.000Z</time>
      </trkpt>
      <trkpt lat="43.15689" lon="2.34376">
        <ele>174.6</ele>
        <time>2019-08-18T07:38:34.000Z</time>
      </trkpt>
      <trkpt lat="43.15688" lon="2.34374">
        <ele>174.9</ele>
        <time>2019-08-18T07:38:35.000Z</time>
      </trkpt>
      <trkpt lat="43.15686" lon="2.34373">
        <ele>175.1</ele>
        <time>2019-08-18T07:38:36.000Z</time>
      </trkpt>
      <trkpt lat="43.15685" lon="2.34372">
        <ele>175.3</ele>
        <time>2019-08-18T07:38:37.000Z</time>
      </trkpt>
      <trkpt lat="43.15683" lon="2.3437">
        <ele>175.5</ele>
        <time>2019-08-18T07:38:38.000Z</time>
      </trkpt>
      <trkpt lat="43.15682" lon="2.34369">
        <ele>175.7</ele>
        <time>2019-08-18T07:38:39.000Z</time>
      </trkpt>
      <trkpt lat="43.1568" lon="2.34368">
        <ele>175.9</ele>
        <time>2019-08-18T07:38:40.000Z</time>
      </trkpt>
      <trkpt lat="43.15678" lon="2.34366">
        <ele>176.1</ele>
        <time>2019-08-18T07:38:41.000Z</time>
      </trkpt>
      <trkpt lat="43.15677" lon="2.34365">
        <ele>176.3</ele>
        <time>2019-08-18T07:38:42.000Z</time>
      </trkpt>
      <trkpt lat="43.15675" lon="2.34364">
        <ele>176.5</ele>
        <time>2019-08-18T07:38:43.000Z</time>
      </trkpt>
      <trkpt lat="43.15673" lon="2.34363">
        <ele>176.7</ele>
        <time>2019-08-18T07:38:44.000Z</time>
      </trkpt>
      <trkpt lat="43.15672" lon="2.34361">
        <ele>176.9</ele>
        <time>2019-08-18T07:38:45.000Z</time>
      </trkpt>
      <trkpt lat="43.1567" lon="2.3436">
        <ele>177.1</ele>
        <time>2019-08-18T07:38:46.000Z</time>
      </trkpt>
      <trkpt lat="43.15669" lon="2.34359">
        <ele>177.3</ele>
        <time>2019-08-18T07:38:47.000Z</time>
      </trkpt>
      <trkpt lat="43.15667" lon="2.34358">
        <ele>177.5</ele>
        <time>2019-08-18T07:38:48.000Z</time>
      </trkpt>
      <trkpt lat="43.15665" lon="2.34356">
        <ele>177.7</ele>
        <time>2019-08-18T07:38:49.000Z</time>
      </trkpt>
      <trkpt lat="43.15664" lon="2.34355">
        <ele>177.9</ele>
        <time>2019-08-18T07:38:50.000Z</time>
      </trkpt>
      <trkpt lat="43.15662" lon="2.34354">
        <ele>178.1</ele>
        <time>2019-08-18T07:38:51.000Z</time>
      </trkpt>
      <trkpt lat="43.15661" lon="2.34353">
        <ele>178.3</ele>
        <time>2019-08-18T07:38:52.000Z</time>
      </trkpt>
      <trkpt lat="43.15659" lon="2.34353">
        <ele>178.4</ele>
        <time>2019-08-18T07:38:53.000Z</time>
      </trkpt>
      <trkpt lat="43.15657" lon="2.34352">
        <ele>178.6</ele>
        <time>2019-08-18T07:38:54.000Z</time>
      </trkpt>
      <trkpt lat="43.15656" lon="2.34351">
        <ele>178.7</ele>
        <time>2019-08-18T07:38:55.000Z</time>
      </trkpt>
      <trkpt lat="43.15654" lon="2.34351">
        <ele>178.8</ele>
        <time>2019-08-18T07:38:56.000Z</time>
      </trkpt>
      <trkpt lat="43.15652" lon="2.3435">
        <ele>178.9</ele>
        <time>2019-08-18T07:38:57.000Z</time>
      </trkpt>
      <trkpt lat="43.1565" lon="2.3435">
        <ele>179</ele>
        <time>2019-08-18T07:38:58.000Z</time>
      </trkpt>
      <trkpt lat="43.15648" lon="2.3435">
        <ele>179.1</ele>
        <time>2019-08-18T07:38:59.000Z</time>
      </trkpt>
      <trkpt lat="43.15646" lon="2.34349">
        <ele>179.2</ele>
        <time>2019-08-18T07:39:00.000Z</time>
      </trkpt>
      <trkpt lat="43.15644" lon="2.34349">
        <ele>179.4</ele>
        <time>2019-08-18T07:39:01.000Z</time>
      </trkpt>
      <trkpt lat="43.15643" lon="2.34348">
        <ele>179.5</ele>
        <time>2019-08-18T07:39:02.000Z</time>
      </trkpt>
      <trkpt lat="43.15641" lon="2.34347">
        <ele>179.6</ele>
        <time>2019-08-18T07:39:03.000Z</time>
      </trkpt>
      <trkpt lat="43.15639" lon="2.34347">
        <ele>179.7</ele>
        <time>2019-08-18T07:39:04.000Z</time>
      </trkpt>
      <trkpt lat="43.15637" lon="2.34346">
        <ele>179.9</ele>
        <time>2019-08-18T07:39:05.000Z</time>
      </trkpt>
      <trkpt lat="43.15635" lon="2.34346">
        <ele>180</ele>
        <time>2019-08-18T07:39:06.000Z</time>
      </trkpt>
      <trkpt lat="43.15634" lon="2.34345">
        <ele>180.1</ele>
        <time>2019-08-18T07:39:07.000Z</time>
      </trkpt>
      <trkpt lat="43.15632" lon="2.34345">
        <ele>180.2</ele>
        <time>2019-08-18T07:39:08.000Z</time>
      </trkpt>
      <trkpt lat="43.1563" lon="2.34344">
        <ele>180.3</ele>
        <time>2019-08-18T07:39:09.000Z</time>
      </trkpt>
      <trkpt lat="43.15629" lon="2.34344">
        <ele>180.4</ele>
        <time>2019-08-18T07:39:10.000Z</time>
      </trkpt>
      <trkpt lat="43.15627" lon="2.34344">
        <ele>180.5</ele>
        <time>2019-08-18T07:39:11.000Z</time>
      </trkpt>
      <trkpt lat="43.15626" lon="2.34343">
        <ele>180.5</ele>
        <time>2019-08-18T07:39:12.000Z</time>
      </trkpt>
      <trkpt lat="43.15624" lon="2.34343">
        <ele>180.6</ele>
        <time>2019-08-18T07:39:13.000Z</time>
      </trkpt>
      <trkpt lat="43.15623" lon="2.34343">
        <ele>180.7</ele>
        <time>2019-08-18T07:39:14.000Z</time>
      </trkpt>
      <trkpt lat="43.15621" lon="2.34342">
        <ele>180.8</ele>
        <time>2019-08-18T07:39:15.000Z</time>
      </trkpt>
      <trkpt lat="43.15619" lon="2.34341">
        <ele>181</ele>
        <time>2019-08-18T07:39:16.000Z</time>
      </trkpt>
      <trkpt lat="43.15618" lon="2.3434">
        <ele>181.2</ele>
        <time>2019-08-18T07:39:17.000Z</time>
      </trkpt>
      <trkpt lat="43.15616" lon="2.34339">
        <ele>181.4</ele>
        <time>2019-08-18T07:39:18.000Z</time>
      </trkpt>
      <trkpt lat="43.15615" lon="2.34337">
        <ele>181.7</ele>
        <time>2019-08-18T07:39:19.000Z</time>
      </trkpt>
      <trkpt lat="43.15614" lon="2.34335">
        <ele>182</ele>
        <time>2019-08-18T07:39:20.000Z</time>
      </trkpt>
      <trkpt lat="43.15614" lon="2.34333">
        <ele>182.3</ele>
        <time>2019-08-18T07:39:21.000Z</time>
      </trkpt>
      <trkpt lat="43.15614" lon="2.34331">
        <ele>182.5</ele>
        <time>2019-08-18T07:39:22.000Z</time>
      </trkpt>
      <trkpt lat="43.15615" lon="2.3433">
        <ele>182.6</ele>
        <time>2019-08-18T07:39:23.000Z</time>
      </trkpt>
      <trkpt lat="43.15616" lon="2.34329">
        <ele>182.7</ele>
        <time>2019-08-18T07:39:24.000Z</time>
      </trkpt>
      <trkpt lat="43.15617" lon="2.34329">
        <ele>182.6</ele>
        <time>2019-08-18T07:39:25.000Z</time>
      </trkpt>
      <trkpt lat="43.15619" lon="2.34329">
        <ele>182.6</ele>
        <time>2019-08-18T07:39:26.000Z</time>
      </trkpt>
      <trkpt lat="43.1562" lon="2.3433">
        <ele>182.5</ele>
        <time>2019-08-18T07:39:27.000Z</time>
      </trkpt>
      <trkpt lat="43.15622" lon="2.3433">
        <ele>182.4</ele>
        <time>2019-08-18T07:39:28.000Z</time>
      </trkpt>
      <trkpt lat="43.15624" lon="2.34331">
        <ele>182.3</ele>
        <time>2019-08-18T07:39:29.000Z</time>
      </trkpt>
      <trkpt lat="43.15626" lon="2.34331">
        <ele>182.2</ele>
        <time>2019-08-18T07:39:30.000Z</time>
      </trkpt>
      <trkpt lat="43.15628" lon="2.34331">
        <ele>182.1</ele>
        <time>2019-08-18T07:39:31.000Z</time>
      </trkpt>
      <trkpt lat="43.1563" lon="2.34332">
        <ele>182.1</ele>
        <time>2019-08-18T07:39:32.000Z</time>
      </trkpt>
      <trkpt lat="43.15632" lon="2.34332">
        <ele>182</ele>
        <time>2019-08-18T07:39:33.000Z</time>
      </trkpt>
      <trkpt lat="43.15634" lon="2.34331">
        <ele>182</ele>
        <time>2019-08-18T07:39:34.000Z</time>
      </trkpt>
      <trkpt lat="43.15636" lon="2.34331">
        <ele>182</ele>
        <time>2019-08-18T07:39:35.000Z</time>
      </trkpt>
      <trkpt lat="43.15638" lon="2.34331">
        <ele>182</ele>
        <time>2019-08-18T07:39:36.000Z</time>
      </trkpt>
      <trkpt lat="43.1564" lon="2.3433">
        <ele>182</ele>
        <time>2019-08-18T07:39:37.000Z</time>
      </trkpt>
      <trkpt lat="43.15641" lon="2.34329">
        <ele>182</ele>
        <time>2019-08-18T07:39:38.000Z</time>
      </trkpt>
      <trkpt lat="43.15643" lon="2.34328">
        <ele>182.1</ele>
        <time>2019-08-18T07:39:39.000Z</time>
      </trkpt>
      <trkpt lat="43.15645" lon="2.34327">
        <ele>182.1</ele>
        <time>2019-08-18T07:39:40.000Z</time>
      </trkpt>
      <trkpt lat="43.15646" lon="2.34326">
        <ele>182.2</ele>
        <time>2019-08-18T07:39:41.000Z</time>
      </trkpt>
      <trkpt lat="43.15648" lon="2.34324">
        <ele>182.3</ele>
        <time>2019-08-18T07:39:42.000Z</time>
      </trkpt>
      <trkpt lat="43.15649" lon="2.34323">
        <ele>182.4</ele>
        <time>2019-08-18T07:39:43.000Z</time>
      </trkpt>
      <trkpt lat="43.1565" lon="2.34322">
        <ele>182.4</ele>
        <time>2019-08-18T07:39:44.000Z</time>
      </trkpt>
      <trkpt lat="43.15651" lon="2.34321">
        <ele>182.5</ele>
        <time>2019-08-18T07:39:45.000Z</time>
      </trkpt>
      <trkpt lat="43.15652" lon="2.3432">
        <ele>182.6</ele>
        <time>2019-08-18T07:39:46.000Z</time>
      </trkpt>
      <trkpt lat="43.15652" lon="2.34319">
        <ele>182.6</ele>
        <time>2019-08-18T07:39:47.000Z</time>
      </trkpt>
      <trkpt lat="43.15652" lon="2.34319">
        <ele>182.6</ele>
        <time>2019-08-18T07:39:48.000Z</time>
      </trkpt>
      <trkpt lat="43.15652" lon="2.34319">
        <ele>182.6</ele>
        <time>2019-08-18T07:39:49.000Z</time>
      </trkpt>
      <trkpt lat="43.15652" lon="2.34319">
        <ele>182.6</ele>
        <time>2019-08-18T07:39:50.000Z</time>
      </trkpt>
      <trkpt lat="43.15652" lon="2.34319">
        <ele>182.6</ele>
        <time>2019-08-18T07:39:51.000Z</time>
      </trkpt>
      <trkpt lat="43.15652" lon="2.34319">
        <ele>182.7</ele>
        <time>2019-08-18T07:39:52.000Z</time>
      </trkpt>
      <trkpt lat="43.15653" lon="2.34318">
        <ele>182.7</ele>
        <time>2019-08-18T07:39:53.000Z</time>
      </trkpt>
      <trkpt lat="43.15653" lon="2.34317">
        <ele>182.8</ele>
        <time>2019-08-18T07:39:54.000Z</time>
      </trkpt>
      <trkpt lat="43.15654" lon="2.34316">
        <ele>182.9</ele>
        <time>2019-08-18T07:39:55.000Z</time>
      </trkpt>
      <trkpt lat="43.15654" lon="2.34315">
        <ele>182.9</ele>
        <time>2019-08-18T07:39:56.000Z</time>
      </trkpt>
      <trkpt lat="43.15655" lon="2.34314">
        <ele>183</ele>
        <time>2019-08-18T07:39:57.000Z</time>
      </trkpt>
      <trkpt lat="43.15656" lon="2.34313">
        <ele>183.1</ele>
        <time>2019-08-18T07:39:58.000Z</time>
      </trkpt>
      <trkpt lat="43.15656" lon="2.34311">
        <ele>183.2</ele>
        <time>2019-08-18T07:39:59.000Z</time>
      </trkpt>
      <trkpt lat="43.15657" lon="2.3431">
        <ele>183.3</ele>
        <time>2019-08-18T07:40:00.000Z</time>
      </trkpt>
      <trkpt lat="43.15658" lon="2.34308">
        <ele>183.4</ele>
        <time>2019-08-18T07:40:01.000Z</time>
      </trkpt>
      <trkpt lat="43.15659" lon="2.34306">
        <ele>183.6</ele>
        <time>2019-08-18T07:40:02.000Z</time>
      </trkpt>
      <trkpt lat="43.1566" lon="2.34304">
        <ele>183.7</ele>
        <time>2019-08-18T07:40:03.000Z</time>
      </trkpt>
      <trkpt lat="43.15661" lon="2.34302">
        <ele>183.8</ele>
        <time>2019-08-18T07:40:04.000Z</time>
      </trkpt>
      <trkpt lat="43.15662" lon="2.343">
        <ele>184</ele>
        <time>2019-08-18T07:40:05.000Z</time>
      </trkpt>
      <trkpt lat="43.15663" lon="2.34298">
        <ele>184.1</ele>
        <time>2019-08-18T07:40:06.000Z</time>
      </trkpt>
      <trkpt lat="43.15664" lon="2.34296">
        <ele>184.3</ele>
        <time>2019-08-18T07:40:07.000Z</time>
      </trkpt>
      <trkpt lat="43.15664" lon="2.34294">
        <ele>184.4</ele>
        <time>2019-08-18T07:40:08.000Z</time>
      </trkpt>
      <trkpt lat="43.15665" lon="2.34291">
        <ele>184.6</ele>
        <time>2019-08-18T07:40:09.000Z</time>
      </trkpt>
      <trkpt lat="43.15666" lon="2.34289">
        <ele>184.8</ele>
        <time>2019-08-18T07:40:10.000Z</time>
      </trkpt>
      <trkpt lat="43.15667" lon="2.34287">
        <ele>184.9</ele>
        <time>2019-08-18T07:40:11.000Z</time>
      </trkpt>
      <trkpt lat="43.15667" lon="2.34284">
        <ele>185.1</ele>
        <time>2019-08-18T07:40:12.000Z</time>
      </trkpt>
      <trkpt lat="43.15668" lon="2.34282">
        <ele>185.3</ele>
        <time>2019-08-18T07:40:13.000Z</time>
      </trkpt>
      <trkpt lat="43.15669" lon="2.3428">
        <ele>185.5</ele>
        <time>2019-08-18T07:40:14.000Z</time>
      </trkpt>
      <trkpt lat="43.15669" lon="2.34277">
        <ele>185.7</ele>
        <time>2019-08-18T07:40:15.000Z</time>
      </trkpt>
      <trkpt lat="43.1567" lon="2.34275">
        <ele>185.9</ele>
        <time>2019-08-18T07:40:16.000Z</time>
      </trkpt>
      <trkpt lat="43.15671" lon="2.34273">
        <ele>186.1</ele>
        <time>2019-08-18T07:40:17.000Z</time>
      </trkpt>
      <trkpt lat="43.15671" lon="2.3427">
        <ele>186.3</ele>
        <time>2019-08-18T07:40:18.000Z</time>
      </trkpt>
      <trkpt lat="43.15672" lon="2.34268">
        <ele>186.5</ele>
        <time>2019-08-18T07:40:19.000Z</time>
      </trkpt>
      <trkpt lat="43.15672" lon="2.34266">
        <ele>186.6</ele>
        <time>2019-08-18T07:40:20.000Z</time>
      </trkpt>
      <trkpt lat="43.15673" lon="2.34264">
        <ele>186.8</ele>
        <time>2019-08-18T07:40:21.000Z</time>
      </trkpt>
      <trkpt lat="43.15673" lon="2.34262">
        <ele>187</ele>
        <time>2019-08-18T07:40:22.000Z</time>
      </trkpt>
      <trkpt lat="43.15674" lon="2.3426">
        <ele>187.2</ele>
        <time>2019-08-18T07:40:23.000Z</time>
      </trkpt>
      <trkpt lat="43.15674" lon="2.34258">
        <ele>187.3</ele>
        <time>2019-08-18T07:40:24.000Z</time>
      </trkpt>
      <trkpt lat="43.15675" lon="2.34256">
        <ele>187.5</ele>
        <time>2019-08-18T07:40:25.000Z</time>
      </trkpt>
      <trkpt lat="43.15675" lon="2.34255">
        <ele>187.6</ele>
        <time>2019-08-18T07:40:26.000Z</time>
      </trkpt>
      <trkpt lat="43.15676" lon="2.34253">
        <ele>187.7</ele>
        <time>2019-08-18T07:40:27.000Z</time>
      </trkpt>
      <trkpt lat="43.15676" lon="2.34252">
        <ele>187.9</ele>
        <time>2019-08-18T07:40:28.000Z</time>
      </trkpt>
      <trkpt lat="43.15677" lon="2.3425">
        <ele>188</ele>
        <time>2019-08-18T07:40:29.000Z</time>
      </trkpt>
      <trkpt lat="43.15677" lon="2.34249">
        <ele>188.1</ele>
        <time>2019-08-18T07:40:30.000Z</time>
      </trkpt>
      <trkpt lat="43.15677" lon="2.34247">
        <ele>188.2</ele>
        <time>2019-08-18T07:40:31.000Z</time>
      </trkpt>
      <trkpt lat="43.15677" lon="2.34246">
        <ele>188.2</ele>
        <time>2019-08-18T07:40:32.000Z</time>
      </trkpt>
      <trkpt lat="43.15677" lon="2.34245">
        <ele>188.3</ele>
        <time>2019-08-18T07:40:33.000Z</time>
      </trkpt>
      <trkpt lat="43.15677" lon="2.34244">
        <ele>188.3</ele>
        <time>2019-08-18T07:40:34.000Z</time>
      </trkpt>
      <trkpt lat="43.15676" lon="2.34243">
        <ele>188.4</ele>
        <time>2019-08-18T07:40:35.000Z</time>
      </trkpt>
      <trkpt lat="43.15676" lon="2.34242">
        <ele>188.5</ele>
        <time>2019-08-18T07:40:36.000Z</time>
      </trkpt>
      <trkpt lat="43.15676" lon="2.34241">
        <ele>188.5</ele>
        <time>2019-08-18T07:40:37.000Z</time>
      </trkpt>
      <trkpt lat="43.15676" lon="2.34241">
        <ele>188.6</ele>
        <time>2019-08-18T07:40:38.000Z</time>
      </trkpt>
      <trkpt lat="43.15676" lon="2.3424">
        <ele>188.6</ele>
        <time>2019-08-18T07:40:39.000Z</time>
      </trkpt>
      <trkpt lat="43.15675" lon="2.34239">
        <ele>188.7</ele>
        <time>2019-08-18T07:40:40.000Z</time>
      </trkpt>
      <trkpt lat="43.15675" lon="2.34237">
        <ele>188.8</ele>
        <time>2019-08-18T07:40:41.000Z</time>
      </trkpt>
      <trkpt lat="43.15674" lon="2.34236">
        <ele>188.8</ele>
        <time>2019-08-18T07:40:42.000Z</time>
      </trkpt>
      <trkpt lat="43.15673" lon="2.34234">
        <ele>188.9</ele>
        <time>2019-08-18T07:40:43.000Z</time>
      </trkpt>
      <trkpt lat="43.15672" lon="2.34233">
        <ele>189</ele>
        <time>2019-08-18T07:40:44.000Z</time>
      </trkpt>
      <trkpt lat="43.1567" lon="2.34232">
        <ele>189.1</ele>
        <time>2019-08-18T07:40:45.000Z</time>
      </trkpt>
      <trkpt lat="43.15668" lon="2.34231">
        <ele>189.1</ele>
        <time>2019-08-18T07:40:46.000Z</time>
      </trkpt>
      <trkpt lat="43.15667" lon="2.3423">
        <ele>189.2</ele>
        <time>2019-08-18T07:40:47.000Z</time>
      </trkpt>
      <trkpt lat="43.15665" lon="2.34228">
        <ele>189.4</ele>
        <time>2019-08-18T07:40:48.000Z</time>
      </trkpt>
      <trkpt lat="43.15663" lon="2.34227">
        <ele>189.6</ele>
        <time>2019-08-18T07:40:49.000Z</time>
      </trkpt>
      <trkpt lat="43.15661" lon="2.34226">
        <ele>189.8</ele>
        <time>2019-08-18T07:40:50.000Z</time>
      </trkpt>
      <trkpt lat="43.15659" lon="2.34225">
        <ele>190</ele>
        <time>2019-08-18T07:40:51.000Z</time>
      </trkpt>
      <trkpt lat="43.15657" lon="2.34223">
        <ele>190.2</ele>
        <time>2019-08-18T07:40:52.000Z</time>
      </trkpt>
      <trkpt lat="43.15655" lon="2.34222">
        <ele>190.4</ele>
        <time>2019-08-18T07:40:53.000Z</time>
      </trkpt>
      <trkpt lat="43.15653" lon="2.34221">
        <ele>190.6</ele>
        <time>2019-08-18T07:40:54.000Z</time>
      </trkpt>
      <trkpt lat="43.15651" lon="2.34219">
        <ele>190.8</ele>
        <time>2019-08-18T07:40:55.000Z</time>
      </trkpt>
      <trkpt lat="43.15649" lon="2.34218">
        <ele>191</ele>
        <time>2019-08-18T07:40:56.000Z</time>
      </trkpt>
      <trkpt lat="43.15647" lon="2.34217">
        <ele>191.2</ele>
        <time>2019-08-18T07:40:57.000Z</time>
      </trkpt>
      <trkpt lat="43.15645" lon="2.34215">
        <ele>191.4</ele>
        <time>2019-08-18T07:40:58.000Z</time>
      </trkpt>
      <trkpt lat="43.15643" lon="2.34214">
        <ele>191.6</ele>
        <time>2019-08-18T07:40:59.000Z</time>
      </trkpt>
      <trkpt lat="43.1564" lon="2.34212">
        <ele>191.8</ele>
        <time>2019-08-18T07:41:00.000Z</time>
      </trkpt>
      <trkpt lat="43.15638" lon="2.34211">
        <ele>192.1</ele>
        <time>2019-08-18T07:41:01.000Z</time>
      </trkpt>
      <trkpt lat="43.15636" lon="2.34209">
        <ele>192.3</ele>
        <time>2019-08-18T07:41:02.000Z</time>
      </trkpt>
      <trkpt lat="43.15633" lon="2.34208">
        <ele>192.5</ele>
        <time>2019-08-18T07:41:03.000Z</time>
      </trkpt>
      <trkpt lat="43.15631" lon="2.34207">
        <ele>192.8</ele>
        <time>2019-08-18T07:41:04.000Z</time>
      </trkpt>
      <trkpt lat="43.15629" lon="2.34205">
        <ele>193</ele>
        <time>2019-08-18T07:41:05.000Z</time>
      </trkpt>
      <trkpt lat="43.15626" lon="2.34204">
        <ele>193.2</ele>
        <time>2019-08-18T07:41:06.000Z</time>
      </trkpt>
      <trkpt lat="43.15624" lon="2.34203">
        <ele>193.4</ele>
        <time>2019-08-18T07:41:07.000Z</time>
      </trkpt>
      <trkpt lat="43.15621" lon="2.34202">
        <ele>193.6</ele>
        <time>2019-08-18T07:41:08.000Z</time>
      </trkpt>
      <trkpt lat="43.15619" lon="2.34201">
        <ele>193.8</ele>
        <time>2019-08-18T07:41:09.000Z</time>
      </trkpt>
      <trkpt lat="43.15616" lon="2.342">
        <ele>194</ele>
        <time>2019-08-18T07:41:10.000Z</time>
      </trkpt>
      <trkpt lat="43.15614" lon="2.34199">
        <ele>194.2</ele>
        <time>2019-08-18T07:41:11.000Z</time>
      </trkpt>
      <trkpt lat="43.15611" lon="2.34198">
        <ele>194.4</ele>
        <time>2019-08-18T07:41:12.000Z</time>
      </trkpt>
      <trkpt lat="43.15609" lon="2.34197">
        <ele>194.6</ele>
        <time>2019-08-18T07:41:13.000Z</time>
      </trkpt>
      <trkpt lat="43.15607" lon="2.34195">
        <ele>194.8</ele>
        <time>2019-08-18T07:41:14.000Z</time>
      </trkpt>
      <trkpt lat="43.15606" lon="2.34193">
        <ele>195.1</ele>
        <time>2019-08-18T07:41:15.000Z</time>
      </trkpt>
      <trkpt lat="43.15605" lon="2.34191">
        <ele>195.3</ele>
        <time>2019-08-18T07:41:16.000Z</time>
      </trkpt>
      <trkpt lat="43.15604" lon="2.34188">
        <ele>195.5</ele>
        <time>2019-08-18T07:41:17.000Z</time>
      </trkpt>
      <trkpt lat="43.15605" lon="2.34184">
        <ele>195.6</ele>
        <time>2019-08-18T07:41:18.000Z</time>
      </trkpt>
      <trkpt lat="43.15606" lon="2.34181">
        <ele>195.8</ele>
        <time>2019-08-18T07:41:19.000Z</time>
      </trkpt>
      <trkpt lat="43.15607" lon="2.34178">
        <ele>195.9</ele>
        <time>2019-08-18T07:41:20.000Z</time>
      </trkpt>
      <trkpt lat="43.15608" lon="2.34175">
        <ele>196</ele>
        <time>2019-08-18T07:41:21.000Z</time>
      </trkpt>
      <trkpt lat="43.15609" lon="2.34172">
        <ele>196.2</ele>
        <time>2019-08-18T07:41:22.000Z</time>
      </trkpt>
      <trkpt lat="43.15609" lon="2.34169">
        <ele>196.3</ele>
        <time>2019-08-18T07:41:23.000Z</time>
      </trkpt>
      <trkpt lat="43.1561" lon="2.34165">
        <ele>196.5</ele>
        <time>2019-08-18T07:41:24.000Z</time>
      </trkpt>
      <trkpt lat="43.1561" lon="2.34162">
        <ele>196.7</ele>
        <time>2019-08-18T07:41:25.000Z</time>
      </trkpt>
      <trkpt lat="43.15611" lon="2.34158">
        <ele>196.8</ele>
        <time>2019-08-18T07:41:26.000Z</time>
      </trkpt>
      <trkpt lat="43.15611" lon="2.34155">
        <ele>197</ele>
        <time>2019-08-18T07:41:27.000Z</time>
      </trkpt>
      <trkpt lat="43.15612" lon="2.34151">
        <ele>197.2</ele>
        <time>2019-08-18T07:41:28.000Z</time>
      </trkpt>
      <trkpt lat="43.15612" lon="2.34147">
        <ele>197.4</ele>
        <time>2019-08-18T07:41:29.000Z</time>
      </trkpt>
      <trkpt lat="43.15612" lon="2.34144">
        <ele>197.5</ele>
        <time>2019-08-18T07:41:30.000Z</time>
      </trkpt>
      <trkpt lat="43.15612" lon="2.34141">
        <ele>197.7</ele>
        <time>2019-08-18T07:41:31.000Z</time>
      </trkpt>
      <trkpt lat="43.15613" lon="2.34137">
        <ele>197.9</ele>
        <time>2019-08-18T07:41:32.000Z</time>
      </trkpt>
      <trkpt lat="43.15613" lon="2.34134">
        <ele>198.1</ele>
        <time>2019-08-18T07:41:33.000Z</time>
      </trkpt>
      <trkpt lat="43.15614" lon="2.34131">
        <ele>198.2</ele>
        <time>2019-08-18T07:41:34.000Z</time>
      </trkpt>
      <trkpt lat="43.15614" lon="2.34127">
        <ele>198.4</ele>
        <time>2019-08-18T07:41:35.000Z</time>
      </trkpt>
      <trkpt lat="43.15615" lon="2.34124">
        <ele>198.5</ele>
        <time>2019-08-18T07:41:36.000Z</time>
      </trkpt>
      <trkpt lat="43.15616" lon="2.34121">
        <ele>198.7</ele>
        <time>2019-08-18T07:41:37.000Z</time>
      </trkpt>
      <trkpt lat="43.15617" lon="2.34118">
        <ele>198.8</ele>
        <time>2019-08-18T07:41:38.000Z</time>
      </trkpt>
      <trkpt lat="43.15618" lon="2.34114">
        <ele>199</ele>
        <time>2019-08-18T07:41:39.000Z</time>
      </trkpt>
      <trkpt lat="43.15619" lon="2.34111">
        <ele>199.1</ele>
        <time>2019-08-18T07:41:40.000Z</time>
      </trkpt>
      <trkpt lat="43.1562" lon="2.34108">
        <ele>199.2</ele>
        <time>2019-08-18T07:41:41.000Z</time>
      </trkpt>
      <trkpt lat="43.15621" lon="2.34105">
        <ele>199.3</ele>
        <time>2019-08-18T07:41:42.000Z</time>
      </trkpt>
      <trkpt lat="43.15623" lon="2.34102">
        <ele>199.5</ele>
        <time>2019-08-18T07:41:43.000Z</time>
      </trkpt>
      <trkpt lat="43.15624" lon="2.341">
        <ele>199.6</ele>
        <time>2019-08-18T07:41:44.000Z</time>
      </trkpt>
      <trkpt lat="43.15625" lon="2.34097">
        <ele>199.7</ele>
        <time>2019-08-18T07:41:45.000Z</time>
      </trkpt>
      <trkpt lat="43.15627" lon="2.34094">
        <ele>199.8</ele>
        <time>2019-08-18T07:41:46.000Z</time>
      </trkpt>
      <trkpt lat="43.15628" lon="2.34091">
        <ele>199.9</ele>
        <time>2019-08-18T07:41:47.000Z</time>
      </trkpt>
      <trkpt lat="43.1563" lon="2.34089">
        <ele>200</ele>
        <time>2019-08-18T07:41:48.000Z</time>
      </trkpt>
      <trkpt lat="43.15631" lon="2.34086">
        <ele>200.1</ele>
        <time>2019-08-18T07:41:49.000Z</time>
      </trkpt>
      <trkpt lat="43.15633" lon="2.34083">
        <ele>200.2</ele>
        <time>2019-08-18T07:41:50.000Z</time>
      </trkpt>
      <trkpt lat="43.15634" lon="2.34081">
        <ele>200.3</ele>
        <time>2019-08-18T07:41:51.000Z</time>
      </trkpt>
      <trkpt lat="43.15636" lon="2.34078">
        <ele>200.4</ele>
        <time>2019-08-18T07:41:52.000Z</time>
      </trkpt>
      <trkpt lat="43.15637" lon="2.34075">
        <ele>200.4</ele>
        <time>2019-08-18T07:41:53.000Z</time>
      </trkpt>
      <trkpt lat="43.15639" lon="2.34073">
        <ele>200.5</ele>
        <time>2019-08-18T07:41:54.000Z</time>
      </trkpt>
      <trkpt lat="43.1564" lon="2.3407">
        <ele>200.5</ele>
        <time>2019-08-18T07:41:55.000Z</time>
      </trkpt>
      <trkpt lat="43.15642" lon="2.34067">
        <ele>200.6</ele>
        <time>2019-08-18T07:41:56.000Z</time>
      </trkpt>
      <trkpt lat="43.15643" lon="2.34065">
        <ele>200.6</ele>
        <time>2019-08-18T07:41:57.000Z</time>
      </trkpt>
      <trkpt lat="43.15645" lon="2.34062">
        <ele>200.7</ele>
        <time>2019-08-18T07:41:58.000Z</time>
      </trkpt>
      <trkpt lat="43.15646" lon="2.34059">
        <ele>200.7</ele>
        <time>2019-08-18T07:41:59.000Z</time>
      </trkpt>
      <trkpt lat="43.15648" lon="2.34057">
        <ele>200.8</ele>
        <time>2019-08-18T07:42:00.000Z</time>
      </trkpt>
      <trkpt lat="43.15649" lon="2.34054">
        <ele>200.8</ele>
        <time>2019-08-18T07:42:01.000Z</time>
      </trkpt>
      <trkpt lat="43.1565" lon="2.34051">
        <ele>200.9</ele>
        <time>2019-08-18T07:42:02.000Z</time>
      </trkpt>
      <trkpt lat="43.15652" lon="2.34048">
        <ele>200.9</ele>
        <time>2019-08-18T07:42:03.000Z</time>
      </trkpt>
      <trkpt lat="43.15653" lon="2.34046">
        <ele>201</ele>
        <time>2019-08-18T07:42:04.000Z</time>
      </trkpt>
      <trkpt lat="43.15655" lon="2.34043">
        <ele>201</ele>
        <time>2019-08-18T07:42:05.000Z</time>
      </trkpt>
      <trkpt lat="43.15656" lon="2.3404">
        <ele>201.1</ele>
        <time>2019-08-18T07:42:06.000Z</time>
      </trkpt>
      <trkpt lat="43.15657" lon="2.34037">
        <ele>201.1</ele>
        <time>2019-08-18T07:42:07.000Z</time>
      </trkpt>
      <trkpt lat="43.15659" lon="2.34034">
        <ele>201.2</ele>
        <time>2019-08-18T07:42:08.000Z</time>
      </trkpt>
      <trkpt lat="43.1566" lon="2.34032">
        <ele>201.2</ele>
        <time>2019-08-18T07:42:09.000Z</time>
      </trkpt>
      <trkpt lat="43.15661" lon="2.34029">
        <ele>201.2</ele>
        <time>2019-08-18T07:42:10.000Z</time>
      </trkpt>
      <trkpt lat="43.15663" lon="2.34026">
        <ele>201.3</ele>
        <time>2019-08-18T07:42:11.000Z</time>
      </trkpt>
      <trkpt lat="43.15664" lon="2.34023">
        <ele>201.3</ele>
        <time>2019-08-18T07:42:12.000Z</time>
      </trkpt>
      <trkpt lat="43.15666" lon="2.3402">
        <ele>201.3</ele>
        <time>2019-08-18T07:42:13.000Z</time>
      </trkpt>
      <trkpt lat="43.15667" lon="2.34017">
        <ele>201.3</ele>
        <time>2019-08-18T07:42:14.000Z</time>
      </trkpt>
      <trkpt lat="43.15668" lon="2.34015">
        <ele>201.3</ele>
        <time>2019-08-18T07:42:15.000Z</time>
      </trkpt>
      <trkpt lat="43.1567" lon="2.34012">
        <ele>201.2</ele>
        <time>2019-08-18T07:42:16.000Z</time>
      </trkpt>
      <trkpt lat="43.15671" lon="2.34009">
        <ele>201.2</ele>
        <time>2019-08-18T07:42:17.000Z</time>
      </trkpt>
      <trkpt lat="43.15673" lon="2.34006">
        <ele>201.1</ele>
        <time>2019-08-18T07:42:18.000Z</time>
      </trkpt>
      <trkpt lat="43.15674" lon="2.34004">
        <ele>201.1</ele>
        <time>2019-08-18T07:42:19.000Z</time>
      </trkpt>
      <trkpt lat="43.15676" lon="2.34001">
        <ele>201</ele>
        <time>2019-08-18T07:42:20.000Z</time>
      </trkpt>
      <trkpt lat="43.15677" lon="2.33998">
        <ele>201</ele>
        <time>2019-08-18T07:42:21.000Z</time>
      </trkpt>
      <trkpt lat="43.15679" lon="2.33996">
        <ele>200.9</ele>
        <time>2019-08-18T07:42:22.000Z</time>
      </trkpt>
      <trkpt lat="43.15681" lon="2.33993">
        <ele>200.9</ele>
        <time>2019-08-18T07:42:23.000Z</time>
      </trkpt>
      <trkpt lat="43.15682" lon="2.3399">
        <ele>200.9</ele>
        <time>2019-08-18T07:42:24.000Z</time>
      </trkpt>
      <trkpt lat="43.15684" lon="2.33988">
        <ele>200.9</ele>
        <time>2019-08-18T07:42:25.000Z</time>
      </trkpt>
      <trkpt lat="43.15685" lon="2.33985">
        <ele>200.9</ele>
        <time>2019-08-18T07:42:26.000Z</time>
      </trkpt>
      <trkpt lat="43.15687" lon="2.33983">
        <ele>200.8</ele>
        <time>2019-08-18T07:42:27.000Z</time>
      </trkpt>
      <trkpt lat="43.15689" lon="2.33981">
        <ele>200.8</ele>
        <time>2019-08-18T07:42:28.000Z</time>
      </trkpt>
      <trkpt lat="43.1569" lon="2.33978">
        <ele>200.7</ele>
        <time>2019-08-18T07:42:29.000Z</time>
      </trkpt>
      <trkpt lat="43.15692" lon="2.33976">
        <ele>200.7</ele>
        <time>2019-08-18T07:42:30.000Z</time>
      </trkpt>
      <trkpt lat="43.15694" lon="2.33974">
        <ele>200.6</ele>
        <time>2019-08-18T07:42:31.000Z</time>
      </trkpt>
      <trkpt lat="43.15696" lon="2.33971">
        <ele>200.6</ele>
        <time>2019-08-18T07:42:32.000Z</time>
      </trkpt>
      <trkpt lat="43.15698" lon="2.33969">
        <ele>200.5</ele>
        <time>2019-08-18T07:42:33.000Z</time>
      </trkpt>
      <trkpt lat="43.15699" lon="2.33967">
        <ele>200.5</ele>
        <time>2019-08-18T07:42:34.000Z</time>
      </trkpt>
      <trkpt lat="43.15701" lon="2.33964">
        <ele>200.4</ele>
        <time>2019-08-18T07:42:35.000Z</time>
      </trkpt>
      <trkpt lat="43.15703" lon="2.33962">
        <ele>200.3</ele>
        <time>2019-08-18T07:42:36.000Z</time>
      </trkpt>
      <trkpt lat="43.15705" lon="2.3396">
        <ele>200.3</ele>
        <time>2019-08-18T07:42:37.000Z</time>
      </trkpt>
      <trkpt lat="43.15707" lon="2.33957">
        <ele>200.2</ele>
        <time>2019-08-18T07:42:38.000Z</time>
      </trkpt>
      <trkpt lat="43.15709" lon="2.33955">
        <ele>200.1</ele>
        <time>2019-08-18T07:42:39.000Z</time>
      </trkpt>
      <trkpt lat="43.15711" lon="2.33952">
        <ele>200.1</ele>
        <time>2019-08-18T07:42:40.000Z</time>
      </trkpt>
      <trkpt lat="43.15713" lon="2.3395">
        <ele>200</ele>
        <time>2019-08-18T07:42:41.000Z</time>
      </trkpt>
      <trkpt lat="43.15715" lon="2.33947">
        <ele>199.9</ele>
        <time>2019-08-18T07:42:42.000Z</time>
      </trkpt>
      <trkpt lat="43.15717" lon="2.33945">
        <ele>199.8</ele>
        <time>2019-08-18T07:42:43.000Z</time>
      </trkpt>
      <trkpt lat="43.15719" lon="2.33942">
        <ele>199.8</ele>
        <time>2019-08-18T07:42:44.000Z</time>
      </trkpt>
      <trkpt lat="43.15722" lon="2.3394">
        <ele>199.7</ele>
        <time>2019-08-18T07:42:45.000Z</time>
      </trkpt>
      <trkpt lat="43.15724" lon="2.33937">
        <ele>199.6</ele>
        <time>2019-08-18T07:42:46.000Z</time>
      </trkpt>
      <trkpt lat="43.15726" lon="2.33935">
        <ele>199.6</ele>
        <time>2019-08-18T07:42:47.000Z</time>
      </trkpt>
      <trkpt lat="43.15728" lon="2.33932">
        <ele>199.5</ele>
        <time>2019-08-18T07:42:48.000Z</time>
      </trkpt>
      <trkpt lat="43.1573" lon="2.3393">
        <ele>199.4</ele>
        <time>2019-08-18T07:42:49.000Z</time>
      </trkpt>
      <trkpt lat="43.15732" lon="2.33927">
        <ele>199.4</ele>
        <time>2019-08-18T07:42:50.000Z</time>
      </trkpt>
      <trkpt lat="43.15734" lon="2.33925">
        <ele>199.3</ele>
        <time>2019-08-18T07:42:51.000Z</time>
      </trkpt>
      <trkpt lat="43.15736" lon="2.33922">
        <ele>199.2</ele>
        <time>2019-08-18T07:42:52.000Z</time>
      </trkpt>
      <trkpt lat="43.15738" lon="2.3392">
        <ele>199.2</ele>
        <time>2019-08-18T07:42:53.000Z</time>
      </trkpt>
      <trkpt lat="43.1574" lon="2.33917">
        <ele>199.1</ele>
        <time>2019-08-18T07:42:54.000Z</time>
      </trkpt>
      <trkpt lat="43.15741" lon="2.33915">
        <ele>199.1</ele>
        <time>2019-08-18T07:42:55.000Z</time>
      </trkpt>
      <trkpt lat="43.15743" lon="2.33913">
        <ele>199.2</ele>
        <time>2019-08-18T07:42:56.000Z</time>
      </trkpt>
      <trkpt lat="43.15745" lon="2.33911">
        <ele>199.3</ele>
        <time>2019-08-18T07:42:57.000Z</time>
      </trkpt>
      <trkpt lat="43.15747" lon="2.33908">
        <ele>199.4</ele>
        <time>2019-08-18T07:42:58.000Z</time>
      </trkpt>
      <trkpt lat="43.15749" lon="2.33906">
        <ele>199.5</ele>
        <time>2019-08-18T07:42:59.000Z</time>
      </trkpt>
      <trkpt lat="43.15751" lon="2.33904">
        <ele>199.6</ele>
        <time>2019-08-18T07:43:00.000Z</time>
      </trkpt>
      <trkpt lat="43.15753" lon="2.33901">
        <ele>199.7</ele>
        <time>2019-08-18T07:43:01.000Z</time>
      </trkpt>
      <trkpt lat="43.15755" lon="2.33899">
        <ele>199.7</ele>
        <time>2019-08-18T07:43:02.000Z</time>
      </trkpt>
      <trkpt lat="43.15757" lon="2.33897">
        <ele>199.7</ele>
        <time>2019-08-18T07:43:03.000Z</time>
      </trkpt>
      <trkpt lat="43.15759" lon="2.33894">
        <ele>199.7</ele>
        <time>2019-08-18T07:43:04.000Z</time>
      </trkpt>
      <trkpt lat="43.15761" lon="2.33891">
        <ele>199.7</ele>
        <time>2019-08-18T07:43:05.000Z</time>
      </trkpt>
      <trkpt lat="43.15762" lon="2.33889">
        <ele>199.8</ele>
        <time>2019-08-18T07:43:06.000Z</time>
      </trkpt>
      <trkpt lat="43.15764" lon="2.33886">
        <ele>199.8</ele>
        <time>2019-08-18T07:43:07.000Z</time>
      </trkpt>
      <trkpt lat="43.15766" lon="2.33883">
        <ele>199.8</ele>
        <time>2019-08-18T07:43:08.000Z</time>
      </trkpt>
      <trkpt lat="43.15768" lon="2.3388">
        <ele>199.9</ele>
        <time>2019-08-18T07:43:09.000Z</time>
      </trkpt>
      <trkpt lat="43.15769" lon="2.33877">
        <ele>200</ele>
        <time>2019-08-18T07:43:10.000Z</time>
      </trkpt>
      <trkpt lat="43.15771" lon="2.33875">
        <ele>200</ele>
        <time>2019-08-18T07:43:11.000Z</time>
      </trkpt>
      <trkpt lat="43.15773" lon="2.33872">
        <ele>200.1</ele>
        <time>2019-08-18T07:43:12.000Z</time>
      </trkpt>
      <trkpt lat="43.15774" lon="2.33869">
        <ele>200.1</ele>
        <time>2019-08-18T07:43:13.000Z</time>
      </trkpt>
      <trkpt lat="43.15776" lon="2.33866">
        <ele>200.2</ele>
        <time>2019-08-18T07:43:14.000Z</time>
      </trkpt>
      <trkpt lat="43.15778" lon="2.33863">
        <ele>200.1</ele>
        <time>2019-08-18T07:43:15.000Z</time>
      </trkpt>
      <trkpt lat="43.1578" lon="2.3386">
        <ele>200.1</ele>
        <time>2019-08-18T07:43:16.000Z</time>
      </trkpt>
      <trkpt lat="43.15782" lon="2.33857">
        <ele>200.1</ele>
        <time>2019-08-18T07:43:17.000Z</time>
      </trkpt>
      <trkpt lat="43.15783" lon="2.33855">
        <ele>200</ele>
        <time>2019-08-18T07:43:18.000Z</time>
      </trkpt>
      <trkpt lat="43.15785" lon="2.33852">
        <ele>199.9</ele>
        <time>2019-08-18T07:43:19.000Z</time>
      </trkpt>
      <trkpt lat="43.15787" lon="2.3385">
        <ele>199.8</ele>
        <time>2019-08-18T07:43:20.000Z</time>
      </trkpt>
      <trkpt lat="43.15789" lon="2.33847">
        <ele>199.7</ele>
        <time>2019-08-18T07:43:21.000Z</time>
      </trkpt>
      <trkpt lat="43.15791" lon="2.33844">
        <ele>199.6</ele>
        <time>2019-08-18T07:43:22.000Z</time>
      </trkpt>
      <trkpt lat="43.15792" lon="2.33842">
        <ele>199.6</ele>
        <time>2019-08-18T07:43:23.000Z</time>
      </trkpt>
      <trkpt lat="43.15794" lon="2.33839">
        <ele>199.5</ele>
        <time>2019-08-18T07:43:24.000Z</time>
      </trkpt>
      <trkpt lat="43.15796" lon="2.33836">
        <ele>199.4</ele>
        <time>2019-08-18T07:43:25.000Z</time>
      </trkpt>
      <trkpt lat="43.15797" lon="2.33834">
        <ele>199.4</ele>
        <time>2019-08-18T07:43:26.000Z</time>
      </trkpt>
      <trkpt lat="43.15799" lon="2.33831">
        <ele>199.3</ele>
        <time>2019-08-18T07:43:27.000Z</time>
      </trkpt>
      <trkpt lat="43.158" lon="2.33828">
        <ele>199.3</ele>
        <time>2019-08-18T07:43:28.000Z</time>
      </trkpt>
      <trkpt lat="43.15802" lon="2.33824">
        <ele>199.2</ele>
        <time>2019-08-18T07:43:29.000Z</time>
      </trkpt>
      <trkpt lat="43.15803" lon="2.33821">
        <ele>199.2</ele>
        <time>2019-08-18T07:43:30.000Z</time>
      </trkpt>
      <trkpt lat="43.15804" lon="2.33818">
        <ele>199.2</ele>
        <time>2019-08-18T07:43:31.000Z</time>
      </trkpt>
      <trkpt lat="43.15806" lon="2.33814">
        <ele>199.3</ele>
        <time>2019-08-18T07:43:32.000Z</time>
      </trkpt>
      <trkpt lat="43.15807" lon="2.33811">
        <ele>199.3</ele>
        <time>2019-08-18T07:43:33.000Z</time>
      </trkpt>
      <trkpt lat="43.15808" lon="2.33807">
        <ele>199.3</ele>
        <time>2019-08-18T07:43:34.000Z</time>
      </trkpt>
      <trkpt lat="43.15809" lon="2.33804">
        <ele>199.4</ele>
        <time>2019-08-18T07:43:35.000Z</time>
      </trkpt>
      <trkpt lat="43.15811" lon="2.338">
        <ele>199.4</ele>
        <time>2019-08-18T07:43:36.000Z</time>
      </trkpt>
      <trkpt lat="43.15812" lon="2.33797">
        <ele>199.4</ele>
        <time>2019-08-18T07:43:37.000Z</time>
      </trkpt>
      <trkpt lat="43.15813" lon="2.33793">
        <ele>199.4</ele>
        <time>2019-08-18T07:43:38.000Z</time>
      </trkpt>
      <trkpt lat="43.15815" lon="2.3379">
        <ele>199.4</ele>
        <time>2019-08-18T07:43:39.000Z</time>
      </trkpt>
      <trkpt lat="43.15816" lon="2.33787">
        <ele>199.5</ele>
        <time>2019-08-18T07:43:40.000Z</time>
      </trkpt>
      <trkpt lat="43.15817" lon="2.33783">
        <ele>199.5</ele>
        <time>2019-08-18T07:43:41.000Z</time>
      </trkpt>
      <trkpt lat="43.15818" lon="2.3378">
        <ele>199.5</ele>
        <time>2019-08-18T07:43:42.000Z</time>
      </trkpt>
      <trkpt lat="43.1582" lon="2.33777">
        <ele>199.5</ele>
        <time>2019-08-18T07:43:43.000Z</time>
      </trkpt>
      <trkpt lat="43.15821" lon="2.33774">
        <ele>199.5</ele>
        <time>2019-08-18T07:43:44.000Z</time>
      </trkpt>
      <trkpt lat="43.15822" lon="2.33771">
        <ele>199.6</ele>
        <time>2019-08-18T07:43:45.000Z</time>
      </trkpt>
      <trkpt lat="43.15823" lon="2.33769">
        <ele>199.6</ele>
        <time>2019-08-18T07:43:46.000Z</time>
      </trkpt>
      <trkpt lat="43.15824" lon="2.33766">
        <ele>199.6</ele>
        <time>2019-08-18T07:43:47.000Z</time>
      </trkpt>
      <trkpt lat="43.15825" lon="2.33763">
        <ele>199.6</ele>
        <time>2019-08-18T07:43:48.000Z</time>
      </trkpt>
      <trkpt lat="43.15826" lon="2.3376">
        <ele>199.7</ele>
        <time>2019-08-18T07:43:49.000Z</time>
      </trkpt>
      <trkpt lat="43.15827" lon="2.33757">
        <ele>199.7</ele>
        <time>2019-08-18T07:43:50.000Z</time>
      </trkpt>
      <trkpt lat="43.15828" lon="2.33754">
        <ele>199.8</ele>
        <time>2019-08-18T07:43:51.000Z</time>
      </trkpt>
      <trkpt lat="43.15829" lon="2.3375">
        <ele>199.9</ele>
        <time>2019-08-18T07:43:52.000Z</time>
      </trkpt>
      <trkpt lat="43.1583" lon="2.33747">
        <ele>199.8</ele>
        <time>2019-08-18T07:43:53.000Z</time>
      </trkpt>
      <trkpt lat="43.15831" lon="2.33744">
        <ele>199.7</ele>
        <time>2019-08-18T07:43:54.000Z</time>
      </trkpt>
      <trkpt lat="43.15832" lon="2.3374">
        <ele>199.6</ele>
        <time>2019-08-18T07:43:55.000Z</time>
      </trkpt>
      <trkpt lat="43.15833" lon="2.33737">
        <ele>199.5</ele>
        <time>2019-08-18T07:43:56.000Z</time>
      </trkpt>
      <trkpt lat="43.15835" lon="2.33733">
        <ele>199.5</ele>
        <time>2019-08-18T07:43:57.000Z</time>
      </trkpt>
      <trkpt lat="43.15836" lon="2.3373">
        <ele>199.5</ele>
        <time>2019-08-18T07:43:58.000Z</time>
      </trkpt>
      <trkpt lat="43.15837" lon="2.33726">
        <ele>199.5</ele>
        <time>2019-08-18T07:43:59.000Z</time>
      </trkpt>
      <trkpt lat="43.15838" lon="2.33722">
        <ele>199.5</ele>
        <time>2019-08-18T07:44:00.000Z</time>
      </trkpt>
      <trkpt lat="43.15839" lon="2.33719">
        <ele>199.6</ele>
        <time>2019-08-18T07:44:01.000Z</time>
      </trkpt>
      <trkpt lat="43.15841" lon="2.33715">
        <ele>199.6</ele>
        <time>2019-08-18T07:44:02.000Z</time>
      </trkpt>
      <trkpt lat="43.15842" lon="2.33711">
        <ele>199.6</ele>
        <time>2019-08-18T07:44:03.000Z</time>
      </trkpt>
      <trkpt lat="43.15843" lon="2.33708">
        <ele>199.6</ele>
        <time>2019-08-18T07:44:04.000Z</time>
      </trkpt>
      <trkpt lat="43.15844" lon="2.33704">
        <ele>199.7</ele>
        <time>2019-08-18T07:44:05.000Z</time>
      </trkpt>
      <trkpt lat="43.15846" lon="2.33701">
        <ele>199.7</ele>
        <time>2019-08-18T07:44:06.000Z</time>
      </trkpt>
      <trkpt lat="43.15847" lon="2.33698">
        <ele>199.7</ele>
        <time>2019-08-18T07:44:07.000Z</time>
      </trkpt>
      <trkpt lat="43.15848" lon="2.33694">
        <ele>199.8</ele>
        <time>2019-08-18T07:44:08.000Z</time>
      </trkpt>
      <trkpt lat="43.15849" lon="2.33691">
        <ele>199.8</ele>
        <time>2019-08-18T07:44:09.000Z</time>
      </trkpt>
      <trkpt lat="43.15851" lon="2.33688">
        <ele>199.9</ele>
        <time>2019-08-18T07:44:10.000Z</time>
      </trkpt>
      <trkpt lat="43.15852" lon="2.33684">
        <ele>199.9</ele>
        <time>2019-08-18T07:44:11.000Z</time>
      </trkpt>
      <trkpt lat="43.15853" lon="2.33681">
        <ele>200</ele>
        <time>2019-08-18T07:44:12.000Z</time>
      </trkpt>
      <trkpt lat="43.15854" lon="2.33678">
        <ele>200</ele>
        <time>2019-08-18T07:44:13.000Z</time>
      </trkpt>
      <trkpt lat="43.15855" lon="2.33675">
        <ele>200.1</ele>
        <time>2019-08-18T07:44:14.000Z</time>
      </trkpt>
      <trkpt lat="43.15857" lon="2.33671">
        <ele>200.1</ele>
        <time>2019-08-18T07:44:15.000Z</time>
      </trkpt>
      <trkpt lat="43.15858" lon="2.33668">
        <ele>200.2</ele>
        <time>2019-08-18T07:44:16.000Z</time>
      </trkpt>
      <trkpt lat="43.15859" lon="2.33665">
        <ele>200.2</ele>
        <time>2019-08-18T07:44:17.000Z</time>
      </trkpt>
      <trkpt lat="43.1586" lon="2.33662">
        <ele>200.2</ele>
        <time>2019-08-18T07:44:18.000Z</time>
      </trkpt>
      <trkpt lat="43.15862" lon="2.33659">
        <ele>200.2</ele>
        <time>2019-08-18T07:44:19.000Z</time>
      </trkpt>
      <trkpt lat="43.15863" lon="2.33656">
        <ele>200.2</ele>
        <time>2019-08-18T07:44:20.000Z</time>
      </trkpt>
      <trkpt lat="43.15864" lon="2.33653">
        <ele>200.2</ele>
        <time>2019-08-18T07:44:21.000Z</time>
      </trkpt>
      <trkpt lat="43.15865" lon="2.3365">
        <ele>200.2</ele>
        <time>2019-08-18T07:44:22.000Z</time>
      </trkpt>
      <trkpt lat="43.15867" lon="2.33647">
        <ele>200.2</ele>
        <time>2019-08-18T07:44:23.000Z</time>
      </trkpt>
      <trkpt lat="43.15868" lon="2.33644">
        <ele>200.2</ele>
        <time>2019-08-18T07:44:24.000Z</time>
      </trkpt>
      <trkpt lat="43.1587" lon="2.33641">
        <ele>200.2</ele>
        <time>2019-08-18T07:44:25.000Z</time>
      </trkpt>
      <trkpt lat="43.15871" lon="2.33638">
        <ele>200.2</ele>
        <time>2019-08-18T07:44:26.000Z</time>
      </trkpt>
      <trkpt lat="43.15873" lon="2.33635">
        <ele>200.3</ele>
        <time>2019-08-18T07:44:27.000Z</time>
      </trkpt>
      <trkpt lat="43.15874" lon="2.33633">
        <ele>200.3</ele>
        <time>2019-08-18T07:44:28.000Z</time>
      </trkpt>
      <trkpt lat="43.15876" lon="2.3363">
        <ele>200.3</ele>
        <time>2019-08-18T07:44:29.000Z</time>
      </trkpt>
      <trkpt lat="43.15878" lon="2.33627">
        <ele>200.3</ele>
        <time>2019-08-18T07:44:30.000Z</time>
      </trkpt>
      <trkpt lat="43.15879" lon="2.33625">
        <ele>200.3</ele>
        <time>2019-08-18T07:44:31.000Z</time>
      </trkpt>
      <trkpt lat="43.15881" lon="2.33622">
        <ele>200.3</ele>
        <time>2019-08-18T07:44:32.000Z</time>
      </trkpt>
      <trkpt lat="43.15883" lon="2.3362">
        <ele>200.3</ele>
        <time>2019-08-18T07:44:33.000Z</time>
      </trkpt>
      <trkpt lat="43.15885" lon="2.33618">
        <ele>200.3</ele>
        <time>2019-08-18T07:44:34.000Z</time>
      </trkpt>
      <trkpt lat="43.15887" lon="2.33615">
        <ele>200.3</ele>
        <time>2019-08-18T07:44:35.000Z</time>
      </trkpt>
      <trkpt lat="43.15889" lon="2.33613">
        <ele>200.3</ele>
        <time>2019-08-18T07:44:36.000Z</time>
      </trkpt>
      <trkpt lat="43.15891" lon="2.33611">
        <ele>200.3</ele>
        <time>2019-08-18T07:44:37.000Z</time>
      </trkpt>
      <trkpt lat="43.15894" lon="2.33609">
        <ele>200.4</ele>
        <time>2019-08-18T07:44:38.000Z</time>
      </trkpt>
      <trkpt lat="43.15896" lon="2.33607">
        <ele>200.4</ele>
        <time>2019-08-18T07:44:39.000Z</time>
      </trkpt>
      <trkpt lat="43.15898" lon="2.33605">
        <ele>200.4</ele>
        <time>2019-08-18T07:44:40.000Z</time>
      </trkpt>
      <trkpt lat="43.159" lon="2.33603">
        <ele>200.4</ele>
        <time>2019-08-18T07:44:41.000Z</time>
      </trkpt>
      <trkpt lat="43.15902" lon="2.33601">
        <ele>200.5</ele>
        <time>2019-08-18T07:44:42.000Z</time>
      </trkpt>
      <trkpt lat="43.15904" lon="2.33599">
        <ele>200.5</ele>
        <time>2019-08-18T07:44:43.000Z</time>
      </trkpt>
      <trkpt lat="43.15905" lon="2.33597">
        <ele>200.6</ele>
        <time>2019-08-18T07:44:44.000Z</time>
      </trkpt>
      <trkpt lat="43.15906" lon="2.33596">
        <ele>200.6</ele>
        <time>2019-08-18T07:44:45.000Z</time>
      </trkpt>
      <trkpt lat="43.15906" lon="2.33594">
        <ele>200.7</ele>
        <time>2019-08-18T07:44:46.000Z</time>
      </trkpt>
      <trkpt lat="43.15906" lon="2.33594">
        <ele>200.7</ele>
        <time>2019-08-18T07:44:47.000Z</time>
      </trkpt>
      <trkpt lat="43.15906" lon="2.33593">
        <ele>200.7</ele>
        <time>2019-08-18T07:44:48.000Z</time>
      </trkpt>
      <trkpt lat="43.15906" lon="2.33593">
        <ele>200.7</ele>
        <time>2019-08-18T07:44:49.000Z</time>
      </trkpt>
      <trkpt lat="43.15906" lon="2.33593">
        <ele>200.7</ele>
        <time>2019-08-18T07:44:50.000Z</time>
      </trkpt>
      <trkpt lat="43.15906" lon="2.33593">
        <ele>200.7</ele>
        <time>2019-08-18T07:44:51.000Z</time>
      </trkpt>
      <trkpt lat="43.15906" lon="2.33593">
        <ele>200.7</ele>
        <time>2019-08-18T07:44:52.000Z</time>
      </trkpt>
      <trkpt lat="43.15906" lon="2.33593">
        <ele>200.7</ele>
        <time>2019-08-18T07:44:53.000Z</time>
      </trkpt>
      <trkpt lat="43.15906" lon="2.33592">
        <ele>200.8</ele>
        <time>2019-08-18T07:44:54.000Z</time>
      </trkpt>
      <trkpt lat="43.15907" lon="2.3359">
        <ele>200.9</ele>
        <time>2019-08-18T07:44:55.000Z</time>
      </trkpt>
      <trkpt lat="43.15907" lon="2.33588">
        <ele>201</ele>
        <time>2019-08-18T07:44:56.000Z</time>
      </trkpt>
      <trkpt lat="43.15907" lon="2.33586">
        <ele>201.1</ele>
        <time>2019-08-18T07:44:57.000Z</time>
      </trkpt>
      <trkpt lat="43.15907" lon="2.33583">
        <ele>201.2</ele>
        <time>2019-08-18T07:44:58.000Z</time>
      </trkpt>
      <trkpt lat="43.15907" lon="2.33581">
        <ele>201.3</ele>
        <time>2019-08-18T07:44:59.000Z</time>
      </trkpt>
      <trkpt lat="43.15908" lon="2.33578">
        <ele>201.4</ele>
        <time>2019-08-18T07:45:00.000Z</time>
      </trkpt>
      <trkpt lat="43.15908" lon="2.33575">
        <ele>201.6</ele>
        <time>2019-08-18T07:45:01.000Z</time>
      </trkpt>
      <trkpt lat="43.15908" lon="2.33572">
        <ele>201.7</ele>
        <time>2019-08-18T07:45:02.000Z</time>
      </trkpt>
      <trkpt lat="43.15908" lon="2.33569">
        <ele>201.8</ele>
        <time>2019-08-18T07:45:03.000Z</time>
      </trkpt>
      <trkpt lat="43.15908" lon="2.33566">
        <ele>201.9</ele>
        <time>2019-08-18T07:45:04.000Z</time>
      </trkpt>
      <trkpt lat="43.15908" lon="2.33563">
        <ele>202</ele>
        <time>2019-08-18T07:45:05.000Z</time>
      </trkpt>
      <trkpt lat="43.15908" lon="2.33559">
        <ele>202.1</ele>
        <time>2019-08-18T07:45:06.000Z</time>
      </trkpt>
      <trkpt lat="43.15908" lon="2.33556">
        <ele>202.3</ele>
        <time>2019-08-18T07:45:07.000Z</time>
      </trkpt>
      <trkpt lat="43.15908" lon="2.33553">
        <ele>202.4</ele>
        <time>2019-08-18T07:45:08.000Z</time>
      </trkpt>
      <trkpt lat="43.15908" lon="2.3355">
        <ele>202.5</ele>
        <time>2019-08-18T07:45:09.000Z</time>
      </trkpt>
      <trkpt lat="43.15908" lon="2.33547">
        <ele>202.6</ele>
        <time>2019-08-18T07:45:10.000Z</time>
      </trkpt>
      <trkpt lat="43.15908" lon="2.33544">
        <ele>202.7</ele>
        <time>2019-08-18T07:45:11.000Z</time>
      </trkpt>
      <trkpt lat="43.15907" lon="2.33542">
        <ele>202.8</ele>
        <time>2019-08-18T07:45:12.000Z</time>
      </trkpt>
      <trkpt lat="43.15907" lon="2.33539">
        <ele>202.9</ele>
        <time>2019-08-18T07:45:13.000Z</time>
      </trkpt>
      <trkpt lat="43.15907" lon="2.33536">
        <ele>203.1</ele>
        <time>2019-08-18T07:45:14.000Z</time>
      </trkpt>
      <trkpt lat="43.15907" lon="2.33533">
        <ele>203.2</ele>
        <time>2019-08-18T07:45:15.000Z</time>
      </trkpt>
      <trkpt lat="43.15907" lon="2.3353">
        <ele>203.3</ele>
        <time>2019-08-18T07:45:16.000Z</time>
      </trkpt>
      <trkpt lat="43.15906" lon="2.33527">
        <ele>203.4</ele>
        <time>2019-08-18T07:45:17.000Z</time>
      </trkpt>
      <trkpt lat="43.15906" lon="2.33524">
        <ele>203.5</ele>
        <time>2019-08-18T07:45:18.000Z</time>
      </trkpt>
      <trkpt lat="43.15906" lon="2.33521">
        <ele>203.6</ele>
        <time>2019-08-18T07:45:19.000Z</time>
      </trkpt>
      <trkpt lat="43.15907" lon="2.33518">
        <ele>203.7</ele>
        <time>2019-08-18T07:45:20.000Z</time>
      </trkpt>
      <trkpt lat="43.15907" lon="2.33515">
        <ele>203.8</ele>
        <time>2019-08-18T07:45:21.000Z</time>
      </trkpt>
      <trkpt lat="43.15907" lon="2.33512">
        <ele>204</ele>
        <time>2019-08-18T07:45:22.000Z</time>
      </trkpt>
      <trkpt lat="43.15907" lon="2.33509">
        <ele>204.1</ele>
        <time>2019-08-18T07:45:23.000Z</time>
      </trkpt>
      <trkpt lat="43.15907" lon="2.33506">
        <ele>204.2</ele>
        <time>2019-08-18T07:45:24.000Z</time>
      </trkpt>
      <trkpt lat="43.15907" lon="2.33503">
        <ele>204.3</ele>
        <time>2019-08-18T07:45:25.000Z</time>
      </trkpt>
      <trkpt lat="43.15908" lon="2.335">
        <ele>204.5</ele>
        <time>2019-08-18T07:45:26.000Z</time>
      </trkpt>
      <trkpt lat="43.15908" lon="2.33497">
        <ele>204.5</ele>
        <time>2019-08-18T07:45:27.000Z</time>
      </trkpt>
      <trkpt lat="43.15908" lon="2.33494">
        <ele>204.6</ele>
        <time>2019-08-18T07:45:28.000Z</time>
      </trkpt>
      <trkpt lat="43.15909" lon="2.33491">
        <ele>204.7</ele>
        <time>2019-08-18T07:45:29.000Z</time>
      </trkpt>
      <trkpt lat="43.15909" lon="2.33488">
        <ele>204.8</ele>
        <time>2019-08-18T07:45:30.000Z</time>
      </trkpt>
      <trkpt lat="43.15909" lon="2.33485">
        <ele>204.8</ele>
        <time>2019-08-18T07:45:31.000Z</time>
      </trkpt>
      <trkpt lat="43.1591" lon="2.33482">
        <ele>204.9</ele>
        <time>2019-08-18T07:45:32.000Z</time>
      </trkpt>
      <trkpt lat="43.1591" lon="2.33479">
        <ele>205</ele>
        <time>2019-08-18T07:45:33.000Z</time>
      </trkpt>
      <trkpt lat="43.1591" lon="2.33476">
        <ele>205.1</ele>
        <time>2019-08-18T07:45:34.000Z</time>
      </trkpt>
      <trkpt lat="43.15911" lon="2.33473">
        <ele>205.2</ele>
        <time>2019-08-18T07:45:35.000Z</time>
      </trkpt>
      <trkpt lat="43.15911" lon="2.3347">
        <ele>205.3</ele>
        <time>2019-08-18T07:45:36.000Z</time>
      </trkpt>
      <trkpt lat="43.15912" lon="2.33467">
        <ele>205.4</ele>
        <time>2019-08-18T07:45:37.000Z</time>
      </trkpt>
      <trkpt lat="43.15912" lon="2.33464">
        <ele>205.5</ele>
        <time>2019-08-18T07:45:38.000Z</time>
      </trkpt>
      <trkpt lat="43.15912" lon="2.33461">
        <ele>205.6</ele>
        <time>2019-08-18T07:45:39.000Z</time>
      </trkpt>
      <trkpt lat="43.15913" lon="2.33458">
        <ele>205.7</ele>
        <time>2019-08-18T07:45:40.000Z</time>
      </trkpt>
      <trkpt lat="43.15913" lon="2.33455">
        <ele>205.8</ele>
        <time>2019-08-18T07:45:41.000Z</time>
      </trkpt>
      <trkpt lat="43.15914" lon="2.33452">
        <ele>205.9</ele>
        <time>2019-08-18T07:45:42.000Z</time>
      </trkpt>
      <trkpt lat="43.15914" lon="2.33449">
        <ele>206</ele>
        <time>2019-08-18T07:45:43.000Z</time>
      </trkpt>
      <trkpt lat="43.15915" lon="2.33446">
        <ele>206.1</ele>
        <time>2019-08-18T07:45:44.000Z</time>
      </trkpt>
      <trkpt lat="43.15915" lon="2.33444">
        <ele>206.2</ele>
        <time>2019-08-18T07:45:45.000Z</time>
      </trkpt>
      <trkpt lat="43.15916" lon="2.33441">
        <ele>206.3</ele>
        <time>2019-08-18T07:45:46.000Z</time>
      </trkpt>
      <trkpt lat="43.15916" lon="2.33438">
        <ele>206.4</ele>
        <time>2019-08-18T07:45:47.000Z</time>
      </trkpt>
      <trkpt lat="43.15917" lon="2.33435">
        <ele>206.6</ele>
        <time>2019-08-18T07:45:48.000Z</time>
      </trkpt>
      <trkpt lat="43.15917" lon="2.33432">
        <ele>206.6</ele>
        <time>2019-08-18T07:45:49.000Z</time>
      </trkpt>
      <trkpt lat="43.15917" lon="2.33429">
        <ele>206.7</ele>
        <time>2019-08-18T07:45:50.000Z</time>
      </trkpt>
      <trkpt lat="43.15918" lon="2.33426">
        <ele>206.7</ele>
        <time>2019-08-18T07:45:51.000Z</time>
      </trkpt>
      <trkpt lat="43.15918" lon="2.33423">
        <ele>206.8</ele>
        <time>2019-08-18T07:45:52.000Z</time>
      </trkpt>
      <trkpt lat="43.15919" lon="2.3342">
        <ele>206.8</ele>
        <time>2019-08-18T07:45:53.000Z</time>
      </trkpt>
      <trkpt lat="43.15919" lon="2.33417">
        <ele>206.9</ele>
        <time>2019-08-18T07:45:54.000Z</time>
      </trkpt>
      <trkpt lat="43.15919" lon="2.33414">
        <ele>207</ele>
        <time>2019-08-18T07:45:55.000Z</time>
      </trkpt>
      <trkpt lat="43.1592" lon="2.33411">
        <ele>207.1</ele>
        <time>2019-08-18T07:45:56.000Z</time>
      </trkpt>
      <trkpt lat="43.1592" lon="2.33408">
        <ele>207.1</ele>
        <time>2019-08-18T07:45:57.000Z</time>
      </trkpt>
      <trkpt lat="43.15921" lon="2.33405">
        <ele>207.2</ele>
        <time>2019-08-18T07:45:58.000Z</time>
      </trkpt>
      <trkpt lat="43.15921" lon="2.33402">
        <ele>207.3</ele>
        <time>2019-08-18T07:45:59.000Z</time>
      </trkpt>
      <trkpt lat="43.15921" lon="2.33399">
        <ele>207.4</ele>
        <time>2019-08-18T07:46:00.000Z</time>
      </trkpt>
      <trkpt lat="43.15922" lon="2.33396">
        <ele>207.5</ele>
        <time>2019-08-18T07:46:01.000Z</time>
      </trkpt>
      <trkpt lat="43.15922" lon="2.33392">
        <ele>207.6</ele>
        <time>2019-08-18T07:46:02.000Z</time>
      </trkpt>
      <trkpt lat="43.15922" lon="2.33389">
        <ele>207.7</ele>
        <time>2019-08-18T07:46:03.000Z</time>
      </trkpt>
      <trkpt lat="43.15922" lon="2.33386">
        <ele>207.8</ele>
        <time>2019-08-18T07:46:04.000Z</time>
      </trkpt>
      <trkpt lat="43.15923" lon="2.33383">
        <ele>207.9</ele>
        <time>2019-08-18T07:46:05.000Z</time>
      </trkpt>
      <trkpt lat="43.15923" lon="2.3338">
        <ele>207.9</ele>
        <time>2019-08-18T07:46:06.000Z</time>
      </trkpt>
      <trkpt lat="43.15923" lon="2.33377">
        <ele>208</ele>
        <time>2019-08-18T07:46:07.000Z</time>
      </trkpt>
      <trkpt lat="43.15924" lon="2.33374">
        <ele>208.1</ele>
        <time>2019-08-18T07:46:08.000Z</time>
      </trkpt>
      <trkpt lat="43.15924" lon="2.33371">
        <ele>208.2</ele>
        <time>2019-08-18T07:46:09.000Z</time>
      </trkpt>
      <trkpt lat="43.15924" lon="2.33368">
        <ele>208.3</ele>
        <time>2019-08-18T07:46:10.000Z</time>
      </trkpt>
      <trkpt lat="43.15924" lon="2.33365">
        <ele>208.4</ele>
        <time>2019-08-18T07:46:11.000Z</time>
      </trkpt>
      <trkpt lat="43.15925" lon="2.33362">
        <ele>208.5</ele>
        <time>2019-08-18T07:46:12.000Z</time>
      </trkpt>
      <trkpt lat="43.15925" lon="2.33359">
        <ele>208.6</ele>
        <time>2019-08-18T07:46:13.000Z</time>
      </trkpt>
      <trkpt lat="43.15925" lon="2.33356">
        <ele>208.6</ele>
        <time>2019-08-18T07:46:14.000Z</time>
      </trkpt>
      <trkpt lat="43.15925" lon="2.33353">
        <ele>208.7</ele>
        <time>2019-08-18T07:46:15.000Z</time>
      </trkpt>
      <trkpt lat="43.15926" lon="2.3335">
        <ele>208.8</ele>
        <time>2019-08-18T07:46:16.000Z</time>
      </trkpt>
      <trkpt lat="43.15926" lon="2.33347">
        <ele>208.9</ele>
        <time>2019-08-18T07:46:17.000Z</time>
      </trkpt>
      <trkpt lat="43.15926" lon="2.33344">
        <ele>208.9</ele>
        <time>2019-08-18T07:46:18.000Z</time>
      </trkpt>
      <trkpt lat="43.15927" lon="2.33342">
        <ele>209</ele>
        <time>2019-08-18T07:46:19.000Z</time>
      </trkpt>
      <trkpt lat="43.15927" lon="2.33339">
        <ele>209.1</ele>
        <time>2019-08-18T07:46:20.000Z</time>
      </trkpt>
      <trkpt lat="43.15927" lon="2.33336">
        <ele>209.1</ele>
        <time>2019-08-18T07:46:21.000Z</time>
      </trkpt>
      <trkpt lat="43.15928" lon="2.33334">
        <ele>209.2</ele>
        <time>2019-08-18T07:46:22.000Z</time>
      </trkpt>
      <trkpt lat="43.15928" lon="2.33331">
        <ele>209.2</ele>
        <time>2019-08-18T07:46:23.000Z</time>
      </trkpt>
      <trkpt lat="43.15929" lon="2.33329">
        <ele>209.2</ele>
        <time>2019-08-18T07:46:24.000Z</time>
      </trkpt>
      <trkpt lat="43.15929" lon="2.33326">
        <ele>209.2</ele>
        <time>2019-08-18T07:46:25.000Z</time>
      </trkpt>
      <trkpt lat="43.1593" lon="2.33324">
        <ele>209.3</ele>
        <time>2019-08-18T07:46:26.000Z</time>
      </trkpt>
      <trkpt lat="43.15931" lon="2.33322">
        <ele>209.3</ele>
        <time>2019-08-18T07:46:27.000Z</time>
      </trkpt>
      <trkpt lat="43.15932" lon="2.3332">
        <ele>209.3</ele>
        <time>2019-08-18T07:46:28.000Z</time>
      </trkpt>
      <trkpt lat="43.15932" lon="2.33317">
        <ele>209.2</ele>
        <time>2019-08-18T07:46:29.000Z</time>
      </trkpt>
      <trkpt lat="43.15933" lon="2.33315">
        <ele>209.2</ele>
        <time>2019-08-18T07:46:30.000Z</time>
      </trkpt>
      <trkpt lat="43.15934" lon="2.33313">
        <ele>209.2</ele>
        <time>2019-08-18T07:46:31.000Z</time>
      </trkpt>
      <trkpt lat="43.15936" lon="2.33311">
        <ele>209.2</ele>
        <time>2019-08-18T07:46:32.000Z</time>
      </trkpt>
      <trkpt lat="43.15937" lon="2.33309">
        <ele>209.1</ele>
        <time>2019-08-18T07:46:33.000Z</time>
      </trkpt>
      <trkpt lat="43.15938" lon="2.33307">
        <ele>209.1</ele>
        <time>2019-08-18T07:46:34.000Z</time>
      </trkpt>
      <trkpt lat="43.1594" lon="2.33305">
        <ele>209</ele>
        <time>2019-08-18T07:46:35.000Z</time>
      </trkpt>
      <trkpt lat="43.15941" lon="2.33303">
        <ele>209</ele>
        <time>2019-08-18T07:46:36.000Z</time>
      </trkpt>
      <trkpt lat="43.15943" lon="2.33301">
        <ele>208.9</ele>
        <time>2019-08-18T07:46:37.000Z</time>
      </trkpt>
      <trkpt lat="43.15944" lon="2.33298">
        <ele>208.9</ele>
        <time>2019-08-18T07:46:38.000Z</time>
      </trkpt>
      <trkpt lat="43.15945" lon="2.33296">
        <ele>208.8</ele>
        <time>2019-08-18T07:46:39.000Z</time>
      </trkpt>
      <trkpt lat="43.15947" lon="2.33293">
        <ele>208.8</ele>
        <time>2019-08-18T07:46:40.000Z</time>
      </trkpt>
      <trkpt lat="43.15948" lon="2.3329">
        <ele>208.8</ele>
        <time>2019-08-18T07:46:41.000Z</time>
      </trkpt>
      <trkpt lat="43.15949" lon="2.33287">
        <ele>208.8</ele>
        <time>2019-08-18T07:46:42.000Z</time>
      </trkpt>
      <trkpt lat="43.15951" lon="2.33284">
        <ele>208.8</ele>
        <time>2019-08-18T07:46:43.000Z</time>
      </trkpt>
      <trkpt lat="43.15952" lon="2.33281">
        <ele>208.8</ele>
        <time>2019-08-18T07:46:44.000Z</time>
      </trkpt>
      <trkpt lat="43.15953" lon="2.33277">
        <ele>208.8</ele>
        <time>2019-08-18T07:46:45.000Z</time>
      </trkpt>
      <trkpt lat="43.15954" lon="2.33274">
        <ele>208.8</ele>
        <time>2019-08-18T07:46:46.000Z</time>
      </trkpt>
      <trkpt lat="43.15955" lon="2.3327">
        <ele>208.8</ele>
        <time>2019-08-18T07:46:47.000Z</time>
      </trkpt>
      <trkpt lat="43.15956" lon="2.33267">
        <ele>208.8</ele>
        <time>2019-08-18T07:46:48.000Z</time>
      </trkpt>
      <trkpt lat="43.15956" lon="2.33263">
        <ele>208.8</ele>
        <time>2019-08-18T07:46:49.000Z</time>
      </trkpt>
      <trkpt lat="43.15957" lon="2.3326">
        <ele>208.9</ele>
        <time>2019-08-18T07:46:50.000Z</time>
      </trkpt>
      <trkpt lat="43.15958" lon="2.33256">
        <ele>208.9</ele>
        <time>2019-08-18T07:46:51.000Z</time>
      </trkpt>
      <trkpt lat="43.15958" lon="2.33253">
        <ele>208.9</ele>
        <time>2019-08-18T07:46:52.000Z</time>
      </trkpt>
      <trkpt lat="43.15959" lon="2.3325">
        <ele>209</ele>
        <time>2019-08-18T07:46:53.000Z</time>
      </trkpt>
      <trkpt lat="43.15959" lon="2.33246">
        <ele>208.8</ele>
        <time>2019-08-18T07:46:54.000Z</time>
      </trkpt>
      <trkpt lat="43.1596" lon="2.33243">
        <ele>208.7</ele>
        <time>2019-08-18T07:46:55.000Z</time>
      </trkpt>
      <trkpt lat="43.1596" lon="2.3324">
        <ele>208.6</ele>
        <time>2019-08-18T07:46:56.000Z</time>
      </trkpt>
      <trkpt lat="43.1596" lon="2.33237">
        <ele>208.5</ele>
        <time>2019-08-18T07:46:57.000Z</time>
      </trkpt>
      <trkpt lat="43.1596" lon="2.33234">
        <ele>208.4</ele>
        <time>2019-08-18T07:46:58.000Z</time>
      </trkpt>
      <trkpt lat="43.1596" lon="2.33231">
        <ele>208.3</ele>
        <time>2019-08-18T07:46:59.000Z</time>
      </trkpt>
      <trkpt lat="43.1596" lon="2.33228">
        <ele>208.2</ele>
        <time>2019-08-18T07:47:00.000Z</time>
      </trkpt>
      <trkpt lat="43.15959" lon="2.33225">
        <ele>208.2</ele>
        <time>2019-08-18T07:47:01.000Z</time>
      </trkpt>
      <trkpt lat="43.15959" lon="2.33222">
        <ele>208.1</ele>
        <time>2019-08-18T07:47:02.000Z</time>
      </trkpt>
      <trkpt lat="43.15958" lon="2.33219">
        <ele>208.1</ele>
        <time>2019-08-18T07:47:03.000Z</time>
      </trkpt>
      <trkpt lat="43.15958" lon="2.33216">
        <ele>208</ele>
        <time>2019-08-18T07:47:04.000Z</time>
      </trkpt>
      <trkpt lat="43.15957" lon="2.33213">
        <ele>208</ele>
        <time>2019-08-18T07:47:05.000Z</time>
      </trkpt>
      <trkpt lat="43.15956" lon="2.33209">
        <ele>207.9</ele>
        <time>2019-08-18T07:47:06.000Z</time>
      </trkpt>
      <trkpt lat="43.15955" lon="2.33206">
        <ele>207.9</ele>
        <time>2019-08-18T07:47:07.000Z</time>
      </trkpt>
      <trkpt lat="43.15954" lon="2.33203">
        <ele>207.9</ele>
        <time>2019-08-18T07:47:08.000Z</time>
      </trkpt>
      <trkpt lat="43.15953" lon="2.332">
        <ele>207.8</ele>
        <time>2019-08-18T07:47:09.000Z</time>
      </trkpt>
      <trkpt lat="43.15953" lon="2.33196">
        <ele>207.8</ele>
        <time>2019-08-18T07:47:10.000Z</time>
      </trkpt>
      <trkpt lat="43.15952" lon="2.33193">
        <ele>207.7</ele>
        <time>2019-08-18T07:47:11.000Z</time>
      </trkpt>
      <trkpt lat="43.15951" lon="2.33189">
        <ele>207.6</ele>
        <time>2019-08-18T07:47:12.000Z</time>
      </trkpt>
      <trkpt lat="43.1595" lon="2.33186">
        <ele>207.6</ele>
        <time>2019-08-18T07:47:13.000Z</time>
      </trkpt>
      <trkpt lat="43.1595" lon="2.33182">
        <ele>207.5</ele>
        <time>2019-08-18T07:47:14.000Z</time>
      </trkpt>
      <trkpt lat="43.15949" lon="2.33179">
        <ele>207.4</ele>
        <time>2019-08-18T07:47:15.000Z</time>
      </trkpt>
      <trkpt lat="43.15948" lon="2.33175">
        <ele>207.4</ele>
        <time>2019-08-18T07:47:16.000Z</time>
      </trkpt>
      <trkpt lat="43.15948" lon="2.33171">
        <ele>207.3</ele>
        <time>2019-08-18T07:47:17.000Z</time>
      </trkpt>
      <trkpt lat="43.15947" lon="2.33167">
        <ele>207.2</ele>
        <time>2019-08-18T07:47:18.000Z</time>
      </trkpt>
      <trkpt lat="43.15947" lon="2.33164">
        <ele>207.1</ele>
        <time>2019-08-18T07:47:19.000Z</time>
      </trkpt>
      <trkpt lat="43.15946" lon="2.3316">
        <ele>207</ele>
        <time>2019-08-18T07:47:20.000Z</time>
      </trkpt>
      <trkpt lat="43.15946" lon="2.33156">
        <ele>207</ele>
        <time>2019-08-18T07:47:21.000Z</time>
      </trkpt>
      <trkpt lat="43.15946" lon="2.33152">
        <ele>206.9</ele>
        <time>2019-08-18T07:47:22.000Z</time>
      </trkpt>
      <trkpt lat="43.15945" lon="2.33149">
        <ele>206.8</ele>
        <time>2019-08-18T07:47:23.000Z</time>
      </trkpt>
      <trkpt lat="43.15945" lon="2.33145">
        <ele>206.7</ele>
        <time>2019-08-18T07:47:24.000Z</time>
      </trkpt>
      <trkpt lat="43.15945" lon="2.33141">
        <ele>206.6</ele>
        <time>2019-08-18T07:47:25.000Z</time>
      </trkpt>
      <trkpt lat="43.15945" lon="2.33137">
        <ele>206.5</ele>
        <time>2019-08-18T07:47:26.000Z</time>
      </trkpt>
      <trkpt lat="43.15945" lon="2.33134">
        <ele>206.4</ele>
        <time>2019-08-18T07:47:27.000Z</time>
      </trkpt>
      <trkpt lat="43.15945" lon="2.3313">
        <ele>206.3</ele>
        <time>2019-08-18T07:47:28.000Z</time>
      </trkpt>
      <trkpt lat="43.15945" lon="2.33126">
        <ele>206.2</ele>
        <time>2019-08-18T07:47:29.000Z</time>
      </trkpt>
      <trkpt lat="43.15945" lon="2.33122">
        <ele>206.1</ele>
        <time>2019-08-18T07:47:30.000Z</time>
      </trkpt>
      <trkpt lat="43.15945" lon="2.33119">
        <ele>206</ele>
        <time>2019-08-18T07:47:31.000Z</time>
      </trkpt>
      <trkpt lat="43.15945" lon="2.33115">
        <ele>205.9</ele>
        <time>2019-08-18T07:47:32.000Z</time>
      </trkpt>
      <trkpt lat="43.15945" lon="2.33111">
        <ele>205.8</ele>
        <time>2019-08-18T07:47:33.000Z</time>
      </trkpt>
      <trkpt lat="43.15945" lon="2.33108">
        <ele>205.7</ele>
        <time>2019-08-18T07:47:34.000Z</time>
      </trkpt>
      <trkpt lat="43.15945" lon="2.33104">
        <ele>205.6</ele>
        <time>2019-08-18T07:47:35.000Z</time>
      </trkpt>
      <trkpt lat="43.15945" lon="2.331">
        <ele>205.5</ele>
        <time>2019-08-18T07:47:36.000Z</time>
      </trkpt>
      <trkpt lat="43.15945" lon="2.33097">
        <ele>205.4</ele>
        <time>2019-08-18T07:47:37.000Z</time>
      </trkpt>
      <trkpt lat="43.15945" lon="2.33093">
        <ele>205.3</ele>
        <time>2019-08-18T07:47:38.000Z</time>
      </trkpt>
      <trkpt lat="43.15946" lon="2.3309">
        <ele>205.2</ele>
        <time>2019-08-18T07:47:39.000Z</time>
      </trkpt>
      <trkpt lat="43.15946" lon="2.33086">
        <ele>205.1</ele>
        <time>2019-08-18T07:47:40.000Z</time>
      </trkpt>
      <trkpt lat="43.15946" lon="2.33082">
        <ele>205</ele>
        <time>2019-08-18T07:47:41.000Z</time>
      </trkpt>
      <trkpt lat="43.15946" lon="2.33078">
        <ele>204.9</ele>
        <time>2019-08-18T07:47:42.000Z</time>
      </trkpt>
      <trkpt lat="43.15947" lon="2.33074">
        <ele>204.9</ele>
        <time>2019-08-18T07:47:43.000Z</time>
      </trkpt>
      <trkpt lat="43.15947" lon="2.33071">
        <ele>204.8</ele>
        <time>2019-08-18T07:47:44.000Z</time>
      </trkpt>
      <trkpt lat="43.15948" lon="2.33067">
        <ele>204.8</ele>
        <time>2019-08-18T07:47:45.000Z</time>
      </trkpt>
      <trkpt lat="43.15948" lon="2.33063">
        <ele>204.8</ele>
        <time>2019-08-18T07:47:46.000Z</time>
      </trkpt>
      <trkpt lat="43.15949" lon="2.33059">
        <ele>204.7</ele>
        <time>2019-08-18T07:47:47.000Z</time>
      </trkpt>
      <trkpt lat="43.1595" lon="2.33056">
        <ele>204.7</ele>
        <time>2019-08-18T07:47:48.000Z</time>
      </trkpt>
      <trkpt lat="43.15951" lon="2.33052">
        <ele>204.7</ele>
        <time>2019-08-18T07:47:49.000Z</time>
      </trkpt>
      <trkpt lat="43.15951" lon="2.33049">
        <ele>204.7</ele>
        <time>2019-08-18T07:47:50.000Z</time>
      </trkpt>
      <trkpt lat="43.15952" lon="2.33046">
        <ele>204.7</ele>
        <time>2019-08-18T07:47:51.000Z</time>
      </trkpt>
      <trkpt lat="43.15953" lon="2.33043">
        <ele>204.8</ele>
        <time>2019-08-18T07:47:52.000Z</time>
      </trkpt>
      <trkpt lat="43.15954" lon="2.3304">
        <ele>204.8</ele>
        <time>2019-08-18T07:47:53.000Z</time>
      </trkpt>
      <trkpt lat="43.15955" lon="2.33037">
        <ele>204.8</ele>
        <time>2019-08-18T07:47:54.000Z</time>
      </trkpt>
      <trkpt lat="43.15956" lon="2.33034">
        <ele>204.9</ele>
        <time>2019-08-18T07:47:55.000Z</time>
      </trkpt>
      <trkpt lat="43.15956" lon="2.3303">
        <ele>204.9</ele>
        <time>2019-08-18T07:47:56.000Z</time>
      </trkpt>
      <trkpt lat="43.15957" lon="2.33027">
        <ele>204.9</ele>
        <time>2019-08-18T07:47:57.000Z</time>
      </trkpt>
      <trkpt lat="43.15957" lon="2.33024">
        <ele>204.9</ele>
        <time>2019-08-18T07:47:58.000Z</time>
      </trkpt>
      <trkpt lat="43.15957" lon="2.3302">
        <ele>204.9</ele>
        <time>2019-08-18T07:47:59.000Z</time>
      </trkpt>
      <trkpt lat="43.15957" lon="2.33017">
        <ele>204.9</ele>
        <time>2019-08-18T07:48:00.000Z</time>
      </trkpt>
      <trkpt lat="43.15957" lon="2.33013">
        <ele>204.9</ele>
        <time>2019-08-18T07:48:01.000Z</time>
      </trkpt>
      <trkpt lat="43.15957" lon="2.3301">
        <ele>204.9</ele>
        <time>2019-08-18T07:48:02.000Z</time>
      </trkpt>
      <trkpt lat="43.15957" lon="2.33006">
        <ele>204.9</ele>
        <time>2019-08-18T07:48:03.000Z</time>
      </trkpt>
      <trkpt lat="43.15957" lon="2.33003">
        <ele>204.9</ele>
        <time>2019-08-18T07:48:04.000Z</time>
      </trkpt>
      <trkpt lat="43.15957" lon="2.33">
        <ele>204.9</ele>
        <time>2019-08-18T07:48:05.000Z</time>
      </trkpt>
      <trkpt lat="43.15958" lon="2.32997">
        <ele>204.8</ele>
        <time>2019-08-18T07:48:06.000Z</time>
      </trkpt>
      <trkpt lat="43.15958" lon="2.32993">
        <ele>204.8</ele>
        <time>2019-08-18T07:48:07.000Z</time>
      </trkpt>
      <trkpt lat="43.15958" lon="2.3299">
        <ele>204.7</ele>
        <time>2019-08-18T07:48:08.000Z</time>
      </trkpt>
      <trkpt lat="43.15958" lon="2.32987">
        <ele>204.7</ele>
        <time>2019-08-18T07:48:09.000Z</time>
      </trkpt>
      <trkpt lat="43.15958" lon="2.32984">
        <ele>204.6</ele>
        <time>2019-08-18T07:48:10.000Z</time>
      </trkpt>
      <trkpt lat="43.15958" lon="2.3298">
        <ele>204.5</ele>
        <time>2019-08-18T07:48:11.000Z</time>
      </trkpt>
      <trkpt lat="43.15958" lon="2.32977">
        <ele>204.4</ele>
        <time>2019-08-18T07:48:12.000Z</time>
      </trkpt>
      <trkpt lat="43.15958" lon="2.32973">
        <ele>204.3</ele>
        <time>2019-08-18T07:48:13.000Z</time>
      </trkpt>
      <trkpt lat="43.15958" lon="2.32969">
        <ele>204.2</ele>
        <time>2019-08-18T07:48:14.000Z</time>
      </trkpt>
      <trkpt lat="43.15957" lon="2.32966">
        <ele>204</ele>
        <time>2019-08-18T07:48:15.000Z</time>
      </trkpt>
      <trkpt lat="43.15957" lon="2.32962">
        <ele>203.9</ele>
        <time>2019-08-18T07:48:16.000Z</time>
      </trkpt>
      <trkpt lat="43.15957" lon="2.32958">
        <ele>203.8</ele>
        <time>2019-08-18T07:48:17.000Z</time>
      </trkpt>
      <trkpt lat="43.15957" lon="2.32954">
        <ele>203.7</ele>
        <time>2019-08-18T07:48:18.000Z</time>
      </trkpt>
      <trkpt lat="43.15957" lon="2.32951">
        <ele>203.7</ele>
        <time>2019-08-18T07:48:19.000Z</time>
      </trkpt>
      <trkpt lat="43.15958" lon="2.32947">
        <ele>203.6</ele>
        <time>2019-08-18T07:48:20.000Z</time>
      </trkpt>
      <trkpt lat="43.15958" lon="2.32943">
        <ele>203.6</ele>
        <time>2019-08-18T07:48:21.000Z</time>
      </trkpt>
      <trkpt lat="43.15958" lon="2.3294">
        <ele>203.5</ele>
        <time>2019-08-18T07:48:22.000Z</time>
      </trkpt>
      <trkpt lat="43.15959" lon="2.32936">
        <ele>203.5</ele>
        <time>2019-08-18T07:48:23.000Z</time>
      </trkpt>
      <trkpt lat="43.15959" lon="2.32932">
        <ele>203.5</ele>
        <time>2019-08-18T07:48:24.000Z</time>
      </trkpt>
      <trkpt lat="43.1596" lon="2.32929">
        <ele>203.6</ele>
        <time>2019-08-18T07:48:25.000Z</time>
      </trkpt>
      <trkpt lat="43.15961" lon="2.32925">
        <ele>203.6</ele>
        <time>2019-08-18T07:48:26.000Z</time>
      </trkpt>
      <trkpt lat="43.15961" lon="2.32922">
        <ele>203.7</ele>
        <time>2019-08-18T07:48:27.000Z</time>
      </trkpt>
      <trkpt lat="43.15962" lon="2.32918">
        <ele>203.8</ele>
        <time>2019-08-18T07:48:28.000Z</time>
      </trkpt>
      <trkpt lat="43.15963" lon="2.32915">
        <ele>203.8</ele>
        <time>2019-08-18T07:48:29.000Z</time>
      </trkpt>
      <trkpt lat="43.15964" lon="2.32912">
        <ele>203.9</ele>
        <time>2019-08-18T07:48:30.000Z</time>
      </trkpt>
      <trkpt lat="43.15965" lon="2.32908">
        <ele>203.9</ele>
        <time>2019-08-18T07:48:31.000Z</time>
      </trkpt>
      <trkpt lat="43.15966" lon="2.32905">
        <ele>204</ele>
        <time>2019-08-18T07:48:32.000Z</time>
      </trkpt>
      <trkpt lat="43.15967" lon="2.32902">
        <ele>204.1</ele>
        <time>2019-08-18T07:48:33.000Z</time>
      </trkpt>
      <trkpt lat="43.15968" lon="2.32899">
        <ele>204.2</ele>
        <time>2019-08-18T07:48:34.000Z</time>
      </trkpt>
      <trkpt lat="43.15969" lon="2.32895">
        <ele>204.3</ele>
        <time>2019-08-18T07:48:35.000Z</time>
      </trkpt>
      <trkpt lat="43.15971" lon="2.32892">
        <ele>204.4</ele>
        <time>2019-08-18T07:48:36.000Z</time>
      </trkpt>
      <trkpt lat="43.15972" lon="2.32889">
        <ele>204.6</ele>
        <time>2019-08-18T07:48:37.000Z</time>
      </trkpt>
      <trkpt lat="43.15973" lon="2.32886">
        <ele>204.8</ele>
        <time>2019-08-18T07:48:38.000Z</time>
      </trkpt>
      <trkpt lat="43.15974" lon="2.32883">
        <ele>204.9</ele>
        <time>2019-08-18T07:48:39.000Z</time>
      </trkpt>
      <trkpt lat="43.15976" lon="2.3288">
        <ele>205.1</ele>
        <time>2019-08-18T07:48:40.000Z</time>
      </trkpt>
      <trkpt lat="43.15977" lon="2.32877">
        <ele>205.3</ele>
        <time>2019-08-18T07:48:41.000Z</time>
      </trkpt>
      <trkpt lat="43.15978" lon="2.32874">
        <ele>205.5</ele>
        <time>2019-08-18T07:48:42.000Z</time>
      </trkpt>
      <trkpt lat="43.1598" lon="2.32871">
        <ele>205.7</ele>
        <time>2019-08-18T07:48:43.000Z</time>
      </trkpt>
      <trkpt lat="43.15981" lon="2.32868">
        <ele>205.9</ele>
        <time>2019-08-18T07:48:44.000Z</time>
      </trkpt>
      <trkpt lat="43.15982" lon="2.32865">
        <ele>206.1</ele>
        <time>2019-08-18T07:48:45.000Z</time>
      </trkpt>
      <trkpt lat="43.15983" lon="2.32862">
        <ele>206.3</ele>
        <time>2019-08-18T07:48:46.000Z</time>
      </trkpt>
      <trkpt lat="43.15985" lon="2.32859">
        <ele>206.6</ele>
        <time>2019-08-18T07:48:47.000Z</time>
      </trkpt>
      <trkpt lat="43.15986" lon="2.32856">
        <ele>206.8</ele>
        <time>2019-08-18T07:48:48.000Z</time>
      </trkpt>
      <trkpt lat="43.15987" lon="2.32853">
        <ele>207</ele>
        <time>2019-08-18T07:48:49.000Z</time>
      </trkpt>
      <trkpt lat="43.15988" lon="2.3285">
        <ele>207.3</ele>
        <time>2019-08-18T07:48:50.000Z</time>
      </trkpt>
      <trkpt lat="43.15989" lon="2.32847">
        <ele>207.5</ele>
        <time>2019-08-18T07:48:51.000Z</time>
      </trkpt>
      <trkpt lat="43.1599" lon="2.32844">
        <ele>207.7</ele>
        <time>2019-08-18T07:48:52.000Z</time>
      </trkpt>
      <trkpt lat="43.15991" lon="2.3284">
        <ele>207.9</ele>
        <time>2019-08-18T07:48:53.000Z</time>
      </trkpt>
      <trkpt lat="43.15992" lon="2.32837">
        <ele>208.1</ele>
        <time>2019-08-18T07:48:54.000Z</time>
      </trkpt>
      <trkpt lat="43.15993" lon="2.32834">
        <ele>208.2</ele>
        <time>2019-08-18T07:48:55.000Z</time>
      </trkpt>
      <trkpt lat="43.15994" lon="2.3283">
        <ele>208.3</ele>
        <time>2019-08-18T07:48:56.000Z</time>
      </trkpt>
      <trkpt lat="43.15995" lon="2.32827">
        <ele>208.3</ele>
        <time>2019-08-18T07:48:57.000Z</time>
      </trkpt>
      <trkpt lat="43.15996" lon="2.32823">
        <ele>208.4</ele>
        <time>2019-08-18T07:48:58.000Z</time>
      </trkpt>
      <trkpt lat="43.15996" lon="2.32819">
        <ele>208.3</ele>
        <time>2019-08-18T07:48:59.000Z</time>
      </trkpt>
      <trkpt lat="43.15997" lon="2.32815">
        <ele>208.3</ele>
        <time>2019-08-18T07:49:00.000Z</time>
      </trkpt>
      <trkpt lat="43.15997" lon="2.32811">
        <ele>208.2</ele>
        <time>2019-08-18T07:49:01.000Z</time>
      </trkpt>
      <trkpt lat="43.15998" lon="2.32807">
        <ele>208.1</ele>
        <time>2019-08-18T07:49:02.000Z</time>
      </trkpt>
      <trkpt lat="43.15998" lon="2.32803">
        <ele>208</ele>
        <time>2019-08-18T07:49:03.000Z</time>
      </trkpt>
      <trkpt lat="43.15998" lon="2.32799">
        <ele>207.9</ele>
        <time>2019-08-18T07:49:04.000Z</time>
      </trkpt>
      <trkpt lat="43.15999" lon="2.32795">
        <ele>207.8</ele>
        <time>2019-08-18T07:49:05.000Z</time>
      </trkpt>
      <trkpt lat="43.15999" lon="2.32791">
        <ele>207.7</ele>
        <time>2019-08-18T07:49:06.000Z</time>
      </trkpt>
      <trkpt lat="43.15999" lon="2.32787">
        <ele>207.6</ele>
        <time>2019-08-18T07:49:07.000Z</time>
      </trkpt>
      <trkpt lat="43.16" lon="2.32783">
        <ele>207.5</ele>
        <time>2019-08-18T07:49:08.000Z</time>
      </trkpt>
      <trkpt lat="43.16" lon="2.32779">
        <ele>207.4</ele>
        <time>2019-08-18T07:49:09.000Z</time>
      </trkpt>
      <trkpt lat="43.16001" lon="2.32775">
        <ele>207.1</ele>
        <time>2019-08-18T07:49:10.000Z</time>
      </trkpt>
      <trkpt lat="43.16002" lon="2.32771">
        <ele>206.9</ele>
        <time>2019-08-18T07:49:11.000Z</time>
      </trkpt>
      <trkpt lat="43.16003" lon="2.32768">
        <ele>206.7</ele>
        <time>2019-08-18T07:49:12.000Z</time>
      </trkpt>
      <trkpt lat="43.16003" lon="2.32765">
        <ele>206.4</ele>
        <time>2019-08-18T07:49:13.000Z</time>
      </trkpt>
      <trkpt lat="43.16005" lon="2.32761">
        <ele>206.2</ele>
        <time>2019-08-18T07:49:14.000Z</time>
      </trkpt>
      <trkpt lat="43.16006" lon="2.32759">
        <ele>206</ele>
        <time>2019-08-18T07:49:15.000Z</time>
      </trkpt>
      <trkpt lat="43.16007" lon="2.32756">
        <ele>205.8</ele>
        <time>2019-08-18T07:49:16.000Z</time>
      </trkpt>
      <trkpt lat="43.16008" lon="2.32753">
        <ele>205.6</ele>
        <time>2019-08-18T07:49:17.000Z</time>
      </trkpt>
      <trkpt lat="43.16009" lon="2.3275">
        <ele>205.4</ele>
        <time>2019-08-18T07:49:18.000Z</time>
      </trkpt>
      <trkpt lat="43.1601" lon="2.32748">
        <ele>205.2</ele>
        <time>2019-08-18T07:49:19.000Z</time>
      </trkpt>
      <trkpt lat="43.16011" lon="2.32746">
        <ele>205</ele>
        <time>2019-08-18T07:49:20.000Z</time>
      </trkpt>
      <trkpt lat="43.16012" lon="2.32744">
        <ele>204.9</ele>
        <time>2019-08-18T07:49:21.000Z</time>
      </trkpt>
      <trkpt lat="43.16013" lon="2.32742">
        <ele>204.7</ele>
        <time>2019-08-18T07:49:22.000Z</time>
      </trkpt>
      <trkpt lat="43.16014" lon="2.3274">
        <ele>204.5</ele>
        <time>2019-08-18T07:49:23.000Z</time>
      </trkpt>
      <trkpt lat="43.16016" lon="2.32738">
        <ele>204.3</ele>
        <time>2019-08-18T07:49:24.000Z</time>
      </trkpt>
      <trkpt lat="43.16018" lon="2.32736">
        <ele>204.2</ele>
        <time>2019-08-18T07:49:25.000Z</time>
      </trkpt>
      <trkpt lat="43.1602" lon="2.32734">
        <ele>203.9</ele>
        <time>2019-08-18T07:49:26.000Z</time>
      </trkpt>
      <trkpt lat="43.16022" lon="2.32732">
        <ele>203.7</ele>
        <time>2019-08-18T07:49:27.000Z</time>
      </trkpt>
      <trkpt lat="43.16024" lon="2.32729">
        <ele>203.6</ele>
        <time>2019-08-18T07:49:28.000Z</time>
      </trkpt>
      <trkpt lat="43.16025" lon="2.32727">
        <ele>203.4</ele>
        <time>2019-08-18T07:49:29.000Z</time>
      </trkpt>
      <trkpt lat="43.16027" lon="2.32724">
        <ele>203.2</ele>
        <time>2019-08-18T07:49:30.000Z</time>
      </trkpt>
      <trkpt lat="43.16028" lon="2.32721">
        <ele>203.1</ele>
        <time>2019-08-18T07:49:31.000Z</time>
      </trkpt>
      <trkpt lat="43.16028" lon="2.32717">
        <ele>202.9</ele>
        <time>2019-08-18T07:49:32.000Z</time>
      </trkpt>
      <trkpt lat="43.16029" lon="2.32714">
        <ele>202.8</ele>
        <time>2019-08-18T07:49:33.000Z</time>
      </trkpt>
      <trkpt lat="43.16029" lon="2.3271">
        <ele>202.7</ele>
        <time>2019-08-18T07:49:34.000Z</time>
      </trkpt>
      <trkpt lat="43.16029" lon="2.32706">
        <ele>202.6</ele>
        <time>2019-08-18T07:49:35.000Z</time>
      </trkpt>
      <trkpt lat="43.16029" lon="2.32702">
        <ele>202.4</ele>
        <time>2019-08-18T07:49:36.000Z</time>
      </trkpt>
      <trkpt lat="43.16029" lon="2.32699">
        <ele>202.3</ele>
        <time>2019-08-18T07:49:37.000Z</time>
      </trkpt>
      <trkpt lat="43.16029" lon="2.32695">
        <ele>202.2</ele>
        <time>2019-08-18T07:49:38.000Z</time>
      </trkpt>
      <trkpt lat="43.1603" lon="2.32691">
        <ele>202.1</ele>
        <time>2019-08-18T07:49:39.000Z</time>
      </trkpt>
      <trkpt lat="43.1603" lon="2.32688">
        <ele>202</ele>
        <time>2019-08-18T07:49:40.000Z</time>
      </trkpt>
      <trkpt lat="43.16031" lon="2.32685">
        <ele>201.9</ele>
        <time>2019-08-18T07:49:41.000Z</time>
      </trkpt>
      <trkpt lat="43.16032" lon="2.32682">
        <ele>201.8</ele>
        <time>2019-08-18T07:49:42.000Z</time>
      </trkpt>
      <trkpt lat="43.16033" lon="2.3268">
        <ele>201.7</ele>
        <time>2019-08-18T07:49:43.000Z</time>
      </trkpt>
      <trkpt lat="43.16034" lon="2.32678">
        <ele>201.7</ele>
        <time>2019-08-18T07:49:44.000Z</time>
      </trkpt>
      <trkpt lat="43.16035" lon="2.32676">
        <ele>201.6</ele>
        <time>2019-08-18T07:49:45.000Z</time>
      </trkpt>
      <trkpt lat="43.16037" lon="2.32674">
        <ele>201.6</ele>
        <time>2019-08-18T07:49:46.000Z</time>
      </trkpt>
      <trkpt lat="43.16038" lon="2.32673">
        <ele>201.6</ele>
        <time>2019-08-18T07:49:47.000Z</time>
      </trkpt>
      <trkpt lat="43.1604" lon="2.32671">
        <ele>201.6</ele>
        <time>2019-08-18T07:49:48.000Z</time>
      </trkpt>
      <trkpt lat="43.16042" lon="2.3267">
        <ele>201.6</ele>
        <time>2019-08-18T07:49:49.000Z</time>
      </trkpt>
      <trkpt lat="43.16043" lon="2.32668">
        <ele>201.5</ele>
        <time>2019-08-18T07:49:50.000Z</time>
      </trkpt>
      <trkpt lat="43.16045" lon="2.32667">
        <ele>201.5</ele>
        <time>2019-08-18T07:49:51.000Z</time>
      </trkpt>
      <trkpt lat="43.16046" lon="2.32665">
        <ele>201.5</ele>
        <time>2019-08-18T07:49:52.000Z</time>
      </trkpt>
      <trkpt lat="43.16048" lon="2.32664">
        <ele>201.5</ele>
        <time>2019-08-18T07:49:53.000Z</time>
      </trkpt>
      <trkpt lat="43.1605" lon="2.32662">
        <ele>201.5</ele>
        <time>2019-08-18T07:49:54.000Z</time>
      </trkpt>
      <trkpt lat="43.16051" lon="2.32661">
        <ele>201.5</ele>
        <time>2019-08-18T07:49:55.000Z</time>
      </trkpt>
      <trkpt lat="43.16053" lon="2.3266">
        <ele>201.5</ele>
        <time>2019-08-18T07:49:56.000Z</time>
      </trkpt>
      <trkpt lat="43.16055" lon="2.32659">
        <ele>201.5</ele>
        <time>2019-08-18T07:49:57.000Z</time>
      </trkpt>
      <trkpt lat="43.16057" lon="2.32658">
        <ele>201.6</ele>
        <time>2019-08-18T07:49:58.000Z</time>
      </trkpt>
      <trkpt lat="43.16059" lon="2.32658">
        <ele>201.6</ele>
        <time>2019-08-18T07:49:59.000Z</time>
      </trkpt>
      <trkpt lat="43.16061" lon="2.32658">
        <ele>201.6</ele>
        <time>2019-08-18T07:50:00.000Z</time>
      </trkpt>
      <trkpt lat="43.16063" lon="2.32658">
        <ele>201.7</ele>
        <time>2019-08-18T07:50:01.000Z</time>
      </trkpt>
      <trkpt lat="43.16065" lon="2.32658">
        <ele>201.7</ele>
        <time>2019-08-18T07:50:02.000Z</time>
      </trkpt>
      <trkpt lat="43.16067" lon="2.32659">
        <ele>201.7</ele>
        <time>2019-08-18T07:50:03.000Z</time>
      </trkpt>
      <trkpt lat="43.1607" lon="2.32661">
        <ele>201.8</ele>
        <time>2019-08-18T07:50:04.000Z</time>
      </trkpt>
      <trkpt lat="43.16072" lon="2.32663">
        <ele>201.8</ele>
        <time>2019-08-18T07:50:05.000Z</time>
      </trkpt>
      <trkpt lat="43.16074" lon="2.32665">
        <ele>201.9</ele>
        <time>2019-08-18T07:50:06.000Z</time>
      </trkpt>
      <trkpt lat="43.16077" lon="2.32667">
        <ele>201.9</ele>
        <time>2019-08-18T07:50:07.000Z</time>
      </trkpt>
      <trkpt lat="43.16079" lon="2.32669">
        <ele>201.9</ele>
        <time>2019-08-18T07:50:08.000Z</time>
      </trkpt>
      <trkpt lat="43.16081" lon="2.32671">
        <ele>201.9</ele>
        <time>2019-08-18T07:50:09.000Z</time>
      </trkpt>
      <trkpt lat="43.16083" lon="2.32674">
        <ele>201.8</ele>
        <time>2019-08-18T07:50:10.000Z</time>
      </trkpt>
      <trkpt lat="43.16086" lon="2.32676">
        <ele>201.5</ele>
        <time>2019-08-18T07:50:11.000Z</time>
      </trkpt>
      <trkpt lat="43.16088" lon="2.32678">
        <ele>201.2</ele>
        <time>2019-08-18T07:50:12.000Z</time>
      </trkpt>
      <trkpt lat="43.1609" lon="2.3268">
        <ele>201</ele>
        <time>2019-08-18T07:50:13.000Z</time>
      </trkpt>
      <trkpt lat="43.16092" lon="2.32682">
        <ele>200.7</ele>
        <time>2019-08-18T07:50:14.000Z</time>
      </trkpt>
      <trkpt lat="43.16094" lon="2.32684">
        <ele>200.4</ele>
        <time>2019-08-18T07:50:15.000Z</time>
      </trkpt>
      <trkpt lat="43.16096" lon="2.32685">
        <ele>200.1</ele>
        <time>2019-08-18T07:50:16.000Z</time>
      </trkpt>
      <trkpt lat="43.16097" lon="2.32687">
        <ele>199.9</ele>
        <time>2019-08-18T07:50:17.000Z</time>
      </trkpt>
      <trkpt lat="43.16099" lon="2.32688">
        <ele>199.7</ele>
        <time>2019-08-18T07:50:18.000Z</time>
      </trkpt>
      <trkpt lat="43.16101" lon="2.32688">
        <ele>199.4</ele>
        <time>2019-08-18T07:50:19.000Z</time>
      </trkpt>
      <trkpt lat="43.16103" lon="2.32689">
        <ele>199.2</ele>
        <time>2019-08-18T07:50:20.000Z</time>
      </trkpt>
      <trkpt lat="43.16104" lon="2.32689">
        <ele>199</ele>
        <time>2019-08-18T07:50:21.000Z</time>
      </trkpt>
      <trkpt lat="43.16106" lon="2.3269">
        <ele>198.8</ele>
        <time>2019-08-18T07:50:22.000Z</time>
      </trkpt>
      <trkpt lat="43.16108" lon="2.3269">
        <ele>198.6</ele>
        <time>2019-08-18T07:50:23.000Z</time>
      </trkpt>
      <trkpt lat="43.1611" lon="2.32691">
        <ele>198.3</ele>
        <time>2019-08-18T07:50:24.000Z</time>
      </trkpt>
      <trkpt lat="43.16111" lon="2.32691">
        <ele>198.1</ele>
        <time>2019-08-18T07:50:25.000Z</time>
      </trkpt>
      <trkpt lat="43.16113" lon="2.32692">
        <ele>197.8</ele>
        <time>2019-08-18T07:50:26.000Z</time>
      </trkpt>
      <trkpt lat="43.16115" lon="2.32693">
        <ele>197.6</ele>
        <time>2019-08-18T07:50:27.000Z</time>
      </trkpt>
      <trkpt lat="43.16117" lon="2.32694">
        <ele>197.3</ele>
        <time>2019-08-18T07:50:28.000Z</time>
      </trkpt>
      <trkpt lat="43.16119" lon="2.32694">
        <ele>197.1</ele>
        <time>2019-08-18T07:50:29.000Z</time>
      </trkpt>
      <trkpt lat="43.16121" lon="2.32695">
        <ele>196.8</ele>
        <time>2019-08-18T07:50:30.000Z</time>
      </trkpt>
      <trkpt lat="43.16123" lon="2.32696">
        <ele>196.5</ele>
        <time>2019-08-18T07:50:31.000Z</time>
      </trkpt>
      <trkpt lat="43.16125" lon="2.32696">
        <ele>196.3</ele>
        <time>2019-08-18T07:50:32.000Z</time>
      </trkpt>
      <trkpt lat="43.16127" lon="2.32697">
        <ele>196</ele>
        <time>2019-08-18T07:50:33.000Z</time>
      </trkpt>
      <trkpt lat="43.16129" lon="2.32697">
        <ele>195.8</ele>
        <time>2019-08-18T07:50:34.000Z</time>
      </trkpt>
      <trkpt lat="43.16131" lon="2.32697">
        <ele>195.5</ele>
        <time>2019-08-18T07:50:35.000Z</time>
      </trkpt>
      <trkpt lat="43.16132" lon="2.32697">
        <ele>195.3</ele>
        <time>2019-08-18T07:50:36.000Z</time>
      </trkpt>
      <trkpt lat="43.16134" lon="2.32697">
        <ele>195.2</ele>
        <time>2019-08-18T07:50:37.000Z</time>
      </trkpt>
      <trkpt lat="43.16135" lon="2.32697">
        <ele>195</ele>
        <time>2019-08-18T07:50:38.000Z</time>
      </trkpt>
      <trkpt lat="43.16136" lon="2.32697">
        <ele>194.8</ele>
        <time>2019-08-18T07:50:39.000Z</time>
      </trkpt>
      <trkpt lat="43.16137" lon="2.32697">
        <ele>194.7</ele>
        <time>2019-08-18T07:50:40.000Z</time>
      </trkpt>
      <trkpt lat="43.16138" lon="2.32697">
        <ele>194.6</ele>
        <time>2019-08-18T07:50:41.000Z</time>
      </trkpt>
      <trkpt lat="43.1614" lon="2.32696">
        <ele>194.5</ele>
        <time>2019-08-18T07:50:42.000Z</time>
      </trkpt>
      <trkpt lat="43.16141" lon="2.32696">
        <ele>194.4</ele>
        <time>2019-08-18T07:50:43.000Z</time>
      </trkpt>
      <trkpt lat="43.16142" lon="2.32696">
        <ele>194.2</ele>
        <time>2019-08-18T07:50:44.000Z</time>
      </trkpt>
      <trkpt lat="43.16144" lon="2.32695">
        <ele>194</ele>
        <time>2019-08-18T07:50:45.000Z</time>
      </trkpt>
      <trkpt lat="43.16146" lon="2.32695">
        <ele>193.7</ele>
        <time>2019-08-18T07:50:46.000Z</time>
      </trkpt>
      <trkpt lat="43.16149" lon="2.32695">
        <ele>193.5</ele>
        <time>2019-08-18T07:50:47.000Z</time>
      </trkpt>
      <trkpt lat="43.16152" lon="2.32694">
        <ele>193.2</ele>
        <time>2019-08-18T07:50:48.000Z</time>
      </trkpt>
      <trkpt lat="43.16154" lon="2.32694">
        <ele>192.8</ele>
        <time>2019-08-18T07:50:49.000Z</time>
      </trkpt>
      <trkpt lat="43.16158" lon="2.32694">
        <ele>192.5</ele>
        <time>2019-08-18T07:50:50.000Z</time>
      </trkpt>
      <trkpt lat="43.16161" lon="2.32694">
        <ele>192.1</ele>
        <time>2019-08-18T07:50:51.000Z</time>
      </trkpt>
      <trkpt lat="43.16164" lon="2.32694">
        <ele>191.7</ele>
        <time>2019-08-18T07:50:52.000Z</time>
      </trkpt>
      <trkpt lat="43.16167" lon="2.32694">
        <ele>191.3</ele>
        <time>2019-08-18T07:50:53.000Z</time>
      </trkpt>
      <trkpt lat="43.1617" lon="2.32695">
        <ele>191</ele>
        <time>2019-08-18T07:50:54.000Z</time>
      </trkpt>
      <trkpt lat="43.16173" lon="2.32695">
        <ele>190.7</ele>
        <time>2019-08-18T07:50:55.000Z</time>
      </trkpt>
      <trkpt lat="43.16175" lon="2.32696">
        <ele>190.5</ele>
        <time>2019-08-18T07:50:56.000Z</time>
      </trkpt>
      <trkpt lat="43.16178" lon="2.32697">
        <ele>190.1</ele>
        <time>2019-08-18T07:50:57.000Z</time>
      </trkpt>
      <trkpt lat="43.16181" lon="2.32698">
        <ele>189.8</ele>
        <time>2019-08-18T07:50:58.000Z</time>
      </trkpt>
      <trkpt lat="43.16184" lon="2.327">
        <ele>189.5</ele>
        <time>2019-08-18T07:50:59.000Z</time>
      </trkpt>
      <trkpt lat="43.16186" lon="2.32702">
        <ele>189.1</ele>
        <time>2019-08-18T07:51:00.000Z</time>
      </trkpt>
      <trkpt lat="43.16189" lon="2.32705">
        <ele>188.7</ele>
        <time>2019-08-18T07:51:01.000Z</time>
      </trkpt>
      <trkpt lat="43.16191" lon="2.32707">
        <ele>188.4</ele>
        <time>2019-08-18T07:51:02.000Z</time>
      </trkpt>
      <trkpt lat="43.16193" lon="2.3271">
        <ele>188</ele>
        <time>2019-08-18T07:51:03.000Z</time>
      </trkpt>
      <trkpt lat="43.16196" lon="2.32713">
        <ele>187.6</ele>
        <time>2019-08-18T07:51:04.000Z</time>
      </trkpt>
      <trkpt lat="43.16198" lon="2.32717">
        <ele>187.2</ele>
        <time>2019-08-18T07:51:05.000Z</time>
      </trkpt>
      <trkpt lat="43.162" lon="2.3272">
        <ele>186.9</ele>
        <time>2019-08-18T07:51:06.000Z</time>
      </trkpt>
      <trkpt lat="43.16202" lon="2.32723">
        <ele>186.5</ele>
        <time>2019-08-18T07:51:07.000Z</time>
      </trkpt>
      <trkpt lat="43.16203" lon="2.32727">
        <ele>186.2</ele>
        <time>2019-08-18T07:51:08.000Z</time>
      </trkpt>
      <trkpt lat="43.16205" lon="2.3273">
        <ele>185.9</ele>
        <time>2019-08-18T07:51:09.000Z</time>
      </trkpt>
      <trkpt lat="43.16206" lon="2.32733">
        <ele>185.6</ele>
        <time>2019-08-18T07:51:10.000Z</time>
      </trkpt>
      <trkpt lat="43.16208" lon="2.32736">
        <ele>185.3</ele>
        <time>2019-08-18T07:51:11.000Z</time>
      </trkpt>
      <trkpt lat="43.16209" lon="2.3274">
        <ele>185</ele>
        <time>2019-08-18T07:51:12.000Z</time>
      </trkpt>
      <trkpt lat="43.16211" lon="2.32743">
        <ele>184.7</ele>
        <time>2019-08-18T07:51:13.000Z</time>
      </trkpt>
      <trkpt lat="43.16213" lon="2.32746">
        <ele>184.3</ele>
        <time>2019-08-18T07:51:14.000Z</time>
      </trkpt>
      <trkpt lat="43.16214" lon="2.3275">
        <ele>184</ele>
        <time>2019-08-18T07:51:15.000Z</time>
      </trkpt>
      <trkpt lat="43.16216" lon="2.32753">
        <ele>183.7</ele>
        <time>2019-08-18T07:51:16.000Z</time>
      </trkpt>
      <trkpt lat="43.16217" lon="2.32756">
        <ele>183.4</ele>
        <time>2019-08-18T07:51:17.000Z</time>
      </trkpt>
      <trkpt lat="43.16219" lon="2.32759">
        <ele>183.2</ele>
        <time>2019-08-18T07:51:18.000Z</time>
      </trkpt>
      <trkpt lat="43.1622" lon="2.32762">
        <ele>182.9</ele>
        <time>2019-08-18T07:51:19.000Z</time>
      </trkpt>
      <trkpt lat="43.16222" lon="2.32765">
        <ele>182.6</ele>
        <time>2019-08-18T07:51:20.000Z</time>
      </trkpt>
      <trkpt lat="43.16224" lon="2.32768">
        <ele>182.3</ele>
        <time>2019-08-18T07:51:21.000Z</time>
      </trkpt>
      <trkpt lat="43.16225" lon="2.32771">
        <ele>182</ele>
        <time>2019-08-18T07:51:22.000Z</time>
      </trkpt>
      <trkpt lat="43.16227" lon="2.32774">
        <ele>181.7</ele>
        <time>2019-08-18T07:51:23.000Z</time>
      </trkpt>
      <trkpt lat="43.16229" lon="2.32776">
        <ele>181.3</ele>
        <time>2019-08-18T07:51:24.000Z</time>
      </trkpt>
      <trkpt lat="43.16231" lon="2.32779">
        <ele>181</ele>
        <time>2019-08-18T07:51:25.000Z</time>
      </trkpt>
      <trkpt lat="43.16233" lon="2.32782">
        <ele>180.7</ele>
        <time>2019-08-18T07:51:26.000Z</time>
      </trkpt>
      <trkpt lat="43.16235" lon="2.32784">
        <ele>180.3</ele>
        <time>2019-08-18T07:51:27.000Z</time>
      </trkpt>
      <trkpt lat="43.16238" lon="2.32787">
        <ele>180</ele>
        <time>2019-08-18T07:51:28.000Z</time>
      </trkpt>
      <trkpt lat="43.1624" lon="2.32789">
        <ele>179.6</ele>
        <time>2019-08-18T07:51:29.000Z</time>
      </trkpt>
      <trkpt lat="43.16242" lon="2.32792">
        <ele>179.3</ele>
        <time>2019-08-18T07:51:30.000Z</time>
      </trkpt>
      <trkpt lat="43.16244" lon="2.32794">
        <ele>178.9</ele>
        <time>2019-08-18T07:51:31.000Z</time>
      </trkpt>
      <trkpt lat="43.16246" lon="2.32797">
        <ele>178.6</ele>
        <time>2019-08-18T07:51:32.000Z</time>
      </trkpt>
      <trkpt lat="43.16248" lon="2.32799">
        <ele>178.2</ele>
        <time>2019-08-18T07:51:33.000Z</time>
      </trkpt>
      <trkpt lat="43.1625" lon="2.32802">
        <ele>177.9</ele>
        <time>2019-08-18T07:51:34.000Z</time>
      </trkpt>
      <trkpt lat="43.16252" lon="2.32804">
        <ele>177.6</ele>
        <time>2019-08-18T07:51:35.000Z</time>
      </trkpt>
      <trkpt lat="43.16254" lon="2.32806">
        <ele>177.3</ele>
        <time>2019-08-18T07:51:36.000Z</time>
      </trkpt>
      <trkpt lat="43.16256" lon="2.32809">
        <ele>177.1</ele>
        <time>2019-08-18T07:51:37.000Z</time>
      </trkpt>
      <trkpt lat="43.16258" lon="2.32811">
        <ele>176.8</ele>
        <time>2019-08-18T07:51:38.000Z</time>
      </trkpt>
      <trkpt lat="43.1626" lon="2.32813">
        <ele>176.6</ele>
        <time>2019-08-18T07:51:39.000Z</time>
      </trkpt>
      <trkpt lat="43.16262" lon="2.32816">
        <ele>176.4</ele>
        <time>2019-08-18T07:51:40.000Z</time>
      </trkpt>
      <trkpt lat="43.16264" lon="2.32818">
        <ele>176.1</ele>
        <time>2019-08-18T07:51:41.000Z</time>
      </trkpt>
      <trkpt lat="43.16266" lon="2.3282">
        <ele>175.9</ele>
        <time>2019-08-18T07:51:42.000Z</time>
      </trkpt>
      <trkpt lat="43.16268" lon="2.32822">
        <ele>175.7</ele>
        <time>2019-08-18T07:51:43.000Z</time>
      </trkpt>
      <trkpt lat="43.1627" lon="2.32824">
        <ele>175.5</ele>
        <time>2019-08-18T07:51:44.000Z</time>
      </trkpt>
      <trkpt lat="43.16272" lon="2.32826">
        <ele>175.3</ele>
        <time>2019-08-18T07:51:45.000Z</time>
      </trkpt>
      <trkpt lat="43.16274" lon="2.32828">
        <ele>175.1</ele>
        <time>2019-08-18T07:51:46.000Z</time>
      </trkpt>
      <trkpt lat="43.16276" lon="2.3283">
        <ele>174.9</ele>
        <time>2019-08-18T07:51:47.000Z</time>
      </trkpt>
      <trkpt lat="43.16278" lon="2.32833">
        <ele>174.7</ele>
        <time>2019-08-18T07:51:48.000Z</time>
      </trkpt>
      <trkpt lat="43.1628" lon="2.32836">
        <ele>174.5</ele>
        <time>2019-08-18T07:51:49.000Z</time>
      </trkpt>
      <trkpt lat="43.16282" lon="2.32839">
        <ele>174.2</ele>
        <time>2019-08-18T07:51:50.000Z</time>
      </trkpt>
      <trkpt lat="43.16283" lon="2.32841">
        <ele>174</ele>
        <time>2019-08-18T07:51:51.000Z</time>
      </trkpt>
      <trkpt lat="43.16285" lon="2.32844">
        <ele>173.8</ele>
        <time>2019-08-18T07:51:52.000Z</time>
      </trkpt>
      <trkpt lat="43.16287" lon="2.32846">
        <ele>173.6</ele>
        <time>2019-08-18T07:51:53.000Z</time>
      </trkpt>
      <trkpt lat="43.16289" lon="2.32847">
        <ele>173.5</ele>
        <time>2019-08-18T07:51:54.000Z</time>
      </trkpt>
      <trkpt lat="43.16291" lon="2.32848">
        <ele>173.3</ele>
        <time>2019-08-18T07:51:55.000Z</time>
      </trkpt>
      <trkpt lat="43.16293" lon="2.32848">
        <ele>173.2</ele>
        <time>2019-08-18T07:51:56.000Z</time>
      </trkpt>
      <trkpt lat="43.16295" lon="2.32847">
        <ele>173.2</ele>
        <time>2019-08-18T07:51:57.000Z</time>
      </trkpt>
      <trkpt lat="43.16298" lon="2.32846">
        <ele>173.1</ele>
        <time>2019-08-18T07:51:58.000Z</time>
      </trkpt>
      <trkpt lat="43.163" lon="2.32844">
        <ele>173.1</ele>
        <time>2019-08-18T07:51:59.000Z</time>
      </trkpt>
      <trkpt lat="43.16303" lon="2.32842">
        <ele>173.1</ele>
        <time>2019-08-18T07:52:00.000Z</time>
      </trkpt>
      <trkpt lat="43.16305" lon="2.32839">
        <ele>173.1</ele>
        <time>2019-08-18T07:52:01.000Z</time>
      </trkpt>
      <trkpt lat="43.16308" lon="2.32837">
        <ele>173</ele>
        <time>2019-08-18T07:52:02.000Z</time>
      </trkpt>
      <trkpt lat="43.16311" lon="2.32835">
        <ele>173</ele>
        <time>2019-08-18T07:52:03.000Z</time>
      </trkpt>
      <trkpt lat="43.16313" lon="2.32833">
        <ele>173</ele>
        <time>2019-08-18T07:52:04.000Z</time>
      </trkpt>
      <trkpt lat="43.16316" lon="2.32831">
        <ele>172.9</ele>
        <time>2019-08-18T07:52:05.000Z</time>
      </trkpt>
      <trkpt lat="43.16318" lon="2.32829">
        <ele>172.8</ele>
        <time>2019-08-18T07:52:06.000Z</time>
      </trkpt>
      <trkpt lat="43.1632" lon="2.32827">
        <ele>172.7</ele>
        <time>2019-08-18T07:52:07.000Z</time>
      </trkpt>
      <trkpt lat="43.16323" lon="2.32825">
        <ele>172.6</ele>
        <time>2019-08-18T07:52:08.000Z</time>
      </trkpt>
      <trkpt lat="43.16325" lon="2.32823">
        <ele>172.5</ele>
        <time>2019-08-18T07:52:09.000Z</time>
      </trkpt>
      <trkpt lat="43.16327" lon="2.32822">
        <ele>172.3</ele>
        <time>2019-08-18T07:52:10.000Z</time>
      </trkpt>
      <trkpt lat="43.16329" lon="2.3282">
        <ele>172.2</ele>
        <time>2019-08-18T07:52:11.000Z</time>
      </trkpt>
      <trkpt lat="43.16332" lon="2.32818">
        <ele>172.1</ele>
        <time>2019-08-18T07:52:12.000Z</time>
      </trkpt>
      <trkpt lat="43.16334" lon="2.32816">
        <ele>171.9</ele>
        <time>2019-08-18T07:52:13.000Z</time>
      </trkpt>
      <trkpt lat="43.16336" lon="2.32814">
        <ele>171.7</ele>
        <time>2019-08-18T07:52:14.000Z</time>
      </trkpt>
      <trkpt lat="43.16338" lon="2.32812">
        <ele>171.5</ele>
        <time>2019-08-18T07:52:15.000Z</time>
      </trkpt>
      <trkpt lat="43.16341" lon="2.3281">
        <ele>171.2</ele>
        <time>2019-08-18T07:52:16.000Z</time>
      </trkpt>
      <trkpt lat="43.16343" lon="2.32808">
        <ele>171</ele>
        <time>2019-08-18T07:52:17.000Z</time>
      </trkpt>
      <trkpt lat="43.16345" lon="2.32806">
        <ele>170.7</ele>
        <time>2019-08-18T07:52:18.000Z</time>
      </trkpt>
      <trkpt lat="43.16348" lon="2.32803">
        <ele>170.5</ele>
        <time>2019-08-18T07:52:19.000Z</time>
      </trkpt>
      <trkpt lat="43.1635" lon="2.328">
        <ele>170.2</ele>
        <time>2019-08-18T07:52:20.000Z</time>
      </trkpt>
      <trkpt lat="43.16352" lon="2.32797">
        <ele>170</ele>
        <time>2019-08-18T07:52:21.000Z</time>
      </trkpt>
      <trkpt lat="43.16354" lon="2.32794">
        <ele>169.8</ele>
        <time>2019-08-18T07:52:22.000Z</time>
      </trkpt>
      <trkpt lat="43.16355" lon="2.32791">
        <ele>169.6</ele>
        <time>2019-08-18T07:52:23.000Z</time>
      </trkpt>
      <trkpt lat="43.16357" lon="2.32788">
        <ele>169.4</ele>
        <time>2019-08-18T07:52:24.000Z</time>
      </trkpt>
      <trkpt lat="43.16359" lon="2.32785">
        <ele>169.2</ele>
        <time>2019-08-18T07:52:25.000Z</time>
      </trkpt>
      <trkpt lat="43.16362" lon="2.32784">
        <ele>168.9</ele>
        <time>2019-08-18T07:52:26.000Z</time>
      </trkpt>
      <trkpt lat="43.16364" lon="2.32782">
        <ele>168.7</ele>
        <time>2019-08-18T07:52:27.000Z</time>
      </trkpt>
      <trkpt lat="43.16367" lon="2.32781">
        <ele>168.4</ele>
        <time>2019-08-18T07:52:28.000Z</time>
      </trkpt>
      <trkpt lat="43.16369" lon="2.3278">
        <ele>168.1</ele>
        <time>2019-08-18T07:52:29.000Z</time>
      </trkpt>
      <trkpt lat="43.16372" lon="2.3278">
        <ele>167.8</ele>
        <time>2019-08-18T07:52:30.000Z</time>
      </trkpt>
      <trkpt lat="43.16375" lon="2.32779">
        <ele>167.5</ele>
        <time>2019-08-18T07:52:31.000Z</time>
      </trkpt>
      <trkpt lat="43.16377" lon="2.32778">
        <ele>167.3</ele>
        <time>2019-08-18T07:52:32.000Z</time>
      </trkpt>
      <trkpt lat="43.1638" lon="2.32778">
        <ele>167</ele>
        <time>2019-08-18T07:52:33.000Z</time>
      </trkpt>
      <trkpt lat="43.16383" lon="2.32777">
        <ele>166.7</ele>
        <time>2019-08-18T07:52:34.000Z</time>
      </trkpt>
      <trkpt lat="43.16385" lon="2.32776">
        <ele>166.4</ele>
        <time>2019-08-18T07:52:35.000Z</time>
      </trkpt>
      <trkpt lat="43.16388" lon="2.32775">
        <ele>166.1</ele>
        <time>2019-08-18T07:52:36.000Z</time>
      </trkpt>
      <trkpt lat="43.16391" lon="2.32775">
        <ele>165.8</ele>
        <time>2019-08-18T07:52:37.000Z</time>
      </trkpt>
      <trkpt lat="43.16393" lon="2.32774">
        <ele>165.5</ele>
        <time>2019-08-18T07:52:38.000Z</time>
      </trkpt>
      <trkpt lat="43.16396" lon="2.32773">
        <ele>165.2</ele>
        <time>2019-08-18T07:52:39.000Z</time>
      </trkpt>
      <trkpt lat="43.16399" lon="2.32772">
        <ele>164.9</ele>
        <time>2019-08-18T07:52:40.000Z</time>
      </trkpt>
      <trkpt lat="43.16402" lon="2.32771">
        <ele>164.6</ele>
        <time>2019-08-18T07:52:41.000Z</time>
      </trkpt>
      <trkpt lat="43.16404" lon="2.32769">
        <ele>164.3</ele>
        <time>2019-08-18T07:52:42.000Z</time>
      </trkpt>
      <trkpt lat="43.16407" lon="2.32768">
        <ele>164</ele>
        <time>2019-08-18T07:52:43.000Z</time>
      </trkpt>
      <trkpt lat="43.1641" lon="2.32767">
        <ele>163.7</ele>
        <time>2019-08-18T07:52:44.000Z</time>
      </trkpt>
      <trkpt lat="43.16413" lon="2.32766">
        <ele>163.4</ele>
        <time>2019-08-18T07:52:45.000Z</time>
      </trkpt>
      <trkpt lat="43.16416" lon="2.32764">
        <ele>163.1</ele>
        <time>2019-08-18T07:52:46.000Z</time>
      </trkpt>
      <trkpt lat="43.16419" lon="2.32763">
        <ele>162.9</ele>
        <time>2019-08-18T07:52:47.000Z</time>
      </trkpt>
      <trkpt lat="43.16422" lon="2.32761">
        <ele>162.7</ele>
        <time>2019-08-18T07:52:48.000Z</time>
      </trkpt>
      <trkpt lat="43.16425" lon="2.3276">
        <ele>162.5</ele>
        <time>2019-08-18T07:52:49.000Z</time>
      </trkpt>
      <trkpt lat="43.16428" lon="2.32759">
        <ele>162.3</ele>
        <time>2019-08-18T07:52:50.000Z</time>
      </trkpt>
      <trkpt lat="43.16431" lon="2.32757">
        <ele>162.1</ele>
        <time>2019-08-18T07:52:51.000Z</time>
      </trkpt>
      <trkpt lat="43.16434" lon="2.32757">
        <ele>162</ele>
        <time>2019-08-18T07:52:52.000Z</time>
      </trkpt>
      <trkpt lat="43.16437" lon="2.32756">
        <ele>161.8</ele>
        <time>2019-08-18T07:52:53.000Z</time>
      </trkpt>
      <trkpt lat="43.1644" lon="2.32756">
        <ele>161.6</ele>
        <time>2019-08-18T07:52:54.000Z</time>
      </trkpt>
      <trkpt lat="43.16443" lon="2.32756">
        <ele>161.4</ele>
        <time>2019-08-18T07:52:55.000Z</time>
      </trkpt>
      <trkpt lat="43.16446" lon="2.32756">
        <ele>161.2</ele>
        <time>2019-08-18T07:52:56.000Z</time>
      </trkpt>
      <trkpt lat="43.16449" lon="2.32756">
        <ele>161</ele>
        <time>2019-08-18T07:52:57.000Z</time>
      </trkpt>
      <trkpt lat="43.16452" lon="2.32757">
        <ele>160.9</ele>
        <time>2019-08-18T07:52:58.000Z</time>
      </trkpt>
      <trkpt lat="43.16455" lon="2.32757">
        <ele>160.7</ele>
        <time>2019-08-18T07:52:59.000Z</time>
      </trkpt>
      <trkpt lat="43.16458" lon="2.32758">
        <ele>160.5</ele>
        <time>2019-08-18T07:53:00.000Z</time>
      </trkpt>
      <trkpt lat="43.16461" lon="2.32758">
        <ele>160.3</ele>
        <time>2019-08-18T07:53:01.000Z</time>
      </trkpt>
      <trkpt lat="43.16464" lon="2.32759">
        <ele>160.2</ele>
        <time>2019-08-18T07:53:02.000Z</time>
      </trkpt>
      <trkpt lat="43.16467" lon="2.32759">
        <ele>160</ele>
        <time>2019-08-18T07:53:03.000Z</time>
      </trkpt>
      <trkpt lat="43.16469" lon="2.3276">
        <ele>159.8</ele>
        <time>2019-08-18T07:53:04.000Z</time>
      </trkpt>
      <trkpt lat="43.16472" lon="2.3276">
        <ele>159.7</ele>
        <time>2019-08-18T07:53:05.000Z</time>
      </trkpt>
      <trkpt lat="43.16475" lon="2.32761">
        <ele>159.5</ele>
        <time>2019-08-18T07:53:06.000Z</time>
      </trkpt>
      <trkpt lat="43.16478" lon="2.32762">
        <ele>159.3</ele>
        <time>2019-08-18T07:53:07.000Z</time>
      </trkpt>
      <trkpt lat="43.16481" lon="2.32763">
        <ele>159.2</ele>
        <time>2019-08-18T07:53:08.000Z</time>
      </trkpt>
      <trkpt lat="43.16484" lon="2.32764">
        <ele>159</ele>
        <time>2019-08-18T07:53:09.000Z</time>
      </trkpt>
      <trkpt lat="43.16486" lon="2.32765">
        <ele>158.8</ele>
        <time>2019-08-18T07:53:10.000Z</time>
      </trkpt>
      <trkpt lat="43.16489" lon="2.32767">
        <ele>158.7</ele>
        <time>2019-08-18T07:53:11.000Z</time>
      </trkpt>
      <trkpt lat="43.16492" lon="2.32769">
        <ele>158.5</ele>
        <time>2019-08-18T07:53:12.000Z</time>
      </trkpt>
      <trkpt lat="43.16494" lon="2.32772">
        <ele>158.4</ele>
        <time>2019-08-18T07:53:13.000Z</time>
      </trkpt>
      <trkpt lat="43.16496" lon="2.32775">
        <ele>158.3</ele>
        <time>2019-08-18T07:53:14.000Z</time>
      </trkpt>
      <trkpt lat="43.16497" lon="2.32778">
        <ele>158.2</ele>
        <time>2019-08-18T07:53:15.000Z</time>
      </trkpt>
      <trkpt lat="43.16499" lon="2.32782">
        <ele>158.1</ele>
        <time>2019-08-18T07:53:16.000Z</time>
      </trkpt>
      <trkpt lat="43.165" lon="2.32786">
        <ele>158</ele>
        <time>2019-08-18T07:53:17.000Z</time>
      </trkpt>
      <trkpt lat="43.16501" lon="2.3279">
        <ele>158</ele>
        <time>2019-08-18T07:53:18.000Z</time>
      </trkpt>
      <trkpt lat="43.16502" lon="2.32794">
        <ele>157.9</ele>
        <time>2019-08-18T07:53:19.000Z</time>
      </trkpt>
      <trkpt lat="43.16503" lon="2.32798">
        <ele>157.9</ele>
        <time>2019-08-18T07:53:20.000Z</time>
      </trkpt>
      <trkpt lat="43.16503" lon="2.32802">
        <ele>157.9</ele>
        <time>2019-08-18T07:53:21.000Z</time>
      </trkpt>
      <trkpt lat="43.16504" lon="2.32806">
        <ele>157.8</ele>
        <time>2019-08-18T07:53:22.000Z</time>
      </trkpt>
      <trkpt lat="43.16505" lon="2.3281">
        <ele>157.8</ele>
        <time>2019-08-18T07:53:23.000Z</time>
      </trkpt>
      <trkpt lat="43.16506" lon="2.32814">
        <ele>157.8</ele>
        <time>2019-08-18T07:53:24.000Z</time>
      </trkpt>
      <trkpt lat="43.16507" lon="2.32818">
        <ele>157.8</ele>
        <time>2019-08-18T07:53:25.000Z</time>
      </trkpt>
      <trkpt lat="43.16507" lon="2.32821">
        <ele>157.7</ele>
        <time>2019-08-18T07:53:26.000Z</time>
      </trkpt>
      <trkpt lat="43.16508" lon="2.32825">
        <ele>157.7</ele>
        <time>2019-08-18T07:53:27.000Z</time>
      </trkpt>
      <trkpt lat="43.16509" lon="2.32829">
        <ele>157.7</ele>
        <time>2019-08-18T07:53:28.000Z</time>
      </trkpt>
      <trkpt lat="43.1651" lon="2.32832">
        <ele>157.7</ele>
        <time>2019-08-18T07:53:29.000Z</time>
      </trkpt>
      <trkpt lat="43.1651" lon="2.32836">
        <ele>157.6</ele>
        <time>2019-08-18T07:53:30.000Z</time>
      </trkpt>
      <trkpt lat="43.16511" lon="2.32839">
        <ele>157.6</ele>
        <time>2019-08-18T07:53:31.000Z</time>
      </trkpt>
      <trkpt lat="43.16512" lon="2.32842">
        <ele>157.6</ele>
        <time>2019-08-18T07:53:32.000Z</time>
      </trkpt>
      <trkpt lat="43.16513" lon="2.32845">
        <ele>157.6</ele>
        <time>2019-08-18T07:53:33.000Z</time>
      </trkpt>
      <trkpt lat="43.16514" lon="2.32848">
        <ele>157.6</ele>
        <time>2019-08-18T07:53:34.000Z</time>
      </trkpt>
      <trkpt lat="43.16515" lon="2.32851">
        <ele>157.6</ele>
        <time>2019-08-18T07:53:35.000Z</time>
      </trkpt>
      <trkpt lat="43.16516" lon="2.32854">
        <ele>157.6</ele>
        <time>2019-08-18T07:53:36.000Z</time>
      </trkpt>
      <trkpt lat="43.16517" lon="2.32856">
        <ele>157.6</ele>
        <time>2019-08-18T07:53:37.000Z</time>
      </trkpt>
      <trkpt lat="43.16518" lon="2.32858">
        <ele>157.5</ele>
        <time>2019-08-18T07:53:38.000Z</time>
      </trkpt>
      <trkpt lat="43.16519" lon="2.32861">
        <ele>157.5</ele>
        <time>2019-08-18T07:53:39.000Z</time>
      </trkpt>
      <trkpt lat="43.16521" lon="2.32862">
        <ele>157.5</ele>
        <time>2019-08-18T07:53:40.000Z</time>
      </trkpt>
      <trkpt lat="43.16522" lon="2.32864">
        <ele>157.5</ele>
        <time>2019-08-18T07:53:41.000Z</time>
      </trkpt>
      <trkpt lat="43.16524" lon="2.32865">
        <ele>157.5</ele>
        <time>2019-08-18T07:53:42.000Z</time>
      </trkpt>
      <trkpt lat="43.16526" lon="2.32867">
        <ele>157.4</ele>
        <time>2019-08-18T07:53:43.000Z</time>
      </trkpt>
      <trkpt lat="43.16528" lon="2.32868">
        <ele>157.4</ele>
        <time>2019-08-18T07:53:44.000Z</time>
      </trkpt>
      <trkpt lat="43.16531" lon="2.32868">
        <ele>157.4</ele>
        <time>2019-08-18T07:53:45.000Z</time>
      </trkpt>
      <trkpt lat="43.16533" lon="2.32869">
        <ele>157.3</ele>
        <time>2019-08-18T07:53:46.000Z</time>
      </trkpt>
      <trkpt lat="43.16536" lon="2.3287">
        <ele>157.3</ele>
        <time>2019-08-18T07:53:47.000Z</time>
      </trkpt>
      <trkpt lat="43.16538" lon="2.32871">
        <ele>157.2</ele>
        <time>2019-08-18T07:53:48.000Z</time>
      </trkpt>
      <trkpt lat="43.16541" lon="2.32872">
        <ele>157.2</ele>
        <time>2019-08-18T07:53:49.000Z</time>
      </trkpt>
      <trkpt lat="43.16544" lon="2.32873">
        <ele>157.2</ele>
        <time>2019-08-18T07:53:50.000Z</time>
      </trkpt>
      <trkpt lat="43.16546" lon="2.32874">
        <ele>157.1</ele>
        <time>2019-08-18T07:53:51.000Z</time>
      </trkpt>
      <trkpt lat="43.16549" lon="2.32875">
        <ele>157.1</ele>
        <time>2019-08-18T07:53:52.000Z</time>
      </trkpt>
      <trkpt lat="43.16552" lon="2.32876">
        <ele>157.1</ele>
        <time>2019-08-18T07:53:53.000Z</time>
      </trkpt>
      <trkpt lat="43.16554" lon="2.32877">
        <ele>157.1</ele>
        <time>2019-08-18T07:53:54.000Z</time>
      </trkpt>
      <trkpt lat="43.16557" lon="2.32879">
        <ele>157.1</ele>
        <time>2019-08-18T07:53:55.000Z</time>
      </trkpt>
      <trkpt lat="43.1656" lon="2.3288">
        <ele>157.1</ele>
        <time>2019-08-18T07:53:56.000Z</time>
      </trkpt>
      <trkpt lat="43.16562" lon="2.32882">
        <ele>157.1</ele>
        <time>2019-08-18T07:53:57.000Z</time>
      </trkpt>
      <trkpt lat="43.16565" lon="2.32884">
        <ele>157.1</ele>
        <time>2019-08-18T07:53:58.000Z</time>
      </trkpt>
      <trkpt lat="43.16567" lon="2.32886">
        <ele>157.1</ele>
        <time>2019-08-18T07:53:59.000Z</time>
      </trkpt>
      <trkpt lat="43.1657" lon="2.32887">
        <ele>157.1</ele>
        <time>2019-08-18T07:54:00.000Z</time>
      </trkpt>
      <trkpt lat="43.16573" lon="2.32889">
        <ele>157.1</ele>
        <time>2019-08-18T07:54:01.000Z</time>
      </trkpt>
      <trkpt lat="43.16575" lon="2.32891">
        <ele>157.2</ele>
        <time>2019-08-18T07:54:02.000Z</time>
      </trkpt>
      <trkpt lat="43.16578" lon="2.32893">
        <ele>157.2</ele>
        <time>2019-08-18T07:54:03.000Z</time>
      </trkpt>
      <trkpt lat="43.1658" lon="2.32896">
        <ele>157.3</ele>
        <time>2019-08-18T07:54:04.000Z</time>
      </trkpt>
      <trkpt lat="43.16583" lon="2.32898">
        <ele>157.3</ele>
        <time>2019-08-18T07:54:05.000Z</time>
      </trkpt>
      <trkpt lat="43.16585" lon="2.329">
        <ele>157.4</ele>
        <time>2019-08-18T07:54:06.000Z</time>
      </trkpt>
      <trkpt lat="43.16588" lon="2.32902">
        <ele>157.5</ele>
        <time>2019-08-18T07:54:07.000Z</time>
      </trkpt>
      <trkpt lat="43.16591" lon="2.32904">
        <ele>157.6</ele>
        <time>2019-08-18T07:54:08.000Z</time>
      </trkpt>
      <trkpt lat="43.16593" lon="2.32906">
        <ele>157.6</ele>
        <time>2019-08-18T07:54:09.000Z</time>
      </trkpt>
      <trkpt lat="43.16596" lon="2.32908">
        <ele>157.7</ele>
        <time>2019-08-18T07:54:10.000Z</time>
      </trkpt>
      <trkpt lat="43.16599" lon="2.3291">
        <ele>157.8</ele>
        <time>2019-08-18T07:54:11.000Z</time>
      </trkpt>
      <trkpt lat="43.16601" lon="2.32912">
        <ele>157.9</ele>
        <time>2019-08-18T07:54:12.000Z</time>
      </trkpt>
      <trkpt lat="43.16604" lon="2.32914">
        <ele>157.9</ele>
        <time>2019-08-18T07:54:13.000Z</time>
      </trkpt>
      <trkpt lat="43.16607" lon="2.32916">
        <ele>158</ele>
        <time>2019-08-18T07:54:14.000Z</time>
      </trkpt>
      <trkpt lat="43.1661" lon="2.32918">
        <ele>158</ele>
        <time>2019-08-18T07:54:15.000Z</time>
      </trkpt>
      <trkpt lat="43.16612" lon="2.3292">
        <ele>158</ele>
        <time>2019-08-18T07:54:16.000Z</time>
      </trkpt>
      <trkpt lat="43.16615" lon="2.32922">
        <ele>158.1</ele>
        <time>2019-08-18T07:54:17.000Z</time>
      </trkpt>
      <trkpt lat="43.16618" lon="2.32923">
        <ele>158.1</ele>
        <time>2019-08-18T07:54:18.000Z</time>
      </trkpt>
      <trkpt lat="43.16621" lon="2.32925">
        <ele>158.1</ele>
        <time>2019-08-18T07:54:19.000Z</time>
      </trkpt>
      <trkpt lat="43.16623" lon="2.32927">
        <ele>158.2</ele>
        <time>2019-08-18T07:54:20.000Z</time>
      </trkpt>
      <trkpt lat="43.16626" lon="2.32929">
        <ele>158.2</ele>
        <time>2019-08-18T07:54:21.000Z</time>
      </trkpt>
      <trkpt lat="43.16628" lon="2.32931">
        <ele>158.3</ele>
        <time>2019-08-18T07:54:22.000Z</time>
      </trkpt>
      <trkpt lat="43.16631" lon="2.32932">
        <ele>158.3</ele>
        <time>2019-08-18T07:54:23.000Z</time>
      </trkpt>
      <trkpt lat="43.16633" lon="2.32934">
        <ele>158.3</ele>
        <time>2019-08-18T07:54:24.000Z</time>
      </trkpt>
      <trkpt lat="43.16636" lon="2.32936">
        <ele>158.4</ele>
        <time>2019-08-18T07:54:25.000Z</time>
      </trkpt>
      <trkpt lat="43.16638" lon="2.32938">
        <ele>158.4</ele>
        <time>2019-08-18T07:54:26.000Z</time>
      </trkpt>
      <trkpt lat="43.16641" lon="2.3294">
        <ele>158.5</ele>
        <time>2019-08-18T07:54:27.000Z</time>
      </trkpt>
      <trkpt lat="43.16643" lon="2.32941">
        <ele>158.5</ele>
        <time>2019-08-18T07:54:28.000Z</time>
      </trkpt>
      <trkpt lat="43.16645" lon="2.32943">
        <ele>158.6</ele>
        <time>2019-08-18T07:54:29.000Z</time>
      </trkpt>
      <trkpt lat="43.16647" lon="2.32945">
        <ele>158.6</ele>
        <time>2019-08-18T07:54:30.000Z</time>
      </trkpt>
      <trkpt lat="43.16649" lon="2.32947">
        <ele>158.6</ele>
        <time>2019-08-18T07:54:31.000Z</time>
      </trkpt>
      <trkpt lat="43.16651" lon="2.32948">
        <ele>158.7</ele>
        <time>2019-08-18T07:54:32.000Z</time>
      </trkpt>
      <trkpt lat="43.16654" lon="2.3295">
        <ele>158.7</ele>
        <time>2019-08-18T07:54:33.000Z</time>
      </trkpt>
      <trkpt lat="43.16656" lon="2.32951">
        <ele>158.8</ele>
        <time>2019-08-18T07:54:34.000Z</time>
      </trkpt>
      <trkpt lat="43.16658" lon="2.32953">
        <ele>158.8</ele>
        <time>2019-08-18T07:54:35.000Z</time>
      </trkpt>
      <trkpt lat="43.1666" lon="2.32954">
        <ele>158.9</ele>
        <time>2019-08-18T07:54:36.000Z</time>
      </trkpt>
      <trkpt lat="43.16662" lon="2.32956">
        <ele>158.9</ele>
        <time>2019-08-18T07:54:37.000Z</time>
      </trkpt>
      <trkpt lat="43.16665" lon="2.32957">
        <ele>159</ele>
        <time>2019-08-18T07:54:38.000Z</time>
      </trkpt>
      <trkpt lat="43.16667" lon="2.32958">
        <ele>159</ele>
        <time>2019-08-18T07:54:39.000Z</time>
      </trkpt>
      <trkpt lat="43.1667" lon="2.32959">
        <ele>159.1</ele>
        <time>2019-08-18T07:54:40.000Z</time>
      </trkpt>
      <trkpt lat="43.16672" lon="2.3296">
        <ele>159.2</ele>
        <time>2019-08-18T07:54:41.000Z</time>
      </trkpt>
      <trkpt lat="43.16675" lon="2.32961">
        <ele>159.3</ele>
        <time>2019-08-18T07:54:42.000Z</time>
      </trkpt>
      <trkpt lat="43.16677" lon="2.32962">
        <ele>159.4</ele>
        <time>2019-08-18T07:54:43.000Z</time>
      </trkpt>
      <trkpt lat="43.1668" lon="2.32963">
        <ele>159.5</ele>
        <time>2019-08-18T07:54:44.000Z</time>
      </trkpt>
      <trkpt lat="43.16682" lon="2.32963">
        <ele>159.6</ele>
        <time>2019-08-18T07:54:45.000Z</time>
      </trkpt>
      <trkpt lat="43.16684" lon="2.32963">
        <ele>159.6</ele>
        <time>2019-08-18T07:54:46.000Z</time>
      </trkpt>
      <trkpt lat="43.16687" lon="2.32963">
        <ele>159.7</ele>
        <time>2019-08-18T07:54:47.000Z</time>
      </trkpt>
      <trkpt lat="43.16689" lon="2.32962">
        <ele>159.7</ele>
        <time>2019-08-18T07:54:48.000Z</time>
      </trkpt>
      <trkpt lat="43.16691" lon="2.32961">
        <ele>159.8</ele>
        <time>2019-08-18T07:54:49.000Z</time>
      </trkpt>
      <trkpt lat="43.16693" lon="2.3296">
        <ele>159.8</ele>
        <time>2019-08-18T07:54:50.000Z</time>
      </trkpt>
      <trkpt lat="43.16695" lon="2.32959">
        <ele>159.9</ele>
        <time>2019-08-18T07:54:51.000Z</time>
      </trkpt>
      <trkpt lat="43.16697" lon="2.32957">
        <ele>159.9</ele>
        <time>2019-08-18T07:54:52.000Z</time>
      </trkpt>
      <trkpt lat="43.16699" lon="2.32954">
        <ele>159.9</ele>
        <time>2019-08-18T07:54:53.000Z</time>
      </trkpt>
      <trkpt lat="43.167" lon="2.32951">
        <ele>159.9</ele>
        <time>2019-08-18T07:54:54.000Z</time>
      </trkpt>
      <trkpt lat="43.16701" lon="2.32948">
        <ele>159.8</ele>
        <time>2019-08-18T07:54:55.000Z</time>
      </trkpt>
      <trkpt lat="43.16702" lon="2.32946">
        <ele>159.8</ele>
        <time>2019-08-18T07:54:56.000Z</time>
      </trkpt>
      <trkpt lat="43.16703" lon="2.32943">
        <ele>159.8</ele>
        <time>2019-08-18T07:54:57.000Z</time>
      </trkpt>
      <trkpt lat="43.16704" lon="2.32941">
        <ele>159.8</ele>
        <time>2019-08-18T07:54:58.000Z</time>
      </trkpt>
      <trkpt lat="43.16705" lon="2.32939">
        <ele>159.8</ele>
        <time>2019-08-18T07:54:59.000Z</time>
      </trkpt>
      <trkpt lat="43.16706" lon="2.32936">
        <ele>159.8</ele>
        <time>2019-08-18T07:55:00.000Z</time>
      </trkpt>
      <trkpt lat="43.16707" lon="2.32933">
        <ele>159.8</ele>
        <time>2019-08-18T07:55:01.000Z</time>
      </trkpt>
      <trkpt lat="43.16709" lon="2.3293">
        <ele>159.7</ele>
        <time>2019-08-18T07:55:02.000Z</time>
      </trkpt>
      <trkpt lat="43.1671" lon="2.32927">
        <ele>159.8</ele>
        <time>2019-08-18T07:55:03.000Z</time>
      </trkpt>
      <trkpt lat="43.16712" lon="2.32924">
        <ele>159.8</ele>
        <time>2019-08-18T07:55:04.000Z</time>
      </trkpt>
      <trkpt lat="43.16714" lon="2.3292">
        <ele>159.8</ele>
        <time>2019-08-18T07:55:05.000Z</time>
      </trkpt>
      <trkpt lat="43.16716" lon="2.32917">
        <ele>159.8</ele>
        <time>2019-08-18T07:55:06.000Z</time>
      </trkpt>
      <trkpt lat="43.16717" lon="2.32914">
        <ele>159.8</ele>
        <time>2019-08-18T07:55:07.000Z</time>
      </trkpt>
      <trkpt lat="43.16719" lon="2.32911">
        <ele>159.8</ele>
        <time>2019-08-18T07:55:08.000Z</time>
      </trkpt>
      <trkpt lat="43.1672" lon="2.32908">
        <ele>159.8</ele>
        <time>2019-08-18T07:55:09.000Z</time>
      </trkpt>
      <trkpt lat="43.16721" lon="2.32905">
        <ele>159.8</ele>
        <time>2019-08-18T07:55:10.000Z</time>
      </trkpt>
      <trkpt lat="43.16722" lon="2.32903">
        <ele>159.8</ele>
        <time>2019-08-18T07:55:11.000Z</time>
      </trkpt>
      <trkpt lat="43.16723" lon="2.329">
        <ele>159.8</ele>
        <time>2019-08-18T07:55:12.000Z</time>
      </trkpt>
      <trkpt lat="43.16724" lon="2.32897">
        <ele>159.8</ele>
        <time>2019-08-18T07:55:13.000Z</time>
      </trkpt>
      <trkpt lat="43.16725" lon="2.32894">
        <ele>159.8</ele>
        <time>2019-08-18T07:55:14.000Z</time>
      </trkpt>
      <trkpt lat="43.16725" lon="2.32891">
        <ele>159.8</ele>
        <time>2019-08-18T07:55:15.000Z</time>
      </trkpt>
      <trkpt lat="43.16726" lon="2.32888">
        <ele>159.8</ele>
        <time>2019-08-18T07:55:16.000Z</time>
      </trkpt>
      <trkpt lat="43.16727" lon="2.32885">
        <ele>159.8</ele>
        <time>2019-08-18T07:55:17.000Z</time>
      </trkpt>
      <trkpt lat="43.16728" lon="2.32882">
        <ele>159.8</ele>
        <time>2019-08-18T07:55:18.000Z</time>
      </trkpt>
      <trkpt lat="43.16729" lon="2.32879">
        <ele>159.8</ele>
        <time>2019-08-18T07:55:19.000Z</time>
      </trkpt>
      <trkpt lat="43.1673" lon="2.32876">
        <ele>159.8</ele>
        <time>2019-08-18T07:55:20.000Z</time>
      </trkpt>
      <trkpt lat="43.16731" lon="2.32872">
        <ele>159.8</ele>
        <time>2019-08-18T07:55:21.000Z</time>
      </trkpt>
      <trkpt lat="43.16732" lon="2.32869">
        <ele>159.8</ele>
        <time>2019-08-18T07:55:22.000Z</time>
      </trkpt>
      <trkpt lat="43.16733" lon="2.32865">
        <ele>159.8</ele>
        <time>2019-08-18T07:55:23.000Z</time>
      </trkpt>
      <trkpt lat="43.16734" lon="2.32861">
        <ele>159.8</ele>
        <time>2019-08-18T07:55:24.000Z</time>
      </trkpt>
      <trkpt lat="43.16735" lon="2.32858">
        <ele>159.8</ele>
        <time>2019-08-18T07:55:25.000Z</time>
      </trkpt>
      <trkpt lat="43.16737" lon="2.32854">
        <ele>159.8</ele>
        <time>2019-08-18T07:55:26.000Z</time>
      </trkpt>
      <trkpt lat="43.16738" lon="2.3285">
        <ele>159.8</ele>
        <time>2019-08-18T07:55:27.000Z</time>
      </trkpt>
      <trkpt lat="43.1674" lon="2.32846">
        <ele>159.8</ele>
        <time>2019-08-18T07:55:28.000Z</time>
      </trkpt>
      <trkpt lat="43.16741" lon="2.32842">
        <ele>159.8</ele>
        <time>2019-08-18T07:55:29.000Z</time>
      </trkpt>
      <trkpt lat="43.16742" lon="2.32839">
        <ele>159.8</ele>
        <time>2019-08-18T07:55:30.000Z</time>
      </trkpt>
      <trkpt lat="43.16744" lon="2.32835">
        <ele>159.8</ele>
        <time>2019-08-18T07:55:31.000Z</time>
      </trkpt>
      <trkpt lat="43.16745" lon="2.32832">
        <ele>159.8</ele>
        <time>2019-08-18T07:55:32.000Z</time>
      </trkpt>
      <trkpt lat="43.16747" lon="2.32829">
        <ele>159.8</ele>
        <time>2019-08-18T07:55:33.000Z</time>
      </trkpt>
      <trkpt lat="43.16748" lon="2.32826">
        <ele>159.7</ele>
        <time>2019-08-18T07:55:34.000Z</time>
      </trkpt>
      <trkpt lat="43.16749" lon="2.32823">
        <ele>159.7</ele>
        <time>2019-08-18T07:55:35.000Z</time>
      </trkpt>
      <trkpt lat="43.16751" lon="2.3282">
        <ele>159.6</ele>
        <time>2019-08-18T07:55:36.000Z</time>
      </trkpt>
      <trkpt lat="43.16752" lon="2.32817">
        <ele>159.5</ele>
        <time>2019-08-18T07:55:37.000Z</time>
      </trkpt>
      <trkpt lat="43.16753" lon="2.32815">
        <ele>159.4</ele>
        <time>2019-08-18T07:55:38.000Z</time>
      </trkpt>
      <trkpt lat="43.16754" lon="2.32813">
        <ele>159.2</ele>
        <time>2019-08-18T07:55:39.000Z</time>
      </trkpt>
      <trkpt lat="43.16755" lon="2.32811">
        <ele>159.1</ele>
        <time>2019-08-18T07:55:40.000Z</time>
      </trkpt>
      <trkpt lat="43.16757" lon="2.32808">
        <ele>159</ele>
        <time>2019-08-18T07:55:41.000Z</time>
      </trkpt>
      <trkpt lat="43.16758" lon="2.32806">
        <ele>158.8</ele>
        <time>2019-08-18T07:55:42.000Z</time>
      </trkpt>
      <trkpt lat="43.16759" lon="2.32804">
        <ele>158.7</ele>
        <time>2019-08-18T07:55:43.000Z</time>
      </trkpt>
      <trkpt lat="43.1676" lon="2.32802">
        <ele>158.6</ele>
        <time>2019-08-18T07:55:44.000Z</time>
      </trkpt>
      <trkpt lat="43.16762" lon="2.32799">
        <ele>158.4</ele>
        <time>2019-08-18T07:55:45.000Z</time>
      </trkpt>
      <trkpt lat="43.16763" lon="2.32797">
        <ele>158.3</ele>
        <time>2019-08-18T07:55:46.000Z</time>
      </trkpt>
      <trkpt lat="43.16764" lon="2.32794">
        <ele>158.1</ele>
        <time>2019-08-18T07:55:47.000Z</time>
      </trkpt>
      <trkpt lat="43.16766" lon="2.32792">
        <ele>158</ele>
        <time>2019-08-18T07:55:48.000Z</time>
      </trkpt>
      <trkpt lat="43.16767" lon="2.32789">
        <ele>157.8</ele>
        <time>2019-08-18T07:55:49.000Z</time>
      </trkpt>
      <trkpt lat="43.16769" lon="2.32786">
        <ele>157.6</ele>
        <time>2019-08-18T07:55:50.000Z</time>
      </trkpt>
      <trkpt lat="43.16771" lon="2.32783">
        <ele>157.4</ele>
        <time>2019-08-18T07:55:51.000Z</time>
      </trkpt>
      <trkpt lat="43.16773" lon="2.3278">
        <ele>157.3</ele>
        <time>2019-08-18T07:55:52.000Z</time>
      </trkpt>
      <trkpt lat="43.16774" lon="2.32777">
        <ele>157.1</ele>
        <time>2019-08-18T07:55:53.000Z</time>
      </trkpt>
      <trkpt lat="43.16776" lon="2.32774">
        <ele>156.9</ele>
        <time>2019-08-18T07:55:54.000Z</time>
      </trkpt>
      <trkpt lat="43.16778" lon="2.3277">
        <ele>156.7</ele>
        <time>2019-08-18T07:55:55.000Z</time>
      </trkpt>
      <trkpt lat="43.16779" lon="2.32768">
        <ele>156.6</ele>
        <time>2019-08-18T07:55:56.000Z</time>
      </trkpt>
      <trkpt lat="43.16781" lon="2.32765">
        <ele>156.4</ele>
        <time>2019-08-18T07:55:57.000Z</time>
      </trkpt>
      <trkpt lat="43.16782" lon="2.32762">
        <ele>156.3</ele>
        <time>2019-08-18T07:55:58.000Z</time>
      </trkpt>
      <trkpt lat="43.16784" lon="2.32759">
        <ele>156.1</ele>
        <time>2019-08-18T07:55:59.000Z</time>
      </trkpt>
      <trkpt lat="43.16785" lon="2.32755">
        <ele>156</ele>
        <time>2019-08-18T07:56:00.000Z</time>
      </trkpt>
      <trkpt lat="43.16786" lon="2.32752">
        <ele>155.8</ele>
        <time>2019-08-18T07:56:01.000Z</time>
      </trkpt>
      <trkpt lat="43.16788" lon="2.32748">
        <ele>155.7</ele>
        <time>2019-08-18T07:56:02.000Z</time>
      </trkpt>
      <trkpt lat="43.16789" lon="2.32744">
        <ele>155.6</ele>
        <time>2019-08-18T07:56:03.000Z</time>
      </trkpt>
      <trkpt lat="43.1679" lon="2.32739">
        <ele>155.5</ele>
        <time>2019-08-18T07:56:04.000Z</time>
      </trkpt>
      <trkpt lat="43.16791" lon="2.32735">
        <ele>155.4</ele>
        <time>2019-08-18T07:56:05.000Z</time>
      </trkpt>
      <trkpt lat="43.16793" lon="2.32731">
        <ele>155.3</ele>
        <time>2019-08-18T07:56:06.000Z</time>
      </trkpt>
      <trkpt lat="43.16794" lon="2.32727">
        <ele>155.2</ele>
        <time>2019-08-18T07:56:07.000Z</time>
      </trkpt>
      <trkpt lat="43.16797" lon="2.32724">
        <ele>155.1</ele>
        <time>2019-08-18T07:56:08.000Z</time>
      </trkpt>
      <trkpt lat="43.16799" lon="2.32721">
        <ele>155</ele>
        <time>2019-08-18T07:56:09.000Z</time>
      </trkpt>
      <trkpt lat="43.16801" lon="2.32717">
        <ele>154.9</ele>
        <time>2019-08-18T07:56:10.000Z</time>
      </trkpt>
      <trkpt lat="43.16803" lon="2.32713">
        <ele>154.8</ele>
        <time>2019-08-18T07:56:11.000Z</time>
      </trkpt>
      <trkpt lat="43.16805" lon="2.32709">
        <ele>154.7</ele>
        <time>2019-08-18T07:56:12.000Z</time>
      </trkpt>
      <trkpt lat="43.16807" lon="2.32705">
        <ele>154.6</ele>
        <time>2019-08-18T07:56:13.000Z</time>
      </trkpt>
      <trkpt lat="43.16809" lon="2.32701">
        <ele>154.5</ele>
        <time>2019-08-18T07:56:14.000Z</time>
      </trkpt>
      <trkpt lat="43.1681" lon="2.32697">
        <ele>154.5</ele>
        <time>2019-08-18T07:56:15.000Z</time>
      </trkpt>
      <trkpt lat="43.16811" lon="2.32693">
        <ele>154.5</ele>
        <time>2019-08-18T07:56:16.000Z</time>
      </trkpt>
      <trkpt lat="43.16813" lon="2.3269">
        <ele>154.4</ele>
        <time>2019-08-18T07:56:17.000Z</time>
      </trkpt>
      <trkpt lat="43.16813" lon="2.32686">
        <ele>154.4</ele>
        <time>2019-08-18T07:56:18.000Z</time>
      </trkpt>
      <trkpt lat="43.16814" lon="2.32683">
        <ele>154.4</ele>
        <time>2019-08-18T07:56:19.000Z</time>
      </trkpt>
      <trkpt lat="43.16815" lon="2.3268">
        <ele>154.4</ele>
        <time>2019-08-18T07:56:20.000Z</time>
      </trkpt>
      <trkpt lat="43.16816" lon="2.32677">
        <ele>154.4</ele>
        <time>2019-08-18T07:56:21.000Z</time>
      </trkpt>
      <trkpt lat="43.16816" lon="2.32674">
        <ele>154.4</ele>
        <time>2019-08-18T07:56:22.000Z</time>
      </trkpt>
      <trkpt lat="43.16817" lon="2.32671">
        <ele>154.4</ele>
        <time>2019-08-18T07:56:23.000Z</time>
      </trkpt>
      <trkpt lat="43.16818" lon="2.32668">
        <ele>154.4</ele>
        <time>2019-08-18T07:56:24.000Z</time>
      </trkpt>
      <trkpt lat="43.16819" lon="2.32665">
        <ele>154.3</ele>
        <time>2019-08-18T07:56:25.000Z</time>
      </trkpt>
      <trkpt lat="43.1682" lon="2.32661">
        <ele>154.2</ele>
        <time>2019-08-18T07:56:26.000Z</time>
      </trkpt>
      <trkpt lat="43.16821" lon="2.32658">
        <ele>154.1</ele>
        <time>2019-08-18T07:56:27.000Z</time>
      </trkpt>
      <trkpt lat="43.16822" lon="2.32655">
        <ele>154</ele>
        <time>2019-08-18T07:56:28.000Z</time>
      </trkpt>
      <trkpt lat="43.16823" lon="2.32651">
        <ele>153.9</ele>
        <time>2019-08-18T07:56:29.000Z</time>
      </trkpt>
      <trkpt lat="43.16824" lon="2.32648">
        <ele>153.8</ele>
        <time>2019-08-18T07:56:30.000Z</time>
      </trkpt>
      <trkpt lat="43.16825" lon="2.32644">
        <ele>153.7</ele>
        <time>2019-08-18T07:56:31.000Z</time>
      </trkpt>
      <trkpt lat="43.16826" lon="2.32641">
        <ele>153.6</ele>
        <time>2019-08-18T07:56:32.000Z</time>
      </trkpt>
      <trkpt lat="43.16827" lon="2.32638">
        <ele>153.5</ele>
        <time>2019-08-18T07:56:33.000Z</time>
      </trkpt>
      <trkpt lat="43.16827" lon="2.32635">
        <ele>153.4</ele>
        <time>2019-08-18T07:56:34.000Z</time>
      </trkpt>
      <trkpt lat="43.16828" lon="2.32631">
        <ele>153.3</ele>
        <time>2019-08-18T07:56:35.000Z</time>
      </trkpt>
      <trkpt lat="43.16829" lon="2.32628">
        <ele>153.2</ele>
        <time>2019-08-18T07:56:36.000Z</time>
      </trkpt>
      <trkpt lat="43.1683" lon="2.32625">
        <ele>153.1</ele>
        <time>2019-08-18T07:56:37.000Z</time>
      </trkpt>
      <trkpt lat="43.16831" lon="2.32621">
        <ele>153</ele>
        <time>2019-08-18T07:56:38.000Z</time>
      </trkpt>
      <trkpt lat="43.16832" lon="2.32618">
        <ele>152.8</ele>
        <time>2019-08-18T07:56:39.000Z</time>
      </trkpt>
      <trkpt lat="43.16833" lon="2.32614">
        <ele>152.7</ele>
        <time>2019-08-18T07:56:40.000Z</time>
      </trkpt>
      <trkpt lat="43.16835" lon="2.32611">
        <ele>152.5</ele>
        <time>2019-08-18T07:56:41.000Z</time>
      </trkpt>
      <trkpt lat="43.16836" lon="2.32607">
        <ele>152.3</ele>
        <time>2019-08-18T07:56:42.000Z</time>
      </trkpt>
      <trkpt lat="43.16838" lon="2.32604">
        <ele>152</ele>
        <time>2019-08-18T07:56:43.000Z</time>
      </trkpt>
      <trkpt lat="43.16839" lon="2.326">
        <ele>151.8</ele>
        <time>2019-08-18T07:56:44.000Z</time>
      </trkpt>
      <trkpt lat="43.16841" lon="2.32597">
        <ele>151.6</ele>
        <time>2019-08-18T07:56:45.000Z</time>
      </trkpt>
      <trkpt lat="43.16842" lon="2.32594">
        <ele>151.4</ele>
        <time>2019-08-18T07:56:46.000Z</time>
      </trkpt>
      <trkpt lat="43.16844" lon="2.3259">
        <ele>151.2</ele>
        <time>2019-08-18T07:56:47.000Z</time>
      </trkpt>
      <trkpt lat="43.16845" lon="2.32587">
        <ele>151.1</ele>
        <time>2019-08-18T07:56:48.000Z</time>
      </trkpt>
      <trkpt lat="43.16846" lon="2.32584">
        <ele>150.9</ele>
        <time>2019-08-18T07:56:49.000Z</time>
      </trkpt>
      <trkpt lat="43.16848" lon="2.32581">
        <ele>150.7</ele>
        <time>2019-08-18T07:56:50.000Z</time>
      </trkpt>
      <trkpt lat="43.16849" lon="2.32578">
        <ele>150.6</ele>
        <time>2019-08-18T07:56:51.000Z</time>
      </trkpt>
      <trkpt lat="43.1685" lon="2.32575">
        <ele>150.5</ele>
        <time>2019-08-18T07:56:52.000Z</time>
      </trkpt>
      <trkpt lat="43.16851" lon="2.32572">
        <ele>150.3</ele>
        <time>2019-08-18T07:56:53.000Z</time>
      </trkpt>
      <trkpt lat="43.16852" lon="2.32569">
        <ele>150.2</ele>
        <time>2019-08-18T07:56:54.000Z</time>
      </trkpt>
      <trkpt lat="43.16852" lon="2.32566">
        <ele>150.1</ele>
        <time>2019-08-18T07:56:55.000Z</time>
      </trkpt>
      <trkpt lat="43.16853" lon="2.32563">
        <ele>150</ele>
        <time>2019-08-18T07:56:56.000Z</time>
      </trkpt>
      <trkpt lat="43.16854" lon="2.3256">
        <ele>149.9</ele>
        <time>2019-08-18T07:56:57.000Z</time>
      </trkpt>
      <trkpt lat="43.16855" lon="2.32557">
        <ele>149.8</ele>
        <time>2019-08-18T07:56:58.000Z</time>
      </trkpt>
      <trkpt lat="43.16856" lon="2.32554">
        <ele>149.7</ele>
        <time>2019-08-18T07:56:59.000Z</time>
      </trkpt>
      <trkpt lat="43.16857" lon="2.32551">
        <ele>149.6</ele>
        <time>2019-08-18T07:57:00.000Z</time>
      </trkpt>
      <trkpt lat="43.16858" lon="2.32548">
        <ele>149.5</ele>
        <time>2019-08-18T07:57:01.000Z</time>
      </trkpt>
      <trkpt lat="43.16859" lon="2.32545">
        <ele>149.3</ele>
        <time>2019-08-18T07:57:02.000Z</time>
      </trkpt>
      <trkpt lat="43.1686" lon="2.32542">
        <ele>149.2</ele>
        <time>2019-08-18T07:57:03.000Z</time>
      </trkpt>
      <trkpt lat="43.16861" lon="2.32538">
        <ele>149.1</ele>
        <time>2019-08-18T07:57:04.000Z</time>
      </trkpt>
      <trkpt lat="43.16863" lon="2.32535">
        <ele>149</ele>
        <time>2019-08-18T07:57:05.000Z</time>
      </trkpt>
      <trkpt lat="43.16864" lon="2.32531">
        <ele>148.9</ele>
        <time>2019-08-18T07:57:06.000Z</time>
      </trkpt>
      <trkpt lat="43.16865" lon="2.32527">
        <ele>148.8</ele>
        <time>2019-08-18T07:57:07.000Z</time>
      </trkpt>
      <trkpt lat="43.16866" lon="2.32523">
        <ele>148.7</ele>
        <time>2019-08-18T07:57:08.000Z</time>
      </trkpt>
      <trkpt lat="43.16867" lon="2.32519">
        <ele>148.6</ele>
        <time>2019-08-18T07:57:09.000Z</time>
      </trkpt>
      <trkpt lat="43.16868" lon="2.32515">
        <ele>148.5</ele>
        <time>2019-08-18T07:57:10.000Z</time>
      </trkpt>
      <trkpt lat="43.16869" lon="2.32512">
        <ele>148.4</ele>
        <time>2019-08-18T07:57:11.000Z</time>
      </trkpt>
      <trkpt lat="43.16871" lon="2.32509">
        <ele>148.3</ele>
        <time>2019-08-18T07:57:12.000Z</time>
      </trkpt>
      <trkpt lat="43.16872" lon="2.32506">
        <ele>148.2</ele>
        <time>2019-08-18T07:57:13.000Z</time>
      </trkpt>
      <trkpt lat="43.16874" lon="2.32504">
        <ele>148.1</ele>
        <time>2019-08-18T07:57:14.000Z</time>
      </trkpt>
      <trkpt lat="43.16876" lon="2.32503">
        <ele>148</ele>
        <time>2019-08-18T07:57:15.000Z</time>
      </trkpt>
      <trkpt lat="43.16878" lon="2.32502">
        <ele>147.8</ele>
        <time>2019-08-18T07:57:16.000Z</time>
      </trkpt>
      <trkpt lat="43.16881" lon="2.32502">
        <ele>147.7</ele>
        <time>2019-08-18T07:57:17.000Z</time>
      </trkpt>
      <trkpt lat="43.16884" lon="2.32503">
        <ele>147.6</ele>
        <time>2019-08-18T07:57:18.000Z</time>
      </trkpt>
      <trkpt lat="43.16886" lon="2.32504">
        <ele>147.5</ele>
        <time>2019-08-18T07:57:19.000Z</time>
      </trkpt>
      <trkpt lat="43.16888" lon="2.32505">
        <ele>147.4</ele>
        <time>2019-08-18T07:57:20.000Z</time>
      </trkpt>
      <trkpt lat="43.16889" lon="2.32507">
        <ele>147.3</ele>
        <time>2019-08-18T07:57:21.000Z</time>
      </trkpt>
      <trkpt lat="43.16891" lon="2.32509">
        <ele>147.2</ele>
        <time>2019-08-18T07:57:22.000Z</time>
      </trkpt>
      <trkpt lat="43.16892" lon="2.32511">
        <ele>147.2</ele>
        <time>2019-08-18T07:57:23.000Z</time>
      </trkpt>
      <trkpt lat="43.16893" lon="2.32512">
        <ele>147.1</ele>
        <time>2019-08-18T07:57:24.000Z</time>
      </trkpt>
      <trkpt lat="43.16894" lon="2.32514">
        <ele>147.1</ele>
        <time>2019-08-18T07:57:25.000Z</time>
      </trkpt>
      <trkpt lat="43.16895" lon="2.32514">
        <ele>147</ele>
        <time>2019-08-18T07:57:26.000Z</time>
      </trkpt>
      <trkpt lat="43.16896" lon="2.32514">
        <ele>146.9</ele>
        <time>2019-08-18T07:57:27.000Z</time>
      </trkpt>
      <trkpt lat="43.16897" lon="2.32514">
        <ele>146.9</ele>
        <time>2019-08-18T07:57:28.000Z</time>
      </trkpt>
      <trkpt lat="43.16899" lon="2.32512">
        <ele>146.8</ele>
        <time>2019-08-18T07:57:29.000Z</time>
      </trkpt>
      <trkpt lat="43.169" lon="2.32511">
        <ele>146.7</ele>
        <time>2019-08-18T07:57:30.000Z</time>
      </trkpt>
      <trkpt lat="43.16901" lon="2.32509">
        <ele>146.7</ele>
        <time>2019-08-18T07:57:31.000Z</time>
      </trkpt>
      <trkpt lat="43.16903" lon="2.32507">
        <ele>146.6</ele>
        <time>2019-08-18T07:57:32.000Z</time>
      </trkpt>
      <trkpt lat="43.16904" lon="2.32504">
        <ele>146.6</ele>
        <time>2019-08-18T07:57:33.000Z</time>
      </trkpt>
      <trkpt lat="43.16906" lon="2.32501">
        <ele>146.5</ele>
        <time>2019-08-18T07:57:34.000Z</time>
      </trkpt>
      <trkpt lat="43.16907" lon="2.32499">
        <ele>146.4</ele>
        <time>2019-08-18T07:57:35.000Z</time>
      </trkpt>
      <trkpt lat="43.16909" lon="2.32496">
        <ele>146.3</ele>
        <time>2019-08-18T07:57:36.000Z</time>
      </trkpt>
      <trkpt lat="43.1691" lon="2.32494">
        <ele>146.2</ele>
        <time>2019-08-18T07:57:37.000Z</time>
      </trkpt>
      <trkpt lat="43.16911" lon="2.32491">
        <ele>146.1</ele>
        <time>2019-08-18T07:57:38.000Z</time>
      </trkpt>
      <trkpt lat="43.16912" lon="2.32489">
        <ele>146</ele>
        <time>2019-08-18T07:57:39.000Z</time>
      </trkpt>
      <trkpt lat="43.16913" lon="2.32487">
        <ele>145.9</ele>
        <time>2019-08-18T07:57:40.000Z</time>
      </trkpt>
    </trkseg>
  </trk>
</gpx>